<?xml version="1.0" encoding="UTF-8" standalone="no" ?><gpx xmlns="http://www.topografix.com/GPX/1/1" xmlns:gpxx="http://www.garmin.com/xmlschemas/GpxExtensions/v3" xmlns:wptx1="http://www.garmin.com/xmlschemas/WaypointExtension/v1" xmlns:gpxtpx="http://www.garmin.com/xmlschemas/TrackPointExtension/v1" creator="GuideVTT.com" version="1.1" xmlns:xsi="http://www.w3.org/2001/XMLSchema-instance" xsi:schemaLocation="http://www.topografix.com/GPX/1/1 http://www.topografix.com/GPX/1/1/gpx.xsd http://www.garmin.com/xmlschemas/GpxExtensions/v3 http://www8.garmin.com/xmlschemas/GpxExtensionsv3.xsd http://www.garmin.com/xmlschemas/WaypointExtension/v1 http://www8.garmin.com/xmlschemas/WaypointExtensionv1.xsd http://www.garmin.com/xmlschemas/TrackPointExtension/v1 http://www.garmin.com/xmlschemas/TrackPointExtensionv1.xsd">
<metadata><link href="http://www.garmin.com"><text>Garmin International</text></link><time>2013-06-22T15:13:50Z</time></metadata>
<trk><name>activity_5449360589.gpx</name><extensions><gpxx:TrackExtension><gpxx:DisplayColor>Cyan</gpxx:DisplayColor></gpxx:TrackExtension></extensions><trkseg>
<trkpt lat="46.2666110135614871978759765625" lon="7.46141170151531696319580078125"><ele></ele><time>2020-9-19T6:9:18Z</time></trkpt>
<trkpt lat="46.2667273543775081634521484375" lon="7.46182107366621494293212890625"><ele></ele><time>2020-9-19T6:9:21Z</time></trkpt>
<trkpt lat="46.26674856059253215789794921875" lon="7.461892068386077880859375"><ele></ele><time>2020-9-19T6:9:24Z</time></trkpt>
<trkpt lat="46.26676775515079498291015625" lon="7.461962141096591949462890625"><ele></ele><time>2020-9-19T6:9:27Z</time></trkpt>
<trkpt lat="46.26678594388067722320556640625" lon="7.46203212998807430267333984375"><ele></ele><time>2020-9-19T6:9:30Z</time></trkpt>
<trkpt lat="46.26680203713476657867431640625" lon="7.4620994366705417633056640625"><ele></ele><time>2020-9-19T6:9:33Z</time></trkpt>
<trkpt lat="46.26681846566498279571533203125" lon="7.4621594510972499847412109375"><ele></ele><time>2020-9-19T6:9:36Z</time></trkpt>
<trkpt lat="46.26683305017650127410888671875" lon="7.462208233773708343505859375"><ele></ele><time>2020-9-19T6:9:39Z</time></trkpt>
<trkpt lat="46.26685467548668384552001953125" lon="7.46223463676869869232177734375"><ele></ele><time>2020-9-19T6:9:42Z</time></trkpt>
<trkpt lat="46.2668748758733272552490234375" lon="7.46222357265651226043701171875"><ele></ele><time>2020-9-19T6:9:45Z</time></trkpt>
<trkpt lat="46.26688350923359394073486328125" lon="7.46218518353998661041259765625"><ele></ele><time>2020-9-19T6:9:48Z</time></trkpt>
<trkpt lat="46.26688417978584766387939453125" lon="7.462133467197418212890625"><ele></ele><time>2020-9-19T6:9:51Z</time></trkpt>
<trkpt lat="46.26688149757683277130126953125" lon="7.46207202784717082977294921875"><ele></ele><time>2020-9-19T6:9:54Z</time></trkpt>
<trkpt lat="46.26687143929302692413330078125" lon="7.46200673282146453857421875"><ele></ele><time>2020-9-19T6:9:57Z</time></trkpt>
<trkpt lat="46.26685702241957187652587890625" lon="7.46193976141512393951416015625"><ele></ele><time>2020-9-19T6:10:0Z</time></trkpt>
<trkpt lat="46.2668369896709918975830078125" lon="7.46187387965619564056396484375"><ele></ele><time>2020-9-19T6:10:3Z</time></trkpt>
<trkpt lat="46.26680664718151092529296875" lon="7.46180816553533077239990234375"><ele></ele><time>2020-9-19T6:10:6Z</time></trkpt>
<trkpt lat="46.266745291650295257568359375" lon="7.46167371980845928192138671875"><ele></ele><time>2020-9-19T6:10:9Z</time></trkpt>
<trkpt lat="46.26672157086431980133056640625" lon="7.4616028927266597747802734375"><ele></ele><time>2020-9-19T6:10:12Z</time></trkpt>
<trkpt lat="46.2667013704776763916015625" lon="7.46153139509260654449462890625"><ele></ele><time>2020-9-19T6:10:15Z</time></trkpt>
<trkpt lat="46.26667899079620838165283203125" lon="7.4614610709249973297119140625"><ele></ele><time>2020-9-19T6:10:18Z</time></trkpt>
<trkpt lat="46.2666499055922031402587890625" lon="7.4613997153937816619873046875"><ele></ele><time>2020-9-19T6:10:21Z</time></trkpt>
<trkpt lat="46.26661595888435840606689453125" lon="7.46134556829929351806640625"><ele></ele><time>2020-9-19T6:10:24Z</time></trkpt>
<trkpt lat="46.2665798328816890716552734375" lon="7.46129888109862804412841796875"><ele></ele><time>2020-9-19T6:10:27Z</time></trkpt>
<trkpt lat="46.26654446125030517578125" lon="7.46125479228794574737548828125"><ele></ele><time>2020-9-19T6:10:30Z</time></trkpt>
<trkpt lat="46.26651101745665073394775390625" lon="7.46120743453502655029296875"><ele></ele><time>2020-9-19T6:10:33Z</time></trkpt>
<trkpt lat="46.26648218370974063873291015625" lon="7.46115571819245815277099609375"><ele></ele><time>2020-9-19T6:10:36Z</time></trkpt>
<trkpt lat="46.26645586453378200531005859375" lon="7.46109612286090850830078125"><ele></ele><time>2020-9-19T6:10:39Z</time></trkpt>
<trkpt lat="46.266434155404567718505859375" lon="7.46103434823453426361083984375"><ele></ele><time>2020-9-19T6:10:42Z</time></trkpt>
<trkpt lat="46.2664158828556537628173828125" lon="7.4609729088842868804931640625"><ele></ele><time>2020-9-19T6:10:45Z</time></trkpt>
<trkpt lat="46.2663971073925495147705078125" lon="7.46091281063854694366455078125"><ele></ele><time>2020-9-19T6:10:48Z</time></trkpt>
<trkpt lat="46.26637992449104785919189453125" lon="7.4608575738966464996337890625"><ele></ele><time>2020-9-19T6:10:51Z</time></trkpt>
<trkpt lat="46.266365759074687957763671875" lon="7.4608066119253635406494140625"><ele></ele><time>2020-9-19T6:10:54Z</time></trkpt>
<trkpt lat="46.2663535214960575103759765625" lon="7.46076109819114208221435546875"><ele></ele><time>2020-9-19T6:10:57Z</time></trkpt>
<trkpt lat="46.26634254120290279388427734375" lon="7.46072337962687015533447265625"><ele></ele><time>2020-9-19T6:11:0Z</time></trkpt>
<trkpt lat="46.26633591949939727783203125" lon="7.46069018729031085968017578125"><ele></ele><time>2020-9-19T6:11:3Z</time></trkpt>
<trkpt lat="46.26632326282560825347900390625" lon="7.4606716632843017578125"><ele></ele><time>2020-9-19T6:11:6Z</time></trkpt>
<trkpt lat="46.26631043851375579833984375" lon="7.46067769825458526611328125"><ele></ele><time>2020-9-19T6:11:9Z</time></trkpt>
<trkpt lat="46.26630909740924835205078125" lon="7.4606973119080066680908203125"><ele></ele><time>2020-9-19T6:11:12Z</time></trkpt>
<trkpt lat="46.2663199938833713531494140625" lon="7.46071927249431610107421875"><ele></ele><time>2020-9-19T6:11:15Z</time></trkpt>
<trkpt lat="46.2663263641297817230224609375" lon="7.460739724338054656982421875"><ele></ele><time>2020-9-19T6:11:18Z</time></trkpt>
<trkpt lat="46.26632896251976490020751953125" lon="7.4607549794018268585205078125"><ele></ele><time>2020-9-19T6:11:21Z</time></trkpt>
<trkpt lat="46.266328208148479461669921875" lon="7.460759840905666351318359375"><ele></ele><time>2020-9-19T6:11:24Z</time></trkpt>
<trkpt lat="46.26632929779589176177978515625" lon="7.46076352894306182861328125"><ele></ele><time>2020-9-19T6:11:27Z</time></trkpt>
<trkpt lat="46.266353018581867218017578125" lon="7.46081474237143993377685546875"><ele></ele><time>2020-9-19T6:11:30Z</time></trkpt>
<trkpt lat="46.2663676030933856964111328125" lon="7.4608438275754451751708984375"><ele></ele><time>2020-9-19T6:11:33Z</time></trkpt>
<trkpt lat="46.26641110517084598541259765625" lon="7.46096679009497165679931640625"><ele></ele><time>2020-9-19T6:11:36Z</time></trkpt>
<trkpt lat="46.266444213688373565673828125" lon="7.46107064187526702880859375"><ele></ele><time>2020-9-19T6:11:39Z</time></trkpt>
<trkpt lat="46.2664653360843658447265625" lon="7.461123280227184295654296875"><ele></ele><time>2020-9-19T6:11:42Z</time></trkpt>
<trkpt lat="46.26648955978453159332275390625" lon="7.46117063798010349273681640625"><ele></ele><time>2020-9-19T6:11:45Z</time></trkpt>
<trkpt lat="46.26651587896049022674560546875" lon="7.46121271513402462005615234375"><ele></ele><time>2020-9-19T6:11:48Z</time></trkpt>
<trkpt lat="46.2665712833404541015625" lon="7.46129251085221767425537109375"><ele></ele><time>2020-9-19T6:11:51Z</time></trkpt>
<trkpt lat="46.26659768633544445037841796875" lon="7.46133743785321712493896484375"><ele></ele><time>2020-9-19T6:11:54Z</time></trkpt>
<trkpt lat="46.2666173838078975677490234375" lon="7.46139124967157840728759765625"><ele></ele><time>2020-9-19T6:11:57Z</time></trkpt>
<trkpt lat="46.26665434800088405609130859375" lon="7.46151396073400974273681640625"><ele></ele><time>2020-9-19T6:12:0Z</time></trkpt>
<trkpt lat="46.2667441181838512420654296875" lon="7.461860217154026031494140625"><ele></ele><time>2020-9-19T6:12:3Z</time></trkpt>
<trkpt lat="46.26676063053309917449951171875" lon="7.46192936785519123077392578125"><ele></ele><time>2020-9-19T6:12:6Z</time></trkpt>
<trkpt lat="46.266798265278339385986328125" lon="7.46206968091428279876708984375"><ele></ele><time>2020-9-19T6:12:9Z</time></trkpt>
<trkpt lat="46.2668155319988727569580078125" lon="7.46214059181511402130126953125"><ele></ele><time>2020-9-19T6:12:12Z</time></trkpt>
<trkpt lat="46.26683053560554981231689453125" lon="7.46221167035400867462158203125"><ele></ele><time>2020-9-19T6:12:15Z</time></trkpt>
<trkpt lat="46.2668473832309246063232421875" lon="7.46228191070258617401123046875"><ele></ele><time>2020-9-19T6:12:18Z</time></trkpt>
<trkpt lat="46.26686288975179195404052734375" lon="7.46235181577503681182861328125"><ele></ele><time>2020-9-19T6:12:21Z</time></trkpt>
<trkpt lat="46.26687831245362758636474609375" lon="7.46242121793329715728759765625"><ele></ele><time>2020-9-19T6:12:24Z</time></trkpt>
<trkpt lat="46.266896165907382965087890625" lon="7.46248844079673290252685546875"><ele></ele><time>2020-9-19T6:12:27Z</time></trkpt>
<trkpt lat="46.26691468991339206695556640625" lon="7.46255583129823207855224609375"><ele></ele><time>2020-9-19T6:12:30Z</time></trkpt>
<trkpt lat="46.26693396829068660736083984375" lon="7.4626244790852069854736328125"><ele></ele><time>2020-9-19T6:12:33Z</time></trkpt>
<trkpt lat="46.2669534981250762939453125" lon="7.4626952223479747772216796875"><ele></ele><time>2020-9-19T6:12:36Z</time></trkpt>
<trkpt lat="46.2670089863240718841552734375" lon="7.46291340328752994537353515625"><ele></ele><time>2020-9-19T6:12:39Z</time></trkpt>
<trkpt lat="46.26710479147732257843017578125" lon="7.46329209767282009124755859375"><ele></ele><time>2020-9-19T6:12:42Z</time></trkpt>
<trkpt lat="46.267132870852947235107421875" lon="7.4633664451539516448974609375"><ele></ele><time>2020-9-19T6:12:45Z</time></trkpt>
<trkpt lat="46.2671627104282379150390625" lon="7.46343945153057575225830078125"><ele></ele><time>2020-9-19T6:12:48Z</time></trkpt>
<trkpt lat="46.267187856137752532958984375" lon="7.463515140116214752197265625"><ele></ele><time>2020-9-19T6:12:51Z</time></trkpt>
<trkpt lat="46.26723018474876880645751953125" lon="7.46367397718131542205810546875"><ele></ele><time>2020-9-19T6:12:54Z</time></trkpt>
<trkpt lat="46.26734702847898006439208984375" lon="7.46416280977427959442138671875"><ele></ele><time>2020-9-19T6:12:57Z</time></trkpt>
<trkpt lat="46.26738659106194972991943359375" lon="7.464327514171600341796875"><ele></ele><time>2020-9-19T6:13:0Z</time></trkpt>
<trkpt lat="46.267405785620212554931640625" lon="7.464410327374935150146484375"><ele></ele><time>2020-9-19T6:13:3Z</time></trkpt>
<trkpt lat="46.2674455158412456512451171875" lon="7.464574277400970458984375"><ele></ele><time>2020-9-19T6:13:6Z</time></trkpt>
<trkpt lat="46.267466135323047637939453125" lon="7.46465541422367095947265625"><ele></ele><time>2020-9-19T6:13:9Z</time></trkpt>
<trkpt lat="46.26748750917613506317138671875" lon="7.46473629958927631378173828125"><ele></ele><time>2020-9-19T6:13:12Z</time></trkpt>
<trkpt lat="46.2676020897924900054931640625" lon="7.46504592709243297576904296875"><ele></ele><time>2020-9-19T6:13:15Z</time></trkpt>
<trkpt lat="46.2676409818232059478759765625" lon="7.46511549688875675201416015625"><ele></ele><time>2020-9-19T6:13:18Z</time></trkpt>
<trkpt lat="46.26768196932971477508544921875" lon="7.4651823006570339202880859375"><ele></ele><time>2020-9-19T6:13:21Z</time></trkpt>
<trkpt lat="46.26772287301719188690185546875" lon="7.46524843387305736541748046875"><ele></ele><time>2020-9-19T6:13:24Z</time></trkpt>
<trkpt lat="46.2677623517811298370361328125" lon="7.46531414799392223358154296875"><ele></ele><time>2020-9-19T6:13:27Z</time></trkpt>
<trkpt lat="46.2678002379834651947021484375" lon="7.46537785045802593231201171875"><ele></ele><time>2020-9-19T6:13:30Z</time></trkpt>
<trkpt lat="46.267837621271610260009765625" lon="7.46544004417955875396728515625"><ele></ele><time>2020-9-19T6:13:33Z</time></trkpt>
<trkpt lat="46.267874501645565032958984375" lon="7.46550341136753559112548828125"><ele></ele><time>2020-9-19T6:13:36Z</time></trkpt>
<trkpt lat="46.2679078616201877593994140625" lon="7.46557113714516162872314453125"><ele></ele><time>2020-9-19T6:13:39Z</time></trkpt>
<trkpt lat="46.2679390422999858856201171875" lon="7.465642131865024566650390625"><ele></ele><time>2020-9-19T6:13:42Z</time></trkpt>
<trkpt lat="46.2680272199213504791259765625" lon="7.465867437422275543212890625"><ele></ele><time>2020-9-19T6:13:45Z</time></trkpt>
<trkpt lat="46.26812763512134552001953125" lon="7.46618100441992282867431640625"><ele></ele><time>2020-9-19T6:13:48Z</time></trkpt>
<trkpt lat="46.26815068535506725311279296875" lon="7.46626071631908416748046875"><ele></ele><time>2020-9-19T6:13:51Z</time></trkpt>
<trkpt lat="46.2681958638131618499755859375" lon="7.46642240323126316070556640625"><ele></ele><time>2020-9-19T6:13:54Z</time></trkpt>
<trkpt lat="46.26821857877075672149658203125" lon="7.46650219894945621490478515625"><ele></ele><time>2020-9-19T6:13:57Z</time></trkpt>
<trkpt lat="46.26824028789997100830078125" lon="7.4665820784866809844970703125"><ele></ele><time>2020-9-19T6:14:0Z</time></trkpt>
<trkpt lat="46.26826216466724872589111328125" lon="7.466661371290683746337890625"><ele></ele><time>2020-9-19T6:14:3Z</time></trkpt>
<trkpt lat="46.26828328706324100494384765625" lon="7.46674024499952793121337890625"><ele></ele><time>2020-9-19T6:14:6Z</time></trkpt>
<trkpt lat="46.26830390654504299163818359375" lon="7.46681886725127696990966796875"><ele></ele><time>2020-9-19T6:14:9Z</time></trkpt>
<trkpt lat="46.26832402311265468597412109375" lon="7.466897070407867431640625"><ele></ele><time>2020-9-19T6:14:12Z</time></trkpt>
<trkpt lat="46.26834380440413951873779296875" lon="7.46697443537414073944091796875"><ele></ele><time>2020-9-19T6:14:15Z</time></trkpt>
<trkpt lat="46.26836408860981464385986328125" lon="7.467050291597843170166015625"><ele></ele><time>2020-9-19T6:14:18Z</time></trkpt>
<trkpt lat="46.26838621683418750762939453125" lon="7.467124722898006439208984375"><ele></ele><time>2020-9-19T6:14:21Z</time></trkpt>
<trkpt lat="46.26840750686824321746826171875" lon="7.46719873510301113128662109375"><ele></ele><time>2020-9-19T6:14:24Z</time></trkpt>
<trkpt lat="46.268427036702632904052734375" lon="7.46727333404123783111572265625"><ele></ele><time>2020-9-19T6:14:27Z</time></trkpt>
<trkpt lat="46.26844547688961029052734375" lon="7.467346675693988800048828125"><ele></ele><time>2020-9-19T6:14:30Z</time></trkpt>
<trkpt lat="46.268461234867572784423828125" lon="7.46741884388029575347900390625"><ele></ele><time>2020-9-19T6:14:33Z</time></trkpt>
<trkpt lat="46.2684778310358524322509765625" lon="7.4674869887530803680419921875"><ele></ele><time>2020-9-19T6:14:36Z</time></trkpt>
<trkpt lat="46.2684952653944492340087890625" lon="7.46755085885524749755859375"><ele></ele><time>2020-9-19T6:14:39Z</time></trkpt>
<trkpt lat="46.26851412467658519744873046875" lon="7.467609532177448272705078125"><ele></ele><time>2020-9-19T6:14:42Z</time></trkpt>
<trkpt lat="46.268539689481258392333984375" lon="7.46765588410198688507080078125"><ele></ele><time>2020-9-19T6:14:45Z</time></trkpt>
<trkpt lat="46.26857179217040538787841796875" lon="7.4676821194589138031005859375"><ele></ele><time>2020-9-19T6:14:48Z</time></trkpt>
<trkpt lat="46.2686055712401866912841796875" lon="7.46768237091600894927978515625"><ele></ele><time>2020-9-19T6:14:51Z</time></trkpt>
<trkpt lat="46.2686354108154773712158203125" lon="7.46766225434839725494384765625"><ele></ele><time>2020-9-19T6:14:54Z</time></trkpt>
<trkpt lat="46.26866047270596027374267578125" lon="7.467636354267597198486328125"><ele></ele><time>2020-9-19T6:14:57Z</time></trkpt>
<trkpt lat="46.26868343912065029144287109375" lon="7.46761347167193889617919921875"><ele></ele><time>2020-9-19T6:15:0Z</time></trkpt>
<trkpt lat="46.2687061540782451629638671875" lon="7.4675926007330417633056640625"><ele></ele><time>2020-9-19T6:15:3Z</time></trkpt>
<trkpt lat="46.26872786320745944976806640625" lon="7.46757323853671550750732421875"><ele></ele><time>2020-9-19T6:15:6Z</time></trkpt>
<trkpt lat="46.26874982379376888275146484375" lon="7.46755295433104038238525390625"><ele></ele><time>2020-9-19T6:15:9Z</time></trkpt>
<trkpt lat="46.26877094618976116180419921875" lon="7.46753350831568241119384765625"><ele></ele><time>2020-9-19T6:15:12Z</time></trkpt>
<trkpt lat="46.26879215240478515625" lon="7.467514984309673309326171875"><ele></ele><time>2020-9-19T6:15:15Z</time></trkpt>
<trkpt lat="46.26881293952465057373046875" lon="7.46749796904623508453369140625"><ele></ele><time>2020-9-19T6:15:18Z</time></trkpt>
<trkpt lat="46.26883313991129398345947265625" lon="7.46748154051601886749267578125"><ele></ele><time>2020-9-19T6:15:21Z</time></trkpt>
<trkpt lat="46.2688573636114597320556640625" lon="7.467468716204166412353515625"><ele></ele><time>2020-9-19T6:15:24Z</time></trkpt>
<trkpt lat="46.2688825093209743499755859375" lon="7.467461340129375457763671875"><ele></ele><time>2020-9-19T6:15:27Z</time></trkpt>
<trkpt lat="46.2689061462879180908203125" lon="7.46745689772069454193115234375"><ele></ele><time>2020-9-19T6:15:30Z</time></trkpt>
<trkpt lat="46.268928945064544677734375" lon="7.46745698153972625732421875"><ele></ele><time>2020-9-19T6:15:33Z</time></trkpt>
<trkpt lat="46.268950402736663818359375" lon="7.4674591608345508575439453125"><ele></ele><time>2020-9-19T6:15:36Z</time></trkpt>
<trkpt lat="46.26897127367556095123291015625" lon="7.46746310032904148101806640625"><ele></ele><time>2020-9-19T6:15:39Z</time></trkpt>
<trkpt lat="46.26899189315736293792724609375" lon="7.4674697220325469970703125"><ele></ele><time>2020-9-19T6:15:42Z</time></trkpt>
<trkpt lat="46.26901150681078433990478515625" lon="7.467476092278957366943359375"><ele></ele><time>2020-9-19T6:15:45Z</time></trkpt>
<trkpt lat="46.269031874835491180419921875" lon="7.46748036704957485198974609375"><ele></ele><time>2020-9-19T6:15:48Z</time></trkpt>
<trkpt lat="46.26905090175569057464599609375" lon="7.4674858152866363525390625"><ele></ele><time>2020-9-19T6:15:51Z</time></trkpt>
<trkpt lat="46.26907202415168285369873046875" lon="7.467485480010509490966796875"><ele></ele><time>2020-9-19T6:15:54Z</time></trkpt>
<trkpt lat="46.26909247599542140960693359375" lon="7.46748589910566806793212890625"><ele></ele><time>2020-9-19T6:15:57Z</time></trkpt>
<trkpt lat="46.269113682210445404052734375" lon="7.46748371981084346771240234375"><ele></ele><time>2020-9-19T6:16:0Z</time></trkpt>
<trkpt lat="46.26913371495902538299560546875" lon="7.467482127249240875244140625"><ele></ele><time>2020-9-19T6:16:3Z</time></trkpt>
<trkpt lat="46.26915265806019306182861328125" lon="7.46747734956443309783935546875"><ele></ele><time>2020-9-19T6:16:6Z</time></trkpt>
<trkpt lat="46.26917109824717044830322265625" lon="7.4674724042415618896484375"><ele></ele><time>2020-9-19T6:16:9Z</time></trkpt>
<trkpt lat="46.2691891193389892578125" lon="7.46746695600450038909912109375"><ele></ele><time>2020-9-19T6:16:12Z</time></trkpt>
<trkpt lat="46.26920764334499835968017578125" lon="7.46746075339615345001220703125"><ele></ele><time>2020-9-19T6:16:15Z</time></trkpt>
<trkpt lat="46.2692258320748805999755859375" lon="7.467452622950077056884765625"><ele></ele><time>2020-9-19T6:16:18Z</time></trkpt>
<trkpt lat="46.26924452371895313262939453125" lon="7.467441894114017486572265625"><ele></ele><time>2020-9-19T6:16:21Z</time></trkpt>
<trkpt lat="46.2692623771727085113525390625" lon="7.46742923744022846221923828125"><ele></ele><time>2020-9-19T6:16:24Z</time></trkpt>
<trkpt lat="46.26927855424582958221435546875" lon="7.46741482056677341461181640625"><ele></ele><time>2020-9-19T6:16:27Z</time></trkpt>
<trkpt lat="46.26929397694766521453857421875" lon="7.46739805676043033599853515625"><ele></ele><time>2020-9-19T6:16:30Z</time></trkpt>
<trkpt lat="46.2693069688975811004638671875" lon="7.467378191649913787841796875"><ele></ele><time>2020-9-19T6:16:33Z</time></trkpt>
<trkpt lat="46.269318871200084686279296875" lon="7.46735581196844577789306640625"><ele></ele><time>2020-9-19T6:16:36Z</time></trkpt>
<trkpt lat="46.26933035440742969512939453125" lon="7.46733485721051692962646484375"><ele></ele><time>2020-9-19T6:16:39Z</time></trkpt>
<trkpt lat="46.26934267580509185791015625" lon="7.46731574647128582000732421875"><ele></ele><time>2020-9-19T6:16:42Z</time></trkpt>
<trkpt lat="46.2693559192121028900146484375" lon="7.467297054827213287353515625"><ele></ele><time>2020-9-19T6:16:45Z</time></trkpt>
<trkpt lat="46.2693686597049236297607421875" lon="7.467276938259601593017578125"><ele></ele><time>2020-9-19T6:16:48Z</time></trkpt>
<trkpt lat="46.26938148401677608489990234375" lon="7.46725581586360931396484375"><ele></ele><time>2020-9-19T6:16:51Z</time></trkpt>
<trkpt lat="46.26939489506185054779052734375" lon="7.46723569929599761962890625"><ele></ele><time>2020-9-19T6:16:54Z</time></trkpt>
<trkpt lat="46.2694082222878932952880859375" lon="7.4672160856425762176513671875"><ele></ele><time>2020-9-19T6:16:57Z</time></trkpt>
<trkpt lat="46.26942180097103118896484375" lon="7.46719437651336193084716796875"><ele></ele><time>2020-9-19T6:17:0Z</time></trkpt>
<trkpt lat="46.26943521201610565185546875" lon="7.46717208065092563629150390625"><ele></ele><time>2020-9-19T6:17:3Z</time></trkpt>
<trkpt lat="46.26944837160408496856689453125" lon="7.4671503715217113494873046875"><ele></ele><time>2020-9-19T6:17:6Z</time></trkpt>
<trkpt lat="46.26946262083947658538818359375" lon="7.46712883003056049346923828125"><ele></ele><time>2020-9-19T6:17:9Z</time></trkpt>
<trkpt lat="46.26947619952261447906494140625" lon="7.46710837818682193756103515625"><ele></ele><time>2020-9-19T6:17:12Z</time></trkpt>
<trkpt lat="46.26948885619640350341796875" lon="7.4670875072479248046875"><ele></ele><time>2020-9-19T6:17:15Z</time></trkpt>
<trkpt lat="46.2695017643272876739501953125" lon="7.46706747449934482574462890625"><ele></ele><time>2020-9-19T6:17:18Z</time></trkpt>
<trkpt lat="46.269513666629791259765625" lon="7.46704752556979656219482421875"><ele></ele><time>2020-9-19T6:17:21Z</time></trkpt>
<trkpt lat="46.26952514983713626861572265625" lon="7.46702640317380428314208984375"><ele></ele><time>2020-9-19T6:17:24Z</time></trkpt>
<trkpt lat="46.26953654922544956207275390625" lon="7.4670048616826534271240234375"><ele></ele><time>2020-9-19T6:17:27Z</time></trkpt>
<trkpt lat="46.2695497088134288787841796875" lon="7.46698617003858089447021484375"><ele></ele><time>2020-9-19T6:17:30Z</time></trkpt>
<trkpt lat="46.26956353895366191864013671875" lon="7.46697016060352325439453125"><ele></ele><time>2020-9-19T6:17:33Z</time></trkpt>
<trkpt lat="46.269576363265514373779296875" lon="7.4669532291591167449951171875"><ele></ele><time>2020-9-19T6:17:36Z</time></trkpt>
<trkpt lat="46.26959036104381084442138671875" lon="7.46693931519985198974609375"><ele></ele><time>2020-9-19T6:17:39Z</time></trkpt>
<trkpt lat="46.2696077115833759307861328125" lon="7.4669364653527736663818359375"><ele></ele><time>2020-9-19T6:17:42Z</time></trkpt>
<trkpt lat="46.26962288282811641693115234375" lon="7.46694602072238922119140625"><ele></ele><time>2020-9-19T6:17:45Z</time></trkpt>
<trkpt lat="46.26963411457836627960205078125" lon="7.4669639579951763153076171875"><ele></ele><time>2020-9-19T6:17:48Z</time></trkpt>
<trkpt lat="46.26964115537703037261962890625" lon="7.46698549948632717132568359375"><ele></ele><time>2020-9-19T6:17:51Z</time></trkpt>
<trkpt lat="46.2696429155766963958740234375" lon="7.467008046805858612060546875"><ele></ele><time>2020-9-19T6:17:54Z</time></trkpt>
<trkpt lat="46.26963998191058635711669921875" lon="7.46703025884926319122314453125"><ele></ele><time>2020-9-19T6:17:57Z</time></trkpt>
<trkpt lat="46.26963369548320770263671875" lon="7.4670518003404140472412109375"><ele></ele><time>2020-9-19T6:18:0Z</time></trkpt>
<trkpt lat="46.2696268223226070404052734375" lon="7.46707233600318431854248046875"><ele></ele><time>2020-9-19T6:18:3Z</time></trkpt>
<trkpt lat="46.269620619714260101318359375" lon="7.4670933745801448822021484375"><ele></ele><time>2020-9-19T6:18:6Z</time></trkpt>
<trkpt lat="46.26961383037269115447998046875" lon="7.4671158380806446075439453125"><ele></ele><time>2020-9-19T6:18:9Z</time></trkpt>
<trkpt lat="46.2696073763072490692138671875" lon="7.46713972650468349456787109375"><ele></ele><time>2020-9-19T6:18:12Z</time></trkpt>
<trkpt lat="46.26960075460374355316162109375" lon="7.467165626585483551025390625"><ele></ele><time>2020-9-19T6:18:15Z</time></trkpt>
<trkpt lat="46.2695966474711894989013671875" lon="7.467191778123378753662109375"><ele></ele><time>2020-9-19T6:18:18Z</time></trkpt>
<trkpt lat="46.26959404908120632171630859375" lon="7.46721885167062282562255859375"><ele></ele><time>2020-9-19T6:18:21Z</time></trkpt>
<trkpt lat="46.2695906125009059906005859375" lon="7.4672469310462474822998046875"><ele></ele><time>2020-9-19T6:18:24Z</time></trkpt>
<trkpt lat="46.26959002576768398284912109375" lon="7.46727459132671356201171875"><ele></ele><time>2020-9-19T6:18:27Z</time></trkpt>
<trkpt lat="46.2695909477770328521728515625" lon="7.46730132959783077239990234375"><ele></ele><time>2020-9-19T6:18:30Z</time></trkpt>
<trkpt lat="46.2695927917957305908203125" lon="7.4673284031450748443603515625"><ele></ele><time>2020-9-19T6:18:33Z</time></trkpt>
<trkpt lat="46.2695956416428089141845703125" lon="7.4673552252352237701416015625"><ele></ele><time>2020-9-19T6:18:36Z</time></trkpt>
<trkpt lat="46.26959840767085552215576171875" lon="7.4673837237060070037841796875"><ele></ele><time>2020-9-19T6:18:39Z</time></trkpt>
<trkpt lat="46.26960142515599727630615234375" lon="7.46740962378680706024169921875"><ele></ele><time>2020-9-19T6:18:42Z</time></trkpt>
<trkpt lat="46.26960494555532932281494140625" lon="7.467436529695987701416015625"><ele></ele><time>2020-9-19T6:18:45Z</time></trkpt>
<trkpt lat="46.2696090526878833770751953125" lon="7.467463351786136627197265625"><ele></ele><time>2020-9-19T6:18:48Z</time></trkpt>
<trkpt lat="46.269612573087215423583984375" lon="7.46748941950500011444091796875"><ele></ele><time>2020-9-19T6:18:51Z</time></trkpt>
<trkpt lat="46.2696134112775325775146484375" lon="7.4675154872238636016845703125"><ele></ele><time>2020-9-19T6:18:54Z</time></trkpt>
<trkpt lat="46.26961735077202320098876953125" lon="7.467539794743061065673828125"><ele></ele><time>2020-9-19T6:18:57Z</time></trkpt>
<trkpt lat="46.269622631371021270751953125" lon="7.46756426990032196044921875"><ele></ele><time>2020-9-19T6:19:0Z</time></trkpt>
<trkpt lat="46.269627995789051055908203125" lon="7.46758933179080486297607421875"><ele></ele><time>2020-9-19T6:19:3Z</time></trkpt>
<trkpt lat="46.26963377930223941802978515625" lon="7.46761389076709747314453125"><ele></ele><time>2020-9-19T6:19:6Z</time></trkpt>
<trkpt lat="46.2696397304534912109375" lon="7.4676375277340412139892578125"><ele></ele><time>2020-9-19T6:19:9Z</time></trkpt>
<trkpt lat="46.2696476094424724578857421875" lon="7.46765923686325550079345703125"><ele></ele><time>2020-9-19T6:19:12Z</time></trkpt>
<trkpt lat="46.26965607516467571258544921875" lon="7.4676824547350406646728515625"><ele></ele><time>2020-9-19T6:19:15Z</time></trkpt>
<trkpt lat="46.26966546289622783660888671875" lon="7.46770508587360382080078125"><ele></ele><time>2020-9-19T6:19:18Z</time></trkpt>
<trkpt lat="46.2696751020848751068115234375" lon="7.46772713027894496917724609375"><ele></ele><time>2020-9-19T6:19:21Z</time></trkpt>
<trkpt lat="46.2696858309209346771240234375" lon="7.46774791739881038665771484375"><ele></ele><time>2020-9-19T6:19:24Z</time></trkpt>
<trkpt lat="46.269697062671184539794921875" lon="7.46776870451867580413818359375"><ele></ele><time>2020-9-19T6:19:27Z</time></trkpt>
<trkpt lat="46.26970804296433925628662109375" lon="7.46778898872435092926025390625"><ele></ele><time>2020-9-19T6:19:30Z</time></trkpt>
<trkpt lat="46.269718520343303680419921875" lon="7.4678095243871212005615234375"><ele></ele><time>2020-9-19T6:19:33Z</time></trkpt>
<trkpt lat="46.26972832717001438140869140625" lon="7.46783039532601833343505859375"><ele></ele><time>2020-9-19T6:19:36Z</time></trkpt>
<trkpt lat="46.26973821781575679779052734375" lon="7.467851601541042327880859375"><ele></ele><time>2020-9-19T6:19:39Z</time></trkpt>
<trkpt lat="46.269748695194721221923828125" lon="7.46787314303219318389892578125"><ele></ele><time>2020-9-19T6:19:42Z</time></trkpt>
<trkpt lat="46.26975967548787593841552734375" lon="7.46789560653269290924072265625"><ele></ele><time>2020-9-19T6:19:45Z</time></trkpt>
<trkpt lat="46.2697699852287769317626953125" lon="7.467917986214160919189453125"><ele></ele><time>2020-9-19T6:19:48Z</time></trkpt>
<trkpt lat="46.26978012733161449432373046875" lon="7.46794044971466064453125"><ele></ele><time>2020-9-19T6:19:51Z</time></trkpt>
<trkpt lat="46.2697894312441349029541015625" lon="7.467963583767414093017578125"><ele></ele><time>2020-9-19T6:19:54Z</time></trkpt>
<trkpt lat="46.2697988189756870269775390625" lon="7.46798646636307239532470703125"><ele></ele><time>2020-9-19T6:19:57Z</time></trkpt>
<trkpt lat="46.2698088772594928741455078125" lon="7.4680080078542232513427734375"><ele></ele><time>2020-9-19T6:20:0Z</time></trkpt>
<trkpt lat="46.26981952227652072906494140625" lon="7.468029297888278961181640625"><ele></ele><time>2020-9-19T6:20:3Z</time></trkpt>
<trkpt lat="46.26982991583645343780517578125" lon="7.46805109083652496337890625"><ele></ele><time>2020-9-19T6:20:6Z</time></trkpt>
<trkpt lat="46.2698393873870372772216796875" lon="7.46807279996573925018310546875"><ele></ele><time>2020-9-19T6:20:9Z</time></trkpt>
<trkpt lat="46.26984936185181140899658203125" lon="7.468094341456890106201171875"><ele></ele><time>2020-9-19T6:20:12Z</time></trkpt>
<trkpt lat="46.26985942013561725616455078125" lon="7.4681156314909458160400390625"><ele></ele><time>2020-9-19T6:20:15Z</time></trkpt>
<trkpt lat="46.2698690593242645263671875" lon="7.46813734062016010284423828125"><ele></ele><time>2020-9-19T6:20:18Z</time></trkpt>
<trkpt lat="46.2698792852461338043212890625" lon="7.46815837919712066650390625"><ele></ele><time>2020-9-19T6:20:21Z</time></trkpt>
<trkpt lat="46.2698893435299396514892578125" lon="7.468179501593112945556640625"><ele></ele><time>2020-9-19T6:20:24Z</time></trkpt>
<trkpt lat="46.2698994018137454986572265625" lon="7.46820104308426380157470703125"><ele></ele><time>2020-9-19T6:20:27Z</time></trkpt>
<trkpt lat="46.269908957183361053466796875" lon="7.468222416937351226806640625"><ele></ele><time>2020-9-19T6:20:30Z</time></trkpt>
<trkpt lat="46.26991876401007175445556640625" lon="7.4682433716952800750732421875"><ele></ele><time>2020-9-19T6:20:33Z</time></trkpt>
<trkpt lat="46.26992949284613132476806640625" lon="7.46826340444386005401611328125"><ele></ele><time>2020-9-19T6:20:36Z</time></trkpt>
<trkpt lat="46.26993988640606403350830078125" lon="7.46828486211597919464111328125"><ele></ele><time>2020-9-19T6:20:39Z</time></trkpt>
<trkpt lat="46.26995027996599674224853515625" lon="7.46830665506422519683837890625"><ele></ele><time>2020-9-19T6:20:42Z</time></trkpt>
<trkpt lat="46.2699604220688343048095703125" lon="7.46832844801247119903564453125"><ele></ele><time>2020-9-19T6:20:45Z</time></trkpt>
<trkpt lat="46.26997165381908416748046875" lon="7.4683493189513683319091796875"><ele></ele><time>2020-9-19T6:20:48Z</time></trkpt>
<trkpt lat="46.26998238265514373779296875" lon="7.46836884878575801849365234375"><ele></ele><time>2020-9-19T6:20:51Z</time></trkpt>
<trkpt lat="46.26999202184379100799560546875" lon="7.46838930062949657440185546875"><ele></ele><time>2020-9-19T6:20:54Z</time></trkpt>
<trkpt lat="46.270001493394374847412109375" lon="7.468409836292266845703125"><ele></ele><time>2020-9-19T6:20:57Z</time></trkpt>
<trkpt lat="46.27001180313527584075927734375" lon="7.4684307910501956939697265625"><ele></ele><time>2020-9-19T6:21:0Z</time></trkpt>
<trkpt lat="46.27002286724746227264404296875" lon="7.4684505723416805267333984375"><ele></ele><time>2020-9-19T6:21:3Z</time></trkpt>
<trkpt lat="46.27003409899771213531494140625" lon="7.46847110800445079803466796875"><ele></ele><time>2020-9-19T6:21:6Z</time></trkpt>
<trkpt lat="46.27004466019570827484130859375" lon="7.468491978943347930908203125"><ele></ele><time>2020-9-19T6:21:9Z</time></trkpt>
<trkpt lat="46.2700546346604824066162109375" lon="7.46851243078708648681640625"><ele></ele><time>2020-9-19T6:21:12Z</time></trkpt>
<trkpt lat="46.27006561495363712310791015625" lon="7.468532882630825042724609375"><ele></ele><time>2020-9-19T6:21:15Z</time></trkpt>
<trkpt lat="46.2700760923326015472412109375" lon="7.4685524962842464447021484375"><ele></ele><time>2020-9-19T6:21:18Z</time></trkpt>
<trkpt lat="46.270087324082851409912109375" lon="7.46857143938541412353515625"><ele></ele><time>2020-9-19T6:21:21Z</time></trkpt>
<trkpt lat="46.2700982205569744110107421875" lon="7.4685910530388355255126953125"><ele></ele><time>2020-9-19T6:21:24Z</time></trkpt>
<trkpt lat="46.27010936848819255828857421875" lon="7.468610666692256927490234375"><ele></ele><time>2020-9-19T6:21:27Z</time></trkpt>
<trkpt lat="46.27012043260037899017333984375" lon="7.46863044798374176025390625"><ele></ele><time>2020-9-19T6:21:30Z</time></trkpt>
<trkpt lat="46.27013258635997772216796875" lon="7.468649558722972869873046875"><ele></ele><time>2020-9-19T6:21:33Z</time></trkpt>
<trkpt lat="46.270144321024417877197265625" lon="7.46866858564317226409912109375"><ele></ele><time>2020-9-19T6:21:36Z</time></trkpt>
<trkpt lat="46.27015597186982631683349609375" lon="7.4686879478394985198974609375"><ele></ele><time>2020-9-19T6:21:39Z</time></trkpt>
<trkpt lat="46.27016787417232990264892578125" lon="7.4687070585787296295166015625"><ele></ele><time>2020-9-19T6:21:42Z</time></trkpt>
<trkpt lat="46.270180530846118927001953125" lon="7.4687254987657070159912109375"><ele></ele><time>2020-9-19T6:21:45Z</time></trkpt>
<trkpt lat="46.27019251696765422821044921875" lon="7.46874469332396984100341796875"><ele></ele><time>2020-9-19T6:21:48Z</time></trkpt>
<trkpt lat="46.2702041678130626678466796875" lon="7.468763887882232666015625"><ele></ele><time>2020-9-19T6:21:51Z</time></trkpt>
<trkpt lat="46.2702159024775028228759765625" lon="7.46878358535468578338623046875"><ele></ele><time>2020-9-19T6:21:54Z</time></trkpt>
<trkpt lat="46.270227134227752685546875" lon="7.468803115189075469970703125"><ele></ele><time>2020-9-19T6:21:57Z</time></trkpt>
<trkpt lat="46.2702376954257488250732421875" lon="7.46882348321378231048583984375"><ele></ele><time>2020-9-19T6:22:0Z</time></trkpt>
<trkpt lat="46.270248591899871826171875" lon="7.468844018876552581787109375"><ele></ele><time>2020-9-19T6:22:3Z</time></trkpt>
<trkpt lat="46.270259320735931396484375" lon="7.4688643030822277069091796875"><ele></ele><time>2020-9-19T6:22:6Z</time></trkpt>
<trkpt lat="46.27026937901973724365234375" lon="7.46888617984950542449951171875"><ele></ele><time>2020-9-19T6:22:9Z</time></trkpt>
<trkpt lat="46.27027876675128936767578125" lon="7.46890805661678314208984375"><ele></ele><time>2020-9-19T6:22:12Z</time></trkpt>
<trkpt lat="46.27028790302574634552001953125" lon="7.46892993338406085968017578125"><ele></ele><time>2020-9-19T6:22:15Z</time></trkpt>
<trkpt lat="46.27029812894761562347412109375" lon="7.4689514748752117156982421875"><ele></ele><time>2020-9-19T6:22:18Z</time></trkpt>
<trkpt lat="46.270307600498199462890625" lon="7.4689725972712039947509765625"><ele></ele><time>2020-9-19T6:22:21Z</time></trkpt>
<trkpt lat="46.27031623385846614837646484375" lon="7.4689937196671962738037109375"><ele></ele><time>2020-9-19T6:22:24Z</time></trkpt>
<trkpt lat="46.27032528631389141082763671875" lon="7.46901526115834712982177734375"><ele></ele><time>2020-9-19T6:22:27Z</time></trkpt>
<trkpt lat="46.27033433876931667327880859375" lon="7.46903671883046627044677734375"><ele></ele><time>2020-9-19T6:22:30Z</time></trkpt>
<trkpt lat="46.27034322358667850494384765625" lon="7.46905817650258541107177734375"><ele></ele><time>2020-9-19T6:22:33Z</time></trkpt>
<trkpt lat="46.2703523598611354827880859375" lon="7.4690795503556728363037109375"><ele></ele><time>2020-9-19T6:22:36Z</time></trkpt>
<trkpt lat="46.270361244678497314453125" lon="7.46910058893263339996337890625"><ele></ele><time>2020-9-19T6:22:39Z</time></trkpt>
<trkpt lat="46.2703691236674785614013671875" lon="7.4691219627857208251953125"><ele></ele><time>2020-9-19T6:22:42Z</time></trkpt>
<trkpt lat="46.27037666738033294677734375" lon="7.46914350427687168121337890625"><ele></ele><time>2020-9-19T6:22:45Z</time></trkpt>
<trkpt lat="46.27038580365478992462158203125" lon="7.4691633693873882293701171875"><ele></ele><time>2020-9-19T6:22:48Z</time></trkpt>
<trkpt lat="46.2703949399292469024658203125" lon="7.469183988869190216064453125"><ele></ele><time>2020-9-19T6:22:51Z</time></trkpt>
<trkpt lat="46.27040307037532329559326171875" lon="7.46920553036034107208251953125"><ele></ele><time>2020-9-19T6:22:54Z</time></trkpt>
<trkpt lat="46.27041128464043140411376953125" lon="7.469227574765682220458984375"><ele></ele><time>2020-9-19T6:22:57Z</time></trkpt>
<trkpt lat="46.27041966654360294342041015625" lon="7.46925012208521366119384765625"><ele></ele><time>2020-9-19T6:23:0Z</time></trkpt>
<trkpt lat="46.2704288028180599212646484375" lon="7.46927241794764995574951171875"><ele></ele><time>2020-9-19T6:23:3Z</time></trkpt>
<trkpt lat="46.2704376876354217529296875" lon="7.4692941270768642425537109375"><ele></ele><time>2020-9-19T6:23:6Z</time></trkpt>
<trkpt lat="46.270446740090847015380859375" lon="7.46931575238704681396484375"><ele></ele><time>2020-9-19T6:23:9Z</time></trkpt>
<trkpt lat="46.2704556249082088470458984375" lon="7.46933813206851482391357421875"><ele></ele><time>2020-9-19T6:23:12Z</time></trkpt>
<trkpt lat="46.27046492882072925567626953125" lon="7.4693598411977291107177734375"><ele></ele><time>2020-9-19T6:23:15Z</time></trkpt>
<trkpt lat="46.270473897457122802734375" lon="7.46938188560307025909423828125"><ele></ele><time>2020-9-19T6:23:18Z</time></trkpt>
<trkpt lat="46.2704831175506114959716796875" lon="7.4694040976464748382568359375"><ele></ele><time>2020-9-19T6:23:21Z</time></trkpt>
<trkpt lat="46.27049200236797332763671875" lon="7.469426058232784271240234375"><ele></ele><time>2020-9-19T6:23:24Z</time></trkpt>
<trkpt lat="46.27050247974693775177001953125" lon="7.469448857009410858154296875"><ele></ele><time>2020-9-19T6:23:27Z</time></trkpt>
<trkpt lat="46.2705109454691410064697265625" lon="7.46947157196700572967529296875"><ele></ele><time>2020-9-19T6:23:30Z</time></trkpt>
<trkpt lat="46.270519830286502838134765625" lon="7.469492442905902862548828125"><ele></ele><time>2020-9-19T6:23:33Z</time></trkpt>
<trkpt lat="46.27052963711321353912353515625" lon="7.4695130623877048492431640625"><ele></ele><time>2020-9-19T6:23:36Z</time></trkpt>
<trkpt lat="46.27053801901638507843017578125" lon="7.4695350229740142822265625"><ele></ele><time>2020-9-19T6:23:39Z</time></trkpt>
<trkpt lat="46.2705468200147151947021484375" lon="7.46955706737935543060302734375"><ele></ele><time>2020-9-19T6:23:42Z</time></trkpt>
<trkpt lat="46.27055562101304531097412109375" lon="7.46957860887050628662109375"><ele></ele><time>2020-9-19T6:23:45Z</time></trkpt>
<trkpt lat="46.27056417055428028106689453125" lon="7.46960015036165714263916015625"><ele></ele><time>2020-9-19T6:23:48Z</time></trkpt>
<trkpt lat="46.2705729715526103973388671875" lon="7.46962144039571285247802734375"><ele></ele><time>2020-9-19T6:23:51Z</time></trkpt>
<trkpt lat="46.27058194018900394439697265625" lon="7.469642646610736846923828125"><ele></ele><time>2020-9-19T6:23:54Z</time></trkpt>
<trkpt lat="46.27059124410152435302734375" lon="7.469664774835109710693359375"><ele></ele><time>2020-9-19T6:23:57Z</time></trkpt>
<trkpt lat="46.2706011347472667694091796875" lon="7.46968732215464115142822265625"><ele></ele><time>2020-9-19T6:24:0Z</time></trkpt>
<trkpt lat="46.27061069011688232421875" lon="7.4697098694741725921630859375"><ele></ele><time>2020-9-19T6:24:3Z</time></trkpt>
<trkpt lat="46.2706195749342441558837890625" lon="7.46973283588886260986328125"><ele></ele><time>2020-9-19T6:24:6Z</time></trkpt>
<trkpt lat="46.27062954939901828765869140625" lon="7.4697558023035526275634765625"><ele></ele><time>2020-9-19T6:24:9Z</time></trkpt>
<trkpt lat="46.27063944004476070404052734375" lon="7.4697786010801792144775390625"><ele></ele><time>2020-9-19T6:24:12Z</time></trkpt>
<trkpt lat="46.27064933069050312042236328125" lon="7.46980081312358379364013671875"><ele></ele><time>2020-9-19T6:24:15Z</time></trkpt>
<trkpt lat="46.27065938897430896759033203125" lon="7.469823360443115234375"><ele></ele><time>2020-9-19T6:24:18Z</time></trkpt>
<trkpt lat="46.27066877670586109161376953125" lon="7.46984590776264667510986328125"><ele></ele><time>2020-9-19T6:24:21Z</time></trkpt>
<trkpt lat="46.2706785835325717926025390625" lon="7.46986828744411468505859375"><ele></ele><time>2020-9-19T6:24:24Z</time></trkpt>
<trkpt lat="46.27068855799734592437744140625" lon="7.46989100240170955657958984375"><ele></ele><time>2020-9-19T6:24:27Z</time></trkpt>
<trkpt lat="46.27069945447146892547607421875" lon="7.469914220273494720458984375"><ele></ele><time>2020-9-19T6:24:30Z</time></trkpt>
<trkpt lat="46.27070984803140163421630859375" lon="7.46993743814527988433837890625"><ele></ele><time>2020-9-19T6:24:33Z</time></trkpt>
<trkpt lat="46.27071973867714405059814453125" lon="7.4699596501886844635009765625"><ele></ele><time>2020-9-19T6:24:36Z</time></trkpt>
<trkpt lat="46.27072912640869617462158203125" lon="7.46998094022274017333984375"><ele></ele><time>2020-9-19T6:24:39Z</time></trkpt>
<trkpt lat="46.270739771425724029541015625" lon="7.470002062618732452392578125"><ele></ele><time>2020-9-19T6:24:42Z</time></trkpt>
<trkpt lat="46.27075075171887874603271484375" lon="7.4700231850147247314453125"><ele></ele><time>2020-9-19T6:24:45Z</time></trkpt>
<trkpt lat="46.27076148055493831634521484375" lon="7.47004405595362186431884765625"><ele></ele><time>2020-9-19T6:24:48Z</time></trkpt>
<trkpt lat="46.2707717902958393096923828125" lon="7.47006534598767757415771484375"><ele></ele><time>2020-9-19T6:24:51Z</time></trkpt>
<trkpt lat="46.27078235149383544921875" lon="7.47008663602173328399658203125"><ele></ele><time>2020-9-19T6:24:54Z</time></trkpt>
<trkpt lat="46.27079383470118045806884765625" lon="7.470107339322566986083984375"><ele></ele><time>2020-9-19T6:24:57Z</time></trkpt>
<trkpt lat="46.27080573700368404388427734375" lon="7.4701272882521152496337890625"><ele></ele><time>2020-9-19T6:25:0Z</time></trkpt>
<trkpt lat="46.27081797458231449127197265625" lon="7.4701474048197269439697265625"><ele></ele><time>2020-9-19T6:25:3Z</time></trkpt>
<trkpt lat="46.2708294577896595001220703125" lon="7.47016877867281436920166015625"><ele></ele><time>2020-9-19T6:25:6Z</time></trkpt>
<trkpt lat="46.27084127627313137054443359375" lon="7.470188476145267486572265625"><ele></ele><time>2020-9-19T6:25:9Z</time></trkpt>
<trkpt lat="46.27085301093757152557373046875" lon="7.47020758688449859619140625"><ele></ele><time>2020-9-19T6:25:12Z</time></trkpt>
<trkpt lat="46.2708649970591068267822265625" lon="7.47022678144276142120361328125"><ele></ele><time>2020-9-19T6:25:15Z</time></trkpt>
<trkpt lat="46.27087731845676898956298828125" lon="7.4702456407248973846435546875"><ele></ele><time>2020-9-19T6:25:18Z</time></trkpt>
<trkpt lat="46.27088972367346286773681640625" lon="7.47026433236896991729736328125"><ele></ele><time>2020-9-19T6:25:21Z</time></trkpt>
<trkpt lat="46.270902045071125030517578125" lon="7.47028310783207416534423828125"><ele></ele><time>2020-9-19T6:25:24Z</time></trkpt>
<trkpt lat="46.27091453410685062408447265625" lon="7.47030221857130527496337890625"><ele></ele><time>2020-9-19T6:25:27Z</time></trkpt>
<trkpt lat="46.27092710696160793304443359375" lon="7.4703209102153778076171875"><ele></ele><time>2020-9-19T6:25:30Z</time></trkpt>
<trkpt lat="46.2709404341876506805419921875" lon="7.47033893130719661712646484375"><ele></ele><time>2020-9-19T6:25:33Z</time></trkpt>
<trkpt lat="46.2709548510611057281494140625" lon="7.47035510838031768798828125"><ele></ele><time>2020-9-19T6:25:36Z</time></trkpt>
<trkpt lat="46.2709685973823070526123046875" lon="7.47037128545343875885009765625"><ele></ele><time>2020-9-19T6:25:39Z</time></trkpt>
<trkpt lat="46.27098192460834980010986328125" lon="7.4703871272504329681396484375"><ele></ele><time>2020-9-19T6:25:42Z</time></trkpt>
<trkpt lat="46.27099600620567798614501953125" lon="7.470401041209697723388671875"><ele></ele><time>2020-9-19T6:25:45Z</time></trkpt>
<trkpt lat="46.27101025544106960296630859375" lon="7.47041453607380390167236328125"><ele></ele><time>2020-9-19T6:25:48Z</time></trkpt>
<trkpt lat="46.27102483995258808135986328125" lon="7.470428533852100372314453125"><ele></ele><time>2020-9-19T6:25:51Z</time></trkpt>
<trkpt lat="46.27103942446410655975341796875" lon="7.47044269926846027374267578125"><ele></ele><time>2020-9-19T6:25:54Z</time></trkpt>
<trkpt lat="46.271054260432720184326171875" lon="7.47045627795159816741943359375"><ele></ele><time>2020-9-19T6:25:57Z</time></trkpt>
<trkpt lat="46.27106926403939723968505859375" lon="7.47046935372054576873779296875"><ele></ele><time>2020-9-19T6:26:0Z</time></trkpt>
<trkpt lat="46.2710842676460742950439453125" lon="7.47048226185142993927001953125"><ele></ele><time>2020-9-19T6:26:3Z</time></trkpt>
<trkpt lat="46.27109860070049762725830078125" lon="7.47049550525844097137451171875"><ele></ele><time>2020-9-19T6:26:6Z</time></trkpt>
<trkpt lat="46.2711131013929843902587890625" lon="7.47050941921770572662353515625"><ele></ele><time>2020-9-19T6:26:9Z</time></trkpt>
<trkpt lat="46.27112760208547115325927734375" lon="7.4705235846340656280517578125"><ele></ele><time>2020-9-19T6:26:12Z</time></trkpt>
<trkpt lat="46.27114268951117992401123046875" lon="7.47053615748882293701171875"><ele></ele><time>2020-9-19T6:26:15Z</time></trkpt>
<trkpt lat="46.2711580283939838409423828125" lon="7.47054914943873882293701171875"><ele></ele><time>2020-9-19T6:26:18Z</time></trkpt>
<trkpt lat="46.2711724452674388885498046875" lon="7.47056339867413043975830078125"><ele></ele><time>2020-9-19T6:26:21Z</time></trkpt>
<trkpt lat="46.271186359226703643798828125" lon="7.47057815082371234893798828125"><ele></ele><time>2020-9-19T6:26:24Z</time></trkpt>
<trkpt lat="46.27120052464306354522705078125" lon="7.4705926515161991119384765625"><ele></ele><time>2020-9-19T6:26:27Z</time></trkpt>
<trkpt lat="46.27121577970683574676513671875" lon="7.4706065654754638671875"><ele></ele><time>2020-9-19T6:26:30Z</time></trkpt>
<trkpt lat="46.27123069949448108673095703125" lon="7.470620311796665191650390625"><ele></ele><time>2020-9-19T6:26:33Z</time></trkpt>
<trkpt lat="46.2712438590824604034423828125" lon="7.47063648886978626251220703125"><ele></ele><time>2020-9-19T6:26:36Z</time></trkpt>
<trkpt lat="46.271257102489471435546875" lon="7.47065241448581218719482421875"><ele></ele><time>2020-9-19T6:26:39Z</time></trkpt>
<trkpt lat="46.271270178258419036865234375" lon="7.47066783718764781951904296875"><ele></ele><time>2020-9-19T6:26:42Z</time></trkpt>
<trkpt lat="46.27128317020833492279052734375" lon="7.4706841818988323211669921875"><ele></ele><time>2020-9-19T6:26:45Z</time></trkpt>
<trkpt lat="46.2712964974343776702880859375" lon="7.47070002369582653045654296875"><ele></ele><time>2020-9-19T6:26:48Z</time></trkpt>
<trkpt lat="46.27130965702235698699951171875" lon="7.47071729041635990142822265625"><ele></ele><time>2020-9-19T6:26:51Z</time></trkpt>
<trkpt lat="46.27132273279130458831787109375" lon="7.47073606587946414947509765625"><ele></ele><time>2020-9-19T6:26:54Z</time></trkpt>
<trkpt lat="46.2713362276554107666015625" lon="7.47075618244707584381103515625"><ele></ele><time>2020-9-19T6:26:57Z</time></trkpt>
<trkpt lat="46.271349973976612091064453125" lon="7.470777221024036407470703125"><ele></ele><time>2020-9-19T6:27:0Z</time></trkpt>
<trkpt lat="46.27136313356459140777587890625" lon="7.47079893015325069427490234375"><ele></ele><time>2020-9-19T6:27:3Z</time></trkpt>
<trkpt lat="46.2713756226003170013427734375" lon="7.4708211421966552734375"><ele></ele><time>2020-9-19T6:27:6Z</time></trkpt>
<trkpt lat="46.271388530731201171875" lon="7.47084368951618671417236328125"><ele></ele><time>2020-9-19T6:27:9Z</time></trkpt>
<trkpt lat="46.27140261232852935791015625" lon="7.47086615301668643951416015625"><ele></ele><time>2020-9-19T6:27:12Z</time></trkpt>
<trkpt lat="46.271417029201984405517578125" lon="7.47088811360299587249755859375"><ele></ele><time>2020-9-19T6:27:15Z</time></trkpt>
<trkpt lat="46.27143152989447116851806640625" lon="7.47090890072286128997802734375"><ele></ele><time>2020-9-19T6:27:18Z</time></trkpt>
<trkpt lat="46.27144678495824337005615234375" lon="7.47092901729047298431396484375"><ele></ele><time>2020-9-19T6:27:21Z</time></trkpt>
<trkpt lat="46.27146204002201557159423828125" lon="7.47094762511551380157470703125"><ele></ele><time>2020-9-19T6:27:24Z</time></trkpt>
<trkpt lat="46.2714782170951366424560546875" lon="7.4709641374647617340087890625"><ele></ele><time>2020-9-19T6:27:27Z</time></trkpt>
<trkpt lat="46.2714953161776065826416015625" lon="7.4709788896143436431884765625"><ele></ele><time>2020-9-19T6:27:30Z</time></trkpt>
<trkpt lat="46.27151258289813995361328125" lon="7.47099137865006923675537109375"><ele></ele><time>2020-9-19T6:27:33Z</time></trkpt>
<trkpt lat="46.271530352532863616943359375" lon="7.47100210748612880706787109375"><ele></ele><time>2020-9-19T6:27:36Z</time></trkpt>
<trkpt lat="46.271547786891460418701171875" lon="7.4710114113986492156982421875"><ele></ele><time>2020-9-19T6:27:39Z</time></trkpt>
<trkpt lat="46.27156580798327922821044921875" lon="7.4710197933018207550048828125"><ele></ele><time>2020-9-19T6:27:42Z</time></trkpt>
<trkpt lat="46.2715838290750980377197265625" lon="7.47102700173854827880859375"><ele></ele><time>2020-9-19T6:27:45Z</time></trkpt>
<trkpt lat="46.27160151489078998565673828125" lon="7.47103362344205379486083984375"><ele></ele><time>2020-9-19T6:27:48Z</time></trkpt>
<trkpt lat="46.271619535982608795166015625" lon="7.47104016132652759552001953125"><ele></ele><time>2020-9-19T6:27:51Z</time></trkpt>
<trkpt lat="46.27163822762668132781982421875" lon="7.4710456095635890960693359375"><ele></ele><time>2020-9-19T6:27:54Z</time></trkpt>
<trkpt lat="46.2716565839946269989013671875" lon="7.47105248272418975830078125"><ele></ele><time>2020-9-19T6:27:57Z</time></trkpt>
<trkpt lat="46.27167410217225551605224609375" lon="7.47106044553220272064208984375"><ele></ele><time>2020-9-19T6:28:0Z</time></trkpt>
<trkpt lat="46.2716917879879474639892578125" lon="7.47106782160699367523193359375"><ele></ele><time>2020-9-19T6:28:3Z</time></trkpt>
<trkpt lat="46.27171014435589313507080078125" lon="7.471074946224689483642578125"><ele></ele><time>2020-9-19T6:28:6Z</time></trkpt>
<trkpt lat="46.2717293389141559600830078125" lon="7.47108089737594127655029296875"><ele></ele><time>2020-9-19T6:28:9Z</time></trkpt>
<trkpt lat="46.27174853347241878509521484375" lon="7.471086345613002777099609375"><ele></ele><time>2020-9-19T6:28:12Z</time></trkpt>
<trkpt lat="46.27176680602133274078369140625" lon="7.4710918776690959930419921875"><ele></ele><time>2020-9-19T6:28:15Z</time></trkpt>
<trkpt lat="46.27178440801799297332763671875" lon="7.47109808027744293212890625"><ele></ele><time>2020-9-19T6:28:18Z</time></trkpt>
<trkpt lat="46.27180217765271663665771484375" lon="7.47110503725707530975341796875"><ele></ele><time>2020-9-19T6:28:21Z</time></trkpt>
<trkpt lat="46.271820701658725738525390625" lon="7.47111015021800994873046875"><ele></ele><time>2020-9-19T6:28:24Z</time></trkpt>
<trkpt lat="46.27183872275054454803466796875" lon="7.471113838255405426025390625"><ele></ele><time>2020-9-19T6:28:27Z</time></trkpt>
<trkpt lat="46.27185615710914134979248046875" lon="7.47112146578729152679443359375"><ele></ele><time>2020-9-19T6:28:30Z</time></trkpt>
<trkpt lat="46.27187342382967472076416015625" lon="7.4711290933191776275634765625"><ele></ele><time>2020-9-19T6:28:33Z</time></trkpt>
<trkpt lat="46.27189169637858867645263671875" lon="7.4711351282894611358642578125"><ele></ele><time>2020-9-19T6:28:36Z</time></trkpt>
<trkpt lat="46.27190980128943920135498046875" lon="7.47114191763103008270263671875"><ele></ele><time>2020-9-19T6:28:39Z</time></trkpt>
<trkpt lat="46.2719271518290042877197265625" lon="7.47114962898194789886474609375"><ele></ele><time>2020-9-19T6:28:42Z</time></trkpt>
<trkpt lat="46.27194467000663280487060546875" lon="7.47115717269480228424072265625"><ele></ele><time>2020-9-19T6:28:45Z</time></trkpt>
<trkpt lat="46.27196210436522960662841796875" lon="7.4711642973124980926513671875"><ele></ele><time>2020-9-19T6:28:48Z</time></trkpt>
<trkpt lat="46.27197886817157268524169921875" lon="7.47117209248244762420654296875"><ele></ele><time>2020-9-19T6:28:51Z</time></trkpt>
<trkpt lat="46.27199512906372547149658203125" lon="7.47117946855723857879638671875"><ele></ele><time>2020-9-19T6:28:54Z</time></trkpt>
<trkpt lat="46.272010467946529388427734375" lon="7.47118768282234668731689453125"><ele></ele><time>2020-9-19T6:28:57Z</time></trkpt>
<trkpt lat="46.27202580682933330535888671875" lon="7.471196986734867095947265625"><ele></ele><time>2020-9-19T6:29:0Z</time></trkpt>
<trkpt lat="46.2720414809882640838623046875" lon="7.47120696119964122772216796875"><ele></ele><time>2020-9-19T6:29:3Z</time></trkpt>
<trkpt lat="46.27205631695687770843505859375" lon="7.47121903114020824432373046875"><ele></ele><time>2020-9-19T6:29:6Z</time></trkpt>
<trkpt lat="46.2720713205635547637939453125" lon="7.4712313525378704071044921875"><ele></ele><time>2020-9-19T6:29:9Z</time></trkpt>
<trkpt lat="46.27208657562732696533203125" lon="7.4712434224784374237060546875"><ele></ele><time>2020-9-19T6:29:12Z</time></trkpt>
<trkpt lat="46.2721011601388454437255859375" lon="7.47125658206641674041748046875"><ele></ele><time>2020-9-19T6:29:15Z</time></trkpt>
<trkpt lat="46.272115074098110198974609375" lon="7.4712705798447132110595703125"><ele></ele><time>2020-9-19T6:29:18Z</time></trkpt>
<trkpt lat="46.2721293233335018157958984375" lon="7.47128508053719997406005859375"><ele></ele><time>2020-9-19T6:29:21Z</time></trkpt>
<trkpt lat="46.2721435725688934326171875" lon="7.47130000032484531402587890625"><ele></ele><time>2020-9-19T6:29:24Z</time></trkpt>
<trkpt lat="46.272157989442348480224609375" lon="7.47131575830280780792236328125"><ele></ele><time>2020-9-19T6:29:27Z</time></trkpt>
<trkpt lat="46.27217198722064495086669921875" lon="7.47133403085172176361083984375"><ele></ele><time>2020-9-19T6:29:30Z</time></trkpt>
<trkpt lat="46.27218405716121196746826171875" lon="7.4713537283241748809814453125"><ele></ele><time>2020-9-19T6:29:33Z</time></trkpt>
<trkpt lat="46.2721945345401763916015625" lon="7.47137526981532573699951171875"><ele></ele><time>2020-9-19T6:29:36Z</time></trkpt>
<trkpt lat="46.2722044251859188079833984375" lon="7.4713976494967937469482421875"><ele></ele><time>2020-9-19T6:29:39Z</time></trkpt>
<trkpt lat="46.27221423201262950897216796875" lon="7.4714197777211666107177734375"><ele></ele><time>2020-9-19T6:29:42Z</time></trkpt>
<trkpt lat="46.27222412265837192535400390625" lon="7.47144249267876148223876953125"><ele></ele><time>2020-9-19T6:29:45Z</time></trkpt>
<trkpt lat="46.27223409712314605712890625" lon="7.47146545909345149993896484375"><ele></ele><time>2020-9-19T6:29:48Z</time></trkpt>
<trkpt lat="46.2722436524927616119384765625" lon="7.47148758731782436370849609375"><ele></ele><time>2020-9-19T6:29:51Z</time></trkpt>
<trkpt lat="46.2722533755004405975341796875" lon="7.47150854207575321197509765625"><ele></ele><time>2020-9-19T6:29:54Z</time></trkpt>
<trkpt lat="46.27226267941296100616455078125" lon="7.471529580652713775634765625"><ele></ele><time>2020-9-19T6:29:57Z</time></trkpt>
<trkpt lat="46.27227240242063999176025390625" lon="7.4715495295822620391845703125"><ele></ele><time>2020-9-19T6:30:0Z</time></trkpt>
<trkpt lat="46.27228262834250926971435546875" lon="7.47156855650246143341064453125"><ele></ele><time>2020-9-19T6:30:3Z</time></trkpt>
<trkpt lat="46.27229285426437854766845703125" lon="7.47158749960362911224365234375"><ele></ele><time>2020-9-19T6:30:6Z</time></trkpt>
<trkpt lat="46.27230458892881870269775390625" lon="7.4716056883335113525390625"><ele></ele><time>2020-9-19T6:30:9Z</time></trkpt>
<trkpt lat="46.27231531776487827301025390625" lon="7.471623122692108154296875"><ele></ele><time>2020-9-19T6:30:12Z</time></trkpt>
<trkpt lat="46.27232520841062068939208984375" lon="7.4716387130320072174072265625"><ele></ele><time>2020-9-19T6:30:15Z</time></trkpt>
<trkpt lat="46.27233711071312427520751953125" lon="7.47165438719093799591064453125"><ele></ele><time>2020-9-19T6:30:18Z</time></trkpt>
<trkpt lat="46.27234800718724727630615234375" lon="7.47167182154953479766845703125"><ele></ele><time>2020-9-19T6:30:21Z</time></trkpt>
<trkpt lat="46.2723596580326557159423828125" lon="7.47169143520295619964599609375"><ele></ele><time>2020-9-19T6:30:24Z</time></trkpt>
<trkpt lat="46.272367537021636962890625" lon="7.4717161618173122406005859375"><ele></ele><time>2020-9-19T6:30:27Z</time></trkpt>
<trkpt lat="46.2723703868687152862548828125" lon="7.4717436544597148895263671875"><ele></ele><time>2020-9-19T6:30:30Z</time></trkpt>
<trkpt lat="46.2723688781261444091796875" lon="7.47177324257791042327880859375"><ele></ele><time>2020-9-19T6:30:33Z</time></trkpt>
<trkpt lat="46.27236728556454181671142578125" lon="7.4718036688864231109619140625"><ele></ele><time>2020-9-19T6:30:36Z</time></trkpt>
<trkpt lat="46.2723660282790660858154296875" lon="7.47183409519493579864501953125"><ele></ele><time>2020-9-19T6:30:39Z</time></trkpt>
<trkpt lat="46.27236426807940006256103515625" lon="7.4718643538653850555419921875"><ele></ele><time>2020-9-19T6:30:42Z</time></trkpt>
<trkpt lat="46.272361166775226593017578125" lon="7.47189545072615146636962890625"><ele></ele><time>2020-9-19T6:30:45Z</time></trkpt>
<trkpt lat="46.27235856838524341583251953125" lon="7.4719263799488544464111328125"><ele></ele><time>2020-9-19T6:30:48Z</time></trkpt>
<trkpt lat="46.2723549641668796539306640625" lon="7.47195772826671600341796875"><ele></ele><time>2020-9-19T6:30:51Z</time></trkpt>
<trkpt lat="46.27234951592981815338134765625" lon="7.47198882512748241424560546875"><ele></ele><time>2020-9-19T6:30:54Z</time></trkpt>
<trkpt lat="46.27234272658824920654296875" lon="7.47201665304601192474365234375"><ele></ele><time>2020-9-19T6:30:57Z</time></trkpt>
<trkpt lat="46.272335350513458251953125" lon="7.4720393680036067962646484375"><ele></ele><time>2020-9-19T6:31:0Z</time></trkpt>
<trkpt lat="46.2723286449909210205078125" lon="7.4720557965338230133056640625"><ele></ele><time>2020-9-19T6:31:3Z</time></trkpt>
<trkpt lat="46.27232470549643039703369140625" lon="7.4720678664743900299072265625"><ele></ele><time>2020-9-19T6:31:6Z</time></trkpt>
<trkpt lat="46.27232453785836696624755859375" lon="7.47207398526370525360107421875"><ele></ele><time>2020-9-19T6:31:9Z</time></trkpt>
<trkpt lat="46.27232135273516178131103515625" lon="7.472076751291751861572265625"><ele></ele><time>2020-9-19T6:31:12Z</time></trkpt>
<trkpt lat="46.27231297083199024200439453125" lon="7.4721583910286426544189453125"><ele></ele><time>2020-9-19T6:31:15Z</time></trkpt>
<trkpt lat="46.272302158176898956298828125" lon="7.4721835367381572723388671875"><ele></ele><time>2020-9-19T6:31:18Z</time></trkpt>
<trkpt lat="46.2722926028072834014892578125" lon="7.47221346013247966766357421875"><ele></ele><time>2020-9-19T6:31:21Z</time></trkpt>
<trkpt lat="46.27227298915386199951171875" lon="7.4722777493298053741455078125"><ele></ele><time>2020-9-19T6:31:24Z</time></trkpt>
<trkpt lat="46.27226385287940502166748046875" lon="7.47231035493314266204833984375"><ele></ele><time>2020-9-19T6:31:27Z</time></trkpt>
<trkpt lat="46.27225547097623348236083984375" lon="7.4723444692790508270263671875"><ele></ele><time>2020-9-19T6:31:30Z</time></trkpt>
<trkpt lat="46.27224809490144252777099609375" lon="7.47237975709140300750732421875"><ele></ele><time>2020-9-19T6:31:33Z</time></trkpt>
<trkpt lat="46.272242479026317596435546875" lon="7.472417391836643218994140625"><ele></ele><time>2020-9-19T6:31:36Z</time></trkpt>
<trkpt lat="46.2722382880747318267822265625" lon="7.47245569713413715362548828125"><ele></ele><time>2020-9-19T6:31:39Z</time></trkpt>
<trkpt lat="46.2722366116940975189208984375" lon="7.4724943377077579498291015625"><ele></ele><time>2020-9-19T6:31:42Z</time></trkpt>
<trkpt lat="46.27223568968474864959716796875" lon="7.4725325591862201690673828125"><ele></ele><time>2020-9-19T6:31:45Z</time></trkpt>
<trkpt lat="46.2722349353134632110595703125" lon="7.47257086448371410369873046875"><ele></ele><time>2020-9-19T6:31:48Z</time></trkpt>
<trkpt lat="46.27223535440862178802490234375" lon="7.4726093374192714691162109375"><ele></ele><time>2020-9-19T6:31:51Z</time></trkpt>
<trkpt lat="46.27223652787506580352783203125" lon="7.47264898382127285003662109375"><ele></ele><time>2020-9-19T6:31:54Z</time></trkpt>
<trkpt lat="46.27224055118858814239501953125" lon="7.4726881273090839385986328125"><ele></ele><time>2020-9-19T6:31:57Z</time></trkpt>
<trkpt lat="46.2722473405301570892333984375" lon="7.47272618114948272705078125"><ele></ele><time>2020-9-19T6:32:0Z</time></trkpt>
<trkpt lat="46.27225547097623348236083984375" lon="7.47276373207569122314453125"><ele></ele><time>2020-9-19T6:32:3Z</time></trkpt>
<trkpt lat="46.27226402051746845245361328125" lon="7.47280153445899486541748046875"><ele></ele><time>2020-9-19T6:32:6Z</time></trkpt>
<trkpt lat="46.27227307297289371490478515625" lon="7.47283883392810821533203125"><ele></ele><time>2020-9-19T6:32:9Z</time></trkpt>
<trkpt lat="46.2722822092473506927490234375" lon="7.47287579812109470367431640625"><ele></ele><time>2020-9-19T6:32:12Z</time></trkpt>
<trkpt lat="46.27229151315987110137939453125" lon="7.47291284613311290740966796875"><ele></ele><time>2020-9-19T6:32:15Z</time></trkpt>
<trkpt lat="46.27230190671980381011962890625" lon="7.4729496426880359649658203125"><ele></ele><time>2020-9-19T6:32:18Z</time></trkpt>
<trkpt lat="46.27231397666037082672119140625" lon="7.4729858525097370147705078125"><ele></ele><time>2020-9-19T6:32:21Z</time></trkpt>
<trkpt lat="46.27232663333415985107421875" lon="7.473022900521755218505859375"><ele></ele><time>2020-9-19T6:32:24Z</time></trkpt>
<trkpt lat="46.2723395414650440216064453125" lon="7.473060786724090576171875"><ele></ele><time>2020-9-19T6:32:27Z</time></trkpt>
<trkpt lat="46.27235286869108676910400390625" lon="7.47309942729771137237548828125"><ele></ele><time>2020-9-19T6:32:30Z</time></trkpt>
<trkpt lat="46.27236661501228809356689453125" lon="7.47313882224261760711669921875"><ele></ele><time>2020-9-19T6:32:33Z</time></trkpt>
<trkpt lat="46.2723807804286479949951171875" lon="7.47317905537784099578857421875"><ele></ele><time>2020-9-19T6:32:36Z</time></trkpt>
<trkpt lat="46.2723955325782299041748046875" lon="7.473219372332096099853515625"><ele></ele><time>2020-9-19T6:32:39Z</time></trkpt>
<trkpt lat="46.2724089436233043670654296875" lon="7.47326136566698551177978515625"><ele></ele><time>2020-9-19T6:32:42Z</time></trkpt>
<trkpt lat="46.27242277376353740692138671875" lon="7.47330293990671634674072265625"><ele></ele><time>2020-9-19T6:32:45Z</time></trkpt>
<trkpt lat="46.272437274456024169921875" lon="7.47334350831806659698486328125"><ele></ele><time>2020-9-19T6:32:48Z</time></trkpt>
<trkpt lat="46.27245211042463779449462890625" lon="7.47338441200554370880126953125"><ele></ele><time>2020-9-19T6:32:51Z</time></trkpt>
<trkpt lat="46.27246677875518798828125" lon="7.473425902426242828369140625"><ele></ele><time>2020-9-19T6:32:54Z</time></trkpt>
<trkpt lat="46.27248094417154788970947265625" lon="7.47346756048500537872314453125"><ele></ele><time>2020-9-19T6:32:57Z</time></trkpt>
<trkpt lat="46.2724949419498443603515625" lon="7.47350947000086307525634765625"><ele></ele><time>2020-9-19T6:33:0Z</time></trkpt>
<trkpt lat="46.27250902354717254638671875" lon="7.4735514633357524871826171875"><ele></ele><time>2020-9-19T6:33:3Z</time></trkpt>
<trkpt lat="46.272523440420627593994140625" lon="7.47359345667064189910888671875"><ele></ele><time>2020-9-19T6:33:6Z</time></trkpt>
<trkpt lat="46.27253727056086063385009765625" lon="7.47363603673875331878662109375"><ele></ele><time>2020-9-19T6:33:9Z</time></trkpt>
<trkpt lat="46.27255059778690338134765625" lon="7.47367844916880130767822265625"><ele></ele><time>2020-9-19T6:33:12Z</time></trkpt>
<trkpt lat="46.272578425705432891845703125" lon="7.4737633578479290008544921875"><ele></ele><time>2020-9-19T6:33:15Z</time></trkpt>
<trkpt lat="46.2725889869034290313720703125" lon="7.4738079495728015899658203125"><ele></ele><time>2020-9-19T6:33:18Z</time></trkpt>
<trkpt lat="46.2725980393588542938232421875" lon="7.47385262511670589447021484375"><ele></ele><time>2020-9-19T6:33:21Z</time></trkpt>
<trkpt lat="46.27260633744299411773681640625" lon="7.4738971330225467681884765625"><ele></ele><time>2020-9-19T6:33:24Z</time></trkpt>
<trkpt lat="46.2726144678890705108642578125" lon="7.47394147329032421112060546875"><ele></ele><time>2020-9-19T6:33:27Z</time></trkpt>
<trkpt lat="46.27262192778289318084716796875" lon="7.47398656792938709259033203125"><ele></ele><time>2020-9-19T6:33:30Z</time></trkpt>
<trkpt lat="46.27262829802930355072021484375" lon="7.47403241693973541259765625"><ele></ele><time>2020-9-19T6:33:33Z</time></trkpt>
<trkpt lat="46.272633410990238189697265625" lon="7.4740768410265445709228515625"><ele></ele><time>2020-9-19T6:33:36Z</time></trkpt>
<trkpt lat="46.2726369313895702362060546875" lon="7.474123276770114898681640625"><ele></ele><time>2020-9-19T6:33:39Z</time></trkpt>
<trkpt lat="46.2726386077702045440673828125" lon="7.47417113743722438812255859375"><ele></ele><time>2020-9-19T6:33:42Z</time></trkpt>
<trkpt lat="46.2726389430463314056396484375" lon="7.47421891428530216217041015625"><ele></ele><time>2020-9-19T6:33:45Z</time></trkpt>
<trkpt lat="46.2726399488747119903564453125" lon="7.474266104400157928466796875"><ele></ele><time>2020-9-19T6:33:48Z</time></trkpt>
<trkpt lat="46.27264187671244144439697265625" lon="7.47431312687695026397705078125"><ele></ele><time>2020-9-19T6:33:51Z</time></trkpt>
<trkpt lat="46.27264455892145633697509765625" lon="7.47435956262052059173583984375"><ele></ele><time>2020-9-19T6:33:54Z</time></trkpt>
<trkpt lat="46.27264774404466152191162109375" lon="7.4744059145450592041015625"><ele></ele><time>2020-9-19T6:33:57Z</time></trkpt>
<trkpt lat="46.27265277318656444549560546875" lon="7.47445159591734409332275390625"><ele></ele><time>2020-9-19T6:34:0Z</time></trkpt>
<trkpt lat="46.27265947870910167694091796875" lon="7.47449585236608982086181640625"><ele></ele><time>2020-9-19T6:34:3Z</time></trkpt>
<trkpt lat="46.2726684473454952239990234375" lon="7.47453809715807437896728515625"><ele></ele><time>2020-9-19T6:34:6Z</time></trkpt>
<trkpt lat="46.27267624251544475555419921875" lon="7.47458118014037609100341796875"><ele></ele><time>2020-9-19T6:34:9Z</time></trkpt>
<trkpt lat="46.27268093638122081756591796875" lon="7.47462451457977294921875"><ele></ele><time>2020-9-19T6:34:12Z</time></trkpt>
<trkpt lat="46.27268177457153797149658203125" lon="7.47466969303786754608154296875"><ele></ele><time>2020-9-19T6:34:15Z</time></trkpt>
<trkpt lat="46.2726821936666965484619140625" lon="7.47471763752400875091552734375"><ele></ele><time>2020-9-19T6:34:18Z</time></trkpt>
<trkpt lat="46.2726885639131069183349609375" lon="7.47476474381983280181884765625"><ele></ele><time>2020-9-19T6:34:21Z</time></trkpt>
<trkpt lat="46.27270122058689594268798828125" lon="7.47481285594403743743896484375"><ele></ele><time>2020-9-19T6:34:24Z</time></trkpt>
<trkpt lat="46.27272049896419048309326171875" lon="7.47485853731632232666015625"><ele></ele><time>2020-9-19T6:34:27Z</time></trkpt>
<trkpt lat="46.27274581231176853179931640625" lon="7.474899105727672576904296875"><ele></ele><time>2020-9-19T6:34:30Z</time></trkpt>
<trkpt lat="46.27293323166668415069580078125" lon="7.475144863128662109375"><ele></ele><time>2020-9-19T6:34:33Z</time></trkpt>
<trkpt lat="46.2729643285274505615234375" lon="7.4751866050064563751220703125"><ele></ele><time>2020-9-19T6:34:36Z</time></trkpt>
<trkpt lat="46.2729929946362972259521484375" lon="7.47522910125553607940673828125"><ele></ele><time>2020-9-19T6:34:39Z</time></trkpt>
<trkpt lat="46.273019649088382720947265625" lon="7.47527084313333034515380859375"><ele></ele><time>2020-9-19T6:34:42Z</time></trkpt>
<trkpt lat="46.27304521389305591583251953125" lon="7.475311495363712310791015625"><ele></ele><time>2020-9-19T6:34:45Z</time></trkpt>
<trkpt lat="46.27306968905031681060791015625" lon="7.4753512255847454071044921875"><ele></ele><time>2020-9-19T6:34:48Z</time></trkpt>
<trkpt lat="46.273093409836292266845703125" lon="7.47539095580577850341796875"><ele></ele><time>2020-9-19T6:34:51Z</time></trkpt>
<trkpt lat="46.27311511896550655364990234375" lon="7.4754333682358264923095703125"><ele></ele><time>2020-9-19T6:34:54Z</time></trkpt>
<trkpt lat="46.273134648799896240234375" lon="7.47547972016036510467529296875"><ele></ele><time>2020-9-19T6:34:57Z</time></trkpt>
<trkpt lat="46.273152418434619903564453125" lon="7.47552934102714061737060546875"><ele></ele><time>2020-9-19T6:35:0Z</time></trkpt>
<trkpt lat="46.27317027188837528228759765625" lon="7.47558013536036014556884765625"><ele></ele><time>2020-9-19T6:35:3Z</time></trkpt>
<trkpt lat="46.27319055609405040740966796875" lon="7.47562875039875507354736328125"><ele></ele><time>2020-9-19T6:35:6Z</time></trkpt>
<trkpt lat="46.273210085928440093994140625" lon="7.47567526996135711669921875"><ele></ele><time>2020-9-19T6:35:9Z</time></trkpt>
<trkpt lat="46.27322919666767120361328125" lon="7.4757201969623565673828125"><ele></ele><time>2020-9-19T6:35:12Z</time></trkpt>
<trkpt lat="46.2733084894716739654541015625" lon="7.47592647559940814971923828125"><ele></ele><time>2020-9-19T6:35:15Z</time></trkpt>
<trkpt lat="46.2733614630997180938720703125" lon="7.4760338477790355682373046875"><ele></ele><time>2020-9-19T6:35:18Z</time></trkpt>
<trkpt lat="46.273389793932437896728515625" lon="7.47608271427452564239501953125"><ele></ele><time>2020-9-19T6:35:21Z</time></trkpt>
<trkpt lat="46.273453496396541595458984375" lon="7.47617281973361968994140625"><ele></ele><time>2020-9-19T6:35:24Z</time></trkpt>
<trkpt lat="46.27348794601857662200927734375" lon="7.4762088619172573089599609375"><ele></ele><time>2020-9-19T6:35:27Z</time></trkpt>
<trkpt lat="46.273520886898040771484375" lon="7.4762400425970554351806640625"><ele></ele><time>2020-9-19T6:35:30Z</time></trkpt>
<trkpt lat="46.2735455296933650970458984375" lon="7.47627474367618560791015625"><ele></ele><time>2020-9-19T6:35:33Z</time></trkpt>
<trkpt lat="46.2735431827604770660400390625" lon="7.4763201735913753509521484375"><ele></ele><time>2020-9-19T6:35:36Z</time></trkpt>
<trkpt lat="46.2735277600586414337158203125" lon="7.4763570539653301239013671875"><ele></ele><time>2020-9-19T6:35:39Z</time></trkpt>
<trkpt lat="46.273501105606555938720703125" lon="7.47638999484479427337646484375"><ele></ele><time>2020-9-19T6:35:42Z</time></trkpt>
<trkpt lat="46.27347185276448726654052734375" lon="7.4764207564294338226318359375"><ele></ele><time>2020-9-19T6:35:45Z</time></trkpt>
<trkpt lat="46.2734379060566425323486328125" lon="7.47644363902509212493896484375"><ele></ele><time>2020-9-19T6:35:48Z</time></trkpt>
<trkpt lat="46.2734047137200832366943359375" lon="7.47646383941173553466796875"><ele></ele><time>2020-9-19T6:35:51Z</time></trkpt>
<trkpt lat="46.27336439676582813262939453125" lon="7.47648638673126697540283203125"><ele></ele><time>2020-9-19T6:35:54Z</time></trkpt>
<trkpt lat="46.2733252532780170440673828125" lon="7.47651069425046443939208984375"><ele></ele><time>2020-9-19T6:35:57Z</time></trkpt>
<trkpt lat="46.27329516224563121795654296875" lon="7.47655226849019527435302734375"><ele></ele><time>2020-9-19T6:36:0Z</time></trkpt>
<trkpt lat="46.27327538095414638519287109375" lon="7.4766061641275882720947265625"><ele></ele><time>2020-9-19T6:36:3Z</time></trkpt>
<trkpt lat="46.2732612155377864837646484375" lon="7.47666257433593273162841796875"><ele></ele><time>2020-9-19T6:36:6Z</time></trkpt>
<trkpt lat="46.273250989615917205810546875" lon="7.47672007419168949127197265625"><ele></ele><time>2020-9-19T6:36:9Z</time></trkpt>
<trkpt lat="46.27324663102626800537109375" lon="7.47677623294293880462646484375"><ele></ele><time>2020-9-19T6:36:12Z</time></trkpt>
<trkpt lat="46.2732447870075702667236328125" lon="7.4768338166177272796630859375"><ele></ele><time>2020-9-19T6:36:15Z</time></trkpt>
<trkpt lat="46.27324872650206089019775390625" lon="7.47688570059835910797119140625"><ele></ele><time>2020-9-19T6:36:18Z</time></trkpt>
<trkpt lat="46.273252330720424652099609375" lon="7.4769357405602931976318359375"><ele></ele><time>2020-9-19T6:36:21Z</time></trkpt>
<trkpt lat="46.27326381392776966094970703125" lon="7.47698393650352954864501953125"><ele></ele><time>2020-9-19T6:36:24Z</time></trkpt>
<trkpt lat="46.273281164467334747314453125" lon="7.4770363233983516693115234375"><ele></ele><time>2020-9-19T6:36:27Z</time></trkpt>
<trkpt lat="46.27330102957785129547119140625" lon="7.47709290124475955963134765625"><ele></ele><time>2020-9-19T6:36:30Z</time></trkpt>
<trkpt lat="46.2733210623264312744140625" lon="7.47715987265110015869140625"><ele></ele><time>2020-9-19T6:36:33Z</time></trkpt>
<trkpt lat="46.273345537483692169189453125" lon="7.477225251495838165283203125"><ele></ele><time>2020-9-19T6:36:36Z</time></trkpt>
<trkpt lat="46.27337227575480937957763671875" lon="7.4772861041128635406494140625"><ele></ele><time>2020-9-19T6:36:39Z</time></trkpt>
<trkpt lat="46.27339641563594341278076171875" lon="7.4773429334163665771484375"><ele></ele><time>2020-9-19T6:36:42Z</time></trkpt>
<trkpt lat="46.273406557738780975341796875" lon="7.47740789316594600677490234375"><ele></ele><time>2020-9-19T6:36:45Z</time></trkpt>
<trkpt lat="46.27341695129871368408203125" lon="7.47747243382036685943603515625"><ele></ele><time>2020-9-19T6:36:48Z</time></trkpt>
<trkpt lat="46.2734229862689971923828125" lon="7.47753932140767574310302734375"><ele></ele><time>2020-9-19T6:36:51Z</time></trkpt>
<trkpt lat="46.27339088357985019683837890625" lon="7.47764962725341320037841796875"><ele></ele><time>2020-9-19T6:36:54Z</time></trkpt>
<trkpt lat="46.27337227575480937957763671875" lon="7.47775305993854999542236328125"><ele></ele><time>2020-9-19T6:36:57Z</time></trkpt>
<trkpt lat="46.273358277976512908935546875" lon="7.47795171104371547698974609375"><ele></ele><time>2020-9-19T6:37:0Z</time></trkpt>
<trkpt lat="46.2733567692339420318603515625" lon="7.478044331073760986328125"><ele></ele><time>2020-9-19T6:37:3Z</time></trkpt>
<trkpt lat="46.273344866931438446044921875" lon="7.478231079876422882080078125"><ele></ele><time>2020-9-19T6:37:6Z</time></trkpt>
<trkpt lat="46.27333422191441059112548828125" lon="7.47840886004269123077392578125"><ele></ele><time>2020-9-19T6:37:9Z</time></trkpt>
<trkpt lat="46.27333539538085460662841796875" lon="7.4784964509308338165283203125"><ele></ele><time>2020-9-19T6:37:12Z</time></trkpt>
<trkpt lat="46.2733369879424571990966796875" lon="7.478582449257373809814453125"><ele></ele><time>2020-9-19T6:37:15Z</time></trkpt>
<trkpt lat="46.27334377728402614593505859375" lon="7.47866727411746978759765625"><ele></ele><time>2020-9-19T6:37:18Z</time></trkpt>
<trkpt lat="46.2733537517488002777099609375" lon="7.4787485785782337188720703125"><ele></ele><time>2020-9-19T6:37:21Z</time></trkpt>
<trkpt lat="46.27336322329938411712646484375" lon="7.478827536106109619140625"><ele></ele><time>2020-9-19T6:37:24Z</time></trkpt>
<trkpt lat="46.27337244339287281036376953125" lon="7.47890741564333438873291015625"><ele></ele><time>2020-9-19T6:37:27Z</time></trkpt>
<trkpt lat="46.27338233403861522674560546875" lon="7.47898654080927371978759765625"><ele></ele><time>2020-9-19T6:37:30Z</time></trkpt>
<trkpt lat="46.273392140865325927734375" lon="7.47906516306102275848388671875"><ele></ele><time>2020-9-19T6:37:33Z</time></trkpt>
<trkpt lat="46.27340764738619327545166015625" lon="7.479144372045993804931640625"><ele></ele><time>2020-9-19T6:37:36Z</time></trkpt>
<trkpt lat="46.2734275124967098236083984375" lon="7.4792216531932353973388671875"><ele></ele><time>2020-9-19T6:37:39Z</time></trkpt>
<trkpt lat="46.273450143635272979736328125" lon="7.47929717414081096649169921875"><ele></ele><time>2020-9-19T6:37:42Z</time></trkpt>
<trkpt lat="46.27347436733543872833251953125" lon="7.4793711863458156585693359375"><ele></ele><time>2020-9-19T6:37:45Z</time></trkpt>
<trkpt lat="46.27355835400521755218505859375" lon="7.47967603616416454315185546875"><ele></ele><time>2020-9-19T6:37:48Z</time></trkpt>
<trkpt lat="46.27357528544962406158447265625" lon="7.47975281439721584320068359375"><ele></ele><time>2020-9-19T6:37:51Z</time></trkpt>
<trkpt lat="46.2736058793962001800537109375" lon="7.47990955598652362823486328125"><ele></ele><time>2020-9-19T6:37:54Z</time></trkpt>
<trkpt lat="46.273619793355464935302734375" lon="7.479989267885684967041015625"><ele></ele><time>2020-9-19T6:37:57Z</time></trkpt>
<trkpt lat="46.27363345585763454437255859375" lon="7.4800678901374340057373046875"><ele></ele><time>2020-9-19T6:38:0Z</time></trkpt>
<trkpt lat="46.2736685760319232940673828125" lon="7.48039386235177516937255859375"><ele></ele><time>2020-9-19T6:38:3Z</time></trkpt>
<trkpt lat="46.27367519773542881011962890625" lon="7.4804735742509365081787109375"><ele></ele><time>2020-9-19T6:38:6Z</time></trkpt>
<trkpt lat="46.2736829929053783416748046875" lon="7.4805516935884952545166015625"><ele></ele><time>2020-9-19T6:38:9Z</time></trkpt>
<trkpt lat="46.2736910395324230194091796875" lon="7.48062754981219768524169921875"><ele></ele><time>2020-9-19T6:38:12Z</time></trkpt>
<trkpt lat="46.27370059490203857421875" lon="7.48070147819817066192626953125"><ele></ele><time>2020-9-19T6:38:15Z</time></trkpt>
<trkpt lat="46.2737138383090496063232421875" lon="7.48077356256544589996337890625"><ele></ele><time>2020-9-19T6:38:18Z</time></trkpt>
<trkpt lat="46.2737269140779972076416015625" lon="7.48084547929465770721435546875"><ele></ele><time>2020-9-19T6:38:21Z</time></trkpt>
<trkpt lat="46.27374007366597652435302734375" lon="7.48091622255742549896240234375"><ele></ele><time>2020-9-19T6:38:24Z</time></trkpt>
<trkpt lat="46.273751556873321533203125" lon="7.48098612762987613677978515625"><ele></ele><time>2020-9-19T6:38:27Z</time></trkpt>
<trkpt lat="46.2737594358623027801513671875" lon="7.48105603270232677459716796875"><ele></ele><time>2020-9-19T6:38:30Z</time></trkpt>
<trkpt lat="46.27376756630837917327880859375" lon="7.4811250157654285430908203125"><ele></ele><time>2020-9-19T6:38:33Z</time></trkpt>
<trkpt lat="46.273776032030582427978515625" lon="7.4811934120953083038330078125"><ele></ele><time>2020-9-19T6:38:36Z</time></trkpt>
<trkpt lat="46.27378441393375396728515625" lon="7.4812616407871246337890625"><ele></ele><time>2020-9-19T6:38:39Z</time></trkpt>
<trkpt lat="46.2737932987511157989501953125" lon="7.48132928274571895599365234375"><ele></ele><time>2020-9-19T6:38:42Z</time></trkpt>
<trkpt lat="46.27380243502557277679443359375" lon="7.48139667324721813201904296875"><ele></ele><time>2020-9-19T6:38:45Z</time></trkpt>
<trkpt lat="46.27381433732807636260986328125" lon="7.481461465358734130859375"><ele></ele><time>2020-9-19T6:38:48Z</time></trkpt>
<trkpt lat="46.273827664554119110107421875" lon="7.481524161994457244873046875"><ele></ele><time>2020-9-19T6:38:51Z</time></trkpt>
<trkpt lat="46.27384074032306671142578125" lon="7.4815853498876094818115234375"><ele></ele><time>2020-9-19T6:38:54Z</time></trkpt>
<trkpt lat="46.2738570012152194976806640625" lon="7.481644861400127410888671875"><ele></ele><time>2020-9-19T6:38:57Z</time></trkpt>
<trkpt lat="46.27387451939284801483154296875" lon="7.48170353472232818603515625"><ele></ele><time>2020-9-19T6:39:0Z</time></trkpt>
<trkpt lat="46.27389262430369853973388671875" lon="7.48175977729260921478271484375"><ele></ele><time>2020-9-19T6:39:3Z</time></trkpt>
<trkpt lat="46.2739103101193904876708984375" lon="7.48181694187223911285400390625"><ele></ele><time>2020-9-19T6:39:6Z</time></trkpt>
<trkpt lat="46.27392648719251155853271484375" lon="7.48187527991831302642822265625"><ele></ele><time>2020-9-19T6:39:9Z</time></trkpt>
<trkpt lat="46.27394140698015689849853515625" lon="7.48193412087857723236083984375"><ele></ele><time>2020-9-19T6:39:12Z</time></trkpt>
<trkpt lat="46.273955069482326507568359375" lon="7.481992207467555999755859375"><ele></ele><time>2020-9-19T6:39:15Z</time></trkpt>
<trkpt lat="46.27396571449935436248779296875" lon="7.4820513837039470672607421875"><ele></ele><time>2020-9-19T6:39:18Z</time></trkpt>
<trkpt lat="46.2739746831357479095458984375" lon="7.4821119010448455810546875"><ele></ele><time>2020-9-19T6:39:21Z</time></trkpt>
<trkpt lat="46.27398432232439517974853515625" lon="7.48217250220477581024169921875"><ele></ele><time>2020-9-19T6:39:24Z</time></trkpt>
<trkpt lat="46.2739916145801544189453125" lon="7.4822334386408329010009765625"><ele></ele><time>2020-9-19T6:39:27Z</time></trkpt>
<trkpt lat="46.2740008346736431121826171875" lon="7.4822941236197948455810546875"><ele></ele><time>2020-9-19T6:39:30Z</time></trkpt>
<trkpt lat="46.2740122340619564056396484375" lon="7.4823538027703762054443359375"><ele></ele><time>2020-9-19T6:39:33Z</time></trkpt>
<trkpt lat="46.2740246392786502838134765625" lon="7.48241172172129154205322265625"><ele></ele><time>2020-9-19T6:39:36Z</time></trkpt>
<trkpt lat="46.27403796650469303131103515625" lon="7.48246838338673114776611328125"><ele></ele><time>2020-9-19T6:39:39Z</time></trkpt>
<trkpt lat="46.2740517966449260711669921875" lon="7.48252638615667819976806640625"><ele></ele><time>2020-9-19T6:39:42Z</time></trkpt>
<trkpt lat="46.27406629733741283416748046875" lon="7.482584305107593536376953125"><ele></ele><time>2020-9-19T6:39:45Z</time></trkpt>
<trkpt lat="46.27408239059150218963623046875" lon="7.4826421402394771575927734375"><ele></ele><time>2020-9-19T6:39:48Z</time></trkpt>
<trkpt lat="46.274101249873638153076171875" lon="7.48270039446651935577392578125"><ele></ele><time>2020-9-19T6:39:51Z</time></trkpt>
<trkpt lat="46.2741198576986789703369140625" lon="7.4827594868838787078857421875"><ele></ele><time>2020-9-19T6:39:54Z</time></trkpt>
<trkpt lat="46.274138800799846649169921875" lon="7.4828181602060794830322265625"><ele></ele><time>2020-9-19T6:39:57Z</time></trkpt>
<trkpt lat="46.27415782772004604339599609375" lon="7.482876665890216827392578125"><ele></ele><time>2020-9-19T6:40:0Z</time></trkpt>
<trkpt lat="46.27417962066829204559326171875" lon="7.48293441720306873321533203125"><ele></ele><time>2020-9-19T6:40:3Z</time></trkpt>
<trkpt lat="46.2742013297975063323974609375" lon="7.48299292288720607757568359375"><ele></ele><time>2020-9-19T6:40:6Z</time></trkpt>
<trkpt lat="46.274223960936069488525390625" lon="7.483049668371677398681640625"><ele></ele><time>2020-9-19T6:40:9Z</time></trkpt>
<trkpt lat="46.2742469273507595062255859375" lon="7.48310641385614871978759765625"><ele></ele><time>2020-9-19T6:40:12Z</time></trkpt>
<trkpt lat="46.27431683242321014404296875" lon="7.48327908106148242950439453125"><ele></ele><time>2020-9-19T6:40:15Z</time></trkpt>
<trkpt lat="46.2743397988379001617431640625" lon="7.48333540745079517364501953125"><ele></ele><time>2020-9-19T6:40:18Z</time></trkpt>
<trkpt lat="46.27436242997646331787109375" lon="7.48339123092591762542724609375"><ele></ele><time>2020-9-19T6:40:21Z</time></trkpt>
<trkpt lat="46.2744263000786304473876953125" lon="7.48356322757899761199951171875"><ele></ele><time>2020-9-19T6:40:24Z</time></trkpt>
<trkpt lat="46.27444499172270298004150390625" lon="7.4836219847202301025390625"><ele></ele><time>2020-9-19T6:40:27Z</time></trkpt>
<trkpt lat="46.27446427009999752044677734375" lon="7.48368032276630401611328125"><ele></ele><time>2020-9-19T6:40:30Z</time></trkpt>
<trkpt lat="46.274524368345737457275390625" lon="7.48385734856128692626953125"><ele></ele><time>2020-9-19T6:40:33Z</time></trkpt>
<trkpt lat="46.274543814361095428466796875" lon="7.48391694389283657073974609375"><ele></ele><time>2020-9-19T6:40:36Z</time></trkpt>
<trkpt lat="46.27456099726259708404541015625" lon="7.48397578485310077667236328125"><ele></ele><time>2020-9-19T6:40:39Z</time></trkpt>
<trkpt lat="46.2745788507163524627685546875" lon="7.4840328656136989593505859375"><ele></ele><time>2020-9-19T6:40:42Z</time></trkpt>
<trkpt lat="46.27459754236042499542236328125" lon="7.48408743180334568023681640625"><ele></ele><time>2020-9-19T6:40:45Z</time></trkpt>
<trkpt lat="46.27461464144289493560791015625" lon="7.48413939960300922393798828125"><ele></ele><time>2020-9-19T6:40:48Z</time></trkpt>
<trkpt lat="46.274630986154079437255859375" lon="7.4841894395649433135986328125"><ele></ele><time>2020-9-19T6:40:51Z</time></trkpt>
<trkpt lat="46.27464766614139080047607421875" lon="7.48423688113689422607421875"><ele></ele><time>2020-9-19T6:40:54Z</time></trkpt>
<trkpt lat="46.27466476522386074066162109375" lon="7.484283149242401123046875"><ele></ele><time>2020-9-19T6:40:57Z</time></trkpt>
<trkpt lat="46.27468203194439411163330078125" lon="7.4843300879001617431640625"><ele></ele><time>2020-9-19T6:41:0Z</time></trkpt>
<trkpt lat="46.2747005559504032135009765625" lon="7.48437627218663692474365234375"><ele></ele><time>2020-9-19T6:41:3Z</time></trkpt>
<trkpt lat="46.27471983432769775390625" lon="7.48442069627344608306884765625"><ele></ele><time>2020-9-19T6:41:6Z</time></trkpt>
<trkpt lat="46.2747391127049922943115234375" lon="7.4844650365412235260009765625"><ele></ele><time>2020-9-19T6:41:9Z</time></trkpt>
<trkpt lat="46.2747575528919696807861328125" lon="7.484510131180286407470703125"><ele></ele><time>2020-9-19T6:41:12Z</time></trkpt>
<trkpt lat="46.27477523870766162872314453125" lon="7.48455447144806385040283203125"><ele></ele><time>2020-9-19T6:41:15Z</time></trkpt>
<trkpt lat="46.27479292452335357666015625" lon="7.48459688387811183929443359375"><ele></ele><time>2020-9-19T6:41:18Z</time></trkpt>
<trkpt lat="46.27481169998645782470703125" lon="7.484637536108493804931640625"><ele></ele><time>2020-9-19T6:41:21Z</time></trkpt>
<trkpt lat="46.27483089454472064971923828125" lon="7.484678439795970916748046875"><ele></ele><time>2020-9-19T6:41:24Z</time></trkpt>
<trkpt lat="46.27485017292201519012451171875" lon="7.48471942730247974395751953125"><ele></ele><time>2020-9-19T6:41:27Z</time></trkpt>
<trkpt lat="46.2748688645660877227783203125" lon="7.48475991189479827880859375"><ele></ele><time>2020-9-19T6:41:30Z</time></trkpt>
<trkpt lat="46.274888478219509124755859375" lon="7.48480006121098995208740234375"><ele></ele><time>2020-9-19T6:41:33Z</time></trkpt>
<trkpt lat="46.2749080918729305267333984375" lon="7.484839372336864471435546875"><ele></ele><time>2020-9-19T6:41:36Z</time></trkpt>
<trkpt lat="46.27492695115506649017333984375" lon="7.4848797731101512908935546875"><ele></ele><time>2020-9-19T6:41:39Z</time></trkpt>
<trkpt lat="46.2749432958662509918212890625" lon="7.48491992242634296417236328125"><ele></ele><time>2020-9-19T6:41:42Z</time></trkpt>
<trkpt lat="46.2749570421874523162841796875" lon="7.48496283777058124542236328125"><ele></ele><time>2020-9-19T6:41:45Z</time></trkpt>
<trkpt lat="46.2749706208705902099609375" lon="7.4850055016577243804931640625"><ele></ele><time>2020-9-19T6:41:48Z</time></trkpt>
<trkpt lat="46.274985708296298980712890625" lon="7.48504883609712123870849609375"><ele></ele><time>2020-9-19T6:41:51Z</time></trkpt>
<trkpt lat="46.27500104717910289764404296875" lon="7.48509384691715240478515625"><ele></ele><time>2020-9-19T6:41:54Z</time></trkpt>
<trkpt lat="46.27501429058611392974853515625" lon="7.48514304868876934051513671875"><ele></ele><time>2020-9-19T6:41:57Z</time></trkpt>
<trkpt lat="46.2750269472599029541015625" lon="7.48519334010779857635498046875"><ele></ele><time>2020-9-19T6:42:0Z</time></trkpt>
<trkpt lat="46.27503993920981884002685546875" lon="7.4852455593645572662353515625"><ele></ele><time>2020-9-19T6:42:3Z</time></trkpt>
<trkpt lat="46.2751059047877788543701171875" lon="7.4854628182947635650634765625"><ele></ele><time>2020-9-19T6:42:6Z</time></trkpt>
<trkpt lat="46.275144629180431365966796875" lon="7.48557605780661106109619140625"><ele></ele><time>2020-9-19T6:42:9Z</time></trkpt>
<trkpt lat="46.275348477065563201904296875" lon="7.4860586039721965789794921875"><ele></ele><time>2020-9-19T6:42:12Z</time></trkpt>
<trkpt lat="46.27538091503083705902099609375" lon="7.4861142598092555999755859375"><ele></ele><time>2020-9-19T6:42:15Z</time></trkpt>
<trkpt lat="46.275414861738681793212890625" lon="7.48616714961826801300048828125"><ele></ele><time>2020-9-19T6:42:18Z</time></trkpt>
<trkpt lat="46.27548049204051494598388671875" lon="7.48627535998821258544921875"><ele></ele><time>2020-9-19T6:42:21Z</time></trkpt>
<trkpt lat="46.27551200799643993377685546875" lon="7.4863295070827007293701171875"><ele></ele><time>2020-9-19T6:42:24Z</time></trkpt>
<trkpt lat="46.27554251812398433685302734375" lon="7.48638331890106201171875"><ele></ele><time>2020-9-19T6:42:27Z</time></trkpt>
<trkpt lat="46.27557084895670413970947265625" lon="7.48643637634813785552978515625"><ele></ele><time>2020-9-19T6:42:30Z</time></trkpt>
<trkpt lat="46.2755957432091236114501953125" lon="7.4864897690713405609130859375"><ele></ele><time>2020-9-19T6:42:33Z</time></trkpt>
<trkpt lat="46.27561879344284534454345703125" lon="7.4865410663187503814697265625"><ele></ele><time>2020-9-19T6:42:36Z</time></trkpt>
<trkpt lat="46.2756406702101230621337890625" lon="7.486591525375843048095703125"><ele></ele><time>2020-9-19T6:42:39Z</time></trkpt>
<trkpt lat="46.2756607867777347564697265625" lon="7.48664290644228458404541015625"><ele></ele><time>2020-9-19T6:42:42Z</time></trkpt>
<trkpt lat="46.275680400431156158447265625" lon="7.4866946227848529815673828125"><ele></ele><time>2020-9-19T6:42:45Z</time></trkpt>
<trkpt lat="46.2756996788084506988525390625" lon="7.4867465905845165252685546875"><ele></ele><time>2020-9-19T6:42:48Z</time></trkpt>
<trkpt lat="46.27571761608123779296875" lon="7.48679931275546550750732421875"><ele></ele><time>2020-9-19T6:42:51Z</time></trkpt>
<trkpt lat="46.27573714591562747955322265625" lon="7.4868528731167316436767578125"><ele></ele><time>2020-9-19T6:42:54Z</time></trkpt>
<trkpt lat="46.2757560051977634429931640625" lon="7.48690794222056865692138671875"><ele></ele><time>2020-9-19T6:42:57Z</time></trkpt>
<trkpt lat="46.27577419392764568328857421875" lon="7.4869651906192302703857421875"><ele></ele><time>2020-9-19T6:43:0Z</time></trkpt>
<trkpt lat="46.27579229883849620819091796875" lon="7.487024031579494476318359375"><ele></ele><time>2020-9-19T6:43:3Z</time></trkpt>
<trkpt lat="46.27581082284450531005859375" lon="7.487083040177822113037109375"><ele></ele><time>2020-9-19T6:43:6Z</time></trkpt>
<trkpt lat="46.27586421556770801544189453125" lon="7.4872632510960102081298828125"><ele></ele><time>2020-9-19T6:43:9Z</time></trkpt>
<trkpt lat="46.27601467072963714599609375" lon="7.48778385110199451446533203125"><ele></ele><time>2020-9-19T6:43:12Z</time></trkpt>
<trkpt lat="46.27617786638438701629638671875" lon="7.48836706392467021942138671875"><ele></ele><time>2020-9-19T6:43:15Z</time></trkpt>
<trkpt lat="46.27619043923914432525634765625" lon="7.488430850207805633544921875"><ele></ele><time>2020-9-19T6:43:18Z</time></trkpt>
<trkpt lat="46.2762049399316310882568359375" lon="7.48848675750195980072021484375"><ele></ele><time>2020-9-19T6:43:21Z</time></trkpt>
<trkpt lat="46.2762186862528324127197265625" lon="7.4885369651019573211669921875"><ele></ele><time>2020-9-19T6:43:24Z</time></trkpt>
<trkpt lat="46.27622899599373340606689453125" lon="7.4885849095880985260009765625"><ele></ele><time>2020-9-19T6:43:27Z</time></trkpt>
<trkpt lat="46.27623586915433406829833984375" lon="7.48863427899777889251708984375"><ele></ele><time>2020-9-19T6:43:30Z</time></trkpt>
<trkpt lat="46.2762398086488246917724609375" lon="7.48868398368358612060546875"><ele></ele><time>2020-9-19T6:43:33Z</time></trkpt>
<trkpt lat="46.27624726854264736175537109375" lon="7.48873687349259853363037109375"><ele></ele><time>2020-9-19T6:43:36Z</time></trkpt>
<trkpt lat="46.27625866793096065521240234375" lon="7.48878967948257923126220703125"><ele></ele><time>2020-9-19T6:43:39Z</time></trkpt>
<trkpt lat="46.2762807123363018035888671875" lon="7.4888373725116252899169921875"><ele></ele><time>2020-9-19T6:43:42Z</time></trkpt>
<trkpt lat="46.27630895934998989105224609375" lon="7.48887567780911922454833984375"><ele></ele><time>2020-9-19T6:43:45Z</time></trkpt>
<trkpt lat="46.27633712254464626312255859375" lon="7.48890367336571216583251953125"><ele></ele><time>2020-9-19T6:43:48Z</time></trkpt>
<trkpt lat="46.27636444754898548126220703125" lon="7.4889247119426727294921875"><ele></ele><time>2020-9-19T6:43:51Z</time></trkpt>
<trkpt lat="46.27638992853462696075439453125" lon="7.4889423139393329620361328125"><ele></ele><time>2020-9-19T6:43:54Z</time></trkpt>
<trkpt lat="46.27641390077769756317138671875" lon="7.4889567308127880096435546875"><ele></ele><time>2020-9-19T6:43:57Z</time></trkpt>
<trkpt lat="46.27643669955432415008544921875" lon="7.48897039331495761871337890625"><ele></ele><time>2020-9-19T6:44:0Z</time></trkpt>
<trkpt lat="46.27645882777869701385498046875" lon="7.4889845587313175201416015625"><ele></ele><time>2020-9-19T6:44:3Z</time></trkpt>
<trkpt lat="46.27648045308887958526611328125" lon="7.48899939469993114471435546875"><ele></ele><time>2020-9-19T6:44:6Z</time></trkpt>
<trkpt lat="46.27650090493261814117431640625" lon="7.48901649378240108489990234375"><ele></ele><time>2020-9-19T6:44:9Z</time></trkpt>
<trkpt lat="46.27652018330991268157958984375" lon="7.48903359286487102508544921875"><ele></ele><time>2020-9-19T6:44:12Z</time></trkpt>
<trkpt lat="46.27653879113495349884033203125" lon="7.4890499375760555267333984375"><ele></ele><time>2020-9-19T6:44:15Z</time></trkpt>
<trkpt lat="46.27655656076967716217041015625" lon="7.48906745575368404388427734375"><ele></ele><time>2020-9-19T6:44:18Z</time></trkpt>
<trkpt lat="46.2765737436711788177490234375" lon="7.489085979759693145751953125"><ele></ele><time>2020-9-19T6:44:21Z</time></trkpt>
<trkpt lat="46.27659025602042675018310546875" lon="7.48910483904182910919189453125"><ele></ele><time>2020-9-19T6:44:24Z</time></trkpt>
<trkpt lat="46.2766062654554843902587890625" lon="7.48912361450493335723876953125"><ele></ele><time>2020-9-19T6:44:27Z</time></trkpt>
<trkpt lat="46.27662126906216144561767578125" lon="7.48914171941578388214111328125"><ele></ele><time>2020-9-19T6:44:30Z</time></trkpt>
<trkpt lat="46.276635266840457916259765625" lon="7.48915982432663440704345703125"><ele></ele><time>2020-9-19T6:44:33Z</time></trkpt>
<trkpt lat="46.276648342609405517578125" lon="7.4891783483326435089111328125"><ele></ele><time>2020-9-19T6:44:36Z</time></trkpt>
<trkpt lat="46.27666150219738483428955078125" lon="7.48919703997671604156494140625"><ele></ele><time>2020-9-19T6:44:39Z</time></trkpt>
<trkpt lat="46.27667449414730072021484375" lon="7.48921531252562999725341796875"><ele></ele><time>2020-9-19T6:44:42Z</time></trkpt>
<trkpt lat="46.2766880728304386138916015625" lon="7.4892323277890682220458984375"><ele></ele><time>2020-9-19T6:44:45Z</time></trkpt>
<trkpt lat="46.27670324407517910003662109375" lon="7.48924733139574527740478515625"><ele></ele><time>2020-9-19T6:44:48Z</time></trkpt>
<trkpt lat="46.27671967260539531707763671875" lon="7.4892625026404857635498046875"><ele></ele><time>2020-9-19T6:44:51Z</time></trkpt>
<trkpt lat="46.27673576585948467254638671875" lon="7.4892787635326385498046875"><ele></ele><time>2020-9-19T6:44:54Z</time></trkpt>
<trkpt lat="46.2767524458467960357666015625" lon="7.48929561115801334381103515625"><ele></ele><time>2020-9-19T6:44:57Z</time></trkpt>
<trkpt lat="46.276766359806060791015625" lon="7.48931203968822956085205078125"><ele></ele><time>2020-9-19T6:45:0Z</time></trkpt>
<trkpt lat="46.27678002230823040008544921875" lon="7.4893282167613506317138671875"><ele></ele><time>2020-9-19T6:45:3Z</time></trkpt>
<trkpt lat="46.276793181896209716796875" lon="7.489344812929630279541015625"><ele></ele><time>2020-9-19T6:45:6Z</time></trkpt>
<trkpt lat="46.27680550329387187957763671875" lon="7.4893620796501636505126953125"><ele></ele><time>2020-9-19T6:45:9Z</time></trkpt>
<trkpt lat="46.27681740559637546539306640625" lon="7.48937943018972873687744140625"><ele></ele><time>2020-9-19T6:45:12Z</time></trkpt>
<trkpt lat="46.27683006227016448974609375" lon="7.489398457109928131103515625"><ele></ele><time>2020-9-19T6:45:15Z</time></trkpt>
<trkpt lat="46.276841796934604644775390625" lon="7.48941781930625438690185546875"><ele></ele><time>2020-9-19T6:45:18Z</time></trkpt>
<trkpt lat="46.27685227431356906890869140625" lon="7.48943927697837352752685546875"><ele></ele><time>2020-9-19T6:45:21Z</time></trkpt>
<trkpt lat="46.27686434425413608551025390625" lon="7.4894629977643489837646484375"><ele></ele><time>2020-9-19T6:45:24Z</time></trkpt>
<trkpt lat="46.27687742002308368682861328125" lon="7.48948864638805389404296875"><ele></ele><time>2020-9-19T6:45:27Z</time></trkpt>
<trkpt lat="46.2768892385065555572509765625" lon="7.48951538465917110443115234375"><ele></ele><time>2020-9-19T6:45:30Z</time></trkpt>
<trkpt lat="46.2768986262381076812744140625" lon="7.48954472132027149200439453125"><ele></ele><time>2020-9-19T6:45:33Z</time></trkpt>
<trkpt lat="46.276910193264484405517578125" lon="7.48957707546651363372802734375"><ele></ele><time>2020-9-19T6:45:36Z</time></trkpt>
<trkpt lat="46.27692251466214656829833984375" lon="7.4896095134317874908447265625"><ele></ele><time>2020-9-19T6:45:39Z</time></trkpt>
<trkpt lat="46.27693575806915760040283203125" lon="7.489640526473522186279296875"><ele></ele><time>2020-9-19T6:45:42Z</time></trkpt>
<trkpt lat="46.27694916911423206329345703125" lon="7.48967095278203487396240234375"><ele></ele><time>2020-9-19T6:45:45Z</time></trkpt>
<trkpt lat="46.27696207724511623382568359375" lon="7.4897010438144207000732421875"><ele></ele><time>2020-9-19T6:45:48Z</time></trkpt>
<trkpt lat="46.276975236833095550537109375" lon="7.48973130248486995697021484375"><ele></ele><time>2020-9-19T6:45:51Z</time></trkpt>
<trkpt lat="46.2769876420497894287109375" lon="7.48976147733628749847412109375"><ele></ele><time>2020-9-19T6:45:54Z</time></trkpt>
<trkpt lat="46.27699929289519786834716796875" lon="7.48979198746383190155029296875"><ele></ele><time>2020-9-19T6:45:57Z</time></trkpt>
<trkpt lat="46.277010105550289154052734375" lon="7.48982249759137630462646484375"><ele></ele><time>2020-9-19T6:46:0Z</time></trkpt>
<trkpt lat="46.277020834386348724365234375" lon="7.48985342681407928466796875"><ele></ele><time>2020-9-19T6:46:3Z</time></trkpt>
<trkpt lat="46.27703122794628143310546875" lon="7.48988335020840167999267578125"><ele></ele><time>2020-9-19T6:46:6Z</time></trkpt>
<trkpt lat="46.2770424596965312957763671875" lon="7.48991235159337520599365234375"><ele></ele><time>2020-9-19T6:46:9Z</time></trkpt>
<trkpt lat="46.27705394290387630462646484375" lon="7.48994185589253902435302734375"><ele></ele><time>2020-9-19T6:46:12Z</time></trkpt>
<trkpt lat="46.277066767215728759765625" lon="7.4899712763726711273193359375"><ele></ele><time>2020-9-19T6:46:15Z</time></trkpt>
<trkpt lat="46.27708009444177150726318359375" lon="7.490001283586025238037109375"><ele></ele><time>2020-9-19T6:46:18Z</time></trkpt>
<trkpt lat="46.277093589305877685546875" lon="7.49003288336098194122314453125"><ele></ele><time>2020-9-19T6:46:21Z</time></trkpt>
<trkpt lat="46.2771075032651424407958984375" lon="7.49006607569754123687744140625"><ele></ele><time>2020-9-19T6:46:24Z</time></trkpt>
<trkpt lat="46.27712116576731204986572265625" lon="7.49009993858635425567626953125"><ele></ele><time>2020-9-19T6:46:27Z</time></trkpt>
<trkpt lat="46.2771356664597988128662109375" lon="7.4901343882083892822265625"><ele></ele><time>2020-9-19T6:46:30Z</time></trkpt>
<trkpt lat="46.27716843970119953155517578125" lon="7.49020605348050594329833984375"><ele></ele><time>2020-9-19T6:46:33Z</time></trkpt>
<trkpt lat="46.2771862931549549102783203125" lon="7.49024427495896816253662109375"><ele></ele><time>2020-9-19T6:46:36Z</time></trkpt>
<trkpt lat="46.27727204002439975738525390625" lon="7.4904822371900081634521484375"><ele></ele><time>2020-9-19T6:46:39Z</time></trkpt>
<trkpt lat="46.27729299478232860565185546875" lon="7.490546442568302154541015625"><ele></ele><time>2020-9-19T6:46:42Z</time></trkpt>
<trkpt lat="46.2773175537586212158203125" lon="7.4906163476407527923583984375"><ele></ele><time>2020-9-19T6:46:45Z</time></trkpt>
<trkpt lat="46.277420818805694580078125" lon="7.4909412302076816558837890625"><ele></ele><time>2020-9-19T6:46:48Z</time></trkpt>
<trkpt lat="46.27744722180068492889404296875" lon="7.491029240190982818603515625"><ele></ele><time>2020-9-19T6:46:51Z</time></trkpt>
<trkpt lat="46.277500279247760772705078125" lon="7.49122696928679943084716796875"><ele></ele><time>2020-9-19T6:46:54Z</time></trkpt>
<trkpt lat="46.27756339497864246368408203125" lon="7.49145093373954296112060546875"><ele></ele><time>2020-9-19T6:46:57Z</time></trkpt>
<trkpt lat="46.27759759314358234405517578125" lon="7.4915559589862823486328125"><ele></ele><time>2020-9-19T6:47:0Z</time></trkpt>
<trkpt lat="46.2776285223662853240966796875" lon="7.49165453016757965087890625"><ele></ele><time>2020-9-19T6:47:3Z</time></trkpt>
<trkpt lat="46.27765559591352939605712890625" lon="7.491752095520496368408203125"><ele></ele><time>2020-9-19T6:47:6Z</time></trkpt>
<trkpt lat="46.277681998908519744873046875" lon="7.4918536841869354248046875"><ele></ele><time>2020-9-19T6:47:9Z</time></trkpt>
<trkpt lat="46.27771276049315929412841796875" lon="7.4919577874243259429931640625"><ele></ele><time>2020-9-19T6:47:12Z</time></trkpt>
<trkpt lat="46.27778417430818080902099609375" lon="7.4921602942049503326416015625"><ele></ele><time>2020-9-19T6:47:15Z</time></trkpt>
<trkpt lat="46.27782373689115047454833984375" lon="7.4922528304159641265869140625"><ele></ele><time>2020-9-19T6:47:18Z</time></trkpt>
<trkpt lat="46.27786564640700817108154296875" lon="7.4923373199999332427978515625"><ele></ele><time>2020-9-19T6:47:21Z</time></trkpt>
<trkpt lat="46.27790487371385097503662109375" lon="7.4924196302890777587890625"><ele></ele><time>2020-9-19T6:47:24Z</time></trkpt>
<trkpt lat="46.27793437801301479339599609375" lon="7.49250872991979122161865234375"><ele></ele><time>2020-9-19T6:47:27Z</time></trkpt>
<trkpt lat="46.277955584228038787841796875" lon="7.49260604381561279296875"><ele></ele><time>2020-9-19T6:47:30Z</time></trkpt>
<trkpt lat="46.27800143323838710784912109375" lon="7.492809556424617767333984375"><ele></ele><time>2020-9-19T6:47:33Z</time></trkpt>
<trkpt lat="46.27806723117828369140625" lon="7.4930078722536563873291015625"><ele></ele><time>2020-9-19T6:47:36Z</time></trkpt>
<trkpt lat="46.278107129037380218505859375" lon="7.4930987320840358734130859375"><ele></ele><time>2020-9-19T6:47:39Z</time></trkpt>
<trkpt lat="46.27815146930515766143798828125" lon="7.4931812100112438201904296875"><ele></ele><time>2020-9-19T6:47:42Z</time></trkpt>
<trkpt lat="46.2781937979161739349365234375" lon="7.49325941316783428192138671875"><ele></ele><time>2020-9-19T6:47:45Z</time></trkpt>
<trkpt lat="46.27823327668011188507080078125" lon="7.4933270551264286041259765625"><ele></ele><time>2020-9-19T6:47:48Z</time></trkpt>
<trkpt lat="46.2782702408730983734130859375" lon="7.4933879077434539794921875"><ele></ele><time>2020-9-19T6:47:51Z</time></trkpt>
<trkpt lat="46.27830485813319683074951171875" lon="7.49344113282859325408935546875"><ele></ele><time>2020-9-19T6:47:54Z</time></trkpt>
<trkpt lat="46.27833905629813671112060546875" lon="7.49348673038184642791748046875"><ele></ele><time>2020-9-19T6:47:57Z</time></trkpt>
<trkpt lat="46.278371997177600860595703125" lon="7.493528388440608978271484375"><ele></ele><time>2020-9-19T6:48:0Z</time></trkpt>
<trkpt lat="46.27840183675289154052734375" lon="7.49356904067099094390869140625"><ele></ele><time>2020-9-19T6:48:3Z</time></trkpt>
<trkpt lat="46.278428994119167327880859375" lon="7.4936090223491191864013671875"><ele></ele><time>2020-9-19T6:48:6Z</time></trkpt>
<trkpt lat="46.27845388837158679962158203125" lon="7.493649758398532867431640625"><ele></ele><time>2020-9-19T6:48:9Z</time></trkpt>
<trkpt lat="46.27847618423402309417724609375" lon="7.49369191937148571014404296875"><ele></ele><time>2020-9-19T6:48:12Z</time></trkpt>
<trkpt lat="46.27849747426807880401611328125" lon="7.4937367625534534454345703125"><ele></ele><time>2020-9-19T6:48:15Z</time></trkpt>
<trkpt lat="46.27851893194019794464111328125" lon="7.493783868849277496337890625"><ele></ele><time>2020-9-19T6:48:18Z</time></trkpt>
<trkpt lat="46.27854022197425365447998046875" lon="7.4938353337347507476806640625"><ele></ele><time>2020-9-19T6:48:21Z</time></trkpt>
<trkpt lat="46.27856276929378509521484375" lon="7.49389090575277805328369140625"><ele></ele><time>2020-9-19T6:48:24Z</time></trkpt>
<trkpt lat="46.27858364023268222808837890625" lon="7.49395075254142284393310546875"><ele></ele><time>2020-9-19T6:48:27Z</time></trkpt>
<trkpt lat="46.2786092050373554229736328125" lon="7.494013197720050811767578125"><ele></ele><time>2020-9-19T6:48:30Z</time></trkpt>
<trkpt lat="46.278700567781925201416015625" lon="7.49420304782688617706298828125"><ele></ele><time>2020-9-19T6:48:33Z</time></trkpt>
<trkpt lat="46.2787322513759136199951171875" lon="7.49426423572003841400146484375"><ele></ele><time>2020-9-19T6:48:36Z</time></trkpt>
<trkpt lat="46.27876351587474346160888671875" lon="7.4943239986896514892578125"><ele></ele><time>2020-9-19T6:48:39Z</time></trkpt>
<trkpt lat="46.27879385836422443389892578125" lon="7.49438359402120113372802734375"><ele></ele><time>2020-9-19T6:48:42Z</time></trkpt>
<trkpt lat="46.2788244523108005523681640625" lon="7.49444126151502132415771484375"><ele></ele><time>2020-9-19T6:48:45Z</time></trkpt>
<trkpt lat="46.2788549624383449554443359375" lon="7.4944971688091754913330078125"><ele></ele><time>2020-9-19T6:48:48Z</time></trkpt>
<trkpt lat="46.27888421528041362762451171875" lon="7.49455324374139308929443359375"><ele></ele><time>2020-9-19T6:48:51Z</time></trkpt>
<trkpt lat="46.2789129652082920074462890625" lon="7.49460764229297637939453125"><ele></ele><time>2020-9-19T6:48:54Z</time></trkpt>
<trkpt lat="46.2789407931268215179443359375" lon="7.49466086737811565399169921875"><ele></ele><time>2020-9-19T6:48:57Z</time></trkpt>
<trkpt lat="46.27896786667406558990478515625" lon="7.49471166171133518218994140625"><ele></ele><time>2020-9-19T6:49:0Z</time></trkpt>
<trkpt lat="46.2789934314787387847900390625" lon="7.49476379714906215667724609375"><ele></ele><time>2020-9-19T6:49:3Z</time></trkpt>
<trkpt lat="46.2790185771882534027099609375" lon="7.49481593258678913116455078125"><ele></ele><time>2020-9-19T6:49:6Z</time></trkpt>
<trkpt lat="46.27904347144067287445068359375" lon="7.49486647546291351318359375"><ele></ele><time>2020-9-19T6:49:9Z</time></trkpt>
<trkpt lat="46.27906777895987033843994140625" lon="7.4949162639677524566650390625"><ele></ele><time>2020-9-19T6:49:12Z</time></trkpt>
<trkpt lat="46.27909242175519466400146484375" lon="7.49496462754905223846435546875"><ele></ele><time>2020-9-19T6:49:15Z</time></trkpt>
<trkpt lat="46.2791178189218044281005859375" lon="7.49501156620681285858154296875"><ele></ele><time>2020-9-19T6:49:18Z</time></trkpt>
<trkpt lat="46.27914589829742908477783203125" lon="7.495057247579097747802734375"><ele></ele><time>2020-9-19T6:49:21Z</time></trkpt>
<trkpt lat="46.27917691133916378021240234375" lon="7.4950991570949554443359375"><ele></ele><time>2020-9-19T6:49:24Z</time></trkpt>
<trkpt lat="46.27921043895184993743896484375" lon="7.4951385520398616790771484375"><ele></ele><time>2020-9-19T6:49:27Z</time></trkpt>
<trkpt lat="46.279245056211948394775390625" lon="7.495179958641529083251953125"><ele></ele><time>2020-9-19T6:49:30Z</time></trkpt>
<trkpt lat="46.279278583824634552001953125" lon="7.49522681348025798797607421875"><ele></ele><time>2020-9-19T6:49:33Z</time></trkpt>
<trkpt lat="46.2793079204857349395751953125" lon="7.49527777545154094696044921875"><ele></ele><time>2020-9-19T6:49:36Z</time></trkpt>
<trkpt lat="46.27933298237621784210205078125" lon="7.49532915651798248291015625"><ele></ele><time>2020-9-19T6:49:39Z</time></trkpt>
<trkpt lat="46.2793575413525104522705078125" lon="7.495379783213138580322265625"><ele></ele><time>2020-9-19T6:49:42Z</time></trkpt>
<trkpt lat="46.27938293851912021636962890625" lon="7.4954302422702312469482421875"><ele></ele><time>2020-9-19T6:49:45Z</time></trkpt>
<trkpt lat="46.2794096767902374267578125" lon="7.49548313207924365997314453125"><ele></ele><time>2020-9-19T6:49:48Z</time></trkpt>
<trkpt lat="46.27943758852779865264892578125" lon="7.49553577043116092681884765625"><ele></ele><time>2020-9-19T6:49:51Z</time></trkpt>
<trkpt lat="46.27959567122161388397216796875" lon="7.49579376541078090667724609375"><ele></ele><time>2020-9-19T6:49:54Z</time></trkpt>
<trkpt lat="46.27962760627269744873046875" lon="7.49584472738206386566162109375"><ele></ele><time>2020-9-19T6:49:57Z</time></trkpt>
<trkpt lat="46.27965853549540042877197265625" lon="7.49589552171528339385986328125"><ele></ele><time>2020-9-19T6:50:0Z</time></trkpt>
<trkpt lat="46.27968837507069110870361328125" lon="7.49594447202980518341064453125"><ele></ele><time>2020-9-19T6:50:3Z</time></trkpt>
<trkpt lat="46.279716454446315765380859375" lon="7.495993673801422119140625"><ele></ele><time>2020-9-19T6:50:6Z</time></trkpt>
<trkpt lat="46.2797424383461475372314453125" lon="7.4960434623062610626220703125"><ele></ele><time>2020-9-19T6:50:9Z</time></trkpt>
<trkpt lat="46.27976682968437671661376953125" lon="7.49609291553497314453125"><ele></ele><time>2020-9-19T6:50:12Z</time></trkpt>
<trkpt lat="46.27979113720357418060302734375" lon="7.49614111147820949554443359375"><ele></ele><time>2020-9-19T6:50:15Z</time></trkpt>
<trkpt lat="46.279815696179866790771484375" lon="7.49618805013597011566162109375"><ele></ele><time>2020-9-19T6:50:18Z</time></trkpt>
<trkpt lat="46.2798413448035717010498046875" lon="7.49623213894665241241455078125"><ele></ele><time>2020-9-19T6:50:21Z</time></trkpt>
<trkpt lat="46.27986791543662548065185546875" lon="7.4962741322815418243408203125"><ele></ele><time>2020-9-19T6:50:24Z</time></trkpt>
<trkpt lat="46.27989448606967926025390625" lon="7.49631394632160663604736328125"><ele></ele><time>2020-9-19T6:50:27Z</time></trkpt>
<trkpt lat="46.27992072142660617828369140625" lon="7.49635283835232257843017578125"><ele></ele><time>2020-9-19T6:50:30Z</time></trkpt>
<trkpt lat="46.27994720824062824249267578125" lon="7.496390305459499359130859375"><ele></ele><time>2020-9-19T6:50:33Z</time></trkpt>
<trkpt lat="46.2799744494259357452392578125" lon="7.49642618000507354736328125"><ele></ele><time>2020-9-19T6:50:36Z</time></trkpt>
<trkpt lat="46.28000152297317981719970703125" lon="7.4964608810842037200927734375"><ele></ele><time>2020-9-19T6:50:39Z</time></trkpt>
<trkpt lat="46.28002800978720188140869140625" lon="7.4964947439730167388916015625"><ele></ele><time>2020-9-19T6:50:42Z</time></trkpt>
<trkpt lat="46.2800542451441287994384765625" lon="7.49653003178536891937255859375"><ele></ele><time>2020-9-19T6:50:45Z</time></trkpt>
<trkpt lat="46.28008064813911914825439453125" lon="7.49656590633094310760498046875"><ele></ele><time>2020-9-19T6:50:48Z</time></trkpt>
<trkpt lat="46.28010772168636322021484375" lon="7.4966003559529781341552734375"><ele></ele><time>2020-9-19T6:50:51Z</time></trkpt>
<trkpt lat="46.28013630397617816925048828125" lon="7.49663212336599826812744140625"><ele></ele><time>2020-9-19T6:50:54Z</time></trkpt>
<trkpt lat="46.28016815520823001861572265625" lon="7.49666087329387664794921875"><ele></ele><time>2020-9-19T6:50:57Z</time></trkpt>
<trkpt lat="46.280201263725757598876953125" lon="7.496686689555644989013671875"><ele></ele><time>2020-9-19T6:51:0Z</time></trkpt>
<trkpt lat="46.28023403696715831756591796875" lon="7.496710158884525299072265625"><ele></ele><time>2020-9-19T6:51:3Z</time></trkpt>
<trkpt lat="46.28026739694178104400634765625" lon="7.49673186801373958587646484375"><ele></ele><time>2020-9-19T6:51:6Z</time></trkpt>
<trkpt lat="46.2803001701831817626953125" lon="7.49675299040973186492919921875"><ele></ele><time>2020-9-19T6:51:9Z</time></trkpt>
<trkpt lat="46.28033210523426532745361328125" lon="7.49677461571991443634033203125"><ele></ele><time>2020-9-19T6:51:12Z</time></trkpt>
<trkpt lat="46.280362866818904876708984375" lon="7.49679422937333583831787109375"><ele></ele><time>2020-9-19T6:51:15Z</time></trkpt>
<trkpt lat="46.280392371118068695068359375" lon="7.49681183136999607086181640625"><ele></ele><time>2020-9-19T6:51:18Z</time></trkpt>
<trkpt lat="46.28042195923626422882080078125" lon="7.4968263320624828338623046875"><ele></ele><time>2020-9-19T6:51:21Z</time></trkpt>
<trkpt lat="46.28045146353542804718017578125" lon="7.496840916574001312255859375"><ele></ele><time>2020-9-19T6:51:24Z</time></trkpt>
<trkpt lat="46.28048029728233814239501953125" lon="7.49686011113226413726806640625"><ele></ele><time>2020-9-19T6:51:27Z</time></trkpt>
<trkpt lat="46.28050795756280422210693359375" lon="7.4968828260898590087890625"><ele></ele><time>2020-9-19T6:51:30Z</time></trkpt>
<trkpt lat="46.28053293563425540924072265625" lon="7.49690671451389789581298828125"><ele></ele><time>2020-9-19T6:51:33Z</time></trkpt>
<trkpt lat="46.2805534712970256805419921875" lon="7.49693420715630054473876953125"><ele></ele><time>2020-9-19T6:51:36Z</time></trkpt>
<trkpt lat="46.28057065419852733612060546875" lon="7.49696773476898670196533203125"><ele></ele><time>2020-9-19T6:51:39Z</time></trkpt>
<trkpt lat="46.2805866636335849761962890625" lon="7.49700545333325862884521484375"><ele></ele><time>2020-9-19T6:51:42Z</time></trkpt>
<trkpt lat="46.2806030921638011932373046875" lon="7.49704551883041858673095703125"><ele></ele><time>2020-9-19T6:51:45Z</time></trkpt>
<trkpt lat="46.28062094561755657196044921875" lon="7.4970861710608005523681640625"><ele></ele><time>2020-9-19T6:51:48Z</time></trkpt>
<trkpt lat="46.2806408107280731201171875" lon="7.497126571834087371826171875"><ele></ele><time>2020-9-19T6:51:51Z</time></trkpt>
<trkpt lat="46.280662603676319122314453125" lon="7.49716621823608875274658203125"><ele></ele><time>2020-9-19T6:51:54Z</time></trkpt>
<trkpt lat="46.2806859053671360015869140625" lon="7.4972048588097095489501953125"><ele></ele><time>2020-9-19T6:51:57Z</time></trkpt>
<trkpt lat="46.280710883438587188720703125" lon="7.49724249355494976043701171875"><ele></ele><time>2020-9-19T6:52:0Z</time></trkpt>
<trkpt lat="46.28073644824326038360595703125" lon="7.49727920629084110260009765625"><ele></ele><time>2020-9-19T6:52:3Z</time></trkpt>
<trkpt lat="46.2807626836001873016357421875" lon="7.4973158352077007293701171875"><ele></ele><time>2020-9-19T6:52:6Z</time></trkpt>
<trkpt lat="46.28078900277614593505859375" lon="7.49735229648649692535400390625"><ele></ele><time>2020-9-19T6:52:9Z</time></trkpt>
<trkpt lat="46.28081448376178741455078125" lon="7.4973892606794834136962890625"><ele></ele><time>2020-9-19T6:52:12Z</time></trkpt>
<trkpt lat="46.28083921037614345550537109375" lon="7.49742706306278705596923828125"><ele></ele><time>2020-9-19T6:52:15Z</time></trkpt>
<trkpt lat="46.28086418844759464263916015625" lon="7.49746427871286869049072265625"><ele></ele><time>2020-9-19T6:52:18Z</time></trkpt>
<trkpt lat="46.280889250338077545166015625" lon="7.49750048853456974029541015625"><ele></ele><time>2020-9-19T6:52:21Z</time></trkpt>
<trkpt lat="46.28091464750468730926513671875" lon="7.49753586016595363616943359375"><ele></ele><time>2020-9-19T6:52:24Z</time></trkpt>
<trkpt lat="46.2809393741190433502197265625" lon="7.4975719861686229705810546875"><ele></ele><time>2020-9-19T6:52:27Z</time></trkpt>
<trkpt lat="46.280963011085987091064453125" lon="7.49760844744741916656494140625"><ele></ele><time>2020-9-19T6:52:30Z</time></trkpt>
<trkpt lat="46.28098606131970882415771484375" lon="7.49764524400234222412109375"><ele></ele><time>2020-9-19T6:52:33Z</time></trkpt>
<trkpt lat="46.28100919537246227264404296875" lon="7.49768170528113842010498046875"><ele></ele><time>2020-9-19T6:52:36Z</time></trkpt>
<trkpt lat="46.28103216178715229034423828125" lon="7.49771858565509319305419921875"><ele></ele><time>2020-9-19T6:52:39Z</time></trkpt>
<trkpt lat="46.28105479292571544647216796875" lon="7.49775714240968227386474609375"><ele></ele><time>2020-9-19T6:52:42Z</time></trkpt>
<trkpt lat="46.2810785137116909027099609375" lon="7.4977969564497470855712890625"><ele></ele><time>2020-9-19T6:52:45Z</time></trkpt>
<trkpt lat="46.281102485954761505126953125" lon="7.4978395365178585052490234375"><ele></ele><time>2020-9-19T6:52:48Z</time></trkpt>
<trkpt lat="46.28112553618848323822021484375" lon="7.49788655899465084075927734375"><ele></ele><time>2020-9-19T6:52:51Z</time></trkpt>
<trkpt lat="46.28116945736110210418701171875" lon="7.49799384735524654388427734375"><ele></ele><time>2020-9-19T6:52:54Z</time></trkpt>
<trkpt lat="46.28119259141385555267333984375" lon="7.498053945600986480712890625"><ele></ele><time>2020-9-19T6:52:57Z</time></trkpt>
<trkpt lat="46.28127758391201496124267578125" lon="7.49826106242835521697998046875"><ele></ele><time>2020-9-19T6:53:0Z</time></trkpt>
<trkpt lat="46.28131362609565258026123046875" lon="7.49833633191883563995361328125"><ele></ele><time>2020-9-19T6:53:3Z</time></trkpt>
<trkpt lat="46.2814727984368801116943359375" lon="7.4986368231475353240966796875"><ele></ele><time>2020-9-19T6:53:6Z</time></trkpt>
<trkpt lat="46.28155485726892948150634765625" lon="7.4987925589084625244140625"><ele></ele><time>2020-9-19T6:53:9Z</time></trkpt>
<trkpt lat="46.28164596855640411376953125" lon="7.49895826913416385650634765625"><ele></ele><time>2020-9-19T6:53:12Z</time></trkpt>
<trkpt lat="46.28169416449964046478271484375" lon="7.49904275871813297271728515625"><ele></ele><time>2020-9-19T6:53:15Z</time></trkpt>
<trkpt lat="46.281744204461574554443359375" lon="7.49912657774984836578369140625"><ele></ele><time>2020-9-19T6:53:18Z</time></trkpt>
<trkpt lat="46.28179290331900119781494140625" lon="7.4992151744663715362548828125"><ele></ele><time>2020-9-19T6:53:21Z</time></trkpt>
<trkpt lat="46.28193237818777561187744140625" lon="7.49950560741126537322998046875"><ele></ele><time>2020-9-19T6:53:24Z</time></trkpt>
<trkpt lat="46.282034553587436676025390625" lon="7.49969135038554668426513671875"><ele></ele><time>2020-9-19T6:53:27Z</time></trkpt>
<trkpt lat="46.28209381364285945892333984375" lon="7.49977198429405689239501953125"><ele></ele><time>2020-9-19T6:53:30Z</time></trkpt>
<trkpt lat="46.28216095268726348876953125" lon="7.4998424760997295379638671875"><ele></ele><time>2020-9-19T6:53:33Z</time></trkpt>
<trkpt lat="46.28223337233066558837890625" lon="7.4999038316309452056884765625"><ele></ele><time>2020-9-19T6:53:36Z</time></trkpt>
<trkpt lat="46.282305456697940826416015625" lon="7.49995856545865535736083984375"><ele></ele><time>2020-9-19T6:53:39Z</time></trkpt>
<trkpt lat="46.2823743559420108795166015625" lon="7.50000835396349430084228515625"><ele></ele><time>2020-9-19T6:53:42Z</time></trkpt>
<trkpt lat="46.2824434228241443634033203125" lon="7.50005277805030345916748046875"><ele></ele><time>2020-9-19T6:53:45Z</time></trkpt>
<trkpt lat="46.2825128249824047088623046875" lon="7.50008764676749706268310546875"><ele></ele><time>2020-9-19T6:53:48Z</time></trkpt>
<trkpt lat="46.282651461660861968994140625" lon="7.50016157515347003936767578125"><ele></ele><time>2020-9-19T6:53:51Z</time></trkpt>
<trkpt lat="46.2827086262404918670654296875" lon="7.50022209249436855316162109375"><ele></ele><time>2020-9-19T6:53:54Z</time></trkpt>
<trkpt lat="46.2827624380588531494140625" lon="7.50028378330171108245849609375"><ele></ele><time>2020-9-19T6:53:57Z</time></trkpt>
<trkpt lat="46.28281834535300731658935546875" lon="7.500339187681674957275390625"><ele></ele><time>2020-9-19T6:54:0Z</time></trkpt>
<trkpt lat="46.28287584520876407623291015625" lon="7.50039325095713138580322265625"><ele></ele><time>2020-9-19T6:54:3Z</time></trkpt>
<trkpt lat="46.2830003164708614349365234375" lon="7.5005066581070423126220703125"><ele></ele><time>2020-9-19T6:54:6Z</time></trkpt>
<trkpt lat="46.28305689431726932525634765625" lon="7.50058603473007678985595703125"><ele></ele><time>2020-9-19T6:54:9Z</time></trkpt>
<trkpt lat="46.28310198895633220672607421875" lon="7.50068343244493007659912109375"><ele></ele><time>2020-9-19T6:54:12Z</time></trkpt>
<trkpt lat="46.2831270508468151092529296875" lon="7.500791810452938079833984375"><ele></ele><time>2020-9-19T6:54:15Z</time></trkpt>
<trkpt lat="46.28314473666250705718994140625" lon="7.50089951790869235992431640625"><ele></ele><time>2020-9-19T6:54:18Z</time></trkpt>
<trkpt lat="46.28316736780107021331787109375" lon="7.50100127421319484710693359375"><ele></ele><time>2020-9-19T6:54:21Z</time></trkpt>
<trkpt lat="46.2832008115947246551513671875" lon="7.50109984539449214935302734375"><ele></ele><time>2020-9-19T6:54:24Z</time></trkpt>
<trkpt lat="46.28324096091091632843017578125" lon="7.50118978321552276611328125"><ele></ele><time>2020-9-19T6:54:27Z</time></trkpt>
<trkpt lat="46.28328488208353519439697265625" lon="7.50127200968563556671142578125"><ele></ele><time>2020-9-19T6:54:30Z</time></trkpt>
<trkpt lat="46.283332407474517822265625" lon="7.5013418309390544891357421875"><ele></ele><time>2020-9-19T6:54:33Z</time></trkpt>
<trkpt lat="46.283381022512912750244140625" lon="7.5013998337090015411376953125"><ele></ele><time>2020-9-19T6:54:36Z</time></trkpt>
<trkpt lat="46.2834284640848636627197265625" lon="7.5014484487473964691162109375"><ele></ele><time>2020-9-19T6:54:39Z</time></trkpt>
<trkpt lat="46.283471547067165374755859375" lon="7.50149555504322052001953125"><ele></ele><time>2020-9-19T6:54:42Z</time></trkpt>
<trkpt lat="46.283507086336612701416015625" lon="7.501547522842884063720703125"><ele></ele><time>2020-9-19T6:54:45Z</time></trkpt>
<trkpt lat="46.2835380993783473968505859375" lon="7.50160359777510166168212890625"><ele></ele><time>2020-9-19T6:54:48Z</time></trkpt>
<trkpt lat="46.283566765487194061279296875" lon="7.50166193582117557525634765625"><ele></ele><time>2020-9-19T6:54:51Z</time></trkpt>
<trkpt lat="46.2835957668721675872802734375" lon="7.501722872257232666015625"><ele></ele><time>2020-9-19T6:54:54Z</time></trkpt>
<trkpt lat="46.28362585790455341339111328125" lon="7.50178632326424121856689453125"><ele></ele><time>2020-9-19T6:54:57Z</time></trkpt>
<trkpt lat="46.2836557812988758087158203125" lon="7.50185689888894557952880859375"><ele></ele><time>2020-9-19T6:55:0Z</time></trkpt>
<trkpt lat="46.2836765684187412261962890625" lon="7.501937784254550933837890625"><ele></ele><time>2020-9-19T6:55:3Z</time></trkpt>
<trkpt lat="46.28368603996932506561279296875" lon="7.50202470459043979644775390625"><ele></ele><time>2020-9-19T6:55:6Z</time></trkpt>
<trkpt lat="46.28368956036865711212158203125" lon="7.502110786736011505126953125"><ele></ele><time>2020-9-19T6:55:9Z</time></trkpt>
<trkpt lat="46.28369391895830631256103515625" lon="7.502195276319980621337890625"><ele></ele><time>2020-9-19T6:55:12Z</time></trkpt>
<trkpt lat="46.2837007082998752593994140625" lon="7.50227733515202999114990234375"><ele></ele><time>2020-9-19T6:55:15Z</time></trkpt>
<trkpt lat="46.28371017985045909881591796875" lon="7.50235511921346187591552734375"><ele></ele><time>2020-9-19T6:55:18Z</time></trkpt>
<trkpt lat="46.28371939994394779205322265625" lon="7.50242854468524456024169921875"><ele></ele><time>2020-9-19T6:55:21Z</time></trkpt>
<trkpt lat="46.28373146988451480865478515625" lon="7.50249375589191913604736328125"><ele></ele><time>2020-9-19T6:55:24Z</time></trkpt>
<trkpt lat="46.283755190670490264892578125" lon="7.5025448016822338104248046875"><ele></ele><time>2020-9-19T6:55:27Z</time></trkpt>
<trkpt lat="46.28378259949386119842529296875" lon="7.50257112085819244384765625"><ele></ele><time>2020-9-19T6:55:30Z</time></trkpt>
<trkpt lat="46.28380673937499523162841796875" lon="7.50257807783782482147216796875"><ele></ele><time>2020-9-19T6:55:33Z</time></trkpt>
<trkpt lat="46.28382769413292407989501953125" lon="7.50257506035268306732177734375"><ele></ele><time>2020-9-19T6:55:36Z</time></trkpt>
<trkpt lat="46.28384714014828205108642578125" lon="7.50256986357271671295166015625"><ele></ele><time>2020-9-19T6:55:39Z</time></trkpt>
<trkpt lat="46.2838683463633060455322265625" lon="7.50256567262113094329833984375"><ele></ele><time>2020-9-19T6:55:42Z</time></trkpt>
<trkpt lat="46.2838874571025371551513671875" lon="7.50256014056503772735595703125"><ele></ele><time>2020-9-19T6:55:45Z</time></trkpt>
<trkpt lat="46.28390329889953136444091796875" lon="7.5025558657944202423095703125"><ele></ele><time>2020-9-19T6:55:48Z</time></trkpt>
<trkpt lat="46.283920146524906158447265625" lon="7.5025531835854053497314453125"><ele></ele><time>2020-9-19T6:55:51Z</time></trkpt>
<trkpt lat="46.28393716178834438323974609375" lon="7.5025464780628681182861328125"><ele></ele><time>2020-9-19T6:55:54Z</time></trkpt>
<trkpt lat="46.28395711071789264678955078125" lon="7.50253918580710887908935546875"><ele></ele><time>2020-9-19T6:55:57Z</time></trkpt>
<trkpt lat="46.28397622145712375640869140625" lon="7.50253164209425449371337890625"><ele></ele><time>2020-9-19T6:56:0Z</time></trkpt>
<trkpt lat="46.28399281762540340423583984375" lon="7.50252309255301952362060546875"><ele></ele><time>2020-9-19T6:56:3Z</time></trkpt>
<trkpt lat="46.28400689922273159027099609375" lon="7.5025142915546894073486328125"><ele></ele><time>2020-9-19T6:56:6Z</time></trkpt>
<trkpt lat="46.28402148373425006866455078125" lon="7.50250406563282012939453125"><ele></ele><time>2020-9-19T6:56:9Z</time></trkpt>
<trkpt lat="46.2840306200087070465087890625" lon="7.50249979086220264434814453125"><ele></ele><time>2020-9-19T6:56:12Z</time></trkpt>
<trkpt lat="46.284048892557621002197265625" lon="7.50249660573899745941162109375"><ele></ele><time>2020-9-19T6:56:15Z</time></trkpt>
<trkpt lat="46.284066326916217803955078125" lon="7.50249342061579227447509765625"><ele></ele><time>2020-9-19T6:56:18Z</time></trkpt>
<trkpt lat="46.28408350981771945953369140625" lon="7.502490319311618804931640625"><ele></ele><time>2020-9-19T6:56:21Z</time></trkpt>
<trkpt lat="46.28410111181437969207763671875" lon="7.50247967429459095001220703125"><ele></ele><time>2020-9-19T6:56:24Z</time></trkpt>
<trkpt lat="46.28411569632589817047119140625" lon="7.50246827490627765655517578125"><ele></ele><time>2020-9-19T6:56:27Z</time></trkpt>
<trkpt lat="46.2841275148093700408935546875" lon="7.5024586357176303863525390625"><ele></ele><time>2020-9-19T6:56:30Z</time></trkpt>
<trkpt lat="46.2841389141976833343505859375" lon="7.50244866125285625457763671875"><ele></ele><time>2020-9-19T6:56:33Z</time></trkpt>
<trkpt lat="46.28415140323340892791748046875" lon="7.50243910588324069976806640625"><ele></ele><time>2020-9-19T6:56:36Z</time></trkpt>
<trkpt lat="46.28416456282138824462890625" lon="7.502429969608783721923828125"><ele></ele><time>2020-9-19T6:56:39Z</time></trkpt>
<trkpt lat="46.28417805768549442291259765625" lon="7.502422593533992767333984375"><ele></ele><time>2020-9-19T6:56:42Z</time></trkpt>
<trkpt lat="46.284190379083156585693359375" lon="7.50241144560277462005615234375"><ele></ele><time>2020-9-19T6:56:45Z</time></trkpt>
<trkpt lat="46.284201107919216156005859375" lon="7.5023945979773998260498046875"><ele></ele><time>2020-9-19T6:56:48Z</time></trkpt>
<trkpt lat="46.284210495650768280029296875" lon="7.50237557105720043182373046875"><ele></ele><time>2020-9-19T6:56:51Z</time></trkpt>
<trkpt lat="46.2842183746397495269775390625" lon="7.50235528685152530670166015625"><ele></ele><time>2020-9-19T6:56:54Z</time></trkpt>
<trkpt lat="46.28422558307647705078125" lon="7.5023349188268184661865234375"><ele></ele><time>2020-9-19T6:56:57Z</time></trkpt>
<trkpt lat="46.2842324562370777130126953125" lon="7.502311952412128448486328125"><ele></ele><time>2020-9-19T6:57:0Z</time></trkpt>
<trkpt lat="46.2842368148267269134521484375" lon="7.50228605233132839202880859375"><ele></ele><time>2020-9-19T6:57:3Z</time></trkpt>
<trkpt lat="46.2842394970357418060302734375" lon="7.5022606551647186279296875"><ele></ele><time>2020-9-19T6:57:6Z</time></trkpt>
<trkpt lat="46.28424167633056640625" lon="7.50223542563617229461669921875"><ele></ele><time>2020-9-19T6:57:9Z</time></trkpt>
<trkpt lat="46.28423924557864665985107421875" lon="7.50220902264118194580078125"><ele></ele><time>2020-9-19T6:57:12Z</time></trkpt>
<trkpt lat="46.28423656336963176727294921875" lon="7.502182535827159881591796875"><ele></ele><time>2020-9-19T6:57:15Z</time></trkpt>
<trkpt lat="46.284234635531902313232421875" lon="7.502156384289264678955078125"><ele></ele><time>2020-9-19T6:57:18Z</time></trkpt>
<trkpt lat="46.2842322885990142822265625" lon="7.50212855637073516845703125"><ele></ele><time>2020-9-19T6:57:21Z</time></trkpt>
<trkpt lat="46.2842280976474285125732421875" lon="7.50210265628993511199951171875"><ele></ele><time>2020-9-19T6:57:24Z</time></trkpt>
<trkpt lat="46.28422801382839679718017578125" lon="7.50207684002816677093505859375"><ele></ele><time>2020-9-19T6:57:27Z</time></trkpt>
<trkpt lat="46.2842349708080291748046875" lon="7.50205672346055507659912109375"><ele></ele><time>2020-9-19T6:57:30Z</time></trkpt>
<trkpt lat="46.2842468731105327606201171875" lon="7.5020469166338443756103515625"><ele></ele><time>2020-9-19T6:57:33Z</time></trkpt>
<trkpt lat="46.28425952978432178497314453125" lon="7.50205068849027156829833984375"><ele></ele><time>2020-9-19T6:57:36Z</time></trkpt>
<trkpt lat="46.28427109681069850921630859375" lon="7.5020723976194858551025390625"><ele></ele><time>2020-9-19T6:57:39Z</time></trkpt>
<trkpt lat="46.28428182564675807952880859375" lon="7.50210248865187168121337890625"><ele></ele><time>2020-9-19T6:57:42Z</time></trkpt>
<trkpt lat="46.28429071046411991119384765625" lon="7.50213735736906528472900390625"><ele></ele><time>2020-9-19T6:57:45Z</time></trkpt>
<trkpt lat="46.28430060110986232757568359375" lon="7.50217490829527378082275390625"><ele></ele><time>2020-9-19T6:57:48Z</time></trkpt>
<trkpt lat="46.28431619144976139068603515625" lon="7.50221706926822662353515625"><ele></ele><time>2020-9-19T6:57:51Z</time></trkpt>
<trkpt lat="46.2843293510377407073974609375" lon="7.5022658519446849822998046875"><ele></ele><time>2020-9-19T6:57:54Z</time></trkpt>
<trkpt lat="46.284339241683483123779296875" lon="7.50231974758207798004150390625"><ele></ele><time>2020-9-19T6:57:57Z</time></trkpt>
<trkpt lat="46.284351982176303863525390625" lon="7.50237506814301013946533203125"><ele></ele><time>2020-9-19T6:58:0Z</time></trkpt>
<trkpt lat="46.28437377512454986572265625" lon="7.50242619775235652923583984375"><ele></ele><time>2020-9-19T6:58:3Z</time></trkpt>
<trkpt lat="46.28441895358264446258544921875" lon="7.5025334022939205169677734375"><ele></ele><time>2020-9-19T6:58:6Z</time></trkpt>
<trkpt lat="46.28442482091486454010009765625" lon="7.50259869731962680816650390625"><ele></ele><time>2020-9-19T6:58:9Z</time></trkpt>
<trkpt lat="46.28440906293690204620361328125" lon="7.502659298479557037353515625"><ele></ele><time>2020-9-19T6:58:12Z</time></trkpt>
<trkpt lat="46.284383498132228851318359375" lon="7.50271570868790149688720703125"><ele></ele><time>2020-9-19T6:58:15Z</time></trkpt>
<trkpt lat="46.28435407765209674835205078125" lon="7.5027664192020893096923828125"><ele></ele><time>2020-9-19T6:58:18Z</time></trkpt>
<trkpt lat="46.2843246571719646453857421875" lon="7.50281696207821369171142578125"><ele></ele><time>2020-9-19T6:58:21Z</time></trkpt>
<trkpt lat="46.28430043347179889678955078125" lon="7.5028716959059238433837890625"><ele></ele><time>2020-9-19T6:58:24Z</time></trkpt>
<trkpt lat="46.28428098745644092559814453125" lon="7.5029310397803783416748046875"><ele></ele><time>2020-9-19T6:58:27Z</time></trkpt>
<trkpt lat="46.28426623530685901641845703125" lon="7.50299214385449886322021484375"><ele></ele><time>2020-9-19T6:58:30Z</time></trkpt>
<trkpt lat="46.28425852395594120025634765625" lon="7.50305232591927051544189453125"><ele></ele><time>2020-9-19T6:58:33Z</time></trkpt>
<trkpt lat="46.284257434308528900146484375" lon="7.50310999341309070587158203125"><ele></ele><time>2020-9-19T6:58:36Z</time></trkpt>
<trkpt lat="46.284258104860782623291015625" lon="7.503164224326610565185546875"><ele></ele><time>2020-9-19T6:58:39Z</time></trkpt>
<trkpt lat="46.2842616252601146697998046875" lon="7.503211833536624908447265625"><ele></ele><time>2020-9-19T6:58:42Z</time></trkpt>
<trkpt lat="46.2842686660587787628173828125" lon="7.5032495521008968353271484375"><ele></ele><time>2020-9-19T6:58:45Z</time></trkpt>
<trkpt lat="46.284277550876140594482421875" lon="7.5032773800194263458251953125"><ele></ele><time>2020-9-19T6:58:48Z</time></trkpt>
<trkpt lat="46.28428853116929531097412109375" lon="7.50330043025314807891845703125"><ele></ele><time>2020-9-19T6:58:51Z</time></trkpt>
<trkpt lat="46.2842993438243865966796875" lon="7.5033246539533138275146484375"><ele></ele><time>2020-9-19T6:58:54Z</time></trkpt>
<trkpt lat="46.28431082703173160552978515625" lon="7.50334904529154300689697265625"><ele></ele><time>2020-9-19T6:58:57Z</time></trkpt>
<trkpt lat="46.2843253277242183685302734375" lon="7.50337653793394565582275390625"><ele></ele><time>2020-9-19T6:59:0Z</time></trkpt>
<trkpt lat="46.2843434326350688934326171875" lon="7.503406964242458343505859375"><ele></ele><time>2020-9-19T6:59:3Z</time></trkpt>
<trkpt lat="46.2843638844788074493408203125" lon="7.50343806110322475433349609375"><ele></ele><time>2020-9-19T6:59:6Z</time></trkpt>
<trkpt lat="46.28438810817897319793701171875" lon="7.5034684874117374420166015625"><ele></ele><time>2020-9-19T6:59:9Z</time></trkpt>
<trkpt lat="46.28441342152655124664306640625" lon="7.50350126065313816070556640625"><ele></ele><time>2020-9-19T6:59:12Z</time></trkpt>
<trkpt lat="46.284439824521541595458984375" lon="7.503535039722919464111328125"><ele></ele><time>2020-9-19T6:59:15Z</time></trkpt>
<trkpt lat="46.28446790389716625213623046875" lon="7.5035697408020496368408203125"><ele></ele><time>2020-9-19T6:59:18Z</time></trkpt>
<trkpt lat="46.2844976596534252166748046875" lon="7.50360586680471897125244140625"><ele></ele><time>2020-9-19T6:59:21Z</time></trkpt>
<trkpt lat="46.2845273315906524658203125" lon="7.503642328083515167236328125"><ele></ele><time>2020-9-19T6:59:24Z</time></trkpt>
<trkpt lat="46.28455658443272113800048828125" lon="7.50367820262908935546875"><ele></ele><time>2020-9-19T6:59:27Z</time></trkpt>
<trkpt lat="46.2847963906824588775634765625" lon="7.5039449147880077362060546875"><ele></ele><time>2020-9-19T6:59:30Z</time></trkpt>
<trkpt lat="46.2850262224674224853515625" lon="7.50416175462305545806884765625"><ele></ele><time>2020-9-19T6:59:33Z</time></trkpt>
<trkpt lat="46.28506846725940704345703125" lon="7.5041836313903331756591796875"><ele></ele><time>2020-9-19T6:59:36Z</time></trkpt>
<trkpt lat="46.2851120531558990478515625" lon="7.504194192588329315185546875"><ele></ele><time>2020-9-19T6:59:39Z</time></trkpt>
<trkpt lat="46.28515454940497875213623046875" lon="7.50419519841670989990234375"><ele></ele><time>2020-9-19T6:59:42Z</time></trkpt>
<trkpt lat="46.28519511781632900238037109375" lon="7.5041896663606166839599609375"><ele></ele><time>2020-9-19T6:59:45Z</time></trkpt>
<trkpt lat="46.28523300401866436004638671875" lon="7.50417784787714481353759765625"><ele></ele><time>2020-9-19T6:59:48Z</time></trkpt>
<trkpt lat="46.28526753745973110198974609375" lon="7.50415764749050140380859375"><ele></ele><time>2020-9-19T6:59:51Z</time></trkpt>
<trkpt lat="46.28529955632984638214111328125" lon="7.504129149019718170166015625"><ele></ele><time>2020-9-19T6:59:54Z</time></trkpt>
<trkpt lat="46.2853274680674076080322265625" lon="7.504094280302524566650390625"><ele></ele><time>2020-9-19T6:59:57Z</time></trkpt>
<trkpt lat="46.28535144031047821044921875" lon="7.5040552206337451934814453125"><ele></ele><time>2020-9-19T7:0:0Z</time></trkpt>
<trkpt lat="46.2853720597922801971435546875" lon="7.5040123052895069122314453125"><ele></ele><time>2020-9-19T7:0:3Z</time></trkpt>
<trkpt lat="46.28539108671247959136962890625" lon="7.5039673782885074615478515625"><ele></ele><time>2020-9-19T7:0:6Z</time></trkpt>
<trkpt lat="46.2854099459946155548095703125" lon="7.50392270274460315704345703125"><ele></ele><time>2020-9-19T7:0:9Z</time></trkpt>
<trkpt lat="46.28543014638125896453857421875" lon="7.503877021372318267822265625"><ele></ele><time>2020-9-19T7:0:12Z</time></trkpt>
<trkpt lat="46.2854535318911075592041015625" lon="7.50383234582841396331787109375"><ele></ele><time>2020-9-19T7:0:15Z</time></trkpt>
<trkpt lat="46.28547993488609790802001953125" lon="7.50379261560738086700439453125"><ele></ele><time>2020-9-19T7:0:18Z</time></trkpt>
<trkpt lat="46.2855098582804203033447265625" lon="7.50376210547983646392822265625"><ele></ele><time>2020-9-19T7:0:21Z</time></trkpt>
<trkpt lat="46.2855413742363452911376953125" lon="7.50374383293092250823974609375"><ele></ele><time>2020-9-19T7:0:24Z</time></trkpt>
<trkpt lat="46.28557196818292140960693359375" lon="7.50374215655028820037841796875"><ele></ele><time>2020-9-19T7:0:27Z</time></trkpt>
<trkpt lat="46.28560113720595836639404296875" lon="7.50375506468117237091064453125"><ele></ele><time>2020-9-19T7:0:30Z</time></trkpt>
<trkpt lat="46.28562544472515583038330078125" lon="7.5037749297916889190673828125"><ele></ele><time>2020-9-19T7:0:33Z</time></trkpt>
<trkpt lat="46.28564941696822643280029296875" lon="7.50379898585379123687744140625"><ele></ele><time>2020-9-19T7:0:36Z</time></trkpt>
<trkpt lat="46.28566928207874298095703125" lon="7.5038262270390987396240234375"><ele></ele><time>2020-9-19T7:0:39Z</time></trkpt>
<trkpt lat="46.28568797372281551361083984375" lon="7.5038580782711505889892578125"><ele></ele><time>2020-9-19T7:0:42Z</time></trkpt>
<trkpt lat="46.285707168281078338623046875" lon="7.5038902647793292999267578125"><ele></ele><time>2020-9-19T7:0:45Z</time></trkpt>
<trkpt lat="46.2857284583151340484619140625" lon="7.5039221160113811492919921875"><ele></ele><time>2020-9-19T7:0:48Z</time></trkpt>
<trkpt lat="46.2857529334723949432373046875" lon="7.5039536319673061370849609375"><ele></ele><time>2020-9-19T7:0:51Z</time></trkpt>
<trkpt lat="46.28577866591513156890869140625" lon="7.5039854831993579864501953125"><ele></ele><time>2020-9-19T7:0:54Z</time></trkpt>
<trkpt lat="46.28580397926270961761474609375" lon="7.50401725061237812042236328125"><ele></ele><time>2020-9-19T7:0:57Z</time></trkpt>
<trkpt lat="46.285828538239002227783203125" lon="7.50404910184442996978759765625"><ele></ele><time>2020-9-19T7:1:0Z</time></trkpt>
<trkpt lat="46.28585058264434337615966796875" lon="7.504083551466464996337890625"><ele></ele><time>2020-9-19T7:1:3Z</time></trkpt>
<trkpt lat="46.28587002865970134735107421875" lon="7.5041192583739757537841796875"><ele></ele><time>2020-9-19T7:1:6Z</time></trkpt>
<trkpt lat="46.2858873791992664337158203125" lon="7.50415722839534282684326171875"><ele></ele><time>2020-9-19T7:1:9Z</time></trkpt>
<trkpt lat="46.28590263426303863525390625" lon="7.50419578514993190765380859375"><ele></ele><time>2020-9-19T7:1:12Z</time></trkpt>
<trkpt lat="46.28591696731746196746826171875" lon="7.5042347609996795654296875"><ele></ele><time>2020-9-19T7:1:15Z</time></trkpt>
<trkpt lat="46.28593155182898044586181640625" lon="7.50427407212555408477783203125"><ele></ele><time>2020-9-19T7:1:18Z</time></trkpt>
<trkpt lat="46.28594663925468921661376953125" lon="7.504313886165618896484375"><ele></ele><time>2020-9-19T7:1:21Z</time></trkpt>
<trkpt lat="46.2859621457755565643310546875" lon="7.5043542869389057159423828125"><ele></ele><time>2020-9-19T7:1:24Z</time></trkpt>
<trkpt lat="46.28597932867705821990966796875" lon="7.50439393334090709686279296875"><ele></ele><time>2020-9-19T7:1:27Z</time></trkpt>
<trkpt lat="46.28599827177822589874267578125" lon="7.50443215481936931610107421875"><ele></ele><time>2020-9-19T7:1:30Z</time></trkpt>
<trkpt lat="46.28601838834583759307861328125" lon="7.50447004102170467376708984375"><ele></ele><time>2020-9-19T7:1:33Z</time></trkpt>
<trkpt lat="46.28603875637054443359375" lon="7.50450759194791316986083984375"><ele></ele><time>2020-9-19T7:1:36Z</time></trkpt>
<trkpt lat="46.286059208214282989501953125" lon="7.5045450590550899505615234375"><ele></ele><time>2020-9-19T7:1:39Z</time></trkpt>
<trkpt lat="46.286079324781894683837890625" lon="7.504582442343235015869140625"><ele></ele><time>2020-9-19T7:1:42Z</time></trkpt>
<trkpt lat="46.28610019572079181671142578125" lon="7.504619322717189788818359375"><ele></ele><time>2020-9-19T7:1:45Z</time></trkpt>
<trkpt lat="46.28612131811678409576416015625" lon="7.5046567060053348541259765625"><ele></ele><time>2020-9-19T7:1:48Z</time></trkpt>
<trkpt lat="46.2861421890556812286376953125" lon="7.5046939216554164886474609375"><ele></ele><time>2020-9-19T7:1:51Z</time></trkpt>
<trkpt lat="46.28616423346102237701416015625" lon="7.5047308020293712615966796875"><ele></ele><time>2020-9-19T7:1:54Z</time></trkpt>
<trkpt lat="46.28618485294282436370849609375" lon="7.50476726330816745758056640625"><ele></ele><time>2020-9-19T7:1:57Z</time></trkpt>
<trkpt lat="46.2862055562436580657958984375" lon="7.50480297021567821502685546875"><ele></ele><time>2020-9-19T7:2:0Z</time></trkpt>
<trkpt lat="46.28622575663030147552490234375" lon="7.50483918003737926483154296875"><ele></ele><time>2020-9-19T7:2:3Z</time></trkpt>
<trkpt lat="46.2862461246550083160400390625" lon="7.50487555749714374542236328125"><ele></ele><time>2020-9-19T7:2:6Z</time></trkpt>
<trkpt lat="46.28626632504165172576904296875" lon="7.50491176731884479522705078125"><ele></ele><time>2020-9-19T7:2:9Z</time></trkpt>
<trkpt lat="46.28628577105700969696044921875" lon="7.50494831241667270660400390625"><ele></ele><time>2020-9-19T7:2:12Z</time></trkpt>
<trkpt lat="46.28630630671977996826171875" lon="7.504984438419342041015625"><ele></ele><time>2020-9-19T7:2:15Z</time></trkpt>
<trkpt lat="46.28632734529674053192138671875" lon="7.5050204806029796600341796875"><ele></ele><time>2020-9-19T7:2:18Z</time></trkpt>
<trkpt lat="46.28634863533079624176025390625" lon="7.505055852234363555908203125"><ele></ele><time>2020-9-19T7:2:21Z</time></trkpt>
<trkpt lat="46.28637067973613739013671875" lon="7.50509097240865230560302734375"><ele></ele><time>2020-9-19T7:2:24Z</time></trkpt>
<trkpt lat="46.286393143236637115478515625" lon="7.5051254220306873321533203125"><ele></ele><time>2020-9-19T7:2:27Z</time></trkpt>
<trkpt lat="46.286415942013263702392578125" lon="7.505160458385944366455078125"><ele></ele><time>2020-9-19T7:2:30Z</time></trkpt>
<trkpt lat="46.28643815405666828155517578125" lon="7.5051963329315185546875"><ele></ele><time>2020-9-19T7:2:33Z</time></trkpt>
<trkpt lat="46.28646145574748516082763671875" lon="7.505233548581600189208984375"><ele></ele><time>2020-9-19T7:2:36Z</time></trkpt>
<trkpt lat="46.28648358397185802459716796875" lon="7.50527386553585529327392578125"><ele></ele><time>2020-9-19T7:2:39Z</time></trkpt>
<trkpt lat="46.28650286234915256500244140625" lon="7.5053188763558864593505859375"><ele></ele><time>2020-9-19T7:2:42Z</time></trkpt>
<trkpt lat="46.2865596078336238861083984375" lon="7.50552196986973285675048828125"><ele></ele><time>2020-9-19T7:2:45Z</time></trkpt>
<trkpt lat="46.2865716777741909027099609375" lon="7.50557142309844493865966796875"><ele></ele><time>2020-9-19T7:2:48Z</time></trkpt>
<trkpt lat="46.2865847535431385040283203125" lon="7.50561903230845928192138671875"><ele></ele><time>2020-9-19T7:2:51Z</time></trkpt>
<trkpt lat="46.28660143353044986724853515625" lon="7.50566513277590274810791015625"><ele></ele><time>2020-9-19T7:2:54Z</time></trkpt>
<trkpt lat="46.2866212986409664154052734375" lon="7.50571073032915592193603515625"><ele></ele><time>2020-9-19T7:2:57Z</time></trkpt>
<trkpt lat="46.2866430915892124176025390625" lon="7.5057567469775676727294921875"><ele></ele><time>2020-9-19T7:3:0Z</time></trkpt>
<trkpt lat="46.2866648845374584197998046875" lon="7.5058026798069477081298828125"><ele></ele><time>2020-9-19T7:3:3Z</time></trkpt>
<trkpt lat="46.2866876833140850067138671875" lon="7.50584819354116916656494140625"><ele></ele><time>2020-9-19T7:3:6Z</time></trkpt>
<trkpt lat="46.286711655557155609130859375" lon="7.50589362345635890960693359375"><ele></ele><time>2020-9-19T7:3:9Z</time></trkpt>
<trkpt lat="46.28673654980957508087158203125" lon="7.5059374608099460601806640625"><ele></ele><time>2020-9-19T7:3:12Z</time></trkpt>
<trkpt lat="46.2867614440619945526123046875" lon="7.50598012469708919525146484375"><ele></ele><time>2020-9-19T7:3:15Z</time></trkpt>
<trkpt lat="46.28678566776216030120849609375" lon="7.50602337531745433807373046875"><ele></ele><time>2020-9-19T7:3:18Z</time></trkpt>
<trkpt lat="46.2868087179958820343017578125" lon="7.50606738030910491943359375"><ele></ele><time>2020-9-19T7:3:21Z</time></trkpt>
<trkpt lat="46.28683143295347690582275390625" lon="7.50611121766269207000732421875"><ele></ele><time>2020-9-19T7:3:24Z</time></trkpt>
<trkpt lat="46.28685490228235721588134765625" lon="7.50615446828305721282958984375"><ele></ele><time>2020-9-19T7:3:27Z</time></trkpt>
<trkpt lat="46.28687920980155467987060546875" lon="7.50619621016085147857666015625"><ele></ele><time>2020-9-19T7:3:30Z</time></trkpt>
<trkpt lat="46.2869037687778472900390625" lon="7.506238706409931182861328125"><ele></ele><time>2020-9-19T7:3:33Z</time></trkpt>
<trkpt lat="46.286928243935108184814453125" lon="7.50628053210675716400146484375"><ele></ele><time>2020-9-19T7:3:36Z</time></trkpt>
<trkpt lat="46.2869520485401153564453125" lon="7.5063223578035831451416015625"><ele></ele><time>2020-9-19T7:3:39Z</time></trkpt>
<trkpt lat="46.2869753502309322357177734375" lon="7.50636502169072628021240234375"><ele></ele><time>2020-9-19T7:3:42Z</time></trkpt>
<trkpt lat="46.28699907101690769195556640625" lon="7.5064085237681865692138671875"><ele></ele><time>2020-9-19T7:3:45Z</time></trkpt>
<trkpt lat="46.28702036105096340179443359375" lon="7.506451942026615142822265625"><ele></ele><time>2020-9-19T7:3:48Z</time></trkpt>
<trkpt lat="46.28704114817082881927490234375" lon="7.50649326480925083160400390625"><ele></ele><time>2020-9-19T7:3:51Z</time></trkpt>
<trkpt lat="46.28706176765263080596923828125" lon="7.506533749401569366455078125"><ele></ele><time>2020-9-19T7:3:54Z</time></trkpt>
<trkpt lat="46.2870823033154010772705078125" lon="7.50657389871776103973388671875"><ele></ele><time>2020-9-19T7:3:57Z</time></trkpt>
<trkpt lat="46.28710158169269561767578125" lon="7.5066150538623332977294921875"><ele></ele><time>2020-9-19T7:4:0Z</time></trkpt>
<trkpt lat="46.2871237099170684814453125" lon="7.5066556222736835479736328125"><ele></ele><time>2020-9-19T7:4:3Z</time></trkpt>
<trkpt lat="46.2871466763317584991455078125" lon="7.50669501721858978271484375"><ele></ele><time>2020-9-19T7:4:6Z</time></trkpt>
<trkpt lat="46.2871698103845119476318359375" lon="7.5067327357828617095947265625"><ele></ele><time>2020-9-19T7:4:9Z</time></trkpt>
<trkpt lat="46.287191770970821380615234375" lon="7.50677070580422878265380859375"><ele></ele><time>2020-9-19T7:4:12Z</time></trkpt>
<trkpt lat="46.287212558090686798095703125" lon="7.5068071670830249786376953125"><ele></ele><time>2020-9-19T7:4:15Z</time></trkpt>
<trkpt lat="46.28723326139152050018310546875" lon="7.50684295780956745147705078125"><ele></ele><time>2020-9-19T7:4:18Z</time></trkpt>
<trkpt lat="46.2872532941401004791259765625" lon="7.506877742707729339599609375"><ele></ele><time>2020-9-19T7:4:21Z</time></trkpt>
<trkpt lat="46.28727399744093418121337890625" lon="7.50691219232976436614990234375"><ele></ele><time>2020-9-19T7:4:24Z</time></trkpt>
<trkpt lat="46.2872952036559581756591796875" lon="7.5069463066756725311279296875"><ele></ele><time>2020-9-19T7:4:27Z</time></trkpt>
<trkpt lat="46.287317164242267608642578125" lon="7.5069781579077243804931640625"><ele></ele><time>2020-9-19T7:4:30Z</time></trkpt>
<trkpt lat="46.28733954392373561859130859375" lon="7.50700908713042736053466796875"><ele></ele><time>2020-9-19T7:4:33Z</time></trkpt>
<trkpt lat="46.28736301325261592864990234375" lon="7.5070378370583057403564453125"><ele></ele><time>2020-9-19T7:4:36Z</time></trkpt>
<trkpt lat="46.28738815896213054656982421875" lon="7.50706340186297893524169921875"><ele></ele><time>2020-9-19T7:4:39Z</time></trkpt>
<trkpt lat="46.28741363994777202606201171875" lon="7.5070861168205738067626953125"><ele></ele><time>2020-9-19T7:4:42Z</time></trkpt>
<trkpt lat="46.28743979148566722869873046875" lon="7.50710631720721721649169921875"><ele></ele><time>2020-9-19T7:4:45Z</time></trkpt>
<trkpt lat="46.28746661357581615447998046875" lon="7.50712442211806774139404296875"><ele></ele><time>2020-9-19T7:4:48Z</time></trkpt>
<trkpt lat="46.2874940223991870880126953125" lon="7.50714135356247425079345703125"><ele></ele><time>2020-9-19T7:4:51Z</time></trkpt>
<trkpt lat="46.28752159886062145233154296875" lon="7.5071571953594684600830078125"><ele></ele><time>2020-9-19T7:4:54Z</time></trkpt>
<trkpt lat="46.28754976205527782440185546875" lon="7.5071729533374309539794921875"><ele></ele><time>2020-9-19T7:4:57Z</time></trkpt>
<trkpt lat="46.2875783443450927734375" lon="7.50718845985829830169677734375"><ele></ele><time>2020-9-19T7:5:0Z</time></trkpt>
<trkpt lat="46.2876073457300662994384765625" lon="7.50720304436981678009033203125"><ele></ele><time>2020-9-19T7:5:3Z</time></trkpt>
<trkpt lat="46.2876361794769763946533203125" lon="7.50721762888133525848388671875"><ele></ele><time>2020-9-19T7:5:6Z</time></trkpt>
<trkpt lat="46.2876650132238864898681640625" lon="7.50723187811672687530517578125"><ele></ele><time>2020-9-19T7:5:9Z</time></trkpt>
<trkpt lat="46.28769326023757457733154296875" lon="7.507246546447277069091796875"><ele></ele><time>2020-9-19T7:5:12Z</time></trkpt>
<trkpt lat="46.287720836699008941650390625" lon="7.5072629749774932861328125"><ele></ele><time>2020-9-19T7:5:15Z</time></trkpt>
<trkpt lat="46.2877481617033481597900390625" lon="7.507280744612216949462890625"><ele></ele><time>2020-9-19T7:5:18Z</time></trkpt>
<trkpt lat="46.28777523525059223175048828125" lon="7.5073005259037017822265625"><ele></ele><time>2020-9-19T7:5:21Z</time></trkpt>
<trkpt lat="46.287801302969455718994140625" lon="7.50732173211872577667236328125"><ele></ele><time>2020-9-19T7:5:24Z</time></trkpt>
<trkpt lat="46.287826113402843475341796875" lon="7.50734520144760608673095703125"><ele></ele><time>2020-9-19T7:5:27Z</time></trkpt>
<trkpt lat="46.2878497503697872161865234375" lon="7.50737101770937442779541015625"><ele></ele><time>2020-9-19T7:5:30Z</time></trkpt>
<trkpt lat="46.2878712080419063568115234375" lon="7.5074006058275699615478515625"><ele></ele><time>2020-9-19T7:5:33Z</time></trkpt>
<trkpt lat="46.2878903187811374664306640625" lon="7.5074337981641292572021484375"><ele></ele><time>2020-9-19T7:5:36Z</time></trkpt>
<trkpt lat="46.28790800459682941436767578125" lon="7.5074683316051959991455078125"><ele></ele><time>2020-9-19T7:5:39Z</time></trkpt>
<trkpt lat="46.2879248522222042083740234375" lon="7.507503367960453033447265625"><ele></ele><time>2020-9-19T7:5:42Z</time></trkpt>
<trkpt lat="46.2879419513046741485595703125" lon="7.507537566125392913818359375"><ele></ele><time>2020-9-19T7:5:45Z</time></trkpt>
<trkpt lat="46.2879597209393978118896484375" lon="7.50757184810936450958251953125"><ele></ele><time>2020-9-19T7:5:48Z</time></trkpt>
<trkpt lat="46.28797807730734348297119140625" lon="7.50760721974074840545654296875"><ele></ele><time>2020-9-19T7:5:51Z</time></trkpt>
<trkpt lat="46.28799743950366973876953125" lon="7.50764426775276660919189453125"><ele></ele><time>2020-9-19T7:5:54Z</time></trkpt>
<trkpt lat="46.28801713697612285614013671875" lon="7.50768114812672138214111328125"><ele></ele><time>2020-9-19T7:5:57Z</time></trkpt>
<trkpt lat="46.28803926520049571990966796875" lon="7.507717609405517578125"><ele></ele><time>2020-9-19T7:6:0Z</time></trkpt>
<trkpt lat="46.2880629859864711761474609375" lon="7.5077523104846477508544921875"><ele></ele><time>2020-9-19T7:6:3Z</time></trkpt>
<trkpt lat="46.288086287677288055419921875" lon="7.507785670459270477294921875"><ele></ele><time>2020-9-19T7:6:6Z</time></trkpt>
<trkpt lat="46.28810749389231204986572265625" lon="7.507820539176464080810546875"><ele></ele><time>2020-9-19T7:6:9Z</time></trkpt>
<trkpt lat="46.2881250120699405670166015625" lon="7.507860101759433746337890625"><ele></ele><time>2020-9-19T7:6:12Z</time></trkpt>
<trkpt lat="46.28820606507360935211181640625" lon="7.508088760077953338623046875"><ele></ele><time>2020-9-19T7:6:15Z</time></trkpt>
<trkpt lat="46.28823473118245601654052734375" lon="7.5081734172999858856201171875"><ele></ele><time>2020-9-19T7:6:18Z</time></trkpt>
<trkpt lat="46.28826834261417388916015625" lon="7.508266456425189971923828125"><ele></ele><time>2020-9-19T7:6:21Z</time></trkpt>
<trkpt lat="46.28830589354038238525390625" lon="7.50836645253002643585205078125"><ele></ele><time>2020-9-19T7:6:24Z</time></trkpt>
<trkpt lat="46.28834201954305171966552734375" lon="7.50847198069095611572265625"><ele></ele><time>2020-9-19T7:6:27Z</time></trkpt>
<trkpt lat="46.28837001509964466094970703125" lon="7.508583962917327880859375"><ele></ele><time>2020-9-19T7:6:30Z</time></trkpt>
<trkpt lat="46.28838912583887577056884765625" lon="7.5087008066475391387939453125"><ele></ele><time>2020-9-19T7:6:33Z</time></trkpt>
<trkpt lat="46.2884032912552356719970703125" lon="7.5088168121874332427978515625"><ele></ele><time>2020-9-19T7:6:36Z</time></trkpt>
<trkpt lat="46.28841527737677097320556640625" lon="7.5089232623577117919921875"><ele></ele><time>2020-9-19T7:6:39Z</time></trkpt>
<trkpt lat="46.2884272634983062744140625" lon="7.50901873223483562469482421875"><ele></ele><time>2020-9-19T7:6:42Z</time></trkpt>
<trkpt lat="46.2884475477039813995361328125" lon="7.50910095870494842529296875"><ele></ele><time>2020-9-19T7:6:45Z</time></trkpt>
<trkpt lat="46.2884861044585704803466796875" lon="7.50915736891329288482666015625"><ele></ele><time>2020-9-19T7:6:48Z</time></trkpt>
<trkpt lat="46.2885380722582340240478515625" lon="7.50918033532798290252685546875"><ele></ele><time>2020-9-19T7:6:51Z</time></trkpt>
<trkpt lat="46.2885873578488826751708984375" lon="7.50918402336537837982177734375"><ele></ele><time>2020-9-19T7:6:54Z</time></trkpt>
<trkpt lat="46.28863220103085041046142578125" lon="7.50918318517506122589111328125"><ele></ele><time>2020-9-19T7:6:57Z</time></trkpt>
<trkpt lat="46.28867142833769321441650390625" lon="7.50918234698474407196044921875"><ele></ele><time>2020-9-19T7:7:0Z</time></trkpt>
<trkpt lat="46.28870579414069652557373046875" lon="7.5091869570314884185791015625"><ele></ele><time>2020-9-19T7:7:3Z</time></trkpt>
<trkpt lat="46.28873462788760662078857421875" lon="7.50919994898140430450439453125"><ele></ele><time>2020-9-19T7:7:6Z</time></trkpt>
<trkpt lat="46.288760863244533538818359375" lon="7.5092224963009357452392578125"><ele></ele><time>2020-9-19T7:7:9Z</time></trkpt>
<trkpt lat="46.288785003125667572021484375" lon="7.50925376079976558685302734375"><ele></ele><time>2020-9-19T7:7:12Z</time></trkpt>
<trkpt lat="46.28880570642650127410888671875" lon="7.50930011272430419921875"><ele></ele><time>2020-9-19T7:7:15Z</time></trkpt>
<trkpt lat="46.28882565535604953765869140625" lon="7.50935635529458522796630859375"><ele></ele><time>2020-9-19T7:7:18Z</time></trkpt>
<trkpt lat="46.28885616548359394073486328125" lon="7.5094236619770526885986328125"><ele></ele><time>2020-9-19T7:7:21Z</time></trkpt>
<trkpt lat="46.28890260122716426849365234375" lon="7.50948912464082241058349609375"><ele></ele><time>2020-9-19T7:7:24Z</time></trkpt>
<trkpt lat="46.2889642082154750823974609375" lon="7.5095443613827228546142578125"><ele></ele><time>2020-9-19T7:7:27Z</time></trkpt>
<trkpt lat="46.28903168253600597381591796875" lon="7.50958752818405628204345703125"><ele></ele><time>2020-9-19T7:7:30Z</time></trkpt>
<trkpt lat="46.2890986539423465728759765625" lon="7.5096204690635204315185546875"><ele></ele><time>2020-9-19T7:7:33Z</time></trkpt>
<trkpt lat="46.2891553156077861785888671875" lon="7.5096519850194454193115234375"><ele></ele><time>2020-9-19T7:7:36Z</time></trkpt>
<trkpt lat="46.28920284099876880645751953125" lon="7.50968375243246555328369140625"><ele></ele><time>2020-9-19T7:7:39Z</time></trkpt>
<trkpt lat="46.28924240358173847198486328125" lon="7.50972012989223003387451171875"><ele></ele><time>2020-9-19T7:7:42Z</time></trkpt>
<trkpt lat="46.28927643410861492156982421875" lon="7.509759105741977691650390625"><ele></ele><time>2020-9-19T7:7:45Z</time></trkpt>
<trkpt lat="46.2893045134842395782470703125" lon="7.5097985006868839263916015625"><ele></ele><time>2020-9-19T7:7:48Z</time></trkpt>
<trkpt lat="46.2893296591937541961669921875" lon="7.50983999110758304595947265625"><ele></ele><time>2020-9-19T7:7:51Z</time></trkpt>
<trkpt lat="46.2893544696271419525146484375" lon="7.509882487356662750244140625"><ele></ele><time>2020-9-19T7:7:54Z</time></trkpt>
<trkpt lat="46.28937986679375171661376953125" lon="7.50992347486317157745361328125"><ele></ele><time>2020-9-19T7:7:57Z</time></trkpt>
<trkpt lat="46.28940685652196407318115234375" lon="7.5099664740264415740966796875"><ele></ele><time>2020-9-19T7:8:0Z</time></trkpt>
<trkpt lat="46.28943937830626964569091796875" lon="7.51001584343612194061279296875"><ele></ele><time>2020-9-19T7:8:3Z</time></trkpt>
<trkpt lat="46.28948044963181018829345703125" lon="7.5100734271109104156494140625"><ele></ele><time>2020-9-19T7:8:6Z</time></trkpt>
<trkpt lat="46.289527975022792816162109375" lon="7.510139644145965576171875"><ele></ele><time>2020-9-19T7:8:9Z</time></trkpt>
<trkpt lat="46.28957935608923435211181640625" lon="7.5102139078080654144287109375"><ele></ele><time>2020-9-19T7:8:12Z</time></trkpt>
<trkpt lat="46.28963517956435680389404296875" lon="7.510292194783687591552734375"><ele></ele><time>2020-9-19T7:8:15Z</time></trkpt>
<trkpt lat="46.28975470550358295440673828125" lon="7.5104529596865177154541015625"><ele></ele><time>2020-9-19T7:8:18Z</time></trkpt>
<trkpt lat="46.289822347462177276611328125" lon="7.51052563078701496124267578125"><ele></ele><time>2020-9-19T7:8:21Z</time></trkpt>
<trkpt lat="46.28989384509623050689697265625" lon="7.51059553585946559906005859375"><ele></ele><time>2020-9-19T7:8:24Z</time></trkpt>
<trkpt lat="46.29004153423011302947998046875" lon="7.51072897575795650482177734375"><ele></ele><time>2020-9-19T7:8:27Z</time></trkpt>
<trkpt lat="46.290116719901561737060546875" lon="7.510781697928905487060546875"><ele></ele><time>2020-9-19T7:8:30Z</time></trkpt>
<trkpt lat="46.29019207321107387542724609375" lon="7.5108187459409236907958984375"><ele></ele><time>2020-9-19T7:8:33Z</time></trkpt>
<trkpt lat="46.2902657501399517059326171875" lon="7.510846070945262908935546875"><ele></ele><time>2020-9-19T7:8:36Z</time></trkpt>
<trkpt lat="46.290335319936275482177734375" lon="7.51087582670152187347412109375"><ele></ele><time>2020-9-19T7:8:39Z</time></trkpt>
<trkpt lat="46.29040363244712352752685546875" lon="7.5109134614467620849609375"><ele></ele><time>2020-9-19T7:8:42Z</time></trkpt>
<trkpt lat="46.29054361023008823394775390625" lon="7.5110073387622833251953125"><ele></ele><time>2020-9-19T7:8:45Z</time></trkpt>
<trkpt lat="46.29061670042574405670166015625" lon="7.51104329712688922882080078125"><ele></ele><time>2020-9-19T7:8:48Z</time></trkpt>
<trkpt lat="46.2907559238374233245849609375" lon="7.51112678088247776031494140625"><ele></ele><time>2020-9-19T7:8:51Z</time></trkpt>
<trkpt lat="46.29080705344676971435546875" lon="7.51119316555559635162353515625"><ele></ele><time>2020-9-19T7:8:54Z</time></trkpt>
<trkpt lat="46.290848962962627410888671875" lon="7.51126659102737903594970703125"><ele></ele><time>2020-9-19T7:8:57Z</time></trkpt>
<trkpt lat="46.2908903695642948150634765625" lon="7.511338926851749420166015625"><ele></ele><time>2020-9-19T7:9:0Z</time></trkpt>
<trkpt lat="46.29093135707080364227294921875" lon="7.51141042448580265045166015625"><ele></ele><time>2020-9-19T7:9:3Z</time></trkpt>
<trkpt lat="46.291022635996341705322265625" lon="7.51155191101133823394775390625"><ele></ele><time>2020-9-19T7:9:6Z</time></trkpt>
<trkpt lat="46.2910704128444194793701171875" lon="7.51161821186542510986328125"><ele></ele><time>2020-9-19T7:9:9Z</time></trkpt>
<trkpt lat="46.2911202013492584228515625" lon="7.5116763822734355926513671875"><ele></ele><time>2020-9-19T7:9:12Z</time></trkpt>
<trkpt lat="46.29117317497730255126953125" lon="7.5117172859609127044677734375"><ele></ele><time>2020-9-19T7:9:15Z</time></trkpt>
<trkpt lat="46.2912330217659473419189453125" lon="7.51173279248178005218505859375"><ele></ele><time>2020-9-19T7:9:18Z</time></trkpt>
<trkpt lat="46.29129731096327304840087890625" lon="7.51172281801700592041015625"><ele></ele><time>2020-9-19T7:9:21Z</time></trkpt>
<trkpt lat="46.2913617677986621856689453125" lon="7.51168501563370227813720703125"><ele></ele><time>2020-9-19T7:9:24Z</time></trkpt>
<trkpt lat="46.2914194352924823760986328125" lon="7.51162718050181865692138671875"><ele></ele><time>2020-9-19T7:9:27Z</time></trkpt>
<trkpt lat="46.29146830178797245025634765625" lon="7.51156590878963470458984375"><ele></ele><time>2020-9-19T7:9:30Z</time></trkpt>
<trkpt lat="46.29151021130383014678955078125" lon="7.5115089118480682373046875"><ele></ele><time>2020-9-19T7:9:33Z</time></trkpt>
<trkpt lat="46.291540972888469696044921875" lon="7.5114504061639308929443359375"><ele></ele><time>2020-9-19T7:9:36Z</time></trkpt>
<trkpt lat="46.29156502895057201385498046875" lon="7.5113934092223644256591796875"><ele></ele><time>2020-9-19T7:9:39Z</time></trkpt>
<trkpt lat="46.29159050993621349334716796875" lon="7.51133867539465427398681640625"><ele></ele><time>2020-9-19T7:9:42Z</time></trkpt>
<trkpt lat="46.291615404188632965087890625" lon="7.51128737814724445343017578125"><ele></ele><time>2020-9-19T7:9:45Z</time></trkpt>
<trkpt lat="46.29163719713687896728515625" lon="7.51123909838497638702392578125"><ele></ele><time>2020-9-19T7:9:48Z</time></trkpt>
<trkpt lat="46.29165957681834697723388671875" lon="7.51119710505008697509765625"><ele></ele><time>2020-9-19T7:9:51Z</time></trkpt>
<trkpt lat="46.29168413579463958740234375" lon="7.51115544699132442474365234375"><ele></ele><time>2020-9-19T7:9:54Z</time></trkpt>
<trkpt lat="46.2917071022093296051025390625" lon="7.5111127831041812896728515625"><ele></ele><time>2020-9-19T7:9:57Z</time></trkpt>
<trkpt lat="46.2917302362620830535888671875" lon="7.51106726936995983123779296875"><ele></ele><time>2020-9-19T7:10:0Z</time></trkpt>
<trkpt lat="46.29175144247710704803466796875" lon="7.51102200709283351898193359375"><ele></ele><time>2020-9-19T7:10:3Z</time></trkpt>
<trkpt lat="46.29177390597760677337646484375" lon="7.51097716391086578369140625"><ele></ele><time>2020-9-19T7:10:6Z</time></trkpt>
<trkpt lat="46.29179603420197963714599609375" lon="7.5109330751001834869384765625"><ele></ele><time>2020-9-19T7:10:9Z</time></trkpt>
<trkpt lat="46.29181824624538421630859375" lon="7.51088672317564487457275390625"><ele></ele><time>2020-9-19T7:10:12Z</time></trkpt>
<trkpt lat="46.291838698089122772216796875" lon="7.5108397006988525390625"><ele></ele><time>2020-9-19T7:10:15Z</time></trkpt>
<trkpt lat="46.29185822792351245880126953125" lon="7.51079343259334564208984375"><ele></ele><time>2020-9-19T7:10:18Z</time></trkpt>
<trkpt lat="46.2918757461011409759521484375" lon="7.51074775122106075286865234375"><ele></ele><time>2020-9-19T7:10:21Z</time></trkpt>
<trkpt lat="46.2918948568403720855712890625" lon="7.51070433296263217926025390625"><ele></ele><time>2020-9-19T7:10:24Z</time></trkpt>
<trkpt lat="46.29191472195088863372802734375" lon="7.51066292636096477508544921875"><ele></ele><time>2020-9-19T7:10:27Z</time></trkpt>
<trkpt lat="46.291930563747882843017578125" lon="7.51062017865478992462158203125"><ele></ele><time>2020-9-19T7:10:30Z</time></trkpt>
<trkpt lat="46.29194623790681362152099609375" lon="7.51057617366313934326171875"><ele></ele><time>2020-9-19T7:10:33Z</time></trkpt>
<trkpt lat="46.2919629178941249847412109375" lon="7.51053057610988616943359375"><ele></ele><time>2020-9-19T7:10:36Z</time></trkpt>
<trkpt lat="46.29197917878627777099609375" lon="7.51048388890922069549560546875"><ele></ele><time>2020-9-19T7:10:39Z</time></trkpt>
<trkpt lat="46.29199619404971599578857421875" lon="7.51043695025146007537841796875"><ele></ele><time>2020-9-19T7:10:42Z</time></trkpt>
<trkpt lat="46.2920115329325199127197265625" lon="7.510391771793365478515625"><ele></ele><time>2020-9-19T7:10:45Z</time></trkpt>
<trkpt lat="46.29202854819595813751220703125" lon="7.5103463418781757354736328125"><ele></ele><time>2020-9-19T7:10:48Z</time></trkpt>
<trkpt lat="46.2920500896871089935302734375" lon="7.51030233688652515411376953125"><ele></ele><time>2020-9-19T7:10:51Z</time></trkpt>
<trkpt lat="46.29207431338727474212646484375" lon="7.51026160083711147308349609375"><ele></ele><time>2020-9-19T7:10:54Z</time></trkpt>
<trkpt lat="46.29210348241031169891357421875" lon="7.51022907905280590057373046875"><ele></ele><time>2020-9-19T7:10:57Z</time></trkpt>
<trkpt lat="46.292135417461395263671875" lon="7.5102041848003864288330078125"><ele></ele><time>2020-9-19T7:11:0Z</time></trkpt>
<trkpt lat="46.29216969944536685943603515625" lon="7.510186247527599334716796875"><ele></ele><time>2020-9-19T7:11:3Z</time></trkpt>
<trkpt lat="46.292204149067401885986328125" lon="7.510175518691539764404296875"><ele></ele><time>2020-9-19T7:11:6Z</time></trkpt>
<trkpt lat="46.29223801195621490478515625" lon="7.510172165930271148681640625"><ele></ele><time>2020-9-19T7:11:9Z</time></trkpt>
<trkpt lat="46.29227095283567905426025390625" lon="7.51017375849187374114990234375"><ele></ele><time>2020-9-19T7:11:12Z</time></trkpt>
<trkpt lat="46.292302720248699188232421875" lon="7.51017778180539608001708984375"><ele></ele><time>2020-9-19T7:11:15Z</time></trkpt>
<trkpt lat="46.2923364154994487762451171875" lon="7.510184906423091888427734375"><ele></ele><time>2020-9-19T7:11:18Z</time></trkpt>
<trkpt lat="46.29237170331180095672607421875" lon="7.51019454561173915863037109375"><ele></ele><time>2020-9-19T7:11:21Z</time></trkpt>
<trkpt lat="46.29240430891513824462890625" lon="7.5102082081139087677001953125"><ele></ele><time>2020-9-19T7:11:24Z</time></trkpt>
<trkpt lat="46.292435824871063232421875" lon="7.51022438518702983856201171875"><ele></ele><time>2020-9-19T7:11:27Z</time></trkpt>
<trkpt lat="46.29247094504535198211669921875" lon="7.5102434121072292327880859375"><ele></ele><time>2020-9-19T7:11:30Z</time></trkpt>
<trkpt lat="46.29250547848641872406005859375" lon="7.510269396007061004638671875"><ele></ele><time>2020-9-19T7:11:33Z</time></trkpt>
<trkpt lat="46.2926569394767284393310546875" lon="7.5104204379022121429443359375"><ele></ele><time>2020-9-19T7:11:36Z</time></trkpt>
<trkpt lat="46.292866654694080352783203125" lon="7.51067600212991237640380859375"><ele></ele><time>2020-9-19T7:11:39Z</time></trkpt>
<trkpt lat="46.2929073907434940338134765625" lon="7.51072512008249759674072265625"><ele></ele><time>2020-9-19T7:11:42Z</time></trkpt>
<trkpt lat="46.292943768203258514404296875" lon="7.51077272929251194000244140625"><ele></ele><time>2020-9-19T7:11:45Z</time></trkpt>
<trkpt lat="46.2929788045585155487060546875" lon="7.5108180753886699676513671875"><ele></ele><time>2020-9-19T7:11:48Z</time></trkpt>
<trkpt lat="46.29301208071410655975341796875" lon="7.51086451113224029541015625"><ele></ele><time>2020-9-19T7:11:51Z</time></trkpt>
<trkpt lat="46.2930411659181118011474609375" lon="7.51090985722839832305908203125"><ele></ele><time>2020-9-19T7:11:54Z</time></trkpt>
<trkpt lat="46.2930728495121002197265625" lon="7.51094556413590908050537109375"><ele></ele><time>2020-9-19T7:11:57Z</time></trkpt>
<trkpt lat="46.29310511983931064605712890625" lon="7.5109548680484294891357421875"><ele></ele><time>2020-9-19T7:12:0Z</time></trkpt>
<trkpt lat="46.293131522834300994873046875" lon="7.51093684695661067962646484375"><ele></ele><time>2020-9-19T7:12:3Z</time></trkpt>
<trkpt lat="46.293150968849658966064453125" lon="7.510899044573307037353515625"><ele></ele><time>2020-9-19T7:12:6Z</time></trkpt>
<trkpt lat="46.29316463135182857513427734375" lon="7.51085646450519561767578125"><ele></ele><time>2020-9-19T7:12:9Z</time></trkpt>
<trkpt lat="46.2931746058166027069091796875" lon="7.51081346534192562103271484375"><ele></ele><time>2020-9-19T7:12:12Z</time></trkpt>
<trkpt lat="46.29318441264331340789794921875" lon="7.5107667781412601470947265625"><ele></ele><time>2020-9-19T7:12:15Z</time></trkpt>
<trkpt lat="46.29319162108004093170166015625" lon="7.510721683502197265625"><ele></ele><time>2020-9-19T7:12:18Z</time></trkpt>
<trkpt lat="46.29320184700191020965576171875" lon="7.5106789357960224151611328125"><ele></ele><time>2020-9-19T7:12:21Z</time></trkpt>
<trkpt lat="46.2932069599628448486328125" lon="7.5106390379369258880615234375"><ele></ele><time>2020-9-19T7:12:24Z</time></trkpt>
<trkpt lat="46.29321659915149211883544921875" lon="7.5105994753539562225341796875"><ele></ele><time>2020-9-19T7:12:27Z</time></trkpt>
<trkpt lat="46.2932245619595050811767578125" lon="7.51056200824677944183349609375"><ele></ele><time>2020-9-19T7:12:30Z</time></trkpt>
<trkpt lat="46.29323403351008892059326171875" lon="7.51052462495863437652587890625"><ele></ele><time>2020-9-19T7:12:33Z</time></trkpt>
<trkpt lat="46.2932470254600048065185546875" lon="7.510486654937267303466796875"><ele></ele><time>2020-9-19T7:12:36Z</time></trkpt>
<trkpt lat="46.2932611070573329925537109375" lon="7.5104482658207416534423828125"><ele></ele><time>2020-9-19T7:12:39Z</time></trkpt>
<trkpt lat="46.29327359609305858612060546875" lon="7.510409541428089141845703125"><ele></ele><time>2020-9-19T7:12:42Z</time></trkpt>
<trkpt lat="46.29328583367168903350830078125" lon="7.51037224195897579193115234375"><ele></ele><time>2020-9-19T7:12:45Z</time></trkpt>
<trkpt lat="46.2932966463267803192138671875" lon="7.51033477485179901123046875"><ele></ele><time>2020-9-19T7:12:48Z</time></trkpt>
<trkpt lat="46.29330712370574474334716796875" lon="7.51029915176331996917724609375"><ele></ele><time>2020-9-19T7:12:51Z</time></trkpt>
<trkpt lat="46.29331852309405803680419921875" lon="7.5102645345032215118408203125"><ele></ele><time>2020-9-19T7:12:54Z</time></trkpt>
<trkpt lat="46.29332874901592731475830078125" lon="7.5102286599576473236083984375"><ele></ele><time>2020-9-19T7:12:57Z</time></trkpt>
<trkpt lat="46.29333595745265483856201171875" lon="7.5101921148598194122314453125"><ele></ele><time>2020-9-19T7:13:0Z</time></trkpt>
<trkpt lat="46.29333880729973316192626953125" lon="7.51015330664813518524169921875"><ele></ele><time>2020-9-19T7:13:3Z</time></trkpt>
<trkpt lat="46.2933405674993991851806640625" lon="7.510115839540958404541015625"><ele></ele><time>2020-9-19T7:13:6Z</time></trkpt>
<trkpt lat="46.2933392263948917388916015625" lon="7.51007703132927417755126953125"><ele></ele><time>2020-9-19T7:13:9Z</time></trkpt>
<trkpt lat="46.2933352030813694000244140625" lon="7.5100385583937168121337890625"><ele></ele><time>2020-9-19T7:13:12Z</time></trkpt>
<trkpt lat="46.29332556389272212982177734375" lon="7.51000276766717433929443359375"><ele></ele><time>2020-9-19T7:13:15Z</time></trkpt>
<trkpt lat="46.2933127395808696746826171875" lon="7.509971000254154205322265625"><ele></ele><time>2020-9-19T7:13:18Z</time></trkpt>
<trkpt lat="46.293296478688716888427734375" lon="7.509940154850482940673828125"><ele></ele><time>2020-9-19T7:13:21Z</time></trkpt>
<trkpt lat="46.29327929578721523284912109375" lon="7.50990905798971652984619140625"><ele></ele><time>2020-9-19T7:13:24Z</time></trkpt>
<trkpt lat="46.29326119087636470794677734375" lon="7.50988139770925045013427734375"><ele></ele><time>2020-9-19T7:13:27Z</time></trkpt>
<trkpt lat="46.29324191249907016754150390625" lon="7.509856335818767547607421875"><ele></ele><time>2020-9-19T7:13:30Z</time></trkpt>
<trkpt lat="46.29322129301726818084716796875" lon="7.5098353810608386993408203125"><ele></ele><time>2020-9-19T7:13:33Z</time></trkpt>
<trkpt lat="46.29319933243095874786376953125" lon="7.509818114340305328369140625"><ele></ele><time>2020-9-19T7:13:36Z</time></trkpt>
<trkpt lat="46.2931756116449832916259765625" lon="7.50980210490524768829345703125"><ele></ele><time>2020-9-19T7:13:39Z</time></trkpt>
<trkpt lat="46.29315038211643695831298828125" lon="7.509783916175365447998046875"><ele></ele><time>2020-9-19T7:13:42Z</time></trkpt>
<trkpt lat="46.29312506876885890960693359375" lon="7.50976623035967350006103515625"><ele></ele><time>2020-9-19T7:13:45Z</time></trkpt>
<trkpt lat="46.29309606738388538360595703125" lon="7.50975114293396472930908203125"><ele></ele><time>2020-9-19T7:13:48Z</time></trkpt>
<trkpt lat="46.2930716760456562042236328125" lon="7.509733624756336212158203125"><ele></ele><time>2020-9-19T7:13:51Z</time></trkpt>
<trkpt lat="46.29304795525968074798583984375" lon="7.5097156874835491180419921875"><ele></ele><time>2020-9-19T7:13:54Z</time></trkpt>
<trkpt lat="46.29302247427403926849365234375" lon="7.5096982531249523162841796875"><ele></ele><time>2020-9-19T7:13:57Z</time></trkpt>
<trkpt lat="46.29299732856452465057373046875" lon="7.5096818245947360992431640625"><ele></ele><time>2020-9-19T7:14:0Z</time></trkpt>
<trkpt lat="46.29297369159758090972900390625" lon="7.5096664018929004669189453125"><ele></ele><time>2020-9-19T7:14:3Z</time></trkpt>
<trkpt lat="46.2929509766399860382080078125" lon="7.509651482105255126953125"><ele></ele><time>2020-9-19T7:14:6Z</time></trkpt>
<trkpt lat="46.2929280102252960205078125" lon="7.509635724127292633056640625"><ele></ele><time>2020-9-19T7:14:9Z</time></trkpt>
<trkpt lat="46.29290529526770114898681640625" lon="7.50961921177804470062255859375"><ele></ele><time>2020-9-19T7:14:12Z</time></trkpt>
<trkpt lat="46.29288417287170886993408203125" lon="7.50960177741944789886474609375"><ele></ele><time>2020-9-19T7:14:15Z</time></trkpt>
<trkpt lat="46.29286137409508228302001953125" lon="7.50958601944148540496826171875"><ele></ele><time>2020-9-19T7:14:18Z</time></trkpt>
<trkpt lat="46.29283882677555084228515625" lon="7.509570010006427764892578125"><ele></ele><time>2020-9-19T7:14:21Z</time></trkpt>
<trkpt lat="46.2928153574466705322265625" lon="7.5095540843904018402099609375"><ele></ele><time>2020-9-19T7:14:24Z</time></trkpt>
<trkpt lat="46.29279448650777339935302734375" lon="7.5095383264124393463134765625"><ele></ele><time>2020-9-19T7:14:27Z</time></trkpt>
<trkpt lat="46.29277219064533710479736328125" lon="7.50952416099607944488525390625"><ele></ele><time>2020-9-19T7:14:30Z</time></trkpt>
<trkpt lat="46.2927494756877422332763671875" lon="7.509507648646831512451171875"><ele></ele><time>2020-9-19T7:14:33Z</time></trkpt>
<trkpt lat="46.2927286885678768157958984375" lon="7.50949130393564701080322265625"><ele></ele><time>2020-9-19T7:14:36Z</time></trkpt>
<trkpt lat="46.292707063257694244384765625" lon="7.5094756297767162322998046875"><ele></ele><time>2020-9-19T7:14:39Z</time></trkpt>
<trkpt lat="46.2926844321191310882568359375" lon="7.50946037471294403076171875"><ele></ele><time>2020-9-19T7:14:42Z</time></trkpt>
<trkpt lat="46.29266171716153621673583984375" lon="7.50944470055401325225830078125"><ele></ele><time>2020-9-19T7:14:45Z</time></trkpt>
<trkpt lat="46.2926388345658779144287109375" lon="7.50942952930927276611328125"><ele></ele><time>2020-9-19T7:14:48Z</time></trkpt>
<trkpt lat="46.29261561669409275054931640625" lon="7.5094139389693737030029296875"><ele></ele><time>2020-9-19T7:14:51Z</time></trkpt>
<trkpt lat="46.2925929017364978790283203125" lon="7.50939600169658660888671875"><ele></ele><time>2020-9-19T7:14:54Z</time></trkpt>
<trkpt lat="46.292569935321807861328125" lon="7.50937999226152896881103515625"><ele></ele><time>2020-9-19T7:14:57Z</time></trkpt>
<trkpt lat="46.292545795440673828125" lon="7.5093656592071056365966796875"><ele></ele><time>2020-9-19T7:15:0Z</time></trkpt>
<trkpt lat="46.29252157174050807952880859375" lon="7.50935467891395092010498046875"><ele></ele><time>2020-9-19T7:15:3Z</time></trkpt>
<trkpt lat="46.2924963422119617462158203125" lon="7.50934696756303310394287109375"><ele></ele><time>2020-9-19T7:15:6Z</time></trkpt>
<trkpt lat="46.292471028864383697509765625" lon="7.5093415193259716033935546875"><ele></ele><time>2020-9-19T7:15:9Z</time></trkpt>
<trkpt lat="46.2924452126026153564453125" lon="7.5093374960124492645263671875"><ele></ele><time>2020-9-19T7:15:12Z</time></trkpt>
<trkpt lat="46.292419396340847015380859375" lon="7.5093341432511806488037109375"><ele></ele><time>2020-9-19T7:15:15Z</time></trkpt>
<trkpt lat="46.29239416681230068206787109375" lon="7.5093314610421657562255859375"><ele></ele><time>2020-9-19T7:15:18Z</time></trkpt>
<trkpt lat="46.29236868582665920257568359375" lon="7.5093291141092777252197265625"><ele></ele><time>2020-9-19T7:15:21Z</time></trkpt>
<trkpt lat="46.292343623936176300048828125" lon="7.50932550989091396331787109375"><ele></ele><time>2020-9-19T7:15:24Z</time></trkpt>
<trkpt lat="46.2923179753124713897705078125" lon="7.50932198949158191680908203125"><ele></ele><time>2020-9-19T7:15:27Z</time></trkpt>
<trkpt lat="46.29229241050779819488525390625" lon="7.5093202292919158935546875"><ele></ele><time>2020-9-19T7:15:30Z</time></trkpt>
<trkpt lat="46.292267180979251861572265625" lon="7.50931897200644016265869140625"><ele></ele><time>2020-9-19T7:15:33Z</time></trkpt>
<trkpt lat="46.29224195145070552825927734375" lon="7.50931821763515472412109375"><ele></ele><time>2020-9-19T7:15:36Z</time></trkpt>
<trkpt lat="46.29221680574119091033935546875" lon="7.5093160383403301239013671875"><ele></ele><time>2020-9-19T7:15:39Z</time></trkpt>
<trkpt lat="46.29219182766973972320556640625" lon="7.5093103386461734771728515625"><ele></ele><time>2020-9-19T7:15:42Z</time></trkpt>
<trkpt lat="46.2921671010553836822509765625" lon="7.50929952599108219146728515625"><ele></ele><time>2020-9-19T7:15:45Z</time></trkpt>
<trkpt lat="46.29214472137391567230224609375" lon="7.5092791579663753509521484375"><ele></ele><time>2020-9-19T7:15:48Z</time></trkpt>
<trkpt lat="46.2921318970620632171630859375" lon="7.50924789346754550933837890625"><ele></ele><time>2020-9-19T7:15:51Z</time></trkpt>
<trkpt lat="46.29213365726172924041748046875" lon="7.50921386294066905975341796875"><ele></ele><time>2020-9-19T7:15:54Z</time></trkpt>
<trkpt lat="46.2921506725251674652099609375" lon="7.5091872923076152801513671875"><ele></ele><time>2020-9-19T7:15:57Z</time></trkpt>
<trkpt lat="46.2921769917011260986328125" lon="7.50916960649192333221435546875"><ele></ele><time>2020-9-19T7:16:0Z</time></trkpt>
<trkpt lat="46.29220372997224330902099609375" lon="7.50915971584618091583251953125"><ele></ele><time>2020-9-19T7:16:3Z</time></trkpt>
<trkpt lat="46.29222954623401165008544921875" lon="7.50915368087589740753173828125"><ele></ele><time>2020-9-19T7:16:6Z</time></trkpt>
<trkpt lat="46.2922556139528751373291015625" lon="7.50915192067623138427734375"><ele></ele><time>2020-9-19T7:16:9Z</time></trkpt>
<trkpt lat="46.29228268750011920928955078125" lon="7.50915351323783397674560546875"><ele></ele><time>2020-9-19T7:16:12Z</time></trkpt>
<trkpt lat="46.29230867139995098114013671875" lon="7.50915686599910259246826171875"><ele></ele><time>2020-9-19T7:16:15Z</time></trkpt>
<trkpt lat="46.292334236204624176025390625" lon="7.50915988348424434661865234375"><ele></ele><time>2020-9-19T7:16:18Z</time></trkpt>
<trkpt lat="46.29236013628542423248291015625" lon="7.50916264951229095458984375"><ele></ele><time>2020-9-19T7:16:21Z</time></trkpt>
<trkpt lat="46.2923857010900974273681640625" lon="7.50916591845452785491943359375"><ele></ele><time>2020-9-19T7:16:24Z</time></trkpt>
<trkpt lat="46.29241101443767547607421875" lon="7.5091695226728916168212890625"><ele></ele><time>2020-9-19T7:16:27Z</time></trkpt>
<trkpt lat="46.29243607632815837860107421875" lon="7.5091728754341602325439453125"><ele></ele><time>2020-9-19T7:16:30Z</time></trkpt>
<trkpt lat="46.29246122203767299652099609375" lon="7.509176395833492279052734375"><ele></ele><time>2020-9-19T7:16:33Z</time></trkpt>
<trkpt lat="46.29248620010912418365478515625" lon="7.50917849130928516387939453125"><ele></ele><time>2020-9-19T7:16:36Z</time></trkpt>
<trkpt lat="46.2925110943615436553955078125" lon="7.5091789104044437408447265625"><ele></ele><time>2020-9-19T7:16:39Z</time></trkpt>
<trkpt lat="46.29253565333783626556396484375" lon="7.50917748548090457916259765625"><ele></ele><time>2020-9-19T7:16:42Z</time></trkpt>
<trkpt lat="46.292560212314128875732421875" lon="7.50917471945285797119140625"><ele></ele><time>2020-9-19T7:16:45Z</time></trkpt>
<trkpt lat="46.29258535802364349365234375" lon="7.5091718696057796478271484375"><ele></ele><time>2020-9-19T7:16:48Z</time></trkpt>
<trkpt lat="46.29261016845703125" lon="7.5091688521206378936767578125"><ele></ele><time>2020-9-19T7:16:51Z</time></trkpt>
<trkpt lat="46.29263489507138729095458984375" lon="7.50916407443583011627197265625"><ele></ele><time>2020-9-19T7:16:54Z</time></trkpt>
<trkpt lat="46.2926597893238067626953125" lon="7.50915820710361003875732421875"><ele></ele><time>2020-9-19T7:16:57Z</time></trkpt>
<trkpt lat="46.29268459975719451904296875" lon="7.50915192067623138427734375"><ele></ele><time>2020-9-19T7:17:0Z</time></trkpt>
<trkpt lat="46.29270915873348712921142578125" lon="7.5091447122395038604736328125"><ele></ele><time>2020-9-19T7:17:3Z</time></trkpt>
<trkpt lat="46.29273346625268459320068359375" lon="7.50913540832698345184326171875"><ele></ele><time>2020-9-19T7:17:6Z</time></trkpt>
<trkpt lat="46.29275701940059661865234375" lon="7.509125433862209320068359375"><ele></ele><time>2020-9-19T7:17:9Z</time></trkpt>
<trkpt lat="46.2927803210914134979248046875" lon="7.50911596231162548065185546875"><ele></ele><time>2020-9-19T7:17:12Z</time></trkpt>
<trkpt lat="46.29280370660126209259033203125" lon="7.50910758040845394134521484375"><ele></ele><time>2020-9-19T7:17:15Z</time></trkpt>
<trkpt lat="46.29282667301595211029052734375" lon="7.50909970141947269439697265625"><ele></ele><time>2020-9-19T7:17:18Z</time></trkpt>
<trkpt lat="46.29284963943064212799072265625" lon="7.509091906249523162841796875"><ele></ele><time>2020-9-19T7:17:21Z</time></trkpt>
<trkpt lat="46.29287210293114185333251953125" lon="7.5090826861560344696044921875"><ele></ele><time>2020-9-19T7:17:24Z</time></trkpt>
<trkpt lat="46.29289473406970500946044921875" lon="7.50907170586287975311279296875"><ele></ele><time>2020-9-19T7:17:27Z</time></trkpt>
<trkpt lat="46.2929174490272998809814453125" lon="7.50906047411262989044189453125"><ele></ele><time>2020-9-19T7:17:30Z</time></trkpt>
<trkpt lat="46.29294049926102161407470703125" lon="7.50905041582882404327392578125"><ele></ele><time>2020-9-19T7:17:33Z</time></trkpt>
<trkpt lat="46.29296329803764820098876953125" lon="7.50903935171663761138916015625"><ele></ele><time>2020-9-19T7:17:36Z</time></trkpt>
<trkpt lat="46.29298609681427478790283203125" lon="7.5090266950428485870361328125"><ele></ele><time>2020-9-19T7:17:39Z</time></trkpt>
<trkpt lat="46.293008811771869659423828125" lon="7.5090144574642181396484375"><ele></ele><time>2020-9-19T7:17:42Z</time></trkpt>
<trkpt lat="46.29303186200559139251708984375" lon="7.50900305807590484619140625"><ele></ele><time>2020-9-19T7:17:45Z</time></trkpt>
<trkpt lat="46.2930552475154399871826171875" lon="7.508991993963718414306640625"><ele></ele><time>2020-9-19T7:17:48Z</time></trkpt>
<trkpt lat="46.29307863302528858184814453125" lon="7.50898017548024654388427734375"><ele></ele><time>2020-9-19T7:17:51Z</time></trkpt>
<trkpt lat="46.2931021861732006072998046875" lon="7.5089683569967746734619140625"><ele></ele><time>2020-9-19T7:17:54Z</time></trkpt>
<trkpt lat="46.293125487864017486572265625" lon="7.5089552812278270721435546875"><ele></ele><time>2020-9-19T7:17:57Z</time></trkpt>
<trkpt lat="46.29314820282161235809326171875" lon="7.50894262455403804779052734375"><ele></ele><time>2020-9-19T7:18:0Z</time></trkpt>
<trkpt lat="46.29317066632211208343505859375" lon="7.50892921350896358489990234375"><ele></ele><time>2020-9-19T7:18:3Z</time></trkpt>
<trkpt lat="46.29319296218454837799072265625" lon="7.508914880454540252685546875"><ele></ele><time>2020-9-19T7:18:6Z</time></trkpt>
<trkpt lat="46.29321567714214324951171875" lon="7.5089016370475292205810546875"><ele></ele><time>2020-9-19T7:18:9Z</time></trkpt>
<trkpt lat="46.29323889501392841339111328125" lon="7.50889082439243793487548828125"><ele></ele><time>2020-9-19T7:18:12Z</time></trkpt>
<trkpt lat="46.29326253198087215423583984375" lon="7.5088805146515369415283203125"><ele></ele><time>2020-9-19T7:18:15Z</time></trkpt>
<trkpt lat="46.293286420404911041259765625" lon="7.50887087546288967132568359375"><ele></ele><time>2020-9-19T7:18:18Z</time></trkpt>
<trkpt lat="46.2933100573718547821044921875" lon="7.50886148773133754730224609375"><ele></ele><time>2020-9-19T7:18:21Z</time></trkpt>
<trkpt lat="46.2933335267007350921630859375" lon="7.508855201303958892822265625"><ele></ele><time>2020-9-19T7:18:24Z</time></trkpt>
<trkpt lat="46.2933576665818691253662109375" lon="7.50885193236172199249267578125"><ele></ele><time>2020-9-19T7:18:27Z</time></trkpt>
<trkpt lat="46.29338189028203487396240234375" lon="7.508850507438182830810546875"><ele></ele><time>2020-9-19T7:18:30Z</time></trkpt>
<trkpt lat="46.293405778706073760986328125" lon="7.50884941779077053070068359375"><ele></ele><time>2020-9-19T7:18:33Z</time></trkpt>
<trkpt lat="46.2934295833110809326171875" lon="7.50884925015270709991455078125"><ele></ele><time>2020-9-19T7:18:36Z</time></trkpt>
<trkpt lat="46.2934535555541515350341796875" lon="7.50885209999978542327880859375"><ele></ele><time>2020-9-19T7:18:39Z</time></trkpt>
<trkpt lat="46.2934778630733489990234375" lon="7.50885779969394207000732421875"><ele></ele><time>2020-9-19T7:18:42Z</time></trkpt>
<trkpt lat="46.2935021705925464630126953125" lon="7.50886416994035243988037109375"><ele></ele><time>2020-9-19T7:18:45Z</time></trkpt>
<trkpt lat="46.29352723248302936553955078125" lon="7.5088704563677310943603515625"><ele></ele><time>2020-9-19T7:18:48Z</time></trkpt>
<trkpt lat="46.2935527972877025604248046875" lon="7.50887791626155376434326171875"><ele></ele><time>2020-9-19T7:18:51Z</time></trkpt>
<trkpt lat="46.293577440083026885986328125" lon="7.5088855437934398651123046875"><ele></ele><time>2020-9-19T7:18:54Z</time></trkpt>
<trkpt lat="46.293600909411907196044921875" lon="7.50889400951564311981201171875"><ele></ele><time>2020-9-19T7:18:57Z</time></trkpt>
<trkpt lat="46.29362429492175579071044921875" lon="7.50890423543751239776611328125"><ele></ele><time>2020-9-19T7:19:0Z</time></trkpt>
<trkpt lat="46.2936480157077312469482421875" lon="7.508914209902286529541015625"><ele></ele><time>2020-9-19T7:19:3Z</time></trkpt>
<trkpt lat="46.29367173649370670318603515625" lon="7.5089244358241558074951171875"><ele></ele><time>2020-9-19T7:19:6Z</time></trkpt>
<trkpt lat="46.29369570873677730560302734375" lon="7.50893533229827880859375"><ele></ele><time>2020-9-19T7:19:9Z</time></trkpt>
<trkpt lat="46.2937194295227527618408203125" lon="7.5089455582201480865478515625"><ele></ele><time>2020-9-19T7:19:12Z</time></trkpt>
<trkpt lat="46.29374281503260135650634765625" lon="7.50895586796104907989501953125"><ele></ele><time>2020-9-19T7:19:15Z</time></trkpt>
<trkpt lat="46.2937660329043865203857421875" lon="7.5089661777019500732421875"><ele></ele><time>2020-9-19T7:19:18Z</time></trkpt>
<trkpt lat="46.29378941841423511505126953125" lon="7.50897682271897792816162109375"><ele></ele><time>2020-9-19T7:19:21Z</time></trkpt>
<trkpt lat="46.293812133371829986572265625" lon="7.50898805446922779083251953125"><ele></ele><time>2020-9-19T7:19:24Z</time></trkpt>
<trkpt lat="46.29383585415780544281005859375" lon="7.50899861566722393035888671875"><ele></ele><time>2020-9-19T7:19:27Z</time></trkpt>
<trkpt lat="46.293859072029590606689453125" lon="7.50900574028491973876953125"><ele></ele><time>2020-9-19T7:19:30Z</time></trkpt>
<trkpt lat="46.29388153553009033203125" lon="7.50901110470294952392578125"><ele></ele><time>2020-9-19T7:19:33Z</time></trkpt>
<trkpt lat="46.2939034961163997650146484375" lon="7.50901487655937671661376953125"><ele></ele><time>2020-9-19T7:19:36Z</time></trkpt>
<trkpt lat="46.2939262948930263519287109375" lon="7.50902275554835796356201171875"><ele></ele><time>2020-9-19T7:19:39Z</time></trkpt>
<trkpt lat="46.29394800402224063873291015625" lon="7.5090320594608783721923828125"><ele></ele><time>2020-9-19T7:19:42Z</time></trkpt>
<trkpt lat="46.2939702160656452178955078125" lon="7.5090424530208110809326171875"><ele></ele><time>2020-9-19T7:19:45Z</time></trkpt>
<trkpt lat="46.2939940206706523895263671875" lon="7.5090525113046169281005859375"><ele></ele><time>2020-9-19T7:19:48Z</time></trkpt>
<trkpt lat="46.29401899874210357666015625" lon="7.5090595521032810211181640625"><ele></ele><time>2020-9-19T7:19:51Z</time></trkpt>
<trkpt lat="46.29404179751873016357421875" lon="7.5090702809393405914306640625"><ele></ele><time>2020-9-19T7:19:54Z</time></trkpt>
<trkpt lat="46.294064261019229888916015625" lon="7.509085200726985931396484375"><ele></ele><time>2020-9-19T7:19:57Z</time></trkpt>
<trkpt lat="46.29408848471939563751220703125" lon="7.50909970141947269439697265625"><ele></ele><time>2020-9-19T7:20:0Z</time></trkpt>
<trkpt lat="46.2941103614866733551025390625" lon="7.509118057787418365478515625"><ele></ele><time>2020-9-19T7:20:3Z</time></trkpt>
<trkpt lat="46.29413240589201450347900390625" lon="7.50914253294467926025390625"><ele></ele><time>2020-9-19T7:20:6Z</time></trkpt>
<trkpt lat="46.29415201954543590545654296875" lon="7.50917203724384307861328125"><ele></ele><time>2020-9-19T7:20:9Z</time></trkpt>
<trkpt lat="46.294168531894683837890625" lon="7.50920196063816547393798828125"><ele></ele><time>2020-9-19T7:20:12Z</time></trkpt>
<trkpt lat="46.29418185912072658538818359375" lon="7.50923666171729564666748046875"><ele></ele><time>2020-9-19T7:20:15Z</time></trkpt>
<trkpt lat="46.2941951863467693328857421875" lon="7.509271614253520965576171875"><ele></ele><time>2020-9-19T7:20:18Z</time></trkpt>
<trkpt lat="46.2942072562873363494873046875" lon="7.5093079917132854461669921875"><ele></ele><time>2020-9-19T7:20:21Z</time></trkpt>
<trkpt lat="46.29421873949468135833740234375" lon="7.5093438662588596343994140625"><ele></ele><time>2020-9-19T7:20:24Z</time></trkpt>
<trkpt lat="46.29422913305461406707763671875" lon="7.50938032753765583038330078125"><ele></ele><time>2020-9-19T7:20:27Z</time></trkpt>
<trkpt lat="46.29423969425261020660400390625" lon="7.50941771082580089569091796875"><ele></ele><time>2020-9-19T7:20:30Z</time></trkpt>
<trkpt lat="46.29424757324159145355224609375" lon="7.50945593230426311492919921875"><ele></ele><time>2020-9-19T7:20:33Z</time></trkpt>
<trkpt lat="46.294254027307033538818359375" lon="7.5094940699636936187744140625"><ele></ele><time>2020-9-19T7:20:36Z</time></trkpt>
<trkpt lat="46.29425930790603160858154296875" lon="7.50953136943280696868896484375"><ele></ele><time>2020-9-19T7:20:39Z</time></trkpt>
<trkpt lat="46.2942629121243953704833984375" lon="7.509566657245159149169921875"><ele></ele><time>2020-9-19T7:20:42Z</time></trkpt>
<trkpt lat="46.2942669354379177093505859375" lon="7.50960253179073333740234375"><ele></ele><time>2020-9-19T7:20:45Z</time></trkpt>
<trkpt lat="46.2942731380462646484375" lon="7.5096385739743709564208984375"><ele></ele><time>2020-9-19T7:20:48Z</time></trkpt>
<trkpt lat="46.29427825100719928741455078125" lon="7.5096751190721988677978515625"><ele></ele><time>2020-9-19T7:20:51Z</time></trkpt>
<trkpt lat="46.29428361542522907257080078125" lon="7.509712837636470794677734375"><ele></ele><time>2020-9-19T7:20:54Z</time></trkpt>
<trkpt lat="46.2942877225577831268310546875" lon="7.50975139439105987548828125"><ele></ele><time>2020-9-19T7:20:57Z</time></trkpt>
<trkpt lat="46.29429082386195659637451171875" lon="7.50978953205049037933349609375"><ele></ele><time>2020-9-19T7:21:0Z</time></trkpt>
<trkpt lat="46.29429233260452747344970703125" lon="7.50982758589088916778564453125"><ele></ele><time>2020-9-19T7:21:3Z</time></trkpt>
<trkpt lat="46.2942947633564472198486328125" lon="7.50986513681709766387939453125"><ele></ele><time>2020-9-19T7:21:6Z</time></trkpt>
<trkpt lat="46.29429769702255725860595703125" lon="7.509900592267513275146484375"><ele></ele><time>2020-9-19T7:21:9Z</time></trkpt>
<trkpt lat="46.29429996013641357421875" lon="7.509935460984706878662109375"><ele></ele><time>2020-9-19T7:21:12Z</time></trkpt>
<trkpt lat="46.29430255852639675140380859375" lon="7.50997041352093219757080078125"><ele></ele><time>2020-9-19T7:21:15Z</time></trkpt>
<trkpt lat="46.2943093478679656982421875" lon="7.51000544987618923187255859375"><ele></ele><time>2020-9-19T7:21:18Z</time></trkpt>
<trkpt lat="46.29432368092238903045654296875" lon="7.510037720203399658203125"><ele></ele><time>2020-9-19T7:21:21Z</time></trkpt>
<trkpt lat="46.29434396512806415557861328125" lon="7.5100593455135822296142578125"><ele></ele><time>2020-9-19T7:21:24Z</time></trkpt>
<trkpt lat="46.2943698652088642120361328125" lon="7.510064207017421722412109375"><ele></ele><time>2020-9-19T7:21:27Z</time></trkpt>
<trkpt lat="46.29439107142388820648193359375" lon="7.5100533105432987213134765625"><ele></ele><time>2020-9-19T7:21:30Z</time></trkpt>
<trkpt lat="46.2944054044783115386962890625" lon="7.510027997195720672607421875"><ele></ele><time>2020-9-19T7:21:33Z</time></trkpt>
<trkpt lat="46.29441194236278533935546875" lon="7.50999438576400279998779296875"><ele></ele><time>2020-9-19T7:21:36Z</time></trkpt>
<trkpt lat="46.29441328346729278564453125" lon="7.50995750539004802703857421875"><ele></ele><time>2020-9-19T7:21:39Z</time></trkpt>
<trkpt lat="46.2944134511053562164306640625" lon="7.50992238521575927734375"><ele></ele><time>2020-9-19T7:21:42Z</time></trkpt>
<trkpt lat="46.29441185854375362396240234375" lon="7.509885169565677642822265625"><ele></ele><time>2020-9-19T7:21:45Z</time></trkpt>
<trkpt lat="46.2944090925157070159912109375" lon="7.50984619371592998504638671875"><ele></ele><time>2020-9-19T7:21:48Z</time></trkpt>
<trkpt lat="46.2944087572395801544189453125" lon="7.509807385504245758056640625"><ele></ele><time>2020-9-19T7:21:51Z</time></trkpt>
<trkpt lat="46.29441051743924617767333984375" lon="7.5097700022161006927490234375"><ele></ele><time>2020-9-19T7:21:54Z</time></trkpt>
<trkpt lat="46.2944127805531024932861328125" lon="7.50973102636635303497314453125"><ele></ele><time>2020-9-19T7:21:57Z</time></trkpt>
<trkpt lat="46.2944168038666248321533203125" lon="7.5096922181546688079833984375"><ele></ele><time>2020-9-19T7:22:0Z</time></trkpt>
<trkpt lat="46.2944221682846546173095703125" lon="7.50965408049523830413818359375"><ele></ele><time>2020-9-19T7:22:3Z</time></trkpt>
<trkpt lat="46.2944292090833187103271484375" lon="7.509618289768695831298828125"><ele></ele><time>2020-9-19T7:22:6Z</time></trkpt>
<trkpt lat="46.294436752796173095703125" lon="7.5095839239656925201416015625"><ele></ele><time>2020-9-19T7:22:9Z</time></trkpt>
<trkpt lat="46.294443123042583465576171875" lon="7.5095497258007526397705078125"><ele></ele><time>2020-9-19T7:22:12Z</time></trkpt>
<trkpt lat="46.294449158012866973876953125" lon="7.50951611436903476715087890625"><ele></ele><time>2020-9-19T7:22:15Z</time></trkpt>
<trkpt lat="46.294452846050262451171875" lon="7.509480826556682586669921875"><ele></ele><time>2020-9-19T7:22:18Z</time></trkpt>
<trkpt lat="46.2944568693637847900390625" lon="7.50944696366786956787109375"><ele></ele><time>2020-9-19T7:22:21Z</time></trkpt>
<trkpt lat="46.29445963539183139801025390625" lon="7.509413771331310272216796875"><ele></ele><time>2020-9-19T7:22:24Z</time></trkpt>
<trkpt lat="46.2944603897631168365478515625" lon="7.50938083045184612274169921875"><ele></ele><time>2020-9-19T7:22:27Z</time></trkpt>
<trkpt lat="46.29445997066795825958251953125" lon="7.509348727762699127197265625"><ele></ele><time>2020-9-19T7:22:30Z</time></trkpt>
<trkpt lat="46.2944593839347362518310546875" lon="7.50931528396904468536376953125"><ele></ele><time>2020-9-19T7:22:33Z</time></trkpt>
<trkpt lat="46.2944573722779750823974609375" lon="7.50928024761378765106201171875"><ele></ele><time>2020-9-19T7:22:36Z</time></trkpt>
<trkpt lat="46.294454522430896759033203125" lon="7.50924688763916492462158203125"><ele></ele><time>2020-9-19T7:22:39Z</time></trkpt>
<trkpt lat="46.29445192404091358184814453125" lon="7.50920900143682956695556640625"><ele></ele><time>2020-9-19T7:22:42Z</time></trkpt>
<trkpt lat="46.2944486550986766815185546875" lon="7.5091748870909214019775390625"><ele></ele><time>2020-9-19T7:22:45Z</time></trkpt>
<trkpt lat="46.2944449670612812042236328125" lon="7.50914094038307666778564453125"><ele></ele><time>2020-9-19T7:22:48Z</time></trkpt>
<trkpt lat="46.2944407761096954345703125" lon="7.5091078318655490875244140625"><ele></ele><time>2020-9-19T7:22:51Z</time></trkpt>
<trkpt lat="46.29443549551069736480712890625" lon="7.50907405279576778411865234375"><ele></ele><time>2020-9-19T7:22:54Z</time></trkpt>
<trkpt lat="46.2944282032549381256103515625" lon="7.50904052518308162689208984375"><ele></ele><time>2020-9-19T7:22:57Z</time></trkpt>
<trkpt lat="46.29442040808498859405517578125" lon="7.509008087217807769775390625"><ele></ele><time>2020-9-19T7:23:0Z</time></trkpt>
<trkpt lat="46.294411607086658477783203125" lon="7.50897631980478763580322265625"><ele></ele><time>2020-9-19T7:23:3Z</time></trkpt>
<trkpt lat="46.29440045915544033050537109375" lon="7.5089462287724018096923828125"><ele></ele><time>2020-9-19T7:23:6Z</time></trkpt>
<trkpt lat="46.294387467205524444580078125" lon="7.50891814939677715301513671875"><ele></ele><time>2020-9-19T7:23:9Z</time></trkpt>
<trkpt lat="46.29437263123691082000732421875" lon="7.5088925845921039581298828125"><ele></ele><time>2020-9-19T7:23:12Z</time></trkpt>
<trkpt lat="46.29435536451637744903564453125" lon="7.508867941796779632568359375"><ele></ele><time>2020-9-19T7:23:15Z</time></trkpt>
<trkpt lat="46.2943375110626220703125" lon="7.50884606502950191497802734375"><ele></ele><time>2020-9-19T7:23:18Z</time></trkpt>
<trkpt lat="46.29431731067597866058349609375" lon="7.50882695429027080535888671875"><ele></ele><time>2020-9-19T7:23:21Z</time></trkpt>
<trkpt lat="46.2942984513938426971435546875" lon="7.508809268474578857421875"><ele></ele><time>2020-9-19T7:23:24Z</time></trkpt>
<trkpt lat="46.29427825100719928741455078125" lon="7.50879493542015552520751953125"><ele></ele><time>2020-9-19T7:23:27Z</time></trkpt>
<trkpt lat="46.29425763152539730072021484375" lon="7.508782781660556793212890625"><ele></ele><time>2020-9-19T7:23:30Z</time></trkpt>
<trkpt lat="46.29423684440553188323974609375" lon="7.5087718851864337921142578125"><ele></ele><time>2020-9-19T7:23:33Z</time></trkpt>
<trkpt lat="46.29421555437147617340087890625" lon="7.5087611563503742218017578125"><ele></ele><time>2020-9-19T7:23:36Z</time></trkpt>
<trkpt lat="46.2941918335855007171630859375" lon="7.50875227153301239013671875"><ele></ele><time>2020-9-19T7:23:39Z</time></trkpt>
<trkpt lat="46.2941683642566204071044921875" lon="7.5087420456111431121826171875"><ele></ele><time>2020-9-19T7:23:42Z</time></trkpt>
<trkpt lat="46.29414732567965984344482421875" lon="7.50872938893735408782958984375"><ele></ele><time>2020-9-19T7:23:45Z</time></trkpt>
<trkpt lat="46.29412754438817501068115234375" lon="7.50871581025421619415283203125"><ele></ele><time>2020-9-19T7:23:48Z</time></trkpt>
<trkpt lat="46.29410793073475360870361328125" lon="7.508701980113983154296875"><ele></ele><time>2020-9-19T7:23:51Z</time></trkpt>
<trkpt lat="46.2940895743668079376220703125" lon="7.50868655741214752197265625"><ele></ele><time>2020-9-19T7:23:54Z</time></trkpt>
<trkpt lat="46.29407054744660854339599609375" lon="7.5086699612438678741455078125"><ele></ele><time>2020-9-19T7:23:57Z</time></trkpt>
<trkpt lat="46.29405344836413860321044921875" lon="7.508652023971080780029296875"><ele></ele><time>2020-9-19T7:24:0Z</time></trkpt>
<trkpt lat="46.294036768376827239990234375" lon="7.50863349996507167816162109375"><ele></ele><time>2020-9-19T7:24:3Z</time></trkpt>
<trkpt lat="46.29401891492307186126708984375" lon="7.50861522741615772247314453125"><ele></ele><time>2020-9-19T7:24:6Z</time></trkpt>
<trkpt lat="46.29400097765028476715087890625" lon="7.50859536230564117431640625"><ele></ele><time>2020-9-19T7:24:9Z</time></trkpt>
<trkpt lat="46.29398413002490997314453125" lon="7.5085730664432048797607421875"><ele></ele><time>2020-9-19T7:24:12Z</time></trkpt>
<trkpt lat="46.29396803677082061767578125" lon="7.50855068676173686981201171875"><ele></ele><time>2020-9-19T7:24:15Z</time></trkpt>
<trkpt lat="46.2939537875354290008544921875" lon="7.50852721743285655975341796875"><ele></ele><time>2020-9-19T7:24:18Z</time></trkpt>
<trkpt lat="46.29393978975713253021240234375" lon="7.508503161370754241943359375"><ele></ele><time>2020-9-19T7:24:21Z</time></trkpt>
<trkpt lat="46.29392621107399463653564453125" lon="7.50847868621349334716796875"><ele></ele><time>2020-9-19T7:24:24Z</time></trkpt>
<trkpt lat="46.29391363821923732757568359375" lon="7.50845395959913730621337890625"><ele></ele><time>2020-9-19T7:24:27Z</time></trkpt>
<trkpt lat="46.293899975717067718505859375" lon="7.50843040645122528076171875"><ele></ele><time>2020-9-19T7:24:30Z</time></trkpt>
<trkpt lat="46.29388396628201007843017578125" lon="7.5084071047604084014892578125"><ele></ele><time>2020-9-19T7:24:33Z</time></trkpt>
<trkpt lat="46.2938666157424449920654296875" lon="7.508385479450225830078125"><ele></ele><time>2020-9-19T7:24:36Z</time></trkpt>
<trkpt lat="46.29385496489703655242919921875" lon="7.50836293213069438934326171875"><ele></ele><time>2020-9-19T7:24:39Z</time></trkpt>
<trkpt lat="46.29384406842291355133056640625" lon="7.508339546620845794677734375"><ele></ele><time>2020-9-19T7:24:42Z</time></trkpt>
<trkpt lat="46.29382931627333164215087890625" lon="7.50831599347293376922607421875"><ele></ele><time>2020-9-19T7:24:45Z</time></trkpt>
<trkpt lat="46.29381515085697174072265625" lon="7.50829034484922885894775390625"><ele></ele><time>2020-9-19T7:24:48Z</time></trkpt>
<trkpt lat="46.29380215890705585479736328125" lon="7.5082636065781116485595703125"><ele></ele><time>2020-9-19T7:24:51Z</time></trkpt>
<trkpt lat="46.2937881611287593841552734375" lon="7.50823820941150188446044921875"><ele></ele><time>2020-9-19T7:24:54Z</time></trkpt>
<trkpt lat="46.29377198405563831329345703125" lon="7.508214153349399566650390625"><ele></ele><time>2020-9-19T7:24:57Z</time></trkpt>
<trkpt lat="46.29375605843961238861083984375" lon="7.50819143839180469512939453125"><ele></ele><time>2020-9-19T7:25:0Z</time></trkpt>
<trkpt lat="46.29374030046164989471435546875" lon="7.50816847197711467742919921875"><ele></ele><time>2020-9-19T7:25:3Z</time></trkpt>
<trkpt lat="46.2937246263027191162109375" lon="7.50814466737210750579833984375"><ele></ele><time>2020-9-19T7:25:6Z</time></trkpt>
<trkpt lat="46.293709538877010345458984375" lon="7.5081204436719417572021484375"><ele></ele><time>2020-9-19T7:25:9Z</time></trkpt>
<trkpt lat="46.2936937808990478515625" lon="7.50809487886726856231689453125"><ele></ele><time>2020-9-19T7:25:12Z</time></trkpt>
<trkpt lat="46.2936788611114025115966796875" lon="7.50806964933872222900390625"><ele></ele><time>2020-9-19T7:25:15Z</time></trkpt>
<trkpt lat="46.29366419278085231781005859375" lon="7.50804416835308074951171875"><ele></ele><time>2020-9-19T7:25:18Z</time></trkpt>
<trkpt lat="46.29364944063127040863037109375" lon="7.50801843591034412384033203125"><ele></ele><time>2020-9-19T7:25:21Z</time></trkpt>
<trkpt lat="46.29363401792943477630615234375" lon="7.50799412839114665985107421875"><ele></ele><time>2020-9-19T7:25:24Z</time></trkpt>
<trkpt lat="46.29361909814178943634033203125" lon="7.507970072329044342041015625"><ele></ele><time>2020-9-19T7:25:27Z</time></trkpt>
<trkpt lat="46.29360283724963665008544921875" lon="7.507946603000164031982421875"><ele></ele><time>2020-9-19T7:25:30Z</time></trkpt>
<trkpt lat="46.29358657635748386383056640625" lon="7.5079227983951568603515625"><ele></ele><time>2020-9-19T7:25:33Z</time></trkpt>
<trkpt lat="46.293570064008235931396484375" lon="7.50789874233305454254150390625"><ele></ele><time>2020-9-19T7:25:36Z</time></trkpt>
<trkpt lat="46.29355656914412975311279296875" lon="7.50787292607128620147705078125"><ele></ele><time>2020-9-19T7:25:39Z</time></trkpt>
<trkpt lat="46.29354156553745269775390625" lon="7.50784895382821559906005859375"><ele></ele><time>2020-9-19T7:25:42Z</time></trkpt>
<trkpt lat="46.2935261428356170654296875" lon="7.50782464630901813507080078125"><ele></ele><time>2020-9-19T7:25:45Z</time></trkpt>
<trkpt lat="46.29351164214313030242919921875" lon="7.5077992491424083709716796875"><ele></ele><time>2020-9-19T7:25:48Z</time></trkpt>
<trkpt lat="46.2934974767267704010009765625" lon="7.507774271070957183837890625"><ele></ele><time>2020-9-19T7:25:51Z</time></trkpt>
<trkpt lat="46.2934832274913787841796875" lon="7.5077484548091888427734375"><ele></ele><time>2020-9-19T7:25:54Z</time></trkpt>
<trkpt lat="46.29346906207501888275146484375" lon="7.507722638547420501708984375"><ele></ele><time>2020-9-19T7:25:57Z</time></trkpt>
<trkpt lat="46.29345447756350040435791015625" lon="7.50769824720919132232666015625"><ele></ele><time>2020-9-19T7:26:0Z</time></trkpt>
<trkpt lat="46.29343922249972820281982421875" lon="7.50767326913774013519287109375"><ele></ele><time>2020-9-19T7:26:3Z</time></trkpt>
<trkpt lat="46.29342555999755859375" lon="7.507646866142749786376953125"><ele></ele><time>2020-9-19T7:26:6Z</time></trkpt>
<trkpt lat="46.2934119813144207000732421875" lon="7.5076208822429180145263671875"><ele></ele><time>2020-9-19T7:26:9Z</time></trkpt>
<trkpt lat="46.2933978997170925140380859375" lon="7.50759514980018138885498046875"><ele></ele><time>2020-9-19T7:26:12Z</time></trkpt>
<trkpt lat="46.29338423721492290496826171875" lon="7.5075702555477619171142578125"><ele></ele><time>2020-9-19T7:26:15Z</time></trkpt>
<trkpt lat="46.2933697365224361419677734375" lon="7.507545612752437591552734375"><ele></ele><time>2020-9-19T7:26:18Z</time></trkpt>
<trkpt lat="46.29335582256317138671875" lon="7.5075199641287326812744140625"><ele></ele><time>2020-9-19T7:26:21Z</time></trkpt>
<trkpt lat="46.29334249533712863922119140625" lon="7.507493980228900909423828125"><ele></ele><time>2020-9-19T7:26:24Z</time></trkpt>
<trkpt lat="46.29332958720624446868896484375" lon="7.50746774487197399139404296875"><ele></ele><time>2020-9-19T7:26:27Z</time></trkpt>
<trkpt lat="46.2933170981705188751220703125" lon="7.5074408389627933502197265625"><ele></ele><time>2020-9-19T7:26:30Z</time></trkpt>
<trkpt lat="46.2933040224015712738037109375" lon="7.50741393305361270904541015625"><ele></ele><time>2020-9-19T7:26:33Z</time></trkpt>
<trkpt lat="46.293291114270687103271484375" lon="7.507386691868305206298828125"><ele></ele><time>2020-9-19T7:26:36Z</time></trkpt>
<trkpt lat="46.29327812232077121734619140625" lon="7.50735928304493427276611328125"><ele></ele><time>2020-9-19T7:26:39Z</time></trkpt>
<trkpt lat="46.29326454363763332366943359375" lon="7.50733262859284877777099609375"><ele></ele><time>2020-9-19T7:26:42Z</time></trkpt>
<trkpt lat="46.29325163550674915313720703125" lon="7.50730530358850955963134765625"><ele></ele><time>2020-9-19T7:26:45Z</time></trkpt>
<trkpt lat="46.2932379730045795440673828125" lon="7.50727747566998004913330078125"><ele></ele><time>2020-9-19T7:26:48Z</time></trkpt>
<trkpt lat="46.293224729597568511962890625" lon="7.50724998302757740020751953125"><ele></ele><time>2020-9-19T7:26:51Z</time></trkpt>
<trkpt lat="46.29321165382862091064453125" lon="7.5072227418422698974609375"><ele></ele><time>2020-9-19T7:26:54Z</time></trkpt>
<trkpt lat="46.2931987456977367401123046875" lon="7.5071954168379306793212890625"><ele></ele><time>2020-9-19T7:26:57Z</time></trkpt>
<trkpt lat="46.2931863404810428619384765625" lon="7.50716767273843288421630859375"><ele></ele><time>2020-9-19T7:27:0Z</time></trkpt>
<trkpt lat="46.29317452199757099151611328125" lon="7.5071400962769985198974609375"><ele></ele><time>2020-9-19T7:27:3Z</time></trkpt>
<trkpt lat="46.29316194914281368255615234375" lon="7.5071132741868495941162109375"><ele></ele><time>2020-9-19T7:27:6Z</time></trkpt>
<trkpt lat="46.2931484542787075042724609375" lon="7.507086955010890960693359375"><ele></ele><time>2020-9-19T7:27:9Z</time></trkpt>
<trkpt lat="46.2931343726813793182373046875" lon="7.5070613063871860504150390625"><ele></ele><time>2020-9-19T7:27:12Z</time></trkpt>
<trkpt lat="46.293118782341480255126953125" lon="7.5070368312299251556396484375"><ele></ele><time>2020-9-19T7:27:15Z</time></trkpt>
<trkpt lat="46.29310143180191516876220703125" lon="7.507014535367488861083984375"><ele></ele><time>2020-9-19T7:27:18Z</time></trkpt>
<trkpt lat="46.29308290779590606689453125" lon="7.50699316151440143585205078125"><ele></ele><time>2020-9-19T7:27:21Z</time></trkpt>
<trkpt lat="46.2930649705231189727783203125" lon="7.5069717876613140106201171875"><ele></ele><time>2020-9-19T7:27:24Z</time></trkpt>
<trkpt lat="46.293047368526458740234375" lon="7.5069513358175754547119140625"><ele></ele><time>2020-9-19T7:27:27Z</time></trkpt>
<trkpt lat="46.2930280901491641998291015625" lon="7.50693373382091522216796875"><ele></ele><time>2020-9-19T7:27:30Z</time></trkpt>
<trkpt lat="46.29300772212445735931396484375" lon="7.50691839493811130523681640625"><ele></ele><time>2020-9-19T7:27:33Z</time></trkpt>
<trkpt lat="46.29298659972846508026123046875" lon="7.50690531916916370391845703125"><ele></ele><time>2020-9-19T7:27:36Z</time></trkpt>
<trkpt lat="46.292965225875377655029296875" lon="7.50689526088535785675048828125"><ele></ele><time>2020-9-19T7:27:39Z</time></trkpt>
<trkpt lat="46.29294368438422679901123046875" lon="7.50688721425831317901611328125"><ele></ele><time>2020-9-19T7:27:42Z</time></trkpt>
<trkpt lat="46.2929213047027587890625" lon="7.50688076019287109375"><ele></ele><time>2020-9-19T7:27:45Z</time></trkpt>
<trkpt lat="46.29289917647838592529296875" lon="7.50687480904161930084228515625"><ele></ele><time>2020-9-19T7:27:48Z</time></trkpt>
<trkpt lat="46.2928770482540130615234375" lon="7.5068691931664943695068359375"><ele></ele><time>2020-9-19T7:27:51Z</time></trkpt>
<trkpt lat="46.2928547523915767669677734375" lon="7.506863661110401153564453125"><ele></ele><time>2020-9-19T7:27:54Z</time></trkpt>
<trkpt lat="46.29283270798623561859130859375" lon="7.50685687176883220672607421875"><ele></ele><time>2020-9-19T7:27:57Z</time></trkpt>
<trkpt lat="46.29281066358089447021484375" lon="7.50685083679854869842529296875"><ele></ele><time>2020-9-19T7:28:0Z</time></trkpt>
<trkpt lat="46.29278828389942646026611328125" lon="7.5068450532853603363037109375"><ele></ele><time>2020-9-19T7:28:3Z</time></trkpt>
<trkpt lat="46.29276598803699016571044921875" lon="7.50684027560055255889892578125"><ele></ele><time>2020-9-19T7:28:6Z</time></trkpt>
<trkpt lat="46.29274352453649044036865234375" lon="7.50683709047734737396240234375"><ele></ele><time>2020-9-19T7:28:9Z</time></trkpt>
<trkpt lat="46.29272139631211757659912109375" lon="7.506832815706729888916015625"><ele></ele><time>2020-9-19T7:28:12Z</time></trkpt>
<trkpt lat="46.292699016630649566650390625" lon="7.5068286247551441192626953125"><ele></ele><time>2020-9-19T7:28:15Z</time></trkpt>
<trkpt lat="46.29267680458724498748779296875" lon="7.50682510435581207275390625"><ele></ele><time>2020-9-19T7:28:18Z</time></trkpt>
<trkpt lat="46.2926545925438404083251953125" lon="7.506822086870670318603515625"><ele></ele><time>2020-9-19T7:28:21Z</time></trkpt>
<trkpt lat="46.2926324643194675445556640625" lon="7.50681915320456027984619140625"><ele></ele><time>2020-9-19T7:28:24Z</time></trkpt>
<trkpt lat="46.29261008463799953460693359375" lon="7.50681512989103794097900390625"><ele></ele><time>2020-9-19T7:28:27Z</time></trkpt>
<trkpt lat="46.2925878725945949554443359375" lon="7.5068108551204204559326171875"><ele></ele><time>2020-9-19T7:28:30Z</time></trkpt>
<trkpt lat="46.29256633110344409942626953125" lon="7.50680641271173954010009765625"><ele></ele><time>2020-9-19T7:28:33Z</time></trkpt>
<trkpt lat="46.29254470579326152801513671875" lon="7.50680322758853435516357421875"><ele></ele><time>2020-9-19T7:28:36Z</time></trkpt>
<trkpt lat="46.29252274520695209503173828125" lon="7.50680037774145603179931640625"><ele></ele><time>2020-9-19T7:28:39Z</time></trkpt>
<trkpt lat="46.292500533163547515869140625" lon="7.50679786317050457000732421875"><ele></ele><time>2020-9-19T7:28:42Z</time></trkpt>
<trkpt lat="46.29247806966304779052734375" lon="7.50679736025631427764892578125"><ele></ele><time>2020-9-19T7:28:45Z</time></trkpt>
<trkpt lat="46.29245468415319919586181640625" lon="7.50679601915180683135986328125"><ele></ele><time>2020-9-19T7:28:48Z</time></trkpt>
<trkpt lat="46.29242844879627227783203125" lon="7.50679383985698223114013671875"><ele></ele><time>2020-9-19T7:28:51Z</time></trkpt>
<trkpt lat="46.2924011237919330596923828125" lon="7.5067904032766819000244140625"><ele></ele><time>2020-9-19T7:28:54Z</time></trkpt>
<trkpt lat="46.292373798787593841552734375" lon="7.50678579322993755340576171875"><ele></ele><time>2020-9-19T7:28:57Z</time></trkpt>
<trkpt lat="46.29234706051647663116455078125" lon="7.50678042881190776824951171875"><ele></ele><time>2020-9-19T7:29:0Z</time></trkpt>
<trkpt lat="46.2923204898834228515625" lon="7.50677523203194141387939453125"><ele></ele><time>2020-9-19T7:29:3Z</time></trkpt>
<trkpt lat="46.292293332517147064208984375" lon="7.50676902942359447479248046875"><ele></ele><time>2020-9-19T7:29:6Z</time></trkpt>
<trkpt lat="46.292266510426998138427734375" lon="7.506763078272342681884765625"><ele></ele><time>2020-9-19T7:29:9Z</time></trkpt>
<trkpt lat="46.29224044270813465118408203125" lon="7.5067572109401226043701171875"><ele></ele><time>2020-9-19T7:29:12Z</time></trkpt>
<trkpt lat="46.29221462644636631011962890625" lon="7.50675276853144168853759765625"><ele></ele><time>2020-9-19T7:29:15Z</time></trkpt>
<trkpt lat="46.2921888940036296844482421875" lon="7.50674924813210964202880859375"><ele></ele><time>2020-9-19T7:29:18Z</time></trkpt>
<trkpt lat="46.292163245379924774169921875" lon="7.506751008331775665283203125"><ele></ele><time>2020-9-19T7:29:21Z</time></trkpt>
<trkpt lat="46.29213734529912471771240234375" lon="7.50676014460623264312744140625"><ele></ele><time>2020-9-19T7:29:24Z</time></trkpt>
<trkpt lat="46.29210733808577060699462890625" lon="7.50678093172609806060791015625"><ele></ele><time>2020-9-19T7:29:27Z</time></trkpt>
<trkpt lat="46.29206995479762554168701171875" lon="7.506816051900386810302734375"><ele></ele><time>2020-9-19T7:29:30Z</time></trkpt>
<trkpt lat="46.29202301613986492156982421875" lon="7.506859302520751953125"><ele></ele><time>2020-9-19T7:29:33Z</time></trkpt>
<trkpt lat="46.2919639237225055694580078125" lon="7.506907917559146881103515625"><ele></ele><time>2020-9-19T7:29:36Z</time></trkpt>
<trkpt lat="46.29189192317426204681396484375" lon="7.50694974325597286224365234375"><ele></ele><time>2020-9-19T7:29:39Z</time></trkpt>
<trkpt lat="46.2918153963983058929443359375" lon="7.50697053037583827972412109375"><ele></ele><time>2020-9-19T7:29:42Z</time></trkpt>
<trkpt lat="46.29174104891717433929443359375" lon="7.50696818344295024871826171875"><ele></ele><time>2020-9-19T7:29:45Z</time></trkpt>
<trkpt lat="46.29167483188211917877197265625" lon="7.506955526769161224365234375"><ele></ele><time>2020-9-19T7:29:48Z</time></trkpt>
<trkpt lat="46.2916164100170135498046875" lon="7.50694446265697479248046875"><ele></ele><time>2020-9-19T7:29:51Z</time></trkpt>
<trkpt lat="46.291568465530872344970703125" lon="7.506935410201549530029296875"><ele></ele><time>2020-9-19T7:29:54Z</time></trkpt>
<trkpt lat="46.29152856767177581787109375" lon="7.5069298781454563140869140625"><ele></ele><time>2020-9-19T7:29:57Z</time></trkpt>
<trkpt lat="46.29149193875491619110107421875" lon="7.50692702829837799072265625"><ele></ele><time>2020-9-19T7:30:0Z</time></trkpt>
<trkpt lat="46.2914556451141834259033203125" lon="7.50692258588969707489013671875"><ele></ele><time>2020-9-19T7:30:3Z</time></trkpt>
<trkpt lat="46.29141859710216522216796875" lon="7.50691202469170093536376953125"><ele></ele><time>2020-9-19T7:30:6Z</time></trkpt>
<trkpt lat="46.29138196818530559539794921875" lon="7.50689710490405559539794921875"><ele></ele><time>2020-9-19T7:30:9Z</time></trkpt>
<trkpt lat="46.29134978167712688446044921875" lon="7.50687413848936557769775390625"><ele></ele><time>2020-9-19T7:30:12Z</time></trkpt>
<trkpt lat="46.29132807254791259765625" lon="7.50683826394379138946533203125"><ele></ele><time>2020-9-19T7:30:15Z</time></trkpt>
<trkpt lat="46.291319690644741058349609375" lon="7.5067957676947116851806640625"><ele></ele><time>2020-9-19T7:30:18Z</time></trkpt>
<trkpt lat="46.2913268990814685821533203125" lon="7.50675763003528118133544921875"><ele></ele><time>2020-9-19T7:30:21Z</time></trkpt>
<trkpt lat="46.29134592600166797637939453125" lon="7.50673483125865459442138671875"><ele></ele><time>2020-9-19T7:30:24Z</time></trkpt>
<trkpt lat="46.2913708202540874481201171875" lon="7.50672695226967334747314453125"><ele></ele><time>2020-9-19T7:30:27Z</time></trkpt>
<trkpt lat="46.2913936190307140350341796875" lon="7.506732232868671417236328125"><ele></ele><time>2020-9-19T7:30:30Z</time></trkpt>
<trkpt lat="46.2914154119789600372314453125" lon="7.5067426264286041259765625"><ele></ele><time>2020-9-19T7:30:33Z</time></trkpt>
<trkpt lat="46.2914378754794597625732421875" lon="7.5067506730556488037109375"><ele></ele><time>2020-9-19T7:30:36Z</time></trkpt>
<trkpt lat="46.291460506618022918701171875" lon="7.50675536692142486572265625"><ele></ele><time>2020-9-19T7:30:39Z</time></trkpt>
<trkpt lat="46.29148389212787151336669921875" lon="7.50675737857818603515625"><ele></ele><time>2020-9-19T7:30:42Z</time></trkpt>
<trkpt lat="46.29150736145675182342529296875" lon="7.50675729475915431976318359375"><ele></ele><time>2020-9-19T7:30:45Z</time></trkpt>
<trkpt lat="46.29153124988079071044921875" lon="7.506753019988536834716796875"><ele></ele><time>2020-9-19T7:30:48Z</time></trkpt>
<trkpt lat="46.2915548868477344512939453125" lon="7.5067479908466339111328125"><ele></ele><time>2020-9-19T7:30:51Z</time></trkpt>
<trkpt lat="46.29157994873821735382080078125" lon="7.506742961704730987548828125"><ele></ele><time>2020-9-19T7:30:54Z</time></trkpt>
<trkpt lat="46.2916071899235248565673828125" lon="7.5067370943725109100341796875"><ele></ele><time>2020-9-19T7:30:57Z</time></trkpt>
<trkpt lat="46.291636861860752105712890625" lon="7.50673097558319568634033203125"><ele></ele><time>2020-9-19T7:31:0Z</time></trkpt>
<trkpt lat="46.291668377816677093505859375" lon="7.50672519207000732421875"><ele></ele><time>2020-9-19T7:31:3Z</time></trkpt>
<trkpt lat="46.29169997759163379669189453125" lon="7.50671781599521636962890625"><ele></ele><time>2020-9-19T7:31:6Z</time></trkpt>
<trkpt lat="46.29173015244305133819580078125" lon="7.506710104644298553466796875"><ele></ele><time>2020-9-19T7:31:9Z</time></trkpt>
<trkpt lat="46.29175898618996143341064453125" lon="7.50670172274112701416015625"><ele></ele><time>2020-9-19T7:31:12Z</time></trkpt>
<trkpt lat="46.291786395013332366943359375" lon="7.5066916644573211669921875"><ele></ele><time>2020-9-19T7:31:15Z</time></trkpt>
<trkpt lat="46.291811875998973846435546875" lon="7.506681270897388458251953125"><ele></ele><time>2020-9-19T7:31:18Z</time></trkpt>
<trkpt lat="46.29183459095656871795654296875" lon="7.50666677020490169525146484375"><ele></ele><time>2020-9-19T7:31:21Z</time></trkpt>
<trkpt lat="46.29185445606708526611328125" lon="7.5066489167511463165283203125"><ele></ele><time>2020-9-19T7:31:24Z</time></trkpt>
<trkpt lat="46.2918717227876186370849609375" lon="7.50662938691675662994384765625"><ele></ele><time>2020-9-19T7:31:27Z</time></trkpt>
<trkpt lat="46.2918846309185028076171875" lon="7.50660759396851062774658203125"><ele></ele><time>2020-9-19T7:31:30Z</time></trkpt>
<trkpt lat="46.291896365582942962646484375" lon="7.5065852142870426177978515625"><ele></ele><time>2020-9-19T7:31:33Z</time></trkpt>
<trkpt lat="46.2919092737138271331787109375" lon="7.50656451098620891571044921875"><ele></ele><time>2020-9-19T7:31:36Z</time></trkpt>
<trkpt lat="46.29192008636891841888427734375" lon="7.50654456205666065216064453125"><ele></ele><time>2020-9-19T7:31:39Z</time></trkpt>
<trkpt lat="46.29192863591015338897705078125" lon="7.50652343966066837310791015625"><ele></ele><time>2020-9-19T7:31:42Z</time></trkpt>
<trkpt lat="46.29193651489913463592529296875" lon="7.50650231726467609405517578125"><ele></ele><time>2020-9-19T7:31:45Z</time></trkpt>
<trkpt lat="46.29194355569779872894287109375" lon="7.5064809434115886688232421875"><ele></ele><time>2020-9-19T7:31:48Z</time></trkpt>
<trkpt lat="46.29195109941065311431884765625" lon="7.5064591504633426666259765625"><ele></ele><time>2020-9-19T7:31:51Z</time></trkpt>
<trkpt lat="46.291960738599300384521484375" lon="7.506437189877033233642578125"><ele></ele><time>2020-9-19T7:31:54Z</time></trkpt>
<trkpt lat="46.291968114674091339111328125" lon="7.50641531310975551605224609375"><ele></ele><time>2020-9-19T7:31:57Z</time></trkpt>
<trkpt lat="46.2919736467301845550537109375" lon="7.50639385543763637542724609375"><ele></ele><time>2020-9-19T7:32:0Z</time></trkpt>
<trkpt lat="46.2919803522527217864990234375" lon="7.506371475756168365478515625"><ele></ele><time>2020-9-19T7:32:3Z</time></trkpt>
<trkpt lat="46.291988231241703033447265625" lon="7.506352700293064117431640625"><ele></ele><time>2020-9-19T7:32:6Z</time></trkpt>
<trkpt lat="46.29199719987809658050537109375" lon="7.50633233226835727691650390625"><ele></ele><time>2020-9-19T7:32:9Z</time></trkpt>
<trkpt lat="46.29200809635221958160400390625" lon="7.50631255097687244415283203125"><ele></ele><time>2020-9-19T7:32:12Z</time></trkpt>
<trkpt lat="46.29202016629278659820556640625" lon="7.50629394315183162689208984375"><ele></ele><time>2020-9-19T7:32:15Z</time></trkpt>
<trkpt lat="46.292032487690448760986328125" lon="7.506274916231632232666015625"><ele></ele><time>2020-9-19T7:32:18Z</time></trkpt>
<trkpt lat="46.292045228183269500732421875" lon="7.506256140768527984619140625"><ele></ele><time>2020-9-19T7:32:21Z</time></trkpt>
<trkpt lat="46.2920594774186611175537109375" lon="7.50623895786702632904052734375"><ele></ele><time>2020-9-19T7:32:24Z</time></trkpt>
<trkpt lat="46.2920752353966236114501953125" lon="7.50622336752712726593017578125"><ele></ele><time>2020-9-19T7:32:27Z</time></trkpt>
<trkpt lat="46.29209074191749095916748046875" lon="7.50620677135884761810302734375"><ele></ele><time>2020-9-19T7:32:30Z</time></trkpt>
<trkpt lat="46.292107589542865753173828125" lon="7.50618866644799709320068359375"><ele></ele><time>2020-9-19T7:32:33Z</time></trkpt>
<trkpt lat="46.29212477244436740875244140625" lon="7.50617106445133686065673828125"><ele></ele><time>2020-9-19T7:32:36Z</time></trkpt>
<trkpt lat="46.29214053042232990264892578125" lon="7.5061552226543426513671875"><ele></ele><time>2020-9-19T7:32:39Z</time></trkpt>
<trkpt lat="46.2921553663909435272216796875" lon="7.5061389617621898651123046875"><ele></ele><time>2020-9-19T7:32:42Z</time></trkpt>
<trkpt lat="46.29216693341732025146484375" lon="7.50612228177487850189208984375"><ele></ele><time>2020-9-19T7:32:45Z</time></trkpt>
<trkpt lat="46.29217690788209438323974609375" lon="7.50610752962529659271240234375"><ele></ele><time>2020-9-19T7:32:48Z</time></trkpt>
<trkpt lat="46.29218797199428081512451171875" lon="7.50609411858022212982177734375"><ele></ele><time>2020-9-19T7:32:51Z</time></trkpt>
<trkpt lat="46.2922009639441967010498046875" lon="7.5060806237161159515380859375"><ele></ele><time>2020-9-19T7:32:54Z</time></trkpt>
<trkpt lat="46.29221462644636631011962890625" lon="7.5060675479471683502197265625"><ele></ele><time>2020-9-19T7:32:57Z</time></trkpt>
<trkpt lat="46.292226947844028472900390625" lon="7.5060534663498401641845703125"><ele></ele><time>2020-9-19T7:33:0Z</time></trkpt>
<trkpt lat="46.292239688336849212646484375" lon="7.506040222942829132080078125"><ele></ele><time>2020-9-19T7:33:3Z</time></trkpt>
<trkpt lat="46.29225410521030426025390625" lon="7.5060299970209598541259765625"><ele></ele><time>2020-9-19T7:33:6Z</time></trkpt>
<trkpt lat="46.29226894117891788482666015625" lon="7.50602253712713718414306640625"><ele></ele><time>2020-9-19T7:33:9Z</time></trkpt>
<trkpt lat="46.29228352569043636322021484375" lon="7.5060172565281391143798828125"><ele></ele><time>2020-9-19T7:33:12Z</time></trkpt>
<trkpt lat="46.29230213351547718048095703125" lon="7.5060130655765533447265625"><ele></ele><time>2020-9-19T7:33:15Z</time></trkpt>
<trkpt lat="46.2923186458647251129150390625" lon="7.50600962899625301361083984375"><ele></ele><time>2020-9-19T7:33:18Z</time></trkpt>
<trkpt lat="46.29233549349009990692138671875" lon="7.50600728206336498260498046875"><ele></ele><time>2020-9-19T7:33:21Z</time></trkpt>
<trkpt lat="46.29235225729644298553466796875" lon="7.506005354225635528564453125"><ele></ele><time>2020-9-19T7:33:24Z</time></trkpt>
<trkpt lat="46.29236952401697635650634765625" lon="7.50600208528339862823486328125"><ele></ele><time>2020-9-19T7:33:27Z</time></trkpt>
<trkpt lat="46.29238679073750972747802734375" lon="7.50599806196987628936767578125"><ele></ele><time>2020-9-19T7:33:30Z</time></trkpt>
<trkpt lat="46.2924038060009479522705078125" lon="7.50599521212279796600341796875"><ele></ele><time>2020-9-19T7:33:33Z</time></trkpt>
<trkpt lat="46.29242065362632274627685546875" lon="7.5059924460947513580322265625"><ele></ele><time>2020-9-19T7:33:36Z</time></trkpt>
<trkpt lat="46.29243758507072925567626953125" lon="7.50598884187638759613037109375"><ele></ele><time>2020-9-19T7:33:39Z</time></trkpt>
<trkpt lat="46.292454265058040618896484375" lon="7.50598465092480182647705078125"><ele></ele><time>2020-9-19T7:33:42Z</time></trkpt>
<trkpt lat="46.29247094504535198211669921875" lon="7.5059797056019306182861328125"><ele></ele><time>2020-9-19T7:33:45Z</time></trkpt>
<trkpt lat="46.2924872897565364837646484375" lon="7.50597442500293254852294921875"><ele></ele><time>2020-9-19T7:33:48Z</time></trkpt>
<trkpt lat="46.2925033830106258392333984375" lon="7.50596839003264904022216796875"><ele></ele><time>2020-9-19T7:33:51Z</time></trkpt>
<trkpt lat="46.29251872189342975616455078125" lon="7.5059612654149532318115234375"><ele></ele><time>2020-9-19T7:33:54Z</time></trkpt>
<trkpt lat="46.29253573715686798095703125" lon="7.50595363788306713104248046875"><ele></ele><time>2020-9-19T7:33:57Z</time></trkpt>
<trkpt lat="46.29255359061062335968017578125" lon="7.50594525597989559173583984375"><ele></ele><time>2020-9-19T7:34:0Z</time></trkpt>
<trkpt lat="46.29257219843566417694091796875" lon="7.50593871809542179107666015625"><ele></ele><time>2020-9-19T7:34:3Z</time></trkpt>
<trkpt lat="46.29259130917489528656005859375" lon="7.505934275686740875244140625"><ele></ele><time>2020-9-19T7:34:6Z</time></trkpt>
<trkpt lat="46.29261092282831668853759765625" lon="7.50593058764934539794921875"><ele></ele><time>2020-9-19T7:34:9Z</time></trkpt>
<trkpt lat="46.29263003356754779815673828125" lon="7.50592656433582305908203125"><ele></ele><time>2020-9-19T7:34:12Z</time></trkpt>
<trkpt lat="46.292648725211620330810546875" lon="7.50592413358390331268310546875"><ele></ele><time>2020-9-19T7:34:15Z</time></trkpt>
<trkpt lat="46.29266716539859771728515625" lon="7.5059217028319835662841796875"><ele></ele><time>2020-9-19T7:34:18Z</time></trkpt>
<trkpt lat="46.29268585704267024993896484375" lon="7.505918182432651519775390625"><ele></ele><time>2020-9-19T7:34:21Z</time></trkpt>
<trkpt lat="46.29270463250577449798583984375" lon="7.50591374002397060394287109375"><ele></ele><time>2020-9-19T7:34:24Z</time></trkpt>
<trkpt lat="46.29272324033081531524658203125" lon="7.50590938143432140350341796875"><ele></ele><time>2020-9-19T7:34:27Z</time></trkpt>
<trkpt lat="46.29274201579391956329345703125" lon="7.50590519048273563385009765625"><ele></ele><time>2020-9-19T7:34:30Z</time></trkpt>
<trkpt lat="46.2927612103521823883056640625" lon="7.50590133480727672576904296875"><ele></ele><time>2020-9-19T7:34:33Z</time></trkpt>
<trkpt lat="46.2927809916436672210693359375" lon="7.50589747913181781768798828125"><ele></ele><time>2020-9-19T7:34:36Z</time></trkpt>
<trkpt lat="46.2928007729351520538330078125" lon="7.505892701447010040283203125"><ele></ele><time>2020-9-19T7:34:39Z</time></trkpt>
<trkpt lat="46.29282030276954174041748046875" lon="7.50588775612413883209228515625"><ele></ele><time>2020-9-19T7:34:42Z</time></trkpt>
<trkpt lat="46.2928400002419948577880859375" lon="7.50588096678256988525390625"><ele></ele><time>2020-9-19T7:34:45Z</time></trkpt>
<trkpt lat="46.292859613895416259765625" lon="7.50587350688874721527099609375"><ele></ele><time>2020-9-19T7:34:48Z</time></trkpt>
<trkpt lat="46.292879395186901092529296875" lon="7.50586730428040027618408203125"><ele></ele><time>2020-9-19T7:34:51Z</time></trkpt>
<trkpt lat="46.2928996793925762176513671875" lon="7.50586210750043392181396484375"><ele></ele><time>2020-9-19T7:34:54Z</time></trkpt>
<trkpt lat="46.29291987977921962738037109375" lon="7.50585615634918212890625"><ele></ele><time>2020-9-19T7:34:57Z</time></trkpt>
<trkpt lat="46.2929399125277996063232421875" lon="7.50584936700761318206787109375"><ele></ele><time>2020-9-19T7:35:0Z</time></trkpt>
<trkpt lat="46.29296011291444301605224609375" lon="7.505842410027980804443359375"><ele></ele><time>2020-9-19T7:35:3Z</time></trkpt>
<trkpt lat="46.29298039712011814117431640625" lon="7.50583595596253871917724609375"><ele></ele><time>2020-9-19T7:35:6Z</time></trkpt>
<trkpt lat="46.2930004298686981201171875" lon="7.5058306753635406494140625"><ele></ele><time>2020-9-19T7:35:9Z</time></trkpt>
<trkpt lat="46.29302063025534152984619140625" lon="7.505825646221637725830078125"><ele></ele><time>2020-9-19T7:35:12Z</time></trkpt>
<trkpt lat="46.29304041154682636260986328125" lon="7.505818940699100494384765625"><ele></ele><time>2020-9-19T7:35:15Z</time></trkpt>
<trkpt lat="46.29306010901927947998046875" lon="7.5058127380907535552978515625"><ele></ele><time>2020-9-19T7:35:18Z</time></trkpt>
<trkpt lat="46.2930797226727008819580078125" lon="7.50580796040594577789306640625"><ele></ele><time>2020-9-19T7:35:21Z</time></trkpt>
<trkpt lat="46.29309942014515399932861328125" lon="7.50580276362597942352294921875"><ele></ele><time>2020-9-19T7:35:24Z</time></trkpt>
<trkpt lat="46.2931192852556705474853515625" lon="7.50579840503633022308349609375"><ele></ele><time>2020-9-19T7:35:27Z</time></trkpt>
<trkpt lat="46.2931390665471553802490234375" lon="7.50579538755118846893310546875"><ele></ele><time>2020-9-19T7:35:30Z</time></trkpt>
<trkpt lat="46.29315909929573535919189453125" lon="7.50579287298023700714111328125"><ele></ele><time>2020-9-19T7:35:33Z</time></trkpt>
<trkpt lat="46.29317921586334705352783203125" lon="7.505790106952190399169921875"><ele></ele><time>2020-9-19T7:35:36Z</time></trkpt>
<trkpt lat="46.29319950006902217864990234375" lon="7.50578767620027065277099609375"><ele></ele><time>2020-9-19T7:35:39Z</time></trkpt>
<trkpt lat="46.2932195328176021575927734375" lon="7.50578599981963634490966796875"><ele></ele><time>2020-9-19T7:35:42Z</time></trkpt>
<trkpt lat="46.29323981702327728271484375" lon="7.50578440725803375244140625"><ele></ele><time>2020-9-19T7:35:45Z</time></trkpt>
<trkpt lat="46.29326035268604755401611328125" lon="7.50578281469643115997314453125"><ele></ele><time>2020-9-19T7:35:48Z</time></trkpt>
<trkpt lat="46.2932805530726909637451171875" lon="7.50578172504901885986328125"><ele></ele><time>2020-9-19T7:35:51Z</time></trkpt>
<trkpt lat="46.2933008372783660888671875" lon="7.5057812221348285675048828125"><ele></ele><time>2020-9-19T7:35:54Z</time></trkpt>
<trkpt lat="46.293320953845977783203125" lon="7.50578247942030429840087890625"><ele></ele><time>2020-9-19T7:35:57Z</time></trkpt>
<trkpt lat="46.29334081895649433135986328125" lon="7.50578432343900203704833984375"><ele></ele><time>2020-9-19T7:36:0Z</time></trkpt>
<trkpt lat="46.29336093552410602569580078125" lon="7.5057859160006046295166015625"><ele></ele><time>2020-9-19T7:36:3Z</time></trkpt>
<trkpt lat="46.29338197410106658935546875" lon="7.505786754190921783447265625"><ele></ele><time>2020-9-19T7:36:6Z</time></trkpt>
<trkpt lat="46.2934035994112491607666015625" lon="7.5057892687618732452392578125"><ele></ele><time>2020-9-19T7:36:9Z</time></trkpt>
<trkpt lat="46.29342530854046344757080078125" lon="7.505793459713459014892578125"><ele></ele><time>2020-9-19T7:36:12Z</time></trkpt>
<trkpt lat="46.2934465147554874420166015625" lon="7.505798824131488800048828125"><ele></ele><time>2020-9-19T7:36:15Z</time></trkpt>
<trkpt lat="46.29346738569438457489013671875" lon="7.50580511055886745452880859375"><ele></ele><time>2020-9-19T7:36:18Z</time></trkpt>
<trkpt lat="46.2934877537190914154052734375" lon="7.5058137439191341400146484375"><ele></ele><time>2020-9-19T7:36:21Z</time></trkpt>
<trkpt lat="46.29350669682025909423828125" lon="7.50582438893616199493408203125"><ele></ele><time>2020-9-19T7:36:24Z</time></trkpt>
<trkpt lat="46.293525807559490203857421875" lon="7.50583478249609470367431640625"><ele></ele><time>2020-9-19T7:36:27Z</time></trkpt>
<trkpt lat="46.29354516975581645965576171875" lon="7.5058442540466785430908203125"><ele></ele><time>2020-9-19T7:36:30Z</time></trkpt>
<trkpt lat="46.293564029037952423095703125" lon="7.5058549828827381134033203125"><ele></ele><time>2020-9-19T7:36:33Z</time></trkpt>
<trkpt lat="46.29358188249170780181884765625" lon="7.50586680136620998382568359375"><ele></ele><time>2020-9-19T7:36:36Z</time></trkpt>
<trkpt lat="46.29359864629805088043212890625" lon="7.5058804638683795928955078125"><ele></ele><time>2020-9-19T7:36:39Z</time></trkpt>
<trkpt lat="46.29361532628536224365234375" lon="7.50589529983699321746826171875"><ele></ele><time>2020-9-19T7:36:42Z</time></trkpt>
<trkpt lat="46.293633095920085906982421875" lon="7.50591021962463855743408203125"><ele></ele><time>2020-9-19T7:36:45Z</time></trkpt>
<trkpt lat="46.29365061409771442413330078125" lon="7.5059245526790618896484375"><ele></ele><time>2020-9-19T7:36:48Z</time></trkpt>
<trkpt lat="46.29366922192275524139404296875" lon="7.50593821518123149871826171875"><ele></ele><time>2020-9-19T7:36:51Z</time></trkpt>
<trkpt lat="46.29368816502392292022705078125" lon="7.50595330260694026947021484375"><ele></ele><time>2020-9-19T7:36:54Z</time></trkpt>
<trkpt lat="46.29370459355413913726806640625" lon="7.50597090460360050201416015625"><ele></ele><time>2020-9-19T7:36:57Z</time></trkpt>
<trkpt lat="46.29372085444629192352294921875" lon="7.50598666258156299591064453125"><ele></ele><time>2020-9-19T7:37:0Z</time></trkpt>
<trkpt lat="46.29373594187200069427490234375" lon="7.506003342568874359130859375"><ele></ele><time>2020-9-19T7:37:3Z</time></trkpt>
<trkpt lat="46.29374952055513858795166015625" lon="7.50602320767939090728759765625"><ele></ele><time>2020-9-19T7:37:6Z</time></trkpt>
<trkpt lat="46.2937643565237522125244140625" lon="7.50604282133281230926513671875"><ele></ele><time>2020-9-19T7:37:9Z</time></trkpt>
<trkpt lat="46.2937784381210803985595703125" lon="7.5060631893575191497802734375"><ele></ele><time>2020-9-19T7:37:12Z</time></trkpt>
<trkpt lat="46.29379126243293285369873046875" lon="7.5060836412012577056884765625"><ele></ele><time>2020-9-19T7:37:15Z</time></trkpt>
<trkpt lat="46.293806098401546478271484375" lon="7.50610283575952053070068359375"><ele></ele><time>2020-9-19T7:37:18Z</time></trkpt>
<trkpt lat="46.29381892271339893341064453125" lon="7.50612236559391021728515625"><ele></ele><time>2020-9-19T7:37:21Z</time></trkpt>
<trkpt lat="46.29383233375847339630126953125" lon="7.50614072196185588836669921875"><ele></ele><time>2020-9-19T7:37:24Z</time></trkpt>
<trkpt lat="46.2938453257083892822265625" lon="7.5061605870723724365234375"><ele></ele><time>2020-9-19T7:37:27Z</time></trkpt>
<trkpt lat="46.29385731182992458343505859375" lon="7.50618145801126956939697265625"><ele></ele><time>2020-9-19T7:37:30Z</time></trkpt>
<trkpt lat="46.29386904649436473846435546875" lon="7.5062040053308010101318359375"><ele></ele><time>2020-9-19T7:37:33Z</time></trkpt>
<trkpt lat="46.29388061352074146270751953125" lon="7.506228983402252197265625"><ele></ele><time>2020-9-19T7:37:36Z</time></trkpt>
<trkpt lat="46.293889582157135009765625" lon="7.50625488348305225372314453125"><ele></ele><time>2020-9-19T7:37:39Z</time></trkpt>
<trkpt lat="46.29390156827867031097412109375" lon="7.50628120265901088714599609375"><ele></ele><time>2020-9-19T7:37:42Z</time></trkpt>
<trkpt lat="46.29391548223793506622314453125" lon="7.5063042528927326202392578125"><ele></ele><time>2020-9-19T7:37:45Z</time></trkpt>
<trkpt lat="46.2939306534826755523681640625" lon="7.50632487237453460693359375"><ele></ele><time>2020-9-19T7:37:48Z</time></trkpt>
<trkpt lat="46.293949596583843231201171875" lon="7.50634658150374889373779296875"><ele></ele><time>2020-9-19T7:37:51Z</time></trkpt>
<trkpt lat="46.29396812058985233306884765625" lon="7.5063682906329631805419921875"><ele></ele><time>2020-9-19T7:37:54Z</time></trkpt>
<trkpt lat="46.29398723132908344268798828125" lon="7.50638731755316257476806640625"><ele></ele><time>2020-9-19T7:37:57Z</time></trkpt>
<trkpt lat="46.29400751553475856781005859375" lon="7.50640458427369594573974609375"><ele></ele><time>2020-9-19T7:38:0Z</time></trkpt>
<trkpt lat="46.2940282188355922698974609375" lon="7.50642034225165843963623046875"><ele></ele><time>2020-9-19T7:38:3Z</time></trkpt>
<trkpt lat="46.294048838317394256591796875" lon="7.506435848772525787353515625"><ele></ele><time>2020-9-19T7:38:6Z</time></trkpt>
<trkpt lat="46.29406861960887908935546875" lon="7.5064517743885517120361328125"><ele></ele><time>2020-9-19T7:38:9Z</time></trkpt>
<trkpt lat="46.29408798180520534515380859375" lon="7.50646828673779964447021484375"><ele></ele><time>2020-9-19T7:38:12Z</time></trkpt>
<trkpt lat="46.29410826601088047027587890625" lon="7.5064837932586669921875"><ele></ele><time>2020-9-19T7:38:15Z</time></trkpt>
<trkpt lat="46.2941294722259044647216796875" lon="7.5064983777701854705810546875"><ele></ele><time>2020-9-19T7:38:18Z</time></trkpt>
<trkpt lat="46.29414833150804042816162109375" lon="7.50651170499622821807861328125"><ele></ele><time>2020-9-19T7:38:21Z</time></trkpt>
<trkpt lat="46.29416962154209613800048828125" lon="7.5065253674983978271484375"><ele></ele><time>2020-9-19T7:38:24Z</time></trkpt>
<trkpt lat="46.29419057630002498626708984375" lon="7.50653936527669429779052734375"><ele></ele><time>2020-9-19T7:38:27Z</time></trkpt>
<trkpt lat="46.29421354271471500396728515625" lon="7.50654959119856357574462890625"><ele></ele><time>2020-9-19T7:38:30Z</time></trkpt>
<trkpt lat="46.29423986189067363739013671875" lon="7.50655696727335453033447265625"><ele></ele><time>2020-9-19T7:38:33Z</time></trkpt>
<trkpt lat="46.294262744486331939697265625" lon="7.5065640918910503387451171875"><ele></ele><time>2020-9-19T7:38:36Z</time></trkpt>
<trkpt lat="46.29428562708199024200439453125" lon="7.50657289288938045501708984375"><ele></ele><time>2020-9-19T7:38:39Z</time></trkpt>
<trkpt lat="46.2943064980208873748779296875" lon="7.50658077187836170196533203125"><ele></ele><time>2020-9-19T7:38:42Z</time></trkpt>
<trkpt lat="46.29432669840753078460693359375" lon="7.5065878964960575103759765625"><ele></ele><time>2020-9-19T7:38:45Z</time></trkpt>
<trkpt lat="46.2943470664322376251220703125" lon="7.50659552402794361114501953125"><ele></ele><time>2020-9-19T7:38:48Z</time></trkpt>
<trkpt lat="46.29436877556145191192626953125" lon="7.50660021789371967315673828125"><ele></ele><time>2020-9-19T7:38:51Z</time></trkpt>
<trkpt lat="46.29438989795744419097900390625" lon="7.5065949372947216033935546875"><ele></ele><time>2020-9-19T7:38:54Z</time></trkpt>
<trkpt lat="46.29440649412572383880615234375" lon="7.50657834112644195556640625"><ele></ele><time>2020-9-19T7:38:57Z</time></trkpt>
<trkpt lat="46.2944168038666248321533203125" lon="7.50655353069305419921875"><ele></ele><time>2020-9-19T7:39:0Z</time></trkpt>
<trkpt lat="46.29441990517079830169677734375" lon="7.50652578659355640411376953125"><ele></ele><time>2020-9-19T7:39:3Z</time></trkpt>
<trkpt lat="46.2944139540195465087890625" lon="7.50649728812277317047119140625"><ele></ele><time>2020-9-19T7:39:6Z</time></trkpt>
<trkpt lat="46.2944023869931697845458984375" lon="7.50647180713713169097900390625"><ele></ele><time>2020-9-19T7:39:9Z</time></trkpt>
<trkpt lat="46.2943869642913341522216796875" lon="7.506451942026615142822265625"><ele></ele><time>2020-9-19T7:39:12Z</time></trkpt>
<trkpt lat="46.29436994902789592742919921875" lon="7.5064346753060817718505859375"><ele></ele><time>2020-9-19T7:39:15Z</time></trkpt>
<trkpt lat="46.294351927936077117919921875" lon="7.506421096622943878173828125"><ele></ele><time>2020-9-19T7:39:18Z</time></trkpt>
<trkpt lat="46.2943329848349094390869140625" lon="7.506410367786884307861328125"><ele></ele><time>2020-9-19T7:39:21Z</time></trkpt>
<trkpt lat="46.294313035905361175537109375" lon="7.50639938749372959136962890625"><ele></ele><time>2020-9-19T7:39:24Z</time></trkpt>
<trkpt lat="46.29429258406162261962890625" lon="7.50638924539089202880859375"><ele></ele><time>2020-9-19T7:39:27Z</time></trkpt>
<trkpt lat="46.29427473060786724090576171875" lon="7.5063778460025787353515625"><ele></ele><time>2020-9-19T7:39:30Z</time></trkpt>
<trkpt lat="46.294259391725063323974609375" lon="7.506364770233631134033203125"><ele></ele><time>2020-9-19T7:39:33Z</time></trkpt>
<trkpt lat="46.2942394427955150604248046875" lon="7.50635328702628612518310546875"><ele></ele><time>2020-9-19T7:39:36Z</time></trkpt>
<trkpt lat="46.29422108642756938934326171875" lon="7.50633870251476764678955078125"><ele></ele><time>2020-9-19T7:39:39Z</time></trkpt>
<trkpt lat="46.29420314915478229522705078125" lon="7.50632487237453460693359375"><ele></ele><time>2020-9-19T7:39:42Z</time></trkpt>
<trkpt lat="46.2941861338913440704345703125" lon="7.50631137751042842864990234375"><ele></ele><time>2020-9-19T7:39:45Z</time></trkpt>
<trkpt lat="46.294167526066303253173828125" lon="7.506298720836639404296875"><ele></ele><time>2020-9-19T7:39:48Z</time></trkpt>
<trkpt lat="46.2941489182412624359130859375" lon="7.50628438778221607208251953125"><ele></ele><time>2020-9-19T7:39:51Z</time></trkpt>
<trkpt lat="46.294131316244602203369140625" lon="7.50626930035650730133056640625"><ele></ele><time>2020-9-19T7:39:54Z</time></trkpt>
<trkpt lat="46.29411295987665653228759765625" lon="7.506254129111766815185546875"><ele></ele><time>2020-9-19T7:39:57Z</time></trkpt>
<trkpt lat="46.29409736953675746917724609375" lon="7.506234012544155120849609375"><ele></ele><time>2020-9-19T7:40:0Z</time></trkpt>
<trkpt lat="46.2940858863294124603271484375" lon="7.50620861537754535675048828125"><ele></ele><time>2020-9-19T7:40:3Z</time></trkpt>
<trkpt lat="46.2940759956836700439453125" lon="7.5061802007257938385009765625"><ele></ele><time>2020-9-19T7:40:6Z</time></trkpt>
<trkpt lat="46.29406685940921306610107421875" lon="7.50615128315985202789306640625"><ele></ele><time>2020-9-19T7:40:9Z</time></trkpt>
<trkpt lat="46.294055879116058349609375" lon="7.50612362287938594818115234375"><ele></ele><time>2020-9-19T7:40:12Z</time></trkpt>
<trkpt lat="46.29404674284160137176513671875" lon="7.50609361566603183746337890625"><ele></ele><time>2020-9-19T7:40:15Z</time></trkpt>
<trkpt lat="46.2940399535000324249267578125" lon="7.50606243498623371124267578125"><ele></ele><time>2020-9-19T7:40:18Z</time></trkpt>
<trkpt lat="46.2940352596342563629150390625" lon="7.5060299970209598541259765625"><ele></ele><time>2020-9-19T7:40:21Z</time></trkpt>
<trkpt lat="46.2940303981304168701171875" lon="7.50599789433181285858154296875"><ele></ele><time>2020-9-19T7:40:24Z</time></trkpt>
<trkpt lat="46.29402427934110164642333984375" lon="7.50596537254750728607177734375"><ele></ele><time>2020-9-19T7:40:27Z</time></trkpt>
<trkpt lat="46.294018663465976715087890625" lon="7.505932934582233428955078125"><ele></ele><time>2020-9-19T7:40:30Z</time></trkpt>
<trkpt lat="46.29401237703859806060791015625" lon="7.505900077521800994873046875"><ele></ele><time>2020-9-19T7:40:33Z</time></trkpt>
<trkpt lat="46.29400399513542652130126953125" lon="7.50586688518524169921875"><ele></ele><time>2020-9-19T7:40:36Z</time></trkpt>
<trkpt lat="46.293992511928081512451171875" lon="7.50583671033382415771484375"><ele></ele><time>2020-9-19T7:40:39Z</time></trkpt>
<trkpt lat="46.29397750832140445709228515625" lon="7.5058083795011043548583984375"><ele></ele><time>2020-9-19T7:40:42Z</time></trkpt>
<trkpt lat="46.293960325419902801513671875" lon="7.50578365288674831390380859375"><ele></ele><time>2020-9-19T7:40:45Z</time></trkpt>
<trkpt lat="46.2939397059381008148193359375" lon="7.50576504506170749664306640625"><ele></ele><time>2020-9-19T7:40:48Z</time></trkpt>
<trkpt lat="46.2939177453517913818359375" lon="7.505751885473728179931640625"><ele></ele><time>2020-9-19T7:40:51Z</time></trkpt>
<trkpt lat="46.293893940746784210205078125" lon="7.50574015080928802490234375"><ele></ele><time>2020-9-19T7:40:54Z</time></trkpt>
<trkpt lat="46.29386938177049160003662109375" lon="7.5057265721261501312255859375"><ele></ele><time>2020-9-19T7:40:57Z</time></trkpt>
<trkpt lat="46.293846331536769866943359375" lon="7.5057101435959339141845703125"><ele></ele><time>2020-9-19T7:41:0Z</time></trkpt>
<trkpt lat="46.29382646642625331878662109375" lon="7.505690194666385650634765625"><ele></ele><time>2020-9-19T7:41:3Z</time></trkpt>
<trkpt lat="46.2937861494719982147216796875" lon="7.50563579611480236053466796875"><ele></ele><time>2020-9-19T7:41:6Z</time></trkpt>
<trkpt lat="46.29374164156615734100341796875" lon="7.50556823797523975372314453125"><ele></ele><time>2020-9-19T7:41:9Z</time></trkpt>
<trkpt lat="46.29371616058051586151123046875" lon="7.50553219579160213470458984375"><ele></ele><time>2020-9-19T7:41:12Z</time></trkpt>
<trkpt lat="46.29365547560155391693115234375" lon="7.505452148616313934326171875"><ele></ele><time>2020-9-19T7:41:15Z</time></trkpt>
<trkpt lat="46.2935771048069000244140625" lon="7.50537243671715259552001953125"><ele></ele><time>2020-9-19T7:41:18Z</time></trkpt>
<trkpt lat="46.29353879950940608978271484375" lon="7.5053344666957855224609375"><ele></ele><time>2020-9-19T7:41:21Z</time></trkpt>
<trkpt lat="46.2935018353164196014404296875" lon="7.505294568836688995361328125"><ele></ele><time>2020-9-19T7:41:24Z</time></trkpt>
<trkpt lat="46.29346822388470172882080078125" lon="7.5052508153021335601806640625"><ele></ele><time>2020-9-19T7:41:27Z</time></trkpt>
<trkpt lat="46.29344190470874309539794921875" lon="7.505198679864406585693359375"><ele></ele><time>2020-9-19T7:41:30Z</time></trkpt>
<trkpt lat="46.29341642372310161590576171875" lon="7.50514327548444271087646484375"><ele></ele><time>2020-9-19T7:41:33Z</time></trkpt>
<trkpt lat="46.293385662138462066650390625" lon="7.5050925649702548980712890625"><ele></ele><time>2020-9-19T7:41:36Z</time></trkpt>
<trkpt lat="46.29335372708737850189208984375" lon="7.50504571013152599334716796875"><ele></ele><time>2020-9-19T7:41:39Z</time></trkpt>
<trkpt lat="46.29332405515015125274658203125" lon="7.50500530935823917388916015625"><ele></ele><time>2020-9-19T7:41:42Z</time></trkpt>
<trkpt lat="46.29329480230808258056640625" lon="7.50497144646942615509033203125"><ele></ele><time>2020-9-19T7:41:45Z</time></trkpt>
<trkpt lat="46.29326471127569675445556640625" lon="7.5049376673996448516845703125"><ele></ele><time>2020-9-19T7:41:48Z</time></trkpt>
<trkpt lat="46.293234117329120635986328125" lon="7.5049007870256900787353515625"><ele></ele><time>2020-9-19T7:41:51Z</time></trkpt>
<trkpt lat="46.2932031042873859405517578125" lon="7.50486533157527446746826171875"><ele></ele><time>2020-9-19T7:41:54Z</time></trkpt>
<trkpt lat="46.29317401908338069915771484375" lon="7.50483213923871517181396484375"><ele></ele><time>2020-9-19T7:41:57Z</time></trkpt>
<trkpt lat="46.29314602352678775787353515625" lon="7.5048048980534076690673828125"><ele></ele><time>2020-9-19T7:42:0Z</time></trkpt>
<trkpt lat="46.29312448203563690185546875" lon="7.50477966852486133575439453125"><ele></ele><time>2020-9-19T7:42:3Z</time></trkpt>
<trkpt lat="46.2931041978299617767333984375" lon="7.5047569535672664642333984375"><ele></ele><time>2020-9-19T7:42:6Z</time></trkpt>
<trkpt lat="46.29307913593947887420654296875" lon="7.50474144704639911651611328125"><ele></ele><time>2020-9-19T7:42:9Z</time></trkpt>
<trkpt lat="46.29305541515350341796875" lon="7.50472501851618289947509765625"><ele></ele><time>2020-9-19T7:42:12Z</time></trkpt>
<trkpt lat="46.2930351309478282928466796875" lon="7.50470322556793689727783203125"><ele></ele><time>2020-9-19T7:42:15Z</time></trkpt>
<trkpt lat="46.293014846742153167724609375" lon="7.50468059442937374114990234375"><ele></ele><time>2020-9-19T7:42:18Z</time></trkpt>
<trkpt lat="46.29299732856452465057373046875" lon="7.504654191434383392333984375"><ele></ele><time>2020-9-19T7:42:21Z</time></trkpt>
<trkpt lat="46.292986012995243072509765625" lon="7.50462141819298267364501953125"><ele></ele><time>2020-9-19T7:42:24Z</time></trkpt>
<trkpt lat="46.29297469742596149444580078125" lon="7.5045869685709476470947265625"><ele></ele><time>2020-9-19T7:42:27Z</time></trkpt>
<trkpt lat="46.29295525141060352325439453125" lon="7.504556290805339813232421875"><ele></ele><time>2020-9-19T7:42:30Z</time></trkpt>
<trkpt lat="46.2929379008710384368896484375" lon="7.50452485866844654083251953125"><ele></ele><time>2020-9-19T7:42:33Z</time></trkpt>
<trkpt lat="46.29292038269340991973876953125" lon="7.5044951029121875762939453125"><ele></ele><time>2020-9-19T7:42:36Z</time></trkpt>
<trkpt lat="46.29290294833481311798095703125" lon="7.5044669397175312042236328125"><ele></ele><time>2020-9-19T7:42:39Z</time></trkpt>
<trkpt lat="46.29287797026336193084716796875" lon="7.50444254837930202484130859375"><ele></ele><time>2020-9-19T7:42:42Z</time></trkpt>
<trkpt lat="46.29285399802029132843017578125" lon="7.5044173188507556915283203125"><ele></ele><time>2020-9-19T7:42:45Z</time></trkpt>
<trkpt lat="46.292829103767871856689453125" lon="7.504390664398670196533203125"><ele></ele><time>2020-9-19T7:42:48Z</time></trkpt>
<trkpt lat="46.29280605353415012359619140625" lon="7.50436275266110897064208984375"><ele></ele><time>2020-9-19T7:42:51Z</time></trkpt>
<trkpt lat="46.2927819974720478057861328125" lon="7.50433341600000858306884765625"><ele></ele><time>2020-9-19T7:42:54Z</time></trkpt>
<trkpt lat="46.2927481345832347869873046875" lon="7.504308186471462249755859375"><ele></ele><time>2020-9-19T7:42:57Z</time></trkpt>
<trkpt lat="46.29271469078958034515380859375" lon="7.504283376038074493408203125"><ele></ele><time>2020-9-19T7:43:0Z</time></trkpt>
<trkpt lat="46.2926663272082805633544921875" lon="7.5042671151459217071533203125"><ele></ele><time>2020-9-19T7:43:3Z</time></trkpt>
<trkpt lat="46.2926088273525238037109375" lon="7.50425127334892749786376953125"><ele></ele><time>2020-9-19T7:43:6Z</time></trkpt>
<trkpt lat="46.29254646599292755126953125" lon="7.504231072962284088134765625"><ele></ele><time>2020-9-19T7:43:9Z</time></trkpt>
<trkpt lat="46.29249122925102710723876953125" lon="7.50419746153056621551513671875"><ele></ele><time>2020-9-19T7:43:12Z</time></trkpt>
<trkpt lat="46.29245133139193058013916015625" lon="7.50415806658565998077392578125"><ele></ele><time>2020-9-19T7:43:15Z</time></trkpt>
<trkpt lat="46.2924306280910968780517578125" lon="7.504117079079151153564453125"><ele></ele><time>2020-9-19T7:43:18Z</time></trkpt>
<trkpt lat="46.2924148701131343841552734375" lon="7.504081539809703826904296875"><ele></ele><time>2020-9-19T7:43:21Z</time></trkpt>
<trkpt lat="46.2923987768590450286865234375" lon="7.50404826365411281585693359375"><ele></ele><time>2020-9-19T7:43:24Z</time></trkpt>
<trkpt lat="46.2923789955675601959228515625" lon="7.504015155136585235595703125"><ele></ele><time>2020-9-19T7:43:27Z</time></trkpt>
<trkpt lat="46.292358376085758209228515625" lon="7.5039771012961864471435546875"><ele></ele><time>2020-9-19T7:43:30Z</time></trkpt>
<trkpt lat="46.29233582876622676849365234375" lon="7.5039368681609630584716796875"><ele></ele><time>2020-9-19T7:43:33Z</time></trkpt>
<trkpt lat="46.29230330698192119598388671875" lon="7.5038906000554561614990234375"><ele></ele><time>2020-9-19T7:43:36Z</time></trkpt>
<trkpt lat="46.29226122982800006866455078125" lon="7.5038426555693149566650390625"><ele></ele><time>2020-9-19T7:43:39Z</time></trkpt>
<trkpt lat="46.2921204976737499237060546875" lon="7.503684572875499725341796875"><ele></ele><time>2020-9-19T7:43:42Z</time></trkpt>
<trkpt lat="46.29207397811114788055419921875" lon="7.50362933613359928131103515625"><ele></ele><time>2020-9-19T7:43:45Z</time></trkpt>
<trkpt lat="46.2920323200523853302001953125" lon="7.5035722553730010986328125"><ele></ele><time>2020-9-19T7:43:48Z</time></trkpt>
<trkpt lat="46.2919857166707515716552734375" lon="7.50351651571691036224365234375"><ele></ele><time>2020-9-19T7:43:51Z</time></trkpt>
<trkpt lat="46.2919454835355281829833984375" lon="7.50345666892826557159423828125"><ele></ele><time>2020-9-19T7:43:54Z</time></trkpt>
<trkpt lat="46.29190675914287567138671875" lon="7.5034024380147457122802734375"><ele></ele><time>2020-9-19T7:43:57Z</time></trkpt>
<trkpt lat="46.291877925395965576171875" lon="7.50334820710122585296630859375"><ele></ele><time>2020-9-19T7:44:0Z</time></trkpt>
<trkpt lat="46.29185789264738559722900390625" lon="7.5032944791018962860107421875"><ele></ele><time>2020-9-19T7:44:3Z</time></trkpt>
<trkpt lat="46.2918417155742645263671875" lon="7.5032415054738521575927734375"><ele></ele><time>2020-9-19T7:44:6Z</time></trkpt>
<trkpt lat="46.2918269634246826171875" lon="7.50319071114063262939453125"><ele></ele><time>2020-9-19T7:44:9Z</time></trkpt>
<trkpt lat="46.2918120436370372772216796875" lon="7.50314469449222087860107421875"><ele></ele><time>2020-9-19T7:44:12Z</time></trkpt>
<trkpt lat="46.2918016500771045684814453125" lon="7.5031030364334583282470703125"><ele></ele><time>2020-9-19T7:44:15Z</time></trkpt>
<trkpt lat="46.2917925976216793060302734375" lon="7.50306506641209125518798828125"><ele></ele><time>2020-9-19T7:44:18Z</time></trkpt>
<trkpt lat="46.29177893511950969696044921875" lon="7.5030339695513248443603515625"><ele></ele><time>2020-9-19T7:44:21Z</time></trkpt>
<trkpt lat="46.29176988266408443450927734375" lon="7.5030024535953998565673828125"><ele></ele><time>2020-9-19T7:44:24Z</time></trkpt>
<trkpt lat="46.2917570583522319793701171875" lon="7.502978481352329254150390625"><ele></ele><time>2020-9-19T7:44:27Z</time></trkpt>
<trkpt lat="46.2917411327362060546875" lon="7.5029558502137660980224609375"><ele></ele><time>2020-9-19T7:44:30Z</time></trkpt>
<trkpt lat="46.29171975888311862945556640625" lon="7.502930872142314910888671875"><ele></ele><time>2020-9-19T7:44:33Z</time></trkpt>
<trkpt lat="46.29169662483036518096923828125" lon="7.50290178693830966949462890625"><ele></ele><time>2020-9-19T7:44:36Z</time></trkpt>
<trkpt lat="46.2916678749024868011474609375" lon="7.502865493297576904296875"><ele></ele><time>2020-9-19T7:44:39Z</time></trkpt>
<trkpt lat="46.29159587435424327850341796875" lon="7.5027721188962459564208984375"><ele></ele><time>2020-9-19T7:44:42Z</time></trkpt>
<trkpt lat="46.29156234674155712127685546875" lon="7.5027211569249629974365234375"><ele></ele><time>2020-9-19T7:44:45Z</time></trkpt>
<trkpt lat="46.2915384583175182342529296875" lon="7.502672374248504638671875"><ele></ele><time>2020-9-19T7:44:48Z</time></trkpt>
<trkpt lat="46.29151842556893825531005859375" lon="7.50262920744717121124267578125"><ele></ele><time>2020-9-19T7:44:51Z</time></trkpt>
<trkpt lat="46.29149998538196086883544921875" lon="7.50259249471127986907958984375"><ele></ele><time>2020-9-19T7:44:54Z</time></trkpt>
<trkpt lat="46.29148699343204498291015625" lon="7.502556033432483673095703125"><ele></ele><time>2020-9-19T7:44:57Z</time></trkpt>
<trkpt lat="46.291476599872112274169921875" lon="7.50252359546720981597900390625"><ele></ele><time>2020-9-19T7:45:0Z</time></trkpt>
<trkpt lat="46.291468553245067596435546875" lon="7.50248797237873077392578125"><ele></ele><time>2020-9-19T7:45:3Z</time></trkpt>
<trkpt lat="46.29145606420934200286865234375" lon="7.5024549476802349090576171875"><ele></ele><time>2020-9-19T7:45:6Z</time></trkpt>
<trkpt lat="46.29144147969782352447509765625" lon="7.50242418609559535980224609375"><ele></ele><time>2020-9-19T7:45:9Z</time></trkpt>
<trkpt lat="46.29143075086176395416259765625" lon="7.50239334069192409515380859375"><ele></ele><time>2020-9-19T7:45:12Z</time></trkpt>
<trkpt lat="46.29141985438764095306396484375" lon="7.50235042534768581390380859375"><ele></ele><time>2020-9-19T7:45:15Z</time></trkpt>
<trkpt lat="46.2914077006280422210693359375" lon="7.50230734236538410186767578125"><ele></ele><time>2020-9-19T7:45:18Z</time></trkpt>
<trkpt lat="46.29139638505876064300537109375" lon="7.5022611580789089202880859375"><ele></ele><time>2020-9-19T7:45:21Z</time></trkpt>
<trkpt lat="46.29136889241635799407958984375" lon="7.5021552108228206634521484375"><ele></ele><time>2020-9-19T7:45:24Z</time></trkpt>
<trkpt lat="46.29134751856327056884765625" lon="7.5021052546799182891845703125"><ele></ele><time>2020-9-19T7:45:27Z</time></trkpt>
<trkpt lat="46.2913262285292148590087890625" lon="7.50205085612833499908447265625"><ele></ele><time>2020-9-19T7:45:30Z</time></trkpt>
<trkpt lat="46.2913108058273792266845703125" lon="7.50199754722416400909423828125"><ele></ele><time>2020-9-19T7:45:33Z</time></trkpt>
<trkpt lat="46.29130636341869831085205078125" lon="7.50194071792066097259521484375"><ele></ele><time>2020-9-19T7:45:36Z</time></trkpt>
<trkpt lat="46.291311644017696380615234375" lon="7.50189118087291717529296875"><ele></ele><time>2020-9-19T7:45:39Z</time></trkpt>
<trkpt lat="46.29132748581469058990478515625" lon="7.50184558331966400146484375"><ele></ele><time>2020-9-19T7:45:42Z</time></trkpt>
<trkpt lat="46.29134307615458965301513671875" lon="7.50179705210030078887939453125"><ele></ele><time>2020-9-19T7:45:45Z</time></trkpt>
<trkpt lat="46.291349194943904876708984375" lon="7.5017461739480495452880859375"><ele></ele><time>2020-9-19T7:45:48Z</time></trkpt>
<trkpt lat="46.29134961403906345367431640625" lon="7.5017005763947963714599609375"><ele></ele><time>2020-9-19T7:45:51Z</time></trkpt>
<trkpt lat="46.291333772242069244384765625" lon="7.5016700662672519683837890625"><ele></ele><time>2020-9-19T7:45:54Z</time></trkpt>
<trkpt lat="46.2913262285292148590087890625" lon="7.50163679011166095733642578125"><ele></ele><time>2020-9-19T7:45:57Z</time></trkpt>
<trkpt lat="46.2913205288350582122802734375" lon="7.501603849232196807861328125"><ele></ele><time>2020-9-19T7:46:0Z</time></trkpt>
<trkpt lat="46.29132078029215335845947265625" lon="7.5015725009143352508544921875"><ele></ele><time>2020-9-19T7:46:3Z</time></trkpt>
<trkpt lat="46.29132765345275402069091796875" lon="7.50153637491166591644287109375"><ele></ele><time>2020-9-19T7:46:6Z</time></trkpt>
<trkpt lat="46.29133570007979869842529296875" lon="7.501495890319347381591796875"><ele></ele><time>2020-9-19T7:46:9Z</time></trkpt>
<trkpt lat="46.29134307615458965301513671875" lon="7.50145724974572658538818359375"><ele></ele><time>2020-9-19T7:46:12Z</time></trkpt>
<trkpt lat="46.291352212429046630859375" lon="7.50142992474138736724853515625"><ele></ele><time>2020-9-19T7:46:15Z</time></trkpt>
<trkpt lat="46.29136218689382076263427734375" lon="7.50140042044222354888916015625"><ele></ele><time>2020-9-19T7:46:18Z</time></trkpt>
<trkpt lat="46.29136788658797740936279296875" lon="7.50137594528496265411376953125"><ele></ele><time>2020-9-19T7:46:21Z</time></trkpt>
<trkpt lat="46.29136570729315280914306640625" lon="7.501352392137050628662109375"><ele></ele><time>2020-9-19T7:46:24Z</time></trkpt>
<trkpt lat="46.2913589179515838623046875" lon="7.50133621506392955780029296875"><ele></ele><time>2020-9-19T7:46:27Z</time></trkpt>
<trkpt lat="46.29135061986744403839111328125" lon="7.5013267435133457183837890625"><ele></ele><time>2020-9-19T7:46:30Z</time></trkpt>
<trkpt lat="46.291328407824039459228515625" lon="7.50132925808429718017578125"><ele></ele><time>2020-9-19T7:46:33Z</time></trkpt>
<trkpt lat="46.291298232972621917724609375" lon="7.50133596360683441162109375"><ele></ele><time>2020-9-19T7:46:36Z</time></trkpt>
<trkpt lat="46.2912811338901519775390625" lon="7.5013381429016590118408203125"><ele></ele><time>2020-9-19T7:46:39Z</time></trkpt>
<trkpt lat="46.29126931540668010711669921875" lon="7.501322887837886810302734375"><ele></ele><time>2020-9-19T7:46:42Z</time></trkpt>
<trkpt lat="46.2912521325051784515380859375" lon="7.5013272464275360107421875"><ele></ele><time>2020-9-19T7:46:45Z</time></trkpt>
<trkpt lat="46.2912403978407382965087890625" lon="7.50133596360683441162109375"><ele></ele><time>2020-9-19T7:46:48Z</time></trkpt>
<trkpt lat="46.29122690297663211822509765625" lon="7.501349039375782012939453125"><ele></ele><time>2020-9-19T7:46:51Z</time></trkpt>
<trkpt lat="46.29120804369449615478515625" lon="7.50136320479214191436767578125"><ele></ele><time>2020-9-19T7:46:54Z</time></trkpt>
<trkpt lat="46.2911917828023433685302734375" lon="7.50138030387461185455322265625"><ele></ele><time>2020-9-19T7:46:57Z</time></trkpt>
<trkpt lat="46.29117929376661777496337890625" lon="7.501403354108333587646484375"><ele></ele><time>2020-9-19T7:47:0Z</time></trkpt>
<trkpt lat="46.29115968011319637298583984375" lon="7.50143629498779773712158203125"><ele></ele><time>2020-9-19T7:47:3Z</time></trkpt>
<trkpt lat="46.291148029267787933349609375" lon="7.50146730802953243255615234375"><ele></ele><time>2020-9-19T7:47:6Z</time></trkpt>
<trkpt lat="46.29113352857530117034912109375" lon="7.50150150619447231292724609375"><ele></ele><time>2020-9-19T7:47:9Z</time></trkpt>
<trkpt lat="46.291100084781646728515625" lon="7.5015678070485591888427734375"><ele></ele><time>2020-9-19T7:47:12Z</time></trkpt>
<trkpt lat="46.29108407534658908843994140625" lon="7.50159840099513530731201171875"><ele></ele><time>2020-9-19T7:47:15Z</time></trkpt>
<trkpt lat="46.29104367457330226898193359375" lon="7.501658499240875244140625"><ele></ele><time>2020-9-19T7:47:18Z</time></trkpt>
<trkpt lat="46.29100830294191837310791015625" lon="7.5016777776181697845458984375"><ele></ele><time>2020-9-19T7:47:21Z</time></trkpt>
<trkpt lat="46.29098215140402317047119140625" lon="7.5016848184168338775634765625"><ele></ele><time>2020-9-19T7:47:24Z</time></trkpt>
<trkpt lat="46.2909530662000179290771484375" lon="7.50168842263519763946533203125"><ele></ele><time>2020-9-19T7:47:27Z</time></trkpt>
<trkpt lat="46.2909124977886676788330078125" lon="7.50168859027326107025146484375"><ele></ele><time>2020-9-19T7:47:30Z</time></trkpt>
<trkpt lat="46.29086866043508052825927734375" lon="7.50167802907526493072509765625"><ele></ele><time>2020-9-19T7:47:33Z</time></trkpt>
<trkpt lat="46.29083429463207721710205078125" lon="7.50165975652635097503662109375"><ele></ele><time>2020-9-19T7:47:36Z</time></trkpt>
<trkpt lat="46.290783919394016265869140625" lon="7.5016626901924610137939453125"><ele></ele><time>2020-9-19T7:47:39Z</time></trkpt>
<trkpt lat="46.29074670374393463134765625" lon="7.5016496144235134124755859375"><ele></ele><time>2020-9-19T7:47:42Z</time></trkpt>
<trkpt lat="46.29067428410053253173828125" lon="7.501621283590793609619140625"><ele></ele><time>2020-9-19T7:47:45Z</time></trkpt>
<trkpt lat="46.29064033739268779754638671875" lon="7.50160879455506801605224609375"><ele></ele><time>2020-9-19T7:47:48Z</time></trkpt>
<trkpt lat="46.29059691913425922393798828125" lon="7.50160954892635345458984375"><ele></ele><time>2020-9-19T7:47:51Z</time></trkpt>
<trkpt lat="46.2905651517212390899658203125" lon="7.50159890390932559967041015625"><ele></ele><time>2020-9-19T7:47:54Z</time></trkpt>
<trkpt lat="46.2905326299369335174560546875" lon="7.50159219838678836822509765625"><ele></ele><time>2020-9-19T7:47:57Z</time></trkpt>
<trkpt lat="46.2904980964958667755126953125" lon="7.50159085728228092193603515625"><ele></ele><time>2020-9-19T7:48:0Z</time></trkpt>
<trkpt lat="46.2904655747115612030029296875" lon="7.501587755978107452392578125"><ele></ele><time>2020-9-19T7:48:3Z</time></trkpt>
<trkpt lat="46.29043514840304851531982421875" lon="7.50158230774104595184326171875"><ele></ele><time>2020-9-19T7:48:6Z</time></trkpt>
<trkpt lat="46.29040069878101348876953125" lon="7.5015842355787754058837890625"><ele></ele><time>2020-9-19T7:48:9Z</time></trkpt>
<trkpt lat="46.29036993719637393951416015625" lon="7.50158809125423431396484375"><ele></ele><time>2020-9-19T7:48:12Z</time></trkpt>
<trkpt lat="46.2903431989252567291259765625" lon="7.50159806571900844573974609375"><ele></ele><time>2020-9-19T7:48:15Z</time></trkpt>
<trkpt lat="46.29032115451991558074951171875" lon="7.5016070343554019927978515625"><ele></ele><time>2020-9-19T7:48:18Z</time></trkpt>
<trkpt lat="46.29029785282909870147705078125" lon="7.5016174279153347015380859375"><ele></ele><time>2020-9-19T7:48:21Z</time></trkpt>
<trkpt lat="46.2902727909386157989501953125" lon="7.50163477845489978790283203125"><ele></ele><time>2020-9-19T7:48:24Z</time></trkpt>
<trkpt lat="46.29024974070489406585693359375" lon="7.5016566552221775054931640625"><ele></ele><time>2020-9-19T7:48:27Z</time></trkpt>
<trkpt lat="46.2902308814227581024169921875" lon="7.50167123973369598388671875"><ele></ele><time>2020-9-19T7:48:30Z</time></trkpt>
<trkpt lat="46.29021168686449527740478515625" lon="7.501688338816165924072265625"><ele></ele><time>2020-9-19T7:48:33Z</time></trkpt>
<trkpt lat="46.290193498134613037109375" lon="7.50170342624187469482421875"><ele></ele><time>2020-9-19T7:48:36Z</time></trkpt>
<trkpt lat="46.2901671789586544036865234375" lon="7.50171708874404430389404296875"><ele></ele><time>2020-9-19T7:48:39Z</time></trkpt>
<trkpt lat="46.2901309691369533538818359375" lon="7.50173158943653106689453125"><ele></ele><time>2020-9-19T7:48:42Z</time></trkpt>
<trkpt lat="46.29005980677902698516845703125" lon="7.5017428211867809295654296875"><ele></ele><time>2020-9-19T7:48:45Z</time></trkpt>
<trkpt lat="46.29003449343144893646240234375" lon="7.50173117034137248992919921875"><ele></ele><time>2020-9-19T7:48:48Z</time></trkpt>
<trkpt lat="46.29001337103545665740966796875" lon="7.5017119757831096649169921875"><ele></ele><time>2020-9-19T7:48:51Z</time></trkpt>
<trkpt lat="46.28999476321041584014892578125" lon="7.50169730745255947113037109375"><ele></ele><time>2020-9-19T7:48:54Z</time></trkpt>
<trkpt lat="46.2899811007082462310791015625" lon="7.5016781128942966461181640625"><ele></ele><time>2020-9-19T7:48:57Z</time></trkpt>
<trkpt lat="46.28995536826550960540771484375" lon="7.5016724132001399993896484375"><ele></ele><time>2020-9-19T7:49:0Z</time></trkpt>
<trkpt lat="46.2899301387369632720947265625" lon="7.5016683898866176605224609375"><ele></ele><time>2020-9-19T7:49:3Z</time></trkpt>
<trkpt lat="46.28990088589489459991455078125" lon="7.501673586666584014892578125"><ele></ele><time>2020-9-19T7:49:6Z</time></trkpt>
<trkpt lat="46.28988127224147319793701171875" lon="7.50167015008628368377685546875"><ele></ele><time>2020-9-19T7:49:9Z</time></trkpt>
<trkpt lat="46.289865262806415557861328125" lon="7.5016539730131626129150390625"><ele></ele><time>2020-9-19T7:49:12Z</time></trkpt>
<trkpt lat="46.28984791226685047149658203125" lon="7.50163528136909008026123046875"><ele></ele><time>2020-9-19T7:49:15Z</time></trkpt>
<trkpt lat="46.2898275442421436309814453125" lon="7.50161357223987579345703125"><ele></ele><time>2020-9-19T7:49:18Z</time></trkpt>
<trkpt lat="46.28981136716902256011962890625" lon="7.5015869177877902984619140625"><ele></ele><time>2020-9-19T7:49:21Z</time></trkpt>
<trkpt lat="46.289796866476535797119140625" lon="7.50156487338244915008544921875"><ele></ele><time>2020-9-19T7:49:24Z</time></trkpt>
<trkpt lat="46.28977515734732151031494140625" lon="7.50154458917677402496337890625"><ele></ele><time>2020-9-19T7:49:27Z</time></trkpt>
<trkpt lat="46.28975562751293182373046875" lon="7.501530088484287261962890625"><ele></ele><time>2020-9-19T7:49:30Z</time></trkpt>
<trkpt lat="46.289741210639476776123046875" lon="7.50150469131767749786376953125"><ele></ele><time>2020-9-19T7:49:33Z</time></trkpt>
<trkpt lat="46.2897293083369731903076171875" lon="7.50147753395140171051025390625"><ele></ele><time>2020-9-19T7:49:36Z</time></trkpt>
<trkpt lat="46.2897165678441524505615234375" lon="7.501450292766094207763671875"><ele></ele><time>2020-9-19T7:49:39Z</time></trkpt>
<trkpt lat="46.2897026538848876953125" lon="7.5014266557991504669189453125"><ele></ele><time>2020-9-19T7:49:42Z</time></trkpt>
<trkpt lat="46.2896803580224514007568359375" lon="7.50141299329698085784912109375"><ele></ele><time>2020-9-19T7:49:45Z</time></trkpt>
<trkpt lat="46.2896525301039218902587890625" lon="7.50140612013638019561767578125"><ele></ele><time>2020-9-19T7:49:48Z</time></trkpt>
<trkpt lat="46.28962528891861438751220703125" lon="7.50140142627060413360595703125"><ele></ele><time>2020-9-19T7:49:51Z</time></trkpt>
<trkpt lat="46.289603412151336669921875" lon="7.50139321200549602508544921875"><ele></ele><time>2020-9-19T7:49:54Z</time></trkpt>
<trkpt lat="46.2895831279456615447998046875" lon="7.5013783760368824005126953125"><ele></ele><time>2020-9-19T7:49:57Z</time></trkpt>
<trkpt lat="46.2895650230348110198974609375" lon="7.501354403793811798095703125"><ele></ele><time>2020-9-19T7:50:0Z</time></trkpt>
<trkpt lat="46.28954851068556308746337890625" lon="7.5013254024088382720947265625"><ele></ele><time>2020-9-19T7:50:3Z</time></trkpt>
<trkpt lat="46.2895335070788860321044921875" lon="7.50129573047161102294921875"><ele></ele><time>2020-9-19T7:50:6Z</time></trkpt>
<trkpt lat="46.28952135331928730010986328125" lon="7.5012653879821300506591796875"><ele></ele><time>2020-9-19T7:50:9Z</time></trkpt>
<trkpt lat="46.2895120494067668914794921875" lon="7.501232363283634185791015625"><ele></ele><time>2020-9-19T7:50:12Z</time></trkpt>
<trkpt lat="46.28950475715100765228271484375" lon="7.50119942240417003631591796875"><ele></ele><time>2020-9-19T7:50:15Z</time></trkpt>
<trkpt lat="46.289496459066867828369140625" lon="7.50116857700049877166748046875"><ele></ele><time>2020-9-19T7:50:18Z</time></trkpt>
<trkpt lat="46.28948966972529888153076171875" lon="7.50113605521619319915771484375"><ele></ele><time>2020-9-19T7:50:21Z</time></trkpt>
<trkpt lat="46.28948514349758625030517578125" lon="7.501102946698665618896484375"><ele></ele><time>2020-9-19T7:50:24Z</time></trkpt>
<trkpt lat="46.2894788570702075958251953125" lon="7.50107453204691410064697265625"><ele></ele><time>2020-9-19T7:50:27Z</time></trkpt>
<trkpt lat="46.28947055898606777191162109375" lon="7.5010454468429088592529296875"><ele></ele><time>2020-9-19T7:50:30Z</time></trkpt>
<trkpt lat="46.289463602006435394287109375" lon="7.501020133495330810546875"><ele></ele><time>2020-9-19T7:50:33Z</time></trkpt>
<trkpt lat="46.28945530392229557037353515625" lon="7.50100228004157543182373046875"><ele></ele><time>2020-9-19T7:50:36Z</time></trkpt>
<trkpt lat="46.28945245407521724700927734375" lon="7.5009824149310588836669921875"><ele></ele><time>2020-9-19T7:50:39Z</time></trkpt>
<trkpt lat="46.289446167647838592529296875" lon="7.50096472911536693572998046875"><ele></ele><time>2020-9-19T7:50:42Z</time></trkpt>
<trkpt lat="46.28943954594433307647705078125" lon="7.50094947405159473419189453125"><ele></ele><time>2020-9-19T7:50:45Z</time></trkpt>
<trkpt lat="46.28943216986954212188720703125" lon="7.5009331293404102325439453125"><ele></ele><time>2020-9-19T7:50:48Z</time></trkpt>
<trkpt lat="46.28942781127989292144775390625" lon="7.50091678462922573089599609375"><ele></ele><time>2020-9-19T7:50:51Z</time></trkpt>
<trkpt lat="46.28942546434700489044189453125" lon="7.50089700333774089813232421875"><ele></ele><time>2020-9-19T7:50:54Z</time></trkpt>
<trkpt lat="46.28941792063415050506591796875" lon="7.50087336637079715728759765625"><ele></ele><time>2020-9-19T7:50:57Z</time></trkpt>
<trkpt lat="46.28941155038774013519287109375" lon="7.50084805302321910858154296875"><ele></ele><time>2020-9-19T7:51:0Z</time></trkpt>
<trkpt lat="46.2894007377326488494873046875" lon="7.50082324258983135223388671875"><ele></ele><time>2020-9-19T7:51:3Z</time></trkpt>
<trkpt lat="46.28938958980143070220947265625" lon="7.500799186527729034423828125"><ele></ele><time>2020-9-19T7:51:6Z</time></trkpt>
<trkpt lat="46.2893776036798954010009765625" lon="7.5007773935794830322265625"><ele></ele><time>2020-9-19T7:51:9Z</time></trkpt>
<trkpt lat="46.2893655337393283843994140625" lon="7.500754930078983306884765625"><ele></ele><time>2020-9-19T7:51:12Z</time></trkpt>
<trkpt lat="46.289327144622802734375" lon="7.50070455484092235565185546875"><ele></ele><time>2020-9-19T7:51:15Z</time></trkpt>
<trkpt lat="46.2893105484545230865478515625" lon="7.50068150460720062255859375"><ele></ele><time>2020-9-19T7:51:18Z</time></trkpt>
<trkpt lat="46.28929520957171916961669921875" lon="7.50065443105995655059814453125"><ele></ele><time>2020-9-19T7:51:21Z</time></trkpt>
<trkpt lat="46.2892800383269786834716796875" lon="7.50062995590269565582275390625"><ele></ele><time>2020-9-19T7:51:24Z</time></trkpt>
<trkpt lat="46.289267130196094512939453125" lon="7.50060682184994220733642578125"><ele></ele><time>2020-9-19T7:51:27Z</time></trkpt>
<trkpt lat="46.28926168195903301239013671875" lon="7.500582598149776458740234375"><ele></ele><time>2020-9-19T7:51:30Z</time></trkpt>
<trkpt lat="46.28925363533198833465576171875" lon="7.50056072138249874114990234375"><ele></ele><time>2020-9-19T7:51:33Z</time></trkpt>
<trkpt lat="46.28924324177205562591552734375" lon="7.50053959898650646209716796875"><ele></ele><time>2020-9-19T7:51:36Z</time></trkpt>
<trkpt lat="46.2892304174602031707763671875" lon="7.500519566237926483154296875"><ele></ele><time>2020-9-19T7:51:39Z</time></trkpt>
<trkpt lat="46.28921926952898502349853515625" lon="7.50049886293709278106689453125"><ele></ele><time>2020-9-19T7:51:42Z</time></trkpt>
<trkpt lat="46.2892056070268154144287109375" lon="7.5004756450653076171875"><ele></ele><time>2020-9-19T7:51:45Z</time></trkpt>
<trkpt lat="46.28919236361980438232421875" lon="7.50045276246964931488037109375"><ele></ele><time>2020-9-19T7:51:48Z</time></trkpt>
<trkpt lat="46.28917283378541469573974609375" lon="7.5004409439861774444580078125"><ele></ele><time>2020-9-19T7:51:51Z</time></trkpt>
<trkpt lat="46.2891509570181369781494140625" lon="7.5004335679113864898681640625"><ele></ele><time>2020-9-19T7:51:54Z</time></trkpt>
<trkpt lat="46.28913335502147674560546875" lon="7.5004211626946926116943359375"><ele></ele><time>2020-9-19T7:51:57Z</time></trkpt>
<trkpt lat="46.289115585386753082275390625" lon="7.50040414743125438690185546875"><ele></ele><time>2020-9-19T7:52:0Z</time></trkpt>
<trkpt lat="46.28909270279109477996826171875" lon="7.5003879703581333160400390625"><ele></ele><time>2020-9-19T7:52:3Z</time></trkpt>
<trkpt lat="46.28907543607056140899658203125" lon="7.5003725476562976837158203125"><ele></ele><time>2020-9-19T7:52:6Z</time></trkpt>
<trkpt lat="46.28905548714101314544677734375" lon="7.50035963952541351318359375"><ele></ele><time>2020-9-19T7:52:9Z</time></trkpt>
<trkpt lat="46.28903302364051342010498046875" lon="7.50034916214644908905029296875"><ele></ele><time>2020-9-19T7:52:12Z</time></trkpt>
<trkpt lat="46.289010308682918548583984375" lon="7.50034220516681671142578125"><ele></ele><time>2020-9-19T7:52:15Z</time></trkpt>
<trkpt lat="46.28898843191564083099365234375" lon="7.5003356672823429107666015625"><ele></ele><time>2020-9-19T7:52:18Z</time></trkpt>
<trkpt lat="46.28896529786288738250732421875" lon="7.50032619573175907135009765625"><ele></ele><time>2020-9-19T7:52:21Z</time></trkpt>
<trkpt lat="46.2889105640351772308349609375" lon="7.5003051571547985076904296875"><ele></ele><time>2020-9-19T7:52:24Z</time></trkpt>
<trkpt lat="46.28888818435370922088623046875" lon="7.50028990209102630615234375"><ele></ele><time>2020-9-19T7:52:27Z</time></trkpt>
<trkpt lat="46.28886991180479526519775390625" lon="7.5002766586840152740478515625"><ele></ele><time>2020-9-19T7:52:30Z</time></trkpt>
<trkpt lat="46.28885147161781787872314453125" lon="7.5002642534673213958740234375"><ele></ele><time>2020-9-19T7:52:33Z</time></trkpt>
<trkpt lat="46.28883001394569873809814453125" lon="7.5002521835267543792724609375"><ele></ele><time>2020-9-19T7:52:36Z</time></trkpt>
<trkpt lat="46.28881123848259449005126953125" lon="7.500239275395870208740234375"><ele></ele><time>2020-9-19T7:52:39Z</time></trkpt>
<trkpt lat="46.2887888588011264801025390625" lon="7.50023365952074527740478515625"><ele></ele><time>2020-9-19T7:52:42Z</time></trkpt>
<trkpt lat="46.2887697480618953704833984375" lon="7.50022611580789089202880859375"><ele></ele><time>2020-9-19T7:52:45Z</time></trkpt>
<trkpt lat="46.2887479551136493682861328125" lon="7.50021656043827533721923828125"><ele></ele><time>2020-9-19T7:52:48Z</time></trkpt>
<trkpt lat="46.288723312318325042724609375" lon="7.5002092681825160980224609375"><ele></ele><time>2020-9-19T7:52:51Z</time></trkpt>
<trkpt lat="46.2887016870081424713134765625" lon="7.50019761733710765838623046875"><ele></ele><time>2020-9-19T7:52:54Z</time></trkpt>
<trkpt lat="46.288686096668243408203125" lon="7.5001831166446208953857421875"><ele></ele><time>2020-9-19T7:52:57Z</time></trkpt>
<trkpt lat="46.2886701710522174835205078125" lon="7.50016911886632442474365234375"><ele></ele><time>2020-9-19T7:53:0Z</time></trkpt>
<trkpt lat="46.28865432925522327423095703125" lon="7.500156126916408538818359375"><ele></ele><time>2020-9-19T7:53:3Z</time></trkpt>
<trkpt lat="46.28863287158310413360595703125" lon="7.50014632008969783782958984375"><ele></ele><time>2020-9-19T7:53:6Z</time></trkpt>
<trkpt lat="46.28861610777676105499267578125" lon="7.50012855045497417449951171875"><ele></ele><time>2020-9-19T7:53:9Z</time></trkpt>
<trkpt lat="46.28860504366457462310791015625" lon="7.50010692514479160308837890625"><ele></ele><time>2020-9-19T7:53:12Z</time></trkpt>
<trkpt lat="46.2885913811624050140380859375" lon="7.5000858865678310394287109375"><ele></ele><time>2020-9-19T7:53:15Z</time></trkpt>
<trkpt lat="46.28858190961182117462158203125" lon="7.50006048940122127532958984375"><ele></ele><time>2020-9-19T7:53:18Z</time></trkpt>
<trkpt lat="46.2885732762515544891357421875" lon="7.50003098510205745697021484375"><ele></ele><time>2020-9-19T7:53:21Z</time></trkpt>
<trkpt lat="46.288563050329685211181640625" lon="7.50000047497451305389404296875"><ele></ele><time>2020-9-19T7:53:24Z</time></trkpt>
<trkpt lat="46.288553662598133087158203125" lon="7.49996275641024112701416015625"><ele></ele><time>2020-9-19T7:53:27Z</time></trkpt>
<trkpt lat="46.28855039365589618682861328125" lon="7.49991707503795623779296875"><ele></ele><time>2020-9-19T7:53:30Z</time></trkpt>
<trkpt lat="46.28855207003653049468994140625" lon="7.499861419200897216796875"><ele></ele><time>2020-9-19T7:53:33Z</time></trkpt>
<trkpt lat="46.2885548360645771026611328125" lon="7.4998032487928867340087890625"><ele></ele><time>2020-9-19T7:53:36Z</time></trkpt>
<trkpt lat="46.28856481052935123443603515625" lon="7.49962563626468181610107421875"><ele></ele><time>2020-9-19T7:53:39Z</time></trkpt>
<trkpt lat="46.28857009112834930419921875" lon="7.49955941922962665557861328125"><ele></ele><time>2020-9-19T7:53:42Z</time></trkpt>
<trkpt lat="46.28857788629829883575439453125" lon="7.49949772842228412628173828125"><ele></ele><time>2020-9-19T7:53:45Z</time></trkpt>
<trkpt lat="46.288579814136028289794921875" lon="7.499442659318447113037109375"><ele></ele><time>2020-9-19T7:53:48Z</time></trkpt>
<trkpt lat="46.2885779701173305511474609375" lon="7.49938943423330783843994140625"><ele></ele><time>2020-9-19T7:53:51Z</time></trkpt>
<trkpt lat="46.28857537172734737396240234375" lon="7.499342747032642364501953125"><ele></ele><time>2020-9-19T7:53:54Z</time></trkpt>
<trkpt lat="46.28857151605188846588134765625" lon="7.49929974786937236785888671875"><ele></ele><time>2020-9-19T7:53:57Z</time></trkpt>
<trkpt lat="46.28856615163385868072509765625" lon="7.49926622025668621063232421875"><ele></ele><time>2020-9-19T7:54:0Z</time></trkpt>
<trkpt lat="46.28856413997709751129150390625" lon="7.49922783114016056060791015625"><ele></ele><time>2020-9-19T7:54:3Z</time></trkpt>
<trkpt lat="46.28855056129395961761474609375" lon="7.4991813115775585174560546875"><ele></ele><time>2020-9-19T7:54:6Z</time></trkpt>
<trkpt lat="46.28852524794638156890869140625" lon="7.49914417974650859832763671875"><ele></ele><time>2020-9-19T7:54:9Z</time></trkpt>
<trkpt lat="46.28850144334137439727783203125" lon="7.4991197884082794189453125"><ele></ele><time>2020-9-19T7:54:12Z</time></trkpt>
<trkpt lat="46.288481242954730987548828125" lon="7.49910227023065090179443359375"><ele></ele><time>2020-9-19T7:54:15Z</time></trkpt>
<trkpt lat="46.28846288658678531646728515625" lon="7.49908014200627803802490234375"><ele></ele><time>2020-9-19T7:54:18Z</time></trkpt>
<trkpt lat="46.2884381599724292755126953125" lon="7.49904728494584560394287109375"><ele></ele><time>2020-9-19T7:54:21Z</time></trkpt>
<trkpt lat="46.28841075114905834197998046875" lon="7.49900504015386104583740234375"><ele></ele><time>2020-9-19T7:54:24Z</time></trkpt>
<trkpt lat="46.2883962504565715789794921875" lon="7.49896195717155933380126953125"><ele></ele><time>2020-9-19T7:54:27Z</time></trkpt>
<trkpt lat="46.28839516080915927886962890625" lon="7.4989231489598751068115234375"><ele></ele><time>2020-9-19T7:54:30Z</time></trkpt>
<trkpt lat="46.28840421326458454132080078125" lon="7.4988815747201442718505859375"><ele></ele><time>2020-9-19T7:54:33Z</time></trkpt>
<trkpt lat="46.288417540490627288818359375" lon="7.4988389946520328521728515625"><ele></ele><time>2020-9-19T7:54:36Z</time></trkpt>
<trkpt lat="46.28842164762318134307861328125" lon="7.4988031201064586639404296875"><ele></ele><time>2020-9-19T7:54:39Z</time></trkpt>
<trkpt lat="46.2884076498448848724365234375" lon="7.49876783229410648345947265625"><ele></ele><time>2020-9-19T7:54:42Z</time></trkpt>
<trkpt lat="46.28838459961116313934326171875" lon="7.4987410940229892730712890625"><ele></ele><time>2020-9-19T7:54:45Z</time></trkpt>
<trkpt lat="46.28836582414805889129638671875" lon="7.4987203069031238555908203125"><ele></ele><time>2020-9-19T7:54:48Z</time></trkpt>
<trkpt lat="46.28834570758044719696044921875" lon="7.4987055547535419464111328125"><ele></ele><time>2020-9-19T7:54:51Z</time></trkpt>
<trkpt lat="46.28832408227026462554931640625" lon="7.498691976070404052734375"><ele></ele><time>2020-9-19T7:54:54Z</time></trkpt>
<trkpt lat="46.2883023731410503387451171875" lon="7.4986772239208221435546875"><ele></ele><time>2020-9-19T7:54:57Z</time></trkpt>
<trkpt lat="46.28828217275440692901611328125" lon="7.49866339378058910369873046875"><ele></ele><time>2020-9-19T7:55:0Z</time></trkpt>
<trkpt lat="46.28826322965323925018310546875" lon="7.4986515752971172332763671875"><ele></ele><time>2020-9-19T7:55:3Z</time></trkpt>
<trkpt lat="46.2882426939904689788818359375" lon="7.4986411817371845245361328125"><ele></ele><time>2020-9-19T7:55:6Z</time></trkpt>
<trkpt lat="46.288223080337047576904296875" lon="7.4986297823488712310791015625"><ele></ele><time>2020-9-19T7:55:9Z</time></trkpt>
<trkpt lat="46.288205645978450775146484375" lon="7.498618550598621368408203125"><ele></ele><time>2020-9-19T7:55:12Z</time></trkpt>
<trkpt lat="46.28818829543888568878173828125" lon="7.49860572628676891326904296875"><ele></ele><time>2020-9-19T7:55:15Z</time></trkpt>
<trkpt lat="46.288168430328369140625" lon="7.49859273433685302734375"><ele></ele><time>2020-9-19T7:55:18Z</time></trkpt>
<trkpt lat="46.28814873285591602325439453125" lon="7.49857773073017597198486328125"><ele></ele><time>2020-9-19T7:55:21Z</time></trkpt>
<trkpt lat="46.28812543116509914398193359375" lon="7.4985618889331817626953125"><ele></ele><time>2020-9-19T7:55:24Z</time></trkpt>
<trkpt lat="46.28810598514974117279052734375" lon="7.49854286201298236846923828125"><ele></ele><time>2020-9-19T7:55:27Z</time></trkpt>
<trkpt lat="46.2880861200392246246337890625" lon="7.49852593056857585906982421875"><ele></ele><time>2020-9-19T7:55:30Z</time></trkpt>
<trkpt lat="46.288062147796154022216796875" lon="7.49851469881832599639892578125"><ele></ele><time>2020-9-19T7:55:33Z</time></trkpt>
<trkpt lat="46.2880462221801280975341796875" lon="7.498497180640697479248046875"><ele></ele><time>2020-9-19T7:55:36Z</time></trkpt>
<trkpt lat="46.28802618943154811859130859375" lon="7.49848335050046443939208984375"><ele></ele><time>2020-9-19T7:55:39Z</time></trkpt>
<trkpt lat="46.28800406120717525482177734375" lon="7.498469017446041107177734375"><ele></ele><time>2020-9-19T7:55:42Z</time></trkpt>
<trkpt lat="46.287983357906341552734375" lon="7.4984540976583957672119140625"><ele></ele><time>2020-9-19T7:55:45Z</time></trkpt>
<trkpt lat="46.28796366043388843536376953125" lon="7.49844378791749477386474609375"><ele></ele><time>2020-9-19T7:55:48Z</time></trkpt>
<trkpt lat="46.2879444658756256103515625" lon="7.49843188561499118804931640625"><ele></ele><time>2020-9-19T7:55:51Z</time></trkpt>
<trkpt lat="46.2879228405654430389404296875" lon="7.49841864220798015594482421875"><ele></ele><time>2020-9-19T7:55:54Z</time></trkpt>
<trkpt lat="46.28790297545492649078369140625" lon="7.498404644429683685302734375"><ele></ele><time>2020-9-19T7:55:57Z</time></trkpt>
<trkpt lat="46.2878881394863128662109375" lon="7.49838880263268947601318359375"><ele></ele><time>2020-9-19T7:56:0Z</time></trkpt>
<trkpt lat="46.2878745608031749725341796875" lon="7.498369775712490081787109375"><ele></ele><time>2020-9-19T7:56:3Z</time></trkpt>
<trkpt lat="46.28786265850067138671875" lon="7.4983538500964641571044921875"><ele></ele><time>2020-9-19T7:56:6Z</time></trkpt>
<trkpt lat="46.2878507561981678009033203125" lon="7.498337589204311370849609375"><ele></ele><time>2020-9-19T7:56:9Z</time></trkpt>
<trkpt lat="46.28783642314374446868896484375" lon="7.4983223341405391693115234375"><ele></ele><time>2020-9-19T7:56:12Z</time></trkpt>
<trkpt lat="46.28782401792705059051513671875" lon="7.49830699525773525238037109375"><ele></ele><time>2020-9-19T7:56:15Z</time></trkpt>
<trkpt lat="46.287810690701007843017578125" lon="7.4982904829084873199462890625"><ele></ele><time>2020-9-19T7:56:18Z</time></trkpt>
<trkpt lat="46.28779719583690166473388671875" lon="7.498273551464080810546875"><ele></ele><time>2020-9-19T7:56:21Z</time></trkpt>
<trkpt lat="46.28778244368731975555419921875" lon="7.49825636856257915496826171875"><ele></ele><time>2020-9-19T7:56:24Z</time></trkpt>
<trkpt lat="46.2877696193754673004150390625" lon="7.498234994709491729736328125"><ele></ele><time>2020-9-19T7:56:27Z</time></trkpt>
<trkpt lat="46.2877605669200420379638671875" lon="7.49821093864738941192626953125"><ele></ele><time>2020-9-19T7:56:30Z</time></trkpt>
<trkpt lat="46.287746988236904144287109375" lon="7.4981831945478916168212890625"><ele></ele><time>2020-9-19T7:56:33Z</time></trkpt>
<trkpt lat="46.2877096049487590789794921875" lon="7.49811706133186817169189453125"><ele></ele><time>2020-9-19T7:56:36Z</time></trkpt>
<trkpt lat="46.28769828937947750091552734375" lon="7.4980856291949748992919921875"><ele></ele><time>2020-9-19T7:56:39Z</time></trkpt>
<trkpt lat="46.28768806345760822296142578125" lon="7.4980557896196842193603515625"><ele></ele><time>2020-9-19T7:56:42Z</time></trkpt>
<trkpt lat="46.28767750225961208343505859375" lon="7.498027123510837554931640625"><ele></ele><time>2020-9-19T7:56:45Z</time></trkpt>
<trkpt lat="46.28767012618482112884521484375" lon="7.49799954704940319061279296875"><ele></ele><time>2020-9-19T7:56:48Z</time></trkpt>
<trkpt lat="46.28765990026295185089111328125" lon="7.4979733116924762725830078125"><ele></ele><time>2020-9-19T7:56:51Z</time></trkpt>
<trkpt lat="46.287650428712368011474609375" lon="7.4979474954307079315185546875"><ele></ele><time>2020-9-19T7:56:54Z</time></trkpt>
<trkpt lat="46.2876459024846553802490234375" lon="7.497919164597988128662109375"><ele></ele><time>2020-9-19T7:56:57Z</time></trkpt>
<trkpt lat="46.287639029324054718017578125" lon="7.4978901632130146026611328125"><ele></ele><time>2020-9-19T7:57:0Z</time></trkpt>
<trkpt lat="46.28763089887797832489013671875" lon="7.49786342494189739227294921875"><ele></ele><time>2020-9-19T7:57:3Z</time></trkpt>
<trkpt lat="46.28762218169867992401123046875" lon="7.4978365190327167510986328125"><ele></ele><time>2020-9-19T7:57:6Z</time></trkpt>
<trkpt lat="46.28761396743357181549072265625" lon="7.49780751764774322509765625"><ele></ele><time>2020-9-19T7:57:9Z</time></trkpt>
<trkpt lat="46.28760474734008312225341796875" lon="7.4977801926434040069580078125"><ele></ele><time>2020-9-19T7:57:12Z</time></trkpt>
<trkpt lat="46.28759644925594329833984375" lon="7.497752867639064788818359375"><ele></ele><time>2020-9-19T7:57:15Z</time></trkpt>
<trkpt lat="46.28758907318115234375" lon="7.49772445298731327056884765625"><ele></ele><time>2020-9-19T7:57:18Z</time></trkpt>
<trkpt lat="46.2875796854496002197265625" lon="7.49769687652587890625"><ele></ele><time>2020-9-19T7:57:21Z</time></trkpt>
<trkpt lat="46.287566609680652618408203125" lon="7.49766829423606395721435546875"><ele></ele><time>2020-9-19T7:57:24Z</time></trkpt>
<trkpt lat="46.28755227662622928619384765625" lon="7.4976413883268833160400390625"><ele></ele><time>2020-9-19T7:57:27Z</time></trkpt>
<trkpt lat="46.28754020668566226959228515625" lon="7.49761532060801982879638671875"><ele></ele><time>2020-9-19T7:57:30Z</time></trkpt>
<trkpt lat="46.28752562217414379119873046875" lon="7.49759336002171039581298828125"><ele></ele><time>2020-9-19T7:57:33Z</time></trkpt>
<trkpt lat="46.287511289119720458984375" lon="7.49757374636828899383544921875"><ele></ele><time>2020-9-19T7:57:36Z</time></trkpt>
<trkpt lat="46.28749854862689971923828125" lon="7.49755061231553554534912109375"><ele></ele><time>2020-9-19T7:57:39Z</time></trkpt>
<trkpt lat="46.28748513758182525634765625" lon="7.497527897357940673828125"><ele></ele><time>2020-9-19T7:57:42Z</time></trkpt>
<trkpt lat="46.28747013397514820098876953125" lon="7.49750442802906036376953125"><ele></ele><time>2020-9-19T7:57:45Z</time></trkpt>
<trkpt lat="46.28745437599718570709228515625" lon="7.49748154543340206146240234375"><ele></ele><time>2020-9-19T7:57:48Z</time></trkpt>
<trkpt lat="46.2874420545995235443115234375" lon="7.49745774082839488983154296875"><ele></ele><time>2020-9-19T7:57:51Z</time></trkpt>
<trkpt lat="46.28742855973541736602783203125" lon="7.49743712134659290313720703125"><ele></ele><time>2020-9-19T7:57:54Z</time></trkpt>
<trkpt lat="46.28741598688066005706787109375" lon="7.49741616658866405487060546875"><ele></ele><time>2020-9-19T7:57:57Z</time></trkpt>
<trkpt lat="46.2874008156359195709228515625" lon="7.497394122183322906494140625"><ele></ele><time>2020-9-19T7:58:0Z</time></trkpt>
<trkpt lat="46.28738455474376678466796875" lon="7.49737157486379146575927734375"><ele></ele><time>2020-9-19T7:58:3Z</time></trkpt>
<trkpt lat="46.28737139515578746795654296875" lon="7.497345171868801116943359375"><ele></ele><time>2020-9-19T7:58:6Z</time></trkpt>
<trkpt lat="46.28735781647264957427978515625" lon="7.497318349778652191162109375"><ele></ele><time>2020-9-19T7:58:9Z</time></trkpt>
<trkpt lat="46.28734432160854339599609375" lon="7.49729345552623271942138671875"><ele></ele><time>2020-9-19T7:58:12Z</time></trkpt>
<trkpt lat="46.28732931800186634063720703125" lon="7.49726931564509868621826171875"><ele></ele><time>2020-9-19T7:58:15Z</time></trkpt>
<trkpt lat="46.28731758333742618560791015625" lon="7.4972471036016941070556640625"><ele></ele><time>2020-9-19T7:58:18Z</time></trkpt>
<trkpt lat="46.28730802796781063079833984375" lon="7.497225813567638397216796875"><ele></ele><time>2020-9-19T7:58:21Z</time></trkpt>
<trkpt lat="46.28729612566530704498291015625" lon="7.4972015060484409332275390625"><ele></ele><time>2020-9-19T7:58:24Z</time></trkpt>
<trkpt lat="46.28728690557181835174560546875" lon="7.49717778526246547698974609375"><ele></ele><time>2020-9-19T7:58:27Z</time></trkpt>
<trkpt lat="46.287274919450283050537109375" lon="7.49715683050453662872314453125"><ele></ele><time>2020-9-19T7:58:30Z</time></trkpt>
<trkpt lat="46.28726025111973285675048828125" lon="7.49713570810854434967041015625"><ele></ele><time>2020-9-19T7:58:33Z</time></trkpt>
<trkpt lat="46.28724650479853153228759765625" lon="7.497111149132251739501953125"><ele></ele><time>2020-9-19T7:58:36Z</time></trkpt>
<trkpt lat="46.28722990863025188446044921875" lon="7.49708868563175201416015625"><ele></ele><time>2020-9-19T7:58:39Z</time></trkpt>
<trkpt lat="46.2872177548706531524658203125" lon="7.49706462956964969635009765625"><ele></ele><time>2020-9-19T7:58:42Z</time></trkpt>
<trkpt lat="46.28720191307365894317626953125" lon="7.497044093906879425048828125"><ele></ele><time>2020-9-19T7:58:45Z</time></trkpt>
<trkpt lat="46.28718883730471134185791015625" lon="7.49701903201639652252197265625"><ele></ele><time>2020-9-19T7:58:48Z</time></trkpt>
<trkpt lat="46.28717626444995403289794921875" lon="7.49699187465012073516845703125"><ele></ele><time>2020-9-19T7:58:51Z</time></trkpt>
<trkpt lat="46.28715916536748409271240234375" lon="7.4969668127596378326416015625"><ele></ele><time>2020-9-19T7:58:54Z</time></trkpt>
<trkpt lat="46.28714357502758502960205078125" lon="7.49694409780204296112060546875"><ele></ele><time>2020-9-19T7:58:57Z</time></trkpt>
<trkpt lat="46.2871290743350982666015625" lon="7.49691945500671863555908203125"><ele></ele><time>2020-9-19T7:59:0Z</time></trkpt>
<trkpt lat="46.28711557947099208831787109375" lon="7.496895901858806610107421875"><ele></ele><time>2020-9-19T7:59:3Z</time></trkpt>
<trkpt lat="46.28709831275045871734619140625" lon="7.49687218107283115386962890625"><ele></ele><time>2020-9-19T7:59:6Z</time></trkpt>
<trkpt lat="46.287084482610225677490234375" lon="7.49684837646782398223876953125"><ele></ele><time>2020-9-19T7:59:9Z</time></trkpt>
<trkpt lat="46.2870621867477893829345703125" lon="7.49682725407183170318603515625"><ele></ele><time>2020-9-19T7:59:12Z</time></trkpt>
<trkpt lat="46.28704584203660488128662109375" lon="7.49680613167583942413330078125"><ele></ele><time>2020-9-19T7:59:15Z</time></trkpt>
<trkpt lat="46.28703075461089611053466796875" lon="7.49678769148886203765869140625"><ele></ele><time>2020-9-19T7:59:18Z</time></trkpt>
<trkpt lat="46.28701700828969478607177734375" lon="7.49676623381674289703369140625"><ele></ele><time>2020-9-19T7:59:21Z</time></trkpt>
<trkpt lat="46.28699588589370250701904296875" lon="7.49674008227884769439697265625"><ele></ele><time>2020-9-19T7:59:24Z</time></trkpt>
<trkpt lat="46.28697191365063190460205078125" lon="7.49671518802642822265625"><ele></ele><time>2020-9-19T7:59:27Z</time></trkpt>
<trkpt lat="46.28690519370138645172119140625" lon="7.49667101539671421051025390625"><ele></ele><time>2020-9-19T7:59:30Z</time></trkpt>
<trkpt lat="46.28686144016683101654052734375" lon="7.49665492214262485504150390625"><ele></ele><time>2020-9-19T7:59:33Z</time></trkpt>
<trkpt lat="46.28681701608002185821533203125" lon="7.49663363210856914520263671875"><ele></ele><time>2020-9-19T7:59:36Z</time></trkpt>
<trkpt lat="46.28677594475448131561279296875" lon="7.4966124258935451507568359375"><ele></ele><time>2020-9-19T7:59:39Z</time></trkpt>
<trkpt lat="46.28673990257084369659423828125" lon="7.4965913034975528717041015625"><ele></ele><time>2020-9-19T7:59:42Z</time></trkpt>
<trkpt lat="46.286708302795886993408203125" lon="7.4965725280344486236572265625"><ele></ele><time>2020-9-19T7:59:45Z</time></trkpt>
<trkpt lat="46.28668290562927722930908203125" lon="7.496546544134616851806640625"><ele></ele><time>2020-9-19T7:59:48Z</time></trkpt>
<trkpt lat="46.286660023033618927001953125" lon="7.49651712365448474884033203125"><ele></ele><time>2020-9-19T7:59:51Z</time></trkpt>
<trkpt lat="46.28664015792310237884521484375" lon="7.4964860267937183380126953125"><ele></ele><time>2020-9-19T7:59:54Z</time></trkpt>
<trkpt lat="46.28662406466901302337646484375" lon="7.4964511580765247344970703125"><ele></ele><time>2020-9-19T7:59:57Z</time></trkpt>
<trkpt lat="46.2866082228720188140869140625" lon="7.49641469679772853851318359375"><ele></ele><time>2020-9-19T8:0:0Z</time></trkpt>
<trkpt lat="46.28659221343696117401123046875" lon="7.49638033099472522735595703125"><ele></ele><time>2020-9-19T8:0:3Z</time></trkpt>
<trkpt lat="46.286577545106410980224609375" lon="7.49634495936334133148193359375"><ele></ele><time>2020-9-19T8:0:6Z</time></trkpt>
<trkpt lat="46.2865622900426387786865234375" lon="7.49631059356033802032470703125"><ele></ele><time>2020-9-19T8:0:9Z</time></trkpt>
<trkpt lat="46.286546699702739715576171875" lon="7.4962758086621761322021484375"><ele></ele><time>2020-9-19T8:0:12Z</time></trkpt>
<trkpt lat="46.28653320483863353729248046875" lon="7.49624286778271198272705078125"><ele></ele><time>2020-9-19T8:0:15Z</time></trkpt>
<trkpt lat="46.2865203805267810821533203125" lon="7.49621219001710414886474609375"><ele></ele><time>2020-9-19T8:0:18Z</time></trkpt>
<trkpt lat="46.28650772385299205780029296875" lon="7.49618151225149631500244140625"><ele></ele><time>2020-9-19T8:0:21Z</time></trkpt>
<trkpt lat="46.2864952348172664642333984375" lon="7.49614966101944446563720703125"><ele></ele><time>2020-9-19T8:0:24Z</time></trkpt>
<trkpt lat="46.2864798121154308319091796875" lon="7.4961199052631855010986328125"><ele></ele><time>2020-9-19T8:0:27Z</time></trkpt>
<trkpt lat="46.28646614961326122283935546875" lon="7.49609048478305339813232421875"><ele></ele><time>2020-9-19T8:0:30Z</time></trkpt>
<trkpt lat="46.2864513136446475982666015625" lon="7.4960612319409847259521484375"><ele></ele><time>2020-9-19T8:0:33Z</time></trkpt>
<trkpt lat="46.28643832169473171234130859375" lon="7.49603130854666233062744140625"><ele></ele><time>2020-9-19T8:0:36Z</time></trkpt>
<trkpt lat="46.28642566502094268798828125" lon="7.49600230716168880462646484375"><ele></ele><time>2020-9-19T8:0:39Z</time></trkpt>
<trkpt lat="46.286411248147487640380859375" lon="7.4959737248718738555908203125"><ele></ele><time>2020-9-19T8:0:42Z</time></trkpt>
<trkpt lat="46.2863966636359691619873046875" lon="7.4959458969533443450927734375"><ele></ele><time>2020-9-19T8:0:45Z</time></trkpt>
<trkpt lat="46.2863829173147678375244140625" lon="7.49591764993965625762939453125"><ele></ele><time>2020-9-19T8:0:48Z</time></trkpt>
<trkpt lat="46.28636975772678852081298828125" lon="7.49588998965919017791748046875"><ele></ele><time>2020-9-19T8:0:51Z</time></trkpt>
<trkpt lat="46.28635684959590435028076171875" lon="7.49586283229291439056396484375"><ele></ele><time>2020-9-19T8:0:54Z</time></trkpt>
<trkpt lat="46.2863426841795444488525390625" lon="7.495836429297924041748046875"><ele></ele><time>2020-9-19T8:0:57Z</time></trkpt>
<trkpt lat="46.2863282673060894012451171875" lon="7.49580885283648967742919921875"><ele></ele><time>2020-9-19T8:1:0Z</time></trkpt>
<trkpt lat="46.28631577827036380767822265625" lon="7.4957799352705478668212890625"><ele></ele><time>2020-9-19T8:1:3Z</time></trkpt>
<trkpt lat="46.28630169667303562164306640625" lon="7.4957504309713840484619140625"><ele></ele><time>2020-9-19T8:1:6Z</time></trkpt>
<trkpt lat="46.28628761507570743560791015625" lon="7.495721094310283660888671875"><ele></ele><time>2020-9-19T8:1:9Z</time></trkpt>
<trkpt lat="46.28627277910709381103515625" lon="7.4956907518208026885986328125"><ele></ele><time>2020-9-19T8:1:12Z</time></trkpt>
<trkpt lat="46.28625660203397274017333984375" lon="7.49565915204584598541259765625"><ele></ele><time>2020-9-19T8:1:15Z</time></trkpt>
<trkpt lat="46.28624059259891510009765625" lon="7.49562713317573070526123046875"><ele></ele><time>2020-9-19T8:1:18Z</time></trkpt>
<trkpt lat="46.2862250022590160369873046875" lon="7.4955948628485202789306640625"><ele></ele><time>2020-9-19T8:1:21Z</time></trkpt>
<trkpt lat="46.28620966337621212005615234375" lon="7.49556259252130985260009765625"><ele></ele><time>2020-9-19T8:1:24Z</time></trkpt>
<trkpt lat="46.286192648112773895263671875" lon="7.49552990309894084930419921875"><ele></ele><time>2020-9-19T8:1:27Z</time></trkpt>
<trkpt lat="46.28617479465901851654052734375" lon="7.4954956211149692535400390625"><ele></ele><time>2020-9-19T8:1:30Z</time></trkpt>
<trkpt lat="46.2861572764813899993896484375" lon="7.49545882456004619598388671875"><ele></ele><time>2020-9-19T8:1:33Z</time></trkpt>
<trkpt lat="46.28601386211812496185302734375" lon="7.49512891285121440887451171875"><ele></ele><time>2020-9-19T8:1:36Z</time></trkpt>
<trkpt lat="46.285995505750179290771484375" lon="7.49508365057408809661865234375"><ele></ele><time>2020-9-19T8:1:39Z</time></trkpt>
<trkpt lat="46.285976730287075042724609375" lon="7.4950369633734226226806640625"><ele></ele><time>2020-9-19T8:1:42Z</time></trkpt>
<trkpt lat="46.28595854155719280242919921875" lon="7.49498851597309112548828125"><ele></ele><time>2020-9-19T8:1:45Z</time></trkpt>
<trkpt lat="46.2859423644840717315673828125" lon="7.4949383921921253204345703125"><ele></ele><time>2020-9-19T8:1:48Z</time></trkpt>
<trkpt lat="46.28592669032514095306396484375" lon="7.494886256754398345947265625"><ele></ele><time>2020-9-19T8:1:51Z</time></trkpt>
<trkpt lat="46.2859115190804004669189453125" lon="7.49483437277376651763916015625"><ele></ele><time>2020-9-19T8:1:54Z</time></trkpt>
<trkpt lat="46.285879500210285186767578125" lon="7.49473035335540771484375"><ele></ele><time>2020-9-19T8:1:57Z</time></trkpt>
<trkpt lat="46.28585745580494403839111328125" lon="7.49467796646058559417724609375"><ele></ele><time>2020-9-19T8:2:0Z</time></trkpt>
<trkpt lat="46.28577263094484806060791015625" lon="7.49451401643455028533935546875"><ele></ele><time>2020-9-19T8:2:3Z</time></trkpt>
<trkpt lat="46.2857321463525295257568359375" lon="7.49447093345224857330322265625"><ele></ele><time>2020-9-19T8:2:6Z</time></trkpt>
<trkpt lat="46.2856833636760711669921875" lon="7.4944338016211986541748046875"><ele></ele><time>2020-9-19T8:2:9Z</time></trkpt>
<trkpt lat="46.2856275402009487152099609375" lon="7.49440915882587432861328125"><ele></ele><time>2020-9-19T8:2:12Z</time></trkpt>
<trkpt lat="46.2855613231658935546875" lon="7.4943915568292140960693359375"><ele></ele><time>2020-9-19T8:2:15Z</time></trkpt>
<trkpt lat="46.28548823297023773193359375" lon="7.49437118880450725555419921875"><ele></ele><time>2020-9-19T8:2:18Z</time></trkpt>
<trkpt lat="46.28541036508977413177490234375" lon="7.49434101395308971405029296875"><ele></ele><time>2020-9-19T8:2:21Z</time></trkpt>
<trkpt lat="46.2853318266570568084716796875" lon="7.494298852980136871337890625"><ele></ele><time>2020-9-19T8:2:24Z</time></trkpt>
<trkpt lat="46.28525529988110065460205078125" lon="7.49424629844725131988525390625"><ele></ele><time>2020-9-19T8:2:27Z</time></trkpt>
<trkpt lat="46.2851869873702526092529296875" lon="7.49418343417346477508544921875"><ele></ele><time>2020-9-19T8:2:30Z</time></trkpt>
<trkpt lat="46.28512202762067317962646484375" lon="7.4941166304051876068115234375"><ele></ele><time>2020-9-19T8:2:33Z</time></trkpt>
<trkpt lat="46.28505899570882320404052734375" lon="7.49404328875243663787841796875"><ele></ele><time>2020-9-19T8:2:36Z</time></trkpt>
<trkpt lat="46.2849978916347026824951171875" lon="7.49397187493741512298583984375"><ele></ele><time>2020-9-19T8:2:39Z</time></trkpt>
<trkpt lat="46.284937374293804168701171875" lon="7.49389543198049068450927734375"><ele></ele><time>2020-9-19T8:2:42Z</time></trkpt>
<trkpt lat="46.284878365695476531982421875" lon="7.4938158877193927764892578125"><ele></ele><time>2020-9-19T8:2:45Z</time></trkpt>
<trkpt lat="46.2848185189068317413330078125" lon="7.49374120496213436126708984375"><ele></ele><time>2020-9-19T8:2:48Z</time></trkpt>
<trkpt lat="46.28476135432720184326171875" lon="7.4936707131564617156982421875"><ele></ele><time>2020-9-19T8:2:51Z</time></trkpt>
<trkpt lat="46.284710057079792022705078125" lon="7.4935972876846790313720703125"><ele></ele><time>2020-9-19T8:2:54Z</time></trkpt>
<trkpt lat="46.28466052003204822540283203125" lon="7.4935245327651500701904296875"><ele></ele><time>2020-9-19T8:2:57Z</time></trkpt>
<trkpt lat="46.2846158444881439208984375" lon="7.49346275813877582550048828125"><ele></ele><time>2020-9-19T8:3:0Z</time></trkpt>
<trkpt lat="46.28458374179899692535400390625" lon="7.49340928159654140472412109375"><ele></ele><time>2020-9-19T8:3:3Z</time></trkpt>
<trkpt lat="46.28455172292888164520263671875" lon="7.4933582358062267303466796875"><ele></ele><time>2020-9-19T8:3:6Z</time></trkpt>
<trkpt lat="46.284520961344242095947265625" lon="7.493305765092372894287109375"><ele></ele><time>2020-9-19T8:3:9Z</time></trkpt>
<trkpt lat="46.28449254669249057769775390625" lon="7.49325706623494625091552734375"><ele></ele><time>2020-9-19T8:3:12Z</time></trkpt>
<trkpt lat="46.28447008319199085235595703125" lon="7.493212558329105377197265625"><ele></ele><time>2020-9-19T8:3:15Z</time></trkpt>
<trkpt lat="46.28445197828114032745361328125" lon="7.49316872097551822662353515625"><ele></ele><time>2020-9-19T8:3:18Z</time></trkpt>
<trkpt lat="46.2844361364841461181640625" lon="7.49312614090740680694580078125"><ele></ele><time>2020-9-19T8:3:21Z</time></trkpt>
<trkpt lat="46.28442197106778621673583984375" lon="7.493086159229278564453125"><ele></ele><time>2020-9-19T8:3:24Z</time></trkpt>
<trkpt lat="46.2844114936888217926025390625" lon="7.49304835684597492218017578125"><ele></ele><time>2020-9-19T8:3:27Z</time></trkpt>
<trkpt lat="46.28440470434725284576416015625" lon="7.49301047064363956451416015625"><ele></ele><time>2020-9-19T8:3:30Z</time></trkpt>
<trkpt lat="46.2843954004347324371337890625" lon="7.49297660775482654571533203125"><ele></ele><time>2020-9-19T8:3:33Z</time></trkpt>
<trkpt lat="46.28439112566411495208740234375" lon="7.49293888919055461883544921875"><ele></ele><time>2020-9-19T8:3:36Z</time></trkpt>
<trkpt lat="46.28438794054090976715087890625" lon="7.4929019249975681304931640625"><ele></ele><time>2020-9-19T8:3:39Z</time></trkpt>
<trkpt lat="46.2843860127031803131103515625" lon="7.49286420643329620361328125"><ele></ele><time>2020-9-19T8:3:42Z</time></trkpt>
<trkpt lat="46.2843870185315608978271484375" lon="7.49282925389707088470458984375"><ele></ele><time>2020-9-19T8:3:45Z</time></trkpt>
<trkpt lat="46.28438341431319713592529296875" lon="7.4927983246743679046630859375"><ele></ele><time>2020-9-19T8:3:48Z</time></trkpt>
<trkpt lat="46.2843823246657848358154296875" lon="7.49276706017553806304931640625"><ele></ele><time>2020-9-19T8:3:51Z</time></trkpt>
<trkpt lat="46.284379474818706512451171875" lon="7.49273277819156646728515625"><ele></ele><time>2020-9-19T8:3:54Z</time></trkpt>
<trkpt lat="46.2843715958297252655029296875" lon="7.49269799329340457916259765625"><ele></ele><time>2020-9-19T8:3:57Z</time></trkpt>
<trkpt lat="46.2843652255833148956298828125" lon="7.49266379512846469879150390625"><ele></ele><time>2020-9-19T8:4:0Z</time></trkpt>
<trkpt lat="46.28435860387980937957763671875" lon="7.49263026751577854156494140625"><ele></ele><time>2020-9-19T8:4:3Z</time></trkpt>
<trkpt lat="46.284351311624050140380859375" lon="7.49259707517921924591064453125"><ele></ele><time>2020-9-19T8:4:6Z</time></trkpt>
<trkpt lat="46.2843394093215465545654296875" lon="7.4925619550049304962158203125"><ele></ele><time>2020-9-19T8:4:9Z</time></trkpt>
<trkpt lat="46.28432792611420154571533203125" lon="7.49252817593514919281005859375"><ele></ele><time>2020-9-19T8:4:12Z</time></trkpt>
<trkpt lat="46.28431518562138080596923828125" lon="7.49249582178890705108642578125"><ele></ele><time>2020-9-19T8:4:15Z</time></trkpt>
<trkpt lat="46.28429691307246685028076171875" lon="7.492465563118457794189453125"><ele></ele><time>2020-9-19T8:4:18Z</time></trkpt>
<trkpt lat="46.284284256398677825927734375" lon="7.492433376610279083251953125"><ele></ele><time>2020-9-19T8:4:21Z</time></trkpt>
<trkpt lat="46.28427327610552310943603515625" lon="7.4924010224640369415283203125"><ele></ele><time>2020-9-19T8:4:24Z</time></trkpt>
<trkpt lat="46.28426590003073215484619140625" lon="7.49236908741295337677001953125"><ele></ele><time>2020-9-19T8:4:27Z</time></trkpt>
<trkpt lat="46.28425776958465576171875" lon="7.49234075658023357391357421875"><ele></ele><time>2020-9-19T8:4:30Z</time></trkpt>
<trkpt lat="46.28424771130084991455078125" lon="7.49230974353849887847900390625"><ele></ele><time>2020-9-19T8:4:33Z</time></trkpt>
<trkpt lat="46.28423203714191913604736328125" lon="7.4922816641628742218017578125"><ele></ele><time>2020-9-19T8:4:36Z</time></trkpt>
<trkpt lat="46.284222565591335296630859375" lon="7.49225936830043792724609375"><ele></ele><time>2020-9-19T8:4:39Z</time></trkpt>
<trkpt lat="46.28420739434659481048583984375" lon="7.49223832972347736358642578125"><ele></ele><time>2020-9-19T8:4:42Z</time></trkpt>
<trkpt lat="46.28419280983507633209228515625" lon="7.4922136031091213226318359375"><ele></ele><time>2020-9-19T8:4:45Z</time></trkpt>
<trkpt lat="46.28417738713324069976806640625" lon="7.49219021759927272796630859375"><ele></ele><time>2020-9-19T8:4:48Z</time></trkpt>
<trkpt lat="46.28416548483073711395263671875" lon="7.4921599589288234710693359375"><ele></ele><time>2020-9-19T8:4:51Z</time></trkpt>
<trkpt lat="46.28415123559534549713134765625" lon="7.49213087372481822967529296875"><ele></ele><time>2020-9-19T8:4:54Z</time></trkpt>
<trkpt lat="46.28413799218833446502685546875" lon="7.49210321344435214996337890625"><ele></ele><time>2020-9-19T8:4:57Z</time></trkpt>
<trkpt lat="46.28412491641938686370849609375" lon="7.4920717813074588775634765625"><ele></ele><time>2020-9-19T8:5:0Z</time></trkpt>
<trkpt lat="46.28411301411688327789306640625" lon="7.492045797407627105712890625"><ele></ele><time>2020-9-19T8:5:3Z</time></trkpt>
<trkpt lat="46.28410178236663341522216796875" lon="7.492022328078746795654296875"><ele></ele><time>2020-9-19T8:5:6Z</time></trkpt>
<trkpt lat="46.2840872816741466522216796875" lon="7.4919990263879299163818359375"><ele></ele><time>2020-9-19T8:5:9Z</time></trkpt>
<trkpt lat="46.2840765528380870819091796875" lon="7.49196834862232208251953125"><ele></ele><time>2020-9-19T8:5:12Z</time></trkpt>
<trkpt lat="46.284059621393680572509765625" lon="7.49194110743701457977294921875"><ele></ele><time>2020-9-19T8:5:15Z</time></trkpt>
<trkpt lat="46.28404394723474979400634765625" lon="7.49191277660429477691650390625"><ele></ele><time>2020-9-19T8:5:18Z</time></trkpt>
<trkpt lat="46.28402634523808956146240234375" lon="7.491887547075748443603515625"><ele></ele><time>2020-9-19T8:5:21Z</time></trkpt>
<trkpt lat="46.28401192836463451385498046875" lon="7.49186047352850437164306640625"><ele></ele><time>2020-9-19T8:5:24Z</time></trkpt>
<trkpt lat="46.283998601138591766357421875" lon="7.491833232343196868896484375"><ele></ele><time>2020-9-19T8:5:27Z</time></trkpt>
<trkpt lat="46.2839843519032001495361328125" lon="7.49180649407207965850830078125"><ele></ele><time>2020-9-19T8:5:30Z</time></trkpt>
<trkpt lat="46.2839742936193943023681640625" lon="7.49177598394453525543212890625"><ele></ele><time>2020-9-19T8:5:33Z</time></trkpt>
<trkpt lat="46.28396297805011272430419921875" lon="7.49174413271248340606689453125"><ele></ele><time>2020-9-19T8:5:36Z</time></trkpt>
<trkpt lat="46.28394939936697483062744140625" lon="7.4917130358517169952392578125"><ele></ele><time>2020-9-19T8:5:39Z</time></trkpt>
<trkpt lat="46.2839387543499469757080078125" lon="7.491683028638362884521484375"><ele></ele><time>2020-9-19T8:5:42Z</time></trkpt>
<trkpt lat="46.2839310429990291595458984375" lon="7.49165318906307220458984375"><ele></ele><time>2020-9-19T8:5:45Z</time></trkpt>
<trkpt lat="46.2839246727526187896728515625" lon="7.49162611551582813262939453125"><ele></ele><time>2020-9-19T8:5:48Z</time></trkpt>
<trkpt lat="46.28391436301171779632568359375" lon="7.49160063453018665313720703125"><ele></ele><time>2020-9-19T8:5:51Z</time></trkpt>
<trkpt lat="46.28390464000403881072998046875" lon="7.4915762431919574737548828125"><ele></ele><time>2020-9-19T8:5:54Z</time></trkpt>
<trkpt lat="46.28389231860637664794921875" lon="7.49154967255890369415283203125"><ele></ele><time>2020-9-19T8:5:57Z</time></trkpt>
<trkpt lat="46.28388033248484134674072265625" lon="7.49152335338294506072998046875"><ele></ele><time>2020-9-19T8:6:0Z</time></trkpt>
<trkpt lat="46.28386524505913257598876953125" lon="7.4914969503879547119140625"><ele></ele><time>2020-9-19T8:6:3Z</time></trkpt>
<trkpt lat="46.28385082818567752838134765625" lon="7.49147037975490093231201171875"><ele></ele><time>2020-9-19T8:6:6Z</time></trkpt>
<trkpt lat="46.283839009702205657958984375" lon="7.4914438091218471527099609375"><ele></ele><time>2020-9-19T8:6:9Z</time></trkpt>
<trkpt lat="46.2838274426758289337158203125" lon="7.4914183281362056732177734375"><ele></ele><time>2020-9-19T8:6:12Z</time></trkpt>
<trkpt lat="46.283811517059803009033203125" lon="7.49139443971216678619384765625"><ele></ele><time>2020-9-19T8:6:15Z</time></trkpt>
<trkpt lat="46.28379802219569683074951171875" lon="7.49136661179363727569580078125"><ele></ele><time>2020-9-19T8:6:18Z</time></trkpt>
<trkpt lat="46.28377874381840229034423828125" lon="7.49134850688278675079345703125"><ele></ele><time>2020-9-19T8:6:21Z</time></trkpt>
<trkpt lat="46.2837660871446132659912109375" lon="7.4913224391639232635498046875"><ele></ele><time>2020-9-19T8:6:24Z</time></trkpt>
<trkpt lat="46.28374773077666759490966796875" lon="7.49129871837794780731201171875"><ele></ele><time>2020-9-19T8:6:27Z</time></trkpt>
<trkpt lat="46.28372694365680217742919921875" lon="7.49128027819097042083740234375"><ele></ele><time>2020-9-19T8:6:30Z</time></trkpt>
<trkpt lat="46.2837054021656513214111328125" lon="7.49126217328011989593505859375"><ele></ele><time>2020-9-19T8:6:33Z</time></trkpt>
<trkpt lat="46.28368453122675418853759765625" lon="7.49123987741768360137939453125"><ele></ele><time>2020-9-19T8:6:36Z</time></trkpt>
<trkpt lat="46.283663325011730194091796875" lon="7.49121464788913726806640625"><ele></ele><time>2020-9-19T8:6:39Z</time></trkpt>
<trkpt lat="46.283643543720245361328125" lon="7.4911876581609249114990234375"><ele></ele><time>2020-9-19T8:6:42Z</time></trkpt>
<trkpt lat="46.2836195714771747589111328125" lon="7.49116175808012485504150390625"><ele></ele><time>2020-9-19T8:6:45Z</time></trkpt>
<trkpt lat="46.28360473550856113433837890625" lon="7.49113040976226329803466796875"><ele></ele><time>2020-9-19T8:6:48Z</time></trkpt>
<trkpt lat="46.283592246472835540771484375" lon="7.49110006727278232574462890625"><ele></ele><time>2020-9-19T8:6:51Z</time></trkpt>
<trkpt lat="46.28357523120939731597900390625" lon="7.491069473326206207275390625"><ele></ele><time>2020-9-19T8:6:54Z</time></trkpt>
<trkpt lat="46.2835545279085636138916015625" lon="7.4910441599786281585693359375"><ele></ele><time>2020-9-19T8:6:57Z</time></trkpt>
<trkpt lat="46.28353399224579334259033203125" lon="7.491018511354923248291015625"><ele></ele><time>2020-9-19T8:7:0Z</time></trkpt>
<trkpt lat="46.28351680934429168701171875" lon="7.49098666012287139892578125"><ele></ele><time>2020-9-19T8:7:3Z</time></trkpt>
<trkpt lat="46.28349811770021915435791015625" lon="7.49094902537763118743896484375"><ele></ele><time>2020-9-19T8:7:6Z</time></trkpt>
<trkpt lat="46.28345922566950321197509765625" lon="7.4908674694597721099853515625"><ele></ele><time>2020-9-19T8:7:9Z</time></trkpt>
<trkpt lat="46.2834106944501399993896484375" lon="7.4907410703599452972412109375"><ele></ele><time>2020-9-19T8:7:12Z</time></trkpt>
<trkpt lat="46.28339317627251148223876953125" lon="7.49070829711854457855224609375"><ele></ele><time>2020-9-19T8:7:15Z</time></trkpt>
<trkpt lat="46.2833801843225955963134765625" lon="7.490671835839748382568359375"><ele></ele><time>2020-9-19T8:7:18Z</time></trkpt>
<trkpt lat="46.2833687849342823028564453125" lon="7.49062992632389068603515625"><ele></ele><time>2020-9-19T8:7:21Z</time></trkpt>
<trkpt lat="46.28336124122142791748046875" lon="7.49058407731354236602783203125"><ele></ele><time>2020-9-19T8:7:24Z</time></trkpt>
<trkpt lat="46.2833590619266033172607421875" lon="7.49053915031254291534423828125"><ele></ele><time>2020-9-19T8:7:27Z</time></trkpt>
<trkpt lat="46.2833607383072376251220703125" lon="7.4904978275299072265625"><ele></ele><time>2020-9-19T8:7:30Z</time></trkpt>
<trkpt lat="46.2833657674491405487060546875" lon="7.4904591031372547149658203125"><ele></ele><time>2020-9-19T8:7:33Z</time></trkpt>
<trkpt lat="46.2833650968968868255615234375" lon="7.4904249049723148345947265625"><ele></ele><time>2020-9-19T8:7:36Z</time></trkpt>
<trkpt lat="46.28336484543979167938232421875" lon="7.49039389193058013916015625"><ele></ele><time>2020-9-19T8:7:39Z</time></trkpt>
<trkpt lat="46.28336870111525058746337890625" lon="7.49036170542240142822265625"><ele></ele><time>2020-9-19T8:7:42Z</time></trkpt>
<trkpt lat="46.283374316990375518798828125" lon="7.4903275072574615478515625"><ele></ele><time>2020-9-19T8:7:45Z</time></trkpt>
<trkpt lat="46.28338093869388103485107421875" lon="7.4902978353202342987060546875"><ele></ele><time>2020-9-19T8:7:48Z</time></trkpt>
<trkpt lat="46.28338848240673542022705078125" lon="7.4902683310210704803466796875"><ele></ele><time>2020-9-19T8:7:51Z</time></trkpt>
<trkpt lat="46.28340055234730243682861328125" lon="7.4902425147593021392822265625"><ele></ele><time>2020-9-19T8:7:54Z</time></trkpt>
<trkpt lat="46.28341396339237689971923828125" lon="7.49021929688751697540283203125"><ele></ele><time>2020-9-19T8:7:57Z</time></trkpt>
<trkpt lat="46.28342427313327789306640625" lon="7.4901960790157318115234375"><ele></ele><time>2020-9-19T8:8:0Z</time></trkpt>
<trkpt lat="46.28343206830322742462158203125" lon="7.490162216126918792724609375"><ele></ele><time>2020-9-19T8:8:3Z</time></trkpt>
<trkpt lat="46.28343768417835235595703125" lon="7.49012106098234653472900390625"><ele></ele><time>2020-9-19T8:8:6Z</time></trkpt>
<trkpt lat="46.28344397060573101043701171875" lon="7.49008141458034515380859375"><ele></ele><time>2020-9-19T8:8:9Z</time></trkpt>
<trkpt lat="46.283448077738285064697265625" lon="7.490043528378009796142578125"><ele></ele><time>2020-9-19T8:8:12Z</time></trkpt>
<trkpt lat="46.2834455631673336029052734375" lon="7.4899977631866931915283203125"><ele></ele><time>2020-9-19T8:8:15Z</time></trkpt>
<trkpt lat="46.2834358401596546173095703125" lon="7.4899538420140743255615234375"><ele></ele><time>2020-9-19T8:8:18Z</time></trkpt>
<trkpt lat="46.28341211937367916107177734375" lon="7.489916794002056121826171875"><ele></ele><time>2020-9-19T8:8:21Z</time></trkpt>
<trkpt lat="46.28338160924613475799560546875" lon="7.489883266389369964599609375"><ele></ele><time>2020-9-19T8:8:24Z</time></trkpt>
<trkpt lat="46.28335009329020977020263671875" lon="7.48986675404012203216552734375"><ele></ele><time>2020-9-19T8:8:27Z</time></trkpt>
<trkpt lat="46.2833194993436336517333984375" lon="7.4898602999746799468994140625"><ele></ele><time>2020-9-19T8:8:30Z</time></trkpt>
<trkpt lat="46.2832849659025669097900390625" lon="7.4898623116314411163330078125"><ele></ele><time>2020-9-19T8:8:33Z</time></trkpt>
<trkpt lat="46.28324682824313640594482421875" lon="7.48986952006816864013671875"><ele></ele><time>2020-9-19T8:8:36Z</time></trkpt>
<trkpt lat="46.28320760093629360198974609375" lon="7.4898814223706722259521484375"><ele></ele><time>2020-9-19T8:8:39Z</time></trkpt>
<trkpt lat="46.28312294371426105499267578125" lon="7.48990380205214023590087890625"><ele></ele><time>2020-9-19T8:8:42Z</time></trkpt>
<trkpt lat="46.28307667560875415802001953125" lon="7.48989902436733245849609375"><ele></ele><time>2020-9-19T8:8:45Z</time></trkpt>
<trkpt lat="46.28302487544715404510498046875" lon="7.48987999744713306427001953125"><ele></ele><time>2020-9-19T8:8:48Z</time></trkpt>
<trkpt lat="46.2828742526471614837646484375" lon="7.48981009237468242645263671875"><ele></ele><time>2020-9-19T8:8:51Z</time></trkpt>
<trkpt lat="46.2828279845416545867919921875" lon="7.4897774867713451385498046875"><ele></ele><time>2020-9-19T8:8:54Z</time></trkpt>
<trkpt lat="46.282791607081890106201171875" lon="7.48974387533962726593017578125"><ele></ele><time>2020-9-19T8:8:57Z</time></trkpt>
<trkpt lat="46.2827488593757152557373046875" lon="7.48971202410757541656494140625"><ele></ele><time>2020-9-19T8:9:0Z</time></trkpt>
<trkpt lat="46.2827141582965850830078125" lon="7.489683441817760467529296875"><ele></ele><time>2020-9-19T8:9:3Z</time></trkpt>
<trkpt lat="46.28268004395067691802978515625" lon="7.489658296108245849609375"><ele></ele><time>2020-9-19T8:9:6Z</time></trkpt>
<trkpt lat="46.2826459296047687530517578125" lon="7.48962543904781341552734375"><ele></ele><time>2020-9-19T8:9:9Z</time></trkpt>
<trkpt lat="46.282617263495922088623046875" lon="7.4895853735506534576416015625"><ele></ele><time>2020-9-19T8:9:12Z</time></trkpt>
<trkpt lat="46.28259169869124889373779296875" lon="7.48954455368220806121826171875"><ele></ele><time>2020-9-19T8:9:15Z</time></trkpt>
<trkpt lat="46.28256772644817829132080078125" lon="7.48950063250958919525146484375"><ele></ele><time>2020-9-19T8:9:18Z</time></trkpt>
<trkpt lat="46.28254459239542484283447265625" lon="7.4894492514431476593017578125"><ele></ele><time>2020-9-19T8:9:21Z</time></trkpt>
<trkpt lat="46.2825248949229717254638671875" lon="7.4893935956060886383056640625"><ele></ele><time>2020-9-19T8:9:24Z</time></trkpt>
<trkpt lat="46.28250536508858203887939453125" lon="7.489334754645824432373046875"><ele></ele><time>2020-9-19T8:9:27Z</time></trkpt>
<trkpt lat="46.2824611924588680267333984375" lon="7.489216737449169158935546875"><ele></ele><time>2020-9-19T8:9:30Z</time></trkpt>
<trkpt lat="46.2824377231299877166748046875" lon="7.48916049487888813018798828125"><ele></ele><time>2020-9-19T8:9:33Z</time></trkpt>
<trkpt lat="46.2824078835546970367431640625" lon="7.4891059286892414093017578125"><ele></ele><time>2020-9-19T8:9:36Z</time></trkpt>
<trkpt lat="46.28237779252231121063232421875" lon="7.4890516139566898345947265625"><ele></ele><time>2020-9-19T8:9:39Z</time></trkpt>
<trkpt lat="46.28231920301914215087890625" lon="7.48894960619509220123291015625"><ele></ele><time>2020-9-19T8:9:42Z</time></trkpt>
<trkpt lat="46.2822928838431835174560546875" lon="7.48889780603349208831787109375"><ele></ele><time>2020-9-19T8:9:45Z</time></trkpt>
<trkpt lat="46.28226832486689090728759765625" lon="7.488837204873561859130859375"><ele></ele><time>2020-9-19T8:9:48Z</time></trkpt>
<trkpt lat="46.28223697654902935028076171875" lon="7.4887783639132976531982421875"><ele></ele><time>2020-9-19T8:9:51Z</time></trkpt>
<trkpt lat="46.28216606564819812774658203125" lon="7.48866177164018154144287109375"><ele></ele><time>2020-9-19T8:9:54Z</time></trkpt>
<trkpt lat="46.2820970825850963592529296875" lon="7.48853587545454502105712890625"><ele></ele><time>2020-9-19T8:9:57Z</time></trkpt>
<trkpt lat="46.2820612080395221710205078125" lon="7.48846848495304584503173828125"><ele></ele><time>2020-9-19T8:10:0Z</time></trkpt>
<trkpt lat="46.28198266960680484771728515625" lon="7.48831392265856266021728515625"><ele></ele><time>2020-9-19T8:10:3Z</time></trkpt>
<trkpt lat="46.281846463680267333984375" lon="7.48796490021049976348876953125"><ele></ele><time>2020-9-19T8:10:6Z</time></trkpt>
<trkpt lat="46.28181762993335723876953125" lon="7.48787336982786655426025390625"><ele></ele><time>2020-9-19T8:10:9Z</time></trkpt>
<trkpt lat="46.2817914783954620361328125" lon="7.48778334818780422210693359375"><ele></ele><time>2020-9-19T8:10:12Z</time></trkpt>
<trkpt lat="46.2817722000181674957275390625" lon="7.4876974336802959442138671875"><ele></ele><time>2020-9-19T8:10:15Z</time></trkpt>
<trkpt lat="46.28175501711666584014892578125" lon="7.487618140876293182373046875"><ele></ele><time>2020-9-19T8:10:18Z</time></trkpt>
<trkpt lat="46.2817426957190036773681640625" lon="7.48754194937646389007568359375"><ele></ele><time>2020-9-19T8:10:21Z</time></trkpt>
<trkpt lat="46.28173624165356159210205078125" lon="7.487470619380474090576171875"><ele></ele><time>2020-9-19T8:10:24Z</time></trkpt>
<trkpt lat="46.28173490054905414581298828125" lon="7.487402223050594329833984375"><ele></ele><time>2020-9-19T8:10:27Z</time></trkpt>
<trkpt lat="46.28173322416841983795166015625" lon="7.4873343296349048614501953125"><ele></ele><time>2020-9-19T8:10:30Z</time></trkpt>
<trkpt lat="46.281732805073261260986328125" lon="7.48727104626595973968505859375"><ele></ele><time>2020-9-19T8:10:33Z</time></trkpt>
<trkpt lat="46.281734146177768707275390625" lon="7.487207092344760894775390625"><ele></ele><time>2020-9-19T8:10:36Z</time></trkpt>
<trkpt lat="46.28173506818711757659912109375" lon="7.4871425516903400421142578125"><ele></ele><time>2020-9-19T8:10:39Z</time></trkpt>
<trkpt lat="46.28173557110130786895751953125" lon="7.48707859776914119720458984375"><ele></ele><time>2020-9-19T8:10:42Z</time></trkpt>
<trkpt lat="46.281736157834529876708984375" lon="7.4870161525905132293701171875"><ele></ele><time>2020-9-19T8:10:45Z</time></trkpt>
<trkpt lat="46.28173741512000560760498046875" lon="7.48695370741188526153564453125"><ele></ele><time>2020-9-19T8:10:48Z</time></trkpt>
<trkpt lat="46.28173892386257648468017578125" lon="7.486891932785511016845703125"><ele></ele><time>2020-9-19T8:10:51Z</time></trkpt>
<trkpt lat="46.2817400135099887847900390625" lon="7.486831247806549072265625"><ele></ele><time>2020-9-19T8:10:54Z</time></trkpt>
<trkpt lat="46.28174210898578166961669921875" lon="7.48676980845630168914794921875"><ele></ele><time>2020-9-19T8:10:57Z</time></trkpt>
<trkpt lat="46.2817447073757648468017578125" lon="7.4867083691060543060302734375"><ele></ele><time>2020-9-19T8:11:0Z</time></trkpt>
<trkpt lat="46.2817467190325260162353515625" lon="7.48664877377450466156005859375"><ele></ele><time>2020-9-19T8:11:3Z</time></trkpt>
<trkpt lat="46.28174864687025547027587890625" lon="7.486590184271335601806640625"><ele></ele><time>2020-9-19T8:11:6Z</time></trkpt>
<trkpt lat="46.281750239431858062744140625" lon="7.48653477989137172698974609375"><ele></ele><time>2020-9-19T8:11:9Z</time></trkpt>
<trkpt lat="46.281751580536365509033203125" lon="7.48647920787334442138671875"><ele></ele><time>2020-9-19T8:11:12Z</time></trkpt>
<trkpt lat="46.2817534245550632476806640625" lon="7.48642330057919025421142578125"><ele></ele><time>2020-9-19T8:11:15Z</time></trkpt>
<trkpt lat="46.28175451420247554779052734375" lon="7.4863683991134166717529296875"><ele></ele><time>2020-9-19T8:11:18Z</time></trkpt>
<trkpt lat="46.28175635822117328643798828125" lon="7.48631333000957965850830078125"><ele></ele><time>2020-9-19T8:11:21Z</time></trkpt>
<trkpt lat="46.28175686113536357879638671875" lon="7.48625851236283779144287109375"><ele></ele><time>2020-9-19T8:11:24Z</time></trkpt>
<trkpt lat="46.28175568766891956329345703125" lon="7.48620268888771533966064453125"><ele></ele><time>2020-9-19T8:11:27Z</time></trkpt>
<trkpt lat="46.2817539274692535400390625" lon="7.486144267022609710693359375"><ele></ele><time>2020-9-19T8:11:30Z</time></trkpt>
<trkpt lat="46.28175082616508007049560546875" lon="7.4860857613384723663330078125"><ele></ele><time>2020-9-19T8:11:33Z</time></trkpt>
<trkpt lat="46.2817463837563991546630859375" lon="7.486028261482715606689453125"><ele></ele><time>2020-9-19T8:11:36Z</time></trkpt>
<trkpt lat="46.28174060024321079254150390625" lon="7.4859727732837200164794921875"><ele></ele><time>2020-9-19T8:11:39Z</time></trkpt>
<trkpt lat="46.28173473291099071502685546875" lon="7.4859184585511684417724609375"><ele></ele><time>2020-9-19T8:11:42Z</time></trkpt>
<trkpt lat="46.28172911703586578369140625" lon="7.48586489818990230560302734375"><ele></ele><time>2020-9-19T8:11:45Z</time></trkpt>
<trkpt lat="46.2817245908081531524658203125" lon="7.48581142164766788482666015625"><ele></ele><time>2020-9-19T8:11:48Z</time></trkpt>
<trkpt lat="46.28172048367559909820556640625" lon="7.48575777746737003326416015625"><ele></ele><time>2020-9-19T8:11:51Z</time></trkpt>
<trkpt lat="46.2817178852856159210205078125" lon="7.485702373087406158447265625"><ele></ele><time>2020-9-19T8:11:54Z</time></trkpt>
<trkpt lat="46.28171377815306186676025390625" lon="7.48564906418323516845703125"><ele></ele><time>2020-9-19T8:11:57Z</time></trkpt>
<trkpt lat="46.2817098386585712432861328125" lon="7.48559542000293731689453125"><ele></ele><time>2020-9-19T8:12:0Z</time></trkpt>
<trkpt lat="46.28170455805957317352294921875" lon="7.4855426140129566192626953125"><ele></ele><time>2020-9-19T8:12:3Z</time></trkpt>
<trkpt lat="46.2816987745463848114013671875" lon="7.48548989184200763702392578125"><ele></ele><time>2020-9-19T8:12:6Z</time></trkpt>
<trkpt lat="46.28169232048094272613525390625" lon="7.4854386784136295318603515625"><ele></ele><time>2020-9-19T8:12:9Z</time></trkpt>
<trkpt lat="46.2816860340535640716552734375" lon="7.48538712970912456512451171875"><ele></ele><time>2020-9-19T8:12:12Z</time></trkpt>
<trkpt lat="46.28167957998812198638916015625" lon="7.4853354133665561676025390625"><ele></ele><time>2020-9-19T8:12:15Z</time></trkpt>
<trkpt lat="46.28167371265590190887451171875" lon="7.48528235591948032379150390625"><ele></ele><time>2020-9-19T8:12:18Z</time></trkpt>
<trkpt lat="46.28166801296174526214599609375" lon="7.48522971756756305694580078125"><ele></ele><time>2020-9-19T8:12:21Z</time></trkpt>
<trkpt lat="46.2816632352769374847412109375" lon="7.48517691157758235931396484375"><ele></ele><time>2020-9-19T8:12:24Z</time></trkpt>
<trkpt lat="46.28165795467793941497802734375" lon="7.48512469232082366943359375"><ele></ele><time>2020-9-19T8:12:27Z</time></trkpt>
<trkpt lat="46.281654350459575653076171875" lon="7.48507247306406497955322265625"><ele></ele><time>2020-9-19T8:12:30Z</time></trkpt>
<trkpt lat="46.2816521711647510528564453125" lon="7.48502008616924285888671875"><ele></ele><time>2020-9-19T8:12:33Z</time></trkpt>
<trkpt lat="46.28165057860314846038818359375" lon="7.48496803455054759979248046875"><ele></ele><time>2020-9-19T8:12:36Z</time></trkpt>
<trkpt lat="46.2816504947841167449951171875" lon="7.48491740785539150238037109375"><ele></ele><time>2020-9-19T8:12:39Z</time></trkpt>
<trkpt lat="46.281650327146053314208984375" lon="7.48486828990280628204345703125"><ele></ele><time>2020-9-19T8:12:42Z</time></trkpt>
<trkpt lat="46.2816515006124973297119140625" lon="7.4848214350640773773193359375"><ele></ele><time>2020-9-19T8:12:45Z</time></trkpt>
<trkpt lat="46.28165409900248050689697265625" lon="7.48477625660598278045654296875"><ele></ele><time>2020-9-19T8:12:48Z</time></trkpt>
<trkpt lat="46.28165594302117824554443359375" lon="7.48473116196691989898681640625"><ele></ele><time>2020-9-19T8:12:51Z</time></trkpt>
<trkpt lat="46.28165678121149539947509765625" lon="7.4846863187849521636962890625"><ele></ele><time>2020-9-19T8:12:54Z</time></trkpt>
<trkpt lat="46.2816578708589076995849609375" lon="7.4846412241458892822265625"><ele></ele><time>2020-9-19T8:12:57Z</time></trkpt>
<trkpt lat="46.2816592119634151458740234375" lon="7.484596632421016693115234375"><ele></ele><time>2020-9-19T8:13:0Z</time></trkpt>
<trkpt lat="46.2816595472395420074462890625" lon="7.484552375972270965576171875"><ele></ele><time>2020-9-19T8:13:3Z</time></trkpt>
<trkpt lat="46.28165862523019313812255859375" lon="7.48450920917093753814697265625"><ele></ele><time>2020-9-19T8:13:6Z</time></trkpt>
<trkpt lat="46.2816578708589076995849609375" lon="7.4844663776457309722900390625"><ele></ele><time>2020-9-19T8:13:9Z</time></trkpt>
<trkpt lat="46.28165644593536853790283203125" lon="7.4844234623014926910400390625"><ele></ele><time>2020-9-19T8:13:12Z</time></trkpt>
<trkpt lat="46.28165292553603649139404296875" lon="7.484380714595317840576171875"><ele></ele><time>2020-9-19T8:13:15Z</time></trkpt>
<trkpt lat="46.2816481478512287139892578125" lon="7.48433838598430156707763671875"><ele></ele><time>2020-9-19T8:13:18Z</time></trkpt>
<trkpt lat="46.281642280519008636474609375" lon="7.484296895563602447509765625"><ele></ele><time>2020-9-19T8:13:21Z</time></trkpt>
<trkpt lat="46.2816367484629154205322265625" lon="7.48425523750483989715576171875"><ele></ele><time>2020-9-19T8:13:24Z</time></trkpt>
<trkpt lat="46.281632222235202789306640625" lon="7.4842139147222042083740234375"><ele></ele><time>2020-9-19T8:13:27Z</time></trkpt>
<trkpt lat="46.28162761218845844268798828125" lon="7.48417384922504425048828125"><ele></ele><time>2020-9-19T8:13:30Z</time></trkpt>
<trkpt lat="46.2816223315894603729248046875" lon="7.48413621447980403900146484375"><ele></ele><time>2020-9-19T8:13:33Z</time></trkpt>
<trkpt lat="46.28161671571433544158935546875" lon="7.48410008847713470458984375"><ele></ele><time>2020-9-19T8:13:36Z</time></trkpt>
<trkpt lat="46.28161101602017879486083984375" lon="7.4840645492076873779296875"><ele></ele><time>2020-9-19T8:13:39Z</time></trkpt>
<trkpt lat="46.2816059030592441558837890625" lon="7.48402775265276432037353515625"><ele></ele><time>2020-9-19T8:13:42Z</time></trkpt>
<trkpt lat="46.28160196356475353240966796875" lon="7.48398986645042896270751953125"><ele></ele><time>2020-9-19T8:13:45Z</time></trkpt>
<trkpt lat="46.28159827552735805511474609375" lon="7.483952902257442474365234375"><ele></ele><time>2020-9-19T8:13:48Z</time></trkpt>
<trkpt lat="46.28159525804221630096435546875" lon="7.483916692435741424560546875"><ele></ele><time>2020-9-19T8:13:51Z</time></trkpt>
<trkpt lat="46.28159408457577228546142578125" lon="7.4838843382894992828369140625"><ele></ele><time>2020-9-19T8:13:54Z</time></trkpt>
<trkpt lat="46.28159207291901111602783203125" lon="7.48385894112288951873779296875"><ele></ele><time>2020-9-19T8:13:57Z</time></trkpt>
<trkpt lat="46.2815867923200130462646484375" lon="7.4838414229452610015869140625"><ele></ele><time>2020-9-19T8:14:0Z</time></trkpt>
<trkpt lat="46.28158117644488811492919921875" lon="7.48382943682372570037841796875"><ele></ele><time>2020-9-19T8:14:3Z</time></trkpt>
<trkpt lat="46.28157648257911205291748046875" lon="7.48381971381604671478271484375"><ele></ele><time>2020-9-19T8:14:6Z</time></trkpt>
<trkpt lat="46.28157363273203372955322265625" lon="7.4838075600564479827880859375"><ele></ele><time>2020-9-19T8:14:9Z</time></trkpt>
<trkpt lat="46.28157614730298519134521484375" lon="7.48378534801304340362548828125"><ele></ele><time>2020-9-19T8:14:12Z</time></trkpt>
<trkpt lat="46.2815857864916324615478515625" lon="7.4837495572865009307861328125"><ele></ele><time>2020-9-19T8:14:15Z</time></trkpt>
<trkpt lat="46.2816276960074901580810546875" lon="7.48355417512357234954833984375"><ele></ele><time>2020-9-19T8:14:18Z</time></trkpt>
<trkpt lat="46.28163398243486881256103515625" lon="7.4835108406841754913330078125"><ele></ele><time>2020-9-19T8:14:21Z</time></trkpt>
<trkpt lat="46.28164194524288177490234375" lon="7.48346976935863494873046875"><ele></ele><time>2020-9-19T8:14:24Z</time></trkpt>
<trkpt lat="46.281647980213165283203125" lon="7.4834303744137287139892578125"><ele></ele><time>2020-9-19T8:14:27Z</time></trkpt>
<trkpt lat="46.2816504947841167449951171875" lon="7.48338930308818817138671875"><ele></ele><time>2020-9-19T8:14:30Z</time></trkpt>
<trkpt lat="46.2816515006124973297119140625" lon="7.48334831558167934417724609375"><ele></ele><time>2020-9-19T8:14:33Z</time></trkpt>
<trkpt lat="46.28165359608829021453857421875" lon="7.4833083339035511016845703125"><ele></ele><time>2020-9-19T8:14:36Z</time></trkpt>
<trkpt lat="46.2816561944782733917236328125" lon="7.48326986096799373626708984375"><ele></ele><time>2020-9-19T8:14:39Z</time></trkpt>
<trkpt lat="46.2816585414111614227294921875" lon="7.4832312203943729400634765625"><ele></ele><time>2020-9-19T8:14:42Z</time></trkpt>
<trkpt lat="46.281660385429859161376953125" lon="7.48319257982075214385986328125"><ele></ele><time>2020-9-19T8:14:45Z</time></trkpt>
<trkpt lat="46.281661726534366607666015625" lon="7.4831552803516387939453125"><ele></ele><time>2020-9-19T8:14:48Z</time></trkpt>
<trkpt lat="46.28166415728628635406494140625" lon="7.48311446048319339752197265625"><ele></ele><time>2020-9-19T8:14:51Z</time></trkpt>
<trkpt lat="46.2816682644188404083251953125" lon="7.483075819909572601318359375"><ele></ele><time>2020-9-19T8:14:54Z</time></trkpt>
<trkpt lat="46.2816707789897918701171875" lon="7.483037598431110382080078125"><ele></ele><time>2020-9-19T8:14:57Z</time></trkpt>
<trkpt lat="46.28167279064655303955078125" lon="7.48299962840974330902099609375"><ele></ele><time>2020-9-19T8:15:0Z</time></trkpt>
<trkpt lat="46.28167589195072650909423828125" lon="7.48296190984547138214111328125"><ele></ele><time>2020-9-19T8:15:3Z</time></trkpt>
<trkpt lat="46.28167991526424884796142578125" lon="7.482924275100231170654296875"><ele></ele><time>2020-9-19T8:15:6Z</time></trkpt>
<trkpt lat="46.28168494440615177154541015625" lon="7.48288731090724468231201171875"><ele></ele><time>2020-9-19T8:15:9Z</time></trkpt>
<trkpt lat="46.2816917337477207183837890625" lon="7.48285093344748020172119140625"><ele></ele><time>2020-9-19T8:15:12Z</time></trkpt>
<trkpt lat="46.2817014567553997039794921875" lon="7.48281623236835002899169921875"><ele></ele><time>2020-9-19T8:15:15Z</time></trkpt>
<trkpt lat="46.28171193413436412811279296875" lon="7.4827806092798709869384765625"><ele></ele><time>2020-9-19T8:15:18Z</time></trkpt>
<trkpt lat="46.2817188911139965057373046875" lon="7.48274557292461395263671875"><ele></ele><time>2020-9-19T8:15:21Z</time></trkpt>
<trkpt lat="46.281725428998470306396484375" lon="7.48271062038838863372802734375"><ele></ele><time>2020-9-19T8:15:24Z</time></trkpt>
<trkpt lat="46.281733475625514984130859375" lon="7.48267457820475101470947265625"><ele></ele><time>2020-9-19T8:15:27Z</time></trkpt>
<trkpt lat="46.28174252808094024658203125" lon="7.48263920657336711883544921875"><ele></ele><time>2020-9-19T8:15:30Z</time></trkpt>
<trkpt lat="46.28174965269863605499267578125" lon="7.4826055951416492462158203125"><ele></ele><time>2020-9-19T8:15:33Z</time></trkpt>
<trkpt lat="46.2817592918872833251953125" lon="7.48257181607186794281005859375"><ele></ele><time>2020-9-19T8:15:36Z</time></trkpt>
<trkpt lat="46.28177194856107234954833984375" lon="7.48253610916435718536376953125"><ele></ele><time>2020-9-19T8:15:39Z</time></trkpt>
<trkpt lat="46.28178703598678112030029296875" lon="7.4825030006468296051025390625"><ele></ele><time>2020-9-19T8:15:42Z</time></trkpt>
<trkpt lat="46.28180229105055332183837890625" lon="7.482474334537982940673828125"><ele></ele><time>2020-9-19T8:15:45Z</time></trkpt>
<trkpt lat="46.281819306313991546630859375" lon="7.4824490211904048919677734375"><ele></ele><time>2020-9-19T8:15:48Z</time></trkpt>
<trkpt lat="46.2818328849971294403076171875" lon="7.48241591267287731170654296875"><ele></ele><time>2020-9-19T8:15:51Z</time></trkpt>
<trkpt lat="46.28184537403285503387451171875" lon="7.48238137923181056976318359375"><ele></ele><time>2020-9-19T8:15:54Z</time></trkpt>
<trkpt lat="46.281857192516326904296875" lon="7.48234433121979236602783203125"><ele></ele><time>2020-9-19T8:15:57Z</time></trkpt>
<trkpt lat="46.2818706035614013671875" lon="7.48231105506420135498046875"><ele></ele><time>2020-9-19T8:16:0Z</time></trkpt>
<trkpt lat="46.28188728354871273040771484375" lon="7.48228079639375209808349609375"><ele></ele><time>2020-9-19T8:16:3Z</time></trkpt>
<trkpt lat="46.2819063104689121246337890625" lon="7.48225414194166660308837890625"><ele></ele><time>2020-9-19T8:16:6Z</time></trkpt>
<trkpt lat="46.28192961215972900390625" lon="7.48223385773599147796630859375"><ele></ele><time>2020-9-19T8:16:9Z</time></trkpt>
<trkpt lat="46.281952746212482452392578125" lon="7.482222206890583038330078125"><ele></ele><time>2020-9-19T8:16:12Z</time></trkpt>
<trkpt lat="46.28197462297976016998291015625" lon="7.482219524681568145751953125"><ele></ele><time>2020-9-19T8:16:15Z</time></trkpt>
<trkpt lat="46.2819954939186573028564453125" lon="7.4822193570435047149658203125"><ele></ele><time>2020-9-19T8:16:18Z</time></trkpt>
<trkpt lat="46.28201535902917385101318359375" lon="7.4822218716144561767578125"><ele></ele><time>2020-9-19T8:16:21Z</time></trkpt>
<trkpt lat="46.2820360623300075531005859375" lon="7.48223218135535717010498046875"><ele></ele><time>2020-9-19T8:16:24Z</time></trkpt>
<trkpt lat="46.2820524908602237701416015625" lon="7.48225112445652484893798828125"><ele></ele><time>2020-9-19T8:16:27Z</time></trkpt>
<trkpt lat="46.2820650637149810791015625" lon="7.48227559961378574371337890625"><ele></ele><time>2020-9-19T8:16:30Z</time></trkpt>
<trkpt lat="46.2820773012936115264892578125" lon="7.48230376280844211578369140625"><ele></ele><time>2020-9-19T8:16:33Z</time></trkpt>
<trkpt lat="46.282087527215480804443359375" lon="7.48233209364116191864013671875"><ele></ele><time>2020-9-19T8:16:36Z</time></trkpt>
<trkpt lat="46.28209817223250865936279296875" lon="7.48236092738807201385498046875"><ele></ele><time>2020-9-19T8:16:39Z</time></trkpt>
<trkpt lat="46.2821101583540439605712890625" lon="7.4823896773159503936767578125"><ele></ele><time>2020-9-19T8:16:42Z</time></trkpt>
<trkpt lat="46.282122395932674407958984375" lon="7.48241792432963848114013671875"><ele></ele><time>2020-9-19T8:16:45Z</time></trkpt>
<trkpt lat="46.28213346004486083984375" lon="7.48244659043848514556884765625"><ele></ele><time>2020-9-19T8:16:48Z</time></trkpt>
<trkpt lat="46.28214444033801555633544921875" lon="7.48247525654733180999755859375"><ele></ele><time>2020-9-19T8:16:51Z</time></trkpt>
<trkpt lat="46.28215651027858257293701171875" lon="7.4825030006468296051025390625"><ele></ele><time>2020-9-19T8:16:54Z</time></trkpt>
<trkpt lat="46.282167322933673858642578125" lon="7.48253091238439083099365234375"><ele></ele><time>2020-9-19T8:16:57Z</time></trkpt>
<trkpt lat="46.2821778841316699981689453125" lon="7.48255874030292034149169921875"><ele></ele><time>2020-9-19T8:17:0Z</time></trkpt>
<trkpt lat="46.2821879424154758453369140625" lon="7.4825884960591793060302734375"><ele></ele><time>2020-9-19T8:17:3Z</time></trkpt>
<trkpt lat="46.28220076672732830047607421875" lon="7.48261657543480396270751953125"><ele></ele><time>2020-9-19T8:17:6Z</time></trkpt>
<trkpt lat="46.2822177819907665252685546875" lon="7.48264322988688945770263671875"><ele></ele><time>2020-9-19T8:17:9Z</time></trkpt>
<trkpt lat="46.282235719263553619384765625" lon="7.4826696328818798065185546875"><ele></ele><time>2020-9-19T8:17:12Z</time></trkpt>
<trkpt lat="46.282254159450531005859375" lon="7.48269553296267986297607421875"><ele></ele><time>2020-9-19T8:17:15Z</time></trkpt>
<trkpt lat="46.282271929085254669189453125" lon="7.48271682299673557281494140625"><ele></ele><time>2020-9-19T8:17:18Z</time></trkpt>
<trkpt lat="46.282289363443851470947265625" lon="7.48273610137403011322021484375"><ele></ele><time>2020-9-19T8:17:21Z</time></trkpt>
<trkpt lat="46.2823076359927654266357421875" lon="7.482754625380039215087890625"><ele></ele><time>2020-9-19T8:17:24Z</time></trkpt>
<trkpt lat="46.28232800401747226715087890625" lon="7.48277180828154087066650390625"><ele></ele><time>2020-9-19T8:17:27Z</time></trkpt>
<trkpt lat="46.2823478691279888153076171875" lon="7.482787482440471649169921875"><ele></ele><time>2020-9-19T8:17:30Z</time></trkpt>
<trkpt lat="46.2823683209717273712158203125" lon="7.48280097730457782745361328125"><ele></ele><time>2020-9-19T8:17:33Z</time></trkpt>
<trkpt lat="46.28238768316805362701416015625" lon="7.48280986212193965911865234375"><ele></ele><time>2020-9-19T8:17:36Z</time></trkpt>
<trkpt lat="46.28240578807890415191650390625" lon="7.4828161485493183135986328125"><ele></ele><time>2020-9-19T8:17:39Z</time></trkpt>
<trkpt lat="46.282417774200439453125" lon="7.48282562009990215301513671875"><ele></ele><time>2020-9-19T8:17:42Z</time></trkpt>
<trkpt lat="46.28243378363549709320068359375" lon="7.48283819295465946197509765625"><ele></ele><time>2020-9-19T8:17:45Z</time></trkpt>
<trkpt lat="46.2824467755854129791259765625" lon="7.48285110108554363250732421875"><ele></ele><time>2020-9-19T8:17:48Z</time></trkpt>
<trkpt lat="46.2824551574885845184326171875" lon="7.48286836780607700347900390625"><ele></ele><time>2020-9-19T8:17:51Z</time></trkpt>
<trkpt lat="46.282460354268550872802734375" lon="7.48288311995565891265869140625"><ele></ele><time>2020-9-19T8:17:54Z</time></trkpt>
<trkpt lat="46.28246546722948551177978515625" lon="7.482899464666843414306640625"><ele></ele><time>2020-9-19T8:17:57Z</time></trkpt>
<trkpt lat="46.28247343003749847412109375" lon="7.48291790485382080078125"><ele></ele><time>2020-9-19T8:18:0Z</time></trkpt>
<trkpt lat="46.2824836559593677520751953125" lon="7.4829388596117496490478515625"><ele></ele><time>2020-9-19T8:18:3Z</time></trkpt>
<trkpt lat="46.28250201232731342315673828125" lon="7.482952773571014404296875"><ele></ele><time>2020-9-19T8:18:6Z</time></trkpt>
<trkpt lat="46.28252129070460796356201171875" lon="7.48296677134931087493896484375"><ele></ele><time>2020-9-19T8:18:9Z</time></trkpt>
<trkpt lat="46.28253838978707790374755859375" lon="7.4829811044037342071533203125"><ele></ele><time>2020-9-19T8:18:12Z</time></trkpt>
<trkpt lat="46.282554566860198974609375" lon="7.48299627564847469329833984375"><ele></ele><time>2020-9-19T8:18:15Z</time></trkpt>
<trkpt lat="46.2825704924762248992919921875" lon="7.48301035724580287933349609375"><ele></ele><time>2020-9-19T8:18:18Z</time></trkpt>
<trkpt lat="46.28258365206420421600341796875" lon="7.48302611522376537322998046875"><ele></ele><time>2020-9-19T8:18:21Z</time></trkpt>
<trkpt lat="46.282599829137325286865234375" lon="7.4830427952110767364501953125"><ele></ele><time>2020-9-19T8:18:24Z</time></trkpt>
<trkpt lat="46.28261625766754150390625" lon="7.48306048102676868438720703125"><ele></ele><time>2020-9-19T8:18:27Z</time></trkpt>
<trkpt lat="46.2826318480074405670166015625" lon="7.483074478805065155029296875"><ele></ele><time>2020-9-19T8:18:30Z</time></trkpt>
<trkpt lat="46.282648108899593353271484375" lon="7.483087219297885894775390625"><ele></ele><time>2020-9-19T8:18:33Z</time></trkpt>
<trkpt lat="46.2826650403439998626708984375" lon="7.4831001274287700653076171875"><ele></ele><time>2020-9-19T8:18:36Z</time></trkpt>
<trkpt lat="46.282679624855518341064453125" lon="7.4831158854067325592041015625"><ele></ele><time>2020-9-19T8:18:39Z</time></trkpt>
<trkpt lat="46.28269395790994167327880859375" lon="7.48313373886048793792724609375"><ele></ele><time>2020-9-19T8:18:42Z</time></trkpt>
<trkpt lat="46.2827076204121112823486328125" lon="7.48315234668552875518798828125"><ele></ele><time>2020-9-19T8:18:45Z</time></trkpt>
<trkpt lat="46.28272178582847118377685546875" lon="7.483170032501220703125"><ele></ele><time>2020-9-19T8:18:48Z</time></trkpt>
<trkpt lat="46.28273687325417995452880859375" lon="7.48318822123110294342041015625"><ele></ele><time>2020-9-19T8:18:51Z</time></trkpt>
<trkpt lat="46.2827538885176181793212890625" lon="7.4832064099609851837158203125"><ele></ele><time>2020-9-19T8:18:54Z</time></trkpt>
<trkpt lat="46.28277123905718326568603515625" lon="7.48322434723377227783203125"><ele></ele><time>2020-9-19T8:18:57Z</time></trkpt>
<trkpt lat="46.282788254320621490478515625" lon="7.48323733918368816375732421875"><ele></ele><time>2020-9-19T8:19:0Z</time></trkpt>
<trkpt lat="46.2828048504889011383056640625" lon="7.48324639163911342620849609375"><ele></ele><time>2020-9-19T8:19:3Z</time></trkpt>
<trkpt lat="46.28282136283814907073974609375" lon="7.48325242660939693450927734375"><ele></ele><time>2020-9-19T8:19:6Z</time></trkpt>
<trkpt lat="46.28284114412963390350341796875" lon="7.48325787484645843505859375"><ele></ele><time>2020-9-19T8:19:9Z</time></trkpt>
<trkpt lat="46.282860673964023590087890625" lon="7.4832644127309322357177734375"><ele></ele><time>2020-9-19T8:19:12Z</time></trkpt>
<trkpt lat="46.2828806228935718536376953125" lon="7.48326969332993030548095703125"><ele></ele><time>2020-9-19T8:19:15Z</time></trkpt>
<trkpt lat="46.28290166147053241729736328125" lon="7.48327405191957950592041015625"><ele></ele><time>2020-9-19T8:19:18Z</time></trkpt>
<trkpt lat="46.2829215265810489654541015625" lon="7.48327908106148242950439453125"><ele></ele><time>2020-9-19T8:19:21Z</time></trkpt>
<trkpt lat="46.28293954767286777496337890625" lon="7.48328603804111480712890625"><ele></ele><time>2020-9-19T8:19:24Z</time></trkpt>
<trkpt lat="46.28295698203146457672119140625" lon="7.4832922406494617462158203125"><ele></ele><time>2020-9-19T8:19:27Z</time></trkpt>
<trkpt lat="46.2829755060374736785888671875" lon="7.48330271802842617034912109375"><ele></ele><time>2020-9-19T8:19:30Z</time></trkpt>
<trkpt lat="46.28299369476735591888427734375" lon="7.4833153747022151947021484375"><ele></ele><time>2020-9-19T8:19:33Z</time></trkpt>
<trkpt lat="46.2830150686204433441162109375" lon="7.48332702554762363433837890625"><ele></ele><time>2020-9-19T8:19:36Z</time></trkpt>
<trkpt lat="46.2830361910164356231689453125" lon="7.48334261588752269744873046875"><ele></ele><time>2020-9-19T8:19:39Z</time></trkpt>
<trkpt lat="46.28305471502244472503662109375" lon="7.4833619780838489532470703125"><ele></ele><time>2020-9-19T8:19:42Z</time></trkpt>
<trkpt lat="46.283071897923946380615234375" lon="7.48338335193693637847900390625"><ele></ele><time>2020-9-19T8:19:45Z</time></trkpt>
<trkpt lat="46.2830896675586700439453125" lon="7.48340464197099208831787109375"><ele></ele><time>2020-9-19T8:19:48Z</time></trkpt>
<trkpt lat="46.2831072695553302764892578125" lon="7.483423836529254913330078125"><ele></ele><time>2020-9-19T8:19:51Z</time></trkpt>
<trkpt lat="46.2831247039139270782470703125" lon="7.48344269581139087677001953125"><ele></ele><time>2020-9-19T8:19:54Z</time></trkpt>
<trkpt lat="46.283142305910587310791015625" lon="7.48346214182674884796142578125"><ele></ele><time>2020-9-19T8:19:57Z</time></trkpt>
<trkpt lat="46.2831594049930572509765625" lon="7.4834810011088848114013671875"><ele></ele><time>2020-9-19T8:20:0Z</time></trkpt>
<trkpt lat="46.28317558206617832183837890625" lon="7.4835017882287502288818359375"><ele></ele><time>2020-9-19T8:20:3Z</time></trkpt>
<trkpt lat="46.28319217823445796966552734375" lon="7.48352207243442535400390625"><ele></ele><time>2020-9-19T8:20:6Z</time></trkpt>
<trkpt lat="46.2832068465650081634521484375" lon="7.483542859554290771484375"><ele></ele><time>2020-9-19T8:20:9Z</time></trkpt>
<trkpt lat="46.2832226045429706573486328125" lon="7.4835631437599658966064453125"><ele></ele><time>2020-9-19T8:20:12Z</time></trkpt>
<trkpt lat="46.2832380272448062896728515625" lon="7.4835825897753238677978515625"><ele></ele><time>2020-9-19T8:20:15Z</time></trkpt>
<trkpt lat="46.283253617584705352783203125" lon="7.48360195197165012359619140625"><ele></ele><time>2020-9-19T8:20:18Z</time></trkpt>
<trkpt lat="46.28326878882944583892822265625" lon="7.483621649444103240966796875"><ele></ele><time>2020-9-19T8:20:21Z</time></trkpt>
<trkpt lat="46.28328479826450347900390625" lon="7.483641095459461212158203125"><ele></ele><time>2020-9-19T8:20:24Z</time></trkpt>
<trkpt lat="46.28330231644213199615478515625" lon="7.48365978710353374481201171875"><ele></ele><time>2020-9-19T8:20:27Z</time></trkpt>
<trkpt lat="46.28331941552460193634033203125" lon="7.483678646385669708251953125"><ele></ele><time>2020-9-19T8:20:30Z</time></trkpt>
<trkpt lat="46.2833322398364543914794921875" lon="7.48370085842907428741455078125"><ele></ele><time>2020-9-19T8:20:33Z</time></trkpt>
<trkpt lat="46.28334657289087772369384765625" lon="7.48372256755828857421875"><ele></ele><time>2020-9-19T8:20:36Z</time></trkpt>
<trkpt lat="46.28336199559271335601806640625" lon="7.48374477960169315338134765625"><ele></ele><time>2020-9-19T8:20:39Z</time></trkpt>
<trkpt lat="46.28337875939905643463134765625" lon="7.48376724310219287872314453125"><ele></ele><time>2020-9-19T8:20:42Z</time></trkpt>
<trkpt lat="46.283397115767002105712890625" lon="7.48378836549818515777587890625"><ele></ele><time>2020-9-19T8:20:45Z</time></trkpt>
<trkpt lat="46.28341262228786945343017578125" lon="7.483810745179653167724609375"><ele></ele><time>2020-9-19T8:20:48Z</time></trkpt>
<trkpt lat="46.28342871554195880889892578125" lon="7.4838327057659626007080078125"><ele></ele><time>2020-9-19T8:20:51Z</time></trkpt>
<trkpt lat="46.2834465689957141876220703125" lon="7.48385374434292316436767578125"><ele></ele><time>2020-9-19T8:20:54Z</time></trkpt>
<trkpt lat="46.2834643386304378509521484375" lon="7.48387520201504230499267578125"><ele></ele><time>2020-9-19T8:20:57Z</time></trkpt>
<trkpt lat="46.2834814377129077911376953125" lon="7.48389758169651031494140625"><ele></ele><time>2020-9-19T8:21:0Z</time></trkpt>
<trkpt lat="46.28349878825247287750244140625" lon="7.48391929082572460174560546875"><ele></ele><time>2020-9-19T8:21:3Z</time></trkpt>
<trkpt lat="46.2835173122584819793701171875" lon="7.48394024558365345001220703125"><ele></ele><time>2020-9-19T8:21:6Z</time></trkpt>
<trkpt lat="46.28353466279804706573486328125" lon="7.48396086506545543670654296875"><ele></ele><time>2020-9-19T8:21:9Z</time></trkpt>
<trkpt lat="46.28355167806148529052734375" lon="7.4839808978140354156494140625"><ele></ele><time>2020-9-19T8:21:12Z</time></trkpt>
<trkpt lat="46.2835699506103992462158203125" lon="7.4840001761913299560546875"><ele></ele><time>2020-9-19T8:21:15Z</time></trkpt>
<trkpt lat="46.2835880555212497711181640625" lon="7.48402104713022708892822265625"><ele></ele><time>2020-9-19T8:21:18Z</time></trkpt>
<trkpt lat="46.283604316413402557373046875" lon="7.48404267244040966033935546875"><ele></ele><time>2020-9-19T8:21:21Z</time></trkpt>
<trkpt lat="46.28362166695296764373779296875" lon="7.48406345956027507781982421875"><ele></ele><time>2020-9-19T8:21:24Z</time></trkpt>
<trkpt lat="46.283639855682849884033203125" lon="7.48408265411853790283203125"><ele></ele><time>2020-9-19T8:21:27Z</time></trkpt>
<trkpt lat="46.283657290041446685791015625" lon="7.48410101048648357391357421875"><ele></ele><time>2020-9-19T8:21:30Z</time></trkpt>
<trkpt lat="46.2836738862097263336181640625" lon="7.48412112705409526824951171875"><ele></ele><time>2020-9-19T8:21:33Z</time></trkpt>
<trkpt lat="46.2836893089115619659423828125" lon="7.48414325527846813201904296875"><ele></ele><time>2020-9-19T8:21:36Z</time></trkpt>
<trkpt lat="46.28370565362274646759033203125" lon="7.48416504822671413421630859375"><ele></ele><time>2020-9-19T8:21:39Z</time></trkpt>
<trkpt lat="46.28372342325747013092041015625" lon="7.48418600298464298248291015625"><ele></ele><time>2020-9-19T8:21:42Z</time></trkpt>
<trkpt lat="46.28374136053025722503662109375" lon="7.48420779593288898468017578125"><ele></ele><time>2020-9-19T8:21:45Z</time></trkpt>
<trkpt lat="46.2837575376033782958984375" lon="7.48423160053789615631103515625"><ele></ele><time>2020-9-19T8:21:48Z</time></trkpt>
<trkpt lat="46.28377296030521392822265625" lon="7.484256327152252197265625"><ele></ele><time>2020-9-19T8:21:51Z</time></trkpt>
<trkpt lat="46.2837882153689861297607421875" lon="7.48428189195692539215087890625"><ele></ele><time>2020-9-19T8:21:54Z</time></trkpt>
<trkpt lat="46.2838033027946949005126953125" lon="7.4843074567615985870361328125"><ele></ele><time>2020-9-19T8:21:57Z</time></trkpt>
<trkpt lat="46.2838173843920230865478515625" lon="7.48433151282370090484619140625"><ele></ele><time>2020-9-19T8:22:0Z</time></trkpt>
<trkpt lat="46.2838324718177318572998046875" lon="7.4843537248671054840087890625"><ele></ele><time>2020-9-19T8:22:3Z</time></trkpt>
<trkpt lat="46.28384806215763092041015625" lon="7.48437643982470035552978515625"><ele></ele><time>2020-9-19T8:22:6Z</time></trkpt>
<trkpt lat="46.28386273048818111419677734375" lon="7.48440024442970752716064453125"><ele></ele><time>2020-9-19T8:22:9Z</time></trkpt>
<trkpt lat="46.28387647680938243865966796875" lon="7.48442354612052440643310546875"><ele></ele><time>2020-9-19T8:22:12Z</time></trkpt>
<trkpt lat="46.2838891334831714630126953125" lon="7.4844476021826267242431640625"><ele></ele><time>2020-9-19T8:22:15Z</time></trkpt>
<trkpt lat="46.28390313126146793365478515625" lon="7.48447098769247531890869140625"><ele></ele><time>2020-9-19T8:22:18Z</time></trkpt>
<trkpt lat="46.28391922451555728912353515625" lon="7.48449437320232391357421875"><ele></ele><time>2020-9-19T8:22:21Z</time></trkpt>
<trkpt lat="46.2839337252080440521240234375" lon="7.48451775871217250823974609375"><ele></ele><time>2020-9-19T8:22:24Z</time></trkpt>
<trkpt lat="46.28394990228116512298583984375" lon="7.484540641307830810546875"><ele></ele><time>2020-9-19T8:22:27Z</time></trkpt>
<trkpt lat="46.2839665822684764862060546875" lon="7.48456411063671112060546875"><ele></ele><time>2020-9-19T8:22:30Z</time></trkpt>
<trkpt lat="46.28398175351321697235107421875" lon="7.48458934016525745391845703125"><ele></ele><time>2020-9-19T8:22:33Z</time></trkpt>
<trkpt lat="46.2839957512915134429931640625" lon="7.48461599461734294891357421875"><ele></ele><time>2020-9-19T8:22:36Z</time></trkpt>
<trkpt lat="46.2840115092694759368896484375" lon="7.48463921248912811279296875"><ele></ele><time>2020-9-19T8:22:39Z</time></trkpt>
<trkpt lat="46.28402642905712127685546875" lon="7.48466175980865955352783203125"><ele></ele><time>2020-9-19T8:22:42Z</time></trkpt>
<trkpt lat="46.28404126502573490142822265625" lon="7.4846856482326984405517578125"><ele></ele><time>2020-9-19T8:22:45Z</time></trkpt>
<trkpt lat="46.28405869938433170318603515625" lon="7.48470752499997615814208984375"><ele></ele><time>2020-9-19T8:22:48Z</time></trkpt>
<trkpt lat="46.28407713957130908966064453125" lon="7.48472638428211212158203125"><ele></ele><time>2020-9-19T8:22:51Z</time></trkpt>
<trkpt lat="46.2840939871966838836669921875" lon="7.48474423773586750030517578125"><ele></ele><time>2020-9-19T8:22:54Z</time></trkpt>
<trkpt lat="46.28411251120269298553466796875" lon="7.4847604148089885711669921875"><ele></ele><time>2020-9-19T8:22:57Z</time></trkpt>
<trkpt lat="46.28412961028516292572021484375" lon="7.48477709479629993438720703125"><ele></ele><time>2020-9-19T8:23:0Z</time></trkpt>
<trkpt lat="46.284146122634410858154296875" lon="7.484795115888118743896484375"><ele></ele><time>2020-9-19T8:23:3Z</time></trkpt>
<trkpt lat="46.28416045568883419036865234375" lon="7.4848160706460475921630859375"><ele></ele><time>2020-9-19T8:23:6Z</time></trkpt>
<trkpt lat="46.2841768004000186920166015625" lon="7.48483576811850070953369140625"><ele></ele><time>2020-9-19T8:23:9Z</time></trkpt>
<trkpt lat="46.28419297747313976287841796875" lon="7.4848552979528903961181640625"><ele></ele><time>2020-9-19T8:23:12Z</time></trkpt>
<trkpt lat="46.28420823253691196441650390625" lon="7.48487415723502635955810546875"><ele></ele><time>2020-9-19T8:23:15Z</time></trkpt>
<trkpt lat="46.2842230685055255889892578125" lon="7.48489310033619403839111328125"><ele></ele><time>2020-9-19T8:23:18Z</time></trkpt>
<trkpt lat="46.28423790447413921356201171875" lon="7.484912462532520294189453125"><ele></ele><time>2020-9-19T8:23:21Z</time></trkpt>
<trkpt lat="46.28425181843340396881103515625" lon="7.48493333347141742706298828125"><ele></ele><time>2020-9-19T8:23:24Z</time></trkpt>
<trkpt lat="46.28426573239266872406005859375" lon="7.48495562933385372161865234375"><ele></ele><time>2020-9-19T8:23:27Z</time></trkpt>
<trkpt lat="46.28427981398999691009521484375" lon="7.4849780090153217315673828125"><ele></ele><time>2020-9-19T8:23:30Z</time></trkpt>
<trkpt lat="46.28429288975894451141357421875" lon="7.48500038869678974151611328125"><ele></ele><time>2020-9-19T8:23:33Z</time></trkpt>
<trkpt lat="46.2843035347759723663330078125" lon="7.48502436093986034393310546875"><ele></ele><time>2020-9-19T8:23:36Z</time></trkpt>
<trkpt lat="46.28431166522204875946044921875" lon="7.48504850082099437713623046875"><ele></ele><time>2020-9-19T8:23:39Z</time></trkpt>
<trkpt lat="46.2843213044106960296630859375" lon="7.485072724521160125732421875"><ele></ele><time>2020-9-19T8:23:42Z</time></trkpt>
<trkpt lat="46.2843316979706287384033203125" lon="7.48509728349745273590087890625"><ele></ele><time>2020-9-19T8:23:45Z</time></trkpt>
<trkpt lat="46.28434184007346630096435546875" lon="7.4851228483021259307861328125"><ele></ele><time>2020-9-19T8:23:48Z</time></trkpt>
<trkpt lat="46.2843503057956695556640625" lon="7.485149167478084564208984375"><ele></ele><time>2020-9-19T8:23:51Z</time></trkpt>
<trkpt lat="46.2843598611652851104736328125" lon="7.48517590574920177459716796875"><ele></ele><time>2020-9-19T8:23:54Z</time></trkpt>
<trkpt lat="46.28436732105910778045654296875" lon="7.4852083437144756317138671875"><ele></ele><time>2020-9-19T8:23:57Z</time></trkpt>
<trkpt lat="46.284373104572296142578125" lon="7.485241703689098358154296875"><ele></ele><time>2020-9-19T8:24:0Z</time></trkpt>
<trkpt lat="46.2843786366283893585205078125" lon="7.48527363874018192291259765625"><ele></ele><time>2020-9-19T8:24:3Z</time></trkpt>
<trkpt lat="46.28439062274992465972900390625" lon="7.48530448414385318756103515625"><ele></ele><time>2020-9-19T8:24:6Z</time></trkpt>
<trkpt lat="46.2844026088714599609375" lon="7.48533658683300018310546875"><ele></ele><time>2020-9-19T8:24:9Z</time></trkpt>
<trkpt lat="46.2844145111739635467529296875" lon="7.48536818660795688629150390625"><ele></ele><time>2020-9-19T8:24:12Z</time></trkpt>
<trkpt lat="46.2844245694577693939208984375" lon="7.48539953492581844329833984375"><ele></ele><time>2020-9-19T8:24:15Z</time></trkpt>
<trkpt lat="46.28443454392254352569580078125" lon="7.48543222434818744659423828125"><ele></ele><time>2020-9-19T8:24:18Z</time></trkpt>
<trkpt lat="46.2844455242156982421875" lon="7.4854631535708904266357421875"><ele></ele><time>2020-9-19T8:24:21Z</time></trkpt>
<trkpt lat="46.28445767797529697418212890625" lon="7.485493831336498260498046875"><ele></ele><time>2020-9-19T8:24:24Z</time></trkpt>
<trkpt lat="46.28446974791586399078369140625" lon="7.48552358709275722503662109375"><ele></ele><time>2020-9-19T8:24:27Z</time></trkpt>
<trkpt lat="46.28448081202805042266845703125" lon="7.485552839934825897216796875"><ele></ele><time>2020-9-19T8:24:30Z</time></trkpt>
<trkpt lat="46.2844922952353954315185546875" lon="7.48558209277689456939697265625"><ele></ele><time>2020-9-19T8:24:33Z</time></trkpt>
<trkpt lat="46.2845060415565967559814453125" lon="7.48561025597155094146728515625"><ele></ele><time>2020-9-19T8:24:36Z</time></trkpt>
<trkpt lat="46.28452054224908351898193359375" lon="7.48563791625201702117919921875"><ele></ele><time>2020-9-19T8:24:39Z</time></trkpt>
<trkpt lat="46.28453546203672885894775390625" lon="7.48566440306603908538818359375"><ele></ele><time>2020-9-19T8:24:42Z</time></trkpt>
<trkpt lat="46.2845499627292156219482421875" lon="7.48568929731845855712890625"><ele></ele><time>2020-9-19T8:24:45Z</time></trkpt>
<trkpt lat="46.284565217792987823486328125" lon="7.48571201227605342864990234375"><ele></ele><time>2020-9-19T8:24:48Z</time></trkpt>
<trkpt lat="46.28458156250417232513427734375" lon="7.48573330231010913848876953125"><ele></ele><time>2020-9-19T8:24:51Z</time></trkpt>
<trkpt lat="46.284598745405673980712890625" lon="7.4857528321444988250732421875"><ele></ele><time>2020-9-19T8:24:54Z</time></trkpt>
<trkpt lat="46.28461609594523906707763671875" lon="7.48576984740793704986572265625"><ele></ele><time>2020-9-19T8:24:57Z</time></trkpt>
<trkpt lat="46.28463319502770900726318359375" lon="7.48578610830008983612060546875"><ele></ele><time>2020-9-19T8:25:0Z</time></trkpt>
<trkpt lat="46.2846507132053375244140625" lon="7.48580270446836948394775390625"><ele></ele><time>2020-9-19T8:25:3Z</time></trkpt>
<trkpt lat="46.28466772846877574920654296875" lon="7.4858198873698711395263671875"><ele></ele><time>2020-9-19T8:25:6Z</time></trkpt>
<trkpt lat="46.28468533046543598175048828125" lon="7.4858373217284679412841796875"><ele></ele><time>2020-9-19T8:25:9Z</time></trkpt>
<trkpt lat="46.2847031839191913604736328125" lon="7.48585467226803302764892578125"><ele></ele><time>2020-9-19T8:25:12Z</time></trkpt>
<trkpt lat="46.28472120501101016998291015625" lon="7.4858705140650272369384765625"><ele></ele><time>2020-9-19T8:25:15Z</time></trkpt>
<trkpt lat="46.28473998047411441802978515625" lon="7.4858830869197845458984375"><ele></ele><time>2020-9-19T8:25:18Z</time></trkpt>
<trkpt lat="46.2847585044801235198974609375" lon="7.48589389957487583160400390625"><ele></ele><time>2020-9-19T8:25:21Z</time></trkpt>
<trkpt lat="46.28477803431451320648193359375" lon="7.48590379022061824798583984375"><ele></ele><time>2020-9-19T8:25:24Z</time></trkpt>
<trkpt lat="46.28479848615825176239013671875" lon="7.48591250739991664886474609375"><ele></ele><time>2020-9-19T8:25:27Z</time></trkpt>
<trkpt lat="46.284819357097148895263671875" lon="7.48592021875083446502685546875"><ele></ele><time>2020-9-19T8:25:30Z</time></trkpt>
<trkpt lat="46.28483989275991916656494140625" lon="7.4859278462827205657958984375"><ele></ele><time>2020-9-19T8:25:33Z</time></trkpt>
<trkpt lat="46.28486084751784801483154296875" lon="7.48593337833881378173828125"><ele></ele><time>2020-9-19T8:25:36Z</time></trkpt>
<trkpt lat="46.28488247282803058624267578125" lon="7.4859385751187801361083984375"><ele></ele><time>2020-9-19T8:25:39Z</time></trkpt>
<trkpt lat="46.2849036790430545806884765625" lon="7.485944442451000213623046875"><ele></ele><time>2020-9-19T8:25:42Z</time></trkpt>
<trkpt lat="46.28492496907711029052734375" lon="7.48595215380191802978515625"><ele></ele><time>2020-9-19T8:25:45Z</time></trkpt>
<trkpt lat="46.2849455885589122772216796875" lon="7.48596296645700931549072265625"><ele></ele><time>2020-9-19T8:25:48Z</time></trkpt>
<trkpt lat="46.28496645949780941009521484375" lon="7.48597822152078151702880859375"><ele></ele><time>2020-9-19T8:25:51Z</time></trkpt>
<trkpt lat="46.28498674370348453521728515625" lon="7.48599666170775890350341796875"><ele></ele><time>2020-9-19T8:25:54Z</time></trkpt>
<trkpt lat="46.2850076146423816680908203125" lon="7.48601778410375118255615234375"><ele></ele><time>2020-9-19T8:25:57Z</time></trkpt>
<trkpt lat="46.2850289046764373779296875" lon="7.48604158870875835418701171875"><ele></ele><time>2020-9-19T8:26:0Z</time></trkpt>
<trkpt lat="46.28504843451082706451416015625" lon="7.4860673211514949798583984375"><ele></ele><time>2020-9-19T8:26:3Z</time></trkpt>
<trkpt lat="46.28506737761199474334716796875" lon="7.48609456233680248260498046875"><ele></ele><time>2020-9-19T8:26:6Z</time></trkpt>
<trkpt lat="46.28508397378027439117431640625" lon="7.48612239025533199310302734375"><ele></ele><time>2020-9-19T8:26:9Z</time></trkpt>
<trkpt lat="46.28510073758661746978759765625" lon="7.48615222983062267303466796875"><ele></ele><time>2020-9-19T8:26:12Z</time></trkpt>
<trkpt lat="46.28511607646942138671875" lon="7.48618341051042079925537109375"><ele></ele><time>2020-9-19T8:26:15Z</time></trkpt>
<trkpt lat="46.28515832126140594482421875" lon="7.4862842448055744171142578125"><ele></ele><time>2020-9-19T8:26:18Z</time></trkpt>
<trkpt lat="46.2852168269455432891845703125" lon="7.48643361032009124755859375"><ele></ele><time>2020-9-19T8:26:21Z</time></trkpt>
<trkpt lat="46.28523250110447406768798828125" lon="7.48647023923695087432861328125"><ele></ele><time>2020-9-19T8:26:24Z</time></trkpt>
<trkpt lat="46.28524641506373882293701171875" lon="7.4865045212209224700927734375"><ele></ele><time>2020-9-19T8:26:27Z</time></trkpt>
<trkpt lat="46.28525999374687671661376953125" lon="7.4865383841097354888916015625"><ele></ele><time>2020-9-19T8:26:30Z</time></trkpt>
<trkpt lat="46.285274662077426910400390625" lon="7.486568391323089599609375"><ele></ele><time>2020-9-19T8:26:33Z</time></trkpt>
<trkpt lat="46.28529033623635768890380859375" lon="7.48659563250839710235595703125"><ele></ele><time>2020-9-19T8:26:36Z</time></trkpt>
<trkpt lat="46.28530642949044704437255859375" lon="7.486625052988529205322265625"><ele></ele><time>2020-9-19T8:26:39Z</time></trkpt>
<trkpt lat="46.28532185219228267669677734375" lon="7.4866530485451221466064453125"><ele></ele><time>2020-9-19T8:26:42Z</time></trkpt>
<trkpt lat="46.2853395380079746246337890625" lon="7.48667928390204906463623046875"><ele></ele><time>2020-9-19T8:26:45Z</time></trkpt>
<trkpt lat="46.28535672090947628021240234375" lon="7.4867053516209125518798828125"><ele></ele><time>2020-9-19T8:26:48Z</time></trkpt>
<trkpt lat="46.28537423908710479736328125" lon="7.4867298267781734466552734375"><ele></ele><time>2020-9-19T8:26:51Z</time></trkpt>
<trkpt lat="46.28539175726473331451416015625" lon="7.4867509491741657257080078125"><ele></ele><time>2020-9-19T8:26:54Z</time></trkpt>
<trkpt lat="46.28541170619428157806396484375" lon="7.48677047900855541229248046875"><ele></ele><time>2020-9-19T8:26:57Z</time></trkpt>
<trkpt lat="46.285432241857051849365234375" lon="7.48678975738584995269775390625"><ele></ele><time>2020-9-19T8:27:0Z</time></trkpt>
<trkpt lat="46.28545512445271015167236328125" lon="7.48680769465863704681396484375"><ele></ele><time>2020-9-19T8:27:3Z</time></trkpt>
<trkpt lat="46.285477168858051300048828125" lon="7.48682563193142414093017578125"><ele></ele><time>2020-9-19T8:27:6Z</time></trkpt>
<trkpt lat="46.28549736924469470977783203125" lon="7.48684558086097240447998046875"><ele></ele><time>2020-9-19T8:27:9Z</time></trkpt>
<trkpt lat="46.28551865927875041961669921875" lon="7.4868646077811717987060546875"><ele></ele><time>2020-9-19T8:27:12Z</time></trkpt>
<trkpt lat="46.28554179333150386810302734375" lon="7.48687843792140483856201171875"><ele></ele><time>2020-9-19T8:27:15Z</time></trkpt>
<trkpt lat="46.28556576557457447052001953125" lon="7.48688614927232265472412109375"><ele></ele><time>2020-9-19T8:27:18Z</time></trkpt>
<trkpt lat="46.28558806143701076507568359375" lon="7.48689017258584499359130859375"><ele></ele><time>2020-9-19T8:27:21Z</time></trkpt>
<trkpt lat="46.28561035729944705963134765625" lon="7.48689302243292331695556640625"><ele></ele><time>2020-9-19T8:27:24Z</time></trkpt>
<trkpt lat="46.2856335751712322235107421875" lon="7.48689050786197185516357421875"><ele></ele><time>2020-9-19T8:27:27Z</time></trkpt>
<trkpt lat="46.28565729595720767974853515625" lon="7.48688430525362491607666015625"><ele></ele><time>2020-9-19T8:27:30Z</time></trkpt>
<trkpt lat="46.2856806814670562744140625" lon="7.48687575571238994598388671875"><ele></ele><time>2020-9-19T8:27:33Z</time></trkpt>
<trkpt lat="46.28571026958525180816650390625" lon="7.4868656136095523834228515625"><ele></ele><time>2020-9-19T8:27:36Z</time></trkpt>
<trkpt lat="46.2857411988079547882080078125" lon="7.48685999773442745208740234375"><ele></ele><time>2020-9-19T8:27:39Z</time></trkpt>
<trkpt lat="46.2857707031071186065673828125" lon="7.48685966245830059051513671875"><ele></ele><time>2020-9-19T8:27:42Z</time></trkpt>
<trkpt lat="46.285855360329151153564453125" lon="7.4868693016469478607177734375"><ele></ele><time>2020-9-19T8:27:45Z</time></trkpt>
<trkpt lat="46.2858846969902515411376953125" lon="7.48687751591205596923828125"><ele></ele><time>2020-9-19T8:27:48Z</time></trkpt>
<trkpt lat="46.285916380584239959716796875" lon="7.48688179068267345428466796875"><ele></ele><time>2020-9-19T8:27:51Z</time></trkpt>
<trkpt lat="46.285940520465373992919921875" lon="7.4869034998118877410888671875"><ele></ele><time>2020-9-19T8:27:54Z</time></trkpt>
<trkpt lat="46.28595502115786075592041015625" lon="7.48693652451038360595703125"><ele></ele><time>2020-9-19T8:27:57Z</time></trkpt>
<trkpt lat="46.2859688512980937957763671875" lon="7.4869722314178943634033203125"><ele></ele><time>2020-9-19T8:28:0Z</time></trkpt>
<trkpt lat="46.285977065563201904296875" lon="7.48701070435345172882080078125"><ele></ele><time>2020-9-19T8:28:3Z</time></trkpt>
<trkpt lat="46.285981424152851104736328125" lon="7.4870483390986919403076171875"><ele></ele><time>2020-9-19T8:28:6Z</time></trkpt>
<trkpt lat="46.2859825976192951202392578125" lon="7.48708345927298069000244140625"><ele></ele><time>2020-9-19T8:28:9Z</time></trkpt>
<trkpt lat="46.285980083048343658447265625" lon="7.48711883090436458587646484375"><ele></ele><time>2020-9-19T8:28:12Z</time></trkpt>
<trkpt lat="46.28597882576286792755126953125" lon="7.48715319670736789703369140625"><ele></ele><time>2020-9-19T8:28:15Z</time></trkpt>
<trkpt lat="46.28597714938223361968994140625" lon="7.4871894903481006622314453125"><ele></ele><time>2020-9-19T8:28:18Z</time></trkpt>
<trkpt lat="46.28597932867705821990966796875" lon="7.48722611926496028900146484375"><ele></ele><time>2020-9-19T8:28:21Z</time></trkpt>
<trkpt lat="46.28598201088607311248779296875" lon="7.48726450838148593902587890625"><ele></ele><time>2020-9-19T8:28:24Z</time></trkpt>
<trkpt lat="46.28598586656153202056884765625" lon="7.48730239458382129669189453125"><ele></ele><time>2020-9-19T8:28:27Z</time></trkpt>
<trkpt lat="46.2859889678657054901123046875" lon="7.487340532243251800537109375"><ele></ele><time>2020-9-19T8:28:30Z</time></trkpt>
<trkpt lat="46.2859923206269741058349609375" lon="7.4873802624642848968505859375"><ele></ele><time>2020-9-19T8:28:33Z</time></trkpt>
<trkpt lat="46.28599114716053009033203125" lon="7.4874215014278888702392578125"><ele></ele><time>2020-9-19T8:28:36Z</time></trkpt>
<trkpt lat="46.28599290736019611358642578125" lon="7.48746450059115886688232421875"><ele></ele><time>2020-9-19T8:28:39Z</time></trkpt>
<trkpt lat="46.28600648604333400726318359375" lon="7.48750506900250911712646484375"><ele></ele><time>2020-9-19T8:28:42Z</time></trkpt>
<trkpt lat="46.28603138029575347900390625" lon="7.48753155581653118133544921875"><ele></ele><time>2020-9-19T8:28:45Z</time></trkpt>
<trkpt lat="46.28606096841394901275634765625" lon="7.487539686262607574462890625"><ele></ele><time>2020-9-19T8:28:48Z</time></trkpt>
<trkpt lat="46.2860848568379878997802734375" lon="7.487528622150421142578125"><ele></ele><time>2020-9-19T8:28:51Z</time></trkpt>
<trkpt lat="46.28610472194850444793701171875" lon="7.48750473372638225555419921875"><ele></ele><time>2020-9-19T8:28:54Z</time></trkpt>
<trkpt lat="46.286114864051342010498046875" lon="7.4874724633991718292236328125"><ele></ele><time>2020-9-19T8:28:57Z</time></trkpt>
<trkpt lat="46.2861203961074352264404296875" lon="7.48743684031069278717041015625"><ele></ele><time>2020-9-19T8:29:0Z</time></trkpt>
<trkpt lat="46.28612483851611614227294921875" lon="7.48740322887897491455078125"><ele></ele><time>2020-9-19T8:29:3Z</time></trkpt>
<trkpt lat="46.2861274369060993194580078125" lon="7.48736995272338390350341796875"><ele></ele><time>2020-9-19T8:29:6Z</time></trkpt>
<trkpt lat="46.286128275096416473388671875" lon="7.48733659274876117706298828125"><ele></ele><time>2020-9-19T8:29:9Z</time></trkpt>
<trkpt lat="46.28612919710576534271240234375" lon="7.4873044900596141815185546875"><ele></ele><time>2020-9-19T8:29:12Z</time></trkpt>
<trkpt lat="46.286132298409938812255859375" lon="7.487271465361118316650390625"><ele></ele><time>2020-9-19T8:29:15Z</time></trkpt>
<trkpt lat="46.28613539971411228179931640625" lon="7.48723953031003475189208984375"><ele></ele><time>2020-9-19T8:29:18Z</time></trkpt>
<trkpt lat="46.28613908775150775909423828125" lon="7.487208433449268341064453125"><ele></ele><time>2020-9-19T8:29:21Z</time></trkpt>
<trkpt lat="46.2861473858356475830078125" lon="7.4871784262359142303466796875"><ele></ele><time>2020-9-19T8:29:24Z</time></trkpt>
<trkpt lat="46.2861576117575168609619140625" lon="7.48714950866997241973876953125"><ele></ele><time>2020-9-19T8:29:27Z</time></trkpt>
<trkpt lat="46.28616825677454471588134765625" lon="7.487121932208538055419921875"><ele></ele><time>2020-9-19T8:29:30Z</time></trkpt>
<trkpt lat="46.286179237067699432373046875" lon="7.48709536157548427581787109375"><ele></ele><time>2020-9-19T8:29:33Z</time></trkpt>
<trkpt lat="46.2861897982656955718994140625" lon="7.487068958580493927001953125"><ele></ele><time>2020-9-19T8:29:36Z</time></trkpt>
<trkpt lat="46.28620161674916744232177734375" lon="7.4870439805090427398681640625"><ele></ele><time>2020-9-19T8:29:39Z</time></trkpt>
<trkpt lat="46.28621351905167102813720703125" lon="7.48702093027532100677490234375"><ele></ele><time>2020-9-19T8:29:42Z</time></trkpt>
<trkpt lat="46.2862256728112697601318359375" lon="7.4869983829557895660400390625"><ele></ele><time>2020-9-19T8:29:45Z</time></trkpt>
<trkpt lat="46.28623648546636104583740234375" lon="7.4869762547314167022705078125"><ele></ele><time>2020-9-19T8:29:48Z</time></trkpt>
<trkpt lat="46.2862478010356426239013671875" lon="7.48695337213575839996337890625"><ele></ele><time>2020-9-19T8:29:51Z</time></trkpt>
<trkpt lat="46.28625676967203617095947265625" lon="7.48692847788333892822265625"><ele></ele><time>2020-9-19T8:29:54Z</time></trkpt>
<trkpt lat="46.28626448102295398712158203125" lon="7.48690173961222171783447265625"><ele></ele><time>2020-9-19T8:29:57Z</time></trkpt>
<trkpt lat="46.2862716056406497955322265625" lon="7.4868750013411045074462890625"><ele></ele><time>2020-9-19T8:30:0Z</time></trkpt>
<trkpt lat="46.2862776406109333038330078125" lon="7.48684801161289215087890625"><ele></ele><time>2020-9-19T8:30:3Z</time></trkpt>
<trkpt lat="46.28627990372478961944580078125" lon="7.486820183694362640380859375"><ele></ele><time>2020-9-19T8:30:6Z</time></trkpt>
<trkpt lat="46.28627688623964786529541015625" lon="7.48679227195680141448974609375"><ele></ele><time>2020-9-19T8:30:9Z</time></trkpt>
<trkpt lat="46.2862699292600154876708984375" lon="7.48676486313343048095703125"><ele></ele><time>2020-9-19T8:30:12Z</time></trkpt>
<trkpt lat="46.286261714994907379150390625" lon="7.48673846013844013214111328125"><ele></ele><time>2020-9-19T8:30:15Z</time></trkpt>
<trkpt lat="46.28625157289206981658935546875" lon="7.48671381734311580657958984375"><ele></ele><time>2020-9-19T8:30:18Z</time></trkpt>
<trkpt lat="46.286240927875041961669921875" lon="7.48668950982391834259033203125"><ele></ele><time>2020-9-19T8:30:21Z</time></trkpt>
<trkpt lat="46.28623028285801410675048828125" lon="7.48666553758084774017333984375"><ele></ele><time>2020-9-19T8:30:24Z</time></trkpt>
<trkpt lat="46.28622022457420825958251953125" lon="7.48664206825196743011474609375"><ele></ele><time>2020-9-19T8:30:27Z</time></trkpt>
<trkpt lat="46.2862117588520050048828125" lon="7.48661725781857967376708984375"><ele></ele><time>2020-9-19T8:30:30Z</time></trkpt>
<trkpt lat="46.28620413132011890411376953125" lon="7.4865911900997161865234375"><ele></ele><time>2020-9-19T8:30:33Z</time></trkpt>
<trkpt lat="46.2861958332359790802001953125" lon="7.4865655414760112762451171875"><ele></ele><time>2020-9-19T8:30:36Z</time></trkpt>
<trkpt lat="46.2861876189708709716796875" lon="7.4865400604903697967529296875"><ele></ele><time>2020-9-19T8:30:39Z</time></trkpt>
<trkpt lat="46.2861800752580165863037109375" lon="7.48651499859988689422607421875"><ele></ele><time>2020-9-19T8:30:42Z</time></trkpt>
<trkpt lat="46.286172531545162200927734375" lon="7.48649035580456256866455078125"><ele></ele><time>2020-9-19T8:30:45Z</time></trkpt>
<trkpt lat="46.286165826022624969482421875" lon="7.48646588064730167388916015625"><ele></ele><time>2020-9-19T8:30:48Z</time></trkpt>
<trkpt lat="46.286161802709102630615234375" lon="7.486440651118755340576171875"><ele></ele><time>2020-9-19T8:30:51Z</time></trkpt>
<trkpt lat="46.286162473261356353759765625" lon="7.48641558922827243804931640625"><ele></ele><time>2020-9-19T8:30:54Z</time></trkpt>
<trkpt lat="46.28616875968873500823974609375" lon="7.48639346100389957427978515625"><ele></ele><time>2020-9-19T8:30:57Z</time></trkpt>
<trkpt lat="46.2861790694296360015869140625" lon="7.48637753538787364959716796875"><ele></ele><time>2020-9-19T8:31:0Z</time></trkpt>
<trkpt lat="46.28619407303631305694580078125" lon="7.486368902027606964111328125"><ele></ele><time>2020-9-19T8:31:3Z</time></trkpt>
<trkpt lat="46.28621150739490985870361328125" lon="7.48637166805565357208251953125"><ele></ele><time>2020-9-19T8:31:6Z</time></trkpt>
<trkpt lat="46.2862280197441577911376953125" lon="7.4863831512629985809326171875"><ele></ele><time>2020-9-19T8:31:9Z</time></trkpt>
<trkpt lat="46.2862431071698665618896484375" lon="7.4863989092409610748291015625"><ele></ele><time>2020-9-19T8:31:12Z</time></trkpt>
<trkpt lat="46.2862592004239559173583984375" lon="7.48641542159020900726318359375"><ele></ele><time>2020-9-19T8:31:15Z</time></trkpt>
<trkpt lat="46.2862759642302989959716796875" lon="7.48642950318753719329833984375"><ele></ele><time>2020-9-19T8:31:18Z</time></trkpt>
<trkpt lat="46.2862920574843883514404296875" lon="7.48644257895648479461669921875"><ele></ele><time>2020-9-19T8:31:21Z</time></trkpt>
<trkpt lat="46.286307983100414276123046875" lon="7.48645632527768611907958984375"><ele></ele><time>2020-9-19T8:31:24Z</time></trkpt>
<trkpt lat="46.28632399253547191619873046875" lon="7.4864703230559825897216796875"><ele></ele><time>2020-9-19T8:31:27Z</time></trkpt>
<trkpt lat="46.28634025342762470245361328125" lon="7.48648432083427906036376953125"><ele></ele><time>2020-9-19T8:31:30Z</time></trkpt>
<trkpt lat="46.28635617904365062713623046875" lon="7.48649706132709980010986328125"><ele></ele><time>2020-9-19T8:31:33Z</time></trkpt>
<trkpt lat="46.2863731943070888519287109375" lon="7.486508376896381378173828125"><ele></ele><time>2020-9-19T8:31:36Z</time></trkpt>
<trkpt lat="46.28638953901827335357666015625" lon="7.4865209497511386871337890625"><ele></ele><time>2020-9-19T8:31:39Z</time></trkpt>
<trkpt lat="46.286404542624950408935546875" lon="7.4865363724529743194580078125"><ele></ele><time>2020-9-19T8:31:42Z</time></trkpt>
<trkpt lat="46.286419294774532318115234375" lon="7.4865521304309368133544921875"><ele></ele><time>2020-9-19T8:31:45Z</time></trkpt>
<trkpt lat="46.28643446601927280426025390625" lon="7.48656772077083587646484375"><ele></ele><time>2020-9-19T8:31:48Z</time></trkpt>
<trkpt lat="46.28644955344498157501220703125" lon="7.48658071272075176239013671875"><ele></ele><time>2020-9-19T8:31:51Z</time></trkpt>
<trkpt lat="46.28646547906100749969482421875" lon="7.486589513719081878662109375"><ele></ele><time>2020-9-19T8:31:54Z</time></trkpt>
<trkpt lat="46.286482326686382293701171875" lon="7.4865937046706676483154296875"><ele></ele><time>2020-9-19T8:31:57Z</time></trkpt>
<trkpt lat="46.2864992581307888031005859375" lon="7.48659454286098480224609375"><ele></ele><time>2020-9-19T8:32:0Z</time></trkpt>
<trkpt lat="46.28651551902294158935546875" lon="7.486593537032604217529296875"><ele></ele><time>2020-9-19T8:32:3Z</time></trkpt>
<trkpt lat="46.28653161227703094482421875" lon="7.4865876697003841400146484375"><ele></ele><time>2020-9-19T8:32:6Z</time></trkpt>
<trkpt lat="46.28654628060758113861083984375" lon="7.486577443778514862060546875"><ele></ele><time>2020-9-19T8:32:9Z</time></trkpt>
<trkpt lat="46.2865577638149261474609375" lon="7.486562691628932952880859375"><ele></ele><time>2020-9-19T8:32:12Z</time></trkpt>
<trkpt lat="46.28656857647001743316650390625" lon="7.4865457601845264434814453125"><ele></ele><time>2020-9-19T8:32:15Z</time></trkpt>
<trkpt lat="46.286580227315425872802734375" lon="7.486530505120754241943359375"><ele></ele><time>2020-9-19T8:32:18Z</time></trkpt>
<trkpt lat="46.2865926325321197509765625" lon="7.4865169264376163482666015625"><ele></ele><time>2020-9-19T8:32:21Z</time></trkpt>
<trkpt lat="46.28660679794847965240478515625" lon="7.48650326393544673919677734375"><ele></ele><time>2020-9-19T8:32:24Z</time></trkpt>
<trkpt lat="46.2866206280887126922607421875" lon="7.4864897690713405609130859375"><ele></ele><time>2020-9-19T8:32:27Z</time></trkpt>
<trkpt lat="46.2866342067718505859375" lon="7.48647711239755153656005859375"><ele></ele><time>2020-9-19T8:32:30Z</time></trkpt>
<trkpt lat="46.2866487912833690643310546875" lon="7.4864651262760162353515625"><ele></ele><time>2020-9-19T8:32:33Z</time></trkpt>
<trkpt lat="46.28666362725198268890380859375" lon="7.48645414598286151885986328125"><ele></ele><time>2020-9-19T8:32:36Z</time></trkpt>
<trkpt lat="46.28667720593512058258056640625" lon="7.48644291423261165618896484375"><ele></ele><time>2020-9-19T8:32:39Z</time></trkpt>
<trkpt lat="46.28669078461825847625732421875" lon="7.486430592834949493408203125"><ele></ele><time>2020-9-19T8:32:42Z</time></trkpt>
<trkpt lat="46.28670654259622097015380859375" lon="7.486417852342128753662109375"><ele></ele><time>2020-9-19T8:32:45Z</time></trkpt>
<trkpt lat="46.28672246821224689483642578125" lon="7.48640586622059345245361328125"><ele></ele><time>2020-9-19T8:32:48Z</time></trkpt>
<trkpt lat="46.2867379747331142425537109375" lon="7.48639362864196300506591796875"><ele></ele><time>2020-9-19T8:32:51Z</time></trkpt>
<trkpt lat="46.2867527268826961517333984375" lon="7.4863804690539836883544921875"><ele></ele><time>2020-9-19T8:32:54Z</time></trkpt>
<trkpt lat="46.286767311394214630126953125" lon="7.48636747710406780242919921875"><ele></ele><time>2020-9-19T8:32:57Z</time></trkpt>
<trkpt lat="46.2867805548012256622314453125" lon="7.48635356314480304718017578125"><ele></ele><time>2020-9-19T8:33:0Z</time></trkpt>
<trkpt lat="46.28679170273244380950927734375" lon="7.486338056623935699462890625"><ele></ele><time>2020-9-19T8:33:3Z</time></trkpt>
<trkpt lat="46.2868018448352813720703125" lon="7.48632003553211688995361328125"><ele></ele><time>2020-9-19T8:33:6Z</time></trkpt>
<trkpt lat="46.28681148402392864227294921875" lon="7.4863000027835369110107421875"><ele></ele><time>2020-9-19T8:33:9Z</time></trkpt>
<trkpt lat="46.2868206202983856201171875" lon="7.48628114350140094757080078125"><ele></ele><time>2020-9-19T8:33:12Z</time></trkpt>
<trkpt lat="46.2868291698396205902099609375" lon="7.48626236803829669952392578125"><ele></ele><time>2020-9-19T8:33:15Z</time></trkpt>
<trkpt lat="46.28683730028569698333740234375" lon="7.48624325729906558990478515625"><ele></ele><time>2020-9-19T8:33:18Z</time></trkpt>
<trkpt lat="46.2868442572653293609619140625" lon="7.486225403845310211181640625"><ele></ele><time>2020-9-19T8:33:21Z</time></trkpt>
<trkpt lat="46.28685121424496173858642578125" lon="7.4862064607441425323486328125"><ele></ele><time>2020-9-19T8:33:24Z</time></trkpt>
<trkpt lat="46.28685674630105495452880859375" lon="7.486185841262340545654296875"><ele></ele><time>2020-9-19T8:33:27Z</time></trkpt>
<trkpt lat="46.28686361946165561676025390625" lon="7.48616480268537998199462890625"><ele></ele><time>2020-9-19T8:33:30Z</time></trkpt>
<trkpt lat="46.28687015734612941741943359375" lon="7.48614233918488025665283203125"><ele></ele><time>2020-9-19T8:33:33Z</time></trkpt>
<trkpt lat="46.2868771143257617950439453125" lon="7.48612071387469768524169921875"><ele></ele><time>2020-9-19T8:33:36Z</time></trkpt>
<trkpt lat="46.286884658038616180419921875" lon="7.48609825037419795989990234375"><ele></ele><time>2020-9-19T8:33:39Z</time></trkpt>
<trkpt lat="46.28689102828502655029296875" lon="7.486075870692729949951171875"><ele></ele><time>2020-9-19T8:33:42Z</time></trkpt>
<trkpt lat="46.28689664416015148162841796875" lon="7.4860532395541667938232421875"><ele></ele><time>2020-9-19T8:33:45Z</time></trkpt>
<trkpt lat="46.28690117038786411285400390625" lon="7.48603203333914279937744140625"><ele></ele><time>2020-9-19T8:33:48Z</time></trkpt>
<trkpt lat="46.286910474300384521484375" lon="7.48601007275283336639404296875"><ele></ele><time>2020-9-19T8:33:51Z</time></trkpt>
<trkpt lat="46.28691776655614376068115234375" lon="7.485988698899745941162109375"><ele></ele><time>2020-9-19T8:33:54Z</time></trkpt>
<trkpt lat="46.2869252264499664306640625" lon="7.4859670735895633697509765625"><ele></ele><time>2020-9-19T8:33:57Z</time></trkpt>
<trkpt lat="46.2869324348866939544677734375" lon="7.485947124660015106201171875"><ele></ele><time>2020-9-19T8:34:0Z</time></trkpt>
<trkpt lat="46.28693939186632633209228515625" lon="7.48592709191143512725830078125"><ele></ele><time>2020-9-19T8:34:3Z</time></trkpt>
<trkpt lat="46.28694492392241954803466796875" lon="7.4859094060957431793212890625"><ele></ele><time>2020-9-19T8:34:6Z</time></trkpt>
<trkpt lat="46.2869505397975444793701171875" lon="7.4858976714313030242919921875"><ele></ele><time>2020-9-19T8:34:9Z</time></trkpt>
<trkpt lat="46.2869520485401153564453125" lon="7.48589448630809783935546875"><ele></ele><time>2020-9-19T8:34:12Z</time></trkpt>
<trkpt lat="46.28711222670972347259521484375" lon="7.48594871722161769866943359375"><ele></ele><time>2020-9-19T8:34:15Z</time></trkpt>
<trkpt lat="46.28713016398251056671142578125" lon="7.48594838194549083709716796875"><ele></ele><time>2020-9-19T8:34:18Z</time></trkpt>
<trkpt lat="46.28714877180755138397216796875" lon="7.48595290817320346832275390625"><ele></ele><time>2020-9-19T8:34:21Z</time></trkpt>
<trkpt lat="46.28716603852808475494384765625" lon="7.485963217914104461669921875"><ele></ele><time>2020-9-19T8:34:24Z</time></trkpt>
<trkpt lat="46.287181712687015533447265625" lon="7.485977299511432647705078125"><ele></ele><time>2020-9-19T8:34:27Z</time></trkpt>
<trkpt lat="46.287194453179836273193359375" lon="7.48599238693714141845703125"><ele></ele><time>2020-9-19T8:34:30Z</time></trkpt>
<trkpt lat="46.28720543347299098968505859375" lon="7.4860079772770404815673828125"><ele></ele><time>2020-9-19T8:34:33Z</time></trkpt>
<trkpt lat="46.2872144021093845367431640625" lon="7.486025579273700714111328125"><ele></ele><time>2020-9-19T8:34:36Z</time></trkpt>
<trkpt lat="46.28722739405930042266845703125" lon="7.48604041524231433868408203125"><ele></ele><time>2020-9-19T8:34:39Z</time></trkpt>
<trkpt lat="46.28724197857081890106201171875" lon="7.486053071916103363037109375"><ele></ele><time>2020-9-19T8:34:42Z</time></trkpt>
<trkpt lat="46.287256814539432525634765625" lon="7.486064471304416656494140625"><ele></ele><time>2020-9-19T8:34:45Z</time></trkpt>
<trkpt lat="46.2872720696032047271728515625" lon="7.48607712797820568084716796875"><ele></ele><time>2020-9-19T8:34:48Z</time></trkpt>
<trkpt lat="46.28728531301021575927734375" lon="7.48608819209039211273193359375"><ele></ele><time>2020-9-19T8:34:51Z</time></trkpt>
<trkpt lat="46.2872998975217342376708984375" lon="7.4860961548984050750732421875"><ele></ele><time>2020-9-19T8:34:54Z</time></trkpt>
<trkpt lat="46.28731406293809413909912109375" lon="7.4861052073538303375244140625"><ele></ele><time>2020-9-19T8:34:57Z</time></trkpt>
<trkpt lat="46.28732831217348575592041015625" lon="7.48611669056117534637451171875"><ele></ele><time>2020-9-19T8:35:0Z</time></trkpt>
<trkpt lat="46.28734323196113109588623046875" lon="7.48612825758755207061767578125"><ele></ele><time>2020-9-19T8:35:3Z</time></trkpt>
<trkpt lat="46.28735731355845928192138671875" lon="7.48613865114748477935791015625"><ele></ele><time>2020-9-19T8:35:6Z</time></trkpt>
<trkpt lat="46.28737114369869232177734375" lon="7.4861486256122589111328125"><ele></ele><time>2020-9-19T8:35:9Z</time></trkpt>
<trkpt lat="46.2873850576579570770263671875" lon="7.48615608550608158111572265625"><ele></ele><time>2020-9-19T8:35:12Z</time></trkpt>
<trkpt lat="46.2873984687030315399169921875" lon="7.48616136610507965087890625"><ele></ele><time>2020-9-19T8:35:15Z</time></trkpt>
<trkpt lat="46.2874155677855014801025390625" lon="7.486165054142475128173828125"><ele></ele><time>2020-9-19T8:35:18Z</time></trkpt>
<trkpt lat="46.2874323315918445587158203125" lon="7.4861668981611728668212890625"><ele></ele><time>2020-9-19T8:35:21Z</time></trkpt>
<trkpt lat="46.287441886961460113525390625" lon="7.4861655570566654205322265625"><ele></ele><time>2020-9-19T8:35:24Z</time></trkpt>
<trkpt lat="46.28745437599718570709228515625" lon="7.48616077937185764312744140625"><ele></ele><time>2020-9-19T8:35:27Z</time></trkpt>
<trkpt lat="46.287463009357452392578125" lon="7.48615340329706668853759765625"><ele></ele><time>2020-9-19T8:35:30Z</time></trkpt>
<trkpt lat="46.28747449256479740142822265625" lon="7.4861407466232776641845703125"><ele></ele><time>2020-9-19T8:35:33Z</time></trkpt>
<trkpt lat="46.2874831259250640869140625" lon="7.48612540774047374725341796875"><ele></ele><time>2020-9-19T8:35:36Z</time></trkpt>
<trkpt lat="46.2874856404960155487060546875" lon="7.48610897921025753021240234375"><ele></ele><time>2020-9-19T8:35:39Z</time></trkpt>
<trkpt lat="46.287487484514713287353515625" lon="7.48609372414648532867431640625"><ele></ele><time>2020-9-19T8:35:42Z</time></trkpt>
<trkpt lat="46.2874893285334110260009765625" lon="7.48607779853045940399169921875"><ele></ele><time>2020-9-19T8:35:45Z</time></trkpt>
<trkpt lat="46.2874923460185527801513671875" lon="7.48605952598154544830322265625"><ele></ele><time>2020-9-19T8:35:48Z</time></trkpt>
<trkpt lat="46.28749930299818515777587890625" lon="7.4860448576509952545166015625"><ele></ele><time>2020-9-19T8:35:51Z</time></trkpt>
<trkpt lat="46.28750919364392757415771484375" lon="7.48602985404431819915771484375"><ele></ele><time>2020-9-19T8:35:54Z</time></trkpt>
<trkpt lat="46.28752143122255802154541015625" lon="7.486015520989894866943359375"><ele></ele><time>2020-9-19T8:35:57Z</time></trkpt>
<trkpt lat="46.28753341734409332275390625" lon="7.4860042892396450042724609375"><ele></ele><time>2020-9-19T8:36:0Z</time></trkpt>
<trkpt lat="46.2875416316092014312744140625" lon="7.48599230311810970306396484375"><ele></ele><time>2020-9-19T8:36:3Z</time></trkpt>
<trkpt lat="46.28755026496946811676025390625" lon="7.48598241247236728668212890625"><ele></ele><time>2020-9-19T8:36:6Z</time></trkpt>
<trkpt lat="46.287558563053607940673828125" lon="7.485973946750164031982421875"><ele></ele><time>2020-9-19T8:36:9Z</time></trkpt>
<trkpt lat="46.2875681184232234954833984375" lon="7.48596967197954654693603515625"><ele></ele><time>2020-9-19T8:36:12Z</time></trkpt>
<trkpt lat="46.2875808589160442352294921875" lon="7.48596866615116596221923828125"><ele></ele><time>2020-9-19T8:36:15Z</time></trkpt>
<trkpt lat="46.28759234212338924407958984375" lon="7.48597201891243457794189453125"><ele></ele><time>2020-9-19T8:36:18Z</time></trkpt>
<trkpt lat="46.2876065075397491455078125" lon="7.48597486875951290130615234375"><ele></ele><time>2020-9-19T8:36:21Z</time></trkpt>
<trkpt lat="46.2876217626035213470458984375" lon="7.48598040081560611724853515625"><ele></ele><time>2020-9-19T8:36:24Z</time></trkpt>
<trkpt lat="46.28763408400118350982666015625" lon="7.48598928563296794891357421875"><ele></ele><time>2020-9-19T8:36:27Z</time></trkpt>
<trkpt lat="46.287648417055606842041015625" lon="7.486000768840312957763671875"><ele></ele><time>2020-9-19T8:36:30Z</time></trkpt>
<trkpt lat="46.28765872679650783538818359375" lon="7.48601627536118030548095703125"><ele></ele><time>2020-9-19T8:36:33Z</time></trkpt>
<trkpt lat="46.28766618669033050537109375" lon="7.48603127896785736083984375"><ele></ele><time>2020-9-19T8:36:36Z</time></trkpt>
<trkpt lat="46.28767247311770915985107421875" lon="7.48604527674615383148193359375"><ele></ele><time>2020-9-19T8:36:39Z</time></trkpt>
<trkpt lat="46.28768085502088069915771484375" lon="7.48606103472411632537841796875"><ele></ele><time>2020-9-19T8:36:42Z</time></trkpt>
<trkpt lat="46.28769024275243282318115234375" lon="7.48607628978788852691650390625"><ele></ele><time>2020-9-19T8:36:45Z</time></trkpt>
<trkpt lat="46.2876965291798114776611328125" lon="7.486090622842311859130859375"><ele></ele><time>2020-9-19T8:36:48Z</time></trkpt>
<trkpt lat="46.28770239651203155517578125" lon="7.48610629700124263763427734375"><ele></ele><time>2020-9-19T8:36:51Z</time></trkpt>
<trkpt lat="46.28770801238715648651123046875" lon="7.48612356372177600860595703125"><ele></ele><time>2020-9-19T8:36:54Z</time></trkpt>
<trkpt lat="46.2877149693667888641357421875" lon="7.486138902604579925537109375"><ele></ele><time>2020-9-19T8:36:57Z</time></trkpt>
<trkpt lat="46.2877223454415798187255859375" lon="7.48614854179322719573974609375"><ele></ele><time>2020-9-19T8:37:0Z</time></trkpt>
<trkpt lat="46.28772796131670475006103515625" lon="7.48615658842027187347412109375"><ele></ele><time>2020-9-19T8:37:3Z</time></trkpt>
<trkpt lat="46.287736594676971435546875" lon="7.48616530559957027435302734375"><ele></ele><time>2020-9-19T8:37:6Z</time></trkpt>
<trkpt lat="46.28774958662688732147216796875" lon="7.48617620207369327545166015625"><ele></ele><time>2020-9-19T8:37:9Z</time></trkpt>
<trkpt lat="46.28776232711970806121826171875" lon="7.48618793673813343048095703125"><ele></ele><time>2020-9-19T8:37:12Z</time></trkpt>
<trkpt lat="46.2877749837934970855712890625" lon="7.48620168305933475494384765625"><ele></ele><time>2020-9-19T8:37:15Z</time></trkpt>
<trkpt lat="46.28778428770601749420166015625" lon="7.48621442355215549468994140625"><ele></ele><time>2020-9-19T8:37:18Z</time></trkpt>
<trkpt lat="46.28779350779950618743896484375" lon="7.4862245656549930572509765625"><ele></ele><time>2020-9-19T8:37:21Z</time></trkpt>
<trkpt lat="46.28780507482588291168212890625" lon="7.4862326122820377349853515625"><ele></ele><time>2020-9-19T8:37:24Z</time></trkpt>
<trkpt lat="46.2878178991377353668212890625" lon="7.48623990453779697418212890625"><ele></ele><time>2020-9-19T8:37:27Z</time></trkpt>
<trkpt lat="46.28783105872571468353271484375" lon="7.48624593950808048248291015625"><ele></ele><time>2020-9-19T8:37:30Z</time></trkpt>
<trkpt lat="46.28784245811402797698974609375" lon="7.48625247739255428314208984375"><ele></ele><time>2020-9-19T8:37:33Z</time></trkpt>
<trkpt lat="46.28785452805459499359130859375" lon="7.4862617813050746917724609375"><ele></ele><time>2020-9-19T8:37:36Z</time></trkpt>
<trkpt lat="46.2878693640232086181640625" lon="7.4862708337604999542236328125"><ele></ele><time>2020-9-19T8:37:39Z</time></trkpt>
<trkpt lat="46.28788386471569538116455078125" lon="7.48627946712076663970947265625"><ele></ele><time>2020-9-19T8:37:42Z</time></trkpt>
<trkpt lat="46.28790096379816532135009765625" lon="7.4862921237945556640625"><ele></ele><time>2020-9-19T8:37:45Z</time></trkpt>
<trkpt lat="46.2879178114235401153564453125" lon="7.48630545102059841156005859375"><ele></ele><time>2020-9-19T8:37:48Z</time></trkpt>
<trkpt lat="46.28793365322053432464599609375" lon="7.48631752096116542816162109375"><ele></ele><time>2020-9-19T8:37:51Z</time></trkpt>
<trkpt lat="46.28794890828430652618408203125" lon="7.486331351101398468017578125"><ele></ele><time>2020-9-19T8:37:54Z</time></trkpt>
<trkpt lat="46.2879610620439052581787109375" lon="7.48634920455515384674072265625"><ele></ele><time>2020-9-19T8:37:57Z</time></trkpt>
<trkpt lat="46.28797329962253570556640625" lon="7.48636496253311634063720703125"><ele></ele><time>2020-9-19T8:38:0Z</time></trkpt>
<trkpt lat="46.287988387048244476318359375" lon="7.4863808043301105499267578125"><ele></ele><time>2020-9-19T8:38:3Z</time></trkpt>
<trkpt lat="46.288003139197826385498046875" lon="7.48639614321291446685791015625"><ele></ele><time>2020-9-19T8:38:6Z</time></trkpt>
<trkpt lat="46.28801948390901088714599609375" lon="7.48640821315348148345947265625"><ele></ele><time>2020-9-19T8:38:9Z</time></trkpt>
<trkpt lat="46.28803557716310024261474609375" lon="7.48642045073211193084716796875"><ele></ele><time>2020-9-19T8:38:12Z</time></trkpt>
<trkpt lat="46.28805032931268215179443359375" lon="7.486435286700725555419921875"><ele></ele><time>2020-9-19T8:38:15Z</time></trkpt>
<trkpt lat="46.2880639918148517608642578125" lon="7.48644978739321231842041015625"><ele></ele><time>2020-9-19T8:38:18Z</time></trkpt>
<trkpt lat="46.2880758941173553466796875" lon="7.486464790999889373779296875"><ele></ele><time>2020-9-19T8:38:21Z</time></trkpt>
<trkpt lat="46.288090310990810394287109375" lon="7.486477196216583251953125"><ele></ele><time>2020-9-19T8:38:24Z</time></trkpt>
<trkpt lat="46.2881035543978214263916015625" lon="7.4864901043474674224853515625"><ele></ele><time>2020-9-19T8:38:27Z</time></trkpt>
<trkpt lat="46.2881169654428958892822265625" lon="7.48650242574512958526611328125"><ele></ele><time>2020-9-19T8:38:30Z</time></trkpt>
<trkpt lat="46.2881303764879703521728515625" lon="7.486514747142791748046875"><ele></ele><time>2020-9-19T8:38:33Z</time></trkpt>
<trkpt lat="46.28814227879047393798828125" lon="7.48652773909270763397216796875"><ele></ele><time>2020-9-19T8:38:36Z</time></trkpt>
<trkpt lat="46.28815661184489727020263671875" lon="7.4865390546619892120361328125"><ele></ele><time>2020-9-19T8:38:39Z</time></trkpt>
<trkpt lat="46.28817019052803516387939453125" lon="7.4865517951548099517822265625"><ele></ele><time>2020-9-19T8:38:42Z</time></trkpt>
<trkpt lat="46.2881830148398876190185546875" lon="7.48656596057116985321044921875"><ele></ele><time>2020-9-19T8:38:45Z</time></trkpt>
<trkpt lat="46.288194917142391204833984375" lon="7.48657870106399059295654296875"><ele></ele><time>2020-9-19T8:38:48Z</time></trkpt>
<trkpt lat="46.2882073223590850830078125" lon="7.48659060336649417877197265625"><ele></ele><time>2020-9-19T8:38:51Z</time></trkpt>
<trkpt lat="46.28821847029030323028564453125" lon="7.48660116456449031829833984375"><ele></ele><time>2020-9-19T8:38:54Z</time></trkpt>
<trkpt lat="46.28822986967861652374267578125" lon="7.4866121448576450347900390625"><ele></ele><time>2020-9-19T8:38:57Z</time></trkpt>
<trkpt lat="46.2882436998188495635986328125" lon="7.486622370779514312744140625"><ele></ele><time>2020-9-19T8:39:0Z</time></trkpt>
<trkpt lat="46.2882567755877971649169921875" lon="7.48663209378719329833984375"><ele></ele><time>2020-9-19T8:39:3Z</time></trkpt>
<trkpt lat="46.28826892934739589691162109375" lon="7.4866433255374431610107421875"><ele></ele><time>2020-9-19T8:39:6Z</time></trkpt>
<trkpt lat="46.28828116692602634429931640625" lon="7.4866557307541370391845703125"><ele></ele><time>2020-9-19T8:39:9Z</time></trkpt>
<trkpt lat="46.2882956676185131072998046875" lon="7.48666620813310146331787109375"><ele></ele><time>2020-9-19T8:39:12Z</time></trkpt>
<trkpt lat="46.28830698318779468536376953125" lon="7.48667693696916103363037109375"><ele></ele><time>2020-9-19T8:39:15Z</time></trkpt>
<trkpt lat="46.28831670619547367095947265625" lon="7.48668900690972805023193359375"><ele></ele><time>2020-9-19T8:39:18Z</time></trkpt>
<trkpt lat="46.28832844085991382598876953125" lon="7.48670426197350025177001953125"><ele></ele><time>2020-9-19T8:39:21Z</time></trkpt>
<trkpt lat="46.28834017552435398101806640625" lon="7.48671884648501873016357421875"><ele></ele><time>2020-9-19T8:39:24Z</time></trkpt>
<trkpt lat="46.28835123963654041290283203125" lon="7.48673024587333202362060546875"><ele></ele><time>2020-9-19T8:39:27Z</time></trkpt>
<trkpt lat="46.2883623875677585601806640625" lon="7.48674332164227962493896484375"><ele></ele><time>2020-9-19T8:39:30Z</time></trkpt>
<trkpt lat="46.28837621770799160003662109375" lon="7.48675572685897350311279296875"><ele></ele><time>2020-9-19T8:39:33Z</time></trkpt>
<trkpt lat="46.288388706743717193603515625" lon="7.48676897026598453521728515625"><ele></ele><time>2020-9-19T8:39:36Z</time></trkpt>
<trkpt lat="46.2884012795984745025634765625" lon="7.486779950559139251708984375"><ele></ele><time>2020-9-19T8:39:39Z</time></trkpt>
<trkpt lat="46.2884130142629146575927734375" lon="7.48679193668067455291748046875"><ele></ele><time>2020-9-19T8:39:42Z</time></trkpt>
<trkpt lat="46.28842550329864025115966796875" lon="7.486806102097034454345703125"><ele></ele><time>2020-9-19T8:39:45Z</time></trkpt>
<trkpt lat="46.288439333438873291015625" lon="7.4868164956569671630859375"><ele></ele><time>2020-9-19T8:39:48Z</time></trkpt>
<trkpt lat="46.28845282830297946929931640625" lon="7.4868280626833438873291015625"><ele></ele><time>2020-9-19T8:39:51Z</time></trkpt>
<trkpt lat="46.288462467491626739501953125" lon="7.4868418090045452117919921875"><ele></ele><time>2020-9-19T8:39:54Z</time></trkpt>
<trkpt lat="46.288473196327686309814453125" lon="7.48685739934444427490234375"><ele></ele><time>2020-9-19T8:39:57Z</time></trkpt>
<trkpt lat="46.2884871102869510650634765625" lon="7.486872486770153045654296875"><ele></ele><time>2020-9-19T8:40:0Z</time></trkpt>
<trkpt lat="46.2884981743991374969482421875" lon="7.4868877418339252471923828125"><ele></ele><time>2020-9-19T8:40:3Z</time></trkpt>
<trkpt lat="46.28850714303553104400634765625" lon="7.486903332173824310302734375"><ele></ele><time>2020-9-19T8:40:6Z</time></trkpt>
<trkpt lat="46.28851938061416149139404296875" lon="7.48691774904727935791015625"><ele></ele><time>2020-9-19T8:40:9Z</time></trkpt>
<trkpt lat="46.28853111527860164642333984375" lon="7.48692906461656093597412109375"><ele></ele><time>2020-9-19T8:40:12Z</time></trkpt>
<trkpt lat="46.28854419104754924774169921875" lon="7.48693828471004962921142578125"><ele></ele><time>2020-9-19T8:40:15Z</time></trkpt>
<trkpt lat="46.28856003284454345703125" lon="7.48694851063191890716552734375"><ele></ele><time>2020-9-19T8:40:18Z</time></trkpt>
<trkpt lat="46.28857369534671306610107421875" lon="7.4869588203728199005126953125"><ele></ele><time>2020-9-19T8:40:21Z</time></trkpt>
<trkpt lat="46.2885843403637409210205078125" lon="7.48696879483759403228759765625"><ele></ele><time>2020-9-19T8:40:24Z</time></trkpt>
<trkpt lat="46.2885987572371959686279296875" lon="7.486980445683002471923828125"><ele></ele><time>2020-9-19T8:40:27Z</time></trkpt>
<trkpt lat="46.28861040808260440826416015625" lon="7.48699259944260120391845703125"><ele></ele><time>2020-9-19T8:40:30Z</time></trkpt>
<trkpt lat="46.2886242382228374481201171875" lon="7.48700349591672420501708984375"><ele></ele><time>2020-9-19T8:40:33Z</time></trkpt>
<trkpt lat="46.2886391580104827880859375" lon="7.4870164878666400909423828125"><ele></ele><time>2020-9-19T8:40:36Z</time></trkpt>
<trkpt lat="46.288656257092952728271484375" lon="7.48702813871204853057861328125"><ele></ele><time>2020-9-19T8:40:39Z</time></trkpt>
<trkpt lat="46.28867201507091522216796875" lon="7.48703970573842525482177734375"><ele></ele><time>2020-9-19T8:40:42Z</time></trkpt>
<trkpt lat="46.2886879406869411468505859375" lon="7.487051524221897125244140625"><ele></ele><time>2020-9-19T8:40:45Z</time></trkpt>
<trkpt lat="46.288703195750713348388671875" lon="7.4870654381811618804931640625"><ele></ele><time>2020-9-19T8:40:48Z</time></trkpt>
<trkpt lat="46.28872021101415157318115234375" lon="7.48707775957882404327392578125"><ele></ele><time>2020-9-19T8:40:51Z</time></trkpt>
<trkpt lat="46.288733370602130889892578125" lon="7.487089745700359344482421875"><ele></ele><time>2020-9-19T8:40:54Z</time></trkpt>
<trkpt lat="46.288747452199459075927734375" lon="7.4871009774506092071533203125"><ele></ele><time>2020-9-19T8:40:57Z</time></trkpt>
<trkpt lat="46.28876094706356525421142578125" lon="7.487117238342761993408203125"><ele></ele><time>2020-9-19T8:41:0Z</time></trkpt>
<trkpt lat="46.288780979812145233154296875" lon="7.48713442124426364898681640625"><ele></ele><time>2020-9-19T8:41:3Z</time></trkpt>
<trkpt lat="46.288796402513980865478515625" lon="7.48714783228933811187744140625"><ele></ele><time>2020-9-19T8:41:6Z</time></trkpt>
<trkpt lat="46.28881283104419708251953125" lon="7.48715336434543132781982421875"><ele></ele><time>2020-9-19T8:41:9Z</time></trkpt>
<trkpt lat="46.2888267450034618377685546875" lon="7.48715671710669994354248046875"><ele></ele><time>2020-9-19T8:41:12Z</time></trkpt>
<trkpt lat="46.28884158097207546234130859375" lon="7.4871589802205562591552734375"><ele></ele><time>2020-9-19T8:41:15Z</time></trkpt>
<trkpt lat="46.28885549493134021759033203125" lon="7.48715470544993877410888671875"><ele></ele><time>2020-9-19T8:41:18Z</time></trkpt>
<trkpt lat="46.28886781632900238037109375" lon="7.48714917339384555816650390625"><ele></ele><time>2020-9-19T8:41:21Z</time></trkpt>
<trkpt lat="46.288873516023159027099609375" lon="7.48714012093842029571533203125"><ele></ele><time>2020-9-19T8:41:24Z</time></trkpt>
<trkpt lat="46.2888824008405208587646484375" lon="7.48712587170302867889404296875"><ele></ele><time>2020-9-19T8:41:27Z</time></trkpt>
<trkpt lat="46.28888868726789951324462890625" lon="7.4871143884956836700439453125"><ele></ele><time>2020-9-19T8:41:30Z</time></trkpt>
<trkpt lat="46.2888912856578826904296875" lon="7.4871008098125457763671875"><ele></ele><time>2020-9-19T8:41:33Z</time></trkpt>
<trkpt lat="46.2888911180198192596435546875" lon="7.48708748258650302886962890625"><ele></ele><time>2020-9-19T8:41:36Z</time></trkpt>
<trkpt lat="46.288885585963726043701171875" lon="7.487075664103031158447265625"><ele></ele><time>2020-9-19T8:41:39Z</time></trkpt>
<trkpt lat="46.28888382576406002044677734375" lon="7.487059570848941802978515625"><ele></ele><time>2020-9-19T8:41:42Z</time></trkpt>
<trkpt lat="46.28888550214469432830810546875" lon="7.48704657889902591705322265625"><ele></ele><time>2020-9-19T8:41:45Z</time></trkpt>
<trkpt lat="46.28888793289661407470703125" lon="7.48702864162623882293701171875"><ele></ele><time>2020-9-19T8:41:48Z</time></trkpt>
<trkpt lat="46.28888793289661407470703125" lon="7.487010620534420013427734375"><ele></ele><time>2020-9-19T8:41:51Z</time></trkpt>
<trkpt lat="46.28888851962983608245849609375" lon="7.48699209652841091156005859375"><ele></ele><time>2020-9-19T8:41:54Z</time></trkpt>
<trkpt lat="46.28888684324920177459716796875" lon="7.48697315342724323272705078125"><ele></ele><time>2020-9-19T8:41:57Z</time></trkpt>
<trkpt lat="46.2888859212398529052734375" lon="7.4869547970592975616455078125"><ele></ele><time>2020-9-19T8:42:0Z</time></trkpt>
<trkpt lat="46.28888214938342571258544921875" lon="7.48693577013909816741943359375"><ele></ele><time>2020-9-19T8:42:3Z</time></trkpt>
<trkpt lat="46.2888773716986179351806640625" lon="7.48691506683826446533203125"><ele></ele><time>2020-9-19T8:42:6Z</time></trkpt>
<trkpt lat="46.288867481052875518798828125" lon="7.48689503408968448638916015625"><ele></ele><time>2020-9-19T8:42:9Z</time></trkpt>
<trkpt lat="46.2888616137206554412841796875" lon="7.4868733249604701995849609375"><ele></ele><time>2020-9-19T8:42:12Z</time></trkpt>
<trkpt lat="46.28885566256940364837646484375" lon="7.4868522025644779205322265625"><ele></ele><time>2020-9-19T8:42:15Z</time></trkpt>
<trkpt lat="46.2888505496084690093994140625" lon="7.4868290685117244720458984375"><ele></ele><time>2020-9-19T8:42:18Z</time></trkpt>
<trkpt lat="46.2888458557426929473876953125" lon="7.486806772649288177490234375"><ele></ele><time>2020-9-19T8:42:21Z</time></trkpt>
<trkpt lat="46.2888408266007900238037109375" lon="7.48678439296782016754150390625"><ele></ele><time>2020-9-19T8:42:24Z</time></trkpt>
<trkpt lat="46.2888361327350139617919921875" lon="7.48676260001957416534423828125"><ele></ele><time>2020-9-19T8:42:27Z</time></trkpt>
<trkpt lat="46.28883160650730133056640625" lon="7.48674030415713787078857421875"><ele></ele><time>2020-9-19T8:42:30Z</time></trkpt>
<trkpt lat="46.2888294272124767303466796875" lon="7.4867184273898601531982421875"><ele></ele><time>2020-9-19T8:42:33Z</time></trkpt>
<trkpt lat="46.2888267450034618377685546875" lon="7.48669655062258243560791015625"><ele></ele><time>2020-9-19T8:42:36Z</time></trkpt>
<trkpt lat="46.28882481716573238372802734375" lon="7.4866741709411144256591796875"><ele></ele><time>2020-9-19T8:42:39Z</time></trkpt>
<trkpt lat="46.28882615827023983001708984375" lon="7.48665045015513896942138671875"><ele></ele><time>2020-9-19T8:42:42Z</time></trkpt>
<trkpt lat="46.28882716409862041473388671875" lon="7.486628405749797821044921875"><ele></ele><time>2020-9-19T8:42:45Z</time></trkpt>
<trkpt lat="46.2888277508318424224853515625" lon="7.48660569079220294952392578125"><ele></ele><time>2020-9-19T8:42:48Z</time></trkpt>
<trkpt lat="46.28882850520312786102294921875" lon="7.486585490405559539794921875"><ele></ele><time>2020-9-19T8:42:51Z</time></trkpt>
<trkpt lat="46.28883135505020618438720703125" lon="7.4865662120282649993896484375"><ele></ele><time>2020-9-19T8:42:54Z</time></trkpt>
<trkpt lat="46.28883219324052333831787109375" lon="7.486546598374843597412109375"><ele></ele><time>2020-9-19T8:42:57Z</time></trkpt>
<trkpt lat="46.2888341210782527923583984375" lon="7.48652891255915164947509765625"><ele></ele><time>2020-9-19T8:43:0Z</time></trkpt>
<trkpt lat="46.28883688710629940032958984375" lon="7.48650879599153995513916015625"><ele></ele><time>2020-9-19T8:43:3Z</time></trkpt>
<trkpt lat="46.28884225152432918548583984375" lon="7.4864870868623256683349609375"><ele></ele><time>2020-9-19T8:43:6Z</time></trkpt>
<trkpt lat="46.28884577192366123199462890625" lon="7.4864662997424602508544921875"><ele></ele><time>2020-9-19T8:43:9Z</time></trkpt>
<trkpt lat="46.288850717246532440185546875" lon="7.4864461831748485565185546875"><ele></ele><time>2020-9-19T8:43:12Z</time></trkpt>
<trkpt lat="46.2888555787503719329833984375" lon="7.48642430640757083892822265625"><ele></ele><time>2020-9-19T8:43:15Z</time></trkpt>
<trkpt lat="46.2888590991497039794921875" lon="7.486404441297054290771484375"><ele></ele><time>2020-9-19T8:43:18Z</time></trkpt>
<trkpt lat="46.2888617813587188720703125" lon="7.486386001110076904296875"><ele></ele><time>2020-9-19T8:43:21Z</time></trkpt>
<trkpt lat="46.2888659723103046417236328125" lon="7.4863660521805286407470703125"><ele></ele><time>2020-9-19T8:43:24Z</time></trkpt>
<trkpt lat="46.28887209109961986541748046875" lon="7.48634568415582180023193359375"><ele></ele><time>2020-9-19T8:43:27Z</time></trkpt>
<trkpt lat="46.2888770364224910736083984375" lon="7.4863258190453052520751953125"><ele></ele><time>2020-9-19T8:43:30Z</time></trkpt>
<trkpt lat="46.28888147883117198944091796875" lon="7.4863060377538204193115234375"><ele></ele><time>2020-9-19T8:43:33Z</time></trkpt>
<trkpt lat="46.2888857536017894744873046875" lon="7.48628583736717700958251953125"><ele></ele><time>2020-9-19T8:43:36Z</time></trkpt>
<trkpt lat="46.28888969309628009796142578125" lon="7.48626672662794589996337890625"><ele></ele><time>2020-9-19T8:43:39Z</time></trkpt>
<trkpt lat="46.2888951413333415985107421875" lon="7.4862476997077465057373046875"><ele></ele><time>2020-9-19T8:43:42Z</time></trkpt>
<trkpt lat="46.28890058957040309906005859375" lon="7.4862275831401348114013671875"><ele></ele><time>2020-9-19T8:43:45Z</time></trkpt>
<trkpt lat="46.28890327177941799163818359375" lon="7.4862062931060791015625"><ele></ele><time>2020-9-19T8:43:48Z</time></trkpt>
<trkpt lat="46.2889021821320056915283203125" lon="7.48618240468204021453857421875"><ele></ele><time>2020-9-19T8:43:51Z</time></trkpt>
<trkpt lat="46.2888994999229907989501953125" lon="7.48615876771509647369384765625"><ele></ele><time>2020-9-19T8:43:54Z</time></trkpt>
<trkpt lat="46.288903020322322845458984375" lon="7.48613546602427959442138671875"><ele></ele><time>2020-9-19T8:43:57Z</time></trkpt>
<trkpt lat="46.288906373083591461181640625" lon="7.486113421618938446044921875"><ele></ele><time>2020-9-19T8:44:0Z</time></trkpt>
<trkpt lat="46.288911737501621246337890625" lon="7.48609221540391445159912109375"><ele></ele><time>2020-9-19T8:44:3Z</time></trkpt>
<trkpt lat="46.28891215659677982330322265625" lon="7.4860716797411441802978515625"><ele></ele><time>2020-9-19T8:44:6Z</time></trkpt>
<trkpt lat="46.28891048021614551544189453125" lon="7.486047707498073577880859375"><ele></ele><time>2020-9-19T8:44:9Z</time></trkpt>
<trkpt lat="46.28891182132065296173095703125" lon="7.486021555960178375244140625"><ele></ele><time>2020-9-19T8:44:12Z</time></trkpt>
<trkpt lat="46.28891165368258953094482421875" lon="7.485994398593902587890625"><ele></ele><time>2020-9-19T8:44:15Z</time></trkpt>
<trkpt lat="46.28891048021614551544189453125" lon="7.4859690852463245391845703125"><ele></ele><time>2020-9-19T8:44:18Z</time></trkpt>
<trkpt lat="46.28890930674970149993896484375" lon="7.485944442451000213623046875"><ele></ele><time>2020-9-19T8:44:21Z</time></trkpt>
<trkpt lat="46.28890645690262317657470703125" lon="7.485916949808597564697265625"><ele></ele><time>2020-9-19T8:44:24Z</time></trkpt>
<trkpt lat="46.28890159539878368377685546875" lon="7.48589180409908294677734375"><ele></ele><time>2020-9-19T8:44:27Z</time></trkpt>
<trkpt lat="46.288898326456546783447265625" lon="7.48586590401828289031982421875"><ele></ele><time>2020-9-19T8:44:30Z</time></trkpt>
<trkpt lat="46.2888954766094684600830078125" lon="7.485841177403926849365234375"><ele></ele><time>2020-9-19T8:44:33Z</time></trkpt>
<trkpt lat="46.28889354877173900604248046875" lon="7.4858141876757144927978515625"><ele></ele><time>2020-9-19T8:44:36Z</time></trkpt>
<trkpt lat="46.28888583742082118988037109375" lon="7.48578778468072414398193359375"><ele></ele><time>2020-9-19T8:44:39Z</time></trkpt>
<trkpt lat="46.28888064064085483551025390625" lon="7.48576096259057521820068359375"><ele></ele><time>2020-9-19T8:44:42Z</time></trkpt>
<trkpt lat="46.28887661732733249664306640625" lon="7.48573732562363147735595703125"><ele></ele><time>2020-9-19T8:44:45Z</time></trkpt>
<trkpt lat="46.2888698279857635498046875" lon="7.4857159517705440521240234375"><ele></ele><time>2020-9-19T8:44:48Z</time></trkpt>
<trkpt lat="46.28886471502482891082763671875" lon="7.485692985355854034423828125"><ele></ele><time>2020-9-19T8:44:51Z</time></trkpt>
<trkpt lat="46.28886169753968715667724609375" lon="7.4856690131127834320068359375"><ele></ele><time>2020-9-19T8:44:54Z</time></trkpt>
<trkpt lat="46.28885834477841854095458984375" lon="7.48564101755619049072265625"><ele></ele><time>2020-9-19T8:44:57Z</time></trkpt>
<trkpt lat="46.2888537347316741943359375" lon="7.4856143631041049957275390625"><ele></ele><time>2020-9-19T8:45:0Z</time></trkpt>
<trkpt lat="46.28884862177073955535888671875" lon="7.48559047468006610870361328125"><ele></ele><time>2020-9-19T8:45:3Z</time></trkpt>
<trkpt lat="46.28884443081915378570556640625" lon="7.4855687655508518218994140625"><ele></ele><time>2020-9-19T8:45:6Z</time></trkpt>
<trkpt lat="46.28884459845721721649169921875" lon="7.48554655350744724273681640625"><ele></ele><time>2020-9-19T8:45:9Z</time></trkpt>
<trkpt lat="46.28884359262883663177490234375" lon="7.4855238385498523712158203125"><ele></ele><time>2020-9-19T8:45:12Z</time></trkpt>
<trkpt lat="46.2888445146381855010986328125" lon="7.48549911193549633026123046875"><ele></ele><time>2020-9-19T8:45:15Z</time></trkpt>
<trkpt lat="46.28884292207658290863037109375" lon="7.48547606170177459716796875"><ele></ele><time>2020-9-19T8:45:18Z</time></trkpt>
<trkpt lat="46.288841664791107177734375" lon="7.48545502312481403350830078125"><ele></ele><time>2020-9-19T8:45:21Z</time></trkpt>
<trkpt lat="46.2888403236865997314453125" lon="7.4854323081672191619873046875"><ele></ele><time>2020-9-19T8:45:24Z</time></trkpt>
<trkpt lat="46.28884476609528064727783203125" lon="7.48541043139994144439697265625"><ele></ele><time>2020-9-19T8:45:27Z</time></trkpt>
<trkpt lat="46.2888471968472003936767578125" lon="7.485388219356536865234375"><ele></ele><time>2020-9-19T8:45:30Z</time></trkpt>
<trkpt lat="46.28884962759912014007568359375" lon="7.48536433093249797821044921875"><ele></ele><time>2020-9-19T8:45:33Z</time></trkpt>
<trkpt lat="46.2888495437800884246826171875" lon="7.48534253798425197601318359375"><ele></ele><time>2020-9-19T8:45:36Z</time></trkpt>
<trkpt lat="46.2888483703136444091796875" lon="7.48531605117022991180419921875"><ele></ele><time>2020-9-19T8:45:39Z</time></trkpt>
<trkpt lat="46.28884795121848583221435546875" lon="7.48528872616589069366455078125"><ele></ele><time>2020-9-19T8:45:42Z</time></trkpt>
<trkpt lat="46.2888508848845958709716796875" lon="7.485265173017978668212890625"><ele></ele><time>2020-9-19T8:45:45Z</time></trkpt>
<trkpt lat="46.288855411112308502197265625" lon="7.48523994348943233489990234375"><ele></ele><time>2020-9-19T8:45:48Z</time></trkpt>
<trkpt lat="46.2888565845787525177001953125" lon="7.48521362431347370147705078125"><ele></ele><time>2020-9-19T8:45:51Z</time></trkpt>
<trkpt lat="46.28885951824486255645751953125" lon="7.48518881388008594512939453125"><ele></ele><time>2020-9-19T8:45:54Z</time></trkpt>
<trkpt lat="46.28886421211063861846923828125" lon="7.48516559600830078125"><ele></ele><time>2020-9-19T8:45:57Z</time></trkpt>
<trkpt lat="46.2888669781386852264404296875" lon="7.4851416237652301788330078125"><ele></ele><time>2020-9-19T8:46:0Z</time></trkpt>
<trkpt lat="46.288872174918651580810546875" lon="7.4851191602647304534912109375"><ele></ele><time>2020-9-19T8:46:3Z</time></trkpt>
<trkpt lat="46.28887829370796680450439453125" lon="7.48509879224002361297607421875"><ele></ele><time>2020-9-19T8:46:6Z</time></trkpt>
<trkpt lat="46.288884244859218597412109375" lon="7.48507565818727016448974609375"><ele></ele><time>2020-9-19T8:46:9Z</time></trkpt>
<trkpt lat="46.2888897769153118133544921875" lon="7.4850537814199924468994140625"><ele></ele><time>2020-9-19T8:46:12Z</time></trkpt>
<trkpt lat="46.28889321349561214447021484375" lon="7.48502670787274837493896484375"><ele></ele><time>2020-9-19T8:46:15Z</time></trkpt>
<trkpt lat="46.28889941610395908355712890625" lon="7.48500156216323375701904296875"><ele></ele><time>2020-9-19T8:46:18Z</time></trkpt>
<trkpt lat="46.28890662454068660736083984375" lon="7.48497742228209972381591796875"><ele></ele><time>2020-9-19T8:46:21Z</time></trkpt>
<trkpt lat="46.28891433589160442352294921875" lon="7.48495663516223430633544921875"><ele></ele><time>2020-9-19T8:46:24Z</time></trkpt>
<trkpt lat="46.288921125233173370361328125" lon="7.48493970371782779693603515625"><ele></ele><time>2020-9-19T8:46:27Z</time></trkpt>
<trkpt lat="46.28892489708960056304931640625" lon="7.48491824604570865631103515625"><ele></ele><time>2020-9-19T8:46:30Z</time></trkpt>
<trkpt lat="46.28893009386956691741943359375" lon="7.484897039830684661865234375"><ele></ele><time>2020-9-19T8:46:33Z</time></trkpt>
<trkpt lat="46.2889315187931060791015625" lon="7.4848723970353603363037109375"><ele></ele><time>2020-9-19T8:46:36Z</time></trkpt>
<trkpt lat="46.288931183516979217529296875" lon="7.4848495982587337493896484375"><ele></ele><time>2020-9-19T8:46:39Z</time></trkpt>
<trkpt lat="46.28893026150763034820556640625" lon="7.484827972948551177978515625"><ele></ele><time>2020-9-19T8:46:42Z</time></trkpt>
<trkpt lat="46.28892774693667888641357421875" lon="7.48480525799095630645751953125"><ele></ele><time>2020-9-19T8:46:45Z</time></trkpt>
<trkpt lat="46.28892690874636173248291015625" lon="7.48478044755756855010986328125"><ele></ele><time>2020-9-19T8:46:48Z</time></trkpt>
<trkpt lat="46.28892472945153713226318359375" lon="7.48475764878094196319580078125"><ele></ele><time>2020-9-19T8:46:51Z</time></trkpt>
<trkpt lat="46.288919784128665924072265625" lon="7.48473350889980792999267578125"><ele></ele><time>2020-9-19T8:46:54Z</time></trkpt>
<trkpt lat="46.288910396397113800048828125" lon="7.4847081117331981658935546875"><ele></ele><time>2020-9-19T8:46:57Z</time></trkpt>
<trkpt lat="46.28890343941748142242431640625" lon="7.48468221165239810943603515625"><ele></ele><time>2020-9-19T8:47:0Z</time></trkpt>
<trkpt lat="46.28889556042850017547607421875" lon="7.48465823940932750701904296875"><ele></ele><time>2020-9-19T8:47:3Z</time></trkpt>
<trkpt lat="46.28888717852532863616943359375" lon="7.4846346862614154815673828125"><ele></ele><time>2020-9-19T8:47:6Z</time></trkpt>
<trkpt lat="46.2888787128031253814697265625" lon="7.48460744507610797882080078125"><ele></ele><time>2020-9-19T8:47:9Z</time></trkpt>
<trkpt lat="46.2888725101947784423828125" lon="7.484580539166927337646484375"><ele></ele><time>2020-9-19T8:47:12Z</time></trkpt>
<trkpt lat="46.2888653017580509185791015625" lon="7.48455338180065155029296875"><ele></ele><time>2020-9-19T8:47:15Z</time></trkpt>
<trkpt lat="46.28886111080646514892578125" lon="7.48452882282435894012451171875"><ele></ele><time>2020-9-19T8:47:18Z</time></trkpt>
<trkpt lat="46.28885633312165737152099609375" lon="7.4845045991241931915283203125"><ele></ele><time>2020-9-19T8:47:21Z</time></trkpt>
<trkpt lat="46.28884878940880298614501953125" lon="7.48447702266275882720947265625"><ele></ele><time>2020-9-19T8:47:24Z</time></trkpt>
<trkpt lat="46.2888403236865997314453125" lon="7.48445011675357818603515625"><ele></ele><time>2020-9-19T8:47:27Z</time></trkpt>
<trkpt lat="46.2888334505259990692138671875" lon="7.4844248034060001373291015625"><ele></ele><time>2020-9-19T8:47:30Z</time></trkpt>
<trkpt lat="46.2888240627944469451904296875" lon="7.48439538292586803436279296875"><ele></ele><time>2020-9-19T8:47:33Z</time></trkpt>
<trkpt lat="46.28881526179611682891845703125" lon="7.4843641184270381927490234375"><ele></ele><time>2020-9-19T8:47:36Z</time></trkpt>
<trkpt lat="46.288808472454547882080078125" lon="7.48433209955692291259765625"><ele></ele><time>2020-9-19T8:47:39Z</time></trkpt>
<trkpt lat="46.28878089599311351776123046875" lon="7.48423025943338871002197265625"><ele></ele><time>2020-9-19T8:47:42Z</time></trkpt>
<trkpt lat="46.28873378969728946685791015625" lon="7.48406195081770420074462890625"><ele></ele><time>2020-9-19T8:47:45Z</time></trkpt>
<trkpt lat="46.28871333785355091094970703125" lon="7.48399690724909305572509765625"><ele></ele><time>2020-9-19T8:47:48Z</time></trkpt>
<trkpt lat="46.28870277665555477142333984375" lon="7.4839648045599460601806640625"><ele></ele><time>2020-9-19T8:47:51Z</time></trkpt>
<trkpt lat="46.28869120962917804718017578125" lon="7.48393379151821136474609375"><ele></ele><time>2020-9-19T8:47:54Z</time></trkpt>
<trkpt lat="46.28868048079311847686767578125" lon="7.48390403576195240020751953125"><ele></ele><time>2020-9-19T8:47:57Z</time></trkpt>
<trkpt lat="46.28867092542350292205810546875" lon="7.48387218452990055084228515625"><ele></ele><time>2020-9-19T8:48:0Z</time></trkpt>
<trkpt lat="46.2886611185967922210693359375" lon="7.48384125530719757080078125"><ele></ele><time>2020-9-19T8:48:3Z</time></trkpt>
<trkpt lat="46.28864008001983165740966796875" lon="7.4837710149586200714111328125"><ele></ele><time>2020-9-19T8:48:6Z</time></trkpt>
<trkpt lat="46.2886306084692478179931640625" lon="7.48373589478433132171630859375"><ele></ele><time>2020-9-19T8:48:9Z</time></trkpt>
<trkpt lat="46.28862130455672740936279296875" lon="7.48369968496263027191162109375"><ele></ele><time>2020-9-19T8:48:12Z</time></trkpt>
<trkpt lat="46.2886088155210018157958984375" lon="7.4836657382547855377197265625"><ele></ele><time>2020-9-19T8:48:15Z</time></trkpt>
<trkpt lat="46.28859917633235454559326171875" lon="7.483631037175655364990234375"><ele></ele><time>2020-9-19T8:48:18Z</time></trkpt>
<trkpt lat="46.28859012387692928314208984375" lon="7.483596839010715484619140625"><ele></ele><time>2020-9-19T8:48:21Z</time></trkpt>
<trkpt lat="46.28857973031699657440185546875" lon="7.48356104828417301177978515625"><ele></ele><time>2020-9-19T8:48:24Z</time></trkpt>
<trkpt lat="46.288568414747714996337890625" lon="7.48352182097733020782470703125"><ele></ele><time>2020-9-19T8:48:27Z</time></trkpt>
<trkpt lat="46.28855802118778228759765625" lon="7.483482174575328826904296875"><ele></ele><time>2020-9-19T8:48:30Z</time></trkpt>
<trkpt lat="46.28854620270431041717529296875" lon="7.4834451265633106231689453125"><ele></ele><time>2020-9-19T8:48:33Z</time></trkpt>
<trkpt lat="46.28853312693536281585693359375" lon="7.48340933583676815032958984375"><ele></ele><time>2020-9-19T8:48:36Z</time></trkpt>
<trkpt lat="46.28852139227092266082763671875" lon="7.48337279073894023895263671875"><ele></ele><time>2020-9-19T8:48:39Z</time></trkpt>
<trkpt lat="46.2885122559964656829833984375" lon="7.48333272524178028106689453125"><ele></ele><time>2020-9-19T8:48:42Z</time></trkpt>
<trkpt lat="46.2885035388171672821044921875" lon="7.4832895584404468536376953125"><ele></ele><time>2020-9-19T8:48:45Z</time></trkpt>
<trkpt lat="46.288498342037200927734375" lon="7.48325058259069919586181640625"><ele></ele><time>2020-9-19T8:48:48Z</time></trkpt>
<trkpt lat="46.2884951569139957427978515625" lon="7.48321236111223697662353515625"><ele></ele><time>2020-9-19T8:48:51Z</time></trkpt>
<trkpt lat="46.2884884513914585113525390625" lon="7.48317472636699676513671875"><ele></ele><time>2020-9-19T8:48:54Z</time></trkpt>
<trkpt lat="46.2884862720966339111328125" lon="7.48313893564045429229736328125"><ele></ele><time>2020-9-19T8:48:57Z</time></trkpt>
<trkpt lat="46.28848560154438018798828125" lon="7.483105994760990142822265625"><ele></ele><time>2020-9-19T8:49:0Z</time></trkpt>
<trkpt lat="46.28848350606858730316162109375" lon="7.483070455491542816162109375"><ele></ele><time>2020-9-19T8:49:3Z</time></trkpt>
<trkpt lat="46.28847696818411350250244140625" lon="7.48303525149822235107421875"><ele></ele><time>2020-9-19T8:49:6Z</time></trkpt>
<trkpt lat="46.2884716875851154327392578125" lon="7.4830002151429653167724609375"><ele></ele><time>2020-9-19T8:49:9Z</time></trkpt>
<trkpt lat="46.28846791572868824005126953125" lon="7.48296610079705715179443359375"><ele></ele><time>2020-9-19T8:49:12Z</time></trkpt>
<trkpt lat="46.28846607170999050140380859375" lon="7.48293341137468814849853515625"><ele></ele><time>2020-9-19T8:49:15Z</time></trkpt>
<trkpt lat="46.28846255131065845489501953125" lon="7.482900135219097137451171875"><ele></ele><time>2020-9-19T8:49:18Z</time></trkpt>
<trkpt lat="46.288456432521343231201171875" lon="7.48286752961575984954833984375"><ele></ele><time>2020-9-19T8:49:21Z</time></trkpt>
<trkpt lat="46.28845182247459888458251953125" lon="7.48283148743212223052978515625"><ele></ele><time>2020-9-19T8:49:24Z</time></trkpt>
<trkpt lat="46.2884482182562351226806640625" lon="7.4827930144965648651123046875"><ele></ele><time>2020-9-19T8:49:27Z</time></trkpt>
<trkpt lat="46.28844478167593479156494140625" lon="7.482753954827785491943359375"><ele></ele><time>2020-9-19T8:49:30Z</time></trkpt>
<trkpt lat="46.28844461403787136077880859375" lon="7.48271347023546695709228515625"><ele></ele><time>2020-9-19T8:49:33Z</time></trkpt>
<trkpt lat="46.28844411112368106842041015625" lon="7.4826766736805438995361328125"><ele></ele><time>2020-9-19T8:49:36Z</time></trkpt>
<trkpt lat="46.28844444639980792999267578125" lon="7.48263895511627197265625"><ele></ele><time>2020-9-19T8:49:39Z</time></trkpt>
<trkpt lat="46.288446374237537384033203125" lon="7.48260366730391979217529296875"><ele></ele><time>2020-9-19T8:49:42Z</time></trkpt>
<trkpt lat="46.28844880498945713043212890625" lon="7.482569217681884765625"><ele></ele><time>2020-9-19T8:49:45Z</time></trkpt>
<trkpt lat="46.28844947554171085357666015625" lon="7.4825355224311351776123046875"><ele></ele><time>2020-9-19T8:49:48Z</time></trkpt>
<trkpt lat="46.288451068103313446044921875" lon="7.4825087003409862518310546875"><ele></ele><time>2020-9-19T8:49:51Z</time></trkpt>
<trkpt lat="46.28845366649329662322998046875" lon="7.4824815429747104644775390625"><ele></ele><time>2020-9-19T8:49:54Z</time></trkpt>
<trkpt lat="46.28845869563519954681396484375" lon="7.4824506975710391998291015625"><ele></ele><time>2020-9-19T8:49:57Z</time></trkpt>
<trkpt lat="46.28847126848995685577392578125" lon="7.4823829717934131622314453125"><ele></ele><time>2020-9-19T8:50:0Z</time></trkpt>
<trkpt lat="46.28846975974738597869873046875" lon="7.482351623475551605224609375"><ele></ele><time>2020-9-19T8:50:3Z</time></trkpt>
<trkpt lat="46.2884753756225109100341796875" lon="7.48232052661478519439697265625"><ele></ele><time>2020-9-19T8:50:6Z</time></trkpt>
<trkpt lat="46.28848132677376270294189453125" lon="7.48228557407855987548828125"><ele></ele><time>2020-9-19T8:50:9Z</time></trkpt>
<trkpt lat="46.28848560154438018798828125" lon="7.4822505377233028411865234375"><ele></ele><time>2020-9-19T8:50:12Z</time></trkpt>
<trkpt lat="46.288487277925014495849609375" lon="7.4822119809687137603759765625"><ele></ele><time>2020-9-19T8:50:15Z</time></trkpt>
<trkpt lat="46.28847680054605007171630859375" lon="7.4820624478161334991455078125"><ele></ele><time>2020-9-19T8:50:18Z</time></trkpt>
<trkpt lat="46.28846825100481510162353515625" lon="7.48201475478708744049072265625"><ele></ele><time>2020-9-19T8:50:21Z</time></trkpt>
<trkpt lat="46.28845768980681896209716796875" lon="7.4819715879857540130615234375"><ele></ele><time>2020-9-19T8:50:24Z</time></trkpt>
<trkpt lat="46.2884458713233470916748046875" lon="7.48193730600178241729736328125"><ele></ele><time>2020-9-19T8:50:27Z</time></trkpt>
<trkpt lat="46.28843422047793865203857421875" lon="7.481910400092601776123046875"><ele></ele><time>2020-9-19T8:50:30Z</time></trkpt>
<trkpt lat="46.288425922393798828125" lon="7.48187880031764507293701171875"><ele></ele><time>2020-9-19T8:50:33Z</time></trkpt>
<trkpt lat="46.2884237430989742279052734375" lon="7.4818503856658935546875"><ele></ele><time>2020-9-19T8:50:36Z</time></trkpt>
<trkpt lat="46.2884187139570713043212890625" lon="7.48182356357574462890625"><ele></ele><time>2020-9-19T8:50:39Z</time></trkpt>
<trkpt lat="46.288416869938373565673828125" lon="7.4817965738475322723388671875"><ele></ele><time>2020-9-19T8:50:42Z</time></trkpt>
<trkpt lat="46.28841276280581951141357421875" lon="7.48176991939544677734375"><ele></ele><time>2020-9-19T8:50:45Z</time></trkpt>
<trkpt lat="46.28841184079647064208984375" lon="7.481744103133678436279296875"><ele></ele><time>2020-9-19T8:50:48Z</time></trkpt>
<trkpt lat="46.2884103320538997650146484375" lon="7.48171702958643436431884765625"><ele></ele><time>2020-9-19T8:50:51Z</time></trkpt>
<trkpt lat="46.28840907476842403411865234375" lon="7.4816785566508769989013671875"><ele></ele><time>2020-9-19T8:50:54Z</time></trkpt>
<trkpt lat="46.288406811654567718505859375" lon="7.48164108954370021820068359375"><ele></ele><time>2020-9-19T8:50:57Z</time></trkpt>
<trkpt lat="46.28840404562652111053466796875" lon="7.48160571791231632232666015625"><ele></ele><time>2020-9-19T8:51:0Z</time></trkpt>
<trkpt lat="46.28840186633169651031494140625" lon="7.48157269321382045745849609375"><ele></ele><time>2020-9-19T8:51:3Z</time></trkpt>
<trkpt lat="46.28839801065623760223388671875" lon="7.4815459549427032470703125"><ele></ele><time>2020-9-19T8:51:6Z</time></trkpt>
<trkpt lat="46.288388706743717193603515625" lon="7.48150915838778018951416015625"><ele></ele><time>2020-9-19T8:51:9Z</time></trkpt>
<trkpt lat="46.288383342325687408447265625" lon="7.4814733676612377166748046875"><ele></ele><time>2020-9-19T8:51:12Z</time></trkpt>
<trkpt lat="46.2883791513741016387939453125" lon="7.48143875040113925933837890625"><ele></ele><time>2020-9-19T8:51:15Z</time></trkpt>
<trkpt lat="46.28837420605123043060302734375" lon="7.48140907846391201019287109375"><ele></ele><time>2020-9-19T8:51:18Z</time></trkpt>
<trkpt lat="46.288369596004486083984375" lon="7.48137588612735271453857421875"><ele></ele><time>2020-9-19T8:51:21Z</time></trkpt>
<trkpt lat="46.28836632706224918365478515625" lon="7.481342442333698272705078125"><ele></ele><time>2020-9-19T8:51:24Z</time></trkpt>
<trkpt lat="46.2883617170155048370361328125" lon="7.48130816034972667694091796875"><ele></ele><time>2020-9-19T8:51:27Z</time></trkpt>
<trkpt lat="46.288353502750396728515625" lon="7.48127329163253307342529296875"><ele></ele><time>2020-9-19T8:51:30Z</time></trkpt>
<trkpt lat="46.2883452884852886199951171875" lon="7.48124680481851100921630859375"><ele></ele><time>2020-9-19T8:51:33Z</time></trkpt>
<trkpt lat="46.28834252245724201202392578125" lon="7.48121646232903003692626953125"><ele></ele><time>2020-9-19T8:51:36Z</time></trkpt>
<trkpt lat="46.28833673894405364990234375" lon="7.4811826832592487335205078125"><ele></ele><time>2020-9-19T8:51:39Z</time></trkpt>
<trkpt lat="46.28833078779280185699462890625" lon="7.48114722780883312225341796875"><ele></ele><time>2020-9-19T8:51:42Z</time></trkpt>
<trkpt lat="46.2883234955370426177978515625" lon="7.48111001215875148773193359375"><ele></ele><time>2020-9-19T8:51:45Z</time></trkpt>
<trkpt lat="46.288318298757076263427734375" lon="7.4810717068612575531005859375"><ele></ele><time>2020-9-19T8:51:48Z</time></trkpt>
<trkpt lat="46.2883141078054904937744140625" lon="7.48103524558246135711669921875"><ele></ele><time>2020-9-19T8:51:51Z</time></trkpt>
<trkpt lat="46.288308240473270416259765625" lon="7.48099802993237972259521484375"><ele></ele><time>2020-9-19T8:51:54Z</time></trkpt>
<trkpt lat="46.288301534950733184814453125" lon="7.48096500523388385772705078125"><ele></ele><time>2020-9-19T8:51:57Z</time></trkpt>
<trkpt lat="46.28829742781817913055419921875" lon="7.4809329025447368621826171875"><ele></ele><time>2020-9-19T8:52:0Z</time></trkpt>
<trkpt lat="46.288293488323688507080078125" lon="7.4808990396559238433837890625"><ele></ele><time>2020-9-19T8:52:3Z</time></trkpt>
<trkpt lat="46.28828535787761211395263671875" lon="7.48086241073906421661376953125"><ele></ele><time>2020-9-19T8:52:6Z</time></trkpt>
<trkpt lat="46.28827898763120174407958984375" lon="7.4808272905647754669189453125"><ele></ele><time>2020-9-19T8:52:9Z</time></trkpt>
<trkpt lat="46.28827714361250400543212890625" lon="7.4807922542095184326171875"><ele></ele><time>2020-9-19T8:52:12Z</time></trkpt>
<trkpt lat="46.28827513195574283599853515625" lon="7.48075445182621479034423828125"><ele></ele><time>2020-9-19T8:52:15Z</time></trkpt>
<trkpt lat="46.288271360099315643310546875" lon="7.48071782290935516357421875"><ele></ele><time>2020-9-19T8:52:18Z</time></trkpt>
<trkpt lat="46.2882649898529052734375" lon="7.4806811101734638214111328125"><ele></ele><time>2020-9-19T8:52:21Z</time></trkpt>
<trkpt lat="46.28826037980616092681884765625" lon="7.4806452356278896331787109375"><ele></ele><time>2020-9-19T8:52:24Z</time></trkpt>
<trkpt lat="46.288253925740718841552734375" lon="7.480606175959110260009765625"><ele></ele><time>2020-9-19T8:52:27Z</time></trkpt>
<trkpt lat="46.28824898041784763336181640625" lon="7.48056887648999691009521484375"><ele></ele><time>2020-9-19T8:52:30Z</time></trkpt>
<trkpt lat="46.2882433645427227020263671875" lon="7.48053300194442272186279296875"><ele></ele><time>2020-9-19T8:52:33Z</time></trkpt>
<trkpt lat="46.2882403470575809478759765625" lon="7.4804987199604511260986328125"><ele></ele><time>2020-9-19T8:52:36Z</time></trkpt>
<trkpt lat="46.28823481500148773193359375" lon="7.4804628454148769378662109375"><ele></ele><time>2020-9-19T8:52:39Z</time></trkpt>
<trkpt lat="46.28823137842118740081787109375" lon="7.480427809059619903564453125"><ele></ele><time>2020-9-19T8:52:42Z</time></trkpt>
<trkpt lat="46.28822919912636280059814453125" lon="7.4803944490849971771240234375"><ele></ele><time>2020-9-19T8:52:45Z</time></trkpt>
<trkpt lat="46.28822752274572849273681640625" lon="7.48036385513842105865478515625"><ele></ele><time>2020-9-19T8:52:48Z</time></trkpt>
<trkpt lat="46.2882259301841259002685546875" lon="7.48033300973474979400634765625"><ele></ele><time>2020-9-19T8:52:51Z</time></trkpt>
<trkpt lat="46.2882259301841259002685546875" lon="7.48030476272106170654296875"><ele></ele><time>2020-9-19T8:52:54Z</time></trkpt>
<trkpt lat="46.2882272712886333465576171875" lon="7.48027819208800792694091796875"><ele></ele><time>2020-9-19T8:52:57Z</time></trkpt>
<trkpt lat="46.28822802565991878509521484375" lon="7.4802536331117153167724609375"><ele></ele><time>2020-9-19T8:53:0Z</time></trkpt>
<trkpt lat="46.28822651691734790802001953125" lon="7.4802258051931858062744140625"><ele></ele><time>2020-9-19T8:53:3Z</time></trkpt>
<trkpt lat="46.28822416998445987701416015625" lon="7.4801966361701488494873046875"><ele></ele><time>2020-9-19T8:53:6Z</time></trkpt>
<trkpt lat="46.28822182305157184600830078125" lon="7.4801667965948581695556640625"><ele></ele><time>2020-9-19T8:53:9Z</time></trkpt>
<trkpt lat="46.2882229126989841461181640625" lon="7.48013335280120372772216796875"><ele></ele><time>2020-9-19T8:53:12Z</time></trkpt>
<trkpt lat="46.28822551108896732330322265625" lon="7.48009831644594669342041015625"><ele></ele><time>2020-9-19T8:53:15Z</time></trkpt>
<trkpt lat="46.2882255949079990386962890625" lon="7.4800600111484527587890625"><ele></ele><time>2020-9-19T8:53:18Z</time></trkpt>
<trkpt lat="46.28822467289865016937255859375" lon="7.48002187348902225494384765625"><ele></ele><time>2020-9-19T8:53:21Z</time></trkpt>
<trkpt lat="46.28822450526058673858642578125" lon="7.4799907766282558441162109375"><ele></ele><time>2020-9-19T8:53:24Z</time></trkpt>
<trkpt lat="46.28823137842118740081787109375" lon="7.4799555726349353790283203125"><ele></ele><time>2020-9-19T8:53:27Z</time></trkpt>
<trkpt lat="46.28823422826826572418212890625" lon="7.47992397285997867584228515625"><ele></ele><time>2020-9-19T8:53:30Z</time></trkpt>
<trkpt lat="46.28823255188763141632080078125" lon="7.47988876886665821075439453125"><ele></ele><time>2020-9-19T8:53:33Z</time></trkpt>
<trkpt lat="46.28823154605925083160400390625" lon="7.479853816330432891845703125"><ele></ele><time>2020-9-19T8:53:36Z</time></trkpt>
<trkpt lat="46.28823137842118740081787109375" lon="7.47981752268970012664794921875"><ele></ele><time>2020-9-19T8:53:39Z</time></trkpt>
<trkpt lat="46.28823121078312397003173828125" lon="7.479782067239284515380859375"><ele></ele><time>2020-9-19T8:53:42Z</time></trkpt>
<trkpt lat="46.28823054023087024688720703125" lon="7.47975214384496212005615234375"><ele></ele><time>2020-9-19T8:53:45Z</time></trkpt>
<trkpt lat="46.288229785859584808349609375" lon="7.47971995733678340911865234375"><ele></ele><time>2020-9-19T8:53:48Z</time></trkpt>
<trkpt lat="46.28823238424956798553466796875" lon="7.47969330288469791412353515625"><ele></ele><time>2020-9-19T8:53:51Z</time></trkpt>
<trkpt lat="46.28823749721050262451171875" lon="7.479666732251644134521484375"><ele></ele><time>2020-9-19T8:53:54Z</time></trkpt>
<trkpt lat="46.28824152052402496337890625" lon="7.47964083217084407806396484375"><ele></ele><time>2020-9-19T8:53:57Z</time></trkpt>
<trkpt lat="46.28824830986559391021728515625" lon="7.47961853630840778350830078125"><ele></ele><time>2020-9-19T8:54:0Z</time></trkpt>
<trkpt lat="46.2882544286549091339111328125" lon="7.47959556989371776580810546875"><ele></ele><time>2020-9-19T8:54:3Z</time></trkpt>
<trkpt lat="46.288264654576778411865234375" lon="7.4795726872980594635009765625"><ele></ele><time>2020-9-19T8:54:6Z</time></trkpt>
<trkpt lat="46.2882738746702671051025390625" lon="7.479550726711750030517578125"><ele></ele><time>2020-9-19T8:54:9Z</time></trkpt>
<trkpt lat="46.28827965818345546722412109375" lon="7.479526586830615997314453125"><ele></ele><time>2020-9-19T8:54:12Z</time></trkpt>
<trkpt lat="46.28828619606792926788330078125" lon="7.47950571589171886444091796875"><ele></ele><time>2020-9-19T8:54:15Z</time></trkpt>
<trkpt lat="46.2882939912378787994384765625" lon="7.47948400676250457763671875"><ele></ele><time>2020-9-19T8:54:18Z</time></trkpt>
<trkpt lat="46.28830379806458950042724609375" lon="7.47946129180490970611572265625"><ele></ele><time>2020-9-19T8:54:21Z</time></trkpt>
<trkpt lat="46.288313604891300201416015625" lon="7.4794432707130908966064453125"><ele></ele><time>2020-9-19T8:54:24Z</time></trkpt>
<trkpt lat="46.2883288599550724029541015625" lon="7.479423992335796356201171875"><ele></ele><time>2020-9-19T8:54:27Z</time></trkpt>
<trkpt lat="46.2883395887911319732666015625" lon="7.4794000200927257537841796875"><ele></ele><time>2020-9-19T8:54:30Z</time></trkpt>
<trkpt lat="46.28834989853203296661376953125" lon="7.4793809093534946441650390625"><ele></ele><time>2020-9-19T8:54:33Z</time></trkpt>
<trkpt lat="46.28835794515907764434814453125" lon="7.47936221770942211151123046875"><ele></ele><time>2020-9-19T8:54:36Z</time></trkpt>
<trkpt lat="46.28836515359580516815185546875" lon="7.4793363176286220550537109375"><ele></ele><time>2020-9-19T8:54:39Z</time></trkpt>
<trkpt lat="46.288376636803150177001953125" lon="7.47931008227169513702392578125"><ele></ele><time>2020-9-19T8:54:42Z</time></trkpt>
<trkpt lat="46.28838107921183109283447265625" lon="7.47928661294281482696533203125"><ele></ele><time>2020-9-19T8:54:45Z</time></trkpt>
<trkpt lat="46.288385689258575439453125" lon="7.479262053966522216796875"><ele></ele><time>2020-9-19T8:54:48Z</time></trkpt>
<trkpt lat="46.28839381970465183258056640625" lon="7.47923799790441989898681640625"><ele></ele><time>2020-9-19T8:54:51Z</time></trkpt>
<trkpt lat="46.28839868120849132537841796875" lon="7.47920732013881206512451171875"><ele></ele><time>2020-9-19T8:54:54Z</time></trkpt>
<trkpt lat="46.28840270452201366424560546875" lon="7.47918217442929744720458984375"><ele></ele><time>2020-9-19T8:54:57Z</time></trkpt>
<trkpt lat="46.2884143553674221038818359375" lon="7.47915635816752910614013671875"><ele></ele><time>2020-9-19T8:55:0Z</time></trkpt>
<trkpt lat="46.2884250842034816741943359375" lon="7.47913188301026821136474609375"><ele></ele><time>2020-9-19T8:55:3Z</time></trkpt>
<trkpt lat="46.28843639977276325225830078125" lon="7.47910958714783191680908203125"><ele></ele><time>2020-9-19T8:55:6Z</time></trkpt>
<trkpt lat="46.2884441949427127838134765625" lon="7.47908947058022022247314453125"><ele></ele><time>2020-9-19T8:55:9Z</time></trkpt>
<trkpt lat="46.28845852799713611602783203125" lon="7.4790670908987522125244140625"><ele></ele><time>2020-9-19T8:55:12Z</time></trkpt>
<trkpt lat="46.28847076557576656341552734375" lon="7.47904554940760135650634765625"><ele></ele><time>2020-9-19T8:55:15Z</time></trkpt>
<trkpt lat="46.28848384134471416473388671875" lon="7.47901939786970615386962890625"><ele></ele><time>2020-9-19T8:55:18Z</time></trkpt>
<trkpt lat="46.28849825821816921234130859375" lon="7.47899492271244525909423828125"><ele></ele><time>2020-9-19T8:55:21Z</time></trkpt>
<trkpt lat="46.28850974142551422119140625" lon="7.47897346504032611846923828125"><ele></ele><time>2020-9-19T8:55:24Z</time></trkpt>
<trkpt lat="46.288520134985446929931640625" lon="7.4789514206349849700927734375"><ele></ele><time>2020-9-19T8:55:27Z</time></trkpt>
<trkpt lat="46.28852793015539646148681640625" lon="7.47892954386770725250244140625"><ele></ele><time>2020-9-19T8:55:30Z</time></trkpt>
<trkpt lat="46.288535557687282562255859375" lon="7.478904314339160919189453125"><ele></ele><time>2020-9-19T8:55:33Z</time></trkpt>
<trkpt lat="46.28854251466691493988037109375" lon="7.47887690551578998565673828125"><ele></ele><time>2020-9-19T8:55:36Z</time></trkpt>
<trkpt lat="46.28854737617075443267822265625" lon="7.47885276563465595245361328125"><ele></ele><time>2020-9-19T8:55:39Z</time></trkpt>
<trkpt lat="46.2885541655123233795166015625" lon="7.4788273684680461883544921875"><ele></ele><time>2020-9-19T8:55:42Z</time></trkpt>
<trkpt lat="46.28856782801449298858642578125" lon="7.478801719844341278076171875"><ele></ele><time>2020-9-19T8:55:45Z</time></trkpt>
<trkpt lat="46.2885776348412036895751953125" lon="7.47877447865903377532958984375"><ele></ele><time>2020-9-19T8:55:48Z</time></trkpt>
<trkpt lat="46.288585178554058074951171875" lon="7.47874430380761623382568359375"><ele></ele><time>2020-9-19T8:55:51Z</time></trkpt>
<trkpt lat="46.28859330900013446807861328125" lon="7.47871748171746730804443359375"><ele></ele><time>2020-9-19T8:55:54Z</time></trkpt>
<trkpt lat="46.28860353492200374603271484375" lon="7.4786929227411746978759765625"><ele></ele><time>2020-9-19T8:55:57Z</time></trkpt>
<trkpt lat="46.2886064685881137847900390625" lon="7.4786634184420108795166015625"><ele></ele><time>2020-9-19T8:56:0Z</time></trkpt>
<trkpt lat="46.2886155210435390472412109375" lon="7.4786386080086231231689453125"><ele></ele><time>2020-9-19T8:56:3Z</time></trkpt>
<trkpt lat="46.2886257469654083251953125" lon="7.4786154739558696746826171875"><ele></ele><time>2020-9-19T8:56:6Z</time></trkpt>
<trkpt lat="46.28863438032567501068115234375" lon="7.47859510593116283416748046875"><ele></ele><time>2020-9-19T8:56:9Z</time></trkpt>
<trkpt lat="46.28864326514303684234619140625" lon="7.47857448644936084747314453125"><ele></ele><time>2020-9-19T8:56:12Z</time></trkpt>
<trkpt lat="46.288652233779430389404296875" lon="7.47855369932949542999267578125"><ele></ele><time>2020-9-19T8:56:15Z</time></trkpt>
<trkpt lat="46.288661621510982513427734375" lon="7.47853391803801059722900390625"><ele></ele><time>2020-9-19T8:56:18Z</time></trkpt>
<trkpt lat="46.288670003414154052734375" lon="7.4785155616700649261474609375"><ele></ele><time>2020-9-19T8:56:21Z</time></trkpt>
<trkpt lat="46.28868333064019680023193359375" lon="7.478492259979248046875"><ele></ele><time>2020-9-19T8:56:24Z</time></trkpt>
<trkpt lat="46.28869825042784214019775390625" lon="7.4784694612026214599609375"><ele></ele><time>2020-9-19T8:56:27Z</time></trkpt>
<trkpt lat="46.2887110747396945953369140625" lon="7.47844892553985118865966796875"><ele></ele><time>2020-9-19T8:56:30Z</time></trkpt>
<trkpt lat="46.2887228094041347503662109375" lon="7.47842931188642978668212890625"><ele></ele><time>2020-9-19T8:56:33Z</time></trkpt>
<trkpt lat="46.28873370587825775146484375" lon="7.4784079380333423614501953125"><ele></ele><time>2020-9-19T8:56:36Z</time></trkpt>
<trkpt lat="46.28874284215271472930908203125" lon="7.47838027775287628173828125"><ele></ele><time>2020-9-19T8:56:39Z</time></trkpt>
<trkpt lat="46.2887518107891082763671875" lon="7.47835773043334484100341796875"><ele></ele><time>2020-9-19T8:56:42Z</time></trkpt>
<trkpt lat="46.28875491209328174591064453125" lon="7.47833275236189365386962890625"><ele></ele><time>2020-9-19T8:56:45Z</time></trkpt>
<trkpt lat="46.288760192692279815673828125" lon="7.47830643318593502044677734375"><ele></ele><time>2020-9-19T8:56:48Z</time></trkpt>
<trkpt lat="46.28876497037708759307861328125" lon="7.47827826999127864837646484375"><ele></ele><time>2020-9-19T8:56:51Z</time></trkpt>
<trkpt lat="46.28877569921314716339111328125" lon="7.47825798578560352325439453125"><ele></ele><time>2020-9-19T8:56:54Z</time></trkpt>
<trkpt lat="46.28878592513501644134521484375" lon="7.47823409736156463623046875"><ele></ele><time>2020-9-19T8:56:57Z</time></trkpt>
<trkpt lat="46.28879849798977375030517578125" lon="7.47821339406073093414306640625"><ele></ele><time>2020-9-19T8:57:0Z</time></trkpt>
<trkpt lat="46.28881073556840419769287109375" lon="7.4781920202076435089111328125"><ele></ele><time>2020-9-19T8:57:3Z</time></trkpt>
<trkpt lat="46.28882096149027347564697265625" lon="7.47817282564938068389892578125"><ele></ele><time>2020-9-19T8:57:6Z</time></trkpt>
<trkpt lat="46.28883152268826961517333984375" lon="7.47814080677926540374755859375"><ele></ele><time>2020-9-19T8:57:9Z</time></trkpt>
<trkpt lat="46.2888411618769168853759765625" lon="7.47810258530080318450927734375"><ele></ele><time>2020-9-19T8:57:12Z</time></trkpt>
<trkpt lat="46.28884895704686641693115234375" lon="7.478068135678768157958984375"><ele></ele><time>2020-9-19T8:57:15Z</time></trkpt>
<trkpt lat="46.2888552434742450714111328125" lon="7.47803687117993831634521484375"><ele></ele><time>2020-9-19T8:57:18Z</time></trkpt>
<trkpt lat="46.28885448910295963287353515625" lon="7.47799864970147609710693359375"><ele></ele><time>2020-9-19T8:57:21Z</time></trkpt>
<trkpt lat="46.288852058351039886474609375" lon="7.47796445153653621673583984375"><ele></ele><time>2020-9-19T8:57:24Z</time></trkpt>
<trkpt lat="46.28884979523718357086181640625" lon="7.47793578542768955230712890625"><ele></ele><time>2020-9-19T8:57:27Z</time></trkpt>
<trkpt lat="46.28884862177073955535888671875" lon="7.47790561057627201080322265625"><ele></ele><time>2020-9-19T8:57:30Z</time></trkpt>
<trkpt lat="46.28885163925588130950927734375" lon="7.47787627391517162322998046875"><ele></ele><time>2020-9-19T8:57:33Z</time></trkpt>
<trkpt lat="46.2888532318174839019775390625" lon="7.477850876748561859130859375"><ele></ele><time>2020-9-19T8:57:36Z</time></trkpt>
<trkpt lat="46.28885650075972080230712890625" lon="7.477824725210666656494140625"><ele></ele><time>2020-9-19T8:57:39Z</time></trkpt>
<trkpt lat="46.28886253573000431060791015625" lon="7.47779027558863162994384765625"><ele></ele><time>2020-9-19T8:57:42Z</time></trkpt>
<trkpt lat="46.28886672668159008026123046875" lon="7.47776362113654613494873046875"><ele></ele><time>2020-9-19T8:57:45Z</time></trkpt>
<trkpt lat="46.28886907361447811126708984375" lon="7.4776889383792877197265625"><ele></ele><time>2020-9-19T8:57:48Z</time></trkpt>
<trkpt lat="46.2888671457767486572265625" lon="7.4776515550911426544189453125"><ele></ele><time>2020-9-19T8:57:51Z</time></trkpt>
<trkpt lat="46.2888720072805881500244140625" lon="7.4776243977248668670654296875"><ele></ele><time>2020-9-19T8:57:54Z</time></trkpt>
<trkpt lat="46.28887108527123928070068359375" lon="7.4775895290076732635498046875"><ele></ele><time>2020-9-19T8:57:57Z</time></trkpt>
<trkpt lat="46.2888710014522075653076171875" lon="7.477553151547908782958984375"><ele></ele><time>2020-9-19T8:58:0Z</time></trkpt>
<trkpt lat="46.28887544386088848114013671875" lon="7.47752306051552295684814453125"><ele></ele><time>2020-9-19T8:58:3Z</time></trkpt>
<trkpt lat="46.2888787128031253814697265625" lon="7.4774909578263759613037109375"><ele></ele><time>2020-9-19T8:58:6Z</time></trkpt>
<trkpt lat="46.28888634033501148223876953125" lon="7.47746304608881473541259765625"><ele></ele><time>2020-9-19T8:58:9Z</time></trkpt>
<trkpt lat="46.288891620934009552001953125" lon="7.47743773274123668670654296875"><ele></ele><time>2020-9-19T8:58:12Z</time></trkpt>
<trkpt lat="46.2889005057513713836669921875" lon="7.47741258703172206878662109375"><ele></ele><time>2020-9-19T8:58:15Z</time></trkpt>
<trkpt lat="46.2889092229306697845458984375" lon="7.477385513484477996826171875"><ele></ele><time>2020-9-19T8:58:18Z</time></trkpt>
<trkpt lat="46.2889145873486995697021484375" lon="7.47735433280467987060546875"><ele></ele><time>2020-9-19T8:58:21Z</time></trkpt>
<trkpt lat="46.2889199517667293548583984375" lon="7.47732290066778659820556640625"><ele></ele><time>2020-9-19T8:58:24Z</time></trkpt>
<trkpt lat="46.288922131061553955078125" lon="7.4772867746651172637939453125"><ele></ele><time>2020-9-19T8:58:27Z</time></trkpt>
<trkpt lat="46.28892607055604457855224609375" lon="7.47724729590117931365966796875"><ele></ele><time>2020-9-19T8:58:30Z</time></trkpt>
<trkpt lat="46.288930512964725494384765625" lon="7.47720991261303424835205078125"><ele></ele><time>2020-9-19T8:58:33Z</time></trkpt>
<trkpt lat="46.28893596120178699493408203125" lon="7.4771751277148723602294921875"><ele></ele><time>2020-9-19T8:58:36Z</time></trkpt>
<trkpt lat="46.288942582905292510986328125" lon="7.47714553959667682647705078125"><ele></ele><time>2020-9-19T8:58:39Z</time></trkpt>
<trkpt lat="46.28894199617207050323486328125" lon="7.47712098062038421630859375"><ele></ele><time>2020-9-19T8:58:42Z</time></trkpt>
<trkpt lat="46.2889430858194828033447265625" lon="7.47709373943507671356201171875"><ele></ele><time>2020-9-19T8:58:45Z</time></trkpt>
<trkpt lat="46.2889467738568782806396484375" lon="7.4770671688020229339599609375"><ele></ele><time>2020-9-19T8:58:48Z</time></trkpt>
<trkpt lat="46.28894786350429058074951171875" lon="7.4770403467118740081787109375"><ele></ele><time>2020-9-19T8:58:51Z</time></trkpt>
<trkpt lat="46.28895155154168605804443359375" lon="7.4770141951739788055419921875"><ele></ele><time>2020-9-19T8:58:54Z</time></trkpt>
<trkpt lat="46.28895171917974948883056640625" lon="7.4769813381135463714599609375"><ele></ele><time>2020-9-19T8:58:57Z</time></trkpt>
<trkpt lat="46.28895230591297149658203125" lon="7.4769535101950168609619140625"><ele></ele><time>2020-9-19T8:59:0Z</time></trkpt>
<trkpt lat="46.28895255737006664276123046875" lon="7.47692509554326534271240234375"><ele></ele><time>2020-9-19T8:59:3Z</time></trkpt>
<trkpt lat="46.28895373083651065826416015625" lon="7.4768938310444355010986328125"><ele></ele><time>2020-9-19T8:59:6Z</time></trkpt>
<trkpt lat="46.28895741887390613555908203125" lon="7.47686306945979595184326171875"><ele></ele><time>2020-9-19T8:59:9Z</time></trkpt>
<trkpt lat="46.2889541499316692352294921875" lon="7.4768318049609661102294921875"><ele></ele><time>2020-9-19T8:59:12Z</time></trkpt>
<trkpt lat="46.2889507971704006195068359375" lon="7.47680406086146831512451171875"><ele></ele><time>2020-9-19T8:59:15Z</time></trkpt>
<trkpt lat="46.288950629532337188720703125" lon="7.47677505947649478912353515625"><ele></ele><time>2020-9-19T8:59:18Z</time></trkpt>
<trkpt lat="46.288949288427829742431640625" lon="7.476747818291187286376953125"><ele></ele><time>2020-9-19T8:59:21Z</time></trkpt>
<trkpt lat="46.28894283436238765716552734375" lon="7.4767206609249114990234375"><ele></ele><time>2020-9-19T8:59:24Z</time></trkpt>
<trkpt lat="46.288940571248531341552734375" lon="7.47669585049152374267578125"><ele></ele><time>2020-9-19T8:59:27Z</time></trkpt>
<trkpt lat="46.2889343686401844024658203125" lon="7.4766671843826770782470703125"><ele></ele><time>2020-9-19T8:59:30Z</time></trkpt>
<trkpt lat="46.28893076442182064056396484375" lon="7.47663893736898899078369140625"><ele></ele><time>2020-9-19T8:59:33Z</time></trkpt>
<trkpt lat="46.28892774693667888641357421875" lon="7.47661680914461612701416015625"><ele></ele><time>2020-9-19T8:59:36Z</time></trkpt>
<trkpt lat="46.28892003558576107025146484375" lon="7.47659132815897464752197265625"><ele></ele><time>2020-9-19T8:59:39Z</time></trkpt>
<trkpt lat="46.28891115076839923858642578125" lon="7.47656987048685550689697265625"><ele></ele><time>2020-9-19T8:59:42Z</time></trkpt>
<trkpt lat="46.28890142776072025299072265625" lon="7.47654874809086322784423828125"><ele></ele><time>2020-9-19T8:59:45Z</time></trkpt>
<trkpt lat="46.288888268172740936279296875" lon="7.4765320681035518646240234375"><ele></ele><time>2020-9-19T8:59:48Z</time></trkpt>
<trkpt lat="46.28887644968926906585693359375" lon="7.476514466106891632080078125"><ele></ele><time>2020-9-19T8:59:51Z</time></trkpt>
<trkpt lat="46.28886647522449493408203125" lon="7.4764958582818508148193359375"><ele></ele><time>2020-9-19T8:59:54Z</time></trkpt>
<trkpt lat="46.28885666839778423309326171875" lon="7.476473562419414520263671875"><ele></ele><time>2020-9-19T8:59:57Z</time></trkpt>
<trkpt lat="46.28885130397975444793701171875" lon="7.47644950635731220245361328125"><ele></ele><time>2020-9-19T9:0:0Z</time></trkpt>
<trkpt lat="46.288846023380756378173828125" lon="7.476427964866161346435546875"><ele></ele><time>2020-9-19T9:0:3Z</time></trkpt>
<trkpt lat="46.28884074278175830841064453125" lon="7.4764046631753444671630859375"><ele></ele><time>2020-9-19T9:0:6Z</time></trkpt>
<trkpt lat="46.288835965096950531005859375" lon="7.4763805232942104339599609375"><ele></ele><time>2020-9-19T9:0:9Z</time></trkpt>
<trkpt lat="46.2888254038989543914794921875" lon="7.47635814361274242401123046875"><ele></ele><time>2020-9-19T9:0:12Z</time></trkpt>
<trkpt lat="46.28881542943418025970458984375" lon="7.4763349257409572601318359375"><ele></ele><time>2020-9-19T9:0:15Z</time></trkpt>
<trkpt lat="46.288807131350040435791015625" lon="7.4763143062591552734375"><ele></ele><time>2020-9-19T9:0:18Z</time></trkpt>
<trkpt lat="46.28879833035171031951904296875" lon="7.47629360295832157135009765625"><ele></ele><time>2020-9-19T9:0:21Z</time></trkpt>
<trkpt lat="46.28879480995237827301025390625" lon="7.4762695468962192535400390625"><ele></ele><time>2020-9-19T9:0:24Z</time></trkpt>
<trkpt lat="46.28878894262015819549560546875" lon="7.4762459099292755126953125"><ele></ele><time>2020-9-19T9:0:27Z</time></trkpt>
<trkpt lat="46.28878491930663585662841796875" lon="7.4762232787907123565673828125"><ele></ele><time>2020-9-19T9:0:30Z</time></trkpt>
<trkpt lat="46.2887821532785892486572265625" lon="7.47620098292827606201171875"><ele></ele><time>2020-9-19T9:0:33Z</time></trkpt>
<trkpt lat="46.28877796232700347900390625" lon="7.47617860324680805206298828125"><ele></ele><time>2020-9-19T9:0:36Z</time></trkpt>
<trkpt lat="46.28877385519444942474365234375" lon="7.4761585704982280731201171875"><ele></ele><time>2020-9-19T9:0:39Z</time></trkpt>
<trkpt lat="46.2887700833380222320556640625" lon="7.47613669373095035552978515625"><ele></ele><time>2020-9-19T9:0:42Z</time></trkpt>
<trkpt lat="46.28876631148159503936767578125" lon="7.47611741535365581512451171875"><ele></ele><time>2020-9-19T9:0:45Z</time></trkpt>
<trkpt lat="46.28876245580613613128662109375" lon="7.4760965444147586822509765625"><ele></ele><time>2020-9-19T9:0:48Z</time></trkpt>
<trkpt lat="46.28876312635838985443115234375" lon="7.4760737456381320953369140625"><ele></ele><time>2020-9-19T9:0:51Z</time></trkpt>
<trkpt lat="46.28875927068293094635009765625" lon="7.47605237178504467010498046875"><ele></ele><time>2020-9-19T9:0:54Z</time></trkpt>
<trkpt lat="46.28875072114169597625732421875" lon="7.47603074647486209869384765625"><ele></ele><time>2020-9-19T9:0:57Z</time></trkpt>
<trkpt lat="46.288746781647205352783203125" lon="7.4760070256888866424560546875"><ele></ele><time>2020-9-19T9:1:0Z</time></trkpt>
<trkpt lat="46.28874334506690502166748046875" lon="7.4759835563600063323974609375"><ele></ele><time>2020-9-19T9:1:3Z</time></trkpt>
<trkpt lat="46.2887372262775897979736328125" lon="7.47596352361142635345458984375"><ele></ele><time>2020-9-19T9:1:6Z</time></trkpt>
<trkpt lat="46.288732700049877166748046875" lon="7.47594189830124378204345703125"><ele></ele><time>2020-9-19T9:1:9Z</time></trkpt>
<trkpt lat="46.288726665079593658447265625" lon="7.4759185127913951873779296875"><ele></ele><time>2020-9-19T9:1:12Z</time></trkpt>
<trkpt lat="46.288719289004802703857421875" lon="7.47589730657637119293212890625"><ele></ele><time>2020-9-19T9:1:15Z</time></trkpt>
<trkpt lat="46.28871333785355091094970703125" lon="7.4758755974471569061279296875"><ele></ele><time>2020-9-19T9:1:18Z</time></trkpt>
<trkpt lat="46.28870822489261627197265625" lon="7.47585455887019634246826171875"><ele></ele><time>2020-9-19T9:1:21Z</time></trkpt>
<trkpt lat="46.2887040339410305023193359375" lon="7.4758306704461574554443359375"><ele></ele><time>2020-9-19T9:1:24Z</time></trkpt>
<trkpt lat="46.2886979989707469940185546875" lon="7.47580510564148426055908203125"><ele></ele><time>2020-9-19T9:1:27Z</time></trkpt>
<trkpt lat="46.2886912934482097625732421875" lon="7.4757813848555088043212890625"><ele></ele><time>2020-9-19T9:1:30Z</time></trkpt>
<trkpt lat="46.2886886112391948699951171875" lon="7.47575799934566020965576171875"><ele></ele><time>2020-9-19T9:1:33Z</time></trkpt>
<trkpt lat="46.2886849232017993927001953125" lon="7.475733272731304168701171875"><ele></ele><time>2020-9-19T9:1:36Z</time></trkpt>
<trkpt lat="46.2886748649179935455322265625" lon="7.47570955194532871246337890625"><ele></ele><time>2020-9-19T9:1:39Z</time></trkpt>
<trkpt lat="46.2886664830148220062255859375" lon="7.4756865017116069793701171875"><ele></ele><time>2020-9-19T9:1:42Z</time></trkpt>
<trkpt lat="46.2886537425220012664794921875" lon="7.47566462494432926177978515625"><ele></ele><time>2020-9-19T9:1:45Z</time></trkpt>
<trkpt lat="46.28865131177008152008056640625" lon="7.4756419099867343902587890625"><ele></ele><time>2020-9-19T9:1:48Z</time></trkpt>
<trkpt lat="46.28865650855004787445068359375" lon="7.47562238015234470367431640625"><ele></ele><time>2020-9-19T9:1:51Z</time></trkpt>
<trkpt lat="46.28866354934871196746826171875" lon="7.47561089694499969482421875"><ele></ele><time>2020-9-19T9:1:54Z</time></trkpt>
<trkpt lat="46.28867276944220066070556640625" lon="7.4756100587546825408935546875"><ele></ele><time>2020-9-19T9:1:57Z</time></trkpt>
<trkpt lat="46.288685090839862823486328125" lon="7.4756174348294734954833984375"><ele></ele><time>2020-9-19T9:2:0Z</time></trkpt>
<trkpt lat="46.28870495595037937164306640625" lon="7.47563042677938938140869140625"><ele></ele><time>2020-9-19T9:2:3Z</time></trkpt>
<trkpt lat="46.2887231446802616119384765625" lon="7.4756445921957492828369140625"><ele></ele><time>2020-9-19T9:2:6Z</time></trkpt>
<trkpt lat="46.288745105266571044921875" lon="7.4756586737930774688720703125"><ele></ele><time>2020-9-19T9:2:9Z</time></trkpt>
<trkpt lat="46.28876580856740474700927734375" lon="7.47567334212362766265869140625"><ele></ele><time>2020-9-19T9:2:12Z</time></trkpt>
<trkpt lat="46.2887858413159847259521484375" lon="7.47569010592997074127197265625"><ele></ele><time>2020-9-19T9:2:15Z</time></trkpt>
<trkpt lat="46.28880721516907215118408203125" lon="7.47570611536502838134765625"><ele></ele><time>2020-9-19T9:2:18Z</time></trkpt>
<trkpt lat="46.2888242304325103759765625" lon="7.47572279535233974456787109375"><ele></ele><time>2020-9-19T9:2:21Z</time></trkpt>
<trkpt lat="46.28883856348693370819091796875" lon="7.4757401458919048309326171875"><ele></ele><time>2020-9-19T9:2:24Z</time></trkpt>
<trkpt lat="46.288852728903293609619140625" lon="7.47576151974499225616455078125"><ele></ele><time>2020-9-19T9:2:27Z</time></trkpt>
<trkpt lat="46.2888683192431926727294921875" lon="7.47578121721744537353515625"><ele></ele><time>2020-9-19T9:2:30Z</time></trkpt>
<trkpt lat="46.288884244859218597412109375" lon="7.4757978133857250213623046875"><ele></ele><time>2020-9-19T9:2:33Z</time></trkpt>
<trkpt lat="46.2889041937887668609619140625" lon="7.47581331990659236907958984375"><ele></ele><time>2020-9-19T9:2:36Z</time></trkpt>
<trkpt lat="46.28892472945153713226318359375" lon="7.47582941316068172454833984375"><ele></ele><time>2020-9-19T9:2:39Z</time></trkpt>
<trkpt lat="46.2889444269239902496337890625" lon="7.47584466822445392608642578125"><ele></ele><time>2020-9-19T9:2:42Z</time></trkpt>
<trkpt lat="46.28896345384418964385986328125" lon="7.4758596718311309814453125"><ele></ele><time>2020-9-19T9:2:45Z</time></trkpt>
<trkpt lat="46.28897887654602527618408203125" lon="7.47587635181844234466552734375"><ele></ele><time>2020-9-19T9:2:48Z</time></trkpt>
<trkpt lat="46.28898918628692626953125" lon="7.47589831240475177764892578125"><ele></ele><time>2020-9-19T9:2:51Z</time></trkpt>
<trkpt lat="46.289000250399112701416015625" lon="7.47592278756201267242431640625"><ele></ele><time>2020-9-19T9:2:54Z</time></trkpt>
<trkpt lat="46.289006285369396209716796875" lon="7.47595078311860561370849609375"><ele></ele><time>2020-9-19T9:2:57Z</time></trkpt>
<trkpt lat="46.2890051119029521942138671875" lon="7.47598171234130859375"><ele></ele><time>2020-9-19T9:3:0Z</time></trkpt>
<trkpt lat="46.2890084646642208099365234375" lon="7.47608623467385768890380859375"><ele></ele><time>2020-9-19T9:3:3Z</time></trkpt>
<trkpt lat="46.28903419710695743560791015625" lon="7.47615312226116657257080078125"><ele></ele><time>2020-9-19T9:3:6Z</time></trkpt>
<trkpt lat="46.28909354098141193389892578125" lon="7.47621263377368450164794921875"><ele></ele><time>2020-9-19T9:3:9Z</time></trkpt>
<trkpt lat="46.28914567641913890838623046875" lon="7.47627231292426586151123046875"><ele></ele><time>2020-9-19T9:3:12Z</time></trkpt>
<trkpt lat="46.28918658010661602020263671875" lon="7.476348169147968292236328125"><ele></ele><time>2020-9-19T9:3:15Z</time></trkpt>
<trkpt lat="46.2892079539597034454345703125" lon="7.4764345027506351470947265625"><ele></ele><time>2020-9-19T9:3:18Z</time></trkpt>
<trkpt lat="46.289215497672557830810546875" lon="7.47652527876198291778564453125"><ele></ele><time>2020-9-19T9:3:21Z</time></trkpt>
<trkpt lat="46.28922899253666400909423828125" lon="7.47663281857967376708984375"><ele></ele><time>2020-9-19T9:3:24Z</time></trkpt>
<trkpt lat="46.2892481870949268341064453125" lon="7.47674253769218921661376953125"><ele></ele><time>2020-9-19T9:3:27Z</time></trkpt>
<trkpt lat="46.28928758203983306884765625" lon="7.47696951963007450103759765625"><ele></ele><time>2020-9-19T9:3:30Z</time></trkpt>
<trkpt lat="46.2893068604171276092529296875" lon="7.4770827591419219970703125"><ele></ele><time>2020-9-19T9:3:33Z</time></trkpt>
<trkpt lat="46.28937869332730770111083984375" lon="7.4775362201035022735595703125"><ele></ele><time>2020-9-19T9:3:36Z</time></trkpt>
<trkpt lat="46.289396546781063079833984375" lon="7.47764493338763713836669921875"><ele></ele><time>2020-9-19T9:3:39Z</time></trkpt>
<trkpt lat="46.2894124723970890045166015625" lon="7.47775138355791568756103515625"><ele></ele><time>2020-9-19T9:3:42Z</time></trkpt>
<trkpt lat="46.289427392184734344482421875" lon="7.47785867191851139068603515625"><ele></ele><time>2020-9-19T9:3:45Z</time></trkpt>
<trkpt lat="46.28944180905818939208984375" lon="7.47796193696558475494384765625"><ele></ele><time>2020-9-19T9:3:48Z</time></trkpt>
<trkpt lat="46.28945211879909038543701171875" lon="7.47805799357593059539794921875"><ele></ele><time>2020-9-19T9:3:51Z</time></trkpt>
<trkpt lat="46.28946267999708652496337890625" lon="7.478148601949214935302734375"><ele></ele><time>2020-9-19T9:3:54Z</time></trkpt>
<trkpt lat="46.2894718162715435028076171875" lon="7.47823619283735752105712890625"><ele></ele><time>2020-9-19T9:3:57Z</time></trkpt>
<trkpt lat="46.2894781865179538726806640625" lon="7.47831950895488262176513671875"><ele></ele><time>2020-9-19T9:4:0Z</time></trkpt>
<trkpt lat="46.28948212601244449615478515625" lon="7.4783982150256633758544921875"><ele></ele><time>2020-9-19T9:4:3Z</time></trkpt>
<trkpt lat="46.2894921004772186279296875" lon="7.47847457416355609893798828125"><ele></ele><time>2020-9-19T9:4:6Z</time></trkpt>
<trkpt lat="46.28950073383748531341552734375" lon="7.47855034656822681427001953125"><ele></ele><time>2020-9-19T9:4:9Z</time></trkpt>
<trkpt lat="46.28951112739741802215576171875" lon="7.47862326912581920623779296875"><ele></ele><time>2020-9-19T9:4:12Z</time></trkpt>
<trkpt lat="46.28952085040509700775146484375" lon="7.47869619168341159820556640625"><ele></ele><time>2020-9-19T9:4:15Z</time></trkpt>
<trkpt lat="46.28953258506953716278076171875" lon="7.4787683598697185516357421875"><ele></ele><time>2020-9-19T9:4:18Z</time></trkpt>
<trkpt lat="46.289544403553009033203125" lon="7.4788394384086132049560546875"><ele></ele><time>2020-9-19T9:4:21Z</time></trkpt>
<trkpt lat="46.28955991007387638092041015625" lon="7.47890909202396869659423828125"><ele></ele><time>2020-9-19T9:4:24Z</time></trkpt>
<trkpt lat="46.28959494642913341522216796875" lon="7.47904437594115734100341796875"><ele></ele><time>2020-9-19T9:4:27Z</time></trkpt>
<trkpt lat="46.2896149791777133941650390625" lon="7.47910581529140472412109375"><ele></ele><time>2020-9-19T9:4:30Z</time></trkpt>
<trkpt lat="46.289634592831134796142578125" lon="7.4791623093187808990478515625"><ele></ele><time>2020-9-19T9:4:33Z</time></trkpt>
<trkpt lat="46.2896511889994144439697265625" lon="7.4792176298797130584716796875"><ele></ele><time>2020-9-19T9:4:36Z</time></trkpt>
<trkpt lat="46.28966577351093292236328125" lon="7.47927077114582061767578125"><ele></ele><time>2020-9-19T9:4:39Z</time></trkpt>
<trkpt lat="46.2896813638508319854736328125" lon="7.47932248748838901519775390625"><ele></ele><time>2020-9-19T9:4:42Z</time></trkpt>
<trkpt lat="46.28969502635300159454345703125" lon="7.47937294654548168182373046875"><ele></ele><time>2020-9-19T9:4:45Z</time></trkpt>
<trkpt lat="46.2897078506648540496826171875" lon="7.4794214777648448944091796875"><ele></ele><time>2020-9-19T9:4:48Z</time></trkpt>
<trkpt lat="46.28972017206251621246337890625" lon="7.47946799732744693756103515625"><ele></ele><time>2020-9-19T9:4:51Z</time></trkpt>
<trkpt lat="46.2897323258221149444580078125" lon="7.47951141558587551116943359375"><ele></ele><time>2020-9-19T9:4:54Z</time></trkpt>
<trkpt lat="46.2897455692291259765625" lon="7.4795542471110820770263671875"><ele></ele><time>2020-9-19T9:4:57Z</time></trkpt>
<trkpt lat="46.289758644998073577880859375" lon="7.47959724627435207366943359375"><ele></ele><time>2020-9-19T9:5:0Z</time></trkpt>
<trkpt lat="46.2897682003676891326904296875" lon="7.47964083217084407806396484375"><ele></ele><time>2020-9-19T9:5:3Z</time></trkpt>
<trkpt lat="46.28977834247052669525146484375" lon="7.4796839989721775054931640625"><ele></ele><time>2020-9-19T9:5:6Z</time></trkpt>
<trkpt lat="46.28979058004915714263916015625" lon="7.47972540557384490966796875"><ele></ele><time>2020-9-19T9:5:9Z</time></trkpt>
<trkpt lat="46.28980181179940700531005859375" lon="7.479766644537448883056640625"><ele></ele><time>2020-9-19T9:5:12Z</time></trkpt>
<trkpt lat="46.28981287591159343719482421875" lon="7.47980662621557712554931640625"><ele></ele><time>2020-9-19T9:5:15Z</time></trkpt>
<trkpt lat="46.2898285500705242156982421875" lon="7.47984535060822963714599609375"><ele></ele><time>2020-9-19T9:5:18Z</time></trkpt>
<trkpt lat="46.28984506241977214813232421875" lon="7.47988038696348667144775390625"><ele></ele><time>2020-9-19T9:5:21Z</time></trkpt>
<trkpt lat="46.28986216150224208831787109375" lon="7.47991391457617282867431640625"><ele></ele><time>2020-9-19T9:5:24Z</time></trkpt>
<trkpt lat="46.2898810207843780517578125" lon="7.47994677163660526275634765625"><ele></ele><time>2020-9-19T9:5:27Z</time></trkpt>
<trkpt lat="46.2898966111242771148681640625" lon="7.47997795231640338897705078125"><ele></ele><time>2020-9-19T9:5:30Z</time></trkpt>
<trkpt lat="46.28991387784481048583984375" lon="7.480009384453296661376953125"><ele></ele><time>2020-9-19T9:5:33Z</time></trkpt>
<trkpt lat="46.289932988584041595458984375" lon="7.48003964312374591827392578125"><ele></ele><time>2020-9-19T9:5:36Z</time></trkpt>
<trkpt lat="46.28995000384747982025146484375" lon="7.480069063603878021240234375"><ele></ele><time>2020-9-19T9:5:39Z</time></trkpt>
<trkpt lat="46.2899666838347911834716796875" lon="7.48009898699820041656494140625"><ele></ele><time>2020-9-19T9:5:42Z</time></trkpt>
<trkpt lat="46.28998286090791225433349609375" lon="7.48012932948768138885498046875"><ele></ele><time>2020-9-19T9:5:45Z</time></trkpt>
<trkpt lat="46.28999995999038219451904296875" lon="7.48015992343425750732421875"><ele></ele><time>2020-9-19T9:5:48Z</time></trkpt>
<trkpt lat="46.29001806490123271942138671875" lon="7.48018917627632617950439453125"><ele></ele><time>2020-9-19T9:5:51Z</time></trkpt>
<trkpt lat="46.290035247802734375" lon="7.48021717183291912078857421875"><ele></ele><time>2020-9-19T9:5:54Z</time></trkpt>
<trkpt lat="46.290054023265838623046875" lon="7.4802449159324169158935546875"><ele></ele><time>2020-9-19T9:5:57Z</time></trkpt>
<trkpt lat="46.29007305018603801727294921875" lon="7.48027232475578784942626953125"><ele></ele><time>2020-9-19T9:6:0Z</time></trkpt>
<trkpt lat="46.29009299911558628082275390625" lon="7.4802982248365879058837890625"><ele></ele><time>2020-9-19T9:6:3Z</time></trkpt>
<trkpt lat="46.2901138700544834136962890625" lon="7.4803237058222293853759765625"><ele></ele><time>2020-9-19T9:6:6Z</time></trkpt>
<trkpt lat="46.2901346571743488311767578125" lon="7.48035010881721973419189453125"><ele></ele><time>2020-9-19T9:6:9Z</time></trkpt>
<trkpt lat="46.290154941380023956298828125" lon="7.48037693090736865997314453125"><ele></ele><time>2020-9-19T9:6:12Z</time></trkpt>
<trkpt lat="46.29017539322376251220703125" lon="7.48040257953107357025146484375"><ele></ele><time>2020-9-19T9:6:15Z</time></trkpt>
<trkpt lat="46.29019760526716709136962890625" lon="7.48042671941220760345458984375"><ele></ele><time>2020-9-19T9:6:18Z</time></trkpt>
<trkpt lat="46.29021939821541309356689453125" lon="7.48044968582689762115478515625"><ele></ele><time>2020-9-19T9:6:21Z</time></trkpt>
<trkpt lat="46.29024119116365909576416015625" lon="7.48047231696546077728271484375"><ele></ele><time>2020-9-19T9:6:24Z</time></trkpt>
<trkpt lat="46.290262900292873382568359375" lon="7.48049561865627765655517578125"><ele></ele><time>2020-9-19T9:6:27Z</time></trkpt>
<trkpt lat="46.29028310067951679229736328125" lon="7.48052009381353855133056640625"><ele></ele><time>2020-9-19T9:6:30Z</time></trkpt>
<trkpt lat="46.29030053503811359405517578125" lon="7.4805486761033535003662109375"><ele></ele><time>2020-9-19T9:6:33Z</time></trkpt>
<trkpt lat="46.290315203368663787841796875" lon="7.48058010824024677276611328125"><ele></ele><time>2020-9-19T9:6:36Z</time></trkpt>
<trkpt lat="46.29032752476632595062255859375" lon="7.480614222586154937744140625"><ele></ele><time>2020-9-19T9:6:39Z</time></trkpt>
<trkpt lat="46.2903371639549732208251953125" lon="7.480649761855602264404296875"><ele></ele><time>2020-9-19T9:6:42Z</time></trkpt>
<trkpt lat="46.290344707667827606201171875" lon="7.4806868098676204681396484375"><ele></ele><time>2020-9-19T9:6:45Z</time></trkpt>
<trkpt lat="46.29035241901874542236328125" lon="7.480725534260272979736328125"><ele></ele><time>2020-9-19T9:6:48Z</time></trkpt>
<trkpt lat="46.29036021418869495391845703125" lon="7.4807666055858135223388671875"><ele></ele><time>2020-9-19T9:6:51Z</time></trkpt>
<trkpt lat="46.29036943428218364715576171875" lon="7.480808012187480926513671875"><ele></ele><time>2020-9-19T9:6:54Z</time></trkpt>
<trkpt lat="46.2903797440230846405029296875" lon="7.48085101135075092315673828125"><ele></ele><time>2020-9-19T9:6:57Z</time></trkpt>
<trkpt lat="46.290403045713901519775390625" lon="7.4809573777019977569580078125"><ele></ele><time>2020-9-19T9:7:0Z</time></trkpt>
<trkpt lat="46.290451325476169586181640625" lon="7.48121009208261966705322265625"><ele></ele><time>2020-9-19T9:7:3Z</time></trkpt>
<trkpt lat="46.29049968905746936798095703125" lon="7.481420896947383880615234375"><ele></ele><time>2020-9-19T9:7:6Z</time></trkpt>
<trkpt lat="46.29053271375596523284912109375" lon="7.48148099519312381744384765625"><ele></ele><time>2020-9-19T9:7:9Z</time></trkpt>
<trkpt lat="46.29057370126247406005859375" lon="7.48151686973869800567626953125"><ele></ele><time>2020-9-19T9:7:12Z</time></trkpt>
<trkpt lat="46.29061435349285602569580078125" lon="7.4815300293266773223876953125"><ele></ele><time>2020-9-19T9:7:15Z</time></trkpt>
<trkpt lat="46.2906519882380962371826171875" lon="7.48153011314570903778076171875"><ele></ele><time>2020-9-19T9:7:18Z</time></trkpt>
<trkpt lat="46.2906856834888458251953125" lon="7.48152709566056728363037109375"><ele></ele><time>2020-9-19T9:7:21Z</time></trkpt>
<trkpt lat="46.29071652889251708984375" lon="7.48153061605989933013916015625"><ele></ele><time>2020-9-19T9:7:24Z</time></trkpt>
<trkpt lat="46.290744356811046600341796875" lon="7.48154235072433948516845703125"><ele></ele><time>2020-9-19T9:7:27Z</time></trkpt>
<trkpt lat="46.29076824523508548736572265625" lon="7.48156213201582431793212890625"><ele></ele><time>2020-9-19T9:7:30Z</time></trkpt>
<trkpt lat="46.29078970290720462799072265625" lon="7.48158593662083148956298828125"><ele></ele><time>2020-9-19T9:7:33Z</time></trkpt>
<trkpt lat="46.2908085621893405914306640625" lon="7.4816131778061389923095703125"><ele></ele><time>2020-9-19T9:7:36Z</time></trkpt>
<trkpt lat="46.29082490690052509307861328125" lon="7.4816436879336833953857421875"><ele></ele><time>2020-9-19T9:7:39Z</time></trkpt>
<trkpt lat="46.290842257440090179443359375" lon="7.4816738627851009368896484375"><ele></ele><time>2020-9-19T9:7:42Z</time></trkpt>
<trkpt lat="46.29086044616997241973876953125" lon="7.481702864170074462890625"><ele></ele><time>2020-9-19T9:7:45Z</time></trkpt>
<trkpt lat="46.290878467261791229248046875" lon="7.48173094354569911956787109375"><ele></ele><time>2020-9-19T9:7:48Z</time></trkpt>
<trkpt lat="46.29089548252522945404052734375" lon="7.4817603640258312225341796875"><ele></ele><time>2020-9-19T9:7:51Z</time></trkpt>
<trkpt lat="46.2909114919602870941162109375" lon="7.48179011978209018707275390625"><ele></ele><time>2020-9-19T9:7:54Z</time></trkpt>
<trkpt lat="46.2909279204905033111572265625" lon="7.48181962408125400543212890625"><ele></ele><time>2020-9-19T9:7:57Z</time></trkpt>
<trkpt lat="46.290943510830402374267578125" lon="7.481848038733005523681640625"><ele></ele><time>2020-9-19T9:8:0Z</time></trkpt>
<trkpt lat="46.290959604084491729736328125" lon="7.4818756990134716033935546875"><ele></ele><time>2020-9-19T9:8:3Z</time></trkpt>
<trkpt lat="46.2909775413572788238525390625" lon="7.481900341808795928955078125"><ele></ele><time>2020-9-19T9:8:6Z</time></trkpt>
<trkpt lat="46.29099749028682708740234375" lon="7.48192079365253448486328125"><ele></ele><time>2020-9-19T9:8:9Z</time></trkpt>
<trkpt lat="46.29101970233023166656494140625" lon="7.48193546198308467864990234375"><ele></ele><time>2020-9-19T9:8:12Z</time></trkpt>
<trkpt lat="46.291044093668460845947265625" lon="7.481942586600780487060546875"><ele></ele><time>2020-9-19T9:8:15Z</time></trkpt>
<trkpt lat="46.29106915555894374847412109375" lon="7.48194065876305103302001953125"><ele></ele><time>2020-9-19T9:8:18Z</time></trkpt>
<trkpt lat="46.2910928763449192047119140625" lon="7.481929175555706024169921875"><ele></ele><time>2020-9-19T9:8:21Z</time></trkpt>
<trkpt lat="46.2911126576364040374755859375" lon="7.4819078855216503143310546875"><ele></ele><time>2020-9-19T9:8:24Z</time></trkpt>
<trkpt lat="46.291126906871795654296875" lon="7.48187745921313762664794921875"><ele></ele><time>2020-9-19T9:8:27Z</time></trkpt>
<trkpt lat="46.29113637842237949371337890625" lon="7.481842003762722015380859375"><ele></ele><time>2020-9-19T9:8:30Z</time></trkpt>
<trkpt lat="46.2911421619355678558349609375" lon="7.481805123388767242431640625"><ele></ele><time>2020-9-19T9:8:33Z</time></trkpt>
<trkpt lat="46.291141994297504425048828125" lon="7.48176832683384418487548828125"><ele></ele><time>2020-9-19T9:8:36Z</time></trkpt>
<trkpt lat="46.29113939590752124786376953125" lon="7.481730021536350250244140625"><ele></ele><time>2020-9-19T9:8:39Z</time></trkpt>
<trkpt lat="46.2911371327936649322509765625" lon="7.48169087804853916168212890625"><ele></ele><time>2020-9-19T9:8:42Z</time></trkpt>
<trkpt lat="46.29113486967980861663818359375" lon="7.4816527403891086578369140625"><ele></ele><time>2020-9-19T9:8:45Z</time></trkpt>
<trkpt lat="46.29113285802304744720458984375" lon="7.48161376453936100006103515625"><ele></ele><time>2020-9-19T9:8:48Z</time></trkpt>
<trkpt lat="46.29113118164241313934326171875" lon="7.48157470487058162689208984375"><ele></ele><time>2020-9-19T9:8:51Z</time></trkpt>
<trkpt lat="46.29113025963306427001953125" lon="7.4815352261066436767578125"><ele></ele><time>2020-9-19T9:8:54Z</time></trkpt>
<trkpt lat="46.2911282479763031005859375" lon="7.48149566352367401123046875"><ele></ele><time>2020-9-19T9:8:57Z</time></trkpt>
<trkpt lat="46.2911257334053516387939453125" lon="7.481456100940704345703125"><ele></ele><time>2020-9-19T9:9:0Z</time></trkpt>
<trkpt lat="46.29112380556762218475341796875" lon="7.48141729272902011871337890625"><ele></ele><time>2020-9-19T9:9:3Z</time></trkpt>
<trkpt lat="46.2911213748157024383544921875" lon="7.4813791550695896148681640625"><ele></ele><time>2020-9-19T9:9:6Z</time></trkpt>
<trkpt lat="46.291118524968624114990234375" lon="7.4813421070575714111328125"><ele></ele><time>2020-9-19T9:9:9Z</time></trkpt>
<trkpt lat="46.2911166809499263763427734375" lon="7.4813047237694263458251953125"><ele></ele><time>2020-9-19T9:9:12Z</time></trkpt>
<trkpt lat="46.29111492075026035308837890625" lon="7.481267340481281280517578125"><ele></ele><time>2020-9-19T9:9:15Z</time></trkpt>
<trkpt lat="46.2911133281886577606201171875" lon="7.48123004101216793060302734375"><ele></ele><time>2020-9-19T9:9:18Z</time></trkpt>
<trkpt lat="46.291112489998340606689453125" lon="7.481192909181118011474609375"><ele></ele><time>2020-9-19T9:9:21Z</time></trkpt>
<trkpt lat="46.2911109812557697296142578125" lon="7.48115560971200466156005859375"><ele></ele><time>2020-9-19T9:9:24Z</time></trkpt>
<trkpt lat="46.29110838286578655242919921875" lon="7.48111906461417675018310546875"><ele></ele><time>2020-9-19T9:9:27Z</time></trkpt>
<trkpt lat="46.29110553301870822906494140625" lon="7.48108184896409511566162109375"><ele></ele><time>2020-9-19T9:9:30Z</time></trkpt>
<trkpt lat="46.29110268317162990570068359375" lon="7.4810445494949817657470703125"><ele></ele><time>2020-9-19T9:9:33Z</time></trkpt>
<trkpt lat="46.291100084781646728515625" lon="7.4810073338449001312255859375"><ele></ele><time>2020-9-19T9:9:36Z</time></trkpt>
<trkpt lat="46.2910968996584415435791015625" lon="7.4809701181948184967041015625"><ele></ele><time>2020-9-19T9:9:39Z</time></trkpt>
<trkpt lat="46.29109212197363376617431640625" lon="7.4809332378208637237548828125"><ele></ele><time>2020-9-19T9:9:42Z</time></trkpt>
<trkpt lat="46.291088350117206573486328125" lon="7.48089610598981380462646484375"><ele></ele><time>2020-9-19T9:9:45Z</time></trkpt>
<trkpt lat="46.291083991527557373046875" lon="7.48085872270166873931884765625"><ele></ele><time>2020-9-19T9:9:48Z</time></trkpt>
<trkpt lat="46.2910771183669567108154296875" lon="7.48082251287996768951416015625"><ele></ele><time>2020-9-19T9:9:51Z</time></trkpt>
<trkpt lat="46.291067898273468017578125" lon="7.4807877279818058013916015625"><ele></ele><time>2020-9-19T9:9:54Z</time></trkpt>
<trkpt lat="46.2910576723515987396240234375" lon="7.48075445182621479034423828125"><ele></ele><time>2020-9-19T9:9:57Z</time></trkpt>
<trkpt lat="46.29104685969650745391845703125" lon="7.48072209767997264862060546875"><ele></ele><time>2020-9-19T9:10:0Z</time></trkpt>
<trkpt lat="46.29103512503206729888916015625" lon="7.4806901626288890838623046875"><ele></ele><time>2020-9-19T9:10:3Z</time></trkpt>
<trkpt lat="46.2910224683582782745361328125" lon="7.48065856285393238067626953125"><ele></ele><time>2020-9-19T9:10:6Z</time></trkpt>
<trkpt lat="46.29100821912288665771484375" lon="7.48062796890735626220703125"><ele></ele><time>2020-9-19T9:10:9Z</time></trkpt>
<trkpt lat="46.290996484458446502685546875" lon="7.4805962853133678436279296875"><ele></ele><time>2020-9-19T9:10:12Z</time></trkpt>
<trkpt lat="46.29099153913557529449462890625" lon="7.48056300915777683258056640625"><ele></ele><time>2020-9-19T9:10:15Z</time></trkpt>
<trkpt lat="46.29099472425878047943115234375" lon="7.48053115792572498321533203125"><ele></ele><time>2020-9-19T9:10:18Z</time></trkpt>
<trkpt lat="46.2910060398280620574951171875" lon="7.4805054254829883575439453125"><ele></ele><time>2020-9-19T9:10:21Z</time></trkpt>
<trkpt lat="46.2910234741866588592529296875" lon="7.4804953671991825103759765625"><ele></ele><time>2020-9-19T9:10:24Z</time></trkpt>
<trkpt lat="46.29103948362171649932861328125" lon="7.480506598949432373046875"><ele></ele><time>2020-9-19T9:10:27Z</time></trkpt>
<trkpt lat="46.29105607978999614715576171875" lon="7.48053115792572498321533203125"><ele></ele><time>2020-9-19T9:10:30Z</time></trkpt>
<trkpt lat="46.29107435233891010284423828125" lon="7.48055823147296905517578125"><ele></ele><time>2020-9-19T9:10:33Z</time></trkpt>
<trkpt lat="46.29109011031687259674072265625" lon="7.48058580793440341949462890625"><ele></ele><time>2020-9-19T9:10:36Z</time></trkpt>
<trkpt lat="46.2911067903041839599609375" lon="7.48061430640518665313720703125"><ele></ele><time>2020-9-19T9:10:39Z</time></trkpt>
<trkpt lat="46.291126571595668792724609375" lon="7.4806420505046844482421875"><ele></ele><time>2020-9-19T9:10:42Z</time></trkpt>
<trkpt lat="46.2911475263535976409912109375" lon="7.48066979460418224334716796875"><ele></ele><time>2020-9-19T9:10:45Z</time></trkpt>
<trkpt lat="46.2911736778914928436279296875" lon="7.4806978739798069000244140625"><ele></ele><time>2020-9-19T9:10:48Z</time></trkpt>
<trkpt lat="46.29119756631553173065185546875" lon="7.48072209767997264862060546875"><ele></ele><time>2020-9-19T9:10:51Z</time></trkpt>
<trkpt lat="46.29122279584407806396484375" lon="7.48074204660952091217041015625"><ele></ele><time>2020-9-19T9:10:54Z</time></trkpt>
<trkpt lat="46.29124701954424381256103515625" lon="7.48076073825359344482421875"><ele></ele><time>2020-9-19T9:10:57Z</time></trkpt>
<trkpt lat="46.29126948304474353790283203125" lon="7.4807826988399028778076171875"><ele></ele><time>2020-9-19T9:11:0Z</time></trkpt>
<trkpt lat="46.2912891805171966552734375" lon="7.48080859892070293426513671875"><ele></ele><time>2020-9-19T9:11:3Z</time></trkpt>
<trkpt lat="46.29130921326577663421630859375" lon="7.48083676211535930633544921875"><ele></ele><time>2020-9-19T9:11:6Z</time></trkpt>
<trkpt lat="46.29132983274757862091064453125" lon="7.48086559586226940155029296875"><ele></ele><time>2020-9-19T9:11:9Z</time></trkpt>
<trkpt lat="46.29135162569582462310791015625" lon="7.48089526779949665069580078125"><ele></ele><time>2020-9-19T9:11:12Z</time></trkpt>
<trkpt lat="46.29137274809181690216064453125" lon="7.480925358831882476806640625"><ele></ele><time>2020-9-19T9:11:15Z</time></trkpt>
<trkpt lat="46.291394792497158050537109375" lon="7.48095578514039516448974609375"><ele></ele><time>2020-9-19T9:11:18Z</time></trkpt>
<trkpt lat="46.291417591273784637451171875" lon="7.480986379086971282958984375"><ele></ele><time>2020-9-19T9:11:21Z</time></trkpt>
<trkpt lat="46.29144097678363323211669921875" lon="7.4810167215764522552490234375"><ele></ele><time>2020-9-19T9:11:24Z</time></trkpt>
<trkpt lat="46.291464529931545257568359375" lon="7.4810472317039966583251953125"><ele></ele><time>2020-9-19T9:11:27Z</time></trkpt>
<trkpt lat="46.2914881668984889984130859375" lon="7.4810777418315410614013671875"><ele></ele><time>2020-9-19T9:11:30Z</time></trkpt>
<trkpt lat="46.29151104949414730072021484375" lon="7.481108419597148895263671875"><ele></ele><time>2020-9-19T9:11:33Z</time></trkpt>
<trkpt lat="46.29153317771852016448974609375" lon="7.48113968409597873687744140625"><ele></ele><time>2020-9-19T9:11:36Z</time></trkpt>
<trkpt lat="46.29155564121901988983154296875" lon="7.481171451508998870849609375"><ele></ele><time>2020-9-19T9:11:39Z</time></trkpt>
<trkpt lat="46.29157827235758304595947265625" lon="7.48120288364589214324951171875"><ele></ele><time>2020-9-19T9:11:42Z</time></trkpt>
<trkpt lat="46.2916004844009876251220703125" lon="7.481234483420848846435546875"><ele></ele><time>2020-9-19T9:11:45Z</time></trkpt>
<trkpt lat="46.291622780263423919677734375" lon="7.4812665022909641265869140625"><ele></ele><time>2020-9-19T9:11:48Z</time></trkpt>
<trkpt lat="46.29164398647844791412353515625" lon="7.4812990240752696990966796875"><ele></ele><time>2020-9-19T9:11:51Z</time></trkpt>
<trkpt lat="46.29166460596024990081787109375" lon="7.48133246786892414093017578125"><ele></ele><time>2020-9-19T9:11:54Z</time></trkpt>
<trkpt lat="46.291685141623020172119140625" lon="7.48136733658611774444580078125"><ele></ele><time>2020-9-19T9:11:57Z</time></trkpt>
<trkpt lat="46.2917054258286952972412109375" lon="7.4814011156558990478515625"><ele></ele><time>2020-9-19T9:12:0Z</time></trkpt>
<trkpt lat="46.2917255423963069915771484375" lon="7.48143405653536319732666015625"><ele></ele><time>2020-9-19T9:12:3Z</time></trkpt>
<trkpt lat="46.2917443178594112396240234375" lon="7.481467165052890777587890625"><ele></ele><time>2020-9-19T9:12:6Z</time></trkpt>
<trkpt lat="46.29176326096057891845703125" lon="7.481502033770084381103515625"><ele></ele><time>2020-9-19T9:12:9Z</time></trkpt>
<trkpt lat="46.291780360043048858642578125" lon="7.48153832741081714630126953125"><ele></ele><time>2020-9-19T9:12:12Z</time></trkpt>
<trkpt lat="46.291797459125518798828125" lon="7.4815756268799304962158203125"><ele></ele><time>2020-9-19T9:12:15Z</time></trkpt>
<trkpt lat="46.29181531257927417755126953125" lon="7.48161292634904384613037109375"><ele></ele><time>2020-9-19T9:12:18Z</time></trkpt>
<trkpt lat="46.29183157347142696380615234375" lon="7.481650225818157196044921875"><ele></ele><time>2020-9-19T9:12:21Z</time></trkpt>
<trkpt lat="46.2918442301452159881591796875" lon="7.48169012367725372314453125"><ele></ele><time>2020-9-19T9:12:24Z</time></trkpt>
<trkpt lat="46.29185034893453121185302734375" lon="7.4817358888685703277587890625"><ele></ele><time>2020-9-19T9:12:27Z</time></trkpt>
<trkpt lat="46.29185202531516551971435546875" lon="7.48178509064018726348876953125"><ele></ele><time>2020-9-19T9:12:30Z</time></trkpt>
<trkpt lat="46.29185789264738559722900390625" lon="7.48196798376739025115966796875"><ele></ele><time>2020-9-19T9:12:33Z</time></trkpt>
<trkpt lat="46.2918646819889545440673828125" lon="7.4821174331009387969970703125"><ele></ele><time>2020-9-19T9:12:36Z</time></trkpt>
<trkpt lat="46.29189125262200832366943359375" lon="7.48244491405785083770751953125"><ele></ele><time>2020-9-19T9:12:39Z</time></trkpt>
<trkpt lat="46.29190885461866855621337890625" lon="7.48252051882445812225341796875"><ele></ele><time>2020-9-19T9:12:42Z</time></trkpt>
<trkpt lat="46.29192419350147247314453125" lon="7.48258723877370357513427734375"><ele></ele><time>2020-9-19T9:12:45Z</time></trkpt>
<trkpt lat="46.2919382750988006591796875" lon="7.4826485104858875274658203125"><ele></ele><time>2020-9-19T9:12:48Z</time></trkpt>
<trkpt lat="46.2919531948864459991455078125" lon="7.48270676471292972564697265625"><ele></ele><time>2020-9-19T9:12:51Z</time></trkpt>
<trkpt lat="46.29196870140731334686279296875" lon="7.48276158235967159271240234375"><ele></ele><time>2020-9-19T9:12:54Z</time></trkpt>
<trkpt lat="46.2919840402901172637939453125" lon="7.4828134663403034210205078125"><ele></ele><time>2020-9-19T9:12:57Z</time></trkpt>
<trkpt lat="46.2919977866113185882568359375" lon="7.48286400921642780303955078125"><ele></ele><time>2020-9-19T9:13:0Z</time></trkpt>
<trkpt lat="46.29201027564704418182373046875" lon="7.48291497118771076202392578125"><ele></ele><time>2020-9-19T9:13:3Z</time></trkpt>
<trkpt lat="46.2920195795595645904541015625" lon="7.48296492733061313629150390625"><ele></ele><time>2020-9-19T9:13:6Z</time></trkpt>
<trkpt lat="46.29202879965305328369140625" lon="7.483014129102230072021484375"><ele></ele><time>2020-9-19T9:13:9Z</time></trkpt>
<trkpt lat="46.2920415401458740234375" lon="7.48306383378803730010986328125"><ele></ele><time>2020-9-19T9:13:12Z</time></trkpt>
<trkpt lat="46.29205428063869476318359375" lon="7.4831138737499713897705078125"><ele></ele><time>2020-9-19T9:13:15Z</time></trkpt>
<trkpt lat="46.29206827841699123382568359375" lon="7.48316374607384204864501953125"><ele></ele><time>2020-9-19T9:13:18Z</time></trkpt>
<trkpt lat="46.29208319820463657379150390625" lon="7.4832124449312686920166015625"><ele></ele><time>2020-9-19T9:13:21Z</time></trkpt>
<trkpt lat="46.29210063256323337554931640625" lon="7.48325997032225131988525390625"><ele></ele><time>2020-9-19T9:13:24Z</time></trkpt>
<trkpt lat="46.2921164743602275848388671875" lon="7.4833096750080585479736328125"><ele></ele><time>2020-9-19T9:13:27Z</time></trkpt>
<trkpt lat="46.2921342439949512481689453125" lon="7.4833613075315952301025390625"><ele></ele><time>2020-9-19T9:13:30Z</time></trkpt>
<trkpt lat="46.29215125925838947296142578125" lon="7.48341738246381282806396484375"><ele></ele><time>2020-9-19T9:13:33Z</time></trkpt>
<trkpt lat="46.2922170571982860565185546875" lon="7.48360312543809413909912109375"><ele></ele><time>2020-9-19T9:13:36Z</time></trkpt>
<trkpt lat="46.29227212630212306976318359375" lon="7.4837311170995235443115234375"><ele></ele><time>2020-9-19T9:13:39Z</time></trkpt>
<trkpt lat="46.2924148701131343841552734375" lon="7.483985088765621185302734375"><ele></ele><time>2020-9-19T9:13:42Z</time></trkpt>
<trkpt lat="46.292454935610294342041015625" lon="7.48404418118298053741455078125"><ele></ele><time>2020-9-19T9:13:45Z</time></trkpt>
<trkpt lat="46.29253582097589969635009765625" lon="7.4841595999896526336669921875"><ele></ele><time>2020-9-19T9:13:48Z</time></trkpt>
<trkpt lat="46.29257990978658199310302734375" lon="7.48420997522771358489990234375"><ele></ele><time>2020-9-19T9:13:51Z</time></trkpt>
<trkpt lat="46.29271971993148326873779296875" lon="7.484355233609676361083984375"><ele></ele><time>2020-9-19T9:13:54Z</time></trkpt>
<trkpt lat="46.292766071856021881103515625" lon="7.48439823277294635772705078125"><ele></ele><time>2020-9-19T9:13:57Z</time></trkpt>
<trkpt lat="46.292812339961528778076171875" lon="7.4844405613839626312255859375"><ele></ele><time>2020-9-19T9:14:0Z</time></trkpt>
<trkpt lat="46.29285626113414764404296875" lon="7.48448154889047145843505859375"><ele></ele><time>2020-9-19T9:14:3Z</time></trkpt>
<trkpt lat="46.29290051758289337158203125" lon="7.48451809398829936981201171875"><ele></ele><time>2020-9-19T9:14:6Z</time></trkpt>
<trkpt lat="46.2929442711174488067626953125" lon="7.48455472290515899658203125"><ele></ele><time>2020-9-19T9:14:9Z</time></trkpt>
<trkpt lat="46.29298861138522624969482421875" lon="7.4845921061933040618896484375"><ele></ele><time>2020-9-19T9:14:12Z</time></trkpt>
<trkpt lat="46.2930384837090969085693359375" lon="7.48462605290114879608154296875"><ele></ele><time>2020-9-19T9:14:15Z</time></trkpt>
<trkpt lat="46.2930850870907306671142578125" lon="7.48466226272284984588623046875"><ele></ele><time>2020-9-19T9:14:18Z</time></trkpt>
<trkpt lat="46.29312490113079547882080078125" lon="7.4847144819796085357666015625"><ele></ele><time>2020-9-19T9:14:21Z</time></trkpt>
<trkpt lat="46.2931585125625133514404296875" lon="7.4847728200256824493408203125"><ele></ele><time>2020-9-19T9:14:24Z</time></trkpt>
<trkpt lat="46.29319095052778720855712890625" lon="7.48482688330113887786865234375"><ele></ele><time>2020-9-19T9:14:27Z</time></trkpt>
<trkpt lat="46.29322380758821964263916015625" lon="7.4848784320056438446044921875"><ele></ele><time>2020-9-19T9:14:30Z</time></trkpt>
<trkpt lat="46.29325498826801776885986328125" lon="7.48492897488176822662353515625"><ele></ele><time>2020-9-19T9:14:33Z</time></trkpt>
<trkpt lat="46.29328415729105472564697265625" lon="7.48497876338660717010498046875"><ele></ele><time>2020-9-19T9:14:36Z</time></trkpt>
<trkpt lat="46.29331399686634540557861328125" lon="7.48502385802567005157470703125"><ele></ele><time>2020-9-19T9:14:39Z</time></trkpt>
<trkpt lat="46.29334500990808010101318359375" lon="7.4850661866366863250732421875"><ele></ele><time>2020-9-19T9:14:42Z</time></trkpt>
<trkpt lat="46.29337686114013195037841796875" lon="7.4851064197719097137451171875"><ele></ele><time>2020-9-19T9:14:45Z</time></trkpt>
<trkpt lat="46.2934076227247714996337890625" lon="7.4851508438587188720703125"><ele></ele><time>2020-9-19T9:14:48Z</time></trkpt>
<trkpt lat="46.29343855194747447967529296875" lon="7.4851962737739086151123046875"><ele></ele><time>2020-9-19T9:14:51Z</time></trkpt>
<trkpt lat="46.29346914589405059814453125" lon="7.4852420389652252197265625"><ele></ele><time>2020-9-19T9:14:54Z</time></trkpt>
<trkpt lat="46.29349923692643642425537109375" lon="7.48528872616589069366455078125"><ele></ele><time>2020-9-19T9:14:57Z</time></trkpt>
<trkpt lat="46.29353075288236141204833984375" lon="7.48533415608108043670654296875"><ele></ele><time>2020-9-19T9:15:0Z</time></trkpt>
<trkpt lat="46.29356662742793560028076171875" lon="7.48537941835820674896240234375"><ele></ele><time>2020-9-19T9:15:3Z</time></trkpt>
<trkpt lat="46.2937556393444538116455078125" lon="7.48562316410243511199951171875"><ele></ele><time>2020-9-19T9:15:6Z</time></trkpt>
<trkpt lat="46.2937931902706623077392578125" lon="7.48567697592079639434814453125"><ele></ele><time>2020-9-19T9:15:9Z</time></trkpt>
<trkpt lat="46.293827556073665618896484375" lon="7.4857364036142826080322265625"><ele></ele><time>2020-9-19T9:15:12Z</time></trkpt>
<trkpt lat="46.29388748668134212493896484375" lon="7.4858648143708705902099609375"><ele></ele><time>2020-9-19T9:15:15Z</time></trkpt>
<trkpt lat="46.2939122132956981658935546875" lon="7.485931701958179473876953125"><ele></ele><time>2020-9-19T9:15:18Z</time></trkpt>
<trkpt lat="46.29393274895846843719482421875" lon="7.48599599115550518035888671875"><ele></ele><time>2020-9-19T9:15:21Z</time></trkpt>
<trkpt lat="46.293946914374828338623046875" lon="7.486059777438640594482421875"><ele></ele><time>2020-9-19T9:15:24Z</time></trkpt>
<trkpt lat="46.29396292380988597869873046875" lon="7.48612540774047374725341796875"><ele></ele><time>2020-9-19T9:15:27Z</time></trkpt>
<trkpt lat="46.29398186691105365753173828125" lon="7.48618626035749912261962890625"><ele></ele><time>2020-9-19T9:15:30Z</time></trkpt>
<trkpt lat="46.2939993850886821746826171875" lon="7.48624451458454132080078125"><ele></ele><time>2020-9-19T9:15:33Z</time></trkpt>
<trkpt lat="46.29401472397148609161376953125" lon="7.48630126006901264190673828125"><ele></ele><time>2020-9-19T9:15:36Z</time></trkpt>
<trkpt lat="46.29403098486363887786865234375" lon="7.48635507188737392425537109375"><ele></ele><time>2020-9-19T9:15:39Z</time></trkpt>
<trkpt lat="46.2940503470599651336669921875" lon="7.4864049442112445831298828125"><ele></ele><time>2020-9-19T9:15:42Z</time></trkpt>
<trkpt lat="46.294072307646274566650390625" lon="7.4864517152309417724609375"><ele></ele><time>2020-9-19T9:15:45Z</time></trkpt>
<trkpt lat="46.29409200511872768402099609375" lon="7.486497648060321807861328125"><ele></ele><time>2020-9-19T9:15:48Z</time></trkpt>
<trkpt lat="46.29410826601088047027587890625" lon="7.4865444190800189971923828125"><ele></ele><time>2020-9-19T9:15:51Z</time></trkpt>
<trkpt lat="46.29412360489368438720703125" lon="7.486590854823589324951171875"><ele></ele><time>2020-9-19T9:15:54Z</time></trkpt>
<trkpt lat="46.29413525573909282684326171875" lon="7.4866393022239208221435546875"><ele></ele><time>2020-9-19T9:15:57Z</time></trkpt>
<trkpt lat="46.29414984025061130523681640625" lon="7.48668649233877658843994140625"><ele></ele><time>2020-9-19T9:16:0Z</time></trkpt>
<trkpt lat="46.29416610114276409149169921875" lon="7.48673535883426666259765625"><ele></ele><time>2020-9-19T9:16:3Z</time></trkpt>
<trkpt lat="46.29418437369167804718017578125" lon="7.48678204603493213653564453125"><ele></ele><time>2020-9-19T9:16:6Z</time></trkpt>
<trkpt lat="46.294199042022228240966796875" lon="7.4868314154446125030517578125"><ele></ele><time>2020-9-19T9:16:9Z</time></trkpt>
<trkpt lat="46.2942122854292392730712890625" lon="7.48688061721622943878173828125"><ele></ele><time>2020-9-19T9:16:12Z</time></trkpt>
<trkpt lat="46.294227540493011474609375" lon="7.48692722059786319732666015625"><ele></ele><time>2020-9-19T9:16:15Z</time></trkpt>
<trkpt lat="46.2942441366612911224365234375" lon="7.48697139322757720947265625"><ele></ele><time>2020-9-19T9:16:18Z</time></trkpt>
<trkpt lat="46.2942645885050296783447265625" lon="7.48700902797281742095947265625"><ele></ele><time>2020-9-19T9:16:21Z</time></trkpt>
<trkpt lat="46.294283531606197357177734375" lon="7.48704490251839160919189453125"><ele></ele><time>2020-9-19T9:16:24Z</time></trkpt>
<trkpt lat="46.2943024747073650360107421875" lon="7.48708446510136127471923828125"><ele></ele><time>2020-9-19T9:16:27Z</time></trkpt>
<trkpt lat="46.29432451911270618438720703125" lon="7.4871217645704746246337890625"><ele></ele><time>2020-9-19T9:16:30Z</time></trkpt>
<trkpt lat="46.29435050301253795623779296875" lon="7.48715571127831935882568359375"><ele></ele><time>2020-9-19T9:16:33Z</time></trkpt>
<trkpt lat="46.2943728826940059661865234375" lon="7.48719192110002040863037109375"><ele></ele><time>2020-9-19T9:16:36Z</time></trkpt>
<trkpt lat="46.29439450800418853759765625" lon="7.4872273765504360198974609375"><ele></ele><time>2020-9-19T9:16:39Z</time></trkpt>
<trkpt lat="46.2944161333143711090087890625" lon="7.4872609041631221771240234375"><ele></ele><time>2020-9-19T9:16:42Z</time></trkpt>
<trkpt lat="46.29443700425326824188232421875" lon="7.48729334212839603424072265625"><ele></ele><time>2020-9-19T9:16:45Z</time></trkpt>
<trkpt lat="46.2944593839347362518310546875" lon="7.48732100240886211395263671875"><ele></ele><time>2020-9-19T9:16:48Z</time></trkpt>
<trkpt lat="46.2944756448268890380859375" lon="7.4873517639935016632080078125"><ele></ele><time>2020-9-19T9:16:51Z</time></trkpt>
<trkpt lat="46.2944949232041835784912109375" lon="7.4873759038746356964111328125"><ele></ele><time>2020-9-19T9:16:54Z</time></trkpt>
<trkpt lat="46.29451453685760498046875" lon="7.48739761300384998321533203125"><ele></ele><time>2020-9-19T9:16:57Z</time></trkpt>
<trkpt lat="46.2945306301116943359375" lon="7.48741990886628627777099609375"><ele></ele><time>2020-9-19T9:17:0Z</time></trkpt>
<trkpt lat="46.294546388089656829833984375" lon="7.48743809759616851806640625"><ele></ele><time>2020-9-19T9:17:3Z</time></trkpt>
<trkpt lat="46.29455946385860443115234375" lon="7.487457208335399627685546875"><ele></ele><time>2020-9-19T9:17:6Z</time></trkpt>
<trkpt lat="46.29457379691302776336669921875" lon="7.4874768219888210296630859375"><ele></ele><time>2020-9-19T9:17:9Z</time></trkpt>
<trkpt lat="46.29458586685359477996826171875" lon="7.4874972738325595855712890625"><ele></ele><time>2020-9-19T9:17:12Z</time></trkpt>
<trkpt lat="46.294592656195163726806640625" lon="7.48751864768564701080322265625"><ele></ele><time>2020-9-19T9:17:15Z</time></trkpt>
<trkpt lat="46.2945978529751300811767578125" lon="7.48753876425325870513916015625"><ele></ele><time>2020-9-19T9:17:18Z</time></trkpt>
<trkpt lat="46.294610090553760528564453125" lon="7.48755804263055324554443359375"><ele></ele><time>2020-9-19T9:17:21Z</time></trkpt>
<trkpt lat="46.2946276925504207611083984375" lon="7.487576901912689208984375"><ele></ele><time>2020-9-19T9:17:24Z</time></trkpt>
<trkpt lat="46.29464839585125446319580078125" lon="7.4875951744616031646728515625"><ele></ele><time>2020-9-19T9:17:27Z</time></trkpt>
<trkpt lat="46.2946709431707859039306640625" lon="7.48761202208697795867919921875"><ele></ele><time>2020-9-19T9:17:30Z</time></trkpt>
<trkpt lat="46.29469047300517559051513671875" lon="7.48762995935976505279541015625"><ele></ele><time>2020-9-19T9:17:33Z</time></trkpt>
<trkpt lat="46.2947105057537555694580078125" lon="7.4876447953283786773681640625"><ele></ele><time>2020-9-19T9:17:36Z</time></trkpt>
<trkpt lat="46.29472886212170124053955078125" lon="7.48766005039215087890625"><ele></ele><time>2020-9-19T9:17:39Z</time></trkpt>
<trkpt lat="46.29474260844290256500244140625" lon="7.4876793287694454193115234375"><ele></ele><time>2020-9-19T9:17:42Z</time></trkpt>
<trkpt lat="46.29475333727896213531494140625" lon="7.48769869096577167510986328125"><ele></ele><time>2020-9-19T9:17:45Z</time></trkpt>
<trkpt lat="46.2947671674191951751708984375" lon="7.487720064818859100341796875"><ele></ele><time>2020-9-19T9:17:48Z</time></trkpt>
<trkpt lat="46.29478183574974536895751953125" lon="7.4877403490245342254638671875"><ele></ele><time>2020-9-19T9:17:51Z</time></trkpt>
<trkpt lat="46.294795833528041839599609375" lon="7.48776130378246307373046875"><ele></ele><time>2020-9-19T9:17:54Z</time></trkpt>
<trkpt lat="46.29481234587728977203369140625" lon="7.48778334818780422210693359375"><ele></ele><time>2020-9-19T9:17:57Z</time></trkpt>
<trkpt lat="46.2948295287787914276123046875" lon="7.48780380003154277801513671875"><ele></ele><time>2020-9-19T9:18:0Z</time></trkpt>
<trkpt lat="46.2948476336896419525146484375" lon="7.48782098293304443359375"><ele></ele><time>2020-9-19T9:18:3Z</time></trkpt>
<trkpt lat="46.2948667444288730621337890625" lon="7.48783699236810207366943359375"><ele></ele><time>2020-9-19T9:18:6Z</time></trkpt>
<trkpt lat="46.29488459788262844085693359375" lon="7.48785476200282573699951171875"><ele></ele><time>2020-9-19T9:18:9Z</time></trkpt>
<trkpt lat="46.2949046306312084197998046875" lon="7.4878717772662639617919921875"><ele></ele><time>2020-9-19T9:18:12Z</time></trkpt>
<trkpt lat="46.2949257530272006988525390625" lon="7.48788761906325817108154296875"><ele></ele><time>2020-9-19T9:18:15Z</time></trkpt>
<trkpt lat="46.2949485518038272857666015625" lon="7.48790857382118701934814453125"><ele></ele><time>2020-9-19T9:18:18Z</time></trkpt>
<trkpt lat="46.29497059620916843414306640625" lon="7.48792902566492557525634765625"><ele></ele><time>2020-9-19T9:18:21Z</time></trkpt>
<trkpt lat="46.29499557428061962127685546875" lon="7.48795014806091785430908203125"><ele></ele><time>2020-9-19T9:18:24Z</time></trkpt>
<trkpt lat="46.295019127428531646728515625" lon="7.48797244392335414886474609375"><ele></ele><time>2020-9-19T9:18:27Z</time></trkpt>
<trkpt lat="46.29504268057644367218017578125" lon="7.4879938177764415740966796875"><ele></ele><time>2020-9-19T9:18:30Z</time></trkpt>
<trkpt lat="46.29506715573370456695556640625" lon="7.48801468871533870697021484375"><ele></ele><time>2020-9-19T9:18:33Z</time></trkpt>
<trkpt lat="46.2950917147099971771240234375" lon="7.48803329654037952423095703125"><ele></ele><time>2020-9-19T9:18:36Z</time></trkpt>
<trkpt lat="46.295117028057575225830078125" lon="7.488053329288959503173828125"><ele></ele><time>2020-9-19T9:18:39Z</time></trkpt>
<trkpt lat="46.29514276050031185150146484375" lon="7.4880732782185077667236328125"><ele></ele><time>2020-9-19T9:18:42Z</time></trkpt>
<trkpt lat="46.29516690038144588470458984375" lon="7.4880927242338657379150390625"><ele></ele><time>2020-9-19T9:18:45Z</time></trkpt>
<trkpt lat="46.2951896153390407562255859375" lon="7.48811325989663600921630859375"><ele></ele><time>2020-9-19T9:18:48Z</time></trkpt>
<trkpt lat="46.29521400667726993560791015625" lon="7.48813505284488201141357421875"><ele></ele><time>2020-9-19T9:18:51Z</time></trkpt>
<trkpt lat="46.29523814655840396881103515625" lon="7.48815667815506458282470703125"><ele></ele><time>2020-9-19T9:18:54Z</time></trkpt>
<trkpt lat="46.29526211880147457122802734375" lon="7.48818014748394489288330078125"><ele></ele><time>2020-9-19T9:18:57Z</time></trkpt>
<trkpt lat="46.2953448481857776641845703125" lon="7.48824586160480976104736328125"><ele></ele><time>2020-9-19T9:19:0Z</time></trkpt>
<trkpt lat="46.29538214765489101409912109375" lon="7.48826530762016773223876953125"><ele></ele><time>2020-9-19T9:19:3Z</time></trkpt>
<trkpt lat="46.29545892588794231414794921875" lon="7.488289363682270050048828125"><ele></ele><time>2020-9-19T9:19:6Z</time></trkpt>
<trkpt lat="46.29550100304186344146728515625" lon="7.48828860931098461151123046875"><ele></ele><time>2020-9-19T9:19:9Z</time></trkpt>
<trkpt lat="46.29554408602416515350341796875" lon="7.4882818199694156646728515625"><ele></ele><time>2020-9-19T9:19:12Z</time></trkpt>
<trkpt lat="46.2956335209310054779052734375" lon="7.48826027847826480865478515625"><ele></ele><time>2020-9-19T9:19:15Z</time></trkpt>
<trkpt lat="46.29568020813167095184326171875" lon="7.48825483024120330810546875"><ele></ele><time>2020-9-19T9:19:18Z</time></trkpt>
<trkpt lat="46.295727901160717010498046875" lon="7.4882596917450428009033203125"><ele></ele><time>2020-9-19T9:19:21Z</time></trkpt>
<trkpt lat="46.29578079096972942352294921875" lon="7.4882784672081470489501953125"><ele></ele><time>2020-9-19T9:19:24Z</time></trkpt>
<trkpt lat="46.29583359695971012115478515625" lon="7.48830788768827915191650390625"><ele></ele><time>2020-9-19T9:19:27Z</time></trkpt>
<trkpt lat="46.2959439866244792938232421875" lon="7.488383240997791290283203125"><ele></ele><time>2020-9-19T9:19:30Z</time></trkpt>
<trkpt lat="46.29605873487889766693115234375" lon="7.48847544193267822265625"><ele></ele><time>2020-9-19T9:19:33Z</time></trkpt>
<trkpt lat="46.2962279655039310455322265625" lon="7.48863947577774524688720703125"><ele></ele><time>2020-9-19T9:19:36Z</time></trkpt>
<trkpt lat="46.2962807714939117431640625" lon="7.4886940419673919677734375"><ele></ele><time>2020-9-19T9:19:39Z</time></trkpt>
<trkpt lat="46.29632913507521152496337890625" lon="7.4887468479573726654052734375"><ele></ele><time>2020-9-19T9:19:42Z</time></trkpt>
<trkpt lat="46.29637707956135272979736328125" lon="7.4887957982718944549560546875"><ele></ele><time>2020-9-19T9:19:45Z</time></trkpt>
<trkpt lat="46.29642083309590816497802734375" lon="7.4888424016535282135009765625"><ele></ele><time>2020-9-19T9:19:48Z</time></trkpt>
<trkpt lat="46.29646207205951213836669921875" lon="7.48888540081679821014404296875"><ele></ele><time>2020-9-19T9:19:51Z</time></trkpt>
<trkpt lat="46.29650280810892581939697265625" lon="7.48892580159008502960205078125"><ele></ele><time>2020-9-19T9:19:54Z</time></trkpt>
<trkpt lat="46.29654488526284694671630859375" lon="7.48896536417305469512939453125"><ele></ele><time>2020-9-19T9:19:57Z</time></trkpt>
<trkpt lat="46.29658520221710205078125" lon="7.4890063516795635223388671875"><ele></ele><time>2020-9-19T9:20:0Z</time></trkpt>
<trkpt lat="46.29662518389523029327392578125" lon="7.4890479259192943572998046875"><ele></ele><time>2020-9-19T9:20:3Z</time></trkpt>
<trkpt lat="46.2966644950211048126220703125" lon="7.48909126035869121551513671875"><ele></ele><time>2020-9-19T9:20:6Z</time></trkpt>
<trkpt lat="46.29670120775699615478515625" lon="7.48913719318807125091552734375"><ele></ele><time>2020-9-19T9:20:9Z</time></trkpt>
<trkpt lat="46.29673398099839687347412109375" lon="7.489183880388736724853515625"><ele></ele><time>2020-9-19T9:20:12Z</time></trkpt>
<trkpt lat="46.29676013253629207611083984375" lon="7.48923115432262420654296875"><ele></ele><time>2020-9-19T9:20:15Z</time></trkpt>
<trkpt lat="46.29677689634263515472412109375" lon="7.4892802722752094268798828125"><ele></ele><time>2020-9-19T9:20:18Z</time></trkpt>
<trkpt lat="46.2967912293970584869384765625" lon="7.4893265403807163238525390625"><ele></ele><time>2020-9-19T9:20:21Z</time></trkpt>
<trkpt lat="46.29680656827986240386962890625" lon="7.48937037773430347442626953125"><ele></ele><time>2020-9-19T9:20:24Z</time></trkpt>
<trkpt lat="46.296823583543300628662109375" lon="7.48941413126885890960693359375"><ele></ele><time>2020-9-19T9:20:27Z</time></trkpt>
<trkpt lat="46.2968442030251026153564453125" lon="7.48945453204214572906494140625"><ele></ele><time>2020-9-19T9:20:30Z</time></trkpt>
<trkpt lat="46.29686909727752208709716796875" lon="7.4894879758358001708984375"><ele></ele><time>2020-9-19T9:20:33Z</time></trkpt>
<trkpt lat="46.2968941591680049896240234375" lon="7.4895153008401393890380859375"><ele></ele><time>2020-9-19T9:20:36Z</time></trkpt>
<trkpt lat="46.2969191372394561767578125" lon="7.48953885398805141448974609375"><ele></ele><time>2020-9-19T9:20:39Z</time></trkpt>
<trkpt lat="46.29694604314863681793212890625" lon="7.4895598925650119781494140625"><ele></ele><time>2020-9-19T9:20:42Z</time></trkpt>
<trkpt lat="46.29697454161942005157470703125" lon="7.4895773269236087799072265625"><ele></ele><time>2020-9-19T9:20:45Z</time></trkpt>
<trkpt lat="46.29700186662375926971435546875" lon="7.48959300108253955841064453125"><ele></ele><time>2020-9-19T9:20:48Z</time></trkpt>
<trkpt lat="46.2970289401710033416748046875" lon="7.489604651927947998046875"><ele></ele><time>2020-9-19T9:20:51Z</time></trkpt>
<trkpt lat="46.2970604561269283294677734375" lon="7.4896142072975635528564453125"><ele></ele><time>2020-9-19T9:20:54Z</time></trkpt>
<trkpt lat="46.29709071479737758636474609375" lon="7.489623092114925384521484375"><ele></ele><time>2020-9-19T9:20:57Z</time></trkpt>
<trkpt lat="46.2971198000013828277587890625" lon="7.489629797637462615966796875"><ele></ele><time>2020-9-19T9:21:0Z</time></trkpt>
<trkpt lat="46.29714913666248321533203125" lon="7.48963776044547557830810546875"><ele></ele><time>2020-9-19T9:21:3Z</time></trkpt>
<trkpt lat="46.29717755131423473358154296875" lon="7.48964882455766201019287109375"><ele></ele><time>2020-9-19T9:21:6Z</time></trkpt>
<trkpt lat="46.297205798327922821044921875" lon="7.4896598048508167266845703125"><ele></ele><time>2020-9-19T9:21:9Z</time></trkpt>
<trkpt lat="46.29723094403743743896484375" lon="7.4896685220301151275634765625"><ele></ele><time>2020-9-19T9:21:12Z</time></trkpt>
<trkpt lat="46.29725483246147632598876953125" lon="7.48967908322811126708984375"><ele></ele><time>2020-9-19T9:21:15Z</time></trkpt>
<trkpt lat="46.2972785532474517822265625" lon="7.4896963499486446380615234375"><ele></ele><time>2020-9-19T9:21:18Z</time></trkpt>
<trkpt lat="46.297305040061473846435546875" lon="7.4897159636020660400390625"><ele></ele><time>2020-9-19T9:21:21Z</time></trkpt>
<trkpt lat="46.297328174114227294921875" lon="7.48973096720874309539794921875"><ele></ele><time>2020-9-19T9:21:24Z</time></trkpt>
<trkpt lat="46.297354660928249359130859375" lon="7.48974069021642208099365234375"><ele></ele><time>2020-9-19T9:21:27Z</time></trkpt>
<trkpt lat="46.29738156683743000030517578125" lon="7.48975074850022792816162109375"><ele></ele><time>2020-9-19T9:21:30Z</time></trkpt>
<trkpt lat="46.2974059581756591796875" lon="7.48976600356400012969970703125"><ele></ele><time>2020-9-19T9:21:33Z</time></trkpt>
<trkpt lat="46.297429762780666351318359375" lon="7.48978435993194580078125"><ele></ele><time>2020-9-19T9:21:36Z</time></trkpt>
<trkpt lat="46.297456920146942138671875" lon="7.48980472795665264129638671875"><ele></ele><time>2020-9-19T9:21:39Z</time></trkpt>
<trkpt lat="46.29747879691421985626220703125" lon="7.48983196914196014404296875"><ele></ele><time>2020-9-19T9:21:42Z</time></trkpt>
<trkpt lat="46.29749924875795841217041015625" lon="7.4898636527359485626220703125"><ele></ele><time>2020-9-19T9:21:45Z</time></trkpt>
<trkpt lat="46.2975201196968555450439453125" lon="7.489898689091205596923828125"><ele></ele><time>2020-9-19T9:21:48Z</time></trkpt>
<trkpt lat="46.2975385598838329315185546875" lon="7.48993615619838237762451171875"><ele></ele><time>2020-9-19T9:21:51Z</time></trkpt>
<trkpt lat="46.29755775444209575653076171875" lon="7.489974796772003173828125"><ele></ele><time>2020-9-19T9:21:54Z</time></trkpt>
<trkpt lat="46.2975754402577877044677734375" lon="7.49001192860305309295654296875"><ele></ele><time>2020-9-19T9:21:57Z</time></trkpt>
<trkpt lat="46.29759312607347965240478515625" lon="7.49004922807216644287109375"><ele></ele><time>2020-9-19T9:22:0Z</time></trkpt>
<trkpt lat="46.29760938696563243865966796875" lon="7.49008954502642154693603515625"><ele></ele><time>2020-9-19T9:22:3Z</time></trkpt>
<trkpt lat="46.29762464202940464019775390625" lon="7.490129359066486358642578125"><ele></ele><time>2020-9-19T9:22:6Z</time></trkpt>
<trkpt lat="46.2976441718637943267822265625" lon="7.49017235822975635528564453125"><ele></ele><time>2020-9-19T9:22:9Z</time></trkpt>
<trkpt lat="46.297662444412708282470703125" lon="7.4902173690497875213623046875"><ele></ele><time>2020-9-19T9:22:12Z</time></trkpt>
<trkpt lat="46.29767887294292449951171875" lon="7.4902633018791675567626953125"><ele></ele><time>2020-9-19T9:22:15Z</time></trkpt>
<trkpt lat="46.29769605584442615509033203125" lon="7.49030982144176959991455078125"><ele></ele><time>2020-9-19T9:22:18Z</time></trkpt>
<trkpt lat="46.29771080799400806427001953125" lon="7.49035709537565708160400390625"><ele></ele><time>2020-9-19T9:22:21Z</time></trkpt>
<trkpt lat="46.2977256439626216888427734375" lon="7.49040487222373485565185546875"><ele></ele><time>2020-9-19T9:22:24Z</time></trkpt>
<trkpt lat="46.297742240130901336669921875" lon="7.49044929631054401397705078125"><ele></ele><time>2020-9-19T9:22:27Z</time></trkpt>
<trkpt lat="46.29775925539433956146240234375" lon="7.4904933013021945953369140625"><ele></ele><time>2020-9-19T9:22:30Z</time></trkpt>
<trkpt lat="46.2977774441242218017578125" lon="7.49053739011287689208984375"><ele></ele><time>2020-9-19T9:22:33Z</time></trkpt>
<trkpt lat="46.29779311828315258026123046875" lon="7.4905796349048614501953125"><ele></ele><time>2020-9-19T9:22:36Z</time></trkpt>
<trkpt lat="46.29780896008014678955078125" lon="7.49062053859233856201171875"><ele></ele><time>2020-9-19T9:22:39Z</time></trkpt>
<trkpt lat="46.29782396368682384490966796875" lon="7.49066169373691082000732421875"><ele></ele><time>2020-9-19T9:22:42Z</time></trkpt>
<trkpt lat="46.29784575663506984710693359375" lon="7.49070477671921253204345703125"><ele></ele><time>2020-9-19T9:22:45Z</time></trkpt>
<trkpt lat="46.2978996522724628448486328125" lon="7.49083184637129306793212890625"><ele></ele><time>2020-9-19T9:22:48Z</time></trkpt>
<trkpt lat="46.29792253486812114715576171875" lon="7.49087124131619930267333984375"><ele></ele><time>2020-9-19T9:22:51Z</time></trkpt>
<trkpt lat="46.297950781881809234619140625" lon="7.4909050203859806060791015625"><ele></ele><time>2020-9-19T9:22:54Z</time></trkpt>
<trkpt lat="46.297979615628719329833984375" lon="7.490934692323207855224609375"><ele></ele><time>2020-9-19T9:22:57Z</time></trkpt>
<trkpt lat="46.29801389761269092559814453125" lon="7.49095983803272247314453125"><ele></ele><time>2020-9-19T9:23:0Z</time></trkpt>
<trkpt lat="46.29820592701435089111328125" lon="7.4910693056881427764892578125"><ele></ele><time>2020-9-19T9:23:3Z</time></trkpt>
<trkpt lat="46.29828597418963909149169921875" lon="7.49113124795258045196533203125"><ele></ele><time>2020-9-19T9:23:6Z</time></trkpt>
<trkpt lat="46.2983261235058307647705078125" lon="7.49117173254489898681640625"><ele></ele><time>2020-9-19T9:23:9Z</time></trkpt>
<trkpt lat="46.2983656860888004302978515625" lon="7.4912060983479022979736328125"><ele></ele><time>2020-9-19T9:23:12Z</time></trkpt>
<trkpt lat="46.29844355396926403045654296875" lon="7.4912842176854610443115234375"><ele></ele><time>2020-9-19T9:23:15Z</time></trkpt>
<trkpt lat="46.29848085343837738037109375" lon="7.49132889322936534881591796875"><ele></ele><time>2020-9-19T9:23:18Z</time></trkpt>
<trkpt lat="46.29851547069847583770751953125" lon="7.49137826263904571533203125"><ele></ele><time>2020-9-19T9:23:21Z</time></trkpt>
<trkpt lat="46.29855268634855747222900390625" lon="7.4914267100393772125244140625"><ele></ele><time>2020-9-19T9:23:24Z</time></trkpt>
<trkpt lat="46.29859610460698604583740234375" lon="7.4914615787565708160400390625"><ele></ele><time>2020-9-19T9:23:27Z</time></trkpt>
<trkpt lat="46.29864874295890331268310546875" lon="7.49146954156458377838134765625"><ele></ele><time>2020-9-19T9:23:30Z</time></trkpt>
<trkpt lat="46.298705823719501495361328125" lon="7.49143903143703937530517578125"><ele></ele><time>2020-9-19T9:23:33Z</time></trkpt>
<trkpt lat="46.2988503277301788330078125" lon="7.491334341466426849365234375"><ele></ele><time>2020-9-19T9:23:36Z</time></trkpt>
<trkpt lat="46.29901193082332611083984375" lon="7.491227053105831146240234375"><ele></ele><time>2020-9-19T9:23:39Z</time></trkpt>
<trkpt lat="46.2990955822169780731201171875" lon="7.491186819970607757568359375"><ele></ele><time>2020-9-19T9:23:42Z</time></trkpt>
<trkpt lat="46.29917881451547145843505859375" lon="7.49117349274456501007080078125"><ele></ele><time>2020-9-19T9:23:45Z</time></trkpt>
<trkpt lat="46.29926095716655254364013671875" lon="7.49118187464773654937744140625"><ele></ele><time>2020-9-19T9:23:48Z</time></trkpt>
<trkpt lat="46.29934175871312618255615234375" lon="7.49120266176760196685791015625"><ele></ele><time>2020-9-19T9:23:51Z</time></trkpt>
<trkpt lat="46.29941903986036777496337890625" lon="7.49123082496225833892822265625"><ele></ele><time>2020-9-19T9:23:54Z</time></trkpt>
<trkpt lat="46.2994940578937530517578125" lon="7.49126426875591278076171875"><ele></ele><time>2020-9-19T9:23:57Z</time></trkpt>
<trkpt lat="46.2995686568319797515869140625" lon="7.4913006462156772613525390625"><ele></ele><time>2020-9-19T9:24:0Z</time></trkpt>
<trkpt lat="46.29964082501828670501708984375" lon="7.49134163372218608856201171875"><ele></ele><time>2020-9-19T9:24:3Z</time></trkpt>
<trkpt lat="46.2997114844620227813720703125" lon="7.491384632885456085205078125"><ele></ele><time>2020-9-19T9:24:6Z</time></trkpt>
<trkpt lat="46.29977543838322162628173828125" lon="7.49143727123737335205078125"><ele></ele><time>2020-9-19T9:24:9Z</time></trkpt>
<trkpt lat="46.29982707090675830841064453125" lon="7.49150424264371395111083984375"><ele></ele><time>2020-9-19T9:24:12Z</time></trkpt>
<trkpt lat="46.29986830987036228179931640625" lon="7.4915749020874500274658203125"><ele></ele><time>2020-9-19T9:24:15Z</time></trkpt>
<trkpt lat="46.29990317858755588531494140625" lon="7.49164405278861522674560546875"><ele></ele><time>2020-9-19T9:24:18Z</time></trkpt>
<trkpt lat="46.299934946000576019287109375" lon="7.491707168519496917724609375"><ele></ele><time>2020-9-19T9:24:21Z</time></trkpt>
<trkpt lat="46.2999649532139301300048828125" lon="7.49176022596657276153564453125"><ele></ele><time>2020-9-19T9:24:24Z</time></trkpt>
<trkpt lat="46.29999336786568164825439453125" lon="7.49180473387241363525390625"><ele></ele><time>2020-9-19T9:24:27Z</time></trkpt>
<trkpt lat="46.300019435584545135498046875" lon="7.49184094369411468505859375"><ele></ele><time>2020-9-19T9:24:30Z</time></trkpt>
<trkpt lat="46.300042569637298583984375" lon="7.49187388457357883453369140625"><ele></ele><time>2020-9-19T9:24:33Z</time></trkpt>
<trkpt lat="46.30006243474781513214111328125" lon="7.49190674163401126861572265625"><ele></ele><time>2020-9-19T9:24:36Z</time></trkpt>
<trkpt lat="46.30008238367736339569091796875" lon="7.4919403530657291412353515625"><ele></ele><time>2020-9-19T9:24:39Z</time></trkpt>
<trkpt lat="46.3001020811498165130615234375" lon="7.49197597615420818328857421875"><ele></ele><time>2020-9-19T9:24:42Z</time></trkpt>
<trkpt lat="46.30012144334614276885986328125" lon="7.4920110963284969329833984375"><ele></ele><time>2020-9-19T9:24:45Z</time></trkpt>
<trkpt lat="46.30014306865632534027099609375" lon="7.49204210937023162841796875"><ele></ele><time>2020-9-19T9:24:48Z</time></trkpt>
<trkpt lat="46.3001667894423007965087890625" lon="7.49207320623099803924560546875"><ele></ele><time>2020-9-19T9:24:51Z</time></trkpt>
<trkpt lat="46.30019185133278369903564453125" lon="7.49210606329143047332763671875"><ele></ele><time>2020-9-19T9:24:54Z</time></trkpt>
<trkpt lat="46.30021582357585430145263671875" lon="7.49213732779026031494140625"><ele></ele><time>2020-9-19T9:24:57Z</time></trkpt>
<trkpt lat="46.30024298094213008880615234375" lon="7.49216507188975811004638671875"><ele></ele><time>2020-9-19T9:25:0Z</time></trkpt>
<trkpt lat="46.30027114413678646087646484375" lon="7.492191307246685028076171875"><ele></ele><time>2020-9-19T9:25:3Z</time></trkpt>
<trkpt lat="46.3003005646169185638427734375" lon="7.492218799889087677001953125"><ele></ele><time>2020-9-19T9:25:6Z</time></trkpt>
<trkpt lat="46.3003320805728435516357421875" lon="7.4922444485127925872802734375"><ele></ele><time>2020-9-19T9:25:9Z</time></trkpt>
<trkpt lat="46.3003629259765148162841796875" lon="7.4922695942223072052001953125"><ele></ele><time>2020-9-19T9:25:12Z</time></trkpt>
<trkpt lat="46.30039586685597896575927734375" lon="7.49229423701763153076171875"><ele></ele><time>2020-9-19T9:25:15Z</time></trkpt>
<trkpt lat="46.3004296459257602691650390625" lon="7.49231309629976749420166015625"><ele></ele><time>2020-9-19T9:25:18Z</time></trkpt>
<trkpt lat="46.3005000539124011993408203125" lon="7.49234855175018310546875"><ele></ele><time>2020-9-19T9:25:21Z</time></trkpt>
<trkpt lat="46.300569958984851837158203125" lon="7.492395825684070587158203125"><ele></ele><time>2020-9-19T9:25:24Z</time></trkpt>
<trkpt lat="46.3006056658923625946044921875" lon="7.49241870827972888946533203125"><ele></ele><time>2020-9-19T9:25:27Z</time></trkpt>
<trkpt lat="46.30064045079052448272705078125" lon="7.4924425967037677764892578125"><ele></ele><time>2020-9-19T9:25:30Z</time></trkpt>
<trkpt lat="46.300674565136432647705078125" lon="7.49246682040393352508544921875"><ele></ele><time>2020-9-19T9:25:33Z</time></trkpt>
<trkpt lat="46.30070901475846767425537109375" lon="7.492487691342830657958984375"><ele></ele><time>2020-9-19T9:25:36Z</time></trkpt>
<trkpt lat="46.30074304528534412384033203125" lon="7.49250688590109348297119140625"><ele></ele><time>2020-9-19T9:25:39Z</time></trkpt>
<trkpt lat="46.300775818526744842529296875" lon="7.49252448789775371551513671875"><ele></ele><time>2020-9-19T9:25:42Z</time></trkpt>
<trkpt lat="46.30080624483525753021240234375" lon="7.4925401620566844940185546875"><ele></ele><time>2020-9-19T9:25:45Z</time></trkpt>
<trkpt lat="46.3008353300392627716064453125" lon="7.4925535731017589569091796875"><ele></ele><time>2020-9-19T9:25:48Z</time></trkpt>
<trkpt lat="46.30086458288133144378662109375" lon="7.4925636313855648040771484375"><ele></ele><time>2020-9-19T9:25:51Z</time></trkpt>
<trkpt lat="46.3008929975330829620361328125" lon="7.49257427640259265899658203125"><ele></ele><time>2020-9-19T9:25:54Z</time></trkpt>
<trkpt lat="46.30092124454677104949951171875" lon="7.49258500523865222930908203125"><ele></ele><time>2020-9-19T9:25:57Z</time></trkpt>
<trkpt lat="46.3009483180940151214599609375" lon="7.4925934709608554840087890625"><ele></ele><time>2020-9-19T9:26:0Z</time></trkpt>
<trkpt lat="46.30097606219351291656494140625" lon="7.4926035292446613311767578125"><ele></ele><time>2020-9-19T9:26:3Z</time></trkpt>
<trkpt lat="46.301007159054279327392578125" lon="7.4926142580807209014892578125"><ele></ele><time>2020-9-19T9:26:6Z</time></trkpt>
<trkpt lat="46.3010405190289020538330078125" lon="7.4926234781742095947265625"><ele></ele><time>2020-9-19T9:26:9Z</time></trkpt>
<trkpt lat="46.301071532070636749267578125" lon="7.4926316924393177032470703125"><ele></ele><time>2020-9-19T9:26:12Z</time></trkpt>
<trkpt lat="46.30110229365527629852294921875" lon="7.49263915233314037322998046875"><ele></ele><time>2020-9-19T9:26:15Z</time></trkpt>
<trkpt lat="46.3011303730309009552001953125" lon="7.49264753423631191253662109375"><ele></ele><time>2020-9-19T9:26:18Z</time></trkpt>
<trkpt lat="46.30116046406328678131103515625" lon="7.49265843071043491363525390625"><ele></ele><time>2020-9-19T9:26:21Z</time></trkpt>
<trkpt lat="46.30119248293340206146240234375" lon="7.49266798608005046844482421875"><ele></ele><time>2020-9-19T9:26:24Z</time></trkpt>
<trkpt lat="46.3012235797941684722900390625" lon="7.49267620034515857696533203125"><ele></ele><time>2020-9-19T9:26:27Z</time></trkpt>
<trkpt lat="46.30125199444591999053955078125" lon="7.49268039129674434661865234375"><ele></ele><time>2020-9-19T9:26:30Z</time></trkpt>
<trkpt lat="46.3012772239744663238525390625" lon="7.4926813133060932159423828125"><ele></ele><time>2020-9-19T9:26:33Z</time></trkpt>
<trkpt lat="46.30129977129399776458740234375" lon="7.49267921783030033111572265625"><ele></ele><time>2020-9-19T9:26:36Z</time></trkpt>
<trkpt lat="46.3013228215277194976806640625" lon="7.49267418868839740753173828125"><ele></ele><time>2020-9-19T9:26:39Z</time></trkpt>
<trkpt lat="46.30134679377079010009765625" lon="7.49266983009874820709228515625"><ele></ele><time>2020-9-19T9:26:42Z</time></trkpt>
<trkpt lat="46.30137017928063869476318359375" lon="7.492666728794574737548828125"><ele></ele><time>2020-9-19T9:26:45Z</time></trkpt>
<trkpt lat="46.301394402980804443359375" lon="7.49266262166202068328857421875"><ele></ele><time>2020-9-19T9:26:48Z</time></trkpt>
<trkpt lat="46.3014180399477481842041015625" lon="7.4926583468914031982421875"><ele></ele><time>2020-9-19T9:26:51Z</time></trkpt>
<trkpt lat="46.30144109018146991729736328125" lon="7.49265189282596111297607421875"><ele></ele><time>2020-9-19T9:26:54Z</time></trkpt>
<trkpt lat="46.301465816795825958251953125" lon="7.49264426529407501220703125"><ele></ele><time>2020-9-19T9:26:57Z</time></trkpt>
<trkpt lat="46.3014918006956577301025390625" lon="7.4926370568573474884033203125"><ele></ele><time>2020-9-19T9:27:0Z</time></trkpt>
<trkpt lat="46.30151920951902866363525390625" lon="7.4926357157528400421142578125"><ele></ele><time>2020-9-19T9:27:3Z</time></trkpt>
<trkpt lat="46.3015538267791271209716796875" lon="7.4926444329321384429931640625"><ele></ele><time>2020-9-19T9:27:6Z</time></trkpt>
<trkpt lat="46.3015883602201938629150390625" lon="7.49266295693814754486083984375"><ele></ele><time>2020-9-19T9:27:9Z</time></trkpt>
<trkpt lat="46.30162264220416545867919921875" lon="7.49268852174282073974609375"><ele></ele><time>2020-9-19T9:27:12Z</time></trkpt>
<trkpt lat="46.30168969742953777313232421875" lon="7.49275264330208301544189453125"><ele></ele><time>2020-9-19T9:27:15Z</time></trkpt>
<trkpt lat="46.30171693861484527587890625" lon="7.49278734438121318817138671875"><ele></ele><time>2020-9-19T9:27:18Z</time></trkpt>
<trkpt lat="46.3017435930669307708740234375" lon="7.49282263219356536865234375"><ele></ele><time>2020-9-19T9:27:21Z</time></trkpt>
<trkpt lat="46.30177167244255542755126953125" lon="7.49285574071109294891357421875"><ele></ele><time>2020-9-19T9:27:24Z</time></trkpt>
<trkpt lat="46.301799081265926361083984375" lon="7.4928878434002399444580078125"><ele></ele><time>2020-9-19T9:27:27Z</time></trkpt>
<trkpt lat="46.3018248975276947021484375" lon="7.4929170124232769012451171875"><ele></ele><time>2020-9-19T9:27:30Z</time></trkpt>
<trkpt lat="46.30185012705624103546142578125" lon="7.49294467270374298095703125"><ele></ele><time>2020-9-19T9:27:33Z</time></trkpt>
<trkpt lat="46.30187242291867733001708984375" lon="7.4929716624319553375244140625"><ele></ele><time>2020-9-19T9:27:36Z</time></trkpt>
<trkpt lat="46.3018946349620819091796875" lon="7.49299370683729648590087890625"><ele></ele><time>2020-9-19T9:27:39Z</time></trkpt>
<trkpt lat="46.30191600881516933441162109375" lon="7.4930155836045742034912109375"><ele></ele><time>2020-9-19T9:27:42Z</time></trkpt>
<trkpt lat="46.30193947814404964447021484375" lon="7.49303461052477359771728515625"><ele></ele><time>2020-9-19T9:27:45Z</time></trkpt>
<trkpt lat="46.30196143873035907745361328125" lon="7.493053972721099853515625"><ele></ele><time>2020-9-19T9:27:48Z</time></trkpt>
<trkpt lat="46.3019826449453830718994140625" lon="7.49307199381291866302490234375"><ele></ele><time>2020-9-19T9:27:51Z</time></trkpt>
<trkpt lat="46.30200351588428020477294921875" lon="7.49309076927602291107177734375"><ele></ele><time>2020-9-19T9:27:54Z</time></trkpt>
<trkpt lat="46.3020235486328601837158203125" lon="7.493110634386539459228515625"><ele></ele><time>2020-9-19T9:27:57Z</time></trkpt>
<trkpt lat="46.302043162286281585693359375" lon="7.49313033185899257659912109375"><ele></ele><time>2020-9-19T9:28:0Z</time></trkpt>
<trkpt lat="46.3020622730255126953125" lon="7.49315028078854084014892578125"><ele></ele><time>2020-9-19T9:28:3Z</time></trkpt>
<trkpt lat="46.3020845688879489898681640625" lon="7.4931688047945499420166015625"><ele></ele><time>2020-9-19T9:28:6Z</time></trkpt>
<trkpt lat="46.3021053560078144073486328125" lon="7.49318866990506649017333984375"><ele></ele><time>2020-9-19T9:28:9Z</time></trkpt>
<trkpt lat="46.3021261431276798248291015625" lon="7.4932090379297733306884765625"><ele></ele><time>2020-9-19T9:28:12Z</time></trkpt>
<trkpt lat="46.3021496124565601348876953125" lon="7.49322823248803615570068359375"><ele></ele><time>2020-9-19T9:28:15Z</time></trkpt>
<trkpt lat="46.302172578871250152587890625" lon="7.49324952252209186553955078125"><ele></ele><time>2020-9-19T9:28:18Z</time></trkpt>
<trkpt lat="46.302192695438861846923828125" lon="7.49327299185097217559814453125"><ele></ele><time>2020-9-19T9:28:21Z</time></trkpt>
<trkpt lat="46.3022156618535518646240234375" lon="7.49329595826566219329833984375"><ele></ele><time>2020-9-19T9:28:24Z</time></trkpt>
<trkpt lat="46.30223770625889301300048828125" lon="7.49331624247133731842041015625"><ele></ele><time>2020-9-19T9:28:27Z</time></trkpt>
<trkpt lat="46.302259750664234161376953125" lon="7.49333552084863185882568359375"><ele></ele><time>2020-9-19T9:28:30Z</time></trkpt>
<trkpt lat="46.3022807054221630096435546875" lon="7.4933558888733386993408203125"><ele></ele><time>2020-9-19T9:28:33Z</time></trkpt>
<trkpt lat="46.30230157636106014251708984375" lon="7.49337642453610897064208984375"><ele></ele><time>2020-9-19T9:28:36Z</time></trkpt>
<trkpt lat="46.30232303403317928314208984375" lon="7.49339486472308635711669921875"><ele></ele><time>2020-9-19T9:28:39Z</time></trkpt>
<trkpt lat="46.3023434020578861236572265625" lon="7.49340978451073169708251953125"><ele></ele><time>2020-9-19T9:28:42Z</time></trkpt>
<trkpt lat="46.30236460827291011810302734375" lon="7.49342286027967929840087890625"><ele></ele><time>2020-9-19T9:28:45Z</time></trkpt>
<trkpt lat="46.3023853115737438201904296875" lon="7.49343509785830974578857421875"><ele></ele><time>2020-9-19T9:28:48Z</time></trkpt>
<trkpt lat="46.30240668542683124542236328125" lon="7.4934497661888599395751953125"><ele></ele><time>2020-9-19T9:28:51Z</time></trkpt>
<trkpt lat="46.302426718175411224365234375" lon="7.4934658594429492950439453125"><ele></ele><time>2020-9-19T9:28:54Z</time></trkpt>
<trkpt lat="46.30244540981948375701904296875" lon="7.49348371289670467376708984375"><ele></ele><time>2020-9-19T9:28:57Z</time></trkpt>
<trkpt lat="46.3024641014635562896728515625" lon="7.49350265599787235260009765625"><ele></ele><time>2020-9-19T9:29:0Z</time></trkpt>
<trkpt lat="46.302482374012470245361328125" lon="7.49352344311773777008056640625"><ele></ele><time>2020-9-19T9:29:3Z</time></trkpt>
<trkpt lat="46.30250056274235248565673828125" lon="7.4935459904372692108154296875"><ele></ele><time>2020-9-19T9:29:6Z</time></trkpt>
<trkpt lat="46.30251665599644184112548828125" lon="7.4935687892138957977294921875"><ele></ele><time>2020-9-19T9:29:9Z</time></trkpt>
<trkpt lat="46.30253191106021404266357421875" lon="7.49359167180955410003662109375"><ele></ele><time>2020-9-19T9:29:12Z</time></trkpt>
<trkpt lat="46.30255135707557201385498046875" lon="7.4936110340058803558349609375"><ele></ele><time>2020-9-19T9:29:15Z</time></trkpt>
<trkpt lat="46.3025690428912639617919921875" lon="7.49362771399319171905517578125"><ele></ele><time>2020-9-19T9:29:18Z</time></trkpt>
<trkpt lat="46.30258605815470218658447265625" lon="7.49364472925662994384765625"><ele></ele><time>2020-9-19T9:29:21Z</time></trkpt>
<trkpt lat="46.30260332487523555755615234375" lon="7.493663169443607330322265625"><ele></ele><time>2020-9-19T9:29:24Z</time></trkpt>
<trkpt lat="46.302619837224483489990234375" lon="7.4936775863170623779296875"><ele></ele><time>2020-9-19T9:29:27Z</time></trkpt>
<trkpt lat="46.30263785831630229949951171875" lon="7.49368990771472454071044921875"><ele></ele><time>2020-9-19T9:29:30Z</time></trkpt>
<trkpt lat="46.30265512503683567047119140625" lon="7.49370373785495758056640625"><ele></ele><time>2020-9-19T9:29:33Z</time></trkpt>
<trkpt lat="46.3026743195950984954833984375" lon="7.4937186576426029205322265625"><ele></ele><time>2020-9-19T9:29:36Z</time></trkpt>
<trkpt lat="46.30269217304885387420654296875" lon="7.493733577430248260498046875"><ele></ele><time>2020-9-19T9:29:39Z</time></trkpt>
<trkpt lat="46.30271027795970439910888671875" lon="7.49374723993241786956787109375"><ele></ele><time>2020-9-19T9:29:42Z</time></trkpt>
<trkpt lat="46.30272922106087207794189453125" lon="7.49375981278717517852783203125"><ele></ele><time>2020-9-19T9:29:45Z</time></trkpt>
<trkpt lat="46.30274782888591289520263671875" lon="7.49377305619418621063232421875"><ele></ele><time>2020-9-19T9:29:48Z</time></trkpt>
<trkpt lat="46.30276744253933429718017578125" lon="7.49378713779151439666748046875"><ele></ele><time>2020-9-19T9:29:51Z</time></trkpt>
<trkpt lat="46.3027879782021045684814453125" lon="7.49379853717982769012451171875"><ele></ele><time>2020-9-19T9:29:54Z</time></trkpt>
<trkpt lat="46.30280801095068454742431640625" lon="7.493812032043933868408203125"><ele></ele><time>2020-9-19T9:29:57Z</time></trkpt>
<trkpt lat="46.30282527767121791839599609375" lon="7.493825443089008331298828125"><ele></ele><time>2020-9-19T9:30:0Z</time></trkpt>
<trkpt lat="46.3028426282107830047607421875" lon="7.49383726157248020172119140625"><ele></ele><time>2020-9-19T9:30:3Z</time></trkpt>
<trkpt lat="46.302861906588077545166015625" lon="7.4938470683991909027099609375"><ele></ele><time>2020-9-19T9:30:6Z</time></trkpt>
<trkpt lat="46.30288110114634037017822265625" lon="7.49385653994977474212646484375"><ele></ele><time>2020-9-19T9:30:9Z</time></trkpt>
<trkpt lat="46.3028996251523494720458984375" lon="7.49386810697615146636962890625"><ele></ele><time>2020-9-19T9:30:12Z</time></trkpt>
<trkpt lat="46.30291563458740711212158203125" lon="7.493880093097686767578125"><ele></ele><time>2020-9-19T9:30:15Z</time></trkpt>
<trkpt lat="46.30293088965117931365966796875" lon="7.49389149248600006103515625"><ele></ele><time>2020-9-19T9:30:18Z</time></trkpt>
<trkpt lat="46.302947737276554107666015625" lon="7.4938997067511081695556640625"><ele></ele><time>2020-9-19T9:30:21Z</time></trkpt>
<trkpt lat="46.30296659655869007110595703125" lon="7.49390750192105770111083984375"><ele></ele><time>2020-9-19T9:30:24Z</time></trkpt>
<trkpt lat="46.3029854558408260345458984375" lon="7.49391471035778522491455078125"><ele></ele><time>2020-9-19T9:30:27Z</time></trkpt>
<trkpt lat="46.3030028901994228363037109375" lon="7.49392074532806873321533203125"><ele></ele><time>2020-9-19T9:30:30Z</time></trkpt>
<trkpt lat="46.303018815815448760986328125" lon="7.49392359517514705657958984375"><ele></ele><time>2020-9-19T9:30:33Z</time></trkpt>
<trkpt lat="46.30303323268890380859375" lon="7.49392292462289333343505859375"><ele></ele><time>2020-9-19T9:30:36Z</time></trkpt>
<trkpt lat="46.30304622463881969451904296875" lon="7.49392108060419559478759765625"><ele></ele><time>2020-9-19T9:30:39Z</time></trkpt>
<trkpt lat="46.3030568696558475494384765625" lon="7.49392124824225902557373046875"><ele></ele><time>2020-9-19T9:30:42Z</time></trkpt>
<trkpt lat="46.30306818522512912750244140625" lon="7.4939216673374176025390625"><ele></ele><time>2020-9-19T9:30:45Z</time></trkpt>
<trkpt lat="46.3030823506414890289306640625" lon="7.493922673165798187255859375"><ele></ele><time>2020-9-19T9:30:48Z</time></trkpt>
<trkpt lat="46.3030954264104366302490234375" lon="7.49392342753708362579345703125"><ele></ele><time>2020-9-19T9:30:51Z</time></trkpt>
<trkpt lat="46.303110010921955108642578125" lon="7.49391990713775157928466796875"><ele></ele><time>2020-9-19T9:30:54Z</time></trkpt>
<trkpt lat="46.3031262718141078948974609375" lon="7.49391521327197551727294921875"><ele></ele><time>2020-9-19T9:30:57Z</time></trkpt>
<trkpt lat="46.30314253270626068115234375" lon="7.4939127825200557708740234375"><ele></ele><time>2020-9-19T9:31:0Z</time></trkpt>
<trkpt lat="46.3031594641506671905517578125" lon="7.4939127825200557708740234375"><ele></ele><time>2020-9-19T9:31:3Z</time></trkpt>
<trkpt lat="46.303176395595073699951171875" lon="7.4939101003110408782958984375"><ele></ele><time>2020-9-19T9:31:6Z</time></trkpt>
<trkpt lat="46.30319123156368732452392578125" lon="7.49390616081655025482177734375"><ele></ele><time>2020-9-19T9:31:9Z</time></trkpt>
<trkpt lat="46.30320732481777667999267578125" lon="7.49390129931271076202392578125"><ele></ele><time>2020-9-19T9:31:12Z</time></trkpt>
<trkpt lat="46.30322459153831005096435546875" lon="7.4938936717808246612548828125"><ele></ele><time>2020-9-19T9:31:15Z</time></trkpt>
<trkpt lat="46.30324420519173145294189453125" lon="7.49388738535344600677490234375"><ele></ele><time>2020-9-19T9:31:18Z</time></trkpt>
<trkpt lat="46.3032620586454868316650390625" lon="7.49387866817414760589599609375"><ele></ele><time>2020-9-19T9:31:21Z</time></trkpt>
<trkpt lat="46.30327806808054447174072265625" lon="7.49387196265161037445068359375"><ele></ele><time>2020-9-19T9:31:24Z</time></trkpt>
<trkpt lat="46.303294412791728973388671875" lon="7.4938651733100414276123046875"><ele></ele><time>2020-9-19T9:31:27Z</time></trkpt>
<trkpt lat="46.30331218242645263671875" lon="7.49385888688266277313232421875"><ele></ele><time>2020-9-19T9:31:30Z</time></trkpt>
<trkpt lat="46.303325593471527099609375" lon="7.49385469593107700347900390625"><ele></ele><time>2020-9-19T9:31:33Z</time></trkpt>
<trkpt lat="46.30333757959306240081787109375" lon="7.4938487447798252105712890625"><ele></ele><time>2020-9-19T9:31:36Z</time></trkpt>
<trkpt lat="46.303354091942310333251953125" lon="7.49384279362857341766357421875"><ele></ele><time>2020-9-19T9:31:39Z</time></trkpt>
<trkpt lat="46.30336808972060680389404296875" lon="7.49383742921054363250732421875"><ele></ele><time>2020-9-19T9:31:42Z</time></trkpt>
<trkpt lat="46.30338191986083984375" lon="7.49383357353508472442626953125"><ele></ele><time>2020-9-19T9:31:45Z</time></trkpt>
<trkpt lat="46.30339792929589748382568359375" lon="7.49382887966930866241455078125"><ele></ele><time>2020-9-19T9:31:48Z</time></trkpt>
<trkpt lat="46.30341502837836742401123046875" lon="7.4938232637941837310791015625"><ele></ele><time>2020-9-19T9:31:51Z</time></trkpt>
<trkpt lat="46.3034333847463130950927734375" lon="7.4938172288239002227783203125"><ele></ele><time>2020-9-19T9:31:54Z</time></trkpt>
<trkpt lat="46.30345123820006847381591796875" lon="7.493812032043933868408203125"><ele></ele><time>2020-9-19T9:31:57Z</time></trkpt>
<trkpt lat="46.30346632562577724456787109375" lon="7.4938051588833332061767578125"><ele></ele><time>2020-9-19T9:32:0Z</time></trkpt>
<trkpt lat="46.30348174832761287689208984375" lon="7.4937987886369228363037109375"><ele></ele><time>2020-9-19T9:32:3Z</time></trkpt>
<trkpt lat="46.3034990988671779632568359375" lon="7.49379283748567104339599609375"><ele></ele><time>2020-9-19T9:32:6Z</time></trkpt>
<trkpt lat="46.30351862870156764984130859375" lon="7.49378546141088008880615234375"><ele></ele><time>2020-9-19T9:32:9Z</time></trkpt>
<trkpt lat="46.30353681743144989013671875" lon="7.4937759898602962493896484375"><ele></ele><time>2020-9-19T9:32:12Z</time></trkpt>
<trkpt lat="46.3035560958087444305419921875" lon="7.4937660992145538330078125"><ele></ele><time>2020-9-19T9:32:15Z</time></trkpt>
<trkpt lat="46.3035768829286098480224609375" lon="7.49375998042523860931396484375"><ele></ele><time>2020-9-19T9:32:18Z</time></trkpt>
<trkpt lat="46.30359582602977752685546875" lon="7.493753023445606231689453125"><ele></ele><time>2020-9-19T9:32:21Z</time></trkpt>
<trkpt lat="46.303616948425769805908203125" lon="7.4937500059604644775390625"><ele></ele><time>2020-9-19T9:32:24Z</time></trkpt>
<trkpt lat="46.30363798700273036956787109375" lon="7.493746988475322723388671875"><ele></ele><time>2020-9-19T9:32:27Z</time></trkpt>
<trkpt lat="46.30365927703678607940673828125" lon="7.4937427975237369537353515625"><ele></ele><time>2020-9-19T9:32:30Z</time></trkpt>
<trkpt lat="46.303680650889873504638671875" lon="7.4937370978295803070068359375"><ele></ele><time>2020-9-19T9:32:33Z</time></trkpt>
<trkpt lat="46.3037012703716754913330078125" lon="7.49373030848801136016845703125"><ele></ele><time>2020-9-19T9:32:36Z</time></trkpt>
<trkpt lat="46.303722225129604339599609375" lon="7.49372519552707672119140625"><ele></ele><time>2020-9-19T9:32:39Z</time></trkpt>
<trkpt lat="46.30374141968786716461181640625" lon="7.4937203340232372283935546875"><ele></ele><time>2020-9-19T9:32:42Z</time></trkpt>
<trkpt lat="46.30376153625547885894775390625" lon="7.49371656216681003570556640625"><ele></ele><time>2020-9-19T9:32:45Z</time></trkpt>
<trkpt lat="46.30378148518502712249755859375" lon="7.493711449205875396728515625"><ele></ele><time>2020-9-19T9:32:48Z</time></trkpt>
<trkpt lat="46.30379967391490936279296875" lon="7.49370650388300418853759765625"><ele></ele><time>2020-9-19T9:32:51Z</time></trkpt>
<trkpt lat="46.3038182817399501800537109375" lon="7.4937025643885135650634765625"><ele></ele><time>2020-9-19T9:32:54Z</time></trkpt>
<trkpt lat="46.30383697338402271270751953125" lon="7.4936971999704837799072265625"><ele></ele><time>2020-9-19T9:32:57Z</time></trkpt>
<trkpt lat="46.30385600030422210693359375" lon="7.4936918355524539947509765625"><ele></ele><time>2020-9-19T9:33:0Z</time></trkpt>
<trkpt lat="46.3038741052150726318359375" lon="7.4936874769628047943115234375"><ele></ele><time>2020-9-19T9:33:3Z</time></trkpt>
<trkpt lat="46.3038937188684940338134765625" lon="7.49368621967732906341552734375"><ele></ele><time>2020-9-19T9:33:6Z</time></trkpt>
<trkpt lat="46.3039138354361057281494140625" lon="7.49368605203926563262939453125"><ele></ele><time>2020-9-19T9:33:9Z</time></trkpt>
<trkpt lat="46.30393445491790771484375" lon="7.49368487857282161712646484375"><ele></ele><time>2020-9-19T9:33:12Z</time></trkpt>
<trkpt lat="46.30395566113293170928955078125" lon="7.49368496239185333251953125"><ele></ele><time>2020-9-19T9:33:15Z</time></trkpt>
<trkpt lat="46.30397535860538482666015625" lon="7.49368806369602680206298828125"><ele></ele><time>2020-9-19T9:33:18Z</time></trkpt>
<trkpt lat="46.30399421788752079010009765625" lon="7.4936928413808345794677734375"><ele></ele><time>2020-9-19T9:33:21Z</time></trkpt>
<trkpt lat="46.30401148460805416107177734375" lon="7.49369560740888118743896484375"><ele></ele><time>2020-9-19T9:33:24Z</time></trkpt>
<trkpt lat="46.304028667509555816650390625" lon="7.4936990439891815185546875"><ele></ele><time>2020-9-19T9:33:27Z</time></trkpt>
<trkpt lat="46.304047442972660064697265625" lon="7.493703402578830718994140625"><ele></ele><time>2020-9-19T9:33:30Z</time></trkpt>
<trkpt lat="46.3040660507977008819580078125" lon="7.49371170066297054290771484375"><ele></ele><time>2020-9-19T9:33:33Z</time></trkpt>
<trkpt lat="46.30408524535596370697021484375" lon="7.49372326768934726715087890625"><ele></ele><time>2020-9-19T9:33:36Z</time></trkpt>
<trkpt lat="46.30410301499068737030029296875" lon="7.49373190104961395263671875"><ele></ele><time>2020-9-19T9:33:39Z</time></trkpt>
<trkpt lat="46.3041208684444427490234375" lon="7.4937404505908489227294921875"><ele></ele><time>2020-9-19T9:33:42Z</time></trkpt>
<trkpt lat="46.3041396439075469970703125" lon="7.4937474913895130157470703125"><ele></ele><time>2020-9-19T9:33:45Z</time></trkpt>
<trkpt lat="46.30415766499936580657958984375" lon="7.49375478364527225494384765625"><ele></ele><time>2020-9-19T9:33:48Z</time></trkpt>
<trkpt lat="46.304174847900867462158203125" lon="7.49376417137682437896728515625"><ele></ele><time>2020-9-19T9:33:51Z</time></trkpt>
<trkpt lat="46.3041924498975276947021484375" lon="7.49377372674643993377685546875"><ele></ele><time>2020-9-19T9:33:54Z</time></trkpt>
<trkpt lat="46.3042093813419342041015625" lon="7.49378512613475322723388671875"><ele></ele><time>2020-9-19T9:33:57Z</time></trkpt>
<trkpt lat="46.30422790534794330596923828125" lon="7.4937961064279079437255859375"><ele></ele><time>2020-9-19T9:34:0Z</time></trkpt>
<trkpt lat="46.30424399860203266143798828125" lon="7.4938085116446018218994140625"><ele></ele><time>2020-9-19T9:34:3Z</time></trkpt>
<trkpt lat="46.30425942130386829376220703125" lon="7.49381748028099536895751953125"><ele></ele><time>2020-9-19T9:34:6Z</time></trkpt>
<trkpt lat="46.304275430738925933837890625" lon="7.4938279576599597930908203125"><ele></ele><time>2020-9-19T9:34:9Z</time></trkpt>
<trkpt lat="46.3042900152504444122314453125" lon="7.4938417039811611175537109375"><ele></ele><time>2020-9-19T9:34:12Z</time></trkpt>
<trkpt lat="46.3043040968477725982666015625" lon="7.4938594736158847808837890625"><ele></ele><time>2020-9-19T9:34:15Z</time></trkpt>
<trkpt lat="46.30431876517832279205322265625" lon="7.4938772432506084442138671875"><ele></ele><time>2020-9-19T9:34:18Z</time></trkpt>
<trkpt lat="46.30433209240436553955078125" lon="7.49389207921922206878662109375"><ele></ele><time>2020-9-19T9:34:21Z</time></trkpt>
<trkpt lat="46.30434776656329631805419921875" lon="7.49390222132205963134765625"><ele></ele><time>2020-9-19T9:34:24Z</time></trkpt>
<trkpt lat="46.30436184816062450408935546875" lon="7.4939131177961826324462890625"><ele></ele><time>2020-9-19T9:34:27Z</time></trkpt>
<trkpt lat="46.304374001920223236083984375" lon="7.49392912723124027252197265625"><ele></ele><time>2020-9-19T9:34:30Z</time></trkpt>
<trkpt lat="46.30438439548015594482421875" lon="7.49394387938082218170166015625"><ele></ele><time>2020-9-19T9:34:33Z</time></trkpt>
<trkpt lat="46.3043956272304058074951171875" lon="7.49395879916846752166748046875"><ele></ele><time>2020-9-19T9:34:36Z</time></trkpt>
<trkpt lat="46.30440719425678253173828125" lon="7.49397321604192256927490234375"><ele></ele><time>2020-9-19T9:34:39Z</time></trkpt>
<trkpt lat="46.30441733635962009429931640625" lon="7.49399081803858280181884765625"><ele></ele><time>2020-9-19T9:34:42Z</time></trkpt>
<trkpt lat="46.30442940630018711090087890625" lon="7.49400640837848186492919921875"><ele></ele><time>2020-9-19T9:34:45Z</time></trkpt>
<trkpt lat="46.30443862639367580413818359375" lon="7.49402116052806377410888671875"><ele></ele><time>2020-9-19T9:34:48Z</time></trkpt>
<trkpt lat="46.30444885231554508209228515625" lon="7.49403641559183597564697265625"><ele></ele><time>2020-9-19T9:34:51Z</time></trkpt>
<trkpt lat="46.30446025170385837554931640625" lon="7.49405049718916416168212890625"><ele></ele><time>2020-9-19T9:34:54Z</time></trkpt>
<trkpt lat="46.30447148345410823822021484375" lon="7.49406457878649234771728515625"><ele></ele><time>2020-9-19T9:34:57Z</time></trkpt>
<trkpt lat="46.30448154173791408538818359375" lon="7.49407681636512279510498046875"><ele></ele><time>2020-9-19T9:35:0Z</time></trkpt>
<trkpt lat="46.304492019116878509521484375" lon="7.49408989213407039642333984375"><ele></ele><time>2020-9-19T9:35:3Z</time></trkpt>
<trkpt lat="46.304502747952938079833984375" lon="7.4941025488078594207763671875"><ele></ele><time>2020-9-19T9:35:6Z</time></trkpt>
<trkpt lat="46.3045129738748073577880859375" lon="7.49411520548164844512939453125"><ele></ele><time>2020-9-19T9:35:9Z</time></trkpt>
<trkpt lat="46.30452143959701061248779296875" lon="7.49412425793707370758056640625"><ele></ele><time>2020-9-19T9:35:12Z</time></trkpt>
<trkpt lat="46.30453233607113361358642578125" lon="7.4941320531070232391357421875"><ele></ele><time>2020-9-19T9:35:15Z</time></trkpt>
<trkpt lat="46.30454390309751033782958984375" lon="7.49414286576211452484130859375"><ele></ele><time>2020-9-19T9:35:18Z</time></trkpt>
<trkpt lat="46.304554045200347900390625" lon="7.494155354797840118408203125"><ele></ele><time>2020-9-19T9:35:21Z</time></trkpt>
<trkpt lat="46.3045634329319000244140625" lon="7.49416683800518512725830078125"><ele></ele><time>2020-9-19T9:35:24Z</time></trkpt>
<trkpt lat="46.30457458086311817169189453125" lon="7.49418192543089389801025390625"><ele></ele><time>2020-9-19T9:35:27Z</time></trkpt>
<trkpt lat="46.30458514206111431121826171875" lon="7.49419919215142726898193359375"><ele></ele><time>2020-9-19T9:35:30Z</time></trkpt>
<trkpt lat="46.30459302105009555816650390625" lon="7.49422115273773670196533203125"><ele></ele><time>2020-9-19T9:35:33Z</time></trkpt>
<trkpt lat="46.3045981340110301971435546875" lon="7.4942457117140293121337890625"><ele></ele><time>2020-9-19T9:35:36Z</time></trkpt>
<trkpt lat="46.30460978485643863677978515625" lon="7.49426607973873615264892578125"><ele></ele><time>2020-9-19T9:35:39Z</time></trkpt>
<trkpt lat="46.304620094597339630126953125" lon="7.4942872859537601470947265625"><ele></ele><time>2020-9-19T9:35:42Z</time></trkpt>
<trkpt lat="46.30462973378598690032958984375" lon="7.494303546845912933349609375"><ele></ele><time>2020-9-19T9:35:45Z</time></trkpt>
<trkpt lat="46.30464146845042705535888671875" lon="7.49431821517646312713623046875"><ele></ele><time>2020-9-19T9:35:48Z</time></trkpt>
<trkpt lat="46.3046541251242160797119140625" lon="7.49433347024023532867431640625"><ele></ele><time>2020-9-19T9:35:51Z</time></trkpt>
<trkpt lat="46.3046680390834808349609375" lon="7.49435023404657840728759765625"><ele></ele><time>2020-9-19T9:35:54Z</time></trkpt>
<trkpt lat="46.3046787679195404052734375" lon="7.494369931519031524658203125"><ele></ele><time>2020-9-19T9:35:57Z</time></trkpt>
<trkpt lat="46.3046910054981708526611328125" lon="7.494390718638896942138671875"><ele></ele><time>2020-9-19T9:36:0Z</time></trkpt>
<trkpt lat="46.30470600910484790802001953125" lon="7.49440873973071575164794921875"><ele></ele><time>2020-9-19T9:36:3Z</time></trkpt>
<trkpt lat="46.30472076125442981719970703125" lon="7.4944286048412322998046875"><ele></ele><time>2020-9-19T9:36:6Z</time></trkpt>
<trkpt lat="46.30473752506077289581298828125" lon="7.4944435246288776397705078125"><ele></ele><time>2020-9-19T9:36:9Z</time></trkpt>
<trkpt lat="46.3047537021338939666748046875" lon="7.49445936642587184906005859375"><ele></ele><time>2020-9-19T9:36:12Z</time></trkpt>
<trkpt lat="46.30477004684507846832275390625" lon="7.49447680078446865081787109375"><ele></ele><time>2020-9-19T9:36:15Z</time></trkpt>
<trkpt lat="46.3047832064330577850341796875" lon="7.49449825845658779144287109375"><ele></ele><time>2020-9-19T9:36:18Z</time></trkpt>
<trkpt lat="46.3047989644110202789306640625" lon="7.49451686628162860870361328125"><ele></ele><time>2020-9-19T9:36:21Z</time></trkpt>
<trkpt lat="46.304815225303173065185546875" lon="7.49453731812536716461181640625"><ele></ele><time>2020-9-19T9:36:24Z</time></trkpt>
<trkpt lat="46.30483157001435756683349609375" lon="7.49455693177878856658935546875"><ele></ele><time>2020-9-19T9:36:27Z</time></trkpt>
<trkpt lat="46.30484531633555889129638671875" lon="7.49457537196576595306396484375"><ele></ele><time>2020-9-19T9:36:30Z</time></trkpt>
<trkpt lat="46.30486057139933109283447265625" lon="7.4945923872292041778564453125"><ele></ele><time>2020-9-19T9:36:33Z</time></trkpt>
<trkpt lat="46.3048770837485790252685546875" lon="7.494608648121356964111328125"><ele></ele><time>2020-9-19T9:36:36Z</time></trkpt>
<trkpt lat="46.3048931770026683807373046875" lon="7.494624741375446319580078125"><ele></ele><time>2020-9-19T9:36:39Z</time></trkpt>
<trkpt lat="46.30490818060934543609619140625" lon="7.494642175734043121337890625"><ele></ele><time>2020-9-19T9:36:42Z</time></trkpt>
<trkpt lat="46.30492645315825939178466796875" lon="7.4946594424545764923095703125"><ele></ele><time>2020-9-19T9:36:45Z</time></trkpt>
<trkpt lat="46.3049431331455707550048828125" lon="7.49468014575541019439697265625"><ele></ele><time>2020-9-19T9:36:48Z</time></trkpt>
<trkpt lat="46.30496316589415073394775390625" lon="7.49469690956175327301025390625"><ele></ele><time>2020-9-19T9:36:51Z</time></trkpt>
<trkpt lat="46.30498227663338184356689453125" lon="7.49471199698746204376220703125"><ele></ele><time>2020-9-19T9:36:54Z</time></trkpt>
<trkpt lat="46.3050021417438983917236328125" lon="7.4947258271276950836181640625"><ele></ele><time>2020-9-19T9:36:57Z</time></trkpt>
<trkpt lat="46.30502016283571720123291015625" lon="7.49474267475306987762451171875"><ele></ele><time>2020-9-19T9:37:0Z</time></trkpt>
<trkpt lat="46.30503776483237743377685546875" lon="7.494758851826190948486328125"><ele></ele><time>2020-9-19T9:37:3Z</time></trkpt>
<trkpt lat="46.3050537742674350738525390625" lon="7.49477720819413661956787109375"><ele></ele><time>2020-9-19T9:37:6Z</time></trkpt>
<trkpt lat="46.30506969988346099853515625" lon="7.4947960674762725830078125"><ele></ele><time>2020-9-19T9:37:9Z</time></trkpt>
<trkpt lat="46.3050826080143451690673828125" lon="7.49481392093002796173095703125"><ele></ele><time>2020-9-19T9:37:12Z</time></trkpt>
<trkpt lat="46.30509761162102222442626953125" lon="7.494830600917339324951171875"><ele></ele><time>2020-9-19T9:37:15Z</time></trkpt>
<trkpt lat="46.30511219613254070281982421875" lon="7.49484778381884098052978515625"><ele></ele><time>2020-9-19T9:37:18Z</time></trkpt>
<trkpt lat="46.3051245175302028656005859375" lon="7.49486857093870639801025390625"><ele></ele><time>2020-9-19T9:37:21Z</time></trkpt>
<trkpt lat="46.30513449199497699737548828125" lon="7.4948944710195064544677734375"><ele></ele><time>2020-9-19T9:37:24Z</time></trkpt>
<trkpt lat="46.3051459752023220062255859375" lon="7.49491752125322818756103515625"><ele></ele><time>2020-9-19T9:37:27Z</time></trkpt>
<trkpt lat="46.3051562011241912841796875" lon="7.4949454329907894134521484375"><ele></ele><time>2020-9-19T9:37:30Z</time></trkpt>
<trkpt lat="46.3051630742847919464111328125" lon="7.49497401528060436248779296875"><ele></ele><time>2020-9-19T9:37:33Z</time></trkpt>
<trkpt lat="46.30517120473086833953857421875" lon="7.49499865807592868804931640625"><ele></ele><time>2020-9-19T9:37:36Z</time></trkpt>
<trkpt lat="46.3051815144717693328857421875" lon="7.495021708309650421142578125"><ele></ele><time>2020-9-19T9:37:39Z</time></trkpt>
<trkpt lat="46.30519417114555835723876953125" lon="7.49504324980080127716064453125"><ele></ele><time>2020-9-19T9:37:42Z</time></trkpt>
<trkpt lat="46.30520557053387165069580078125" lon="7.4950674735009670257568359375"><ele></ele><time>2020-9-19T9:37:45Z</time></trkpt>
<trkpt lat="46.3052170537412166595458984375" lon="7.49509119428694248199462890625"><ele></ele><time>2020-9-19T9:37:48Z</time></trkpt>
<trkpt lat="46.3052304647862911224365234375" lon="7.495113573968410491943359375"><ele></ele><time>2020-9-19T9:37:51Z</time></trkpt>
<trkpt lat="46.3052472285926342010498046875" lon="7.49512933194637298583984375"><ele></ele><time>2020-9-19T9:37:54Z</time></trkpt>
<trkpt lat="46.30526483058929443359375" lon="7.49514676630496978759765625"><ele></ele><time>2020-9-19T9:37:57Z</time></trkpt>
<trkpt lat="46.30527983419597148895263671875" lon="7.49516378156840801239013671875"><ele></ele><time>2020-9-19T9:38:0Z</time></trkpt>
<trkpt lat="46.3052961789071559906005859375" lon="7.49518088065087795257568359375"><ele></ele><time>2020-9-19T9:38:3Z</time></trkpt>
<trkpt lat="46.30531470291316509246826171875" lon="7.49519647099077701568603515625"><ele></ele><time>2020-9-19T9:38:6Z</time></trkpt>
<trkpt lat="46.30533163435757160186767578125" lon="7.49521189369261264801025390625"><ele></ele><time>2020-9-19T9:38:9Z</time></trkpt>
<trkpt lat="46.30535066127777099609375" lon="7.49522262252867221832275390625"><ele></ele><time>2020-9-19T9:38:12Z</time></trkpt>
<trkpt lat="46.3053680956363677978515625" lon="7.49523620121181011199951171875"><ele></ele><time>2020-9-19T9:38:15Z</time></trkpt>
<trkpt lat="46.3053843565285205841064453125" lon="7.4952485226094722747802734375"><ele></ele><time>2020-9-19T9:38:18Z</time></trkpt>
<trkpt lat="46.30540204234421253204345703125" lon="7.4952589161694049835205078125"><ele></ele><time>2020-9-19T9:38:21Z</time></trkpt>
<trkpt lat="46.305420063436031341552734375" lon="7.49527106992900371551513671875"><ele></ele><time>2020-9-19T9:38:24Z</time></trkpt>
<trkpt lat="46.3054316304624080657958984375" lon="7.49528397805988788604736328125"><ele></ele><time>2020-9-19T9:38:27Z</time></trkpt>
<trkpt lat="46.3054453767836093902587890625" lon="7.4952949583530426025390625"><ele></ele><time>2020-9-19T9:38:30Z</time></trkpt>
<trkpt lat="46.30545836873352527618408203125" lon="7.4953082017600536346435546875"><ele></ele><time>2020-9-19T9:38:33Z</time></trkpt>
<trkpt lat="46.30547144450247287750244140625" lon="7.49531985260546207427978515625"><ele></ele><time>2020-9-19T9:38:36Z</time></trkpt>
<trkpt lat="46.30548753775656223297119140625" lon="7.49532781541347503662109375"><ele></ele><time>2020-9-19T9:38:39Z</time></trkpt>
<trkpt lat="46.30550262518227100372314453125" lon="7.49534063972532749176025390625"><ele></ele><time>2020-9-19T9:38:42Z</time></trkpt>
<trkpt lat="46.30551838316023349761962890625" lon="7.49535254202783107757568359375"><ele></ele><time>2020-9-19T9:38:45Z</time></trkpt>
<trkpt lat="46.305534727871417999267578125" lon="7.49536360614001750946044921875"><ele></ele><time>2020-9-19T9:38:48Z</time></trkpt>
<trkpt lat="46.30555073730647563934326171875" lon="7.49537684954702854156494140625"><ele></ele><time>2020-9-19T9:38:51Z</time></trkpt>
<trkpt lat="46.305567584931850433349609375" lon="7.49539126642048358917236328125"><ele></ele><time>2020-9-19T9:38:54Z</time></trkpt>
<trkpt lat="46.3055838458240032196044921875" lon="7.495409287512302398681640625"><ele></ele><time>2020-9-19T9:38:57Z</time></trkpt>
<trkpt lat="46.30559834651648998260498046875" lon="7.495430074632167816162109375"><ele></ele><time>2020-9-19T9:39:0Z</time></trkpt>
<trkpt lat="46.30561418831348419189453125" lon="7.4954473413527011871337890625"><ele></ele><time>2020-9-19T9:39:3Z</time></trkpt>
<trkpt lat="46.30562852136790752410888671875" lon="7.49547106213867664337158203125"><ele></ele><time>2020-9-19T9:39:6Z</time></trkpt>
<trkpt lat="46.30564427934587001800537109375" lon="7.49549235217273235321044921875"><ele></ele><time>2020-9-19T9:39:9Z</time></trkpt>
<trkpt lat="46.30566288717091083526611328125" lon="7.49550961889326572418212890625"><ele></ele><time>2020-9-19T9:39:12Z</time></trkpt>
<trkpt lat="46.30568082444369792938232421875" lon="7.4955247901380062103271484375"><ele></ele><time>2020-9-19T9:39:15Z</time></trkpt>
<trkpt lat="46.30569876171648502349853515625" lon="7.49553970992565155029296875"><ele></ele><time>2020-9-19T9:39:18Z</time></trkpt>
<trkpt lat="46.3057189621031284332275390625" lon="7.49555471353232860565185546875"><ele></ele><time>2020-9-19T9:39:21Z</time></trkpt>
<trkpt lat="46.30573731847107410430908203125" lon="7.49557080678641796112060546875"><ele></ele><time>2020-9-19T9:39:24Z</time></trkpt>
<trkpt lat="46.3057521544396877288818359375" lon="7.4955884926021099090576171875"><ele></ele><time>2020-9-19T9:39:27Z</time></trkpt>
<trkpt lat="46.305770762264728546142578125" lon="7.49560550786554813385009765625"><ele></ele><time>2020-9-19T9:39:30Z</time></trkpt>
<trkpt lat="46.30578693933784961700439453125" lon="7.49562411569058895111083984375"><ele></ele><time>2020-9-19T9:39:33Z</time></trkpt>
<trkpt lat="46.30580370314419269561767578125" lon="7.4956391192972660064697265625"><ele></ele><time>2020-9-19T9:39:36Z</time></trkpt>
<trkpt lat="46.30582214333117008209228515625" lon="7.4956528656184673309326171875"><ele></ele><time>2020-9-19T9:39:39Z</time></trkpt>
<trkpt lat="46.30583873949944972991943359375" lon="7.49566384591162204742431640625"><ele></ele><time>2020-9-19T9:39:42Z</time></trkpt>
<trkpt lat="46.30585516802966594696044921875" lon="7.4956743232905864715576171875"><ele></ele><time>2020-9-19T9:39:45Z</time></trkpt>
<trkpt lat="46.30587126128375530242919921875" lon="7.49568262137472629547119140625"><ele></ele><time>2020-9-19T9:39:48Z</time></trkpt>
<trkpt lat="46.3058879412710666656494140625" lon="7.49568765051662921905517578125"><ele></ele><time>2020-9-19T9:39:51Z</time></trkpt>
<trkpt lat="46.30590462125837802886962890625" lon="7.4956910870969295501708984375"><ele></ele><time>2020-9-19T9:39:54Z</time></trkpt>
<trkpt lat="46.30592473782598972320556640625" lon="7.495694272220134735107421875"><ele></ele><time>2020-9-19T9:39:57Z</time></trkpt>
<trkpt lat="46.30594217218458652496337890625" lon="7.4956957809627056121826171875"><ele></ele><time>2020-9-19T9:40:0Z</time></trkpt>
<trkpt lat="46.305957846343517303466796875" lon="7.495698630809783935546875"><ele></ele><time>2020-9-19T9:40:3Z</time></trkpt>
<trkpt lat="46.30597435869276523590087890625" lon="7.495699636638164520263671875"><ele></ele><time>2020-9-19T9:40:6Z</time></trkpt>
<trkpt lat="46.3059952296316623687744140625" lon="7.4956998042762279510498046875"><ele></ele><time>2020-9-19T9:40:9Z</time></trkpt>
<trkpt lat="46.30601584911346435546875" lon="7.49569536186754703521728515625"><ele></ele><time>2020-9-19T9:40:12Z</time></trkpt>
<trkpt lat="46.30603571422398090362548828125" lon="7.4956904165446758270263671875"><ele></ele><time>2020-9-19T9:40:15Z</time></trkpt>
<trkpt lat="46.30605700425803661346435546875" lon="7.49568798579275608062744140625"><ele></ele><time>2020-9-19T9:40:18Z</time></trkpt>
<trkpt lat="46.30608164705336093902587890625" lon="7.49568454921245574951171875"><ele></ele><time>2020-9-19T9:40:21Z</time></trkpt>
<trkpt lat="46.30610712803900241851806640625" lon="7.4956798553466796875"><ele></ele><time>2020-9-19T9:40:24Z</time></trkpt>
<trkpt lat="46.306161023676395416259765625" lon="7.49566703103482723236083984375"><ele></ele><time>2020-9-19T9:40:27Z</time></trkpt>
<trkpt lat="46.3062738440930843353271484375" lon="7.49564842320978641510009765625"><ele></ele><time>2020-9-19T9:40:30Z</time></trkpt>
<trkpt lat="46.3063006661832332611083984375" lon="7.49564171768724918365478515625"><ele></ele><time>2020-9-19T9:40:33Z</time></trkpt>
<trkpt lat="46.30635640583932399749755859375" lon="7.49562026001513004302978515625"><ele></ele><time>2020-9-19T9:40:36Z</time></trkpt>
<trkpt lat="46.30638406611979007720947265625" lon="7.4956096149981021881103515625"><ele></ele><time>2020-9-19T9:40:39Z</time></trkpt>
<trkpt lat="46.30641122348606586456298828125" lon="7.4955998919904232025146484375"><ele></ele><time>2020-9-19T9:40:42Z</time></trkpt>
<trkpt lat="46.3064394704997539520263671875" lon="7.49558723531663417816162109375"><ele></ele><time>2020-9-19T9:40:45Z</time></trkpt>
<trkpt lat="46.3064669631421566009521484375" lon="7.495576255023479461669921875"><ele></ele><time>2020-9-19T9:40:48Z</time></trkpt>
<trkpt lat="46.30649470724165439605712890625" lon="7.49556762166321277618408203125"><ele></ele><time>2020-9-19T9:40:51Z</time></trkpt>
<trkpt lat="46.30652211606502532958984375" lon="7.495556809008121490478515625"><ele></ele><time>2020-9-19T9:40:54Z</time></trkpt>
<trkpt lat="46.30654885433614253997802734375" lon="7.4955465830862522125244140625"><ele></ele><time>2020-9-19T9:40:57Z</time></trkpt>
<trkpt lat="46.30657576024532318115234375" lon="7.49553459696471691131591796875"><ele></ele><time>2020-9-19T9:41:0Z</time></trkpt>
<trkpt lat="46.30660266615450382232666015625" lon="7.49552202410995960235595703125"><ele></ele><time>2020-9-19T9:41:3Z</time></trkpt>
<trkpt lat="46.306627057492733001708984375" lon="7.49550526030361652374267578125"><ele></ele><time>2020-9-19T9:41:6Z</time></trkpt>
<trkpt lat="46.3066506944596767425537109375" lon="7.49548581428825855255126953125"><ele></ele><time>2020-9-19T9:41:9Z</time></trkpt>
<trkpt lat="46.30667424760758876800537109375" lon="7.49546502716839313507080078125"><ele></ele><time>2020-9-19T9:41:12Z</time></trkpt>
<trkpt lat="46.3066969625651836395263671875" lon="7.49543988145887851715087890625"><ele></ele><time>2020-9-19T9:41:15Z</time></trkpt>
<trkpt lat="46.30671531893312931060791015625" lon="7.49541188590228557586669921875"><ele></ele><time>2020-9-19T9:41:18Z</time></trkpt>
<trkpt lat="46.30672671832144260406494140625" lon="7.495377771556377410888671875"><ele></ele><time>2020-9-19T9:41:21Z</time></trkpt>
<trkpt lat="46.30673157982528209686279296875" lon="7.4953393824398517608642578125"><ele></ele><time>2020-9-19T9:41:24Z</time></trkpt>
<trkpt lat="46.3067301549017429351806640625" lon="7.49529973603785037994384765625"><ele></ele><time>2020-9-19T9:41:27Z</time></trkpt>
<trkpt lat="46.30672722123563289642333984375" lon="7.49526386149227619171142578125"><ele></ele><time>2020-9-19T9:41:30Z</time></trkpt>
<trkpt lat="46.30672395229339599609375" lon="7.4952337704598903656005859375"><ele></ele><time>2020-9-19T9:41:33Z</time></trkpt>
<trkpt lat="46.30671950988471508026123046875" lon="7.49520619399845600128173828125"><ele></ele><time>2020-9-19T9:41:36Z</time></trkpt>
<trkpt lat="46.30671431310474872589111328125" lon="7.4951787851750850677490234375"><ele></ele><time>2020-9-19T9:41:39Z</time></trkpt>
<trkpt lat="46.306711547076702117919921875" lon="7.49515087343752384185791015625"><ele></ele><time>2020-9-19T9:41:42Z</time></trkpt>
<trkpt lat="46.30670576356351375579833984375" lon="7.49512271024286746978759765625"><ele></ele><time>2020-9-19T9:41:45Z</time></trkpt>
<trkpt lat="46.30670048296451568603515625" lon="7.49509580433368682861328125"><ele></ele><time>2020-9-19T9:41:48Z</time></trkpt>
<trkpt lat="46.30669788457453250885009765625" lon="7.495070993900299072265625"><ele></ele><time>2020-9-19T9:41:51Z</time></trkpt>
<trkpt lat="46.306694783270359039306640625" lon="7.49504618346691131591796875"><ele></ele><time>2020-9-19T9:41:54Z</time></trkpt>
<trkpt lat="46.3066892512142658233642578125" lon="7.49501978047192096710205078125"><ele></ele><time>2020-9-19T9:41:57Z</time></trkpt>
<trkpt lat="46.30668304860591888427734375" lon="7.494993545114994049072265625"><ele></ele><time>2020-9-19T9:42:0Z</time></trkpt>
<trkpt lat="46.306678354740142822265625" lon="7.494967393577098846435546875"><ele></ele><time>2020-9-19T9:42:3Z</time></trkpt>
<trkpt lat="46.30667357705533504486083984375" lon="7.49494233168661594390869140625"><ele></ele><time>2020-9-19T9:42:6Z</time></trkpt>
<trkpt lat="46.30666603334248065948486328125" lon="7.49491752125322818756103515625"><ele></ele><time>2020-9-19T9:42:9Z</time></trkpt>
<trkpt lat="46.30665949545800685882568359375" lon="7.4948944710195064544677734375"><ele></ele><time>2020-9-19T9:42:12Z</time></trkpt>
<trkpt lat="46.306655220687389373779296875" lon="7.49487142078578472137451171875"><ele></ele><time>2020-9-19T9:42:15Z</time></trkpt>
<trkpt lat="46.30665010772645473480224609375" lon="7.49485038220882415771484375"><ele></ele><time>2020-9-19T9:42:18Z</time></trkpt>
<trkpt lat="46.30664306692779064178466796875" lon="7.4948294274508953094482421875"><ele></ele><time>2020-9-19T9:42:21Z</time></trkpt>
<trkpt lat="46.30663585849106311798095703125" lon="7.49480637721717357635498046875"><ele></ele><time>2020-9-19T9:42:24Z</time></trkpt>
<trkpt lat="46.3066302426159381866455078125" lon="7.49478307552635669708251953125"><ele></ele><time>2020-9-19T9:42:27Z</time></trkpt>
<trkpt lat="46.3066238723695278167724609375" lon="7.4947600252926349639892578125"><ele></ele><time>2020-9-19T9:42:30Z</time></trkpt>
<trkpt lat="46.30661725066602230072021484375" lon="7.4947362206876277923583984375"><ele></ele><time>2020-9-19T9:42:33Z</time></trkpt>
<trkpt lat="46.30660903640091419219970703125" lon="7.4947147630155086517333984375"><ele></ele><time>2020-9-19T9:42:36Z</time></trkpt>
<trkpt lat="46.30660484544932842254638671875" lon="7.494692467153072357177734375"><ele></ele><time>2020-9-19T9:42:39Z</time></trkpt>
<trkpt lat="46.306599564850330352783203125" lon="7.49467042274773120880126953125"><ele></ele><time>2020-9-19T9:42:42Z</time></trkpt>
<trkpt lat="46.3065923564136028289794921875" lon="7.4946497194468975067138671875"><ele></ele><time>2020-9-19T9:42:45Z</time></trkpt>
<trkpt lat="46.30658690817654132843017578125" lon="7.494629435241222381591796875"><ele></ele><time>2020-9-19T9:42:48Z</time></trkpt>
<trkpt lat="46.306580789387226104736328125" lon="7.4946104921400547027587890625"><ele></ele><time>2020-9-19T9:42:51Z</time></trkpt>
<trkpt lat="46.30657710134983062744140625" lon="7.494591213762760162353515625"><ele></ele><time>2020-9-19T9:42:54Z</time></trkpt>
<trkpt lat="46.3065724074840545654296875" lon="7.49456942081451416015625"><ele></ele><time>2020-9-19T9:42:57Z</time></trkpt>
<trkpt lat="46.306568048894405364990234375" lon="7.494546957314014434814453125"><ele></ele><time>2020-9-19T9:43:0Z</time></trkpt>
<trkpt lat="46.30656410939991474151611328125" lon="7.49452642165124416351318359375"><ele></ele><time>2020-9-19T9:43:3Z</time></trkpt>
<trkpt lat="46.30655958317220211029052734375" lon="7.49450571835041046142578125"><ele></ele><time>2020-9-19T9:43:6Z</time></trkpt>
<trkpt lat="46.30655405111610889434814453125" lon="7.494484595954418182373046875"><ele></ele><time>2020-9-19T9:43:9Z</time></trkpt>
<trkpt lat="46.30654902197420597076416015625" lon="7.49446573667228221893310546875"><ele></ele><time>2020-9-19T9:43:12Z</time></trkpt>
<trkpt lat="46.30654357373714447021484375" lon="7.49444578774273395538330078125"><ele></ele><time>2020-9-19T9:43:15Z</time></trkpt>
<trkpt lat="46.3065363653004169464111328125" lon="7.49442684464156627655029296875"><ele></ele><time>2020-9-19T9:43:18Z</time></trkpt>
<trkpt lat="46.306529156863689422607421875" lon="7.49440974555909633636474609375"><ele></ele><time>2020-9-19T9:43:21Z</time></trkpt>
<trkpt lat="46.3065226189792156219482421875" lon="7.494390048086643218994140625"><ele></ele><time>2020-9-19T9:43:24Z</time></trkpt>
<trkpt lat="46.30651800893247127532958984375" lon="7.4943684227764606475830078125"><ele></ele><time>2020-9-19T9:43:27Z</time></trkpt>
<trkpt lat="46.306515075266361236572265625" lon="7.49434570781886577606201171875"><ele></ele><time>2020-9-19T9:43:30Z</time></trkpt>
<trkpt lat="46.30651314742863178253173828125" lon="7.494322992861270904541015625"><ele></ele><time>2020-9-19T9:43:33Z</time></trkpt>
<trkpt lat="46.30651230923831462860107421875" lon="7.49429625459015369415283203125"><ele></ele><time>2020-9-19T9:43:36Z</time></trkpt>
<trkpt lat="46.30651197396218776702880859375" lon="7.4942691810429096221923828125"><ele></ele><time>2020-9-19T9:43:39Z</time></trkpt>
<trkpt lat="46.30651096813380718231201171875" lon="7.4942410178482532501220703125"><ele></ele><time>2020-9-19T9:43:42Z</time></trkpt>
<trkpt lat="46.30650845356285572052001953125" lon="7.4942162074148654937744140625"><ele></ele><time>2020-9-19T9:43:45Z</time></trkpt>
<trkpt lat="46.30650862120091915130615234375" lon="7.4941893853247165679931640625"><ele></ele><time>2020-9-19T9:43:48Z</time></trkpt>
<trkpt lat="46.306507028639316558837890625" lon="7.49416180886328220367431640625"><ele></ele><time>2020-9-19T9:43:51Z</time></trkpt>
<trkpt lat="46.3065082021057605743408203125" lon="7.4941310472786426544189453125"><ele></ele><time>2020-9-19T9:43:54Z</time></trkpt>
<trkpt lat="46.306515075266361236572265625" lon="7.49410196207463741302490234375"><ele></ele><time>2020-9-19T9:43:57Z</time></trkpt>
<trkpt lat="46.30653041414916515350341796875" lon="7.4940691888332366943359375"><ele></ele><time>2020-9-19T9:44:0Z</time></trkpt>
<trkpt lat="46.306549943983554840087890625" lon="7.4940425343811511993408203125"><ele></ele><time>2020-9-19T9:44:3Z</time></trkpt>
<trkpt lat="46.30657307803630828857421875" lon="7.49402283690869808197021484375"><ele></ele><time>2020-9-19T9:44:6Z</time></trkpt>
<trkpt lat="46.306596882641315460205078125" lon="7.4940083362162113189697265625"><ele></ele><time>2020-9-19T9:44:9Z</time></trkpt>
<trkpt lat="46.30662295036017894744873046875" lon="7.4939925782382488250732421875"><ele></ele><time>2020-9-19T9:44:12Z</time></trkpt>
<trkpt lat="46.30664977245032787322998046875" lon="7.49397740699350833892822265625"><ele></ele><time>2020-9-19T9:44:15Z</time></trkpt>
<trkpt lat="46.3066756725311279296875" lon="7.49396257102489471435546875"><ele></ele><time>2020-9-19T9:44:18Z</time></trkpt>
<trkpt lat="46.30672722123563289642333984375" lon="7.493930049240589141845703125"><ele></ele><time>2020-9-19T9:44:21Z</time></trkpt>
<trkpt lat="46.30675370804965496063232421875" lon="7.49391353689134120941162109375"><ele></ele><time>2020-9-19T9:44:24Z</time></trkpt>
<trkpt lat="46.30686719901859760284423828125" lon="7.49384363181889057159423828125"><ele></ele><time>2020-9-19T9:44:27Z</time></trkpt>
<trkpt lat="46.30698538385331630706787109375" lon="7.493762075901031494140625"><ele></ele><time>2020-9-19T9:44:30Z</time></trkpt>
<trkpt lat="46.30701472051441669464111328125" lon="7.493740618228912353515625"><ele></ele><time>2020-9-19T9:44:33Z</time></trkpt>
<trkpt lat="46.30713625811040401458740234375" lon="7.493654787540435791015625"><ele></ele><time>2020-9-19T9:44:36Z</time></trkpt>
<trkpt lat="46.3073356635868549346923828125" lon="7.49351237900555133819580078125"><ele></ele><time>2020-9-19T9:44:39Z</time></trkpt>
<trkpt lat="46.3073675148189067840576171875" lon="7.4934873171150684356689453125"><ele></ele><time>2020-9-19T9:44:42Z</time></trkpt>
<trkpt lat="46.30739919841289520263671875" lon="7.493466027081012725830078125"><ele></ele><time>2020-9-19T9:44:45Z</time></trkpt>
<trkpt lat="46.3074288703501224517822265625" lon="7.49344582669436931610107421875"><ele></ele><time>2020-9-19T9:44:48Z</time></trkpt>
<trkpt lat="46.30745351314544677734375" lon="7.493426464498043060302734375"><ele></ele><time>2020-9-19T9:44:51Z</time></trkpt>
<trkpt lat="46.30747773684561252593994140625" lon="7.49340928159654140472412109375"><ele></ele><time>2020-9-19T9:44:54Z</time></trkpt>
<trkpt lat="46.30750103853642940521240234375" lon="7.4933934397995471954345703125"><ele></ele><time>2020-9-19T9:44:57Z</time></trkpt>
<trkpt lat="46.30752333439886569976806640625" lon="7.4933776818215847015380859375"><ele></ele><time>2020-9-19T9:45:0Z</time></trkpt>
<trkpt lat="46.3075411878526210784912109375" lon="7.4933557212352752685546875"><ele></ele><time>2020-9-19T9:45:3Z</time></trkpt>
<trkpt lat="46.307555772364139556884765625" lon="7.49332328327000141143798828125"><ele></ele><time>2020-9-19T9:45:6Z</time></trkpt>
<trkpt lat="46.30756474100053310394287109375" lon="7.49327952973544597625732421875"><ele></ele><time>2020-9-19T9:45:9Z</time></trkpt>
<trkpt lat="46.3075629808008670806884765625" lon="7.493229992687702178955078125"><ele></ele><time>2020-9-19T9:45:12Z</time></trkpt>
<trkpt lat="46.30755082704126834869384765625" lon="7.49318397603929042816162109375"><ele></ele><time>2020-9-19T9:45:15Z</time></trkpt>
<trkpt lat="46.30748234689235687255859375" lon="7.49299270100891590118408203125"><ele></ele><time>2020-9-19T9:45:18Z</time></trkpt>
<trkpt lat="46.307471953332424163818359375" lon="7.49294375069439411163330078125"><ele></ele><time>2020-9-19T9:45:21Z</time></trkpt>
<trkpt lat="46.30746549926698207855224609375" lon="7.49289379455149173736572265625"><ele></ele><time>2020-9-19T9:45:24Z</time></trkpt>
<trkpt lat="46.3074640743434429168701171875" lon="7.49284434132277965545654296875"><ele></ele><time>2020-9-19T9:45:27Z</time></trkpt>
<trkpt lat="46.307461224496364593505859375" lon="7.49279689975082874298095703125"><ele></ele><time>2020-9-19T9:45:30Z</time></trkpt>
<trkpt lat="46.30745678208768367767333984375" lon="7.4927503801882266998291015625"><ele></ele><time>2020-9-19T9:45:33Z</time></trkpt>
<trkpt lat="46.30745208822190761566162109375" lon="7.49270587228238582611083984375"><ele></ele><time>2020-9-19T9:45:36Z</time></trkpt>
<trkpt lat="46.30744337104260921478271484375" lon="7.4926662258803844451904296875"><ele></ele><time>2020-9-19T9:45:39Z</time></trkpt>
<trkpt lat="46.30743163637816905975341796875" lon="7.492627836763858795166015625"><ele></ele><time>2020-9-19T9:45:42Z</time></trkpt>
<trkpt lat="46.307419650256633758544921875" lon="7.49258969910442829132080078125"><ele></ele><time>2020-9-19T9:45:45Z</time></trkpt>
<trkpt lat="46.3074090890586376190185546875" lon="7.4925525672733783721923828125"><ele></ele><time>2020-9-19T9:45:48Z</time></trkpt>
<trkpt lat="46.30739978514611721038818359375" lon="7.49251610599458217620849609375"><ele></ele><time>2020-9-19T9:45:51Z</time></trkpt>
<trkpt lat="46.307388134300708770751953125" lon="7.4924804829061031341552734375"><ele></ele><time>2020-9-19T9:45:54Z</time></trkpt>
<trkpt lat="46.3073755614459514617919921875" lon="7.49244485981762409210205078125"><ele></ele><time>2020-9-19T9:45:57Z</time></trkpt>
<trkpt lat="46.30736558698117733001708984375" lon="7.492410577833652496337890625"><ele></ele><time>2020-9-19T9:46:0Z</time></trkpt>
<trkpt lat="46.3073537684977054595947265625" lon="7.49237730167806148529052734375"><ele></ele><time>2020-9-19T9:46:3Z</time></trkpt>
<trkpt lat="46.3073396869003772735595703125" lon="7.49234762974083423614501953125"><ele></ele><time>2020-9-19T9:46:6Z</time></trkpt>
<trkpt lat="46.3073266111314296722412109375" lon="7.49231594614684581756591796875"><ele></ele><time>2020-9-19T9:46:9Z</time></trkpt>
<trkpt lat="46.30731311626732349395751953125" lon="7.49228082597255706787109375"><ele></ele><time>2020-9-19T9:46:12Z</time></trkpt>
<trkpt lat="46.30730289034545421600341796875" lon="7.49224469996988773345947265625"><ele></ele><time>2020-9-19T9:46:15Z</time></trkpt>
<trkpt lat="46.3072917424142360687255859375" lon="7.4922099150717258453369140625"><ele></ele><time>2020-9-19T9:46:18Z</time></trkpt>
<trkpt lat="46.30728076212108135223388671875" lon="7.4921755492687225341796875"><ele></ele><time>2020-9-19T9:46:21Z</time></trkpt>
<trkpt lat="46.3072706200182437896728515625" lon="7.49214277602732181549072265625"><ele></ele><time>2020-9-19T9:46:24Z</time></trkpt>
<trkpt lat="46.30725611932575702667236328125" lon="7.49211126007139682769775390625"><ele></ele><time>2020-9-19T9:46:27Z</time></trkpt>
<trkpt lat="46.307243965566158294677734375" lon="7.49207773245871067047119140625"><ele></ele><time>2020-9-19T9:46:30Z</time></trkpt>
<trkpt lat="46.307233236730098724365234375" lon="7.4920436181128025054931640625"><ele></ele><time>2020-9-19T9:46:33Z</time></trkpt>
<trkpt lat="46.30722510628402233123779296875" lon="7.492010593414306640625"><ele></ele><time>2020-9-19T9:46:36Z</time></trkpt>
<trkpt lat="46.30721672438085079193115234375" lon="7.49197899363934993743896484375"><ele></ele><time>2020-9-19T9:46:39Z</time></trkpt>
<trkpt lat="46.30720783956348896026611328125" lon="7.49194513075053691864013671875"><ele></ele><time>2020-9-19T9:46:42Z</time></trkpt>
<trkpt lat="46.3071985356509685516357421875" lon="7.491911686956882476806640625"><ele></ele><time>2020-9-19T9:46:45Z</time></trkpt>
<trkpt lat="46.3071925006806850433349609375" lon="7.491879165172576904296875"><ele></ele><time>2020-9-19T9:46:48Z</time></trkpt>
<trkpt lat="46.307182610034942626953125" lon="7.4918488226830959320068359375"><ele></ele><time>2020-9-19T9:46:51Z</time></trkpt>
<trkpt lat="46.30717380903661251068115234375" lon="7.4918188154697418212890625"><ele></ele><time>2020-9-19T9:46:54Z</time></trkpt>
<trkpt lat="46.3071646727621555328369140625" lon="7.49178889207541942596435546875"><ele></ele><time>2020-9-19T9:46:57Z</time></trkpt>
<trkpt lat="46.307156123220920562744140625" lon="7.49175704084336757659912109375"><ele></ele><time>2020-9-19T9:47:0Z</time></trkpt>
<trkpt lat="46.307148076593875885009765625" lon="7.4917240999639034271240234375"><ele></ele><time>2020-9-19T9:47:3Z</time></trkpt>
<trkpt lat="46.30713902413845062255859375" lon="7.49169317074120044708251953125"><ele></ele><time>2020-9-19T9:47:6Z</time></trkpt>
<trkpt lat="46.3071311451494693756103515625" lon="7.49166098423302173614501953125"><ele></ele><time>2020-9-19T9:47:9Z</time></trkpt>
<trkpt lat="46.30712502636015415191650390625" lon="7.49162762425839900970458984375"><ele></ele><time>2020-9-19T9:47:12Z</time></trkpt>
<trkpt lat="46.3071170635521411895751953125" lon="7.49159577302634716033935546875"><ele></ele><time>2020-9-19T9:47:15Z</time></trkpt>
<trkpt lat="46.30710910074412822723388671875" lon="7.49156475998461246490478515625"><ele></ele><time>2020-9-19T9:47:18Z</time></trkpt>
<trkpt lat="46.30710155703127384185791015625" lon="7.49153307639062404632568359375"><ele></ele><time>2020-9-19T9:47:21Z</time></trkpt>
<trkpt lat="46.307095102965831756591796875" lon="7.4915018118917942047119140625"><ele></ele><time>2020-9-19T9:47:24Z</time></trkpt>
<trkpt lat="46.30709200166165828704833984375" lon="7.49147037975490093231201171875"><ele></ele><time>2020-9-19T9:47:27Z</time></trkpt>
<trkpt lat="46.30709200166165828704833984375" lon="7.49143995344638824462890625"><ele></ele><time>2020-9-19T9:47:30Z</time></trkpt>
<trkpt lat="46.30708982236683368682861328125" lon="7.491410784423351287841796875"><ele></ele><time>2020-9-19T9:47:33Z</time></trkpt>
<trkpt lat="46.30708680488169193267822265625" lon="7.4913821183145046234130859375"><ele></ele><time>2020-9-19T9:47:36Z</time></trkpt>
<trkpt lat="46.3070835359394550323486328125" lon="7.49135546386241912841796875"><ele></ele><time>2020-9-19T9:47:39Z</time></trkpt>
<trkpt lat="46.30707792006433010101318359375" lon="7.49132973141968250274658203125"><ele></ele><time>2020-9-19T9:47:42Z</time></trkpt>
<trkpt lat="46.30707004107534885406494140625" lon="7.49130374751985073089599609375"><ele></ele><time>2020-9-19T9:47:45Z</time></trkpt>
<trkpt lat="46.30706434138119220733642578125" lon="7.4912771768867969512939453125"><ele></ele><time>2020-9-19T9:47:48Z</time></trkpt>
<trkpt lat="46.30706149153411388397216796875" lon="7.49124926514923572540283203125"><ele></ele><time>2020-9-19T9:47:51Z</time></trkpt>
<trkpt lat="46.30705629475414752960205078125" lon="7.4912201799452304840087890625"><ele></ele><time>2020-9-19T9:47:54Z</time></trkpt>
<trkpt lat="46.30705059505999088287353515625" lon="7.491190843284130096435546875"><ele></ele><time>2020-9-19T9:47:57Z</time></trkpt>
<trkpt lat="46.307045482099056243896484375" lon="7.49116125516593456268310546875"><ele></ele><time>2020-9-19T9:48:0Z</time></trkpt>
<trkpt lat="46.307038776576519012451171875" lon="7.49113015830516815185546875"><ele></ele><time>2020-9-19T9:48:3Z</time></trkpt>
<trkpt lat="46.30703181959688663482666015625" lon="7.49109822325408458709716796875"><ele></ele><time>2020-9-19T9:48:6Z</time></trkpt>
<trkpt lat="46.3070288859307765960693359375" lon="7.4910669587552547454833984375"><ele></ele><time>2020-9-19T9:48:9Z</time></trkpt>
<trkpt lat="46.307021342217922210693359375" lon="7.4910381250083446502685546875"><ele></ele><time>2020-9-19T9:48:12Z</time></trkpt>
<trkpt lat="46.30701120011508464813232421875" lon="7.49100971035659313201904296875"><ele></ele><time>2020-9-19T9:48:15Z</time></trkpt>
<trkpt lat="46.3070017285645008087158203125" lon="7.49098205007612705230712890625"><ele></ele><time>2020-9-19T9:48:18Z</time></trkpt>
<trkpt lat="46.3069916702806949615478515625" lon="7.490954808890819549560546875"><ele></ele><time>2020-9-19T9:48:21Z</time></trkpt>
<trkpt lat="46.30698085762560367584228515625" lon="7.49092924408614635467529296875"><ele></ele><time>2020-9-19T9:48:24Z</time></trkpt>
<trkpt lat="46.30696962587535381317138671875" lon="7.49090527184307575225830078125"><ele></ele><time>2020-9-19T9:48:27Z</time></trkpt>
<trkpt lat="46.30696007050573825836181640625" lon="7.490880377590656280517578125"><ele></ele><time>2020-9-19T9:48:30Z</time></trkpt>
<trkpt lat="46.3069484196603298187255859375" lon="7.49085648916661739349365234375"><ele></ele><time>2020-9-19T9:48:33Z</time></trkpt>
<trkpt lat="46.30693492479622364044189453125" lon="7.4908349476754665374755859375"><ele></ele><time>2020-9-19T9:48:36Z</time></trkpt>
<trkpt lat="46.306921429932117462158203125" lon="7.4908144958317279815673828125"><ele></ele><time>2020-9-19T9:48:39Z</time></trkpt>
<trkpt lat="46.30690877325832843780517578125" lon="7.49079412780702114105224609375"><ele></ele><time>2020-9-19T9:48:42Z</time></trkpt>
<trkpt lat="46.30689435638487339019775390625" lon="7.490773759782314300537109375"><ele></ele><time>2020-9-19T9:48:45Z</time></trkpt>
<trkpt lat="46.30687977187335491180419921875" lon="7.4907512962818145751953125"><ele></ele><time>2020-9-19T9:48:48Z</time></trkpt>
<trkpt lat="46.3068659417331218719482421875" lon="7.4907290004193782806396484375"><ele></ele><time>2020-9-19T9:48:51Z</time></trkpt>
<trkpt lat="46.30685009993612766265869140625" lon="7.49070913530886173248291015625"><ele></ele><time>2020-9-19T9:48:54Z</time></trkpt>
<trkpt lat="46.3068361021578311920166015625" lon="7.49068985693156719207763671875"><ele></ele><time>2020-9-19T9:48:57Z</time></trkpt>
<trkpt lat="46.30682143382728099822998046875" lon="7.49067007564008235931396484375"><ele></ele><time>2020-9-19T9:49:0Z</time></trkpt>
<trkpt lat="46.3068084418773651123046875" lon="7.490648366510868072509765625"><ele></ele><time>2020-9-19T9:49:3Z</time></trkpt>
<trkpt lat="46.3067945279181003570556640625" lon="7.49062598682940006256103515625"><ele></ele><time>2020-9-19T9:49:6Z</time></trkpt>
<trkpt lat="46.30678120069205760955810546875" lon="7.49060553498566150665283203125"><ele></ele><time>2020-9-19T9:49:9Z</time></trkpt>
<trkpt lat="46.30676846019923686981201171875" lon="7.4905868433415889739990234375"><ele></ele><time>2020-9-19T9:49:12Z</time></trkpt>
<trkpt lat="46.306753791868686676025390625" lon="7.49056756496429443359375"><ele></ele><time>2020-9-19T9:49:15Z</time></trkpt>
<trkpt lat="46.3067405484616756439208984375" lon="7.490547783672809600830078125"><ele></ele><time>2020-9-19T9:49:18Z</time></trkpt>
<trkpt lat="46.30672730505466461181640625" lon="7.49052691273391246795654296875"><ele></ele><time>2020-9-19T9:49:21Z</time></trkpt>
<trkpt lat="46.30671733058989048004150390625" lon="7.49050377868115901947021484375"><ele></ele><time>2020-9-19T9:49:24Z</time></trkpt>
<trkpt lat="46.30670894868671894073486328125" lon="7.490482740104198455810546875"><ele></ele><time>2020-9-19T9:49:27Z</time></trkpt>
<trkpt lat="46.3067060150206089019775390625" lon="7.490458600223064422607421875"><ele></ele><time>2020-9-19T9:49:30Z</time></trkpt>
<trkpt lat="46.306706182658672332763671875" lon="7.49043622054159641265869140625"><ele></ele><time>2020-9-19T9:49:33Z</time></trkpt>
<trkpt lat="46.3067120499908924102783203125" lon="7.49041627161204814910888671875"><ele></ele><time>2020-9-19T9:49:36Z</time></trkpt>
<trkpt lat="46.306721270084381103515625" lon="7.4903970770537853240966796875"><ele></ele><time>2020-9-19T9:49:39Z</time></trkpt>
<trkpt lat="46.306733675301074981689453125" lon="7.4903813190758228302001953125"><ele></ele><time>2020-9-19T9:49:42Z</time></trkpt>
<trkpt lat="46.30675085820257663726806640625" lon="7.49037436209619045257568359375"><ele></ele><time>2020-9-19T9:49:45Z</time></trkpt>
<trkpt lat="46.30677164532244205474853515625" lon="7.49037536792457103729248046875"><ele></ele><time>2020-9-19T9:49:48Z</time></trkpt>
<trkpt lat="46.30679260008037090301513671875" lon="7.49038307927548885345458984375"><ele></ele><time>2020-9-19T9:49:51Z</time></trkpt>
<trkpt lat="46.30681573413312435150146484375" lon="7.490392886102199554443359375"><ele></ele><time>2020-9-19T9:49:54Z</time></trkpt>
<trkpt lat="46.306839287281036376953125" lon="7.49040235765278339385986328125"><ele></ele><time>2020-9-19T9:49:57Z</time></trkpt>
<trkpt lat="46.3068619184195995330810546875" lon="7.49041224829852581024169921875"><ele></ele><time>2020-9-19T9:50:0Z</time></trkpt>
<trkpt lat="46.30688748322427272796630859375" lon="7.49041878618299961090087890625"><ele></ele><time>2020-9-19T9:50:3Z</time></trkpt>
<trkpt lat="46.30691112019121646881103515625" lon="7.49043001793324947357177734375"><ele></ele><time>2020-9-19T9:50:6Z</time></trkpt>
<trkpt lat="46.3069350086152553558349609375" lon="7.49043948948383331298828125"><ele></ele><time>2020-9-19T9:50:9Z</time></trkpt>
<trkpt lat="46.30695671774446964263916015625" lon="7.49044544063508510589599609375"><ele></ele><time>2020-9-19T9:50:12Z</time></trkpt>
<trkpt lat="46.30697666667401790618896484375" lon="7.490451894700527191162109375"><ele></ele><time>2020-9-19T9:50:15Z</time></trkpt>
<trkpt lat="46.30699628032743930816650390625" lon="7.490455247461795806884765625"><ele></ele><time>2020-9-19T9:50:18Z</time></trkpt>
<trkpt lat="46.30701589398086071014404296875" lon="7.49046186916530132293701171875"><ele></ele><time>2020-9-19T9:50:21Z</time></trkpt>
<trkpt lat="46.30703349597752094268798828125" lon="7.49046656303107738494873046875"><ele></ele><time>2020-9-19T9:50:24Z</time></trkpt>
<trkpt lat="46.3070493377745151519775390625" lon="7.4904669821262359619140625"><ele></ele><time>2020-9-19T9:50:27Z</time></trkpt>
<trkpt lat="46.30706735886633396148681640625" lon="7.4904684908688068389892578125"><ele></ele><time>2020-9-19T9:50:30Z</time></trkpt>
<trkpt lat="46.30708646960556507110595703125" lon="7.4904772080481052398681640625"><ele></ele><time>2020-9-19T9:50:33Z</time></trkpt>
<trkpt lat="46.3071080110967159271240234375" lon="7.4904852546751499176025390625"><ele></ele><time>2020-9-19T9:50:36Z</time></trkpt>
<trkpt lat="46.3071261160075664520263671875" lon="7.49049254693090915679931640625"><ele></ele><time>2020-9-19T9:50:39Z</time></trkpt>
<trkpt lat="46.30713843740522861480712890625" lon="7.4904993362724781036376953125"><ele></ele><time>2020-9-19T9:50:42Z</time></trkpt>
<trkpt lat="46.3071544468402862548828125" lon="7.49049908481538295745849609375"><ele></ele><time>2020-9-19T9:50:45Z</time></trkpt>
<trkpt lat="46.30716928280889987945556640625" lon="7.490490116178989410400390625"><ele></ele><time>2020-9-19T9:50:48Z</time></trkpt>
<trkpt lat="46.30718118511140346527099609375" lon="7.49047360382974147796630859375"><ele></ele><time>2020-9-19T9:50:51Z</time></trkpt>
<trkpt lat="46.3071888126432895660400390625" lon="7.49045147560536861419677734375"><ele></ele><time>2020-9-19T9:50:54Z</time></trkpt>
<trkpt lat="46.30718990229070186614990234375" lon="7.490429766476154327392578125"><ele></ele><time>2020-9-19T9:50:57Z</time></trkpt>
<trkpt lat="46.30718722008168697357177734375" lon="7.49040822498500347137451171875"><ele></ele><time>2020-9-19T9:51:0Z</time></trkpt>
<trkpt lat="46.30717984400689601898193359375" lon="7.4903866834938526153564453125"><ele></ele><time>2020-9-19T9:51:3Z</time></trkpt>
<trkpt lat="46.3071678578853607177734375" lon="7.49036950059235095977783203125"><ele></ele><time>2020-9-19T9:51:6Z</time></trkpt>
<trkpt lat="46.3071512617170810699462890625" lon="7.4903568439185619354248046875"><ele></ele><time>2020-9-19T9:51:9Z</time></trkpt>
<trkpt lat="46.30713541992008686065673828125" lon="7.49034754000604152679443359375"><ele></ele><time>2020-9-19T9:51:12Z</time></trkpt>
<trkpt lat="46.30711949430406093597412109375" lon="7.49033966101706027984619140625"><ele></ele><time>2020-9-19T9:51:15Z</time></trkpt>
<trkpt lat="46.30710440687835216522216796875" lon="7.490327842533588409423828125"><ele></ele><time>2020-9-19T9:51:18Z</time></trkpt>
<trkpt lat="46.30708999000489711761474609375" lon="7.490311749279499053955078125"><ele></ele><time>2020-9-19T9:51:21Z</time></trkpt>
<trkpt lat="46.30707867443561553955078125" lon="7.49029599130153656005859375"><ele></ele><time>2020-9-19T9:51:24Z</time></trkpt>
<trkpt lat="46.30706869997084140777587890625" lon="7.49027797020971775054931640625"><ele></ele><time>2020-9-19T9:51:27Z</time></trkpt>
<trkpt lat="46.3070583902299404144287109375" lon="7.4902577698230743408203125"><ele></ele><time>2020-9-19T9:51:30Z</time></trkpt>
<trkpt lat="46.30704841576516628265380859375" lon="7.4902364797890186309814453125"><ele></ele><time>2020-9-19T9:51:33Z</time></trkpt>
<trkpt lat="46.3070392794907093048095703125" lon="7.49021493829786777496337890625"><ele></ele><time>2020-9-19T9:51:36Z</time></trkpt>
<trkpt lat="46.3070315681397914886474609375" lon="7.4901918880641460418701171875"><ele></ele><time>2020-9-19T9:51:39Z</time></trkpt>
<trkpt lat="46.30702863447368144989013671875" lon="7.490166909992694854736328125"><ele></ele><time>2020-9-19T9:51:42Z</time></trkpt>
<trkpt lat="46.30702142603695392608642578125" lon="7.49014268629252910614013671875"><ele></ele><time>2020-9-19T9:51:45Z</time></trkpt>
<trkpt lat="46.3070154748857021331787109375" lon="7.490118630230426788330078125"><ele></ele><time>2020-9-19T9:51:48Z</time></trkpt>
<trkpt lat="46.30700818262994289398193359375" lon="7.49009574763476848602294921875"><ele></ele><time>2020-9-19T9:51:51Z</time></trkpt>
<trkpt lat="46.306999213993549346923828125" lon="7.49007747508585453033447265625"><ele></ele><time>2020-9-19T9:51:54Z</time></trkpt>
<trkpt lat="46.30699074827134609222412109375" lon="7.490060292184352874755859375"><ele></ele><time>2020-9-19T9:51:57Z</time></trkpt>
<trkpt lat="46.30698353983461856842041015625" lon="7.49004210345447063446044921875"><ele></ele><time>2020-9-19T9:52:0Z</time></trkpt>
<trkpt lat="46.306977756321430206298828125" lon="7.49002098105847835540771484375"><ele></ele><time>2020-9-19T9:52:3Z</time></trkpt>
<trkpt lat="46.30697197280824184417724609375" lon="7.48999893665313720703125"><ele></ele><time>2020-9-19T9:52:6Z</time></trkpt>
<trkpt lat="46.3069651834666728973388671875" lon="7.4899766407907009124755859375"><ele></ele><time>2020-9-19T9:52:9Z</time></trkpt>
<trkpt lat="46.30695722065865993499755859375" lon="7.489954344928264617919921875"><ele></ele><time>2020-9-19T9:52:12Z</time></trkpt>
<trkpt lat="46.30694992840290069580078125" lon="7.4899280257523059844970703125"><ele></ele><time>2020-9-19T9:52:15Z</time></trkpt>
<trkpt lat="46.306944899260997772216796875" lon="7.48990246094763278961181640625"><ele></ele><time>2020-9-19T9:52:18Z</time></trkpt>
<trkpt lat="46.306935846805572509765625" lon="7.4898787401616573333740234375"><ele></ele><time>2020-9-19T9:52:21Z</time></trkpt>
<trkpt lat="46.30693056620657444000244140625" lon="7.48985602520406246185302734375"><ele></ele><time>2020-9-19T9:52:24Z</time></trkpt>
<trkpt lat="46.30692453123629093170166015625" lon="7.4898331426084041595458984375"><ele></ele><time>2020-9-19T9:52:27Z</time></trkpt>
<trkpt lat="46.30691614933311939239501953125" lon="7.4898125231266021728515625"><ele></ele><time>2020-9-19T9:52:30Z</time></trkpt>
<trkpt lat="46.30691363476216793060302734375" lon="7.48978813178837299346923828125"><ele></ele><time>2020-9-19T9:52:33Z</time></trkpt>
<trkpt lat="46.30690558813512325286865234375" lon="7.489762566983699798583984375"><ele></ele><time>2020-9-19T9:52:36Z</time></trkpt>
<trkpt lat="46.306892931461334228515625" lon="7.48973817564547061920166015625"><ele></ele><time>2020-9-19T9:52:39Z</time></trkpt>
<trkpt lat="46.306879185140132904052734375" lon="7.48971370048820972442626953125"><ele></ele><time>2020-9-19T9:52:42Z</time></trkpt>
<trkpt lat="46.30686870776116847991943359375" lon="7.4896899797022342681884765625"><ele></ele><time>2020-9-19T9:52:45Z</time></trkpt>
<trkpt lat="46.3068642653524875640869140625" lon="7.48966173268854618072509765625"><ele></ele><time>2020-9-19T9:52:48Z</time></trkpt>
<trkpt lat="46.30685663782060146331787109375" lon="7.4896363355219364166259765625"><ele></ele><time>2020-9-19T9:52:51Z</time></trkpt>
<trkpt lat="46.3068582303822040557861328125" lon="7.48960523866117000579833984375"><ele></ele><time>2020-9-19T9:52:54Z</time></trkpt>
<trkpt lat="46.30686770193278789520263671875" lon="7.4895813502371311187744140625"><ele></ele><time>2020-9-19T9:52:57Z</time></trkpt>
<trkpt lat="46.30688211880624294281005859375" lon="7.48956601135432720184326171875"><ele></ele><time>2020-9-19T9:53:0Z</time></trkpt>
<trkpt lat="46.30689720623195171356201171875" lon="7.48956198804080486297607421875"><ele></ele><time>2020-9-19T9:53:3Z</time></trkpt>
<trkpt lat="46.30691380240023136138916015625" lon="7.48956383205950260162353515625"><ele></ele><time>2020-9-19T9:53:6Z</time></trkpt>
<trkpt lat="46.3069309853017330169677734375" lon="7.48957070522010326385498046875"><ele></ele><time>2020-9-19T9:53:9Z</time></trkpt>
<trkpt lat="46.3069500960409641265869140625" lon="7.48957925476133823394775390625"><ele></ele><time>2020-9-19T9:53:12Z</time></trkpt>
<trkpt lat="46.30696627311408519744873046875" lon="7.4895877204835414886474609375"><ele></ele><time>2020-9-19T9:53:15Z</time></trkpt>
<trkpt lat="46.30698018707334995269775390625" lon="7.4895940907299518585205078125"><ele></ele><time>2020-9-19T9:53:18Z</time></trkpt>
<trkpt lat="46.306991167366504669189453125" lon="7.48959836550056934356689453125"><ele></ele><time>2020-9-19T9:53:21Z</time></trkpt>
<trkpt lat="46.3070057518780231475830078125" lon="7.4896038137376308441162109375"><ele></ele><time>2020-9-19T9:53:24Z</time></trkpt>
<trkpt lat="46.30701363086700439453125" lon="7.4896085076034069061279296875"><ele></ele><time>2020-9-19T9:53:27Z</time></trkpt>
<trkpt lat="46.3070251978933811187744140625" lon="7.4896152131259441375732421875"><ele></ele><time>2020-9-19T9:53:30Z</time></trkpt>
<trkpt lat="46.30703978240489959716796875" lon="7.48962133191525936126708984375"><ele></ele><time>2020-9-19T9:53:33Z</time></trkpt>
<trkpt lat="46.30705227144062519073486328125" lon="7.4896266125142574310302734375"><ele></ele><time>2020-9-19T9:53:36Z</time></trkpt>
<trkpt lat="46.30706182681024074554443359375" lon="7.4896276183426380157470703125"><ele></ele><time>2020-9-19T9:53:39Z</time></trkpt>
<trkpt lat="46.30707255564630031585693359375" lon="7.48963038437068462371826171875"><ele></ele><time>2020-9-19T9:53:42Z</time></trkpt>
<trkpt lat="46.3070838712155818939208984375" lon="7.489635162055492401123046875"><ele></ele><time>2020-9-19T9:53:45Z</time></trkpt>
<trkpt lat="46.30709552206099033355712890625" lon="7.4896408617496490478515625"><ele></ele><time>2020-9-19T9:53:48Z</time></trkpt>
<trkpt lat="46.30710910074412822723388671875" lon="7.48964480124413967132568359375"><ele></ele><time>2020-9-19T9:53:51Z</time></trkpt>
<trkpt lat="46.3071227632462978363037109375" lon="7.4896473996341228485107421875"><ele></ele><time>2020-9-19T9:53:54Z</time></trkpt>
<trkpt lat="46.3071375153958797454833984375" lon="7.48964513652026653289794921875"><ele></ele><time>2020-9-19T9:53:57Z</time></trkpt>
<trkpt lat="46.30714983679354190826416015625" lon="7.48964245431125164031982421875"><ele></ele><time>2020-9-19T9:54:0Z</time></trkpt>
<trkpt lat="46.30716810934245586395263671875" lon="7.4896420352160930633544921875"><ele></ele><time>2020-9-19T9:54:3Z</time></trkpt>
<trkpt lat="46.307187639176845550537109375" lon="7.48964463360607624053955078125"><ele></ele><time>2020-9-19T9:54:6Z</time></trkpt>
<trkpt lat="46.30720649845898151397705078125" lon="7.48964681290090084075927734375"><ele></ele><time>2020-9-19T9:54:9Z</time></trkpt>
<trkpt lat="46.30722376517951488494873046875" lon="7.48964882455766201019287109375"><ele></ele><time>2020-9-19T9:54:12Z</time></trkpt>
<trkpt lat="46.30724136717617511749267578125" lon="7.4896497465670108795166015625"><ele></ele><time>2020-9-19T9:54:15Z</time></trkpt>
<trkpt lat="46.30726148374378681182861328125" lon="7.48964781872928142547607421875"><ele></ele><time>2020-9-19T9:54:18Z</time></trkpt>
<trkpt lat="46.307280175387859344482421875" lon="7.4896463938057422637939453125"><ele></ele><time>2020-9-19T9:54:21Z</time></trkpt>
<trkpt lat="46.30729836411774158477783203125" lon="7.489646561443805694580078125"><ele></ele><time>2020-9-19T9:54:24Z</time></trkpt>
<trkpt lat="46.30731579847633838653564453125" lon="7.48964765109121799468994140625"><ele></ele><time>2020-9-19T9:54:27Z</time></trkpt>
<trkpt lat="46.30733549594879150390625" lon="7.489647902548313140869140625"><ele></ele><time>2020-9-19T9:54:30Z</time></trkpt>
<trkpt lat="46.30735536105930805206298828125" lon="7.48964396305382251739501953125"><ele></ele><time>2020-9-19T9:54:33Z</time></trkpt>
<trkpt lat="46.30737396888434886932373046875" lon="7.48964228667318820953369140625"><ele></ele><time>2020-9-19T9:54:36Z</time></trkpt>
<trkpt lat="46.30739341489970684051513671875" lon="7.4896408617496490478515625"><ele></ele><time>2020-9-19T9:54:39Z</time></trkpt>
<trkpt lat="46.307410933077335357666015625" lon="7.48963792808353900909423828125"><ele></ele><time>2020-9-19T9:54:42Z</time></trkpt>
<trkpt lat="46.3074486516416072845458984375" lon="7.48962887562811374664306640625"><ele></ele><time>2020-9-19T9:54:45Z</time></trkpt>
<trkpt lat="46.307461895048618316650390625" lon="7.48962753452360630035400390625"><ele></ele><time>2020-9-19T9:54:48Z</time></trkpt>
<trkpt lat="46.30747522227466106414794921875" lon="7.48962518759071826934814453125"><ele></ele><time>2020-9-19T9:54:51Z</time></trkpt>
<trkpt lat="46.307487376034259796142578125" lon="7.48962602578103542327880859375"><ele></ele><time>2020-9-19T9:54:54Z</time></trkpt>
<trkpt lat="46.30750237964093685150146484375" lon="7.489631474018096923828125"><ele></ele><time>2020-9-19T9:54:57Z</time></trkpt>
<trkpt lat="46.3075170479714870452880859375" lon="7.48963574878871440887451171875"><ele></ele><time>2020-9-19T9:55:0Z</time></trkpt>
<trkpt lat="46.30753339268267154693603515625" lon="7.489641867578029632568359375"><ele></ele><time>2020-9-19T9:55:3Z</time></trkpt>
<trkpt lat="46.3075539283454418182373046875" lon="7.4896514229476451873779296875"><ele></ele><time>2020-9-19T9:55:6Z</time></trkpt>
<trkpt lat="46.30757563747465610504150390625" lon="7.48966609127819538116455078125"><ele></ele><time>2020-9-19T9:55:9Z</time></trkpt>
<trkpt lat="46.30759743042290210723876953125" lon="7.4896782450377941131591796875"><ele></ele><time>2020-9-19T9:55:12Z</time></trkpt>
<trkpt lat="46.30761821754276752471923828125" lon="7.489689476788043975830078125"><ele></ele><time>2020-9-19T9:55:15Z</time></trkpt>
<trkpt lat="46.30763280205428600311279296875" lon="7.48970012180507183074951171875"><ele></ele><time>2020-9-19T9:55:18Z</time></trkpt>
<trkpt lat="46.307649314403533935546875" lon="7.48971126973628997802734375"><ele></ele><time>2020-9-19T9:55:21Z</time></trkpt>
<trkpt lat="46.3076642341911792755126953125" lon="7.48972392641007900238037109375"><ele></ele><time>2020-9-19T9:55:24Z</time></trkpt>
<trkpt lat="46.3076809979975223541259765625" lon="7.4897402711212635040283203125"><ele></ele><time>2020-9-19T9:55:27Z</time></trkpt>
<trkpt lat="46.307695917785167694091796875" lon="7.489758543670177459716796875"><ele></ele><time>2020-9-19T9:55:30Z</time></trkpt>
<trkpt lat="46.307712681591510772705078125" lon="7.48977740295231342315673828125"><ele></ele><time>2020-9-19T9:55:33Z</time></trkpt>
<trkpt lat="46.30772517062723636627197265625" lon="7.4897897243499755859375"><ele></ele><time>2020-9-19T9:55:36Z</time></trkpt>
<trkpt lat="46.30773657001554965972900390625" lon="7.48980254866182804107666015625"><ele></ele><time>2020-9-19T9:55:39Z</time></trkpt>
<trkpt lat="46.30775995552539825439453125" lon="7.48981646262109279632568359375"><ele></ele><time>2020-9-19T9:55:42Z</time></trkpt>
<trkpt lat="46.3077820837497711181640625" lon="7.489831633865833282470703125"><ele></ele><time>2020-9-19T9:55:45Z</time></trkpt>
<trkpt lat="46.30780429579317569732666015625" lon="7.48984361998736858367919921875"><ele></ele><time>2020-9-19T9:55:48Z</time></trkpt>
<trkpt lat="46.30782340653240680694580078125" lon="7.489850409328937530517578125"><ele></ele><time>2020-9-19T9:55:51Z</time></trkpt>
<trkpt lat="46.3078452832996845245361328125" lon="7.4898586235940456390380859375"><ele></ele><time>2020-9-19T9:55:54Z</time></trkpt>
<trkpt lat="46.3078690879046916961669921875" lon="7.48986675404012203216552734375"><ele></ele><time>2020-9-19T9:55:57Z</time></trkpt>
<trkpt lat="46.307890377938747406005859375" lon="7.489871196448802947998046875"><ele></ele><time>2020-9-19T9:56:0Z</time></trkpt>
<trkpt lat="46.3079089857637882232666015625" lon="7.48987756669521331787109375"><ele></ele><time>2020-9-19T9:56:3Z</time></trkpt>
<trkpt lat="46.3079244084656238555908203125" lon="7.489883601665496826171875"><ele></ele><time>2020-9-19T9:56:6Z</time></trkpt>
<trkpt lat="46.30793974734842777252197265625" lon="7.48988670296967029571533203125"><ele></ele><time>2020-9-19T9:56:9Z</time></trkpt>
<trkpt lat="46.30795567296445369720458984375" lon="7.48988628387451171875"><ele></ele><time>2020-9-19T9:56:12Z</time></trkpt>
<trkpt lat="46.30797310732305049896240234375" lon="7.48988787643611431121826171875"><ele></ele><time>2020-9-19T9:56:15Z</time></trkpt>
<trkpt lat="46.30798936821520328521728515625" lon="7.48989340849220752716064453125"><ele></ele><time>2020-9-19T9:56:18Z</time></trkpt>
<trkpt lat="46.3080052100121974945068359375" lon="7.48989961110055446624755859375"><ele></ele><time>2020-9-19T9:56:21Z</time></trkpt>
<trkpt lat="46.30802004598081111907958984375" lon="7.4899062328040599822998046875"><ele></ele><time>2020-9-19T9:56:24Z</time></trkpt>
<trkpt lat="46.30803412757813930511474609375" lon="7.4899115972220897674560546875"><ele></ele><time>2020-9-19T9:56:27Z</time></trkpt>
<trkpt lat="46.30804854445159435272216796875" lon="7.489920817315578460693359375"><ele></ele><time>2020-9-19T9:56:30Z</time></trkpt>
<trkpt lat="46.3080655597150325775146484375" lon="7.48992475681006908416748046875"><ele></ele><time>2020-9-19T9:56:33Z</time></trkpt>
<trkpt lat="46.308081150054931640625" lon="7.48992978595197200775146484375"><ele></ele><time>2020-9-19T9:56:36Z</time></trkpt>
<trkpt lat="46.30809799768030643463134765625" lon="7.48993330635130405426025390625"><ele></ele><time>2020-9-19T9:56:39Z</time></trkpt>
<trkpt lat="46.30811409093439579010009765625" lon="7.48993900604546070098876953125"><ele></ele><time>2020-9-19T9:56:42Z</time></trkpt>
<trkpt lat="46.30813236348330974578857421875" lon="7.48994252644479274749755859375"><ele></ele><time>2020-9-19T9:56:45Z</time></trkpt>
<trkpt lat="46.308146528899669647216796875" lon="7.48994529247283935546875"><ele></ele><time>2020-9-19T9:56:48Z</time></trkpt>
<trkpt lat="46.30816471762955188751220703125" lon="7.48994939960539340972900390625"><ele></ele><time>2020-9-19T9:56:51Z</time></trkpt>
<trkpt lat="46.308180056512355804443359375" lon="7.4899525009095668792724609375"><ele></ele><time>2020-9-19T9:56:54Z</time></trkpt>
<trkpt lat="46.308194138109683990478515625" lon="7.48995744623243808746337890625"><ele></ele><time>2020-9-19T9:56:57Z</time></trkpt>
<trkpt lat="46.30820922553539276123046875" lon="7.48995861969888210296630859375"><ele></ele><time>2020-9-19T9:57:0Z</time></trkpt>
<trkpt lat="46.308232359588146209716796875" lon="7.48996046371757984161376953125"><ele></ele><time>2020-9-19T9:57:3Z</time></trkpt>
<trkpt lat="46.30825473926961421966552734375" lon="7.48996096663177013397216796875"><ele></ele><time>2020-9-19T9:57:6Z</time></trkpt>
<trkpt lat="46.3082761131227016448974609375" lon="7.48995929025113582611083984375"><ele></ele><time>2020-9-19T9:57:9Z</time></trkpt>
<trkpt lat="46.30829648114740848541259765625" lon="7.48995828442275524139404296875"><ele></ele><time>2020-9-19T9:57:12Z</time></trkpt>
<trkpt lat="46.30831383168697357177734375" lon="7.48995660804212093353271484375"><ele></ele><time>2020-9-19T9:57:15Z</time></trkpt>
<trkpt lat="46.3083321042358875274658203125" lon="7.48995400965213775634765625"><ele></ele><time>2020-9-19T9:57:18Z</time></trkpt>
<trkpt lat="46.30834844894707202911376953125" lon="7.48995157890021800994873046875"><ele></ele><time>2020-9-19T9:57:21Z</time></trkpt>
<trkpt lat="46.30836755968630313873291015625" lon="7.4899528361856937408447265625"><ele></ele><time>2020-9-19T9:57:24Z</time></trkpt>
<trkpt lat="46.30838633514940738677978515625" lon="7.4899568594992160797119140625"><ele></ele><time>2020-9-19T9:57:27Z</time></trkpt>
<trkpt lat="46.3084048591554164886474609375" lon="7.48995778150856494903564453125"><ele></ele><time>2020-9-19T9:57:30Z</time></trkpt>
<trkpt lat="46.3084249757230281829833984375" lon="7.48995677568018436431884765625"><ele></ele><time>2020-9-19T9:57:33Z</time></trkpt>
<trkpt lat="46.308440901339054107666015625" lon="7.4899548478424549102783203125"><ele></ele><time>2020-9-19T9:57:36Z</time></trkpt>
<trkpt lat="46.3084588386118412017822265625" lon="7.489953674376010894775390625"><ele></ele><time>2020-9-19T9:57:39Z</time></trkpt>
<trkpt lat="46.30847300402820110321044921875" lon="7.48995124362409114837646484375"><ele></ele><time>2020-9-19T9:57:42Z</time></trkpt>
<trkpt lat="46.3084880076348781585693359375" lon="7.48994956724345684051513671875"><ele></ele><time>2020-9-19T9:57:45Z</time></trkpt>
<trkpt lat="46.30849982611835002899169921875" lon="7.4899504892528057098388671875"><ele></ele><time>2020-9-19T9:57:48Z</time></trkpt>
<trkpt lat="46.30851508118212223052978515625" lon="7.48995325528085231781005859375"><ele></ele><time>2020-9-19T9:57:51Z</time></trkpt>
<trkpt lat="46.3085325993597507476806640625" lon="7.489950321614742279052734375"><ele></ele><time>2020-9-19T9:57:54Z</time></trkpt>
<trkpt lat="46.3085490278899669647216796875" lon="7.48994722031056880950927734375"><ele></ele><time>2020-9-19T9:57:57Z</time></trkpt>
<trkpt lat="46.30856520496308803558349609375" lon="7.48994554392993450164794921875"><ele></ele><time>2020-9-19T9:58:0Z</time></trkpt>
<trkpt lat="46.30858029238879680633544921875" lon="7.48994487337768077850341796875"><ele></ele><time>2020-9-19T9:58:3Z</time></trkpt>
<trkpt lat="46.3085929490625858306884765625" lon="7.489944286644458770751953125"><ele></ele><time>2020-9-19T9:58:6Z</time></trkpt>
<trkpt lat="46.30860946141183376312255859375" lon="7.48994219116866588592529296875"><ele></ele><time>2020-9-19T9:58:9Z</time></trkpt>
<trkpt lat="46.30862488411366939544677734375" lon="7.489942274987697601318359375"><ele></ele><time>2020-9-19T9:58:12Z</time></trkpt>
<trkpt lat="46.30863980390131473541259765625" lon="7.48994219116866588592529296875"><ele></ele><time>2020-9-19T9:58:15Z</time></trkpt>
<trkpt lat="46.30865321494638919830322265625" lon="7.48994017951190471649169921875"><ele></ele><time>2020-9-19T9:58:18Z</time></trkpt>
<trkpt lat="46.30866679362952709197998046875" lon="7.48993783257901668548583984375"><ele></ele><time>2020-9-19T9:58:21Z</time></trkpt>
<trkpt lat="46.3086781091988086700439453125" lon="7.48993263579905033111572265625"><ele></ele><time>2020-9-19T9:58:24Z</time></trkpt>
<trkpt lat="46.30868942476809024810791015625" lon="7.48992475681006908416748046875"><ele></ele><time>2020-9-19T9:58:27Z</time></trkpt>
<trkpt lat="46.30870141088962554931640625" lon="7.48991520144045352935791015625"><ele></ele><time>2020-9-19T9:58:30Z</time></trkpt>
<trkpt lat="46.30871272645890712738037109375" lon="7.48990346677601337432861328125"><ele></ele><time>2020-9-19T9:58:33Z</time></trkpt>
<trkpt lat="46.30871993489563465118408203125" lon="7.48988636769354343414306640625"><ele></ele><time>2020-9-19T9:58:36Z</time></trkpt>
<trkpt lat="46.30871792323887348175048828125" lon="7.4898693524301052093505859375"><ele></ele><time>2020-9-19T9:58:39Z</time></trkpt>
<trkpt lat="46.30871213972568511962890625" lon="7.4898527562618255615234375"><ele></ele><time>2020-9-19T9:58:42Z</time></trkpt>
<trkpt lat="46.30870006978511810302734375" lon="7.48983875848352909088134765625"><ele></ele><time>2020-9-19T9:58:45Z</time></trkpt>
<trkpt lat="46.30868691019713878631591796875" lon="7.48982417397201061248779296875"><ele></ele><time>2020-9-19T9:58:48Z</time></trkpt>
<trkpt lat="46.30867182277143001556396484375" lon="7.48980925418436527252197265625"><ele></ele><time>2020-9-19T9:58:51Z</time></trkpt>
<trkpt lat="46.30865581333637237548828125" lon="7.48979114927351474761962890625"><ele></ele><time>2020-9-19T9:58:54Z</time></trkpt>
<trkpt lat="46.3086429052054882049560546875" lon="7.48977237381041049957275390625"><ele></ele><time>2020-9-19T9:58:57Z</time></trkpt>
<trkpt lat="46.30861482582986354827880859375" lon="7.48973163776099681854248046875"><ele></ele><time>2020-9-19T9:59:0Z</time></trkpt>
<trkpt lat="46.3086013309657573699951171875" lon="7.48971621505916118621826171875"><ele></ele><time>2020-9-19T9:59:3Z</time></trkpt>
<trkpt lat="46.30858741700649261474609375" lon="7.48970146290957927703857421875"><ele></ele><time>2020-9-19T9:59:6Z</time></trkpt>
<trkpt lat="46.30857207812368869781494140625" lon="7.48968654312193393707275390625"><ele></ele><time>2020-9-19T9:59:9Z</time></trkpt>
<trkpt lat="46.30855632014572620391845703125" lon="7.48967195861041545867919921875"><ele></ele><time>2020-9-19T9:59:12Z</time></trkpt>
<trkpt lat="46.3085406459867954254150390625" lon="7.48965955339372158050537109375"><ele></ele><time>2020-9-19T9:59:15Z</time></trkpt>
<trkpt lat="46.308526732027530670166015625" lon="7.48964488506317138671875"><ele></ele><time>2020-9-19T9:59:18Z</time></trkpt>
<trkpt lat="46.3085131533443927764892578125" lon="7.48963038437068462371826171875"><ele></ele><time>2020-9-19T9:59:21Z</time></trkpt>
<trkpt lat="46.30849647335708141326904296875" lon="7.4896125309169292449951171875"><ele></ele><time>2020-9-19T9:59:24Z</time></trkpt>
<trkpt lat="46.308481805026531219482421875" lon="7.48959618620574474334716796875"><ele></ele><time>2020-9-19T9:59:27Z</time></trkpt>
<trkpt lat="46.30846864543855190277099609375" lon="7.4895803444087505340576171875"><ele></ele><time>2020-9-19T9:59:30Z</time></trkpt>
<trkpt lat="46.3084574975073337554931640625" lon="7.4895608983933925628662109375"><ele></ele><time>2020-9-19T9:59:33Z</time></trkpt>
<trkpt lat="46.30844525992870330810546875" lon="7.48954388312995433807373046875"><ele></ele><time>2020-9-19T9:59:36Z</time></trkpt>
<trkpt lat="46.30843176506459712982177734375" lon="7.48952443711459636688232421875"><ele></ele><time>2020-9-19T9:59:39Z</time></trkpt>
<trkpt lat="46.308420784771442413330078125" lon="7.489503063261508941650390625"><ele></ele><time>2020-9-19T9:59:42Z</time></trkpt>
<trkpt lat="46.308409385383129119873046875" lon="7.489480264484882354736328125"><ele></ele><time>2020-9-19T9:59:45Z</time></trkpt>
<trkpt lat="46.308401338756084442138671875" lon="7.4894583038985729217529296875"><ele></ele><time>2020-9-19T9:59:48Z</time></trkpt>
<trkpt lat="46.308387927711009979248046875" lon="7.4894368462264537811279296875"><ele></ele><time>2020-9-19T9:59:51Z</time></trkpt>
<trkpt lat="46.30837284028530120849609375" lon="7.4894140474498271942138671875"><ele></ele><time>2020-9-19T9:59:54Z</time></trkpt>
<trkpt lat="46.3083599321544170379638671875" lon="7.489391081035137176513671875"><ele></ele><time>2020-9-19T9:59:57Z</time></trkpt>
<trkpt lat="46.30834677256643772125244140625" lon="7.48936803080141544342041015625"><ele></ele><time>2020-9-19T10:0:0Z</time></trkpt>
<trkpt lat="46.3083347864449024200439453125" lon="7.48934271745383739471435546875"><ele></ele><time>2020-9-19T10:0:3Z</time></trkpt>
<trkpt lat="46.30832313559949398040771484375" lon="7.4893198348581790924072265625"><ele></ele><time>2020-9-19T10:0:6Z</time></trkpt>
<trkpt lat="46.30831173621118068695068359375" lon="7.48929410241544246673583984375"><ele></ele><time>2020-9-19T10:0:9Z</time></trkpt>
<trkpt lat="46.30830134265124797821044921875" lon="7.48926828615367412567138671875"><ele></ele><time>2020-9-19T10:0:12Z</time></trkpt>
<trkpt lat="46.30828843452036380767822265625" lon="7.4892423860728740692138671875"><ele></ele><time>2020-9-19T10:0:15Z</time></trkpt>
<trkpt lat="46.30827963352203369140625" lon="7.4892212636768817901611328125"><ele></ele><time>2020-9-19T10:0:18Z</time></trkpt>
<trkpt lat="46.30826823413372039794921875" lon="7.4892001412808895111083984375"><ele></ele><time>2020-9-19T10:0:21Z</time></trkpt>
<trkpt lat="46.30825775675475597381591796875" lon="7.489179857075214385986328125"><ele></ele><time>2020-9-19T10:0:24Z</time></trkpt>
<trkpt lat="46.3082469440996646881103515625" lon="7.48916032724082469940185546875"><ele></ele><time>2020-9-19T10:0:27Z</time></trkpt>
<trkpt lat="46.30823562853038311004638671875" lon="7.4891428090631961822509765625"><ele></ele><time>2020-9-19T10:0:30Z</time></trkpt>
<trkpt lat="46.30822674371302127838134765625" lon="7.489122860133647918701171875"><ele></ele><time>2020-9-19T10:0:33Z</time></trkpt>
<trkpt lat="46.3082174398005008697509765625" lon="7.4891017377376556396484375"><ele></ele><time>2020-9-19T10:0:36Z</time></trkpt>
<trkpt lat="46.30820863880217075347900390625" lon="7.489084638655185699462890625"><ele></ele><time>2020-9-19T10:0:39Z</time></trkpt>
<trkpt lat="46.3081969879567623138427734375" lon="7.48906619846820831298828125"><ele></ele><time>2020-9-19T10:0:42Z</time></trkpt>
<trkpt lat="46.30818843841552734375" lon="7.48904876410961151123046875"><ele></ele><time>2020-9-19T10:0:45Z</time></trkpt>
<trkpt lat="46.30817703902721405029296875" lon="7.4890288151800632476806640625"><ele></ele><time>2020-9-19T10:0:48Z</time></trkpt>
<trkpt lat="46.308169662952423095703125" lon="7.489009201526641845703125"><ele></ele><time>2020-9-19T10:0:51Z</time></trkpt>
<trkpt lat="46.308161281049251556396484375" lon="7.48898648656904697418212890625"><ele></ele><time>2020-9-19T10:0:54Z</time></trkpt>
<trkpt lat="46.30815248005092144012451171875" lon="7.48895932920277118682861328125"><ele></ele><time>2020-9-19T10:0:57Z</time></trkpt>
<trkpt lat="46.3081433437764644622802734375" lon="7.4889354407787322998046875"><ele></ele><time>2020-9-19T10:1:0Z</time></trkpt>
<trkpt lat="46.30813688971102237701416015625" lon="7.48891037888824939727783203125"><ele></ele><time>2020-9-19T10:1:3Z</time></trkpt>
<trkpt lat="46.308127082884311676025390625" lon="7.48888489790260791778564453125"><ele></ele><time>2020-9-19T10:1:6Z</time></trkpt>
<trkpt lat="46.308115012943744659423828125" lon="7.48886100947856903076171875"><ele></ele><time>2020-9-19T10:1:9Z</time></trkpt>
<trkpt lat="46.30810520611703395843505859375" lon="7.48883477412164211273193359375"><ele></ele><time>2020-9-19T10:1:12Z</time></trkpt>
<trkpt lat="46.308092214167118072509765625" lon="7.48881113715469837188720703125"><ele></ele><time>2020-9-19T10:1:15Z</time></trkpt>
<trkpt lat="46.30807578563690185546875" lon="7.48879001475870609283447265625"><ele></ele><time>2020-9-19T10:1:18Z</time></trkpt>
<trkpt lat="46.30806170403957366943359375" lon="7.4887703172862529754638671875"><ele></ele><time>2020-9-19T10:1:21Z</time></trkpt>
<trkpt lat="46.30804770626127719879150390625" lon="7.4887502007186412811279296875"><ele></ele><time>2020-9-19T10:1:24Z</time></trkpt>
<trkpt lat="46.30803345702588558197021484375" lon="7.48873150907456874847412109375"><ele></ele><time>2020-9-19T10:1:27Z</time></trkpt>
<trkpt lat="46.30802323110401630401611328125" lon="7.4887092970311641693115234375"><ele></ele><time>2020-9-19T10:1:30Z</time></trkpt>
<trkpt lat="46.3080166094005107879638671875" lon="7.488681972026824951171875"><ele></ele><time>2020-9-19T10:1:33Z</time></trkpt>
<trkpt lat="46.3080058805644512176513671875" lon="7.48865313827991485595703125"><ele></ele><time>2020-9-19T10:1:36Z</time></trkpt>
<trkpt lat="46.30799624137580394744873046875" lon="7.48862774111330509185791015625"><ele></ele><time>2020-9-19T10:1:39Z</time></trkpt>
<trkpt lat="46.307986937463283538818359375" lon="7.488604523241519927978515625"><ele></ele><time>2020-9-19T10:1:42Z</time></trkpt>
<trkpt lat="46.3079805672168731689453125" lon="7.48857862316071987152099609375"><ele></ele><time>2020-9-19T10:1:45Z</time></trkpt>
<trkpt lat="46.307971179485321044921875" lon="7.48855113051831722259521484375"><ele></ele><time>2020-9-19T10:1:48Z</time></trkpt>
<trkpt lat="46.30796154029667377471923828125" lon="7.4885275773704051971435546875"><ele></ele><time>2020-9-19T10:1:51Z</time></trkpt>
<trkpt lat="46.30795232020318508148193359375" lon="7.4885022640228271484375"><ele></ele><time>2020-9-19T10:1:54Z</time></trkpt>
<trkpt lat="46.30794494412839412689208984375" lon="7.4884779565036296844482421875"><ele></ele><time>2020-9-19T10:1:57Z</time></trkpt>
<trkpt lat="46.30793471820652484893798828125" lon="7.4884553253650665283203125"><ele></ele><time>2020-9-19T10:2:0Z</time></trkpt>
<trkpt lat="46.30792147479951381683349609375" lon="7.488429844379425048828125"><ele></ele><time>2020-9-19T10:2:3Z</time></trkpt>
<trkpt lat="46.30790621973574161529541015625" lon="7.48840260319411754608154296875"><ele></ele><time>2020-9-19T10:2:6Z</time></trkpt>
<trkpt lat="46.30789532326161861419677734375" lon="7.4883763678371906280517578125"><ele></ele><time>2020-9-19T10:2:9Z</time></trkpt>
<trkpt lat="46.30788543261587619781494140625" lon="7.4883478693664073944091796875"><ele></ele><time>2020-9-19T10:2:12Z</time></trkpt>
<trkpt lat="46.3078754581511020660400390625" lon="7.4883193708956241607666015625"><ele></ele><time>2020-9-19T10:2:15Z</time></trkpt>
<trkpt lat="46.30786565132439136505126953125" lon="7.4882917106151580810546875"><ele></ele><time>2020-9-19T10:2:18Z</time></trkpt>
<trkpt lat="46.30785793997347354888916015625" lon="7.4882650561630725860595703125"><ele></ele><time>2020-9-19T10:2:21Z</time></trkpt>
<trkpt lat="46.3078509829938411712646484375" lon="7.48823739588260650634765625"><ele></ele><time>2020-9-19T10:2:24Z</time></trkpt>
<trkpt lat="46.30784134380519390106201171875" lon="7.48820998705923557281494140625"><ele></ele><time>2020-9-19T10:2:27Z</time></trkpt>
<trkpt lat="46.3078330457210540771484375" lon="7.4881862662732601165771484375"><ele></ele><time>2020-9-19T10:2:30Z</time></trkpt>
<trkpt lat="46.3078251667320728302001953125" lon="7.4881631322205066680908203125"><ele></ele><time>2020-9-19T10:2:33Z</time></trkpt>
<trkpt lat="46.30781787447631359100341796875" lon="7.488139159977436065673828125"><ele></ele><time>2020-9-19T10:2:36Z</time></trkpt>
<trkpt lat="46.30781359970569610595703125" lon="7.48811493627727031707763671875"><ele></ele><time>2020-9-19T10:2:39Z</time></trkpt>
<trkpt lat="46.3078053854405879974365234375" lon="7.48809314332902431488037109375"><ele></ele><time>2020-9-19T10:2:42Z</time></trkpt>
<trkpt lat="46.30779842846095561981201171875" lon="7.48807369731366634368896484375"><ele></ele><time>2020-9-19T10:2:45Z</time></trkpt>
<trkpt lat="46.30779507569968700408935546875" lon="7.4880528263747692108154296875"><ele></ele><time>2020-9-19T10:2:48Z</time></trkpt>
<trkpt lat="46.30779105238616466522216796875" lon="7.4880343861877918243408203125"><ele></ele><time>2020-9-19T10:2:51Z</time></trkpt>
<trkpt lat="46.3077849335968494415283203125" lon="7.4880146048963069915771484375"><ele></ele><time>2020-9-19T10:2:54Z</time></trkpt>
<trkpt lat="46.3077819161117076873779296875" lon="7.48799457214772701263427734375"><ele></ele><time>2020-9-19T10:2:57Z</time></trkpt>
<trkpt lat="46.30777764134109020233154296875" lon="7.48797110281884670257568359375"><ele></ele><time>2020-9-19T10:3:0Z</time></trkpt>
<trkpt lat="46.307770349085330963134765625" lon="7.48794763348996639251708984375"><ele></ele><time>2020-9-19T10:3:3Z</time></trkpt>
<trkpt lat="46.30776054225862026214599609375" lon="7.4879244156181812286376953125"><ele></ele><time>2020-9-19T10:3:6Z</time></trkpt>
<trkpt lat="46.30775383673608303070068359375" lon="7.48789885081350803375244140625"><ele></ele><time>2020-9-19T10:3:9Z</time></trkpt>
<trkpt lat="46.3077504001557826995849609375" lon="7.4878706037998199462890625"><ele></ele><time>2020-9-19T10:3:12Z</time></trkpt>
<trkpt lat="46.30774528719484806060791015625" lon="7.4878416024148464202880859375"><ele></ele><time>2020-9-19T10:3:15Z</time></trkpt>
<trkpt lat="46.30774109624326229095458984375" lon="7.487809918820858001708984375"><ele></ele><time>2020-9-19T10:3:18Z</time></trkpt>
<trkpt lat="46.307735145092010498046875" lon="7.4877794086933135986328125"><ele></ele><time>2020-9-19T10:3:21Z</time></trkpt>
<trkpt lat="46.30773304961621761322021484375" lon="7.4877504073083400726318359375"><ele></ele><time>2020-9-19T10:3:24Z</time></trkpt>
<trkpt lat="46.30772969685494899749755859375" lon="7.48772232793271541595458984375"><ele></ele><time>2020-9-19T10:3:27Z</time></trkpt>
<trkpt lat="46.30772416479885578155517578125" lon="7.48769483529031276702880859375"><ele></ele><time>2020-9-19T10:3:30Z</time></trkpt>
<trkpt lat="46.30771745927631855010986328125" lon="7.4876692704856395721435546875"><ele></ele><time>2020-9-19T10:3:33Z</time></trkpt>
<trkpt lat="46.307711340487003326416015625" lon="7.48764404095709323883056640625"><ele></ele><time>2020-9-19T10:3:36Z</time></trkpt>
<trkpt lat="46.3077068142592906951904296875" lon="7.487620152533054351806640625"><ele></ele><time>2020-9-19T10:3:39Z</time></trkpt>
<trkpt lat="46.30769935436546802520751953125" lon="7.48759509064257144927978515625"><ele></ele><time>2020-9-19T10:3:42Z</time></trkpt>
<trkpt lat="46.3076908886432647705078125" lon="7.48756893910467624664306640625"><ele></ele><time>2020-9-19T10:3:45Z</time></trkpt>
<trkpt lat="46.30768661387264728546142578125" lon="7.4875432066619396209716796875"><ele></ele><time>2020-9-19T10:3:48Z</time></trkpt>
<trkpt lat="46.30768326111137866973876953125" lon="7.48751278035342693328857421875"><ele></ele><time>2020-9-19T10:3:51Z</time></trkpt>
<trkpt lat="46.30768024362623691558837890625" lon="7.48748235404491424560546875"><ele></ele><time>2020-9-19T10:3:54Z</time></trkpt>
<trkpt lat="46.30767873488366603851318359375" lon="7.4874499998986721038818359375"><ele></ele><time>2020-9-19T10:3:57Z</time></trkpt>
<trkpt lat="46.307676136493682861328125" lon="7.4874181486666202545166015625"><ele></ele><time>2020-9-19T10:4:0Z</time></trkpt>
<trkpt lat="46.30767169408500194549560546875" lon="7.487388141453266143798828125"><ele></ele><time>2020-9-19T10:4:3Z</time></trkpt>
<trkpt lat="46.30766934715211391448974609375" lon="7.48735553584992885589599609375"><ele></ele><time>2020-9-19T10:4:6Z</time></trkpt>
<trkpt lat="46.30766582675278186798095703125" lon="7.48732603155076503753662109375"><ele></ele><time>2020-9-19T10:4:9Z</time></trkpt>
<trkpt lat="46.307660378515720367431640625" lon="7.4872992932796478271484375"><ele></ele><time>2020-9-19T10:4:12Z</time></trkpt>
<trkpt lat="46.30765493027865886688232421875" lon="7.48727305792272090911865234375"><ele></ele><time>2020-9-19T10:4:15Z</time></trkpt>
<trkpt lat="46.30765409208834171295166015625" lon="7.48724497854709625244140625"><ele></ele><time>2020-9-19T10:4:18Z</time></trkpt>
<trkpt lat="46.3076491467654705047607421875" lon="7.4872136302292346954345703125"><ele></ele><time>2020-9-19T10:4:21Z</time></trkpt>
<trkpt lat="46.307649649679660797119140625" lon="7.4871821142733097076416015625"><ele></ele><time>2020-9-19T10:4:24Z</time></trkpt>
<trkpt lat="46.30764336325228214263916015625" lon="7.48714883811771869659423828125"><ele></ele><time>2020-9-19T10:4:27Z</time></trkpt>
<trkpt lat="46.307639591395854949951171875" lon="7.4871184118092060089111328125"><ele></ele><time>2020-9-19T10:4:30Z</time></trkpt>
<trkpt lat="46.30763581953942775726318359375" lon="7.48708949424326419830322265625"><ele></ele><time>2020-9-19T10:4:33Z</time></trkpt>
<trkpt lat="46.307633221149444580078125" lon="7.4870577268302440643310546875"><ele></ele><time>2020-9-19T10:4:36Z</time></trkpt>
<trkpt lat="46.3076305389404296875" lon="7.487026043236255645751953125"><ele></ele><time>2020-9-19T10:4:39Z</time></trkpt>
<trkpt lat="46.30762643180787563323974609375" lon="7.48699477873742580413818359375"><ele></ele><time>2020-9-19T10:4:42Z</time></trkpt>
<trkpt lat="46.30762240849435329437255859375" lon="7.4869640171527862548828125"><ele></ele><time>2020-9-19T10:4:45Z</time></trkpt>
<trkpt lat="46.30761913955211639404296875" lon="7.4869345128536224365234375"><ele></ele><time>2020-9-19T10:4:48Z</time></trkpt>
<trkpt lat="46.307614780962467193603515625" lon="7.48690542764961719512939453125"><ele></ele><time>2020-9-19T10:4:51Z</time></trkpt>
<trkpt lat="46.3076095841825008392333984375" lon="7.4868753366172313690185546875"><ele></ele><time>2020-9-19T10:4:54Z</time></trkpt>
<trkpt lat="46.30760572850704193115234375" lon="7.4868448264896869659423828125"><ele></ele><time>2020-9-19T10:4:57Z</time></trkpt>
<trkpt lat="46.307602040469646453857421875" lon="7.48681507073342800140380859375"><ele></ele><time>2020-9-19T10:5:0Z</time></trkpt>
<trkpt lat="46.307598687708377838134765625" lon="7.48678632080554962158203125"><ele></ele><time>2020-9-19T10:5:3Z</time></trkpt>
<trkpt lat="46.30759290419518947601318359375" lon="7.4867579899728298187255859375"><ele></ele><time>2020-9-19T10:5:6Z</time></trkpt>
<trkpt lat="46.30758737213909626007080078125" lon="7.48673024587333202362060546875"><ele></ele><time>2020-9-19T10:5:9Z</time></trkpt>
<trkpt lat="46.30758184008300304412841796875" lon="7.486703507602214813232421875"><ele></ele><time>2020-9-19T10:5:12Z</time></trkpt>
<trkpt lat="46.30757697857916355133056640625" lon="7.48667693696916103363037109375"><ele></ele><time>2020-9-19T10:5:15Z</time></trkpt>
<trkpt lat="46.30757144652307033538818359375" lon="7.4866503663361072540283203125"><ele></ele><time>2020-9-19T10:5:18Z</time></trkpt>
<trkpt lat="46.30756742320954799652099609375" lon="7.486623711884021759033203125"><ele></ele><time>2020-9-19T10:5:21Z</time></trkpt>
<trkpt lat="46.307562477886676788330078125" lon="7.48659596778452396392822265625"><ele></ele><time>2020-9-19T10:5:24Z</time></trkpt>
<trkpt lat="46.3075562752783298492431640625" lon="7.48656663112342357635498046875"><ele></ele><time>2020-9-19T10:5:27Z</time></trkpt>
<trkpt lat="46.30754998885095119476318359375" lon="7.4865380488336086273193359375"><ele></ele><time>2020-9-19T10:5:30Z</time></trkpt>
<trkpt lat="46.3075415231287479400634765625" lon="7.48650963418185710906982421875"><ele></ele><time>2020-9-19T10:5:33Z</time></trkpt>
<trkpt lat="46.30753674544394016265869140625" lon="7.48648113571107387542724609375"><ele></ele><time>2020-9-19T10:5:36Z</time></trkpt>
<trkpt lat="46.30753154866397380828857421875" lon="7.48645330779254436492919921875"><ele></ele><time>2020-9-19T10:5:39Z</time></trkpt>
<trkpt lat="46.30752618424594402313232421875" lon="7.486425898969173431396484375"><ele></ele><time>2020-9-19T10:5:42Z</time></trkpt>
<trkpt lat="46.30752123892307281494140625" lon="7.48639865778386592864990234375"><ele></ele><time>2020-9-19T10:5:45Z</time></trkpt>
<trkpt lat="46.307516209781169891357421875" lon="7.48637082986533641815185546875"><ele></ele><time>2020-9-19T10:5:48Z</time></trkpt>
<trkpt lat="46.30751210264861583709716796875" lon="7.48634300194680690765380859375"><ele></ele><time>2020-9-19T10:5:51Z</time></trkpt>
<trkpt lat="46.30750673823058605194091796875" lon="7.486315257847309112548828125"><ele></ele><time>2020-9-19T10:5:54Z</time></trkpt>
<trkpt lat="46.30750070326030254364013671875" lon="7.486287765204906463623046875"><ele></ele><time>2020-9-19T10:5:57Z</time></trkpt>
<trkpt lat="46.30749517120420932769775390625" lon="7.4862594343721866607666015625"><ele></ele><time>2020-9-19T10:6:0Z</time></trkpt>
<trkpt lat="46.3074912317097187042236328125" lon="7.48623101972043514251708984375"><ele></ele><time>2020-9-19T10:6:3Z</time></trkpt>
<trkpt lat="46.3074878789484500885009765625" lon="7.48620302416384220123291015625"><ele></ele><time>2020-9-19T10:6:6Z</time></trkpt>
<trkpt lat="46.307483352720737457275390625" lon="7.48617486096918582916259765625"><ele></ele><time>2020-9-19T10:6:9Z</time></trkpt>
<trkpt lat="46.30747840739786624908447265625" lon="7.48614728450775146484375"><ele></ele><time>2020-9-19T10:6:12Z</time></trkpt>
<trkpt lat="46.30747564136981964111328125" lon="7.486119456589221954345703125"><ele></ele><time>2020-9-19T10:6:15Z</time></trkpt>
<trkpt lat="46.307472288608551025390625" lon="7.48609154485166072845458984375"><ele></ele><time>2020-9-19T10:6:18Z</time></trkpt>
<trkpt lat="46.30746767856180667877197265625" lon="7.48606271110475063323974609375"><ele></ele><time>2020-9-19T10:6:21Z</time></trkpt>
<trkpt lat="46.3074654154479503631591796875" lon="7.4860341288149356842041015625"><ele></ele><time>2020-9-19T10:6:24Z</time></trkpt>
<trkpt lat="46.30746399052441120147705078125" lon="7.48600403778254985809326171875"><ele></ele><time>2020-9-19T10:6:27Z</time></trkpt>
<trkpt lat="46.30746264941990375518798828125" lon="7.48597570694983005523681640625"><ele></ele><time>2020-9-19T10:6:30Z</time></trkpt>
<trkpt lat="46.3074593804776668548583984375" lon="7.48594670556485652923583984375"><ele></ele><time>2020-9-19T10:6:33Z</time></trkpt>
<trkpt lat="46.3074570335447788238525390625" lon="7.48591837473213672637939453125"><ele></ele><time>2020-9-19T10:6:36Z</time></trkpt>
<trkpt lat="46.30745443515479564666748046875" lon="7.4858909659087657928466796875"><ele></ele><time>2020-9-19T10:6:39Z</time></trkpt>
<trkpt lat="46.30745074711740016937255859375" lon="7.48586288653314113616943359375"><ele></ele><time>2020-9-19T10:6:42Z</time></trkpt>
<trkpt lat="46.3074473105370998382568359375" lon="7.48583539389073848724365234375"><ele></ele><time>2020-9-19T10:6:45Z</time></trkpt>
<trkpt lat="46.30744487978518009185791015625" lon="7.4858084879815578460693359375"><ele></ele><time>2020-9-19T10:6:48Z</time></trkpt>
<trkpt lat="46.307442449033260345458984375" lon="7.48578124679625034332275390625"><ele></ele><time>2020-9-19T10:6:51Z</time></trkpt>
<trkpt lat="46.307439096271991729736328125" lon="7.48575509525835514068603515625"><ele></ele><time>2020-9-19T10:6:54Z</time></trkpt>
<trkpt lat="46.30743616260588169097900390625" lon="7.4857286922633647918701171875"><ele></ele><time>2020-9-19T10:6:57Z</time></trkpt>
<trkpt lat="46.3074342347681522369384765625" lon="7.48570212163031101226806640625"><ele></ele><time>2020-9-19T10:7:0Z</time></trkpt>
<trkpt lat="46.30743230693042278289794921875" lon="7.485675550997257232666015625"><ele></ele><time>2020-9-19T10:7:3Z</time></trkpt>
<trkpt lat="46.3074302114546298980712890625" lon="7.48564763925969600677490234375"><ele></ele><time>2020-9-19T10:7:6Z</time></trkpt>
<trkpt lat="46.30742593668401241302490234375" lon="7.4856197275221347808837890625"><ele></ele><time>2020-9-19T10:7:9Z</time></trkpt>
<trkpt lat="46.307420320808887481689453125" lon="7.48559231869876384735107421875"><ele></ele><time>2020-9-19T10:7:12Z</time></trkpt>
<trkpt lat="46.30741596221923828125" lon="7.48556415550410747528076171875"><ele></ele><time>2020-9-19T10:7:15Z</time></trkpt>
<trkpt lat="46.3074094243347644805908203125" lon="7.4855352379381656646728515625"><ele></ele><time>2020-9-19T10:7:18Z</time></trkpt>
<trkpt lat="46.30740196444094181060791015625" lon="7.48550548218190670013427734375"><ele></ele><time>2020-9-19T10:7:21Z</time></trkpt>
<trkpt lat="46.3073958456516265869140625" lon="7.48547597788274288177490234375"><ele></ele><time>2020-9-19T10:7:24Z</time></trkpt>
<trkpt lat="46.30739173851907253265380859375" lon="7.4854460544884204864501953125"><ele></ele><time>2020-9-19T10:7:27Z</time></trkpt>
<trkpt lat="46.30738754756748676300048828125" lon="7.4854188971221446990966796875"><ele></ele><time>2020-9-19T10:7:30Z</time></trkpt>
<trkpt lat="46.30738385953009128570556640625" lon="7.48539014719426631927490234375"><ele></ele><time>2020-9-19T10:7:33Z</time></trkpt>
<trkpt lat="46.30737899802625179290771484375" lon="7.4853615649044513702392578125"><ele></ele><time>2020-9-19T10:7:36Z</time></trkpt>
<trkpt lat="46.30737463943660259246826171875" lon="7.485334239900112152099609375"><ele></ele><time>2020-9-19T10:7:39Z</time></trkpt>
<trkpt lat="46.30737237632274627685546875" lon="7.4853072501718997955322265625"><ele></ele><time>2020-9-19T10:7:42Z</time></trkpt>
<trkpt lat="46.3073712028563022613525390625" lon="7.48528051190078258514404296875"><ele></ele><time>2020-9-19T10:7:45Z</time></trkpt>
<trkpt lat="46.3073681853711605072021484375" lon="7.48525503091514110565185546875"><ele></ele><time>2020-9-19T10:7:48Z</time></trkpt>
<trkpt lat="46.3073655031621456146240234375" lon="7.4852314777672290802001953125"><ele></ele><time>2020-9-19T10:7:51Z</time></trkpt>
<trkpt lat="46.3073638267815113067626953125" lon="7.4852090142667293548583984375"><ele></ele><time>2020-9-19T10:7:54Z</time></trkpt>
<trkpt lat="46.30736273713409900665283203125" lon="7.4851838685572147369384765625"><ele></ele><time>2020-9-19T10:7:57Z</time></trkpt>
<trkpt lat="46.30736005492508411407470703125" lon="7.4851546995341777801513671875"><ele></ele><time>2020-9-19T10:8:0Z</time></trkpt>
<trkpt lat="46.3073571212589740753173828125" lon="7.4851251952350139617919921875"><ele></ele><time>2020-9-19T10:8:3Z</time></trkpt>
<trkpt lat="46.30735267885029315948486328125" lon="7.48509728349745273590087890625"><ele></ele><time>2020-9-19T10:8:6Z</time></trkpt>
<trkpt lat="46.30734982900321483612060546875" lon="7.485066689550876617431640625"><ele></ele><time>2020-9-19T10:8:9Z</time></trkpt>
<trkpt lat="46.3073487393558025360107421875" lon="7.48503793962299823760986328125"><ele></ele><time>2020-9-19T10:8:12Z</time></trkpt>
<trkpt lat="46.3073460571467876434326171875" lon="7.4850101955235004425048828125"><ele></ele><time>2020-9-19T10:8:15Z</time></trkpt>
<trkpt lat="46.30734245292842388153076171875" lon="7.48498429544270038604736328125"><ele></ele><time>2020-9-19T10:8:18Z</time></trkpt>
<trkpt lat="46.3073386810719966888427734375" lon="7.48495730571448802947998046875"><ele></ele><time>2020-9-19T10:8:21Z</time></trkpt>
<trkpt lat="46.3073346577584743499755859375" lon="7.48492880724370479583740234375"><ele></ele><time>2020-9-19T10:8:24Z</time></trkpt>
<trkpt lat="46.307327784597873687744140625" lon="7.4848995544016361236572265625"><ele></ele><time>2020-9-19T10:8:27Z</time></trkpt>
<trkpt lat="46.30731512792408466339111328125" lon="7.48487147502601146697998046875"><ele></ele><time>2020-9-19T10:8:30Z</time></trkpt>
<trkpt lat="46.3073064945638179779052734375" lon="7.48484197072684764862060546875"><ele></ele><time>2020-9-19T10:8:33Z</time></trkpt>
<trkpt lat="46.3072977773845195770263671875" lon="7.4848170764744281768798828125"><ele></ele><time>2020-9-19T10:8:36Z</time></trkpt>
<trkpt lat="46.30728788673877716064453125" lon="7.4847879074513912200927734375"><ele></ele><time>2020-9-19T10:8:39Z</time></trkpt>
<trkpt lat="46.30727573297917842864990234375" lon="7.48476251028478145599365234375"><ele></ele><time>2020-9-19T10:8:42Z</time></trkpt>
<trkpt lat="46.30726684816181659698486328125" lon="7.48473652638494968414306640625"><ele></ele><time>2020-9-19T10:8:45Z</time></trkpt>
<trkpt lat="46.30725846625864505767822265625" lon="7.4847117997705936431884765625"><ele></ele><time>2020-9-19T10:8:48Z</time></trkpt>
<trkpt lat="46.30725008435547351837158203125" lon="7.4846868216991424560546875"><ele></ele><time>2020-9-19T10:8:51Z</time></trkpt>
<trkpt lat="46.3072444684803485870361328125" lon="7.4846615083515644073486328125"><ele></ele><time>2020-9-19T10:8:54Z</time></trkpt>
<trkpt lat="46.30723566748201847076416015625" lon="7.48463661409914493560791015625"><ele></ele><time>2020-9-19T10:8:57Z</time></trkpt>
<trkpt lat="46.3072340749204158782958984375" lon="7.48461012728512287139892578125"><ele></ele><time>2020-9-19T10:9:0Z</time></trkpt>
<trkpt lat="46.307225860655307769775390625" lon="7.48458196409046649932861328125"><ele></ele><time>2020-9-19T10:9:3Z</time></trkpt>
<trkpt lat="46.3072179816663265228271484375" lon="7.48455480672419071197509765625"><ele></ele><time>2020-9-19T10:9:6Z</time></trkpt>
<trkpt lat="46.307211108505725860595703125" lon="7.4845290742814540863037109375"><ele></ele><time>2020-9-19T10:9:9Z</time></trkpt>
<trkpt lat="46.3072059117257595062255859375" lon="7.4845019169151782989501953125"><ele></ele><time>2020-9-19T10:9:12Z</time></trkpt>
<trkpt lat="46.30719996057450771331787109375" lon="7.48447182588279247283935546875"><ele></ele><time>2020-9-19T10:9:15Z</time></trkpt>
<trkpt lat="46.307193338871002197265625" lon="7.484438717365264892578125"><ele></ele><time>2020-9-19T10:9:18Z</time></trkpt>
<trkpt lat="46.3071868009865283966064453125" lon="7.484411559998989105224609375"><ele></ele><time>2020-9-19T10:9:21Z</time></trkpt>
<trkpt lat="46.3071764074265956878662109375" lon="7.48438733629882335662841796875"><ele></ele><time>2020-9-19T10:9:24Z</time></trkpt>
<trkpt lat="46.3071660138666629791259765625" lon="7.48435867018997669219970703125"><ele></ele><time>2020-9-19T10:9:27Z</time></trkpt>
<trkpt lat="46.307158805429935455322265625" lon="7.48433411121368408203125"><ele></ele><time>2020-9-19T10:9:30Z</time></trkpt>
<trkpt lat="46.30715436302125453948974609375" lon="7.48430795967578887939453125"><ele></ele><time>2020-9-19T10:9:33Z</time></trkpt>
<trkpt lat="46.30715117789804935455322265625" lon="7.48428373597562313079833984375"><ele></ele><time>2020-9-19T10:9:36Z</time></trkpt>
<trkpt lat="46.30714329890906810760498046875" lon="7.4842591769993305206298828125"><ele></ele><time>2020-9-19T10:9:39Z</time></trkpt>
<trkpt lat="46.30712988786399364471435546875" lon="7.4842370487749576568603515625"><ele></ele><time>2020-9-19T10:9:42Z</time></trkpt>
<trkpt lat="46.3071170635521411895751953125" lon="7.4842172674834728240966796875"><ele></ele><time>2020-9-19T10:9:45Z</time></trkpt>
<trkpt lat="46.30710591562092304229736328125" lon="7.48420176096260547637939453125"><ele></ele><time>2020-9-19T10:9:48Z</time></trkpt>
<trkpt lat="46.30710038356482982635498046875" lon="7.48418147675693035125732421875"><ele></ele><time>2020-9-19T10:9:51Z</time></trkpt>
<trkpt lat="46.30709342658519744873046875" lon="7.4841626174747943878173828125"><ele></ele><time>2020-9-19T10:9:54Z</time></trkpt>
<trkpt lat="46.30708177573978900909423828125" lon="7.48414509929716587066650390625"><ele></ele><time>2020-9-19T10:9:57Z</time></trkpt>
<trkpt lat="46.30707020871341228485107421875" lon="7.484127245843410491943359375"><ele></ele><time>2020-9-19T10:10:0Z</time></trkpt>
<trkpt lat="46.30706082098186016082763671875" lon="7.48411190696060657501220703125"><ele></ele><time>2020-9-19T10:10:3Z</time></trkpt>
<trkpt lat="46.307052858173847198486328125" lon="7.4840932153165340423583984375"><ele></ele><time>2020-9-19T10:10:6Z</time></trkpt>
<trkpt lat="46.30703978240489959716796875" lon="7.484068907797336578369140625"><ele></ele><time>2020-9-19T10:10:9Z</time></trkpt>
<trkpt lat="46.3070248626172542572021484375" lon="7.48405004851520061492919921875"><ele></ele><time>2020-9-19T10:10:12Z</time></trkpt>
<trkpt lat="46.30701589398086071014404296875" lon="7.4840231426060199737548828125"><ele></ele><time>2020-9-19T10:10:15Z</time></trkpt>
<trkpt lat="46.30700734443962574005126953125" lon="7.4840023554861545562744140625"><ele></ele><time>2020-9-19T10:10:18Z</time></trkpt>
<trkpt lat="46.30699594505131244659423828125" lon="7.4839802272617816925048828125"><ele></ele><time>2020-9-19T10:10:21Z</time></trkpt>
<trkpt lat="46.3069812767207622528076171875" lon="7.483956255018711090087890625"><ele></ele><time>2020-9-19T10:10:24Z</time></trkpt>
<trkpt lat="46.306973062455654144287109375" lon="7.4839358031749725341796875"><ele></ele><time>2020-9-19T10:10:27Z</time></trkpt>
<trkpt lat="46.306962668895721435546875" lon="7.4839138425886631011962890625"><ele></ele><time>2020-9-19T10:10:30Z</time></trkpt>
<trkpt lat="46.30695252679288387298583984375" lon="7.48388408683240413665771484375"><ele></ele><time>2020-9-19T10:10:33Z</time></trkpt>
<trkpt lat="46.3069450668990612030029296875" lon="7.483843266963958740234375"><ele></ele><time>2020-9-19T10:10:36Z</time></trkpt>
<trkpt lat="46.306932158768177032470703125" lon="7.483811080455780029296875"><ele></ele><time>2020-9-19T10:10:39Z</time></trkpt>
<trkpt lat="46.306922435760498046875" lon="7.4837820790708065032958984375"><ele></ele><time>2020-9-19T10:10:42Z</time></trkpt>
<trkpt lat="46.3069122098386287689208984375" lon="7.4837505631148815155029296875"><ele></ele><time>2020-9-19T10:10:45Z</time></trkpt>
<trkpt lat="46.306901313364505767822265625" lon="7.4837227351963520050048828125"><ele></ele><time>2020-9-19T10:10:48Z</time></trkpt>
<trkpt lat="46.30689469166100025177001953125" lon="7.4836959131062030792236328125"><ele></ele><time>2020-9-19T10:10:51Z</time></trkpt>
<trkpt lat="46.30688555538654327392578125" lon="7.48367688618600368499755859375"><ele></ele><time>2020-9-19T10:10:54Z</time></trkpt>
<trkpt lat="46.30688429810106754302978515625" lon="7.483655177056789398193359375"><ele></ele><time>2020-9-19T10:10:57Z</time></trkpt>
<trkpt lat="46.30687558092176914215087890625" lon="7.48363916762173175811767578125"><ele></ele><time>2020-9-19T10:11:0Z</time></trkpt>
<trkpt lat="46.30686166696250438690185546875" lon="7.48361838050186634063720703125"><ele></ele><time>2020-9-19T10:11:3Z</time></trkpt>
<trkpt lat="46.30683861672878265380859375" lon="7.48359382152557373046875"><ele></ele><time>2020-9-19T10:11:6Z</time></trkpt>
<trkpt lat="46.30682176910340785980224609375" lon="7.48356959782540798187255859375"><ele></ele><time>2020-9-19T10:11:9Z</time></trkpt>
<trkpt lat="46.306801401078701019287109375" lon="7.48354394920170307159423828125"><ele></ele><time>2020-9-19T10:11:12Z</time></trkpt>
<trkpt lat="46.30678287707269191741943359375" lon="7.4835235811769962310791015625"><ele></ele><time>2020-9-19T10:11:15Z</time></trkpt>
<trkpt lat="46.30676577799022197723388671875" lon="7.48350338079035282135009765625"><ele></ele><time>2020-9-19T10:11:18Z</time></trkpt>
<trkpt lat="46.3067467510700225830078125" lon="7.4834813363850116729736328125"><ele></ele><time>2020-9-19T10:11:21Z</time></trkpt>
<trkpt lat="46.306728981435298919677734375" lon="7.48345962725579738616943359375"><ele></ele><time>2020-9-19T10:11:24Z</time></trkpt>
<trkpt lat="46.30671079270541667938232421875" lon="7.48344160616397857666015625"><ele></ele><time>2020-9-19T10:11:27Z</time></trkpt>
<trkpt lat="46.3066919334232807159423828125" lon="7.48342291451990604400634765625"><ele></ele><time>2020-9-19T10:11:30Z</time></trkpt>
<trkpt lat="46.30667475052177906036376953125" lon="7.48340405523777008056640625"><ele></ele><time>2020-9-19T10:11:33Z</time></trkpt>
<trkpt lat="46.3066580705344676971435546875" lon="7.48338486067950725555419921875"><ele></ele><time>2020-9-19T10:11:36Z</time></trkpt>
<trkpt lat="46.30664407275617122650146484375" lon="7.48336474411189556121826171875"><ele></ele><time>2020-9-19T10:11:39Z</time></trkpt>
<trkpt lat="46.30663074553012847900390625" lon="7.4833472259342670440673828125"><ele></ele><time>2020-9-19T10:11:42Z</time></trkpt>
<trkpt lat="46.306613981723785400390625" lon="7.483329288661479949951171875"><ele></ele><time>2020-9-19T10:11:45Z</time></trkpt>
<trkpt lat="46.3065980561077594757080078125" lon="7.48331151902675628662109375"><ele></ele><time>2020-9-19T10:11:48Z</time></trkpt>
<trkpt lat="46.3065858185291290283203125" lon="7.4832912348210811614990234375"><ele></ele><time>2020-9-19T10:11:51Z</time></trkpt>
<trkpt lat="46.3065752573311328887939453125" lon="7.4832684360444545745849609375"><ele></ele><time>2020-9-19T10:11:54Z</time></trkpt>
<trkpt lat="46.30656511522829532623291015625" lon="7.4832456372678279876708984375"><ele></ele><time>2020-9-19T10:11:57Z</time></trkpt>
<trkpt lat="46.3065574876964092254638671875" lon="7.4832208268344402313232421875"><ele></ele><time>2020-9-19T10:12:0Z</time></trkpt>
<trkpt lat="46.30654617212712764739990234375" lon="7.4832020513713359832763671875"><ele></ele><time>2020-9-19T10:12:3Z</time></trkpt>
<trkpt lat="46.30653510801494121551513671875" lon="7.48317849822342395782470703125"><ele></ele><time>2020-9-19T10:12:6Z</time></trkpt>
<trkpt lat="46.30652253516018390655517578125" lon="7.4831591360270977020263671875"><ele></ele><time>2020-9-19T10:12:9Z</time></trkpt>
<trkpt lat="46.30650493316352367401123046875" lon="7.4831440486013889312744140625"><ele></ele><time>2020-9-19T10:12:12Z</time></trkpt>
<trkpt lat="46.30634953267872333526611328125" lon="7.48306182213127613067626953125"><ele></ele><time>2020-9-19T10:12:15Z</time></trkpt>
<trkpt lat="46.30630661733448505401611328125" lon="7.48304304666817188262939453125"><ele></ele><time>2020-9-19T10:12:18Z</time></trkpt>
<trkpt lat="46.30626303143799304962158203125" lon="7.4830146320164203643798828125"><ele></ele><time>2020-9-19T10:12:21Z</time></trkpt>
<trkpt lat="46.30621726624667644500732421875" lon="7.48298202641308307647705078125"><ele></ele><time>2020-9-19T10:12:24Z</time></trkpt>
<trkpt lat="46.30617267452180385589599609375" lon="7.48294137418270111083984375"><ele></ele><time>2020-9-19T10:12:27Z</time></trkpt>
<trkpt lat="46.30613051354885101318359375" lon="7.48288571834564208984375"><ele></ele><time>2020-9-19T10:12:30Z</time></trkpt>
<trkpt lat="46.30609028041362762451171875" lon="7.48281170614063739776611328125"><ele></ele><time>2020-9-19T10:12:33Z</time></trkpt>
<trkpt lat="46.3060539029538631439208984375" lon="7.48272805474698543548583984375"><ele></ele><time>2020-9-19T10:12:36Z</time></trkpt>
<trkpt lat="46.306020878255367279052734375" lon="7.4826337583363056182861328125"><ele></ele><time>2020-9-19T10:12:39Z</time></trkpt>
<trkpt lat="46.30594988353550434112548828125" lon="7.48244960792362689971923828125"><ele></ele><time>2020-9-19T10:12:42Z</time></trkpt>
<trkpt lat="46.30590545944869518280029296875" lon="7.482367046177387237548828125"><ele></ele><time>2020-9-19T10:12:45Z</time></trkpt>
<trkpt lat="46.30585868842899799346923828125" lon="7.48229001648724079132080078125"><ele></ele><time>2020-9-19T10:12:48Z</time></trkpt>
<trkpt lat="46.30581342615187168121337890625" lon="7.48221441172063350677490234375"><ele></ele><time>2020-9-19T10:12:51Z</time></trkpt>
<trkpt lat="46.3057677447795867919921875" lon="7.48213537037372589111328125"><ele></ele><time>2020-9-19T10:12:54Z</time></trkpt>
<trkpt lat="46.30572005175054073333740234375" lon="7.4820641241967678070068359375"><ele></ele><time>2020-9-19T10:12:57Z</time></trkpt>
<trkpt lat="46.30556196905672550201416015625" lon="7.481858432292938232421875"><ele></ele><time>2020-9-19T10:13:0Z</time></trkpt>
<trkpt lat="46.3055114261806011199951171875" lon="7.4817871861159801483154296875"><ele></ele><time>2020-9-19T10:13:3Z</time></trkpt>
<trkpt lat="46.30546390078961849212646484375" lon="7.48171904124319553375244140625"><ele></ele><time>2020-9-19T10:13:6Z</time></trkpt>
<trkpt lat="46.30541914142668247222900390625" lon="7.4816527403891086578369140625"><ele></ele><time>2020-9-19T10:13:9Z</time></trkpt>
<trkpt lat="46.30537438206374645233154296875" lon="7.4815893732011318206787109375"><ele></ele><time>2020-9-19T10:13:12Z</time></trkpt>
<trkpt lat="46.30532995797693729400634765625" lon="7.481530196964740753173828125"><ele></ele><time>2020-9-19T10:13:15Z</time></trkpt>
<trkpt lat="46.30528938956558704376220703125" lon="7.48147286474704742431640625"><ele></ele><time>2020-9-19T10:13:18Z</time></trkpt>
<trkpt lat="46.30525217391550540924072265625" lon="7.481417544186115264892578125"><ele></ele><time>2020-9-19T10:13:21Z</time></trkpt>
<trkpt lat="46.30521445535123348236083984375" lon="7.4813654087483882904052734375"><ele></ele><time>2020-9-19T10:13:24Z</time></trkpt>
<trkpt lat="46.30517908371984958648681640625" lon="7.481316290795803070068359375"><ele></ele><time>2020-9-19T10:13:27Z</time></trkpt>
<trkpt lat="46.30514639429748058319091796875" lon="7.4812648259103298187255859375"><ele></ele><time>2020-9-19T10:13:30Z</time></trkpt>
<trkpt lat="46.30511554889380931854248046875" lon="7.48121495358645915985107421875"><ele></ele><time>2020-9-19T10:13:33Z</time></trkpt>
<trkpt lat="46.3050891458988189697265625" lon="7.48116114176809787750244140625"><ele></ele><time>2020-9-19T10:13:36Z</time></trkpt>
<trkpt lat="46.3050663471221923828125" lon="7.48110883869230747222900390625"><ele></ele><time>2020-9-19T10:13:39Z</time></trkpt>
<trkpt lat="46.305043883621692657470703125" lon="7.48105938546359539031982421875"><ele></ele><time>2020-9-19T10:13:42Z</time></trkpt>
<trkpt lat="46.3050229288637638092041015625" lon="7.48101244680583477020263671875"><ele></ele><time>2020-9-19T10:13:45Z</time></trkpt>
<trkpt lat="46.3050024770200252532958984375" lon="7.4809654243290424346923828125"><ele></ele><time>2020-9-19T10:13:48Z</time></trkpt>
<trkpt lat="46.30498210899531841278076171875" lon="7.48092007823288440704345703125"><ele></ele><time>2020-9-19T10:13:51Z</time></trkpt>
<trkpt lat="46.3049609027802944183349609375" lon="7.48087448067963123321533203125"><ele></ele><time>2020-9-19T10:13:54Z</time></trkpt>
<trkpt lat="46.30493919365108013153076171875" lon="7.48082553036510944366455078125"><ele></ele><time>2020-9-19T10:13:57Z</time></trkpt>
<trkpt lat="46.3049189932644367218017578125" lon="7.4807783402502536773681640625"><ele></ele><time>2020-9-19T10:14:0Z</time></trkpt>
<trkpt lat="46.3049002178013324737548828125" lon="7.4807305634021759033203125"><ele></ele><time>2020-9-19T10:14:3Z</time></trkpt>
<trkpt lat="46.30488303489983081817626953125" lon="7.4806841276586055755615234375"><ele></ele><time>2020-9-19T10:14:6Z</time></trkpt>
<trkpt lat="46.30486492998898029327392578125" lon="7.480643726885318756103515625"><ele></ele><time>2020-9-19T10:14:9Z</time></trkpt>
<trkpt lat="46.30484363995492458343505859375" lon="7.48061229474842548370361328125"><ele></ele><time>2020-9-19T10:14:12Z</time></trkpt>
<trkpt lat="46.30481799133121967315673828125" lon="7.48059905134141445159912109375"><ele></ele><time>2020-9-19T10:14:15Z</time></trkpt>
<trkpt lat="46.30479083396494388580322265625" lon="7.48060072772204875946044921875"><ele></ele><time>2020-9-19T10:14:18Z</time></trkpt>
<trkpt lat="46.30476501770317554473876953125" lon="7.4806013144552707672119140625"><ele></ele><time>2020-9-19T10:14:21Z</time></trkpt>
<trkpt lat="46.30474272184073925018310546875" lon="7.48058907687664031982421875"><ele></ele><time>2020-9-19T10:14:24Z</time></trkpt>
<trkpt lat="46.30472629331052303314208984375" lon="7.48056803829967975616455078125"><ele></ele><time>2020-9-19T10:14:27Z</time></trkpt>
<trkpt lat="46.30471137352287769317626953125" lon="7.4805399589240550994873046875"><ele></ele><time>2020-9-19T10:14:30Z</time></trkpt>
<trkpt lat="46.30469980649650096893310546875" lon="7.4805037491023540496826171875"><ele></ele><time>2020-9-19T10:14:33Z</time></trkpt>
<trkpt lat="46.30469041876494884490966796875" lon="7.48046427033841609954833984375"><ele></ele><time>2020-9-19T10:14:36Z</time></trkpt>
<trkpt lat="46.30467399023473262786865234375" lon="7.48037558980286121368408203125"><ele></ele><time>2020-9-19T10:14:39Z</time></trkpt>
<trkpt lat="46.3046661950647830963134765625" lon="7.48033284209668636322021484375"><ele></ele><time>2020-9-19T10:14:42Z</time></trkpt>
<trkpt lat="46.3046541251242160797119140625" lon="7.48029227368533611297607421875"><ele></ele><time>2020-9-19T10:14:45Z</time></trkpt>
<trkpt lat="46.30463593639433383941650390625" lon="7.48025623150169849395751953125"><ele></ele><time>2020-9-19T10:14:48Z</time></trkpt>
<trkpt lat="46.3046138919889926910400390625" lon="7.48022555373609066009521484375"><ele></ele><time>2020-9-19T10:14:51Z</time></trkpt>
<trkpt lat="46.30458581261336803436279296875" lon="7.48020149767398834228515625"><ele></ele><time>2020-9-19T10:14:54Z</time></trkpt>
<trkpt lat="46.30455362610518932342529296875" lon="7.48018565587699413299560546875"><ele></ele><time>2020-9-19T10:14:57Z</time></trkpt>
<trkpt lat="46.30451976321637630462646484375" lon="7.480175010859966278076171875"><ele></ele><time>2020-9-19T10:15:0Z</time></trkpt>
<trkpt lat="46.304484643042087554931640625" lon="7.480170987546443939208984375"><ele></ele><time>2020-9-19T10:15:3Z</time></trkpt>
<trkpt lat="46.30441389977931976318359375" lon="7.4801765196025371551513671875"><ele></ele><time>2020-9-19T10:15:6Z</time></trkpt>
<trkpt lat="46.3043785281479358673095703125" lon="7.4801885895431041717529296875"><ele></ele><time>2020-9-19T10:15:9Z</time></trkpt>
<trkpt lat="46.304344497621059417724609375" lon="7.48020761646330356597900390625"><ele></ele><time>2020-9-19T10:15:12Z</time></trkpt>
<trkpt lat="46.3042457588016986846923828125" lon="7.480282299220561981201171875"><ele></ele><time>2020-9-19T10:15:15Z</time></trkpt>
<trkpt lat="46.3042120635509490966796875" lon="7.48031054623425006866455078125"><ele></ele><time>2020-9-19T10:15:18Z</time></trkpt>
<trkpt lat="46.30417845211923122406005859375" lon="7.48034072108566761016845703125"><ele></ele><time>2020-9-19T10:15:21Z</time></trkpt>
<trkpt lat="46.3041468523442745208740234375" lon="7.480375505983829498291015625"><ele></ele><time>2020-9-19T10:15:24Z</time></trkpt>
<trkpt lat="46.30411877296864986419677734375" lon="7.4804149009287357330322265625"><ele></ele><time>2020-9-19T10:15:27Z</time></trkpt>
<trkpt lat="46.30409144796431064605712890625" lon="7.48044666834175586700439453125"><ele></ele><time>2020-9-19T10:15:30Z</time></trkpt>
<trkpt lat="46.30406378768384456634521484375" lon="7.48046594671905040740966796875"><ele></ele><time>2020-9-19T10:15:33Z</time></trkpt>
<trkpt lat="46.3040325231850147247314453125" lon="7.4804712273180484771728515625"><ele></ele><time>2020-9-19T10:15:36Z</time></trkpt>
<trkpt lat="46.30400226451456546783447265625" lon="7.4804650247097015380859375"><ele></ele><time>2020-9-19T10:15:39Z</time></trkpt>
<trkpt lat="46.303974688053131103515625" lon="7.480451278388500213623046875"><ele></ele><time>2020-9-19T10:15:42Z</time></trkpt>
<trkpt lat="46.30394912324845790863037109375" lon="7.4804355204105377197265625"><ele></ele><time>2020-9-19T10:15:45Z</time></trkpt>
<trkpt lat="46.30392448045313358306884765625" lon="7.48041917569935321807861328125"><ele></ele><time>2020-9-19T10:15:48Z</time></trkpt>
<trkpt lat="46.30389631725847721099853515625" lon="7.48040392063558101654052734375"><ele></ele><time>2020-9-19T10:15:51Z</time></trkpt>
<trkpt lat="46.30386547185480594635009765625" lon="7.48039319179952144622802734375"><ele></ele><time>2020-9-19T10:15:54Z</time></trkpt>
<trkpt lat="46.30383345298469066619873046875" lon="7.4803870730102062225341796875"><ele></ele><time>2020-9-19T10:15:57Z</time></trkpt>
<trkpt lat="46.3038031943142414093017578125" lon="7.48038522899150848388671875"><ele></ele><time>2020-9-19T10:16:0Z</time></trkpt>
<trkpt lat="46.30377461202442646026611328125" lon="7.4803796969354152679443359375"><ele></ele><time>2020-9-19T10:16:3Z</time></trkpt>
<trkpt lat="46.30375206470489501953125" lon="7.48036134056746959686279296875"><ele></ele><time>2020-9-19T10:16:6Z</time></trkpt>
<trkpt lat="46.30373655818402767181396484375" lon="7.4803381226956844329833984375"><ele></ele><time>2020-9-19T10:16:9Z</time></trkpt>
<trkpt lat="46.3037290982902050018310546875" lon="7.4803183414041996002197265625"><ele></ele><time>2020-9-19T10:16:12Z</time></trkpt>
<trkpt lat="46.30372499115765094757080078125" lon="7.48029730282723903656005859375"><ele></ele><time>2020-9-19T10:16:15Z</time></trkpt>
<trkpt lat="46.3037200458347797393798828125" lon="7.48020610772073268890380859375"><ele></ele><time>2020-9-19T10:16:18Z</time></trkpt>
<trkpt lat="46.30372415296733379364013671875" lon="7.4801768548786640167236328125"><ele></ele><time>2020-9-19T10:16:21Z</time></trkpt>
<trkpt lat="46.30372733809053897857666015625" lon="7.4801456741988658905029296875"><ele></ele><time>2020-9-19T10:16:24Z</time></trkpt>
<trkpt lat="46.3037277571856975555419921875" lon="7.4801171757280826568603515625"><ele></ele><time>2020-9-19T10:16:27Z</time></trkpt>
<trkpt lat="46.30372147075831890106201171875" lon="7.48009194619953632354736328125"><ele></ele><time>2020-9-19T10:16:30Z</time></trkpt>
<trkpt lat="46.3037156872451305389404296875" lon="7.4800712428987026214599609375"><ele></ele><time>2020-9-19T10:16:33Z</time></trkpt>
<trkpt lat="46.3037109933793544769287109375" lon="7.48005690984427928924560546875"><ele></ele><time>2020-9-19T10:16:36Z</time></trkpt>
<trkpt lat="46.3037016056478023529052734375" lon="7.480039894580841064453125"><ele></ele><time>2020-9-19T10:16:39Z</time></trkpt>
<trkpt lat="46.30367696285247802734375" lon="7.47999991290271282196044921875"><ele></ele><time>2020-9-19T10:16:42Z</time></trkpt>
<trkpt lat="46.30366179160773754119873046875" lon="7.47998750768601894378662109375"><ele></ele><time>2020-9-19T10:16:45Z</time></trkpt>
<trkpt lat="46.30364410579204559326171875" lon="7.47997476719319820404052734375"><ele></ele><time>2020-9-19T10:16:48Z</time></trkpt>
<trkpt lat="46.30362306721508502960205078125" lon="7.479966469109058380126953125"><ele></ele><time>2020-9-19T10:16:51Z</time></trkpt>
<trkpt lat="46.3036047108471393585205078125" lon="7.47995934449136257171630859375"><ele></ele><time>2020-9-19T10:16:54Z</time></trkpt>
<trkpt lat="46.30358643829822540283203125" lon="7.47995448298752307891845703125"><ele></ele><time>2020-9-19T10:16:57Z</time></trkpt>
<trkpt lat="46.3035661540925502777099609375" lon="7.4799565784633159637451171875"><ele></ele><time>2020-9-19T10:17:0Z</time></trkpt>
<trkpt lat="46.30354620516300201416015625" lon="7.4799649603664875030517578125"><ele></ele><time>2020-9-19T10:17:3Z</time></trkpt>
<trkpt lat="46.3035316206514835357666015625" lon="7.479975521564483642578125"><ele></ele><time>2020-9-19T10:17:6Z</time></trkpt>
<trkpt lat="46.30351091735064983367919921875" lon="7.47998985461890697479248046875"><ele></ele><time>2020-9-19T10:17:9Z</time></trkpt>
<trkpt lat="46.30349314771592617034912109375" lon="7.480002678930759429931640625"><ele></ele><time>2020-9-19T10:17:12Z</time></trkpt>
<trkpt lat="46.3034709356725215911865234375" lon="7.4800090491771697998046875"><ele></ele><time>2020-9-19T10:17:15Z</time></trkpt>
<trkpt lat="46.30344830453395843505859375" lon="7.48001399450004100799560546875"><ele></ele><time>2020-9-19T10:17:18Z</time></trkpt>
<trkpt lat="46.3034239970147609710693359375" lon="7.48001852072775363922119140625"><ele></ele><time>2020-9-19T10:17:21Z</time></trkpt>
<trkpt lat="46.30340061150491237640380859375" lon="7.48002178966999053955078125"><ele></ele><time>2020-9-19T10:17:24Z</time></trkpt>
<trkpt lat="46.303381584584712982177734375" lon="7.48002070002257823944091796875"><ele></ele><time>2020-9-19T10:17:27Z</time></trkpt>
<trkpt lat="46.30336239002645015716552734375" lon="7.48001349158585071563720703125"><ele></ele><time>2020-9-19T10:17:30Z</time></trkpt>
<trkpt lat="46.3033418543636798858642578125" lon="7.48000527732074260711669921875"><ele></ele><time>2020-9-19T10:17:33Z</time></trkpt>
<trkpt lat="46.3033183850347995758056640625" lon="7.47999899089336395263671875"><ele></ele><time>2020-9-19T10:17:36Z</time></trkpt>
<trkpt lat="46.30329650826752185821533203125" lon="7.4799941293895244598388671875"><ele></ele><time>2020-9-19T10:17:39Z</time></trkpt>
<trkpt lat="46.303271614015102386474609375" lon="7.479984574019908905029296875"><ele></ele><time>2020-9-19T10:17:42Z</time></trkpt>
<trkpt lat="46.30321939475834369659423828125" lon="7.47997359372675418853759765625"><ele></ele><time>2020-9-19T10:17:45Z</time></trkpt>
<trkpt lat="46.3031981885433197021484375" lon="7.4799800477921962738037109375"><ele></ele><time>2020-9-19T10:17:48Z</time></trkpt>
<trkpt lat="46.30318553186953067779541015625" lon="7.47999136336147785186767578125"><ele></ele><time>2020-9-19T10:17:51Z</time></trkpt>
<trkpt lat="46.30317329429090023040771484375" lon="7.48001215048134326934814453125"><ele></ele><time>2020-9-19T10:17:54Z</time></trkpt>
<trkpt lat="46.30316876806318759918212890625" lon="7.48004031367599964141845703125"><ele></ele><time>2020-9-19T10:17:57Z</time></trkpt>
<trkpt lat="46.30316642113029956817626953125" lon="7.48006663285195827484130859375"><ele></ele><time>2020-9-19T10:18:0Z</time></trkpt>
<trkpt lat="46.30315938033163547515869140625" lon="7.48008155263960361480712890625"><ele></ele><time>2020-9-19T10:18:3Z</time></trkpt>
<trkpt lat="46.30315166898071765899658203125" lon="7.48009747825562953948974609375"><ele></ele><time>2020-9-19T10:18:6Z</time></trkpt>
<trkpt lat="46.3031383417546749114990234375" lon="7.4801084585487842559814453125"><ele></ele><time>2020-9-19T10:18:9Z</time></trkpt>
<trkpt lat="46.3031225837767124176025390625" lon="7.48011206276714801788330078125"><ele></ele><time>2020-9-19T10:18:12Z</time></trkpt>
<trkpt lat="46.3031043112277984619140625" lon="7.480105943977832794189453125"><ele></ele><time>2020-9-19T10:18:15Z</time></trkpt>
<trkpt lat="46.30304236896336078643798828125" lon="7.480065710842609405517578125"><ele></ele><time>2020-9-19T10:18:18Z</time></trkpt>
<trkpt lat="46.303012780845165252685546875" lon="7.48004634864628314971923828125"><ele></ele><time>2020-9-19T10:18:21Z</time></trkpt>
<trkpt lat="46.3029790855944156646728515625" lon="7.480032183229923248291015625"><ele></ele><time>2020-9-19T10:18:24Z</time></trkpt>
<trkpt lat="46.3029458932578563690185546875" lon="7.48001466505229473114013671875"><ele></ele><time>2020-9-19T10:18:27Z</time></trkpt>
<trkpt lat="46.30290742032229900360107421875" lon="7.47999773360788822174072265625"><ele></ele><time>2020-9-19T10:18:30Z</time></trkpt>
<trkpt lat="46.30286752246320247650146484375" lon="7.47998381964862346649169921875"><ele></ele><time>2020-9-19T10:18:33Z</time></trkpt>
<trkpt lat="46.3028280436992645263671875" lon="7.47997191734611988067626953125"><ele></ele><time>2020-9-19T10:18:36Z</time></trkpt>
<trkpt lat="46.30279007367789745330810546875" lon="7.47995900921523571014404296875"><ele></ele><time>2020-9-19T10:18:39Z</time></trkpt>
<trkpt lat="46.30274632014334201812744140625" lon="7.47995062731206417083740234375"><ele></ele><time>2020-9-19T10:18:42Z</time></trkpt>
<trkpt lat="46.3027038238942623138427734375" lon="7.4799445085227489471435546875"><ele></ele><time>2020-9-19T10:18:45Z</time></trkpt>
<trkpt lat="46.3026662729680538177490234375" lon="7.4799367971718311309814453125"><ele></ele><time>2020-9-19T10:18:48Z</time></trkpt>
<trkpt lat="46.30258924327790737152099609375" lon="7.47992062009871006011962890625"><ele></ele><time>2020-9-19T10:18:51Z</time></trkpt>
<trkpt lat="46.30254146642982959747314453125" lon="7.479922883212566375732421875"><ele></ele><time>2020-9-19T10:18:54Z</time></trkpt>
<trkpt lat="46.3024942763149738311767578125" lon="7.47991508804261684417724609375"><ele></ele><time>2020-9-19T10:18:57Z</time></trkpt>
<trkpt lat="46.30245228298008441925048828125" lon="7.4798968993127346038818359375"><ele></ele><time>2020-9-19T10:19:0Z</time></trkpt>
<trkpt lat="46.302363015711307525634765625" lon="7.47985121794044971466064453125"><ele></ele><time>2020-9-19T10:19:3Z</time></trkpt>
<trkpt lat="46.3023162446916103363037109375" lon="7.47983043082058429718017578125"><ele></ele><time>2020-9-19T10:19:6Z</time></trkpt>
<trkpt lat="46.302208788692951202392578125" lon="7.47978013940155506134033203125"><ele></ele><time>2020-9-19T10:19:9Z</time></trkpt>
<trkpt lat="46.30208314396440982818603515625" lon="7.4796930514276027679443359375"><ele></ele><time>2020-9-19T10:19:12Z</time></trkpt>
<trkpt lat="46.30202296189963817596435546875" lon="7.47963680885732173919677734375"><ele></ele><time>2020-9-19T10:19:15Z</time></trkpt>
<trkpt lat="46.301970072090625762939453125" lon="7.47957964427769184112548828125"><ele></ele><time>2020-9-19T10:19:18Z</time></trkpt>
<trkpt lat="46.3019323535263538360595703125" lon="7.47951761819422245025634765625"><ele></ele><time>2020-9-19T10:19:21Z</time></trkpt>
<trkpt lat="46.30190544761717319488525390625" lon="7.4794382415711879730224609375"><ele></ele><time>2020-9-19T10:19:24Z</time></trkpt>
<trkpt lat="46.301887929439544677734375" lon="7.479375712573528289794921875"><ele></ele><time>2020-9-19T10:19:27Z</time></trkpt>
<trkpt lat="46.30187342874705791473388671875" lon="7.4793250858783721923828125"><ele></ele><time>2020-9-19T10:19:30Z</time></trkpt>
<trkpt lat="46.30185901187360286712646484375" lon="7.4792821705341339111328125"><ele></ele><time>2020-9-19T10:19:33Z</time></trkpt>
<trkpt lat="46.3018451817333698272705078125" lon="7.47924260795116424560546875"><ele></ele><time>2020-9-19T10:19:36Z</time></trkpt>
<trkpt lat="46.30182917229831218719482421875" lon="7.47920664958655834197998046875"><ele></ele><time>2020-9-19T10:19:39Z</time></trkpt>
<trkpt lat="46.30181324668228626251220703125" lon="7.47917228378355503082275390625"><ele></ele><time>2020-9-19T10:19:42Z</time></trkpt>
<trkpt lat="46.30180369131267070770263671875" lon="7.4791428633034229278564453125"><ele></ele><time>2020-9-19T10:19:45Z</time></trkpt>
<trkpt lat="46.3017908670008182525634765625" lon="7.47909282334148883819580078125"><ele></ele><time>2020-9-19T10:19:48Z</time></trkpt>
<trkpt lat="46.30177804268896579742431640625" lon="7.47905493713915348052978515625"><ele></ele><time>2020-9-19T10:19:51Z</time></trkpt>
<trkpt lat="46.301766224205493927001953125" lon="7.479025684297084808349609375"><ele></ele><time>2020-9-19T10:19:54Z</time></trkpt>
<trkpt lat="46.30174686200916767120361328125" lon="7.47899626381695270538330078125"><ele></ele><time>2020-9-19T10:19:57Z</time></trkpt>
<trkpt lat="46.30172356031835079193115234375" lon="7.4789668433368206024169921875"><ele></ele><time>2020-9-19T10:20:0Z</time></trkpt>
<trkpt lat="46.3017040304839611053466796875" lon="7.47894010506570339202880859375"><ele></ele><time>2020-9-19T10:20:3Z</time></trkpt>
<trkpt lat="46.30168550647795200347900390625" lon="7.4789173901081085205078125"><ele></ele><time>2020-9-19T10:20:6Z</time></trkpt>
<trkpt lat="46.3016654737293720245361328125" lon="7.47889182530343532562255859375"><ele></ele><time>2020-9-19T10:20:9Z</time></trkpt>
<trkpt lat="46.30164192058145999908447265625" lon="7.4788605608046054840087890625"><ele></ele><time>2020-9-19T10:20:12Z</time></trkpt>
<trkpt lat="46.30161761306226253509521484375" lon="7.47882175259292125701904296875"><ele></ele><time>2020-9-19T10:20:15Z</time></trkpt>
<trkpt lat="46.3015987537801265716552734375" lon="7.47878654859960079193115234375"><ele></ele><time>2020-9-19T10:20:18Z</time></trkpt>
<trkpt lat="46.3015819899737834930419921875" lon="7.47873592190444469451904296875"><ele></ele><time>2020-9-19T10:20:21Z</time></trkpt>
<trkpt lat="46.3015700876712799072265625" lon="7.47869116254150867462158203125"><ele></ele><time>2020-9-19T10:20:24Z</time></trkpt>
<trkpt lat="46.30156212486326694488525390625" lon="7.478654198348522186279296875"><ele></ele><time>2020-9-19T10:20:27Z</time></trkpt>
<trkpt lat="46.30155642516911029815673828125" lon="7.4786215089261531829833984375"><ele></ele><time>2020-9-19T10:20:30Z</time></trkpt>
<trkpt lat="46.30155374296009540557861328125" lon="7.47859125025570392608642578125"><ele></ele><time>2020-9-19T10:20:33Z</time></trkpt>
<trkpt lat="46.301548965275287628173828125" lon="7.47856199741363525390625"><ele></ele><time>2020-9-19T10:20:36Z</time></trkpt>
<trkpt lat="46.30154770798981189727783203125" lon="7.47853408567607402801513671875"><ele></ele><time>2020-9-19T10:20:39Z</time></trkpt>
<trkpt lat="46.30154401995241641998291015625" lon="7.4785091914236545562744140625"><ele></ele><time>2020-9-19T10:20:42Z</time></trkpt>
<trkpt lat="46.301538236439228057861328125" lon="7.47848220169544219970703125"><ele></ele><time>2020-9-19T10:20:45Z</time></trkpt>
<trkpt lat="46.30153245292603969573974609375" lon="7.478450350463390350341796875"><ele></ele><time>2020-9-19T10:20:48Z</time></trkpt>
<trkpt lat="46.301525495946407318115234375" lon="7.47841648757457733154296875"><ele></ele><time>2020-9-19T10:20:51Z</time></trkpt>
<trkpt lat="46.30152046680450439453125" lon="7.47838287614285945892333984375"><ele></ele><time>2020-9-19T10:20:54Z</time></trkpt>
<trkpt lat="46.3015172816812992095947265625" lon="7.478348426520824432373046875"><ele></ele><time>2020-9-19T10:20:57Z</time></trkpt>
<trkpt lat="46.30151049233973026275634765625" lon="7.4783224426209926605224609375"><ele></ele><time>2020-9-19T10:21:0Z</time></trkpt>
<trkpt lat="46.3014954887330532073974609375" lon="7.4782929383218288421630859375"><ele></ele><time>2020-9-19T10:21:3Z</time></trkpt>
<trkpt lat="46.3014656491577625274658203125" lon="7.4782299064099788665771484375"><ele></ele><time>2020-9-19T10:21:6Z</time></trkpt>
<trkpt lat="46.30145282484591007232666015625" lon="7.47819579206407070159912109375"><ele></ele><time>2020-9-19T10:21:9Z</time></trkpt>
<trkpt lat="46.30144310183823108673095703125" lon="7.47817232273519039154052734375"><ele></ele><time>2020-9-19T10:21:12Z</time></trkpt>
<trkpt lat="46.30143656395375728607177734375" lon="7.47813996858894824981689453125"><ele></ele><time>2020-9-19T10:21:15Z</time></trkpt>
<trkpt lat="46.30142818205058574676513671875" lon="7.4781088717281818389892578125"><ele></ele><time>2020-9-19T10:21:18Z</time></trkpt>
<trkpt lat="46.3014210574328899383544921875" lon="7.4780797027051448822021484375"><ele></ele><time>2020-9-19T10:21:21Z</time></trkpt>
<trkpt lat="46.30140856839716434478759765625" lon="7.47805304825305938720703125"><ele></ele><time>2020-9-19T10:21:24Z</time></trkpt>
<trkpt lat="46.30139239132404327392578125" lon="7.478023879230022430419921875"><ele></ele><time>2020-9-19T10:21:27Z</time></trkpt>
<trkpt lat="46.30138560198247432708740234375" lon="7.477993033826351165771484375"><ele></ele><time>2020-9-19T10:21:30Z</time></trkpt>
<trkpt lat="46.30137755535542964935302734375" lon="7.47795757837593555450439453125"><ele></ele><time>2020-9-19T10:21:33Z</time></trkpt>
<trkpt lat="46.30136481486260890960693359375" lon="7.47792639769613742828369140625"><ele></ele><time>2020-9-19T10:21:36Z</time></trkpt>
<trkpt lat="46.301345787942409515380859375" lon="7.47789622284471988677978515625"><ele></ele><time>2020-9-19T10:21:39Z</time></trkpt>
<trkpt lat="46.30131720565259456634521484375" lon="7.47786487452685832977294921875"><ele></ele><time>2020-9-19T10:21:42Z</time></trkpt>
<trkpt lat="46.30128971301019191741943359375" lon="7.4778453446924686431884765625"><ele></ele><time>2020-9-19T10:21:45Z</time></trkpt>
<trkpt lat="46.30125249736011028289794921875" lon="7.4778181873261928558349609375"><ele></ele><time>2020-9-19T10:21:48Z</time></trkpt>
<trkpt lat="46.30120220594108104705810546875" lon="7.47777753509581089019775390625"><ele></ele><time>2020-9-19T10:21:51Z</time></trkpt>
<trkpt lat="46.30115660838782787322998046875" lon="7.477748952805995941162109375"><ele></ele><time>2020-9-19T10:21:54Z</time></trkpt>
<trkpt lat="46.30109692923724651336669921875" lon="7.47772070579230785369873046875"><ele></ele><time>2020-9-19T10:21:57Z</time></trkpt>
<trkpt lat="46.30102224647998809814453125" lon="7.4776596017181873321533203125"><ele></ele><time>2020-9-19T10:22:0Z</time></trkpt>
<trkpt lat="46.3009486533701419830322265625" lon="7.47761626727879047393798828125"><ele></ele><time>2020-9-19T10:22:3Z</time></trkpt>
<trkpt lat="46.3008658401668071746826171875" lon="7.4775442667305469512939453125"><ele></ele><time>2020-9-19T10:22:6Z</time></trkpt>
<trkpt lat="46.30079518072307109832763671875" lon="7.4774755351245403289794921875"><ele></ele><time>2020-9-19T10:22:9Z</time></trkpt>
<trkpt lat="46.30073449574410915374755859375" lon="7.47740185819566249847412109375"><ele></ele><time>2020-9-19T10:22:12Z</time></trkpt>
<trkpt lat="46.3006831146776676177978515625" lon="7.47735835611820220947265625"><ele></ele><time>2020-9-19T10:22:15Z</time></trkpt>
<trkpt lat="46.30063123069703578948974609375" lon="7.47731803916394710540771484375"><ele></ele><time>2020-9-19T10:22:18Z</time></trkpt>
<trkpt lat="46.3005845434963703155517578125" lon="7.47728249989449977874755859375"><ele></ele><time>2020-9-19T10:22:21Z</time></trkpt>
<trkpt lat="46.30052897147834300994873046875" lon="7.47722198255360126495361328125"><ele></ele><time>2020-9-19T10:22:24Z</time></trkpt>
<trkpt lat="46.300421096384525299072265625" lon="7.4771157838404178619384765625"><ele></ele><time>2020-9-19T10:22:27Z</time></trkpt>
<trkpt lat="46.30038429982960224151611328125" lon="7.47706465423107147216796875"><ele></ele><time>2020-9-19T10:22:30Z</time></trkpt>
<trkpt lat="46.30034809000790119171142578125" lon="7.47700966894626617431640625"><ele></ele><time>2020-9-19T10:22:33Z</time></trkpt>
<trkpt lat="46.30031120963394641876220703125" lon="7.4769434519112110137939453125"><ele></ele><time>2020-9-19T10:22:36Z</time></trkpt>
<trkpt lat="46.300266198813915252685546875" lon="7.47685804031789302825927734375"><ele></ele><time>2020-9-19T10:22:39Z</time></trkpt>
<trkpt lat="46.3002083636820316314697265625" lon="7.4767850339412689208984375"><ele></ele><time>2020-9-19T10:22:42Z</time></trkpt>
<trkpt lat="46.30014893598854541778564453125" lon="7.47670934535562992095947265625"><ele></ele><time>2020-9-19T10:22:45Z</time></trkpt>
<trkpt lat="46.30008104257285594940185546875" lon="7.47663323767483234405517578125"><ele></ele><time>2020-9-19T10:22:48Z</time></trkpt>
<trkpt lat="46.30001432262361049652099609375" lon="7.47655210085213184356689453125"><ele></ele><time>2020-9-19T10:22:51Z</time></trkpt>
<trkpt lat="46.29988364875316619873046875" lon="7.47637725435197353363037109375"><ele></ele><time>2020-9-19T10:22:54Z</time></trkpt>
<trkpt lat="46.29982464015483856201171875" lon="7.476281113922595977783203125"><ele></ele><time>2020-9-19T10:22:57Z</time></trkpt>
<trkpt lat="46.29970704205334186553955078125" lon="7.47609377838671207427978515625"><ele></ele><time>2020-9-19T10:23:0Z</time></trkpt>
<trkpt lat="46.29965574480593204498291015625" lon="7.47600811533629894256591796875"><ele></ele><time>2020-9-19T10:23:3Z</time></trkpt>
<trkpt lat="46.29960595630109310150146484375" lon="7.47593016363680362701416015625"><ele></ele><time>2020-9-19T10:23:6Z</time></trkpt>
<trkpt lat="46.2995616160333156585693359375" lon="7.475849948823451995849609375"><ele></ele><time>2020-9-19T10:23:9Z</time></trkpt>
<trkpt lat="46.2995264120399951934814453125" lon="7.47577643953263759613037109375"><ele></ele><time>2020-9-19T10:23:12Z</time></trkpt>
<trkpt lat="46.29949699155986309051513671875" lon="7.4757059477269649505615234375"><ele></ele><time>2020-9-19T10:23:15Z</time></trkpt>
<trkpt lat="46.29946866072714328765869140625" lon="7.47564417310059070587158203125"><ele></ele><time>2020-9-19T10:23:18Z</time></trkpt>
<trkpt lat="46.29943965934216976165771484375" lon="7.47558281756937503814697265625"><ele></ele><time>2020-9-19T10:23:21Z</time></trkpt>
<trkpt lat="46.299413926899433135986328125" lon="7.47552649118006229400634765625"><ele></ele><time>2020-9-19T10:23:24Z</time></trkpt>
<trkpt lat="46.29939422942698001861572265625" lon="7.475471086800098419189453125"><ele></ele><time>2020-9-19T10:23:27Z</time></trkpt>
<trkpt lat="46.2993768788874149322509765625" lon="7.47542138211429119110107421875"><ele></ele><time>2020-9-19T10:23:30Z</time></trkpt>
<trkpt lat="46.2993574328720569610595703125" lon="7.47536413371562957763671875"><ele></ele><time>2020-9-19T10:23:33Z</time></trkpt>
<trkpt lat="46.2993443571031093597412109375" lon="7.47531794942915439605712890625"><ele></ele><time>2020-9-19T10:23:36Z</time></trkpt>
<trkpt lat="46.2993358075618743896484375" lon="7.4752778001129627227783203125"><ele></ele><time>2020-9-19T10:23:39Z</time></trkpt>
<trkpt lat="46.29932851530611515045166015625" lon="7.4752345494925975799560546875"><ele></ele><time>2020-9-19T10:23:42Z</time></trkpt>
<trkpt lat="46.29932180978357791900634765625" lon="7.47519515454769134521484375"><ele></ele><time>2020-9-19T10:23:45Z</time></trkpt>
<trkpt lat="46.29930965602397918701171875" lon="7.47515198774635791778564453125"><ele></ele><time>2020-9-19T10:23:48Z</time></trkpt>
<trkpt lat="46.299295239150524139404296875" lon="7.47510504908859729766845703125"><ele></ele><time>2020-9-19T10:23:51Z</time></trkpt>
<trkpt lat="46.29928207956254482269287109375" lon="7.47506129555404186248779296875"><ele></ele><time>2020-9-19T10:23:54Z</time></trkpt>
<trkpt lat="46.29926674067974090576171875" lon="7.4750228226184844970703125"><ele></ele><time>2020-9-19T10:23:57Z</time></trkpt>
<trkpt lat="46.29925726912915706634521484375" lon="7.47498082928359508514404296875"><ele></ele><time>2020-9-19T10:24:0Z</time></trkpt>
<trkpt lat="46.2992548383772373199462890625" lon="7.4749240837991237640380859375"><ele></ele><time>2020-9-19T10:24:3Z</time></trkpt>
<trkpt lat="46.2992555089294910430908203125" lon="7.4748774804174900054931640625"><ele></ele><time>2020-9-19T10:24:6Z</time></trkpt>
<trkpt lat="46.29925710149109363555908203125" lon="7.4748292006552219390869140625"><ele></ele><time>2020-9-19T10:24:9Z</time></trkpt>
<trkpt lat="46.29925123415887355804443359375" lon="7.4747822619974613189697265625"><ele></ele><time>2020-9-19T10:24:12Z</time></trkpt>
<trkpt lat="46.29924268461763858795166015625" lon="7.474737502634525299072265625"><ele></ele><time>2020-9-19T10:24:15Z</time></trkpt>
<trkpt lat="46.29922860302031040191650390625" lon="7.4746877141296863555908203125"><ele></ele><time>2020-9-19T10:24:18Z</time></trkpt>
<trkpt lat="46.29920479841530323028564453125" lon="7.47464337386190891265869140625"><ele></ele><time>2020-9-19T10:24:21Z</time></trkpt>
<trkpt lat="46.29917579703032970428466796875" lon="7.4745911546051502227783203125"><ele></ele><time>2020-9-19T10:24:24Z</time></trkpt>
<trkpt lat="46.29914310760796070098876953125" lon="7.4745532684028148651123046875"><ele></ele><time>2020-9-19T10:24:27Z</time></trkpt>
<trkpt lat="46.29910849034786224365234375" lon="7.4745227582752704620361328125"><ele></ele><time>2020-9-19T10:24:30Z</time></trkpt>
<trkpt lat="46.299035064876079559326171875" lon="7.47447766363620758056640625"><ele></ele><time>2020-9-19T10:24:33Z</time></trkpt>
<trkpt lat="46.29885443486273288726806640625" lon="7.47437708079814910888671875"><ele></ele><time>2020-9-19T10:24:36Z</time></trkpt>
<trkpt lat="46.2988020479679107666015625" lon="7.47436425648629665374755859375"><ele></ele><time>2020-9-19T10:24:39Z</time></trkpt>
<trkpt lat="46.298748739063739776611328125" lon="7.47434548102319240570068359375"><ele></ele><time>2020-9-19T10:24:42Z</time></trkpt>
<trkpt lat="46.298626363277435302734375" lon="7.4742994643747806549072265625"><ele></ele><time>2020-9-19T10:24:45Z</time></trkpt>
<trkpt lat="46.29857062362134456634521484375" lon="7.474256046116352081298828125"><ele></ele><time>2020-9-19T10:24:48Z</time></trkpt>
<trkpt lat="46.2985239364206790924072265625" lon="7.47420248575508594512939453125"><ele></ele><time>2020-9-19T10:24:51Z</time></trkpt>
<trkpt lat="46.29848512820899486541748046875" lon="7.4741392023861408233642578125"><ele></ele><time>2020-9-19T10:24:54Z</time></trkpt>
<trkpt lat="46.29845537245273590087890625" lon="7.4740691296756267547607421875"><ele></ele><time>2020-9-19T10:24:57Z</time></trkpt>
<trkpt lat="46.29839996807277202606201171875" lon="7.4739105440676212310791015625"><ele></ele><time>2020-9-19T10:25:0Z</time></trkpt>
<trkpt lat="46.2983750738203525543212890625" lon="7.47383787296712398529052734375"><ele></ele><time>2020-9-19T10:25:3Z</time></trkpt>
<trkpt lat="46.29834146238863468170166015625" lon="7.4737613461911678314208984375"><ele></ele><time>2020-9-19T10:25:6Z</time></trkpt>
<trkpt lat="46.2983019836246967315673828125" lon="7.4737006612122058868408203125"><ele></ele><time>2020-9-19T10:25:9Z</time></trkpt>
<trkpt lat="46.29825982265174388885498046875" lon="7.47363117523491382598876953125"><ele></ele><time>2020-9-19T10:25:12Z</time></trkpt>
<trkpt lat="46.298223026096820831298828125" lon="7.47356235980987548828125"><ele></ele><time>2020-9-19T10:25:15Z</time></trkpt>
<trkpt lat="46.2981903366744518280029296875" lon="7.4734820611774921417236328125"><ele></ele><time>2020-9-19T10:25:18Z</time></trkpt>
<trkpt lat="46.29816234111785888671875" lon="7.4734002538025379180908203125"><ele></ele><time>2020-9-19T10:25:21Z</time></trkpt>
<trkpt lat="46.29813459701836109161376953125" lon="7.47333009727299213409423828125"><ele></ele><time>2020-9-19T10:25:24Z</time></trkpt>
<trkpt lat="46.2981180846691131591796875" lon="7.47326538898050785064697265625"><ele></ele><time>2020-9-19T10:25:27Z</time></trkpt>
<trkpt lat="46.29809863865375518798828125" lon="7.47320269234478473663330078125"><ele></ele><time>2020-9-19T10:25:30Z</time></trkpt>
<trkpt lat="46.29808883182704448699951171875" lon="7.473130859434604644775390625"><ele></ele><time>2020-9-19T10:25:33Z</time></trkpt>
<trkpt lat="46.29808313213288784027099609375" lon="7.47306279838085174560546875"><ele></ele><time>2020-9-19T10:25:36Z</time></trkpt>
<trkpt lat="46.2980853952467441558837890625" lon="7.47299163602292537689208984375"><ele></ele><time>2020-9-19T10:25:39Z</time></trkpt>
<trkpt lat="46.29809863865375518798828125" lon="7.472925670444965362548828125"><ele></ele><time>2020-9-19T10:25:42Z</time></trkpt>
<trkpt lat="46.2981182523071765899658203125" lon="7.47284931130707263946533203125"><ele></ele><time>2020-9-19T10:25:45Z</time></trkpt>
<trkpt lat="46.29813560284674167633056640625" lon="7.472778148949146270751953125"><ele></ele><time>2020-9-19T10:25:48Z</time></trkpt>
<trkpt lat="46.2981583178043365478515625" lon="7.47270681895315647125244140625"><ele></ele><time>2020-9-19T10:25:51Z</time></trkpt>
<trkpt lat="46.2981851398944854736328125" lon="7.47264445759356021881103515625"><ele></ele><time>2020-9-19T10:25:54Z</time></trkpt>
<trkpt lat="46.2982097826898097991943359375" lon="7.4725848622620105743408203125"><ele></ele><time>2020-9-19T10:25:57Z</time></trkpt>
<trkpt lat="46.29823132418096065521240234375" lon="7.47252359054982662200927734375"><ele></ele><time>2020-9-19T10:26:0Z</time></trkpt>
<trkpt lat="46.298252530395984649658203125" lon="7.472459971904754638671875"><ele></ele><time>2020-9-19T10:26:3Z</time></trkpt>
<trkpt lat="46.298269964754581451416015625" lon="7.4724001251161098480224609375"><ele></ele><time>2020-9-19T10:26:6Z</time></trkpt>
<trkpt lat="46.2982852198183536529541015625" lon="7.4723458103835582733154296875"><ele></ele><time>2020-9-19T10:26:9Z</time></trkpt>
<trkpt lat="46.2982969544827938079833984375" lon="7.4722864665091037750244140625"><ele></ele><time>2020-9-19T10:26:12Z</time></trkpt>
<trkpt lat="46.2983063422143459320068359375" lon="7.4722294695675373077392578125"><ele></ele><time>2020-9-19T10:26:15Z</time></trkpt>
<trkpt lat="46.298316903412342071533203125" lon="7.47217741794884204864501953125"><ele></ele><time>2020-9-19T10:26:18Z</time></trkpt>
<trkpt lat="46.29832671023905277252197265625" lon="7.47212662361562252044677734375"><ele></ele><time>2020-9-19T10:26:21Z</time></trkpt>
<trkpt lat="46.2983284704387187957763671875" lon="7.47208186425268650054931640625"><ele></ele><time>2020-9-19T10:26:24Z</time></trkpt>
<trkpt lat="46.2983371876180171966552734375" lon="7.47204062528908252716064453125"><ele></ele><time>2020-9-19T10:26:27Z</time></trkpt>
<trkpt lat="46.29834732972085475921630859375" lon="7.472006343305110931396484375"><ele></ele><time>2020-9-19T10:26:30Z</time></trkpt>
<trkpt lat="46.29836476407945156097412109375" lon="7.47195948846638202667236328125"><ele></ele><time>2020-9-19T10:26:33Z</time></trkpt>
<trkpt lat="46.2983827851712703704833984375" lon="7.47192428447306156158447265625"><ele></ele><time>2020-9-19T10:26:36Z</time></trkpt>
<trkpt lat="46.298400722444057464599609375" lon="7.471891008317470550537109375"><ele></ele><time>2020-9-19T10:26:39Z</time></trkpt>
<trkpt lat="46.29841757006943225860595703125" lon="7.47185337357223033905029296875"><ele></ele><time>2020-9-19T10:26:42Z</time></trkpt>
<trkpt lat="46.298433579504489898681640625" lon="7.4718180857598781585693359375"><ele></ele><time>2020-9-19T10:26:45Z</time></trkpt>
<trkpt lat="46.2984453141689300537109375" lon="7.47179009020328521728515625"><ele></ele><time>2020-9-19T10:26:48Z</time></trkpt>
<trkpt lat="46.29846048541367053985595703125" lon="7.47174851596355438232421875"><ele></ele><time>2020-9-19T10:26:51Z</time></trkpt>
<trkpt lat="46.29847280681133270263671875" lon="7.47170568443834781646728515625"><ele></ele><time>2020-9-19T10:26:54Z</time></trkpt>
<trkpt lat="46.29847607575356960296630859375" lon="7.4716584943234920501708984375"><ele></ele><time>2020-9-19T10:26:57Z</time></trkpt>
<trkpt lat="46.29848110489547252655029296875" lon="7.47161080129444599151611328125"><ele></ele><time>2020-9-19T10:27:0Z</time></trkpt>
<trkpt lat="46.29848194308578968048095703125" lon="7.47157040052115917205810546875"><ele></ele><time>2020-9-19T10:27:3Z</time></trkpt>
<trkpt lat="46.29847691394388675689697265625" lon="7.47153419069945812225341796875"><ele></ele><time>2020-9-19T10:27:6Z</time></trkpt>
<trkpt lat="46.2984709627926349639892578125" lon="7.47148792259395122528076171875"><ele></ele><time>2020-9-19T10:27:9Z</time></trkpt>
<trkpt lat="46.2984622456133365631103515625" lon="7.47144098393619060516357421875"><ele></ele><time>2020-9-19T10:27:12Z</time></trkpt>
<trkpt lat="46.29844003356993198394775390625" lon="7.47133336029946804046630859375"><ele></ele><time>2020-9-19T10:27:15Z</time></trkpt>
<trkpt lat="46.29842494614422321319580078125" lon="7.47127904556691646575927734375"><ele></ele><time>2020-9-19T10:27:18Z</time></trkpt>
<trkpt lat="46.298416815698146820068359375" lon="7.47121416963636875152587890625"><ele></ele><time>2020-9-19T10:27:21Z</time></trkpt>
<trkpt lat="46.29839242435991764068603515625" lon="7.47114912606775760650634765625"><ele></ele><time>2020-9-19T10:27:24Z</time></trkpt>
<trkpt lat="46.29835671745240688323974609375" lon="7.47109145857393741607666015625"><ele></ele><time>2020-9-19T10:27:27Z</time></trkpt>
<trkpt lat="46.29832436330616474151611328125" lon="7.4710275046527385711669921875"><ele></ele><time>2020-9-19T10:27:30Z</time></trkpt>
<trkpt lat="46.2982972897589206695556640625" lon="7.47096891514956951141357421875"><ele></ele><time>2020-9-19T10:27:33Z</time></trkpt>
<trkpt lat="46.2982791848480701446533203125" lon="7.470912002027034759521484375"><ele></ele><time>2020-9-19T10:27:36Z</time></trkpt>
<trkpt lat="46.2982510216534137725830078125" lon="7.4708546698093414306640625"><ele></ele><time>2020-9-19T10:27:39Z</time></trkpt>
<trkpt lat="46.298208944499492645263671875" lon="7.4707983434200286865234375"><ele></ele><time>2020-9-19T10:27:42Z</time></trkpt>
<trkpt lat="46.298161335289478302001953125" lon="7.47074629180133342742919921875"><ele></ele><time>2020-9-19T10:27:45Z</time></trkpt>
<trkpt lat="46.29811607301235198974609375" lon="7.47070589102804660797119140625"><ele></ele><time>2020-9-19T10:27:48Z</time></trkpt>
<trkpt lat="46.29807575605809688568115234375" lon="7.47067303396761417388916015625"><ele></ele><time>2020-9-19T10:27:51Z</time></trkpt>
<trkpt lat="46.29803636111319065093994140625" lon="7.47063732706010341644287109375"><ele></ele><time>2020-9-19T10:27:54Z</time></trkpt>
<trkpt lat="46.29800073802471160888671875" lon="7.47060564346611499786376953125"><ele></ele><time>2020-9-19T10:27:57Z</time></trkpt>
<trkpt lat="46.29791566170752048492431640625" lon="7.4705500714480876922607421875"><ele></ele><time>2020-9-19T10:28:0Z</time></trkpt>
<trkpt lat="46.29785858094692230224609375" lon="7.4705383367836475372314453125"><ele></ele><time>2020-9-19T10:28:3Z</time></trkpt>
<trkpt lat="46.297801248729228973388671875" lon="7.47053087688982486724853515625"><ele></ele><time>2020-9-19T10:28:6Z</time></trkpt>
<trkpt lat="46.297751627862453460693359375" lon="7.47052031569182872772216796875"><ele></ele><time>2020-9-19T10:28:9Z</time></trkpt>
<trkpt lat="46.2977021746337413787841796875" lon="7.4705038033425807952880859375"><ele></ele><time>2020-9-19T10:28:12Z</time></trkpt>
<trkpt lat="46.29765515215694904327392578125" lon="7.47047220356762409210205078125"><ele></ele><time>2020-9-19T10:28:15Z</time></trkpt>
<trkpt lat="46.297618187963962554931640625" lon="7.47042979113757610321044921875"><ele></ele><time>2020-9-19T10:28:18Z</time></trkpt>
<trkpt lat="46.29758675582706928253173828125" lon="7.47037899680435657501220703125"><ele></ele><time>2020-9-19T10:28:21Z</time></trkpt>
<trkpt lat="46.2975573353469371795654296875" lon="7.4703324772417545318603515625"><ele></ele><time>2020-9-19T10:28:24Z</time></trkpt>
<trkpt lat="46.2975308485329151153564453125" lon="7.47028662823140621185302734375"><ele></ele><time>2020-9-19T10:28:27Z</time></trkpt>
<trkpt lat="46.29750176332890987396240234375" lon="7.4702298827469348907470703125"><ele></ele><time>2020-9-19T10:28:30Z</time></trkpt>
<trkpt lat="46.2974802218377590179443359375" lon="7.47016735374927520751953125"><ele></ele><time>2020-9-19T10:28:33Z</time></trkpt>
<trkpt lat="46.2974735163152217864990234375" lon="7.47010423801839351654052734375"><ele></ele><time>2020-9-19T10:28:36Z</time></trkpt>
<trkpt lat="46.297467984259128570556640625" lon="7.4700280465185642242431640625"><ele></ele><time>2020-9-19T10:28:39Z</time></trkpt>
<trkpt lat="46.297455914318561553955078125" lon="7.46995822526514530181884765625"><ele></ele><time>2020-9-19T10:28:42Z</time></trkpt>
<trkpt lat="46.29743806086480617523193359375" lon="7.46989309787750244140625"><ele></ele><time>2020-9-19T10:28:45Z</time></trkpt>
<trkpt lat="46.29741190932691097259521484375" lon="7.4698282219469547271728515625"><ele></ele><time>2020-9-19T10:28:48Z</time></trkpt>
<trkpt lat="46.2973779626190662384033203125" lon="7.46976980008184909820556640625"><ele></ele><time>2020-9-19T10:28:51Z</time></trkpt>
<trkpt lat="46.29734854213893413543701171875" lon="7.46971808373928070068359375"><ele></ele><time>2020-9-19T10:28:54Z</time></trkpt>
<trkpt lat="46.29731032066047191619873046875" lon="7.4696557223796844482421875"><ele></ele><time>2020-9-19T10:28:57Z</time></trkpt>
<trkpt lat="46.29727059043943881988525390625" lon="7.4696052633225917816162109375"><ele></ele><time>2020-9-19T10:29:0Z</time></trkpt>
<trkpt lat="46.297236979007720947265625" lon="7.4695459194481372833251953125"><ele></ele><time>2020-9-19T10:29:3Z</time></trkpt>
<trkpt lat="46.29720420576632022857666015625" lon="7.46947391889989376068115234375"><ele></ele><time>2020-9-19T10:29:6Z</time></trkpt>
<trkpt lat="46.2971704266965389251708984375" lon="7.46938892640173435211181640625"><ele></ele><time>2020-9-19T10:29:9Z</time></trkpt>
<trkpt lat="46.29713748581707477569580078125" lon="7.46930510737001895904541015625"><ele></ele><time>2020-9-19T10:29:12Z</time></trkpt>
<trkpt lat="46.29705769009888172149658203125" lon="7.46911936439573764801025390625"><ele></ele><time>2020-9-19T10:29:15Z</time></trkpt>
<trkpt lat="46.297018714249134063720703125" lon="7.46903470717370510101318359375"><ele></ele><time>2020-9-19T10:29:18Z</time></trkpt>
<trkpt lat="46.2969863601028919219970703125" lon="7.4689595215022563934326171875"><ele></ele><time>2020-9-19T10:29:21Z</time></trkpt>
<trkpt lat="46.29694738425314426422119140625" lon="7.4688817374408245086669921875"><ele></ele><time>2020-9-19T10:29:24Z</time></trkpt>
<trkpt lat="46.29690648056566715240478515625" lon="7.4688056297600269317626953125"><ele></ele><time>2020-9-19T10:29:27Z</time></trkpt>
<trkpt lat="46.2968601286411285400390625" lon="7.4687630496919155120849609375"><ele></ele><time>2020-9-19T10:29:30Z</time></trkpt>
<trkpt lat="46.2968220748007297515869140625" lon="7.46874553151428699493408203125"><ele></ele><time>2020-9-19T10:29:33Z</time></trkpt>
<trkpt lat="46.2967838533222675323486328125" lon="7.46874469332396984100341796875"><ele></ele><time>2020-9-19T10:29:36Z</time></trkpt>
<trkpt lat="46.29673314280807971954345703125" lon="7.46874083764851093292236328125"><ele></ele><time>2020-9-19T10:29:39Z</time></trkpt>
<trkpt lat="46.29667782224714756011962890625" lon="7.46873346157371997833251953125"><ele></ele><time>2020-9-19T10:29:42Z</time></trkpt>
<trkpt lat="46.2966188974678516387939453125" lon="7.46873564086854457855224609375"><ele></ele><time>2020-9-19T10:29:45Z</time></trkpt>
<trkpt lat="46.2965516746044158935546875" lon="7.468742765486240386962890625"><ele></ele><time>2020-9-19T10:29:48Z</time></trkpt>
<trkpt lat="46.29648855887353420257568359375" lon="7.46875056065618991851806640625"><ele></ele><time>2020-9-19T10:29:51Z</time></trkpt>
<trkpt lat="46.29642485640943050384521484375" lon="7.4687513150274753570556640625"><ele></ele><time>2020-9-19T10:29:54Z</time></trkpt>
<trkpt lat="46.29636417143046855926513671875" lon="7.46873865835368633270263671875"><ele></ele><time>2020-9-19T10:29:57Z</time></trkpt>
<trkpt lat="46.296306587755680084228515625" lon="7.46870295144617557525634765625"><ele></ele><time>2020-9-19T10:30:0Z</time></trkpt>
<trkpt lat="46.2962474115192890167236328125" lon="7.4686503969132900238037109375"><ele></ele><time>2020-9-19T10:30:3Z</time></trkpt>
<trkpt lat="46.2961877323687076568603515625" lon="7.4685883708298206329345703125"><ele></ele><time>2020-9-19T10:30:6Z</time></trkpt>
<trkpt lat="46.29612855613231658935546875" lon="7.46851050294935703277587890625"><ele></ele><time>2020-9-19T10:30:9Z</time></trkpt>
<trkpt lat="46.2960727326571941375732421875" lon="7.46844244189560413360595703125"><ele></ele><time>2020-9-19T10:30:12Z</time></trkpt>
<trkpt lat="46.29601330496370792388916015625" lon="7.46837697923183441162109375"><ele></ele><time>2020-9-19T10:30:15Z</time></trkpt>
<trkpt lat="46.29595647566020488739013671875" lon="7.46831386350095272064208984375"><ele></ele><time>2020-9-19T10:30:18Z</time></trkpt>
<trkpt lat="46.2958973832428455352783203125" lon="7.46823607943952083587646484375"><ele></ele><time>2020-9-19T10:30:21Z</time></trkpt>
<trkpt lat="46.29578548483550548553466796875" lon="7.46808470226824283599853515625"><ele></ele><time>2020-9-19T10:30:24Z</time></trkpt>
<trkpt lat="46.29573024809360504150390625" lon="7.468011192977428436279296875"><ele></ele><time>2020-9-19T10:30:27Z</time></trkpt>
<trkpt lat="46.29567794501781463623046875" lon="7.4679473228752613067626953125"><ele></ele><time>2020-9-19T10:30:30Z</time></trkpt>
<trkpt lat="46.29562773741781711578369140625" lon="7.46787364594638347625732421875"><ele></ele><time>2020-9-19T10:30:33Z</time></trkpt>
<trkpt lat="46.29558381624519824981689453125" lon="7.4677914194762706756591796875"><ele></ele><time>2020-9-19T10:30:36Z</time></trkpt>
<trkpt lat="46.29548625089228153228759765625" lon="7.4675872363150119781494140625"><ele></ele><time>2020-9-19T10:30:39Z</time></trkpt>
<trkpt lat="46.295432187616825103759765625" lon="7.46749377809464931488037109375"><ele></ele><time>2020-9-19T10:30:42Z</time></trkpt>
<trkpt lat="46.295372508466243743896484375" lon="7.467412389814853668212890625"><ele></ele><time>2020-9-19T10:30:45Z</time></trkpt>
<trkpt lat="46.29531450569629669189453125" lon="7.4673344381153583526611328125"><ele></ele><time>2020-9-19T10:30:48Z</time></trkpt>
<trkpt lat="46.29526077769696712493896484375" lon="7.4672536365687847137451171875"><ele></ele><time>2020-9-19T10:30:51Z</time></trkpt>
<trkpt lat="46.295213587582111358642578125" lon="7.46717493049800395965576171875"><ele></ele><time>2020-9-19T10:30:54Z</time></trkpt>
<trkpt lat="46.2951658107340335845947265625" lon="7.46706537902355194091796875"><ele></ele><time>2020-9-19T10:30:57Z</time></trkpt>
<trkpt lat="46.29508375190198421478271484375" lon="7.46683428995311260223388671875"><ele></ele><time>2020-9-19T10:31:0Z</time></trkpt>
<trkpt lat="46.295035891234874725341796875" lon="7.466711662709712982177734375"><ele></ele><time>2020-9-19T10:31:3Z</time></trkpt>
<trkpt lat="46.2949857674539089202880859375" lon="7.46658048592507839202880859375"><ele></ele><time>2020-9-19T10:31:6Z</time></trkpt>
<trkpt lat="46.29494025371968746185302734375" lon="7.4664593674242496490478515625"><ele></ele><time>2020-9-19T10:31:9Z</time></trkpt>
<trkpt lat="46.29489884711802005767822265625" lon="7.46633875183761119842529296875"><ele></ele><time>2020-9-19T10:31:12Z</time></trkpt>
<trkpt lat="46.2948162853717803955078125" lon="7.4661170504987239837646484375"><ele></ele><time>2020-9-19T10:31:15Z</time></trkpt>
<trkpt lat="46.2947296164929866790771484375" lon="7.46590607799589633941650390625"><ele></ele><time>2020-9-19T10:31:18Z</time></trkpt>
<trkpt lat="46.294695250689983367919921875" lon="7.465807758271694183349609375"><ele></ele><time>2020-9-19T10:31:21Z</time></trkpt>
<trkpt lat="46.29466675221920013427734375" lon="7.465723268687725067138671875"><ele></ele><time>2020-9-19T10:31:24Z</time></trkpt>
<trkpt lat="46.29463967867195606231689453125" lon="7.46564288623631000518798828125"><ele></ele><time>2020-9-19T10:31:27Z</time></trkpt>
<trkpt lat="46.29460128955543041229248046875" lon="7.46557432226836681365966796875"><ele></ele><time>2020-9-19T10:31:30Z</time></trkpt>
<trkpt lat="46.29456256516277790069580078125" lon="7.465523779392242431640625"><ele></ele><time>2020-9-19T10:31:33Z</time></trkpt>
<trkpt lat="46.2945170514285564422607421875" lon="7.46546720154583454132080078125"><ele></ele><time>2020-9-19T10:31:36Z</time></trkpt>
<trkpt lat="46.29447740502655506134033203125" lon="7.4654096178710460662841796875"><ele></ele><time>2020-9-19T10:31:39Z</time></trkpt>
<trkpt lat="46.29445008002221584320068359375" lon="7.46535002253949642181396484375"><ele></ele><time>2020-9-19T10:31:42Z</time></trkpt>
<trkpt lat="46.29443340003490447998046875" lon="7.4652837216854095458984375"><ele></ele><time>2020-9-19T10:31:45Z</time></trkpt>
<trkpt lat="46.29441973753273487091064453125" lon="7.465226389467716217041015625"><ele></ele><time>2020-9-19T10:31:48Z</time></trkpt>
<trkpt lat="46.2943973578512668609619140625" lon="7.4651839770376682281494140625"><ele></ele><time>2020-9-19T10:31:51Z</time></trkpt>
<trkpt lat="46.294378079473972320556640625" lon="7.4651496112346649169921875"><ele></ele><time>2020-9-19T10:31:54Z</time></trkpt>
<trkpt lat="46.29436240531504154205322265625" lon="7.46513008140027523040771484375"><ele></ele><time>2020-9-19T10:31:57Z</time></trkpt>
<trkpt lat="46.29433826543390750885009765625" lon="7.46511365287005901336669921875"><ele></ele><time>2020-9-19T10:32:0Z</time></trkpt>
<trkpt lat="46.29431311972439289093017578125" lon="7.46509890072047710418701171875"><ele></ele><time>2020-9-19T10:32:3Z</time></trkpt>
<trkpt lat="46.29428311251103878021240234375" lon="7.4650880880653858184814453125"><ele></ele><time>2020-9-19T10:32:6Z</time></trkpt>
<trkpt lat="46.29425360821187496185302734375" lon="7.46507761068642139434814453125"><ele></ele><time>2020-9-19T10:32:9Z</time></trkpt>
<trkpt lat="46.294233240187168121337890625" lon="7.465058080852031707763671875"><ele></ele><time>2020-9-19T10:32:12Z</time></trkpt>
<trkpt lat="46.29422544501721858978271484375" lon="7.4650267325341701507568359375"><ele></ele><time>2020-9-19T10:32:15Z</time></trkpt>
<trkpt lat="46.2942303903400897979736328125" lon="7.46498675085604190826416015625"><ele></ele><time>2020-9-19T10:32:18Z</time></trkpt>
<trkpt lat="46.29425075836479663848876953125" lon="7.46494769118726253509521484375"><ele></ele><time>2020-9-19T10:32:21Z</time></trkpt>
<trkpt lat="46.2942790053784847259521484375" lon="7.46491030789911746978759765625"><ele></ele><time>2020-9-19T10:32:24Z</time></trkpt>
<trkpt lat="46.29431144334375858306884765625" lon="7.46487074531614780426025390625"><ele></ele><time>2020-9-19T10:32:27Z</time></trkpt>
<trkpt lat="46.29434195347130298614501953125" lon="7.464818693697452545166015625"><ele></ele><time>2020-9-19T10:32:30Z</time></trkpt>
<trkpt lat="46.29436500370502471923828125" lon="7.464759685099124908447265625"><ele></ele><time>2020-9-19T10:32:33Z</time></trkpt>
<trkpt lat="46.2943819351494312286376953125" lon="7.46469472534954547882080078125"><ele></ele><time>2020-9-19T10:32:36Z</time></trkpt>
<trkpt lat="46.29439123906195163726806640625" lon="7.4646280892193317413330078125"><ele></ele><time>2020-9-19T10:32:39Z</time></trkpt>
<trkpt lat="46.2943923287093639373779296875" lon="7.46455885469913482666015625"><ele></ele><time>2020-9-19T10:32:42Z</time></trkpt>
<trkpt lat="46.29438822157680988311767578125" lon="7.4644969962537288665771484375"><ele></ele><time>2020-9-19T10:32:45Z</time></trkpt>
<trkpt lat="46.294380761682987213134765625" lon="7.464440166950225830078125"><ele></ele><time>2020-9-19T10:32:48Z</time></trkpt>
<trkpt lat="46.29437229596078395843505859375" lon="7.46438182890415191650390625"><ele></ele><time>2020-9-19T10:32:51Z</time></trkpt>
<trkpt lat="46.29434622824192047119140625" lon="7.46423874981701374053955078125"><ele></ele><time>2020-9-19T10:32:54Z</time></trkpt>
<trkpt lat="46.29432477056980133056640625" lon="7.46414856053888797760009765625"><ele></ele><time>2020-9-19T10:32:57Z</time></trkpt>
<trkpt lat="46.2942823581397533416748046875" lon="7.4639417789876461029052734375"><ele></ele><time>2020-9-19T10:33:0Z</time></trkpt>
<trkpt lat="46.29422309808433055877685546875" lon="7.46371529996395111083984375"><ele></ele><time>2020-9-19T10:33:3Z</time></trkpt>
<trkpt lat="46.2941777519881725311279296875" lon="7.4636011384427547454833984375"><ele></ele><time>2020-9-19T10:33:6Z</time></trkpt>
<trkpt lat="46.2941242754459381103515625" lon="7.463494352996349334716796875"><ele></ele><time>2020-9-19T10:33:9Z</time></trkpt>
<trkpt lat="46.29406048916280269622802734375" lon="7.46338815428316593170166015625"><ele></ele><time>2020-9-19T10:33:12Z</time></trkpt>
<trkpt lat="46.29399309866130352020263671875" lon="7.4632774293422698974609375"><ele></ele><time>2020-9-19T10:33:15Z</time></trkpt>
<trkpt lat="46.29386167041957378387451171875" lon="7.463033013045787811279296875"><ele></ele><time>2020-9-19T10:33:18Z</time></trkpt>
<trkpt lat="46.2937003187835216522216796875" lon="7.46262037195265293121337890625"><ele></ele><time>2020-9-19T10:33:21Z</time></trkpt>
<trkpt lat="46.29366402514278888702392578125" lon="7.46247201226651668548583984375"><ele></ele><time>2020-9-19T10:33:24Z</time></trkpt>
<trkpt lat="46.29363276064395904541015625" lon="7.46232918463647365570068359375"><ele></ele><time>2020-9-19T10:33:27Z</time></trkpt>
<trkpt lat="46.293606273829936981201171875" lon="7.46218853630125522613525390625"><ele></ele><time>2020-9-19T10:33:30Z</time></trkpt>
<trkpt lat="46.2935782782733440399169921875" lon="7.4620585329830646514892578125"><ele></ele><time>2020-9-19T10:33:33Z</time></trkpt>
<trkpt lat="46.293556652963161468505859375" lon="7.4619465507566928863525390625"><ele></ele><time>2020-9-19T10:33:36Z</time></trkpt>
<trkpt lat="46.29354718141257762908935546875" lon="7.46184420771896839141845703125"><ele></ele><time>2020-9-19T10:33:39Z</time></trkpt>
<trkpt lat="46.2935447506606578826904296875" lon="7.46175318025052547454833984375"><ele></ele><time>2020-9-19T10:33:42Z</time></trkpt>
<trkpt lat="46.29356159828603267669677734375" lon="7.46166885830461978912353515625"><ele></ele><time>2020-9-19T10:33:45Z</time></trkpt>
<trkpt lat="46.293594874441623687744140625" lon="7.4616159684956073760986328125"><ele></ele><time>2020-9-19T10:33:48Z</time></trkpt>
<trkpt lat="46.29363686777651309967041015625" lon="7.4615844525396823883056640625"><ele></ele><time>2020-9-19T10:33:51Z</time></trkpt>
<trkpt lat="46.29367961548268795013427734375" lon="7.46156961657106876373291015625"><ele></ele><time>2020-9-19T10:33:54Z</time></trkpt>
<trkpt lat="46.2937187589704990386962890625" lon="7.4615549482405185699462890625"><ele></ele><time>2020-9-19T10:33:57Z</time></trkpt>
<trkpt lat="46.2937529571354389190673828125" lon="7.46153743006289005279541015625"><ele></ele><time>2020-9-19T10:34:0Z</time></trkpt>
<trkpt lat="46.29378288052976131439208984375" lon="7.4615234322845935821533203125"><ele></ele><time>2020-9-19T10:34:3Z</time></trkpt>
<trkpt lat="46.29380953498184680938720703125" lon="7.46151178143918514251708984375"><ele></ele><time>2020-9-19T10:34:6Z</time></trkpt>
<trkpt lat="46.29383417777717113494873046875" lon="7.4614982865750789642333984375"><ele></ele><time>2020-9-19T10:34:9Z</time></trkpt>
<trkpt lat="46.293857060372829437255859375" lon="7.46147942729294300079345703125"><ele></ele><time>2020-9-19T10:34:12Z</time></trkpt>
<trkpt lat="46.2938775122165679931640625" lon="7.46146090328693389892578125"><ele></ele><time>2020-9-19T10:34:15Z</time></trkpt>
<trkpt lat="46.2938994728028774261474609375" lon="7.4614441394805908203125"><ele></ele><time>2020-9-19T10:34:18Z</time></trkpt>
<trkpt lat="46.29392369650304317474365234375" lon="7.461427710950374603271484375"><ele></ele><time>2020-9-19T10:34:21Z</time></trkpt>
<trkpt lat="46.29394548945128917694091796875" lon="7.4614117853343486785888671875"><ele></ele><time>2020-9-19T10:34:24Z</time></trkpt>
<trkpt lat="46.293966360390186309814453125" lon="7.461396194994449615478515625"><ele></ele><time>2020-9-19T10:34:27Z</time></trkpt>
<trkpt lat="46.293987147510051727294921875" lon="7.46137783862650394439697265625"><ele></ele><time>2020-9-19T10:34:30Z</time></trkpt>
<trkpt lat="46.29400818608701229095458984375" lon="7.4613624997437000274658203125"><ele></ele><time>2020-9-19T10:34:33Z</time></trkpt>
<trkpt lat="46.2940298952162265777587890625" lon="7.46134967543184757232666015625"><ele></ele><time>2020-9-19T10:34:36Z</time></trkpt>
<trkpt lat="46.2940518558025360107421875" lon="7.46133752167224884033203125"><ele></ele><time>2020-9-19T10:34:39Z</time></trkpt>
<trkpt lat="46.2940734811127185821533203125" lon="7.4613269604742527008056640625"><ele></ele><time>2020-9-19T10:34:42Z</time></trkpt>
<trkpt lat="46.2940947711467742919921875" lon="7.46131614781916141510009765625"><ele></ele><time>2020-9-19T10:34:45Z</time></trkpt>
<trkpt lat="46.2941174022853374481201171875" lon="7.4613098613917827606201171875"><ele></ele><time>2020-9-19T10:34:48Z</time></trkpt>
<trkpt lat="46.29413810558617115020751953125" lon="7.46129787527024745941162109375"><ele></ele><time>2020-9-19T10:34:51Z</time></trkpt>
<trkpt lat="46.29415721632540225982666015625" lon="7.461283542215824127197265625"><ele></ele><time>2020-9-19T10:34:54Z</time></trkpt>
<trkpt lat="46.2941770814359188079833984375" lon="7.46126912534236907958984375"><ele></ele><time>2020-9-19T10:34:57Z</time></trkpt>
<trkpt lat="46.2941958568990230560302734375" lon="7.46125462464988231658935546875"><ele></ele><time>2020-9-19T10:35:0Z</time></trkpt>
<trkpt lat="46.2942156381905078887939453125" lon="7.46124104596674442291259765625"><ele></ele><time>2020-9-19T10:35:3Z</time></trkpt>
<trkpt lat="46.2942350842058658599853515625" lon="7.46123132295906543731689453125"><ele></ele><time>2020-9-19T10:35:6Z</time></trkpt>
<trkpt lat="46.2942548654973506927490234375" lon="7.46122344397008419036865234375"><ele></ele><time>2020-9-19T10:35:9Z</time></trkpt>
<trkpt lat="46.29427489824593067169189453125" lon="7.46121573261916637420654296875"><ele></ele><time>2020-9-19T10:35:12Z</time></trkpt>
<trkpt lat="46.294293589890003204345703125" lon="7.4612099491059780120849609375"><ele></ele><time>2020-9-19T10:35:15Z</time></trkpt>
<trkpt lat="46.29431278444826602935791015625" lon="7.4612042494118213653564453125"><ele></ele><time>2020-9-19T10:35:18Z</time></trkpt>
<trkpt lat="46.29433214664459228515625" lon="7.461199052631855010986328125"><ele></ele><time>2020-9-19T10:35:21Z</time></trkpt>
<trkpt lat="46.2943524308502674102783203125" lon="7.4611958675086498260498046875"><ele></ele><time>2020-9-19T10:35:24Z</time></trkpt>
<trkpt lat="46.29437263123691082000732421875" lon="7.46119108982384204864501953125"><ele></ele><time>2020-9-19T10:35:27Z</time></trkpt>
<trkpt lat="46.29439459182322025299072265625" lon="7.4611841328442096710205078125"><ele></ele><time>2020-9-19T10:35:30Z</time></trkpt>
<trkpt lat="46.2944168038666248321533203125" lon="7.46118069626390933990478515625"><ele></ele><time>2020-9-19T10:35:33Z</time></trkpt>
<trkpt lat="46.294438429176807403564453125" lon="7.4611797742545604705810546875"><ele></ele><time>2020-9-19T10:35:36Z</time></trkpt>
<trkpt lat="46.29445695318281650543212890625" lon="7.4611817859113216400146484375"><ele></ele><time>2020-9-19T10:35:39Z</time></trkpt>
<trkpt lat="46.2944756448268890380859375" lon="7.46118463575839996337890625"><ele></ele><time>2020-9-19T10:35:42Z</time></trkpt>
<trkpt lat="46.29449467174708843231201171875" lon="7.46118597686290740966796875"><ele></ele><time>2020-9-19T10:35:45Z</time></trkpt>
<trkpt lat="46.29451227374374866485595703125" lon="7.46118555776774883270263671875"><ele></ele><time>2020-9-19T10:35:48Z</time></trkpt>
<trkpt lat="46.29452635534107685089111328125" lon="7.46118220500648021697998046875"><ele></ele><time>2020-9-19T10:35:51Z</time></trkpt>
<trkpt lat="46.29454345442354679107666015625" lon="7.46117969043552875518798828125"><ele></ele><time>2020-9-19T10:35:54Z</time></trkpt>
<trkpt lat="46.294560134410858154296875" lon="7.46117927134037017822265625"><ele></ele><time>2020-9-19T10:35:57Z</time></trkpt>
<trkpt lat="46.29457480274140834808349609375" lon="7.4611834622919559478759765625"><ele></ele><time>2020-9-19T10:36:0Z</time></trkpt>
<trkpt lat="46.29459173418581485748291015625" lon="7.461185641586780548095703125"><ele></ele><time>2020-9-19T10:36:3Z</time></trkpt>
<trkpt lat="46.29460900090634822845458984375" lon="7.4611837975680828094482421875"><ele></ele><time>2020-9-19T10:36:6Z</time></trkpt>
<trkpt lat="46.29462651908397674560546875" lon="7.46118061244487762451171875"><ele></ele><time>2020-9-19T10:36:9Z</time></trkpt>
<trkpt lat="46.2946473062038421630859375" lon="7.461177594959735870361328125"><ele></ele><time>2020-9-19T10:36:12Z</time></trkpt>
<trkpt lat="46.294669769704341888427734375" lon="7.4611757509410381317138671875"><ele></ele><time>2020-9-19T10:36:15Z</time></trkpt>
<trkpt lat="46.2946917302906513214111328125" lon="7.46117717586457729339599609375"><ele></ele><time>2020-9-19T10:36:18Z</time></trkpt>
<trkpt lat="46.29471360705792903900146484375" lon="7.46117767877876758575439453125"><ele></ele><time>2020-9-19T10:36:21Z</time></trkpt>
<trkpt lat="46.29473322071135044097900390625" lon="7.46117315255105495452880859375"><ele></ele><time>2020-9-19T10:36:24Z</time></trkpt>
<trkpt lat="46.29475367255508899688720703125" lon="7.46116862632334232330322265625"><ele></ele><time>2020-9-19T10:36:27Z</time></trkpt>
<trkpt lat="46.29477395676076412200927734375" lon="7.46116242371499538421630859375"><ele></ele><time>2020-9-19T10:36:30Z</time></trkpt>
<trkpt lat="46.294793151319026947021484375" lon="7.461158819496631622314453125"><ele></ele><time>2020-9-19T10:36:33Z</time></trkpt>
<trkpt lat="46.294811256229877471923828125" lon="7.4611531198024749755859375"><ele></ele><time>2020-9-19T10:36:36Z</time></trkpt>
<trkpt lat="46.29482978023588657379150390625" lon="7.4611469171941280364990234375"><ele></ele><time>2020-9-19T10:36:39Z</time></trkpt>
<trkpt lat="46.2948483042418956756591796875" lon="7.46114180423319339752197265625"><ele></ele><time>2020-9-19T10:36:42Z</time></trkpt>
<trkpt lat="46.294867582619190216064453125" lon="7.4611338414251804351806640625"><ele></ele><time>2020-9-19T10:36:45Z</time></trkpt>
<trkpt lat="46.29488644190132617950439453125" lon="7.46112269349396228790283203125"><ele></ele><time>2020-9-19T10:36:48Z</time></trkpt>
<trkpt lat="46.294905133545398712158203125" lon="7.46111062355339527130126953125"><ele></ele><time>2020-9-19T10:36:51Z</time></trkpt>
<trkpt lat="46.294923238456249237060546875" lon="7.46109821833670139312744140625"><ele></ele><time>2020-9-19T10:36:54Z</time></trkpt>
<trkpt lat="46.29494075663387775421142578125" lon="7.461083047091960906982421875"><ele></ele><time>2020-9-19T10:36:57Z</time></trkpt>
<trkpt lat="46.294960118830204010009765625" lon="7.4610647745430469512939453125"><ele></ele><time>2020-9-19T10:37:0Z</time></trkpt>
<trkpt lat="46.2949799001216888427734375" lon="7.46104826219379901885986328125"><ele></ele><time>2020-9-19T10:37:3Z</time></trkpt>
<trkpt lat="46.29499909467995166778564453125" lon="7.46103082783520221710205078125"><ele></ele><time>2020-9-19T10:37:6Z</time></trkpt>
<trkpt lat="46.29501803778111934661865234375" lon="7.4610138125717639923095703125"><ele></ele><time>2020-9-19T10:37:9Z</time></trkpt>
<trkpt lat="46.29503731615841388702392578125" lon="7.46099679730832576751708984375"><ele></ele><time>2020-9-19T10:37:12Z</time></trkpt>
<trkpt lat="46.29505458287894725799560546875" lon="7.4609816260635852813720703125"><ele></ele><time>2020-9-19T10:37:15Z</time></trkpt>
<trkpt lat="46.29507084377110004425048828125" lon="7.46096611954271793365478515625"><ele></ele><time>2020-9-19T10:37:18Z</time></trkpt>
<trkpt lat="46.295087523758411407470703125" lon="7.46094885282218456268310546875"><ele></ele><time>2020-9-19T10:37:21Z</time></trkpt>
<trkpt lat="46.2951027788221836090087890625" lon="7.46093250811100006103515625"><ele></ele><time>2020-9-19T10:37:24Z</time></trkpt>
<trkpt lat="46.29511862061917781829833984375" lon="7.460916750133037567138671875"><ele></ele><time>2020-9-19T10:37:27Z</time></trkpt>
<trkpt lat="46.29513655789196491241455078125" lon="7.460901327431201934814453125"><ele></ele><time>2020-9-19T10:37:30Z</time></trkpt>
<trkpt lat="46.29515533335506916046142578125" lon="7.46088825166225433349609375"><ele></ele><time>2020-9-19T10:37:33Z</time></trkpt>
<trkpt lat="46.295174695551395416259765625" lon="7.46087291277945041656494140625"><ele></ele><time>2020-9-19T10:37:36Z</time></trkpt>
<trkpt lat="46.29519305191934108734130859375" lon="7.46085698716342449188232421875"><ele></ele><time>2020-9-19T10:37:39Z</time></trkpt>
<trkpt lat="46.29521082155406475067138671875" lon="7.460843659937381744384765625"><ele></ele><time>2020-9-19T10:37:42Z</time></trkpt>
<trkpt lat="46.29522859118878841400146484375" lon="7.46083050034940242767333984375"><ele></ele><time>2020-9-19T10:37:45Z</time></trkpt>
<trkpt lat="46.2952479533851146697998046875" lon="7.4608149938285350799560546875"><ele></ele><time>2020-9-19T10:37:48Z</time></trkpt>
<trkpt lat="46.2952673994004726409912109375" lon="7.46080066077411174774169921875"><ele></ele><time>2020-9-19T10:37:51Z</time></trkpt>
<trkpt lat="46.29528634250164031982421875" lon="7.46078900992870330810546875"><ele></ele><time>2020-9-19T10:37:54Z</time></trkpt>
<trkpt lat="46.2953059561550617218017578125" lon="7.460776604712009429931640625"><ele></ele><time>2020-9-19T10:37:57Z</time></trkpt>
<trkpt lat="46.29532523453235626220703125" lon="7.4607663787901401519775390625"><ele></ele><time>2020-9-19T10:38:0Z</time></trkpt>
<trkpt lat="46.29534442909061908721923828125" lon="7.4607559852302074432373046875"><ele></ele><time>2020-9-19T10:38:3Z</time></trkpt>
<trkpt lat="46.29536286927759647369384765625" lon="7.46074869297444820404052734375"><ele></ele><time>2020-9-19T10:38:6Z</time></trkpt>
<trkpt lat="46.29538357257843017578125" lon="7.46074265800416469573974609375"><ele></ele><time>2020-9-19T10:38:9Z</time></trkpt>
<trkpt lat="46.29540142603218555450439453125" lon="7.460738383233547210693359375"><ele></ele><time>2020-9-19T10:38:12Z</time></trkpt>
<trkpt lat="46.29542020149528980255126953125" lon="7.4607365392148494720458984375"><ele></ele><time>2020-9-19T10:38:15Z</time></trkpt>
<trkpt lat="46.29544031806290149688720703125" lon="7.46073142625391483306884765625"><ele></ele><time>2020-9-19T10:38:18Z</time></trkpt>
<trkpt lat="46.2954608537256717681884765625" lon="7.460725642740726470947265625"><ele></ele><time>2020-9-19T10:38:21Z</time></trkpt>
<trkpt lat="46.2954799644649028778076171875" lon="7.46071927249431610107421875"><ele></ele><time>2020-9-19T10:38:24Z</time></trkpt>
<trkpt lat="46.29550158977508544921875" lon="7.4607134051620960235595703125"><ele></ele><time>2020-9-19T10:38:27Z</time></trkpt>
<trkpt lat="46.295521371066570281982421875" lon="7.4607063643634319305419921875"><ele></ele><time>2020-9-19T10:38:30Z</time></trkpt>
<trkpt lat="46.29553989507257938385009765625" lon="7.46069923974573612213134765625"><ele></ele><time>2020-9-19T10:38:33Z</time></trkpt>
<trkpt lat="46.295562945306301116943359375" lon="7.46069085784256458282470703125"><ele></ele><time>2020-9-19T10:38:36Z</time></trkpt>
<trkpt lat="46.2955859117209911346435546875" lon="7.46068147011101245880126953125"><ele></ele><time>2020-9-19T10:38:39Z</time></trkpt>
<trkpt lat="46.2956056930124759674072265625" lon="7.4606708250939846038818359375"><ele></ele><time>2020-9-19T10:38:42Z</time></trkpt>
<trkpt lat="46.295625977218151092529296875" lon="7.4606600962579250335693359375"><ele></ele><time>2020-9-19T10:38:45Z</time></trkpt>
<trkpt lat="46.2956476025283336639404296875" lon="7.46064894832670688629150390625"><ele></ele><time>2020-9-19T10:38:48Z</time></trkpt>
<trkpt lat="46.29566629417240619659423828125" lon="7.46063570491969585418701171875"><ele></ele><time>2020-9-19T10:38:51Z</time></trkpt>
<trkpt lat="46.2956848181784152984619140625" lon="7.460622377693653106689453125"><ele></ele><time>2020-9-19T10:38:54Z</time></trkpt>
<trkpt lat="46.2957019172608852386474609375" lon="7.46060871519148349761962890625"><ele></ele><time>2020-9-19T10:38:57Z</time></trkpt>
<trkpt lat="46.29571415483951568603515625" lon="7.46059748344123363494873046875"><ele></ele><time>2020-9-19T10:39:0Z</time></trkpt>
<trkpt lat="46.2957284040749073028564453125" lon="7.4605866707861423492431640625"><ele></ele><time>2020-9-19T10:39:3Z</time></trkpt>
<trkpt lat="46.29574500024318695068359375" lon="7.46057786978781223297119140625"><ele></ele><time>2020-9-19T10:39:6Z</time></trkpt>
<trkpt lat="46.2957656197249889373779296875" lon="7.46056999079883098602294921875"><ele></ele><time>2020-9-19T10:39:9Z</time></trkpt>
<trkpt lat="46.295789591968059539794921875" lon="7.46055699884891510009765625"><ele></ele><time>2020-9-19T10:39:12Z</time></trkpt>
<trkpt lat="46.2958088703453540802001953125" lon="7.46054953895509243011474609375"><ele></ele><time>2020-9-19T10:39:15Z</time></trkpt>
<trkpt lat="46.295831501483917236328125" lon="7.46053964830935001373291015625"><ele></ele><time>2020-9-19T10:39:18Z</time></trkpt>
<trkpt lat="46.2958558090031147003173828125" lon="7.46052791364490985870361328125"><ele></ele><time>2020-9-19T10:39:21Z</time></trkpt>
<trkpt lat="46.29587709903717041015625" lon="7.460511736571788787841796875"><ele></ele><time>2020-9-19T10:39:24Z</time></trkpt>
<trkpt lat="46.2958945333957672119140625" lon="7.46049799025058746337890625"><ele></ele><time>2020-9-19T10:39:27Z</time></trkpt>
<trkpt lat="46.29591397941112518310546875" lon="7.46048181317746639251708984375"><ele></ele><time>2020-9-19T10:39:30Z</time></trkpt>
<trkpt lat="46.29592780955135822296142578125" lon="7.46046471409499645233154296875"><ele></ele><time>2020-9-19T10:39:33Z</time></trkpt>
<trkpt lat="46.29593702964484691619873046875" lon="7.460446022450923919677734375"><ele></ele><time>2020-9-19T10:39:36Z</time></trkpt>
<trkpt lat="46.29595194943249225616455078125" lon="7.46042783372104167938232421875"><ele></ele><time>2020-9-19T10:39:39Z</time></trkpt>
<trkpt lat="46.2959677912294864654541015625" lon="7.46041023172438144683837890625"><ele></ele><time>2020-9-19T10:39:42Z</time></trkpt>
<trkpt lat="46.29598195664584636688232421875" lon="7.460391037166118621826171875"><ele></ele><time>2020-9-19T10:39:45Z</time></trkpt>
<trkpt lat="46.2959952838718891143798828125" lon="7.4603699147701263427734375"><ele></ele><time>2020-9-19T10:39:48Z</time></trkpt>
<trkpt lat="46.29600374959409236907958984375" lon="7.46034652926027774810791015625"><ele></ele><time>2020-9-19T10:39:51Z</time></trkpt>
<trkpt lat="46.2960127182304859161376953125" lon="7.46032406575977802276611328125"><ele></ele><time>2020-9-19T10:39:54Z</time></trkpt>
<trkpt lat="46.2960187532007694244384765625" lon="7.46030227281153202056884765625"><ele></ele><time>2020-9-19T10:39:57Z</time></trkpt>
<trkpt lat="46.29602386616170406341552734375" lon="7.46027863584458827972412109375"><ele></ele><time>2020-9-19T10:40:0Z</time></trkpt>
<trkpt lat="46.29602688364684581756591796875" lon="7.46025633998215198516845703125"><ele></ele><time>2020-9-19T10:40:3Z</time></trkpt>
<trkpt lat="46.29603023640811443328857421875" lon="7.4602358043193817138671875"><ele></ele><time>2020-9-19T10:40:6Z</time></trkpt>
<trkpt lat="46.2960392050445079803466796875" lon="7.46021174825727939605712890625"><ele></ele><time>2020-9-19T10:40:9Z</time></trkpt>
<trkpt lat="46.29604850895702838897705078125" lon="7.46019045822322368621826171875"><ele></ele><time>2020-9-19T10:40:12Z</time></trkpt>
<trkpt lat="46.296059824526309967041015625" lon="7.46016765944659709930419921875"><ele></ele><time>2020-9-19T10:40:15Z</time></trkpt>
<trkpt lat="46.29606912843883037567138671875" lon="7.46014402247965335845947265625"><ele></ele><time>2020-9-19T10:40:18Z</time></trkpt>
<trkpt lat="46.29608136601746082305908203125" lon="7.4601249955594539642333984375"><ele></ele><time>2020-9-19T10:40:21Z</time></trkpt>
<trkpt lat="46.29609511233866214752197265625" lon="7.46010647155344486236572265625"><ele></ele><time>2020-9-19T10:40:24Z</time></trkpt>
<trkpt lat="46.296110115945339202880859375" lon="7.46008819900453090667724609375"><ele></ele><time>2020-9-19T10:40:27Z</time></trkpt>
<trkpt lat="46.296121180057525634765625" lon="7.4600686691701412200927734375"><ele></ele><time>2020-9-19T10:40:30Z</time></trkpt>
<trkpt lat="46.29612947814166545867919921875" lon="7.4600495584309101104736328125"><ele></ele><time>2020-9-19T10:40:33Z</time></trkpt>
<trkpt lat="46.29613601602613925933837890625" lon="7.46002986095845699310302734375"><ele></ele><time>2020-9-19T10:40:36Z</time></trkpt>
<trkpt lat="46.296140961349010467529296875" lon="7.4600103311240673065185546875"><ele></ele><time>2020-9-19T10:40:39Z</time></trkpt>
<trkpt lat="46.296147666871547698974609375" lon="7.45998728089034557342529296875"><ele></ele><time>2020-9-19T10:40:42Z</time></trkpt>
<trkpt lat="46.29615495912730693817138671875" lon="7.459964565932750701904296875"><ele></ele><time>2020-9-19T10:40:45Z</time></trkpt>
<trkpt lat="46.29616384394466876983642578125" lon="7.459940426051616668701171875"><ele></ele><time>2020-9-19T10:40:48Z</time></trkpt>
<trkpt lat="46.2961783446371555328369140625" lon="7.45991201139986515045166015625"><ele></ele><time>2020-9-19T10:40:51Z</time></trkpt>
<trkpt lat="46.296195276081562042236328125" lon="7.45988451875746250152587890625"><ele></ele><time>2020-9-19T10:40:54Z</time></trkpt>
<trkpt lat="46.2962091900408267974853515625" lon="7.45985803194344043731689453125"><ele></ele><time>2020-9-19T10:40:57Z</time></trkpt>
<trkpt lat="46.29622352309525012969970703125" lon="7.4598292820155620574951171875"><ele></ele><time>2020-9-19T10:41:0Z</time></trkpt>
<trkpt lat="46.29623852670192718505859375" lon="7.4598027952015399932861328125"><ele></ele><time>2020-9-19T10:41:3Z</time></trkpt>
<trkpt lat="46.2962534464895725250244140625" lon="7.4597753025591373443603515625"><ele></ele><time>2020-9-19T10:41:6Z</time></trkpt>
<trkpt lat="46.29626727662980556488037109375" lon="7.45974923484027385711669921875"><ele></ele><time>2020-9-19T10:41:9Z</time></trkpt>
<trkpt lat="46.29628035239875316619873046875" lon="7.4597235023975372314453125"><ele></ele><time>2020-9-19T10:41:12Z</time></trkpt>
<trkpt lat="46.29629326052963733673095703125" lon="7.4596961773931980133056640625"><ele></ele><time>2020-9-19T10:41:15Z</time></trkpt>
<trkpt lat="46.29630566574633121490478515625" lon="7.45966742746531963348388671875"><ele></ele><time>2020-9-19T10:41:18Z</time></trkpt>
<trkpt lat="46.2963171489536762237548828125" lon="7.4596408568322658538818359375"><ele></ele><time>2020-9-19T10:41:21Z</time></trkpt>
<trkpt lat="46.296329386532306671142578125" lon="7.45961059816181659698486328125"><ele></ele><time>2020-9-19T10:41:24Z</time></trkpt>
<trkpt lat="46.29634036682546138763427734375" lon="7.45958427898585796356201171875"><ele></ele><time>2020-9-19T10:41:27Z</time></trkpt>
<trkpt lat="46.29635394550859928131103515625" lon="7.459563575685024261474609375"><ele></ele><time>2020-9-19T10:41:30Z</time></trkpt>
<trkpt lat="46.29636987112462520599365234375" lon="7.45954102836549282073974609375"><ele></ele><time>2020-9-19T10:41:33Z</time></trkpt>
<trkpt lat="46.296384036540985107421875" lon="7.45951789431273937225341796875"><ele></ele><time>2020-9-19T10:41:36Z</time></trkpt>
<trkpt lat="46.29640054889023303985595703125" lon="7.45949643664062023162841796875"><ele></ele><time>2020-9-19T10:41:39Z</time></trkpt>
<trkpt lat="46.2964150495827198028564453125" lon="7.45947338640689849853515625"><ele></ele><time>2020-9-19T10:41:42Z</time></trkpt>
<trkpt lat="46.29643030464649200439453125" lon="7.4594520963728427886962890625"><ele></ele><time>2020-9-19T10:41:45Z</time></trkpt>
<trkpt lat="46.296444721519947052001953125" lon="7.45943206362426280975341796875"><ele></ele><time>2020-9-19T10:41:48Z</time></trkpt>
<trkpt lat="46.29645721055567264556884765625" lon="7.45941412635147571563720703125"><ele></ele><time>2020-9-19T10:41:51Z</time></trkpt>
<trkpt lat="46.29647145979106426239013671875" lon="7.459396608173847198486328125"><ele></ele><time>2020-9-19T10:41:54Z</time></trkpt>
<trkpt lat="46.29648587666451930999755859375" lon="7.459377832710742950439453125"><ele></ele><time>2020-9-19T10:41:57Z</time></trkpt>
<trkpt lat="46.29650146700441837310791015625" lon="7.4593595601618289947509765625"><ele></ele><time>2020-9-19T10:42:0Z</time></trkpt>
<trkpt lat="46.29651756025850772857666015625" lon="7.4593391083180904388427734375"><ele></ele><time>2020-9-19T10:42:3Z</time></trkpt>
<trkpt lat="46.29653214477002620697021484375" lon="7.45931924320757389068603515625"><ele></ele><time>2020-9-19T10:42:6Z</time></trkpt>
<trkpt lat="46.29654572345316410064697265625" lon="7.4593039043247699737548828125"><ele></ele><time>2020-9-19T10:42:9Z</time></trkpt>
<trkpt lat="46.29655930213630199432373046875" lon="7.4592921696603298187255859375"><ele></ele><time>2020-9-19T10:42:12Z</time></trkpt>
<trkpt lat="46.296572126448154449462890625" lon="7.4592794291675090789794921875"><ele></ele><time>2020-9-19T10:42:15Z</time></trkpt>
<trkpt lat="46.2965873815119266510009765625" lon="7.45927146635949611663818359375"><ele></ele><time>2020-9-19T10:42:18Z</time></trkpt>
<trkpt lat="46.29660523496568202972412109375" lon="7.45926844887435436248779296875"><ele></ele><time>2020-9-19T10:42:21Z</time></trkpt>
<trkpt lat="46.29662401042878627777099609375" lon="7.459269203245639801025390625"><ele></ele><time>2020-9-19T10:42:24Z</time></trkpt>
<trkpt lat="46.2966383434832096099853515625" lon="7.45926861651241779327392578125"><ele></ele><time>2020-9-19T10:42:27Z</time></trkpt>
<trkpt lat="46.29665066488087177276611328125" lon="7.45926685631275177001953125"><ele></ele><time>2020-9-19T10:42:30Z</time></trkpt>
<trkpt lat="46.29666575230658054351806640625" lon="7.45926023460924625396728515625"><ele></ele><time>2020-9-19T10:42:33Z</time></trkpt>
<trkpt lat="46.29668067209422588348388671875" lon="7.45924565009772777557373046875"><ele></ele><time>2020-9-19T10:42:36Z</time></trkpt>
<trkpt lat="46.2966939993202686309814453125" lon="7.45922855101525783538818359375"><ele></ele><time>2020-9-19T10:42:39Z</time></trkpt>
<trkpt lat="46.29670548252761363983154296875" lon="7.45921413414180278778076171875"><ele></ele><time>2020-9-19T10:42:42Z</time></trkpt>
<trkpt lat="46.296716965734958648681640625" lon="7.4592031538486480712890625"><ele></ele><time>2020-9-19T10:42:45Z</time></trkpt>
<trkpt lat="46.2967260181903839111328125" lon="7.4591922573745250701904296875"><ele></ele><time>2020-9-19T10:42:48Z</time></trkpt>
<trkpt lat="46.296733058989048004150390625" lon="7.45917968451976776123046875"><ele></ele><time>2020-9-19T10:42:51Z</time></trkpt>
<trkpt lat="46.29674412310123443603515625" lon="7.4591681174933910369873046875"><ele></ele><time>2020-9-19T10:42:54Z</time></trkpt>
<trkpt lat="46.29675510339438915252685546875" lon="7.45915018022060394287109375"><ele></ele><time>2020-9-19T10:42:57Z</time></trkpt>
<trkpt lat="46.29676398821175098419189453125" lon="7.45913484133780002593994140625"><ele></ele><time>2020-9-19T10:43:0Z</time></trkpt>
<trkpt lat="46.2967731244862079620361328125" lon="7.4591151438653469085693359375"><ele></ele><time>2020-9-19T10:43:3Z</time></trkpt>
<trkpt lat="46.29678326658904552459716796875" lon="7.459095530211925506591796875"><ele></ele><time>2020-9-19T10:43:6Z</time></trkpt>
<trkpt lat="46.2967949174344539642333984375" lon="7.45907767675817012786865234375"><ele></ele><time>2020-9-19T10:43:9Z</time></trkpt>
<trkpt lat="46.2968063168227672576904296875" lon="7.45905588380992412567138671875"><ele></ele><time>2020-9-19T10:43:12Z</time></trkpt>
<trkpt lat="46.2968170456588268280029296875" lon="7.45903593488037586212158203125"><ele></ele><time>2020-9-19T10:43:15Z</time></trkpt>
<trkpt lat="46.296832300722599029541015625" lon="7.4590209312736988067626953125"><ele></ele><time>2020-9-19T10:43:18Z</time></trkpt>
<trkpt lat="46.296847052872180938720703125" lon="7.45900324545800685882568359375"><ele></ele><time>2020-9-19T10:43:21Z</time></trkpt>
<trkpt lat="46.29686239175498485565185546875" lon="7.458984889090061187744140625"><ele></ele><time>2020-9-19T10:43:24Z</time></trkpt>
<trkpt lat="46.29687647335231304168701171875" lon="7.45896644890308380126953125"><ele></ele><time>2020-9-19T10:43:27Z</time></trkpt>
<trkpt lat="46.29689323715865612030029296875" lon="7.4589535407721996307373046875"><ele></ele><time>2020-9-19T10:43:30Z</time></trkpt>
<trkpt lat="46.29690832458436489105224609375" lon="7.458942644298076629638671875"><ele></ele><time>2020-9-19T10:43:33Z</time></trkpt>
<trkpt lat="46.29692391492426395416259765625" lon="7.45893501676619052886962890625"><ele></ele><time>2020-9-19T10:43:36Z</time></trkpt>
<trkpt lat="46.2969407625496387481689453125" lon="7.458929903805255889892578125"><ele></ele><time>2020-9-19T10:43:39Z</time></trkpt>
<trkpt lat="46.29696029238402843475341796875" lon="7.4589263834059238433837890625"><ele></ele><time>2020-9-19T10:43:42Z</time></trkpt>
<trkpt lat="46.2969766370952129364013671875" lon="7.458921186625957489013671875"><ele></ele><time>2020-9-19T10:43:45Z</time></trkpt>
<trkpt lat="46.29699365235865116119384765625" lon="7.45891657657921314239501953125"><ele></ele><time>2020-9-19T10:43:48Z</time></trkpt>
<trkpt lat="46.297007985413074493408203125" lon="7.458913139998912811279296875"><ele></ele><time>2020-9-19T10:43:51Z</time></trkpt>
<trkpt lat="46.29702265374362468719482421875" lon="7.458911128342151641845703125"><ele></ele><time>2020-9-19T10:43:54Z</time></trkpt>
<trkpt lat="46.29703924991190433502197265625" lon="7.4589096195995807647705078125"><ele></ele><time>2020-9-19T10:43:57Z</time></trkpt>
<trkpt lat="46.297055594623088836669921875" lon="7.4589086137712001800537109375"><ele></ele><time>2020-9-19T10:44:0Z</time></trkpt>
<trkpt lat="46.29707143642008304595947265625" lon="7.45890316553413867950439453125"><ele></ele><time>2020-9-19T10:44:3Z</time></trkpt>
<trkpt lat="46.29709088243544101715087890625" lon="7.4588958732783794403076171875"><ele></ele><time>2020-9-19T10:44:6Z</time></trkpt>
<trkpt lat="46.29710915498435497283935546875" lon="7.45888866484165191650390625"><ele></ele><time>2020-9-19T10:44:9Z</time></trkpt>
<trkpt lat="46.29712759517133235931396484375" lon="7.45888036675751209259033203125"><ele></ele><time>2020-9-19T10:44:12Z</time></trkpt>
<trkpt lat="46.297145783901214599609375" lon="7.45886988937854766845703125"><ele></ele><time>2020-9-19T10:44:15Z</time></trkpt>
<trkpt lat="46.2971640564501285552978515625" lon="7.45885103009641170501708984375"><ele></ele><time>2020-9-19T10:44:18Z</time></trkpt>
<trkpt lat="46.29718174226582050323486328125" lon="7.45883728377521038055419921875"><ele></ele><time>2020-9-19T10:44:21Z</time></trkpt>
<trkpt lat="46.297199428081512451171875" lon="7.45882856659591197967529296875"><ele></ele><time>2020-9-19T10:44:24Z</time></trkpt>
<trkpt lat="46.29721644334495067596435546875" lon="7.458821944892406463623046875"><ele></ele><time>2020-9-19T10:44:27Z</time></trkpt>
<trkpt lat="46.29723119549453258514404296875" lon="7.4588123895227909088134765625"><ele></ele><time>2020-9-19T10:44:30Z</time></trkpt>
<trkpt lat="46.29724946804344654083251953125" lon="7.45881021022796630859375"><ele></ele><time>2020-9-19T10:44:33Z</time></trkpt>
<trkpt lat="46.2972706742584705352783203125" lon="7.45881331153213977813720703125"><ele></ele><time>2020-9-19T10:44:36Z</time></trkpt>
<trkpt lat="46.29729188047349452972412109375" lon="7.45882068760693073272705078125"><ele></ele><time>2020-9-19T10:44:39Z</time></trkpt>
<trkpt lat="46.297310404479503631591796875" lon="7.458832673728466033935546875"><ele></ele><time>2020-9-19T10:44:42Z</time></trkpt>
<trkpt lat="46.297328174114227294921875" lon="7.4588437378406524658203125"><ele></ele><time>2020-9-19T10:44:45Z</time></trkpt>
<trkpt lat="46.29734669812023639678955078125" lon="7.45885379612445831298828125"><ele></ele><time>2020-9-19T10:44:48Z</time></trkpt>
<trkpt lat="46.29736865870654582977294921875" lon="7.45885337702929973602294921875"><ele></ele><time>2020-9-19T10:44:51Z</time></trkpt>
<trkpt lat="46.29739028401672840118408203125" lon="7.4588559754192829132080078125"><ele></ele><time>2020-9-19T10:44:54Z</time></trkpt>
<trkpt lat="46.29741308279335498809814453125" lon="7.4588596634566783905029296875"><ele></ele><time>2020-9-19T10:44:57Z</time></trkpt>
<trkpt lat="46.2974862568080425262451171875" lon="7.45887466706335544586181640625"><ele></ele><time>2020-9-19T10:45:0Z</time></trkpt>
<trkpt lat="46.29750930704176425933837890625" lon="7.45888589881360530853271484375"><ele></ele><time>2020-9-19T10:45:3Z</time></trkpt>
<trkpt lat="46.29753042943775653839111328125" lon="7.458902411162853240966796875"><ele></ele><time>2020-9-19T10:45:6Z</time></trkpt>
<trkpt lat="46.297551803290843963623046875" lon="7.45892093516886234283447265625"><ele></ele><time>2020-9-19T10:45:9Z</time></trkpt>
<trkpt lat="46.2975968979299068450927734375" lon="7.4589575640857219696044921875"><ele></ele><time>2020-9-19T10:45:12Z</time></trkpt>
<trkpt lat="46.29761944524943828582763671875" lon="7.458979189395904541015625"><ele></ele><time>2020-9-19T10:45:15Z</time></trkpt>
<trkpt lat="46.2976419925689697265625" lon="7.45900257490575313568115234375"><ele></ele><time>2020-9-19T10:45:18Z</time></trkpt>
<trkpt lat="46.2976659648120403289794921875" lon="7.459025792777538299560546875"><ele></ele><time>2020-9-19T10:45:21Z</time></trkpt>
<trkpt lat="46.2976901046931743621826171875" lon="7.4590494297444820404052734375"><ele></ele><time>2020-9-19T10:45:24Z</time></trkpt>
<trkpt lat="46.29776696674525737762451171875" lon="7.4591258727014064788818359375"><ele></ele><time>2020-9-19T10:45:27Z</time></trkpt>
<trkpt lat="46.2978708185255527496337890625" lon="7.45923710055649280548095703125"><ele></ele><time>2020-9-19T10:45:30Z</time></trkpt>
<trkpt lat="46.29794214852154254913330078125" lon="7.45933617465198040008544921875"><ele></ele><time>2020-9-19T10:45:33Z</time></trkpt>
<trkpt lat="46.29796461202204227447509765625" lon="7.459373809397220611572265625"><ele></ele><time>2020-9-19T10:45:36Z</time></trkpt>
<trkpt lat="46.29806569777429103851318359375" lon="7.4595282040536403656005859375"><ele></ele><time>2020-9-19T10:45:39Z</time></trkpt>
<trkpt lat="46.2981765903532505035400390625" lon="7.459674216806888580322265625"><ele></ele><time>2020-9-19T10:45:42Z</time></trkpt>
<trkpt lat="46.29820399917662143707275390625" lon="7.45971017517149448394775390625"><ele></ele><time>2020-9-19T10:45:45Z</time></trkpt>
<trkpt lat="46.298232413828372955322265625" lon="7.45974135585129261016845703125"><ele></ele><time>2020-9-19T10:45:48Z</time></trkpt>
<trkpt lat="46.2982610799372196197509765625" lon="7.45977169834077358245849609375"><ele></ele><time>2020-9-19T10:45:51Z</time></trkpt>
<trkpt lat="46.2982905842363834381103515625" lon="7.45980019681155681610107421875"><ele></ele><time>2020-9-19T10:45:54Z</time></trkpt>
<trkpt lat="46.29831983707845211029052734375" lon="7.45982836000621318817138671875"><ele></ele><time>2020-9-19T10:45:57Z</time></trkpt>
<trkpt lat="46.29834867082536220550537109375" lon="7.459856607019901275634765625"><ele></ele><time>2020-9-19T10:46:0Z</time></trkpt>
<trkpt lat="46.29837767221033573150634765625" lon="7.45988317765295505523681640625"><ele></ele><time>2020-9-19T10:46:3Z</time></trkpt>
<trkpt lat="46.29840684123337268829345703125" lon="7.45990966446697711944580078125"><ele></ele><time>2020-9-19T10:46:6Z</time></trkpt>
<trkpt lat="46.29843567498028278350830078125" lon="7.45993606746196746826171875"><ele></ele><time>2020-9-19T10:46:9Z</time></trkpt>
<trkpt lat="46.298465095460414886474609375" lon="7.4599627219140529632568359375"><ele></ele><time>2020-9-19T10:46:12Z</time></trkpt>
<trkpt lat="46.2984947673976421356201171875" lon="7.45998929254710674285888671875"><ele></ele><time>2020-9-19T10:46:15Z</time></trkpt>
<trkpt lat="46.298523433506488800048828125" lon="7.46001510880887508392333984375"><ele></ele><time>2020-9-19T10:46:18Z</time></trkpt>
<trkpt lat="46.2985524348914623260498046875" lon="7.46004025451838970184326171875"><ele></ele><time>2020-9-19T10:46:21Z</time></trkpt>
<trkpt lat="46.29858076572418212890625" lon="7.460067160427570343017578125"><ele></ele><time>2020-9-19T10:46:24Z</time></trkpt>
<trkpt lat="46.298608593642711639404296875" lon="7.46009473688900470733642578125"><ele></ele><time>2020-9-19T10:46:27Z</time></trkpt>
<trkpt lat="46.298636756837368011474609375" lon="7.46012239716947078704833984375"><ele></ele><time>2020-9-19T10:46:30Z</time></trkpt>
<trkpt lat="46.29866433329880237579345703125" lon="7.4601508118212223052978515625"><ele></ele><time>2020-9-19T10:46:33Z</time></trkpt>
<trkpt lat="46.29869031719863414764404296875" lon="7.46018056757748126983642578125"><ele></ele><time>2020-9-19T10:46:36Z</time></trkpt>
<trkpt lat="46.2987180612981319427490234375" lon="7.46020990423858165740966796875"><ele></ele><time>2020-9-19T10:46:39Z</time></trkpt>
<trkpt lat="46.29874614067375659942626953125" lon="7.46023756451904773712158203125"><ele></ele><time>2020-9-19T10:46:42Z</time></trkpt>
<trkpt lat="46.29877547733485698699951171875" lon="7.46026421897113323211669921875"><ele></ele><time>2020-9-19T10:46:45Z</time></trkpt>
<trkpt lat="46.29880447871983051300048828125" lon="7.46029288507997989654541015625"><ele></ele><time>2020-9-19T10:46:48Z</time></trkpt>
<trkpt lat="46.29883289337158203125" lon="7.46032222174108028411865234375"><ele></ele><time>2020-9-19T10:46:51Z</time></trkpt>
<trkpt lat="46.2988618947565555572509765625" lon="7.46035046875476837158203125"><ele></ele><time>2020-9-19T10:46:54Z</time></trkpt>
<trkpt lat="46.29889190196990966796875" lon="7.460376955568790435791015625"><ele></ele><time>2020-9-19T10:46:57Z</time></trkpt>
<trkpt lat="46.2989227473735809326171875" lon="7.4604012630879878997802734375"><ele></ele><time>2020-9-19T10:47:0Z</time></trkpt>
<trkpt lat="46.29895350895822048187255859375" lon="7.4604233913123607635498046875"><ele></ele><time>2020-9-19T10:47:3Z</time></trkpt>
<trkpt lat="46.29898452199995517730712890625" lon="7.46044426225125789642333984375"><ele></ele><time>2020-9-19T10:47:6Z</time></trkpt>
<trkpt lat="46.29901519976556301116943359375" lon="7.46046354062855243682861328125"><ele></ele><time>2020-9-19T10:47:9Z</time></trkpt>
<trkpt lat="46.2990466319024562835693359375" lon="7.4604803882539272308349609375"><ele></ele><time>2020-9-19T10:47:12Z</time></trkpt>
<trkpt lat="46.29907739348709583282470703125" lon="7.4604964815080165863037109375"><ele></ele><time>2020-9-19T10:47:15Z</time></trkpt>
<trkpt lat="46.29910723306238651275634765625" lon="7.460511066019535064697265625"><ele></ele><time>2020-9-19T10:47:18Z</time></trkpt>
<trkpt lat="46.29913573153316974639892578125" lon="7.4605259858071804046630859375"><ele></ele><time>2020-9-19T10:47:21Z</time></trkpt>
<trkpt lat="46.29916439764201641082763671875" lon="7.4605387263000011444091796875"><ele></ele><time>2020-9-19T10:47:24Z</time></trkpt>
<trkpt lat="46.29919474013149738311767578125" lon="7.46054836548864841461181640625"><ele></ele><time>2020-9-19T10:47:27Z</time></trkpt>
<trkpt lat="46.29922457970678806304931640625" lon="7.4605578370392322540283203125"><ele></ele><time>2020-9-19T10:47:30Z</time></trkpt>
<trkpt lat="46.299255006015300750732421875" lon="7.46056613512337207794189453125"><ele></ele><time>2020-9-19T10:47:33Z</time></trkpt>
<trkpt lat="46.299281828105449676513671875" lon="7.460572756826877593994140625"><ele></ele><time>2020-9-19T10:47:36Z</time></trkpt>
<trkpt lat="46.29930831491947174072265625" lon="7.46057535521686077117919921875"><ele></ele><time>2020-9-19T10:47:39Z</time></trkpt>
<trkpt lat="46.2993339635431766510009765625" lon="7.46057803742587566375732421875"><ele></ele><time>2020-9-19T10:47:42Z</time></trkpt>
<trkpt lat="46.29935818724334239959716796875" lon="7.46058021672070026397705078125"><ele></ele><time>2020-9-19T10:47:45Z</time></trkpt>
<trkpt lat="46.29937964491546154022216796875" lon="7.46058071963489055633544921875"><ele></ele><time>2020-9-19T10:47:48Z</time></trkpt>
<trkpt lat="46.299406550824642181396484375" lon="7.460576109588146209716796875"><ele></ele><time>2020-9-19T10:47:51Z</time></trkpt>
<trkpt lat="46.29943077452480792999267578125" lon="7.46057040989398956298828125"><ele></ele><time>2020-9-19T10:47:54Z</time></trkpt>
<trkpt lat="46.2994536571204662322998046875" lon="7.460567057132720947265625"><ele></ele><time>2020-9-19T10:47:57Z</time></trkpt>
<trkpt lat="46.29947603680193424224853515625" lon="7.46056412346661090850830078125"><ele></ele><time>2020-9-19T10:48:0Z</time></trkpt>
<trkpt lat="46.29949850030243396759033203125" lon="7.46055993251502513885498046875"><ele></ele><time>2020-9-19T10:48:3Z</time></trkpt>
<trkpt lat="46.2995180301368236541748046875" lon="7.4605551548302173614501953125"><ele></ele><time>2020-9-19T10:48:6Z</time></trkpt>
<trkpt lat="46.29953655414283275604248046875" lon="7.460548616945743560791015625"><ele></ele><time>2020-9-19T10:48:9Z</time></trkpt>
<trkpt lat="46.29955482669174671173095703125" lon="7.4605407379567623138427734375"><ele></ele><time>2020-9-19T10:48:12Z</time></trkpt>
<trkpt lat="46.29957251250743865966796875" lon="7.46053227223455905914306640625"><ele></ele><time>2020-9-19T10:48:15Z</time></trkpt>
<trkpt lat="46.2995901145040988922119140625" lon="7.46052271686494350433349609375"><ele></ele><time>2020-9-19T10:48:18Z</time></trkpt>
<trkpt lat="46.29960780031979084014892578125" lon="7.46051274240016937255859375"><ele></ele><time>2020-9-19T10:48:21Z</time></trkpt>
<trkpt lat="46.2996243126690387725830078125" lon="7.46050058864057064056396484375"><ele></ele><time>2020-9-19T10:48:24Z</time></trkpt>
<trkpt lat="46.29964048974215984344482421875" lon="7.46048835106194019317626953125"><ele></ele><time>2020-9-19T10:48:27Z</time></trkpt>
<trkpt lat="46.2996576726436614990234375" lon="7.46047711931169033050537109375"><ele></ele><time>2020-9-19T10:48:30Z</time></trkpt>
<trkpt lat="46.29967468790709972381591796875" lon="7.4604666419327259063720703125"><ele></ele><time>2020-9-19T10:48:33Z</time></trkpt>
<trkpt lat="46.29969228990375995635986328125" lon="7.46045750565826892852783203125"><ele></ele><time>2020-9-19T10:48:36Z</time></trkpt>
<trkpt lat="46.299709975719451904296875" lon="7.46044836938381195068359375"><ele></ele><time>2020-9-19T10:48:39Z</time></trkpt>
<trkpt lat="46.2997269071638584136962890625" lon="7.460438646376132965087890625"><ele></ele><time>2020-9-19T10:48:42Z</time></trkpt>
<trkpt lat="46.2997436709702014923095703125" lon="7.46042733080685138702392578125"><ele></ele><time>2020-9-19T10:48:45Z</time></trkpt>
<trkpt lat="46.299759931862354278564453125" lon="7.460413835942745208740234375"><ele></ele><time>2020-9-19T10:48:48Z</time></trkpt>
<trkpt lat="46.299776025116443634033203125" lon="7.4604002572596073150634765625"><ele></ele><time>2020-9-19T10:48:51Z</time></trkpt>
<trkpt lat="46.29979169927537441253662109375" lon="7.46038659475743770599365234375"><ele></ele><time>2020-9-19T10:48:54Z</time></trkpt>
<trkpt lat="46.29980863071978092193603515625" lon="7.46037402190268039703369140625"><ele></ele><time>2020-9-19T10:48:57Z</time></trkpt>
<trkpt lat="46.29982866346836090087890625" lon="7.46036044321954250335693359375"><ele></ele><time>2020-9-19T10:49:0Z</time></trkpt>
<trkpt lat="46.29984467290341854095458984375" lon="7.4603462778031826019287109375"><ele></ele><time>2020-9-19T10:49:3Z</time></trkpt>
<trkpt lat="46.29986193962395191192626953125" lon="7.46033345349133014678955078125"><ele></ele><time>2020-9-19T10:49:6Z</time></trkpt>
<trkpt lat="46.29987954162061214447021484375" lon="7.46032138355076313018798828125"><ele></ele><time>2020-9-19T10:49:9Z</time></trkpt>
<trkpt lat="46.29989630542695522308349609375" lon="7.46030981652438640594482421875"><ele></ele><time>2020-9-19T10:49:12Z</time></trkpt>
<trkpt lat="46.2999126501381397247314453125" lon="7.46029959060251712799072265625"><ele></ele><time>2020-9-19T10:49:15Z</time></trkpt>
<trkpt lat="46.2999287433922290802001953125" lon="7.46028852649033069610595703125"><ele></ele><time>2020-9-19T10:49:18Z</time></trkpt>
<trkpt lat="46.29994642920792102813720703125" lon="7.460277378559112548828125"><ele></ele><time>2020-9-19T10:49:21Z</time></trkpt>
<trkpt lat="46.2999626062810420989990234375" lon="7.4602627940475940704345703125"><ele></ele><time>2020-9-19T10:49:24Z</time></trkpt>
<trkpt lat="46.299977861344814300537109375" lon="7.46024745516479015350341796875"><ele></ele><time>2020-9-19T10:49:27Z</time></trkpt>
<trkpt lat="46.29999470897018909454345703125" lon="7.46023354120552539825439453125"><ele></ele><time>2020-9-19T10:49:30Z</time></trkpt>
<trkpt lat="46.3000098802149295806884765625" lon="7.46022080071270465850830078125"><ele></ele><time>2020-9-19T10:49:33Z</time></trkpt>
<trkpt lat="46.300022788345813751220703125" lon="7.46020495891571044921875"><ele></ele><time>2020-9-19T10:49:36Z</time></trkpt>
<trkpt lat="46.30003410391509532928466796875" lon="7.46018576435744762420654296875"><ele></ele><time>2020-9-19T10:49:39Z</time></trkpt>
<trkpt lat="46.30004189908504486083984375" lon="7.46016313321888446807861328125"><ele></ele><time>2020-9-19T10:49:42Z</time></trkpt>
<trkpt lat="46.30004567094147205352783203125" lon="7.46013999916613101959228515625"><ele></ele><time>2020-9-19T10:49:45Z</time></trkpt>
<trkpt lat="46.3000487722456455230712890625" lon="7.4601151049137115478515625"><ele></ele><time>2020-9-19T10:49:48Z</time></trkpt>
<trkpt lat="46.3000558130443096160888671875" lon="7.4600909650325775146484375"><ele></ele><time>2020-9-19T10:49:51Z</time></trkpt>
<trkpt lat="46.3000655360519886016845703125" lon="7.46006892062723636627197265625"><ele></ele><time>2020-9-19T10:49:54Z</time></trkpt>
<trkpt lat="46.30007601343095302581787109375" lon="7.4600480496883392333984375"><ele></ele><time>2020-9-19T10:49:57Z</time></trkpt>
<trkpt lat="46.30008439533412456512451171875" lon="7.46002986095845699310302734375"><ele></ele><time>2020-9-19T10:50:0Z</time></trkpt>
<trkpt lat="46.300091184675693511962890625" lon="7.46001108549535274505615234375"><ele></ele><time>2020-9-19T10:50:3Z</time></trkpt>
<trkpt lat="46.30009830929338932037353515625" lon="7.4599917232990264892578125"><ele></ele><time>2020-9-19T10:50:6Z</time></trkpt>
<trkpt lat="46.30010627210140228271484375" lon="7.4599734507501125335693359375"><ele></ele><time>2020-9-19T10:50:9Z</time></trkpt>
<trkpt lat="46.30011389963328838348388671875" lon="7.4599613808095455169677734375"><ele></ele><time>2020-9-19T10:50:12Z</time></trkpt>
<trkpt lat="46.3001228682696819305419921875" lon="7.45995241217315196990966796875"><ele></ele><time>2020-9-19T10:50:15Z</time></trkpt>
<trkpt lat="46.30012848414480686187744140625" lon="7.45993816293776035308837890625"><ele></ele><time>2020-9-19T10:50:18Z</time></trkpt>
<trkpt lat="46.30013099871575832366943359375" lon="7.4599211476743221282958984375"><ele></ele><time>2020-9-19T10:50:21Z</time></trkpt>
<trkpt lat="46.3001282326877117156982421875" lon="7.459904886782169342041015625"><ele></ele><time>2020-9-19T10:50:24Z</time></trkpt>
<trkpt lat="46.30012236535549163818359375" lon="7.45988870970904827117919921875"><ele></ele><time>2020-9-19T10:50:27Z</time></trkpt>
<trkpt lat="46.30011658184230327606201171875" lon="7.45987437665462493896484375"><ele></ele><time>2020-9-19T10:50:30Z</time></trkpt>
<trkpt lat="46.300110630691051483154296875" lon="7.45985803194344043731689453125"><ele></ele><time>2020-9-19T10:50:33Z</time></trkpt>
<trkpt lat="46.30010887049138545989990234375" lon="7.45984126813709735870361328125"><ele></ele><time>2020-9-19T10:50:36Z</time></trkpt>
<trkpt lat="46.3001091219484806060791015625" lon="7.4598242528736591339111328125"><ele></ele><time>2020-9-19T10:50:39Z</time></trkpt>
<trkpt lat="46.30010920576751232147216796875" lon="7.4598041363060474395751953125"><ele></ele><time>2020-9-19T10:50:42Z</time></trkpt>
<trkpt lat="46.30011004395782947540283203125" lon="7.4597825109958648681640625"><ele></ele><time>2020-9-19T10:50:45Z</time></trkpt>
<trkpt lat="46.300109289586544036865234375" lon="7.45976331643760204315185546875"><ele></ele><time>2020-9-19T10:50:48Z</time></trkpt>
<trkpt lat="46.3001054339110851287841796875" lon="7.4597504921257495880126953125"><ele></ele><time>2020-9-19T10:50:51Z</time></trkpt>
<trkpt lat="46.300100572407245635986328125" lon="7.459736578166484832763671875"><ele></ele><time>2020-9-19T10:50:54Z</time></trkpt>
<trkpt lat="46.30009093321859836578369140625" lon="7.45972442440688610076904296875"><ele></ele><time>2020-9-19T10:50:57Z</time></trkpt>
<trkpt lat="46.300080455839633941650390625" lon="7.4597089178860187530517578125"><ele></ele><time>2020-9-19T10:51:0Z</time></trkpt>
<trkpt lat="46.30006863735616207122802734375" lon="7.45969458483159542083740234375"><ele></ele><time>2020-9-19T10:51:3Z</time></trkpt>
<trkpt lat="46.30005690269172191619873046875" lon="7.45968301780521869659423828125"><ele></ele><time>2020-9-19T10:51:6Z</time></trkpt>
<trkpt lat="46.30004458129405975341796875" lon="7.4596740491688251495361328125"><ele></ele><time>2020-9-19T10:51:9Z</time></trkpt>
<trkpt lat="46.300032846629619598388671875" lon="7.45966591872274875640869140625"><ele></ele><time>2020-9-19T10:51:12Z</time></trkpt>
<trkpt lat="46.30002044141292572021484375" lon="7.45965351350605487823486328125"><ele></ele><time>2020-9-19T10:51:15Z</time></trkpt>
<trkpt lat="46.3000071980059146881103515625" lon="7.45963473804295063018798828125"><ele></ele><time>2020-9-19T10:51:18Z</time></trkpt>
<trkpt lat="46.2999956309795379638671875" lon="7.459615208208560943603515625"><ele></ele><time>2020-9-19T10:51:21Z</time></trkpt>
<trkpt lat="46.29998465068638324737548828125" lon="7.4595912359654903411865234375"><ele></ele><time>2020-9-19T10:51:24Z</time></trkpt>
<trkpt lat="46.29997551441192626953125" lon="7.4595724605023860931396484375"><ele></ele><time>2020-9-19T10:51:27Z</time></trkpt>
<trkpt lat="46.299967467784881591796875" lon="7.45954974554479122161865234375"><ele></ele><time>2020-9-19T10:51:30Z</time></trkpt>
<trkpt lat="46.2999555654823780059814453125" lon="7.45952527038753032684326171875"><ele></ele><time>2020-9-19T10:51:33Z</time></trkpt>
<trkpt lat="46.2999431602656841278076171875" lon="7.4595035612583160400390625"><ele></ele><time>2020-9-19T10:51:36Z</time></trkpt>
<trkpt lat="46.299928240478038787841796875" lon="7.45946525596082210540771484375"><ele></ele><time>2020-9-19T10:51:39Z</time></trkpt>
<trkpt lat="46.29987417720258235931396484375" lon="7.4593122862279415130615234375"><ele></ele><time>2020-9-19T10:51:42Z</time></trkpt>
<trkpt lat="46.29985439591109752655029296875" lon="7.4592603184282779693603515625"><ele></ele><time>2020-9-19T10:51:45Z</time></trkpt>
<trkpt lat="46.299810893833637237548828125" lon="7.4590806104242801666259765625"><ele></ele><time>2020-9-19T10:51:48Z</time></trkpt>
<trkpt lat="46.2997527234256267547607421875" lon="7.45880551636219024658203125"><ele></ele><time>2020-9-19T10:51:51Z</time></trkpt>
<trkpt lat="46.299746520817279815673828125" lon="7.458746172487735748291015625"><ele></ele><time>2020-9-19T10:51:54Z</time></trkpt>
<trkpt lat="46.2997403182089328765869140625" lon="7.458687834441661834716796875"><ele></ele><time>2020-9-19T10:51:57Z</time></trkpt>
<trkpt lat="46.29972866736352443695068359375" lon="7.45863377116620540618896484375"><ele></ele><time>2020-9-19T10:52:0Z</time></trkpt>
<trkpt lat="46.29971659742295742034912109375" lon="7.4585750140249729156494140625"><ele></ele><time>2020-9-19T10:52:3Z</time></trkpt>
<trkpt lat="46.29970000125467777252197265625" lon="7.458507455885410308837890625"><ele></ele><time>2020-9-19T10:52:6Z</time></trkpt>
<trkpt lat="46.2996863387525081634521484375" lon="7.45843780227005481719970703125"><ele></ele><time>2020-9-19T10:52:9Z</time></trkpt>
<trkpt lat="46.29967787303030490875244140625" lon="7.45837108232080936431884765625"><ele></ele><time>2020-9-19T10:52:12Z</time></trkpt>
<trkpt lat="46.299675442278385162353515625" lon="7.45830184780061244964599609375"><ele></ele><time>2020-9-19T10:52:15Z</time></trkpt>
<trkpt lat="46.29968072287738323211669921875" lon="7.458217106759548187255859375"><ele></ele><time>2020-9-19T10:52:18Z</time></trkpt>
<trkpt lat="46.2996803037822246551513671875" lon="7.4581220559775829315185546875"><ele></ele><time>2020-9-19T10:52:21Z</time></trkpt>
<trkpt lat="46.29968038760125637054443359375" lon="7.457923404872417449951171875"><ele></ele><time>2020-9-19T10:52:24Z</time></trkpt>
<trkpt lat="46.29968591965734958648681640625" lon="7.45782709680497646331787109375"><ele></ele><time>2020-9-19T10:52:27Z</time></trkpt>
<trkpt lat="46.29969656467437744140625" lon="7.45773724280297756195068359375"><ele></ele><time>2020-9-19T10:52:30Z</time></trkpt>
<trkpt lat="46.2997061200439929962158203125" lon="7.45765618979930877685546875"><ele></ele><time>2020-9-19T10:52:33Z</time></trkpt>
<trkpt lat="46.299708299338817596435546875" lon="7.4575777351856231689453125"><ele></ele><time>2020-9-19T10:52:36Z</time></trkpt>
<trkpt lat="46.29970653913915157318115234375" lon="7.45749819092452526092529296875"><ele></ele><time>2020-9-19T10:52:39Z</time></trkpt>
<trkpt lat="46.299708299338817596435546875" lon="7.45741671882569789886474609375"><ele></ele><time>2020-9-19T10:52:42Z</time></trkpt>
<trkpt lat="46.29971601068973541259765625" lon="7.45733189396560192108154296875"><ele></ele><time>2020-9-19T10:52:45Z</time></trkpt>
<trkpt lat="46.29972464405000209808349609375" lon="7.45723969303071498870849609375"><ele></ele><time>2020-9-19T10:52:48Z</time></trkpt>
<trkpt lat="46.2997336126863956451416015625" lon="7.45714430697262287139892578125"><ele></ele><time>2020-9-19T10:52:51Z</time></trkpt>
<trkpt lat="46.2997503764927387237548828125" lon="7.45704690925776958465576171875"><ele></ele><time>2020-9-19T10:52:54Z</time></trkpt>
<trkpt lat="46.2997802160680294036865234375" lon="7.4569495953619480133056640625"><ele></ele><time>2020-9-19T10:52:57Z</time></trkpt>
<trkpt lat="46.29984182305634021759033203125" lon="7.45673543773591518402099609375"><ele></ele><time>2020-9-19T10:53:0Z</time></trkpt>
<trkpt lat="46.299852468073368072509765625" lon="7.4566161632537841796875"><ele></ele><time>2020-9-19T10:53:3Z</time></trkpt>
<trkpt lat="46.299865879118442535400390625" lon="7.4563796259462833404541015625"><ele></ele><time>2020-9-19T10:53:6Z</time></trkpt>
<trkpt lat="46.29988230764865875244140625" lon="7.456280887126922607421875"><ele></ele><time>2020-9-19T10:53:9Z</time></trkpt>
<trkpt lat="46.2999096326529979705810546875" lon="7.4562042765319347381591796875"><ele></ele><time>2020-9-19T10:53:12Z</time></trkpt>
<trkpt lat="46.299945674836635589599609375" lon="7.45614283718168735504150390625"><ele></ele><time>2020-9-19T10:53:15Z</time></trkpt>
<trkpt lat="46.299982555210590362548828125" lon="7.4560956470668315887451171875"><ele></ele><time>2020-9-19T10:53:18Z</time></trkpt>
<trkpt lat="46.300015412271022796630859375" lon="7.456060610711574554443359375"><ele></ele><time>2020-9-19T10:53:21Z</time></trkpt>
<trkpt lat="46.30004533566534519195556640625" lon="7.45603370480239391326904296875"><ele></ele><time>2020-9-19T10:53:24Z</time></trkpt>
<trkpt lat="46.30007064901292324066162109375" lon="7.45600587688386440277099609375"><ele></ele><time>2020-9-19T10:53:27Z</time></trkpt>
<trkpt lat="46.30008925683796405792236328125" lon="7.45597268454730510711669921875"><ele></ele><time>2020-9-19T10:53:30Z</time></trkpt>
<trkpt lat="46.30010685883462429046630859375" lon="7.45593681000173091888427734375"><ele></ele><time>2020-9-19T10:53:33Z</time></trkpt>
<trkpt lat="46.3001466728746891021728515625" lon="7.455866150557994842529296875"><ele></ele><time>2020-9-19T10:53:36Z</time></trkpt>
<trkpt lat="46.30016871728003025054931640625" lon="7.4558358080685138702392578125"><ele></ele><time>2020-9-19T10:53:39Z</time></trkpt>
<trkpt lat="46.300191096961498260498046875" lon="7.45581074617803096771240234375"><ele></ele><time>2020-9-19T10:53:42Z</time></trkpt>
<trkpt lat="46.30021280609071254730224609375" lon="7.45578962378203868865966796875"><ele></ele><time>2020-9-19T10:53:45Z</time></trkpt>
<trkpt lat="46.3002328388392925262451171875" lon="7.45576933957636356353759765625"><ele></ele><time>2020-9-19T10:53:48Z</time></trkpt>
<trkpt lat="46.30025203339755535125732421875" lon="7.45574905537068843841552734375"><ele></ele><time>2020-9-19T10:53:51Z</time></trkpt>
<trkpt lat="46.30027047358453273773193359375" lon="7.455728016793727874755859375"><ele></ele><time>2020-9-19T10:53:54Z</time></trkpt>
<trkpt lat="46.3002895005047321319580078125" lon="7.4557067267596721649169921875"><ele></ele><time>2020-9-19T10:53:57Z</time></trkpt>
<trkpt lat="46.3003082759678363800048828125" lon="7.455685101449489593505859375"><ele></ele><time>2020-9-19T10:54:0Z</time></trkpt>
<trkpt lat="46.300327889621257781982421875" lon="7.455663979053497314453125"><ele></ele><time>2020-9-19T10:54:3Z</time></trkpt>
<trkpt lat="46.30034775473177433013916015625" lon="7.45564344339072704315185546875"><ele></ele><time>2020-9-19T10:54:6Z</time></trkpt>
<trkpt lat="46.30036686547100543975830078125" lon="7.45562282390892505645751953125"><ele></ele><time>2020-9-19T10:54:9Z</time></trkpt>
<trkpt lat="46.30038513801991939544677734375" lon="7.45560228824615478515625"><ele></ele><time>2020-9-19T10:54:12Z</time></trkpt>
<trkpt lat="46.30040357820689678192138671875" lon="7.45558192022144794464111328125"><ele></ele><time>2020-9-19T10:54:15Z</time></trkpt>
<trkpt lat="46.300421096384525299072265625" lon="7.4555602110922336578369140625"><ele></ele><time>2020-9-19T10:54:18Z</time></trkpt>
<trkpt lat="46.3004381954669952392578125" lon="7.455538921058177947998046875"><ele></ele><time>2020-9-19T10:54:21Z</time></trkpt>
<trkpt lat="46.30045588128268718719482421875" lon="7.4555186368525028228759765625"><ele></ele><time>2020-9-19T10:54:24Z</time></trkpt>
<trkpt lat="46.3004739023745059967041015625" lon="7.4554985202848911285400390625"><ele></ele><time>2020-9-19T10:54:27Z</time></trkpt>
<trkpt lat="46.3004926778376102447509765625" lon="7.45547949336469173431396484375"><ele></ele><time>2020-9-19T10:54:30Z</time></trkpt>
<trkpt lat="46.30051195621490478515625" lon="7.45546080172061920166015625"><ele></ele><time>2020-9-19T10:54:33Z</time></trkpt>
<trkpt lat="46.30053165368735790252685546875" lon="7.4554418586194515228271484375"><ele></ele><time>2020-9-19T10:54:36Z</time></trkpt>
<trkpt lat="46.3005523569881916046142578125" lon="7.4554250948131084442138671875"><ele></ele><time>2020-9-19T10:54:39Z</time></trkpt>
<trkpt lat="46.30057306028902530670166015625" lon="7.45540958829224109649658203125"><ele></ele><time>2020-9-19T10:54:42Z</time></trkpt>
<trkpt lat="46.30059284158051013946533203125" lon="7.45539399795234203338623046875"><ele></ele><time>2020-9-19T10:54:45Z</time></trkpt>
<trkpt lat="46.30061262287199497222900390625" lon="7.4553808383643627166748046875"><ele></ele><time>2020-9-19T10:54:48Z</time></trkpt>
<trkpt lat="46.3006313145160675048828125" lon="7.4553684331476688385009765625"><ele></ele><time>2020-9-19T10:54:51Z</time></trkpt>
<trkpt lat="46.30064698867499828338623046875" lon="7.4553499929606914520263671875"><ele></ele><time>2020-9-19T10:54:54Z</time></trkpt>
<trkpt lat="46.30066090263426303863525390625" lon="7.4553298763930797576904296875"><ele></ele><time>2020-9-19T10:54:57Z</time></trkpt>
<trkpt lat="46.30067615769803524017333984375" lon="7.455309592187404632568359375"><ele></ele><time>2020-9-19T10:55:0Z</time></trkpt>
<trkpt lat="46.30069241859018802642822265625" lon="7.45529073290526866912841796875"><ele></ele><time>2020-9-19T10:55:3Z</time></trkpt>
<trkpt lat="46.30070851184427738189697265625" lon="7.45527246035635471343994140625"><ele></ele><time>2020-9-19T10:55:6Z</time></trkpt>
<trkpt lat="46.30072477273643016815185546875" lon="7.4552537687122821807861328125"><ele></ele><time>2020-9-19T10:55:9Z</time></trkpt>
<trkpt lat="46.3007404468953609466552734375" lon="7.455235831439495086669921875"><ele></ele><time>2020-9-19T10:55:12Z</time></trkpt>
<trkpt lat="46.30075578577816486358642578125" lon="7.4552195705473423004150390625"><ele></ele><time>2020-9-19T10:55:15Z</time></trkpt>
<trkpt lat="46.3007712922990322113037109375" lon="7.45520330965518951416015625"><ele></ele><time>2020-9-19T10:55:18Z</time></trkpt>
<trkpt lat="46.300786547362804412841796875" lon="7.455186210572719573974609375"><ele></ele><time>2020-9-19T10:55:21Z</time></trkpt>
<trkpt lat="46.3008024729788303375244140625" lon="7.45517170988023281097412109375"><ele></ele><time>2020-9-19T10:55:24Z</time></trkpt>
<trkpt lat="46.3008195720613002777099609375" lon="7.45516282506287097930908203125"><ele></ele><time>2020-9-19T10:55:27Z</time></trkpt>
<trkpt lat="46.3008378446102142333984375" lon="7.45516215451061725616455078125"><ele></ele><time>2020-9-19T10:55:30Z</time></trkpt>
<trkpt lat="46.3008510880172252655029296875" lon="7.45517305098474025726318359375"><ele></ele><time>2020-9-19T10:55:33Z</time></trkpt>
<trkpt lat="46.30085955373942852020263671875" lon="7.45518931187689304351806640625"><ele></ele><time>2020-9-19T10:55:36Z</time></trkpt>
<trkpt lat="46.3008668459951877593994140625" lon="7.45520909316837787628173828125"><ele></ele><time>2020-9-19T10:55:39Z</time></trkpt>
<trkpt lat="46.30087564699351787567138671875" lon="7.45522887445986270904541015625"><ele></ele><time>2020-9-19T10:55:42Z</time></trkpt>
<trkpt lat="46.30088486708700656890869140625" lon="7.45524781756103038787841796875"><ele></ele><time>2020-9-19T10:55:45Z</time></trkpt>
<trkpt lat="46.3008941709995269775390625" lon="7.45526843704283237457275390625"><ele></ele><time>2020-9-19T10:55:48Z</time></trkpt>
<trkpt lat="46.3009017147123813629150390625" lon="7.45529073290526866912841796875"><ele></ele><time>2020-9-19T10:55:51Z</time></trkpt>
<trkpt lat="46.30090825259685516357421875" lon="7.45531319640576839447021484375"><ele></ele><time>2020-9-19T10:55:54Z</time></trkpt>
<trkpt lat="46.30091537721455097198486328125" lon="7.455336414277553558349609375"><ele></ele><time>2020-9-19T10:55:57Z</time></trkpt>
<trkpt lat="46.300922669470310211181640625" lon="7.45535896159708499908447265625"><ele></ele><time>2020-9-19T10:56:0Z</time></trkpt>
<trkpt lat="46.300929374992847442626953125" lon="7.45538058690726757049560546875"><ele></ele><time>2020-9-19T10:56:3Z</time></trkpt>
<trkpt lat="46.30093666724860668182373046875" lon="7.45540271513164043426513671875"><ele></ele><time>2020-9-19T10:56:6Z</time></trkpt>
<trkpt lat="46.30094504915177822113037109375" lon="7.4554237537086009979248046875"><ele></ele><time>2020-9-19T10:56:9Z</time></trkpt>
<trkpt lat="46.300954520702362060546875" lon="7.4554435350000858306884765625"><ele></ele><time>2020-9-19T10:56:12Z</time></trkpt>
<trkpt lat="46.30096432752907276153564453125" lon="7.4554633162915706634521484375"><ele></ele><time>2020-9-19T10:56:15Z</time></trkpt>
<trkpt lat="46.30097371526062488555908203125" lon="7.4554827623069286346435546875"><ele></ele><time>2020-9-19T10:56:18Z</time></trkpt>
<trkpt lat="46.3009831868112087249755859375" lon="7.45550212450325489044189453125"><ele></ele><time>2020-9-19T10:56:21Z</time></trkpt>
<trkpt lat="46.3009932450950145721435546875" lon="7.455521486699581146240234375"><ele></ele><time>2020-9-19T10:56:24Z</time></trkpt>
<trkpt lat="46.301003806293010711669921875" lon="7.45554084889590740203857421875"><ele></ele><time>2020-9-19T10:56:27Z</time></trkpt>
<trkpt lat="46.3010148704051971435546875" lon="7.45555895380675792694091796875"><ele></ele><time>2020-9-19T10:56:30Z</time></trkpt>
<trkpt lat="46.3010261021554470062255859375" lon="7.455576471984386444091796875"><ele></ele><time>2020-9-19T10:56:33Z</time></trkpt>
<trkpt lat="46.30103758536279201507568359375" lon="7.45559348724782466888427734375"><ele></ele><time>2020-9-19T10:56:36Z</time></trkpt>
<trkpt lat="46.3010489009320735931396484375" lon="7.455610334873199462890625"><ele></ele><time>2020-9-19T10:56:39Z</time></trkpt>
<trkpt lat="46.30105988122522830963134765625" lon="7.45562709867954254150390625"><ele></ele><time>2020-9-19T10:56:42Z</time></trkpt>
<trkpt lat="46.30107195116579532623291015625" lon="7.45564277283847332000732421875"><ele></ele><time>2020-9-19T10:56:45Z</time></trkpt>
<trkpt lat="46.30108469165861606597900390625" lon="7.45565668679773807525634765625"><ele></ele><time>2020-9-19T10:56:48Z</time></trkpt>
<trkpt lat="46.30109793506562709808349609375" lon="7.4556688405573368072509765625"><ele></ele><time>2020-9-19T10:56:51Z</time></trkpt>
<trkpt lat="46.30111151374876499176025390625" lon="7.4556812457740306854248046875"><ele></ele><time>2020-9-19T10:56:54Z</time></trkpt>
<trkpt lat="46.3011246733367443084716796875" lon="7.45569457300007343292236328125"><ele></ele><time>2020-9-19T10:56:57Z</time></trkpt>
<trkpt lat="46.301137916743755340576171875" lon="7.455706894397735595703125"><ele></ele><time>2020-9-19T10:57:0Z</time></trkpt>
<trkpt lat="46.30115191452205181121826171875" lon="7.455717287957668304443359375"><ele></ele><time>2020-9-19T10:57:3Z</time></trkpt>
<trkpt lat="46.3011672534048557281494140625" lon="7.45572508312761783599853515625"><ele></ele><time>2020-9-19T10:57:6Z</time></trkpt>
<trkpt lat="46.30118125118315219879150390625" lon="7.4557335488498210906982421875"><ele></ele><time>2020-9-19T10:57:9Z</time></trkpt>
<trkpt lat="46.3011934049427509307861328125" lon="7.4557436071336269378662109375"><ele></ele><time>2020-9-19T10:57:12Z</time></trkpt>
<trkpt lat="46.30120606161653995513916015625" lon="7.45575458742678165435791015625"><ele></ele><time>2020-9-19T10:57:15Z</time></trkpt>
<trkpt lat="46.3012188859283924102783203125" lon="7.45576749555766582489013671875"><ele></ele><time>2020-9-19T10:57:18Z</time></trkpt>
<trkpt lat="46.30123120732605457305908203125" lon="7.4557788111269474029541015625"><ele></ele><time>2020-9-19T10:57:21Z</time></trkpt>
<trkpt lat="46.30124394781887531280517578125" lon="7.45578928850591182708740234375"><ele></ele><time>2020-9-19T10:57:24Z</time></trkpt>
<trkpt lat="46.301256604492664337158203125" lon="7.45580068789422512054443359375"><ele></ele><time>2020-9-19T10:57:27Z</time></trkpt>
<trkpt lat="46.3012696802616119384765625" lon="7.45581175200641155242919921875"><ele></ele><time>2020-9-19T10:57:30Z</time></trkpt>
<trkpt lat="46.30128367803990840911865234375" lon="7.45582155883312225341796875"><ele></ele><time>2020-9-19T10:57:33Z</time></trkpt>
<trkpt lat="46.30129692144691944122314453125" lon="7.45583220385015010833740234375"><ele></ele><time>2020-9-19T10:57:36Z</time></trkpt>
<trkpt lat="46.3013112545013427734375" lon="7.455840669572353363037109375"><ele></ele><time>2020-9-19T10:57:39Z</time></trkpt>
<trkpt lat="46.3013261742889881134033203125" lon="7.455846704542636871337890625"><ele></ele><time>2020-9-19T10:57:42Z</time></trkpt>
<trkpt lat="46.3013412617146968841552734375" lon="7.45585131458938121795654296875"><ele></ele><time>2020-9-19T10:57:45Z</time></trkpt>
<trkpt lat="46.301356852054595947265625" lon="7.45585617609322071075439453125"><ele></ele><time>2020-9-19T10:57:48Z</time></trkpt>
<trkpt lat="46.3013734482228755950927734375" lon="7.45586019940674304962158203125"><ele></ele><time>2020-9-19T10:57:51Z</time></trkpt>
<trkpt lat="46.3013912178575992584228515625" lon="7.45586036704480648040771484375"><ele></ele><time>2020-9-19T10:57:54Z</time></trkpt>
<trkpt lat="46.30140873603522777557373046875" lon="7.4558572657406330108642578125"><ele></ele><time>2020-9-19T10:57:57Z</time></trkpt>
<trkpt lat="46.30142549984157085418701171875" lon="7.4558529071509838104248046875"><ele></ele><time>2020-9-19T10:58:0Z</time></trkpt>
<trkpt lat="46.30144176073372364044189453125" lon="7.4558468721807003021240234375"><ele></ele><time>2020-9-19T10:58:3Z</time></trkpt>
<trkpt lat="46.3014574348926544189453125" lon="7.45583756826817989349365234375"><ele></ele><time>2020-9-19T10:58:6Z</time></trkpt>
<trkpt lat="46.30147285759449005126953125" lon="7.45582482777535915374755859375"><ele></ele><time>2020-9-19T10:58:9Z</time></trkpt>
<trkpt lat="46.301487945020198822021484375" lon="7.45580856688320636749267578125"><ele></ele><time>2020-9-19T10:58:12Z</time></trkpt>
<trkpt lat="46.3015018589794635772705078125" lon="7.455790378153324127197265625"><ele></ele><time>2020-9-19T10:58:15Z</time></trkpt>
<trkpt lat="46.301514767110347747802734375" lon="7.45577151887118816375732421875"><ele></ele><time>2020-9-19T10:58:18Z</time></trkpt>
<trkpt lat="46.30152742378413677215576171875" lon="7.455752827227115631103515625"><ele></ele><time>2020-9-19T10:58:21Z</time></trkpt>
<trkpt lat="46.30155944265425205230712890625" lon="7.4557191319763660430908203125"><ele></ele><time>2020-9-19T10:58:24Z</time></trkpt>
<trkpt lat="46.301576457917690277099609375" lon="7.455709241330623626708984375"><ele></ele><time>2020-9-19T10:58:27Z</time></trkpt>
<trkpt lat="46.301592551171779632568359375" lon="7.4557057209312915802001953125"><ele></ele><time>2020-9-19T10:58:30Z</time></trkpt>
<trkpt lat="46.30160738714039325714111328125" lon="7.45570966042578220367431640625"><ele></ele><time>2020-9-19T10:58:33Z</time></trkpt>
<trkpt lat="46.30162063054740428924560546875" lon="7.45572022162377834320068359375"><ele></ele><time>2020-9-19T10:58:36Z</time></trkpt>
<trkpt lat="46.30163379013538360595703125" lon="7.45573497377336025238037109375"><ele></ele><time>2020-9-19T10:58:39Z</time></trkpt>
<trkpt lat="46.30165901966392993927001953125" lon="7.45577017776668071746826171875"><ele></ele><time>2020-9-19T10:58:42Z</time></trkpt>
<trkpt lat="46.30166790448129177093505859375" lon="7.4557908810675144195556640625"><ele></ele><time>2020-9-19T10:58:45Z</time></trkpt>
<trkpt lat="46.3016698323190212249755859375" lon="7.45581460185348987579345703125"><ele></ele><time>2020-9-19T10:58:48Z</time></trkpt>
<trkpt lat="46.3016658090054988861083984375" lon="7.45583807118237018585205078125"><ele></ele><time>2020-9-19T10:58:51Z</time></trkpt>
<trkpt lat="46.30165952257812023162841796875" lon="7.45586045086383819580078125"><ele></ele><time>2020-9-19T10:58:54Z</time></trkpt>
<trkpt lat="46.30165348760783672332763671875" lon="7.45588484220206737518310546875"><ele></ele><time>2020-9-19T10:58:57Z</time></trkpt>
<trkpt lat="46.30164317786693572998046875" lon="7.45593580417335033416748046875"><ele></ele><time>2020-9-19T10:59:0Z</time></trkpt>
<trkpt lat="46.30163873545825481414794921875" lon="7.45596061460673809051513671875"><ele></ele><time>2020-9-19T10:59:3Z</time></trkpt>
<trkpt lat="46.3016366399824619293212890625" lon="7.4559860117733478546142578125"><ele></ele><time>2020-9-19T10:59:6Z</time></trkpt>
<trkpt lat="46.30163588561117649078369140625" lon="7.45601207949221134185791015625"><ele></ele><time>2020-9-19T10:59:9Z</time></trkpt>
<trkpt lat="46.3016366399824619293212890625" lon="7.45603957213461399078369140625"><ele></ele><time>2020-9-19T10:59:12Z</time></trkpt>
<trkpt lat="46.3016386516392230987548828125" lon="7.456069327890872955322265625"><ele></ele><time>2020-9-19T10:59:15Z</time></trkpt>
<trkpt lat="46.30164451897144317626953125" lon="7.4560956470668315887451171875"><ele></ele><time>2020-9-19T10:59:18Z</time></trkpt>
<trkpt lat="46.301651895046234130859375" lon="7.45611727237701416015625"><ele></ele><time>2020-9-19T10:59:21Z</time></trkpt>
<trkpt lat="46.3016557507216930389404296875" lon="7.4561405740678310394287109375"><ele></ele><time>2020-9-19T10:59:24Z</time></trkpt>
<trkpt lat="46.3016570918262004852294921875" lon="7.45616664178669452667236328125"><ele></ele><time>2020-9-19T10:59:27Z</time></trkpt>
<trkpt lat="46.30166321061551570892333984375" lon="7.4561898596584796905517578125"><ele></ele><time>2020-9-19T10:59:30Z</time></trkpt>
<trkpt lat="46.3016746938228607177734375" lon="7.4562076292932033538818359375"><ele></ele><time>2020-9-19T10:59:33Z</time></trkpt>
<trkpt lat="46.3016909547150135040283203125" lon="7.4562264047563076019287109375"><ele></ele><time>2020-9-19T10:59:36Z</time></trkpt>
<trkpt lat="46.30170696415007114410400390625" lon="7.45624291710555553436279296875"><ele></ele><time>2020-9-19T10:59:39Z</time></trkpt>
<trkpt lat="46.30172238685190677642822265625" lon="7.45625951327383518218994140625"><ele></ele><time>2020-9-19T10:59:42Z</time></trkpt>
<trkpt lat="46.3017375580966472625732421875" lon="7.45627879165112972259521484375"><ele></ele><time>2020-9-19T10:59:45Z</time></trkpt>
<trkpt lat="46.30175138823688030242919921875" lon="7.45630058459937572479248046875"><ele></ele><time>2020-9-19T10:59:48Z</time></trkpt>
<trkpt lat="46.30176664330065250396728515625" lon="7.45632254518568515777587890625"><ele></ele><time>2020-9-19T10:59:51Z</time></trkpt>
<trkpt lat="46.30178173072636127471923828125" lon="7.45634132064878940582275390625"><ele></ele><time>2020-9-19T10:59:54Z</time></trkpt>
<trkpt lat="46.30179665051400661468505859375" lon="7.45635372586548328399658203125"><ele></ele><time>2020-9-19T10:59:57Z</time></trkpt>
<trkpt lat="46.3018096424639225006103515625" lon="7.45636445470154285430908203125"><ele></ele><time>2020-9-19T11:0:0Z</time></trkpt>
<trkpt lat="46.3018233887851238250732421875" lon="7.45637333951890468597412109375"><ele></ele><time>2020-9-19T11:0:3Z</time></trkpt>
<trkpt lat="46.301840655505657196044921875" lon="7.4563776142895221710205078125"><ele></ele><time>2020-9-19T11:0:6Z</time></trkpt>
<trkpt lat="46.30185783840715885162353515625" lon="7.4563833139836788177490234375"><ele></ele><time>2020-9-19T11:0:9Z</time></trkpt>
<trkpt lat="46.30187518894672393798828125" lon="7.4563895165920257568359375"><ele></ele><time>2020-9-19T11:0:12Z</time></trkpt>
<trkpt lat="46.301893629133701324462890625" lon="7.4563927017152309417724609375"><ele></ele><time>2020-9-19T11:0:15Z</time></trkpt>
<trkpt lat="46.30191265605390071868896484375" lon="7.45639664120972156524658203125"><ele></ele><time>2020-9-19T11:0:18Z</time></trkpt>
<trkpt lat="46.301930844783782958984375" lon="7.45639563538134098052978515625"><ele></ele><time>2020-9-19T11:0:21Z</time></trkpt>
<trkpt lat="46.30195121280848979949951171875" lon="7.45639312081038951873779296875"><ele></ele><time>2020-9-19T11:0:24Z</time></trkpt>
<trkpt lat="46.30197049118578433990478515625" lon="7.45639295317232608795166015625"><ele></ele><time>2020-9-19T11:0:27Z</time></trkpt>
<trkpt lat="46.30198960192501544952392578125" lon="7.456399910151958465576171875"><ele></ele><time>2020-9-19T11:0:30Z</time></trkpt>
<trkpt lat="46.3020108081400394439697265625" lon="7.45641625486314296722412109375"><ele></ele><time>2020-9-19T11:0:33Z</time></trkpt>
<trkpt lat="46.30202949978411197662353515625" lon="7.45643955655395984649658203125"><ele></ele><time>2020-9-19T11:0:36Z</time></trkpt>
<trkpt lat="46.3020403124392032623291015625" lon="7.45646989904344081878662109375"><ele></ele><time>2020-9-19T11:0:39Z</time></trkpt>
<trkpt lat="46.30204861052334308624267578125" lon="7.45650141499936580657958984375"><ele></ele><time>2020-9-19T11:0:42Z</time></trkpt>
<trkpt lat="46.3020597584545612335205078125" lon="7.456532008945941925048828125"><ele></ele><time>2020-9-19T11:0:45Z</time></trkpt>
<trkpt lat="46.30207275040447711944580078125" lon="7.4565630219876766204833984375"><ele></ele><time>2020-9-19T11:0:48Z</time></trkpt>
<trkpt lat="46.3020999915897846221923828125" lon="7.4566290713846683502197265625"><ele></ele><time>2020-9-19T11:0:51Z</time></trkpt>
<trkpt lat="46.30211264826357364654541015625" lon="7.45666804723441600799560546875"><ele></ele><time>2020-9-19T11:0:54Z</time></trkpt>
<trkpt lat="46.3021253049373626708984375" lon="7.4567061848938465118408203125"><ele></ele><time>2020-9-19T11:0:57Z</time></trkpt>
<trkpt lat="46.30213829688727855682373046875" lon="7.45674557983875274658203125"><ele></ele><time>2020-9-19T11:1:0Z</time></trkpt>
<trkpt lat="46.302151121199131011962890625" lon="7.45678371749818325042724609375"><ele></ele><time>2020-9-19T11:1:3Z</time></trkpt>
<trkpt lat="46.3021673820912837982177734375" lon="7.45681799948215484619140625"><ele></ele><time>2020-9-19T11:1:6Z</time></trkpt>
<trkpt lat="46.3021874986588954925537109375" lon="7.45684222318232059478759765625"><ele></ele><time>2020-9-19T11:1:9Z</time></trkpt>
<trkpt lat="46.3022146560251712799072265625" lon="7.45685865171253681182861328125"><ele></ele><time>2020-9-19T11:1:12Z</time></trkpt>
<trkpt lat="46.30228221416473388671875" lon="7.45688379742205142974853515625"><ele></ele><time>2020-9-19T11:1:15Z</time></trkpt>
<trkpt lat="46.3023184239864349365234375" lon="7.45688413269817829132080078125"><ele></ele><time>2020-9-19T11:1:18Z</time></trkpt>
<trkpt lat="46.3023571483790874481201171875" lon="7.4568721465766429901123046875"><ele></ele><time>2020-9-19T11:1:21Z</time></trkpt>
<trkpt lat="46.3024376146495342254638671875" lon="7.45682713575661182403564453125"><ele></ele><time>2020-9-19T11:1:24Z</time></trkpt>
<trkpt lat="46.30247742868959903717041015625" lon="7.45680031366646289825439453125"><ele></ele><time>2020-9-19T11:1:27Z</time></trkpt>
<trkpt lat="46.30251757800579071044921875" lon="7.45677734725177288055419921875"><ele></ele><time>2020-9-19T11:1:30Z</time></trkpt>
<trkpt lat="46.302560828626155853271484375" lon="7.45677935890853404998779296875"><ele></ele><time>2020-9-19T11:1:33Z</time></trkpt>
<trkpt lat="46.302601397037506103515625" lon="7.4568014033138751983642578125"><ele></ele><time>2020-9-19T11:1:36Z</time></trkpt>
<trkpt lat="46.30263534374535083770751953125" lon="7.45682965032756328582763671875"><ele></ele><time>2020-9-19T11:1:39Z</time></trkpt>
<trkpt lat="46.3026682846248149871826171875" lon="7.4568620882928371429443359375"><ele></ele><time>2020-9-19T11:1:42Z</time></trkpt>
<trkpt lat="46.3027031533420085906982421875" lon="7.4568889103829860687255859375"><ele></ele><time>2020-9-19T11:1:45Z</time></trkpt>
<trkpt lat="46.30273617804050445556640625" lon="7.456918917596340179443359375"><ele></ele><time>2020-9-19T11:1:48Z</time></trkpt>
<trkpt lat="46.3027681969106197357177734375" lon="7.45694942772388458251953125"><ele></ele><time>2020-9-19T11:1:51Z</time></trkpt>
<trkpt lat="46.30280348472297191619873046875" lon="7.456973232328891754150390625"><ele></ele><time>2020-9-19T11:1:54Z</time></trkpt>
<trkpt lat="46.30283868871629238128662109375" lon="7.4569931812584400177001953125"><ele></ele><time>2020-9-19T11:1:57Z</time></trkpt>
<trkpt lat="46.3028763234615325927734375" lon="7.45701254345476627349853515625"><ele></ele><time>2020-9-19T11:2:0Z</time></trkpt>
<trkpt lat="46.30309031344950199127197265625" lon="7.45711916126310825347900390625"><ele></ele><time>2020-9-19T11:2:3Z</time></trkpt>
<trkpt lat="46.30313356406986713409423828125" lon="7.45715151540935039520263671875"><ele></ele><time>2020-9-19T11:2:6Z</time></trkpt>
<trkpt lat="46.30317664705216884613037109375" lon="7.45719174854457378387451171875"><ele></ele><time>2020-9-19T11:2:9Z</time></trkpt>
<trkpt lat="46.30321671254932880401611328125" lon="7.4572392739355564117431640625"><ele></ele><time>2020-9-19T11:2:12Z</time></trkpt>
<trkpt lat="46.30325443111360073089599609375" lon="7.457295767962932586669921875"><ele></ele><time>2020-9-19T11:2:15Z</time></trkpt>
<trkpt lat="46.30328946746885776519775390625" lon="7.45735737495124340057373046875"><ele></ele><time>2020-9-19T11:2:18Z</time></trkpt>
<trkpt lat="46.30352382548153400421142578125" lon="7.4578461237251758575439453125"><ele></ele><time>2020-9-19T11:2:21Z</time></trkpt>
<trkpt lat="46.3035897910594940185546875" lon="7.4579894542694091796875"><ele></ele><time>2020-9-19T11:2:24Z</time></trkpt>
<trkpt lat="46.3036675751209259033203125" lon="7.4581207148730754852294921875"><ele></ele><time>2020-9-19T11:2:27Z</time></trkpt>
<trkpt lat="46.30371476523578166961669921875" lon="7.45817360468208789825439453125"><ele></ele><time>2020-9-19T11:2:30Z</time></trkpt>
<trkpt lat="46.3037656433880329132080078125" lon="7.458220459520816802978515625"><ele></ele><time>2020-9-19T11:2:33Z</time></trkpt>
<trkpt lat="46.30404115654528141021728515625" lon="7.45840251445770263671875"><ele></ele><time>2020-9-19T11:2:36Z</time></trkpt>
<trkpt lat="46.30409874022006988525390625" lon="7.458434365689754486083984375"><ele></ele><time>2020-9-19T11:2:39Z</time></trkpt>
<trkpt lat="46.30415347404778003692626953125" lon="7.45847065933048725128173828125"><ele></ele><time>2020-9-19T11:2:42Z</time></trkpt>
<trkpt lat="46.3042041845619678497314453125" lon="7.45851893909275531768798828125"><ele></ele><time>2020-9-19T11:2:45Z</time></trkpt>
<trkpt lat="46.3042484410107135772705078125" lon="7.45857643894851207733154296875"><ele></ele><time>2020-9-19T11:2:48Z</time></trkpt>
<trkpt lat="46.30428842268884181976318359375" lon="7.45863796211779117584228515625"><ele></ele><time>2020-9-19T11:2:51Z</time></trkpt>
<trkpt lat="46.30432329140603542327880859375" lon="7.45870384387671947479248046875"><ele></ele><time>2020-9-19T11:2:54Z</time></trkpt>
<trkpt lat="46.30435531027615070343017578125" lon="7.4587714858353137969970703125"><ele></ele><time>2020-9-19T11:2:57Z</time></trkpt>
<trkpt lat="46.30438682623207569122314453125" lon="7.45883778668940067291259765625"><ele></ele><time>2020-9-19T11:3:0Z</time></trkpt>
<trkpt lat="46.3044185936450958251953125" lon="7.45890266261994838714599609375"><ele></ele><time>2020-9-19T11:3:3Z</time></trkpt>
<trkpt lat="46.30444935522973537445068359375" lon="7.45896670036017894744873046875"><ele></ele><time>2020-9-19T11:3:6Z</time></trkpt>
<trkpt lat="46.30447835661470890045166015625" lon="7.45903090573847293853759765625"><ele></ele><time>2020-9-19T11:3:9Z</time></trkpt>
<trkpt lat="46.30450719036161899566650390625" lon="7.459092848002910614013671875"><ele></ele><time>2020-9-19T11:3:12Z</time></trkpt>
<trkpt lat="46.30453568883240222930908203125" lon="7.45915261097252368927001953125"><ele></ele><time>2020-9-19T11:3:15Z</time></trkpt>
<trkpt lat="46.30456267856061458587646484375" lon="7.45921229012310504913330078125"><ele></ele><time>2020-9-19T11:3:18Z</time></trkpt>
<trkpt lat="46.30459050647914409637451171875" lon="7.45927012525498867034912109375"><ele></ele><time>2020-9-19T11:3:21Z</time></trkpt>
<trkpt lat="46.3046175800263881683349609375" lon="7.45932678692042827606201171875"><ele></ele><time>2020-9-19T11:3:24Z</time></trkpt>
<trkpt lat="46.30464431829750537872314453125" lon="7.45938277803361415863037109375"><ele></ele><time>2020-9-19T11:3:27Z</time></trkpt>
<trkpt lat="46.304672062397003173828125" lon="7.4594366736710071563720703125"><ele></ele><time>2020-9-19T11:3:30Z</time></trkpt>
<trkpt lat="46.3046967051923274993896484375" lon="7.45949392206966876983642578125"><ele></ele><time>2020-9-19T11:3:33Z</time></trkpt>
<trkpt lat="46.3047208450734615325927734375" lon="7.459553182125091552734375"><ele></ele><time>2020-9-19T11:3:36Z</time></trkpt>
<trkpt lat="46.30474305711686611175537109375" lon="7.45961286127567291259765625"><ele></ele><time>2020-9-19T11:3:39Z</time></trkpt>
<trkpt lat="46.30476451478898525238037109375" lon="7.45967363007366657257080078125"><ele></ele><time>2020-9-19T11:3:42Z</time></trkpt>
<trkpt lat="46.3047875650227069854736328125" lon="7.45973289012908935546875"><ele></ele><time>2020-9-19T11:3:45Z</time></trkpt>
<trkpt lat="46.30480994470417499542236328125" lon="7.459791563451290130615234375"><ele></ele><time>2020-9-19T11:3:48Z</time></trkpt>
<trkpt lat="46.3048288039863109588623046875" lon="7.45985182933509349822998046875"><ele></ele><time>2020-9-19T11:3:51Z</time></trkpt>
<trkpt lat="46.30484573543071746826171875" lon="7.45991385541856288909912109375"><ele></ele><time>2020-9-19T11:3:54Z</time></trkpt>
<trkpt lat="46.30486459471285343170166015625" lon="7.4599764682352542877197265625"><ele></ele><time>2020-9-19T11:3:57Z</time></trkpt>
<trkpt lat="46.304881274700164794921875" lon="7.460041008889675140380859375"><ele></ele><time>2020-9-19T11:4:0Z</time></trkpt>
<trkpt lat="46.30491253919899463653564453125" lon="7.4601741135120391845703125"><ele></ele><time>2020-9-19T11:4:3Z</time></trkpt>
<trkpt lat="46.30492561496794223785400390625" lon="7.460242845118045806884765625"><ele></ele><time>2020-9-19T11:4:6Z</time></trkpt>
<trkpt lat="46.30493818782269954681396484375" lon="7.46031132526695728302001953125"><ele></ele><time>2020-9-19T11:4:9Z</time></trkpt>
<trkpt lat="46.304976828396320343017578125" lon="7.4605269916355609893798828125"><ele></ele><time>2020-9-19T11:4:12Z</time></trkpt>
<trkpt lat="46.3049899041652679443359375" lon="7.46059999801218509674072265625"><ele></ele><time>2020-9-19T11:4:15Z</time></trkpt>
<trkpt lat="46.30500105209648609161376953125" lon="7.4606735073029994964599609375"><ele></ele><time>2020-9-19T11:4:18Z</time></trkpt>
<trkpt lat="46.30501429550349712371826171875" lon="7.460747100412845611572265625"><ele></ele><time>2020-9-19T11:4:21Z</time></trkpt>
<trkpt lat="46.3050396926701068878173828125" lon="7.46089906431734561920166015625"><ele></ele><time>2020-9-19T11:4:24Z</time></trkpt>
<trkpt lat="46.30505017004907131195068359375" lon="7.46097316034138202667236328125"><ele></ele><time>2020-9-19T11:4:27Z</time></trkpt>
<trkpt lat="46.30506190471351146697998046875" lon="7.4610473401844501495361328125"><ele></ele><time>2020-9-19T11:4:30Z</time></trkpt>
<trkpt lat="46.30507263354957103729248046875" lon="7.46112051419913768768310546875"><ele></ele><time>2020-9-19T11:4:33Z</time></trkpt>
<trkpt lat="46.30508202128112316131591796875" lon="7.46119259856641292572021484375"><ele></ele><time>2020-9-19T11:4:36Z</time></trkpt>
<trkpt lat="46.305092833936214447021484375" lon="7.46126384474337100982666015625"><ele></ele><time>2020-9-19T11:4:39Z</time></trkpt>
<trkpt lat="46.3051023893058300018310546875" lon="7.461335174739360809326171875"><ele></ele><time>2020-9-19T11:4:42Z</time></trkpt>
<trkpt lat="46.305111944675445556640625" lon="7.461404912173748016357421875"><ele></ele><time>2020-9-19T11:4:45Z</time></trkpt>
<trkpt lat="46.30513030104339122772216796875" lon="7.46154815889894962310791015625"><ele></ele><time>2020-9-19T11:4:48Z</time></trkpt>
<trkpt lat="46.305138431489467620849609375" lon="7.46162024326622486114501953125"><ele></ele><time>2020-9-19T11:4:51Z</time></trkpt>
<trkpt lat="46.305146478116512298583984375" lon="7.46169534511864185333251953125"><ele></ele><time>2020-9-19T11:4:54Z</time></trkpt>
<trkpt lat="46.3051540218293666839599609375" lon="7.4617701955139636993408203125"><ele></ele><time>2020-9-19T11:4:57Z</time></trkpt>
<trkpt lat="46.3051627390086650848388671875" lon="7.46184253133833408355712890625"><ele></ele><time>2020-9-19T11:5:0Z</time></trkpt>
<trkpt lat="46.305171288549900054931640625" lon="7.46191578917205333709716796875"><ele></ele><time>2020-9-19T11:5:3Z</time></trkpt>
<trkpt lat="46.30518101155757904052734375" lon="7.46198887936770915985107421875"><ele></ele><time>2020-9-19T11:5:6Z</time></trkpt>
<trkpt lat="46.30519081838428974151611328125" lon="7.46206113137304782867431640625"><ele></ele><time>2020-9-19T11:5:9Z</time></trkpt>
<trkpt lat="46.3051989488303661346435546875" lon="7.4621316231787204742431640625"><ele></ele><time>2020-9-19T11:5:12Z</time></trkpt>
<trkpt lat="46.305206827819347381591796875" lon="7.462201528251171112060546875"><ele></ele><time>2020-9-19T11:5:15Z</time></trkpt>
<trkpt lat="46.305214874446392059326171875" lon="7.462270595133304595947265625"><ele></ele><time>2020-9-19T11:5:18Z</time></trkpt>
<trkpt lat="46.30522191524505615234375" lon="7.4623391591012477874755859375"><ele></ele><time>2020-9-19T11:5:21Z</time></trkpt>
<trkpt lat="46.3052297942340373992919921875" lon="7.46240629814565181732177734375"><ele></ele><time>2020-9-19T11:5:24Z</time></trkpt>
<trkpt lat="46.305237673223018646240234375" lon="7.46247217990458011627197265625"><ele></ele><time>2020-9-19T11:5:27Z</time></trkpt>
<trkpt lat="46.30524580366909503936767578125" lon="7.46253688819706439971923828125"><ele></ele><time>2020-9-19T11:5:30Z</time></trkpt>
<trkpt lat="46.305253095924854278564453125" lon="7.46260025538504123687744140625"><ele></ele><time>2020-9-19T11:5:33Z</time></trkpt>
<trkpt lat="46.3052606396377086639404296875" lon="7.462662868201732635498046875"><ele></ele><time>2020-9-19T11:5:36Z</time></trkpt>
<trkpt lat="46.3052693568170070648193359375" lon="7.46272422373294830322265625"><ele></ele><time>2020-9-19T11:5:39Z</time></trkpt>
<trkpt lat="46.3052763976156711578369140625" lon="7.46278432197868824005126953125"><ele></ele><time>2020-9-19T11:5:42Z</time></trkpt>
<trkpt lat="46.30528268404304981231689453125" lon="7.46284366585314273834228515625"><ele></ele><time>2020-9-19T11:5:45Z</time></trkpt>
<trkpt lat="46.3052904792129993438720703125" lon="7.46290217153728008270263671875"><ele></ele><time>2020-9-19T11:5:48Z</time></trkpt>
<trkpt lat="46.30529810674488544464111328125" lon="7.46296017430722713470458984375"><ele></ele><time>2020-9-19T11:5:51Z</time></trkpt>
<trkpt lat="46.3053052313625812530517578125" lon="7.46301750652492046356201171875"><ele></ele><time>2020-9-19T11:5:54Z</time></trkpt>
<trkpt lat="46.3053119368851184844970703125" lon="7.463074587285518646240234375"><ele></ele><time>2020-9-19T11:5:57Z</time></trkpt>
<trkpt lat="46.30531772039830684661865234375" lon="7.46313116513192653656005859375"><ele></ele><time>2020-9-19T11:6:0Z</time></trkpt>
<trkpt lat="46.30532291717827320098876953125" lon="7.46318698860704898834228515625"><ele></ele><time>2020-9-19T11:6:3Z</time></trkpt>
<trkpt lat="46.30532844923436641693115234375" lon="7.463241554796695709228515625"><ele></ele><time>2020-9-19T11:6:6Z</time></trkpt>
<trkpt lat="46.30533448420464992523193359375" lon="7.46329494751989841461181640625"><ele></ele><time>2020-9-19T11:6:9Z</time></trkpt>
<trkpt lat="46.305339597165584564208984375" lon="7.463347502052783966064453125"><ele></ele><time>2020-9-19T11:6:12Z</time></trkpt>
<trkpt lat="46.3053454644978046417236328125" lon="7.4634003080427646636962890625"><ele></ele><time>2020-9-19T11:6:15Z</time></trkpt>
<trkpt lat="46.30535108037292957305908203125" lon="7.463453114032745361328125"><ele></ele><time>2020-9-19T11:6:18Z</time></trkpt>
<trkpt lat="46.30535761825740337371826171875" lon="7.4635055847465991973876953125"><ele></ele><time>2020-9-19T11:6:21Z</time></trkpt>
<trkpt lat="46.305363737046718597412109375" lon="7.46355897746980190277099609375"><ele></ele><time>2020-9-19T11:6:24Z</time></trkpt>
<trkpt lat="46.30537144839763641357421875" lon="7.4636127054691314697265625"><ele></ele><time>2020-9-19T11:6:27Z</time></trkpt>
<trkpt lat="46.30537840537726879119873046875" lon="7.46366609819233417510986328125"><ele></ele><time>2020-9-19T11:6:30Z</time></trkpt>
<trkpt lat="46.30538293160498142242431640625" lon="7.4637194909155368804931640625"><ele></ele><time>2020-9-19T11:6:33Z</time></trkpt>
<trkpt lat="46.305391229689121246337890625" lon="7.4637736380100250244140625"><ele></ele><time>2020-9-19T11:6:36Z</time></trkpt>
<trkpt lat="46.3053987734019756317138671875" lon="7.46382921002805233001708984375"><ele></ele><time>2020-9-19T11:6:39Z</time></trkpt>
<trkpt lat="46.30540288053452968597412109375" lon="7.46388402767479419708251953125"><ele></ele><time>2020-9-19T11:6:42Z</time></trkpt>
<trkpt lat="46.30540589801967144012451171875" lon="7.4639384262263774871826171875"><ele></ele><time>2020-9-19T11:6:45Z</time></trkpt>
<trkpt lat="46.305407993495464324951171875" lon="7.46399416588246822357177734375"><ele></ele><time>2020-9-19T11:6:48Z</time></trkpt>
<trkpt lat="46.30540790967643260955810546875" lon="7.46404998935759067535400390625"><ele></ele><time>2020-9-19T11:6:51Z</time></trkpt>
<trkpt lat="46.3054064847528934478759765625" lon="7.46410514228045940399169921875"><ele></ele><time>2020-9-19T11:6:54Z</time></trkpt>
<trkpt lat="46.30540422163903713226318359375" lon="7.46416054666042327880859375"><ele></ele><time>2020-9-19T11:6:57Z</time></trkpt>
<trkpt lat="46.30540120415389537811279296875" lon="7.46421553194522857666015625"><ele></ele><time>2020-9-19T11:7:0Z</time></trkpt>
<trkpt lat="46.30539692938327789306640625" lon="7.46427051723003387451171875"><ele></ele><time>2020-9-19T11:7:3Z</time></trkpt>
<trkpt lat="46.30539164878427982330322265625" lon="7.46432525105774402618408203125"><ele></ele><time>2020-9-19T11:7:6Z</time></trkpt>
<trkpt lat="46.305386535823345184326171875" lon="7.46437872759997844696044921875"><ele></ele><time>2020-9-19T11:7:9Z</time></trkpt>
<trkpt lat="46.30538075231015682220458984375" lon="7.46443237178027629852294921875"><ele></ele><time>2020-9-19T11:7:12Z</time></trkpt>
<trkpt lat="46.30537354387342929840087890625" lon="7.464486099779605865478515625"><ele></ele><time>2020-9-19T11:7:15Z</time></trkpt>
<trkpt lat="46.305367089807987213134765625" lon="7.46453882195055484771728515625"><ele></ele><time>2020-9-19T11:7:18Z</time></trkpt>
<trkpt lat="46.305359043180942535400390625" lon="7.46459372341632843017578125"><ele></ele><time>2020-9-19T11:7:21Z</time></trkpt>
<trkpt lat="46.3053514994680881500244140625" lon="7.46464728377759456634521484375"><ele></ele><time>2020-9-19T11:7:24Z</time></trkpt>
<trkpt lat="46.30534554831683635711669921875" lon="7.46469925157725811004638671875"><ele></ele><time>2020-9-19T11:7:27Z</time></trkpt>
<trkpt lat="46.3053394295275211334228515625" lon="7.4647508002817630767822265625"><ele></ele><time>2020-9-19T11:7:30Z</time></trkpt>
<trkpt lat="46.30533196963369846343994140625" lon="7.46480486355721950531005859375"><ele></ele><time>2020-9-19T11:7:33Z</time></trkpt>
<trkpt lat="46.3053240068256855010986328125" lon="7.46485817246139049530029296875"><ele></ele><time>2020-9-19T11:7:36Z</time></trkpt>
<trkpt lat="46.3053162954747676849365234375" lon="7.4649108946323394775390625"><ele></ele><time>2020-9-19T11:7:39Z</time></trkpt>
<trkpt lat="46.3053092546761035919189453125" lon="7.4649630300700664520263671875"><ele></ele><time>2020-9-19T11:7:42Z</time></trkpt>
<trkpt lat="46.30530095659196376800537109375" lon="7.4650153331458568572998046875"><ele></ele><time>2020-9-19T11:7:45Z</time></trkpt>
<trkpt lat="46.30529056303203105926513671875" lon="7.46506721712648868560791015625"><ele></ele><time>2020-9-19T11:7:48Z</time></trkpt>
<trkpt lat="46.305278576910495758056640625" lon="7.46511868201196193695068359375"><ele></ele><time>2020-9-19T11:7:51Z</time></trkpt>
<trkpt lat="46.3052663393318653106689453125" lon="7.4651702307164669036865234375"><ele></ele><time>2020-9-19T11:7:54Z</time></trkpt>
<trkpt lat="46.30525351502001285552978515625" lon="7.4652205221354961395263671875"><ele></ele><time>2020-9-19T11:7:57Z</time></trkpt>
<trkpt lat="46.30523792468011379241943359375" lon="7.46527005918323993682861328125"><ele></ele><time>2020-9-19T11:8:0Z</time></trkpt>
<trkpt lat="46.30521965213119983673095703125" lon="7.46531649492681026458740234375"><ele></ele><time>2020-9-19T11:8:3Z</time></trkpt>
<trkpt lat="46.3051991164684295654296875" lon="7.46536259539425373077392578125"><ele></ele><time>2020-9-19T11:8:6Z</time></trkpt>
<trkpt lat="46.30517606623470783233642578125" lon="7.46540718711912631988525390625"><ele></ele><time>2020-9-19T11:8:9Z</time></trkpt>
<trkpt lat="46.305147819221019744873046875" lon="7.46545379050076007843017578125"><ele></ele><time>2020-9-19T11:8:12Z</time></trkpt>
<trkpt lat="46.3051238469779491424560546875" lon="7.46549737639725208282470703125"><ele></ele><time>2020-9-19T11:8:15Z</time></trkpt>
<trkpt lat="46.3051013834774494171142578125" lon="7.4655400402843952178955078125"><ele></ele><time>2020-9-19T11:8:18Z</time></trkpt>
<trkpt lat="46.30507715977728366851806640625" lon="7.46558211743831634521484375"><ele></ele><time>2020-9-19T11:8:21Z</time></trkpt>
<trkpt lat="46.30505268462002277374267578125" lon="7.4656231887638568878173828125"><ele></ele><time>2020-9-19T11:8:24Z</time></trkpt>
<trkpt lat="46.30502854473888874053955078125" lon="7.46566434390842914581298828125"><ele></ele><time>2020-9-19T11:8:27Z</time></trkpt>
<trkpt lat="46.30500507541000843048095703125" lon="7.46570541523396968841552734375"><ele></ele><time>2020-9-19T11:8:30Z</time></trkpt>
<trkpt lat="46.30498210899531841278076171875" lon="7.465747408568859100341796875"><ele></ele><time>2020-9-19T11:8:33Z</time></trkpt>
<trkpt lat="46.30495931021869182586669921875" lon="7.4657891504466533660888671875"><ele></ele><time>2020-9-19T11:8:36Z</time></trkpt>
<trkpt lat="46.3049367628991603851318359375" lon="7.46583080850541591644287109375"><ele></ele><time>2020-9-19T11:8:39Z</time></trkpt>
<trkpt lat="46.304914467036724090576171875" lon="7.46587313711643218994140625"><ele></ele><time>2020-9-19T11:8:42Z</time></trkpt>
<trkpt lat="46.30489175207912921905517578125" lon="7.46591429226100444793701171875"><ele></ele><time>2020-9-19T11:8:45Z</time></trkpt>
<trkpt lat="46.30486853420734405517578125" lon="7.4659551121294498443603515625"><ele></ele><time>2020-9-19T11:8:48Z</time></trkpt>
<trkpt lat="46.304846070706844329833984375" lon="7.465996854007244110107421875"><ele></ele><time>2020-9-19T11:8:51Z</time></trkpt>
<trkpt lat="46.3048244453966617584228515625" lon="7.46603985317051410675048828125"><ele></ele><time>2020-9-19T11:8:54Z</time></trkpt>
<trkpt lat="46.30480474792420864105224609375" lon="7.46608444489538669586181640625"><ele></ele><time>2020-9-19T11:8:57Z</time></trkpt>
<trkpt lat="46.3047868944704532623291015625" lon="7.46612920425832271575927734375"><ele></ele><time>2020-9-19T11:9:0Z</time></trkpt>
<trkpt lat="46.3047721423208713531494140625" lon="7.466175891458988189697265625"><ele></ele><time>2020-9-19T11:9:3Z</time></trkpt>
<trkpt lat="46.3047647662460803985595703125" lon="7.466225512325763702392578125"><ele></ele><time>2020-9-19T11:9:6Z</time></trkpt>
<trkpt lat="46.30476300604641437530517578125" lon="7.46627815067768096923828125"><ele></ele><time>2020-9-19T11:9:9Z</time></trkpt>
<trkpt lat="46.30476317368447780609130859375" lon="7.4663316272199153900146484375"><ele></ele><time>2020-9-19T11:9:12Z</time></trkpt>
<trkpt lat="46.30477407015860080718994140625" lon="7.4664932303130626678466796875"><ele></ele><time>2020-9-19T11:9:15Z</time></trkpt>
<trkpt lat="46.30478546954691410064697265625" lon="7.46654771268367767333984375"><ele></ele><time>2020-9-19T11:9:18Z</time></trkpt>
<trkpt lat="46.30481757223606109619140625" lon="7.46665709652006626129150390625"><ele></ele><time>2020-9-19T11:9:21Z</time></trkpt>
<trkpt lat="46.30486861802637577056884765625" lon="7.46682892553508281707763671875"><ele></ele><time>2020-9-19T11:9:24Z</time></trkpt>
<trkpt lat="46.30492351949214935302734375" lon="7.46701416559517383575439453125"><ele></ele><time>2020-9-19T11:9:27Z</time></trkpt>
<trkpt lat="46.3049867190420627593994140625" lon="7.46720460243523120880126953125"><ele></ele><time>2020-9-19T11:9:30Z</time></trkpt>
<trkpt lat="46.3050054945051670074462890625" lon="7.46727081947028636932373046875"><ele></ele><time>2020-9-19T11:9:33Z</time></trkpt>
<trkpt lat="46.30502603016793727874755859375" lon="7.46733091771602630615234375"><ele></ele><time>2020-9-19T11:9:36Z</time></trkpt>
<trkpt lat="46.30504732020199298858642578125" lon="7.46738598681986331939697265625"><ele></ele><time>2020-9-19T11:9:39Z</time></trkpt>
<trkpt lat="46.3050722144544124603271484375" lon="7.467431835830211639404296875"><ele></ele><time>2020-9-19T11:9:42Z</time></trkpt>
<trkpt lat="46.30510398186743259429931640625" lon="7.46746293269097805023193359375"><ele></ele><time>2020-9-19T11:9:45Z</time></trkpt>
<trkpt lat="46.30513809621334075927734375" lon="7.46748556382954120635986328125"><ele></ele><time>2020-9-19T11:9:48Z</time></trkpt>
<trkpt lat="46.30517422221601009368896484375" lon="7.467503584921360015869140625"><ele></ele><time>2020-9-19T11:9:51Z</time></trkpt>
<trkpt lat="46.305210851132869720458984375" lon="7.46752227656543254852294921875"><ele></ele><time>2020-9-19T11:9:54Z</time></trkpt>
<trkpt lat="46.3052834384143352508544921875" lon="7.46756250970065593719482421875"><ele></ele><time>2020-9-19T11:9:57Z</time></trkpt>
<trkpt lat="46.30531520582735538482666015625" lon="7.46759318746626377105712890625"><ele></ele><time>2020-9-19T11:10:0Z</time></trkpt>
<trkpt lat="46.3053815066814422607421875" lon="7.467655129730701446533203125"><ele></ele><time>2020-9-19T11:10:3Z</time></trkpt>
<trkpt lat="46.30541008897125720977783203125" lon="7.46768823824822902679443359375"><ele></ele><time>2020-9-19T11:10:6Z</time></trkpt>
<trkpt lat="46.30544143728911876678466796875" lon="7.4677220173180103302001953125"><ele></ele><time>2020-9-19T11:10:9Z</time></trkpt>
<trkpt lat="46.3054675050079822540283203125" lon="7.4677592329680919647216796875"><ele></ele><time>2020-9-19T11:10:12Z</time></trkpt>
<trkpt lat="46.3054906390607357025146484375" lon="7.46779737062752246856689453125"><ele></ele><time>2020-9-19T11:10:15Z</time></trkpt>
<trkpt lat="46.3055120967328548431396484375" lon="7.46783844195306301116943359375"><ele></ele><time>2020-9-19T11:10:18Z</time></trkpt>
<trkpt lat="46.3055338896811008453369140625" lon="7.46787951327860355377197265625"><ele></ele><time>2020-9-19T11:10:21Z</time></trkpt>
<trkpt lat="46.30555492825806140899658203125" lon="7.46791907586157321929931640625"><ele></ele><time>2020-9-19T11:10:24Z</time></trkpt>
<trkpt lat="46.305575631558895111083984375" lon="7.46796098537743091583251953125"><ele></ele><time>2020-9-19T11:10:27Z</time></trkpt>
<trkpt lat="46.3055945746600627899169921875" lon="7.468002475798130035400390625"><ele></ele><time>2020-9-19T11:10:30Z</time></trkpt>
<trkpt lat="46.30562215112149715423583984375" lon="7.46803994290530681610107421875"><ele></ele><time>2020-9-19T11:10:33Z</time></trkpt>
<trkpt lat="46.3056535832583904266357421875" lon="7.468076236546039581298828125"><ele></ele><time>2020-9-19T11:10:36Z</time></trkpt>
<trkpt lat="46.3056854344904422760009765625" lon="7.46811135672032833099365234375"><ele></ele><time>2020-9-19T11:10:39Z</time></trkpt>
<trkpt lat="46.305713094770908355712890625" lon="7.4681437946856021881103515625"><ele></ele><time>2020-9-19T11:10:42Z</time></trkpt>
<trkpt lat="46.30573731847107410430908203125" lon="7.46817983686923980712890625"><ele></ele><time>2020-9-19T11:10:45Z</time></trkpt>
<trkpt lat="46.30576078779995441436767578125" lon="7.46822283603250980377197265625"><ele></ele><time>2020-9-19T11:10:48Z</time></trkpt>
<trkpt lat="46.3057833351194858551025390625" lon="7.468261979520320892333984375"><ele></ele><time>2020-9-19T11:10:51Z</time></trkpt>
<trkpt lat="46.305803954601287841796875" lon="7.46829844079911708831787109375"><ele></ele><time>2020-9-19T11:10:54Z</time></trkpt>
<trkpt lat="46.3058319501578807830810546875" lon="7.46832492761313915252685546875"><ele></ele><time>2020-9-19T11:10:57Z</time></trkpt>
<trkpt lat="46.3058624602854251861572265625" lon="7.468348480761051177978515625"><ele></ele><time>2020-9-19T11:11:0Z</time></trkpt>
<trkpt lat="46.305888108909130096435546875" lon="7.4683794938027858734130859375"><ele></ele><time>2020-9-19T11:11:3Z</time></trkpt>
<trkpt lat="46.305912248790264129638671875" lon="7.46841344051063060760498046875"><ele></ele><time>2020-9-19T11:11:6Z</time></trkpt>
<trkpt lat="46.3059392385184764862060546875" lon="7.4684448726475238800048828125"><ele></ele><time>2020-9-19T11:11:9Z</time></trkpt>
<trkpt lat="46.30596865899860858917236328125" lon="7.46847060509026050567626953125"><ele></ele><time>2020-9-19T11:11:12Z</time></trkpt>
<trkpt lat="46.30599631927907466888427734375" lon="7.4684914760291576385498046875"><ele></ele><time>2020-9-19T11:11:15Z</time></trkpt>
<trkpt lat="46.30603127181529998779296875" lon="7.468501031398773193359375"><ele></ele><time>2020-9-19T11:11:18Z</time></trkpt>
<trkpt lat="46.3060515560209751129150390625" lon="7.46850966475903987884521484375"><ele></ele><time>2020-9-19T11:11:21Z</time></trkpt>
<trkpt lat="46.30607016384601593017578125" lon="7.46850228868424892425537109375"><ele></ele><time>2020-9-19T11:11:24Z</time></trkpt>
<trkpt lat="46.3060820661485195159912109375" lon="7.468496002256870269775390625"><ele></ele><time>2020-9-19T11:11:27Z</time></trkpt>
<trkpt lat="46.3060924597084522247314453125" lon="7.46848686598241329193115234375"><ele></ele><time>2020-9-19T11:11:30Z</time></trkpt>
<trkpt lat="46.3062252290546894073486328125" lon="7.4684975109994411468505859375"><ele></ele><time>2020-9-19T11:11:33Z</time></trkpt>
<trkpt lat="46.30624040029942989349365234375" lon="7.4684894643723964691162109375"><ele></ele><time>2020-9-19T11:11:36Z</time></trkpt>
<trkpt lat="46.3062607683241367340087890625" lon="7.46848971582949161529541015625"><ele></ele><time>2020-9-19T11:11:39Z</time></trkpt>
<trkpt lat="46.30628599785268306732177734375" lon="7.46849508024752140045166015625"><ele></ele><time>2020-9-19T11:11:42Z</time></trkpt>
<trkpt lat="46.3063107244670391082763671875" lon="7.46850178577005863189697265625"><ele></ele><time>2020-9-19T11:11:45Z</time></trkpt>
<trkpt lat="46.30633126012980937957763671875" lon="7.46851083822548389434814453125"><ele></ele><time>2020-9-19T11:11:48Z</time></trkpt>
<trkpt lat="46.30634936504065990447998046875" lon="7.46851553209125995635986328125"><ele></ele><time>2020-9-19T11:11:51Z</time></trkpt>
<trkpt lat="46.30637015216052532196044921875" lon="7.46851854957640171051025390625"><ele></ele><time>2020-9-19T11:11:54Z</time></trkpt>
<trkpt lat="46.306420862674713134765625" lon="7.46852793730795383453369140625"><ele></ele><time>2020-9-19T11:11:57Z</time></trkpt>
<trkpt lat="46.30644659511744976043701171875" lon="7.46853447519242763519287109375"><ele></ele><time>2020-9-19T11:12:0Z</time></trkpt>
<trkpt lat="46.3064709864556789398193359375" lon="7.46854436583817005157470703125"><ele></ele><time>2020-9-19T11:12:3Z</time></trkpt>
<trkpt lat="46.306492947041988372802734375" lon="7.46856565587222576141357421875"><ele></ele><time>2020-9-19T11:12:6Z</time></trkpt>
<trkpt lat="46.30651465617120265960693359375" lon="7.468587197363376617431640625"><ele></ele><time>2020-9-19T11:12:9Z</time></trkpt>
<trkpt lat="46.306533850729465484619140625" lon="7.468607984483242034912109375"><ele></ele><time>2020-9-19T11:12:12Z</time></trkpt>
<trkpt lat="46.3065494410693645477294921875" lon="7.46862365864217281341552734375"><ele></ele><time>2020-9-19T11:12:15Z</time></trkpt>
<trkpt lat="46.3065648637712001800537109375" lon="7.4686356447637081146240234375"><ele></ele><time>2020-9-19T11:12:18Z</time></trkpt>
<trkpt lat="46.3065896742045879364013671875" lon="7.46864117681980133056640625"><ele></ele><time>2020-9-19T11:12:21Z</time></trkpt>
<trkpt lat="46.3066180050373077392578125" lon="7.4686487205326557159423828125"><ele></ele><time>2020-9-19T11:12:24Z</time></trkpt>
<trkpt lat="46.3066413067281246185302734375" lon="7.4686725251376628875732421875"><ele></ele><time>2020-9-19T11:12:27Z</time></trkpt>
<trkpt lat="46.30667223595082759857177734375" lon="7.46869004331529140472412109375"><ele></ele><time>2020-9-19T11:12:30Z</time></trkpt>
<trkpt lat="46.3067070208489894866943359375" lon="7.4686968326568603515625"><ele></ele><time>2020-9-19T11:12:33Z</time></trkpt>
<trkpt lat="46.306817829608917236328125" lon="7.468714602291584014892578125"><ele></ele><time>2020-9-19T11:12:36Z</time></trkpt>
<trkpt lat="46.30689653567969799041748046875" lon="7.468722648918628692626953125"><ele></ele><time>2020-9-19T11:12:39Z</time></trkpt>
<trkpt lat="46.3069759123027324676513671875" lon="7.46872834861278533935546875"><ele></ele><time>2020-9-19T11:12:42Z</time></trkpt>
<trkpt lat="46.307016313076019287109375" lon="7.468732036650180816650390625"><ele></ele><time>2020-9-19T11:12:45Z</time></trkpt>
<trkpt lat="46.307054869830608367919921875" lon="7.4687397480010986328125"><ele></ele><time>2020-9-19T11:12:48Z</time></trkpt>
<trkpt lat="46.3070981204509735107421875" lon="7.46874234639108180999755859375"><ele></ele><time>2020-9-19T11:12:51Z</time></trkpt>
<trkpt lat="46.30713977850973606109619140625" lon="7.46874117292463779449462890625"><ele></ele><time>2020-9-19T11:12:54Z</time></trkpt>
<trkpt lat="46.30718101747334003448486328125" lon="7.46873966418206691741943359375"><ele></ele><time>2020-9-19T11:12:57Z</time></trkpt>
<trkpt lat="46.307262070477008819580078125" lon="7.46873513795435428619384765625"><ele></ele><time>2020-9-19T11:13:0Z</time></trkpt>
<trkpt lat="46.30730289034545421600341796875" lon="7.46873396448791027069091796875"><ele></ele><time>2020-9-19T11:13:3Z</time></trkpt>
<trkpt lat="46.30743046291172504425048828125" lon="7.46873077936470508575439453125"><ele></ele><time>2020-9-19T11:13:6Z</time></trkpt>
<trkpt lat="46.30747941322624683380126953125" lon="7.4687332101166248321533203125"><ele></ele><time>2020-9-19T11:13:9Z</time></trkpt>
<trkpt lat="46.307523250579833984375" lon="7.46874117292463779449462890625"><ele></ele><time>2020-9-19T11:13:12Z</time></trkpt>
<trkpt lat="46.307568512856960296630859375" lon="7.46875307522714138031005859375"><ele></ele><time>2020-9-19T11:13:15Z</time></trkpt>
<trkpt lat="46.30761452950537204742431640625" lon="7.46876698918640613555908203125"><ele></ele><time>2020-9-19T11:13:18Z</time></trkpt>
<trkpt lat="46.3076524995267391204833984375" lon="7.46878794394433498382568359375"><ele></ele><time>2020-9-19T11:13:21Z</time></trkpt>
<trkpt lat="46.307687200605869293212890625" lon="7.46881359256803989410400390625"><ele></ele><time>2020-9-19T11:13:24Z</time></trkpt>
<trkpt lat="46.30771972239017486572265625" lon="7.46883521787822246551513671875"><ele></ele><time>2020-9-19T11:13:27Z</time></trkpt>
<trkpt lat="46.30775266326963901519775390625" lon="7.46885734610259532928466796875"><ele></ele><time>2020-9-19T11:13:30Z</time></trkpt>
<trkpt lat="46.3077849335968494415283203125" lon="7.46888349764049053192138671875"><ele></ele><time>2020-9-19T11:13:33Z</time></trkpt>
<trkpt lat="46.3078144378960132598876953125" lon="7.4689145945012569427490234375"><ele></ele><time>2020-9-19T11:13:36Z</time></trkpt>
<trkpt lat="46.307843439280986785888671875" lon="7.46894560754299163818359375"><ele></ele><time>2020-9-19T11:13:39Z</time></trkpt>
<trkpt lat="46.3078697584569454193115234375" lon="7.4689766205847263336181640625"><ele></ele><time>2020-9-19T11:13:42Z</time></trkpt>
<trkpt lat="46.30789532326161861419677734375" lon="7.46900922618806362152099609375"><ele></ele><time>2020-9-19T11:13:45Z</time></trkpt>
<trkpt lat="46.3079180382192134857177734375" lon="7.46903948485851287841796875"><ele></ele><time>2020-9-19T11:13:48Z</time></trkpt>
<trkpt lat="46.30794293247163295745849609375" lon="7.469066642224788665771484375"><ele></ele><time>2020-9-19T11:13:51Z</time></trkpt>
<trkpt lat="46.30797143094241619110107421875" lon="7.4690922908484935760498046875"><ele></ele><time>2020-9-19T11:13:54Z</time></trkpt>
<trkpt lat="46.30799657665193080902099609375" lon="7.46912154369056224822998046875"><ele></ele><time>2020-9-19T11:13:57Z</time></trkpt>
<trkpt lat="46.308021806180477142333984375" lon="7.4691519699990749359130859375"><ele></ele><time>2020-9-19T11:14:0Z</time></trkpt>
<trkpt lat="46.30804586224257946014404296875" lon="7.4691808037459850311279296875"><ele></ele><time>2020-9-19T11:14:3Z</time></trkpt>
<trkpt lat="46.30807452835142612457275390625" lon="7.46920888312160968780517578125"><ele></ele><time>2020-9-19T11:14:6Z</time></trkpt>
<trkpt lat="46.3081173598766326904296875" lon="7.469222880899906158447265625"><ele></ele><time>2020-9-19T11:14:9Z</time></trkpt>
<trkpt lat="46.30816052667796611785888671875" lon="7.46923553757369518280029296875"><ele></ele><time>2020-9-19T11:14:12Z</time></trkpt>
<trkpt lat="46.308198831975460052490234375" lon="7.46925163082778453826904296875"><ele></ele><time>2020-9-19T11:14:15Z</time></trkpt>
<trkpt lat="46.30824132822453975677490234375" lon="7.46926386840641498565673828125"><ele></ele><time>2020-9-19T11:14:18Z</time></trkpt>
<trkpt lat="46.30828307010233402252197265625" lon="7.46927409432828426361083984375"><ele></ele><time>2020-9-19T11:14:21Z</time></trkpt>
<trkpt lat="46.308322213590145111083984375" lon="7.46927308849990367889404296875"><ele></ele><time>2020-9-19T11:14:24Z</time></trkpt>
<trkpt lat="46.308355070650577545166015625" lon="7.4692587554454803466796875"><ele></ele><time>2020-9-19T11:14:27Z</time></trkpt>
<trkpt lat="46.30838080309331417083740234375" lon="7.469230592250823974609375"><ele></ele><time>2020-9-19T11:14:30Z</time></trkpt>
<trkpt lat="46.3083994947373867034912109375" lon="7.4691911973059177398681640625"><ele></ele><time>2020-9-19T11:14:33Z</time></trkpt>
<trkpt lat="46.30840611644089221954345703125" lon="7.46914735995233058929443359375"><ele></ele><time>2020-9-19T11:14:36Z</time></trkpt>
<trkpt lat="46.3084051944315433502197265625" lon="7.46910260058939456939697265625"><ele></ele><time>2020-9-19T11:14:39Z</time></trkpt>
<trkpt lat="46.30839832127094268798828125" lon="7.469056583940982818603515625"><ele></ele><time>2020-9-19T11:14:42Z</time></trkpt>
<trkpt lat="46.3083562441170215606689453125" lon="7.468870840966701507568359375"><ele></ele><time>2020-9-19T11:14:45Z</time></trkpt>
<trkpt lat="46.3083475269377231597900390625" lon="7.4688237346708774566650390625"><ele></ele><time>2020-9-19T11:14:48Z</time></trkpt>
<trkpt lat="46.3083381392061710357666015625" lon="7.4687813222408294677734375"><ele></ele><time>2020-9-19T11:14:51Z</time></trkpt>
<trkpt lat="46.3083274103701114654541015625" lon="7.46874041855335235595703125"><ele></ele><time>2020-9-19T11:14:54Z</time></trkpt>
<trkpt lat="46.3083180226385593414306640625" lon="7.4687006883323192596435546875"><ele></ele><time>2020-9-19T11:14:57Z</time></trkpt>
<trkpt lat="46.30830980837345123291015625" lon="7.46866255067288875579833984375"><ele></ele><time>2020-9-19T11:15:0Z</time></trkpt>
<trkpt lat="46.30830167792737483978271484375" lon="7.46862432919442653656005859375"><ele></ele><time>2020-9-19T11:15:3Z</time></trkpt>
<trkpt lat="46.308293379843235015869140625" lon="7.46858619153499603271484375"><ele></ele><time>2020-9-19T11:15:6Z</time></trkpt>
<trkpt lat="46.30828558467328548431396484375" lon="7.46854788623750209808349609375"><ele></ele><time>2020-9-19T11:15:9Z</time></trkpt>
<trkpt lat="46.3082774542272090911865234375" lon="7.46851134113967418670654296875"><ele></ele><time>2020-9-19T11:15:12Z</time></trkpt>
<trkpt lat="46.3082694076001644134521484375" lon="7.4684753827750682830810546875"><ele></ele><time>2020-9-19T11:15:15Z</time></trkpt>
<trkpt lat="46.30825960077345371246337890625" lon="7.4684406816959381103515625"><ele></ele><time>2020-9-19T11:15:18Z</time></trkpt>
<trkpt lat="46.30824937485158443450927734375" lon="7.468406818807125091552734375"><ele></ele><time>2020-9-19T11:15:21Z</time></trkpt>
<trkpt lat="46.30824082531034946441650390625" lon="7.46837303973734378814697265625"><ele></ele><time>2020-9-19T11:15:24Z</time></trkpt>
<trkpt lat="46.30823395214974880218505859375" lon="7.46834085322916507720947265625"><ele></ele><time>2020-9-19T11:15:27Z</time></trkpt>
<trkpt lat="46.3082244805991649627685546875" lon="7.4683060683310031890869140625"><ele></ele><time>2020-9-19T11:15:30Z</time></trkpt>
<trkpt lat="46.30821718834340572357177734375" lon="7.46827078051865100860595703125"><ele></ele><time>2020-9-19T11:15:33Z</time></trkpt>
<trkpt lat="46.30820981226861476898193359375" lon="7.468235827982425689697265625"><ele></ele><time>2020-9-19T11:15:36Z</time></trkpt>
<trkpt lat="46.30820193327963352203369140625" lon="7.46820037253201007843017578125"><ele></ele><time>2020-9-19T11:15:39Z</time></trkpt>
<trkpt lat="46.3081943057477474212646484375" lon="7.4681644141674041748046875"><ele></ele><time>2020-9-19T11:15:42Z</time></trkpt>
<trkpt lat="46.3081859238445758819580078125" lon="7.46812887489795684814453125"><ele></ele><time>2020-9-19T11:15:45Z</time></trkpt>
<trkpt lat="46.3081790506839752197265625" lon="7.4680931679904460906982421875"><ele></ele><time>2020-9-19T11:15:48Z</time></trkpt>
<trkpt lat="46.30817167460918426513671875" lon="7.46805737726390361785888671875"><ele></ele><time>2020-9-19T11:15:51Z</time></trkpt>
<trkpt lat="46.30816371180117130279541015625" lon="7.4680214188992977142333984375"><ele></ele><time>2020-9-19T11:15:54Z</time></trkpt>
<trkpt lat="46.3081560842692852020263671875" lon="7.46798579581081867218017578125"><ele></ele><time>2020-9-19T11:15:57Z</time></trkpt>
<trkpt lat="46.30814912728965282440185546875" lon="7.467952184379100799560546875"><ele></ele><time>2020-9-19T11:16:0Z</time></trkpt>
<trkpt lat="46.30814393050968647003173828125" lon="7.46791823767125606536865234375"><ele></ele><time>2020-9-19T11:16:3Z</time></trkpt>
<trkpt lat="46.30813890136778354644775390625" lon="7.467883788049221038818359375"><ele></ele><time>2020-9-19T11:16:6Z</time></trkpt>
<trkpt lat="46.30813437514007091522216796875" lon="7.467848248779773712158203125"><ele></ele><time>2020-9-19T11:16:9Z</time></trkpt>
<trkpt lat="46.3081299327313899993896484375" lon="7.467814385890960693359375"><ele></ele><time>2020-9-19T11:16:12Z</time></trkpt>
<trkpt lat="46.30812473595142364501953125" lon="7.467781193554401397705078125"><ele></ele><time>2020-9-19T11:16:15Z</time></trkpt>
<trkpt lat="46.30812113173305988311767578125" lon="7.46774707920849323272705078125"><ele></ele><time>2020-9-19T11:16:18Z</time></trkpt>
<trkpt lat="46.30812071263790130615234375" lon="7.46771187521517276763916015625"><ele></ele><time>2020-9-19T11:16:21Z</time></trkpt>
<trkpt lat="46.30812163464725017547607421875" lon="7.467677928507328033447265625"><ele></ele><time>2020-9-19T11:16:24Z</time></trkpt>
<trkpt lat="46.30812331102788448333740234375" lon="7.46764649637043476104736328125"><ele></ele><time>2020-9-19T11:16:27Z</time></trkpt>
<trkpt lat="46.30812465213239192962646484375" lon="7.467614896595478057861328125"><ele></ele><time>2020-9-19T11:16:30Z</time></trkpt>
<trkpt lat="46.30812607705593109130859375" lon="7.46758304536342620849609375"><ele></ele><time>2020-9-19T11:16:33Z</time></trkpt>
<trkpt lat="46.30812984891235828399658203125" lon="7.46755278669297695159912109375"><ele></ele><time>2020-9-19T11:16:36Z</time></trkpt>
<trkpt lat="46.308134458959102630615234375" lon="7.46752403676509857177734375"><ele></ele><time>2020-9-19T11:16:39Z</time></trkpt>
<trkpt lat="46.30813856609165668487548828125" lon="7.4674965441226959228515625"><ele></ele><time>2020-9-19T11:16:42Z</time></trkpt>
<trkpt lat="46.30813923664391040802001953125" lon="7.46746829710900783538818359375"><ele></ele><time>2020-9-19T11:16:45Z</time></trkpt>
<trkpt lat="46.30813957192003726959228515625" lon="7.4674375355243682861328125"><ele></ele><time>2020-9-19T11:16:48Z</time></trkpt>
<trkpt lat="46.30814258940517902374267578125" lon="7.46740660630166530609130859375"><ele></ele><time>2020-9-19T11:16:51Z</time></trkpt>
<trkpt lat="46.3081456907093524932861328125" lon="7.46737794019281864166259765625"><ele></ele><time>2020-9-19T11:16:54Z</time></trkpt>
<trkpt lat="46.30814678035676479339599609375" lon="7.46734843589365482330322265625"><ele></ele><time>2020-9-19T11:16:57Z</time></trkpt>
<trkpt lat="46.30814661271870136260986328125" lon="7.46731775812804698944091796875"><ele></ele><time>2020-9-19T11:17:0Z</time></trkpt>
<trkpt lat="46.30814527161419391632080078125" lon="7.4672873318195343017578125"><ele></ele><time>2020-9-19T11:17:3Z</time></trkpt>
<trkpt lat="46.308143846690654754638671875" lon="7.4672579951584339141845703125"><ele></ele><time>2020-9-19T11:17:6Z</time></trkpt>
<trkpt lat="46.30814242176711559295654296875" lon="7.4672288261353969573974609375"><ele></ele><time>2020-9-19T11:17:9Z</time></trkpt>
<trkpt lat="46.30814041011035442352294921875" lon="7.46719890274107456207275390625"><ele></ele><time>2020-9-19T11:17:12Z</time></trkpt>
<trkpt lat="46.30813973955810070037841796875" lon="7.467166967689990997314453125"><ele></ele><time>2020-9-19T11:17:15Z</time></trkpt>
<trkpt lat="46.30813672207295894622802734375" lon="7.467132098972797393798828125"><ele></ele><time>2020-9-19T11:17:18Z</time></trkpt>
<trkpt lat="46.3081356324255466461181640625" lon="7.46709882281720638275146484375"><ele></ele><time>2020-9-19T11:17:21Z</time></trkpt>
<trkpt lat="46.3081312738358974456787109375" lon="7.4670665524899959564208984375"><ele></ele><time>2020-9-19T11:17:24Z</time></trkpt>
<trkpt lat="46.30813085474073886871337890625" lon="7.467033863067626953125"><ele></ele><time>2020-9-19T11:17:27Z</time></trkpt>
<trkpt lat="46.30813135765492916107177734375" lon="7.467001341283321380615234375"><ele></ele><time>2020-9-19T11:17:30Z</time></trkpt>
<trkpt lat="46.30813001655042171478271484375" lon="7.46697057969868183135986328125"><ele></ele><time>2020-9-19T11:17:33Z</time></trkpt>
<trkpt lat="46.30813236348330974578857421875" lon="7.4669425003230571746826171875"><ele></ele><time>2020-9-19T11:17:36Z</time></trkpt>
<trkpt lat="46.30813001655042171478271484375" lon="7.4669129960238933563232421875"><ele></ele><time>2020-9-19T11:17:39Z</time></trkpt>
<trkpt lat="46.30813135765492916107177734375" lon="7.4668811447918415069580078125"><ele></ele><time>2020-9-19T11:17:42Z</time></trkpt>
<trkpt lat="46.30813789553940296173095703125" lon="7.466847114264965057373046875"><ele></ele><time>2020-9-19T11:17:45Z</time></trkpt>
<trkpt lat="46.3081388175487518310546875" lon="7.46681383810937404632568359375"><ele></ele><time>2020-9-19T11:17:48Z</time></trkpt>
<trkpt lat="46.3081399910151958465576171875" lon="7.466781400144100189208984375"><ele></ele><time>2020-9-19T11:17:51Z</time></trkpt>
<trkpt lat="46.308137141168117523193359375" lon="7.46674678288400173187255859375"><ele></ele><time>2020-9-19T11:17:54Z</time></trkpt>
<trkpt lat="46.30813278257846832275390625" lon="7.466709651052951812744140625"><ele></ele><time>2020-9-19T11:17:57Z</time></trkpt>
<trkpt lat="46.30812766961753368377685546875" lon="7.46667101047933101654052734375"><ele></ele><time>2020-9-19T11:18:0Z</time></trkpt>
<trkpt lat="46.308124400675296783447265625" lon="7.466634549200534820556640625"><ele></ele><time>2020-9-19T11:18:3Z</time></trkpt>
<trkpt lat="46.308121047914028167724609375" lon="7.46659473516047000885009765625"><ele></ele><time>2020-9-19T11:18:6Z</time></trkpt>
<trkpt lat="46.30811576731503009796142578125" lon="7.4665535800158977508544921875"><ele></ele><time>2020-9-19T11:18:9Z</time></trkpt>
<trkpt lat="46.30811090581119060516357421875" lon="7.46651225723326206207275390625"><ele></ele><time>2020-9-19T11:18:12Z</time></trkpt>
<trkpt lat="46.3081064634025096893310546875" lon="7.46647302992641925811767578125"><ele></ele><time>2020-9-19T11:18:15Z</time></trkpt>
<trkpt lat="46.3081044517457485198974609375" lon="7.466432712972164154052734375"><ele></ele><time>2020-9-19T11:18:18Z</time></trkpt>
<trkpt lat="46.308099925518035888671875" lon="7.46639373712241649627685546875"><ele></ele><time>2020-9-19T11:18:21Z</time></trkpt>
<trkpt lat="46.3080964051187038421630859375" lon="7.46635249815881252288818359375"><ele></ele><time>2020-9-19T11:18:24Z</time></trkpt>
<trkpt lat="46.30809330381453037261962890625" lon="7.46631176210939884185791015625"><ele></ele><time>2020-9-19T11:18:27Z</time></trkpt>
<trkpt lat="46.30809112451970577239990234375" lon="7.46627010405063629150390625"><ele></ele><time>2020-9-19T11:18:30Z</time></trkpt>
<trkpt lat="46.30809062160551548004150390625" lon="7.4660962633788585662841796875"><ele></ele><time>2020-9-19T11:18:33Z</time></trkpt>
<trkpt lat="46.3080923818051815032958984375" lon="7.46605225838720798492431640625"><ele></ele><time>2020-9-19T11:18:36Z</time></trkpt>
<trkpt lat="46.30810797214508056640625" lon="7.46591529808938503265380859375"><ele></ele><time>2020-9-19T11:18:39Z</time></trkpt>
<trkpt lat="46.30813010036945343017578125" lon="7.465668953955173492431640625"><ele></ele><time>2020-9-19T11:18:42Z</time></trkpt>
<trkpt lat="46.308153234422206878662109375" lon="7.4655665270984172821044921875"><ele></ele><time>2020-9-19T11:18:45Z</time></trkpt>
<trkpt lat="46.308167316019535064697265625" lon="7.46551506221294403076171875"><ele></ele><time>2020-9-19T11:18:48Z</time></trkpt>
<trkpt lat="46.308207549154758453369140625" lon="7.465415485203266143798828125"><ele></ele><time>2020-9-19T11:18:51Z</time></trkpt>
<trkpt lat="46.30823663435876369476318359375" lon="7.4653868190944194793701171875"><ele></ele><time>2020-9-19T11:18:54Z</time></trkpt>
<trkpt lat="46.3082667253911495208740234375" lon="7.465387992560863494873046875"><ele></ele><time>2020-9-19T11:18:57Z</time></trkpt>
<trkpt lat="46.3082809746265411376953125" lon="7.46541389264166355133056640625"><ele></ele><time>2020-9-19T11:19:0Z</time></trkpt>
<trkpt lat="46.3082888536155223846435546875" lon="7.46544809080660343170166015625"><ele></ele><time>2020-9-19T11:19:3Z</time></trkpt>
<trkpt lat="46.30829564295709133148193359375" lon="7.465485893189907073974609375"><ele></ele><time>2020-9-19T11:19:6Z</time></trkpt>
<trkpt lat="46.30830067209899425506591796875" lon="7.46552704833447933197021484375"><ele></ele><time>2020-9-19T11:19:9Z</time></trkpt>
<trkpt lat="46.30830503068864345550537109375" lon="7.46557096950709819793701171875"><ele></ele><time>2020-9-19T11:19:12Z</time></trkpt>
<trkpt lat="46.308310814201831817626953125" lon="7.46561841107904911041259765625"><ele></ele><time>2020-9-19T11:19:15Z</time></trkpt>
<trkpt lat="46.3083163462579250335693359375" lon="7.46566920541226863861083984375"><ele></ele><time>2020-9-19T11:19:18Z</time></trkpt>
<trkpt lat="46.3083230517804622650146484375" lon="7.4657774157822132110595703125"><ele></ele><time>2020-9-19T11:19:21Z</time></trkpt>
<trkpt lat="46.30837091244757175445556640625" lon="7.46623464860022068023681640625"><ele></ele><time>2020-9-19T11:19:24Z</time></trkpt>
<trkpt lat="46.30838046781718730926513671875" lon="7.46629022061824798583984375"><ele></ele><time>2020-9-19T11:19:27Z</time></trkpt>
<trkpt lat="46.3083891011774539947509765625" lon="7.46634545736014842987060546875"><ele></ele><time>2020-9-19T11:19:30Z</time></trkpt>
<trkpt lat="46.3083968125283718109130859375" lon="7.46640027500689029693603515625"><ele></ele><time>2020-9-19T11:19:33Z</time></trkpt>
<trkpt lat="46.30840477533638477325439453125" lon="7.4664543382823467254638671875"><ele></ele><time>2020-9-19T11:19:36Z</time></trkpt>
<trkpt lat="46.30841298960149288177490234375" lon="7.46650706045329570770263671875"><ele></ele><time>2020-9-19T11:19:39Z</time></trkpt>
<trkpt lat="46.30841718055307865142822265625" lon="7.46655684895813465118408203125"><ele></ele><time>2020-9-19T11:19:42Z</time></trkpt>
<trkpt lat="46.30841382779181003570556640625" lon="7.4666008539497852325439453125"><ele></ele><time>2020-9-19T11:19:45Z</time></trkpt>
<trkpt lat="46.3084005005657672882080078125" lon="7.46663899160921573638916015625"><ele></ele><time>2020-9-19T11:19:48Z</time></trkpt>
<trkpt lat="46.308380551636219024658203125" lon="7.466670088469982147216796875"><ele></ele><time>2020-9-19T11:19:51Z</time></trkpt>
<trkpt lat="46.3083606027066707611083984375" lon="7.46670051477849483489990234375"><ele></ele><time>2020-9-19T11:19:54Z</time></trkpt>
<trkpt lat="46.30834945477545261383056640625" lon="7.46673907153308391571044921875"><ele></ele><time>2020-9-19T11:19:57Z</time></trkpt>
<trkpt lat="46.30835247226059436798095703125" lon="7.46677997522056102752685546875"><ele></ele><time>2020-9-19T11:20:0Z</time></trkpt>
<trkpt lat="46.3083696551620960235595703125" lon="7.46680847369134426116943359375"><ele></ele><time>2020-9-19T11:20:3Z</time></trkpt>
<trkpt lat="46.3083984889090061187744140625" lon="7.4668224714696407318115234375"><ele></ele><time>2020-9-19T11:20:6Z</time></trkpt>
<trkpt lat="46.30843176506459712982177734375" lon="7.46683026663959026336669921875"><ele></ele><time>2020-9-19T11:20:9Z</time></trkpt>
<trkpt lat="46.30846730433404445648193359375" lon="7.46683345176279544830322265625"><ele></ele><time>2020-9-19T11:20:12Z</time></trkpt>
<trkpt lat="46.30850334651768207550048828125" lon="7.46682959608733654022216796875"><ele></ele><time>2020-9-19T11:20:15Z</time></trkpt>
<trkpt lat="46.3085384666919708251953125" lon="7.4668204598128795623779296875"><ele></ele><time>2020-9-19T11:20:18Z</time></trkpt>
<trkpt lat="46.30860795266926288604736328125" lon="7.46680059470236301422119140625"><ele></ele><time>2020-9-19T11:20:21Z</time></trkpt>
<trkpt lat="46.308641731739044189453125" lon="7.46678802184760570526123046875"><ele></ele><time>2020-9-19T11:20:24Z</time></trkpt>
<trkpt lat="46.3086744211614131927490234375" lon="7.46676891110837459564208984375"><ele></ele><time>2020-9-19T11:20:27Z</time></trkpt>
<trkpt lat="46.30869579501450061798095703125" lon="7.4667483754456043243408203125"><ele></ele><time>2020-9-19T11:20:30Z</time></trkpt>
<trkpt lat="46.30870987661182880401611328125" lon="7.4667239002883434295654296875"><ele></ele><time>2020-9-19T11:20:33Z</time></trkpt>
<trkpt lat="46.30872094072401523590087890625" lon="7.46669783256947994232177734375"><ele></ele><time>2020-9-19T11:20:36Z</time></trkpt>
<trkpt lat="46.30873133428394794464111328125" lon="7.46667168103158473968505859375"><ele></ele><time>2020-9-19T11:20:39Z</time></trkpt>
<trkpt lat="46.30873787216842174530029296875" lon="7.46664703823626041412353515625"><ele></ele><time>2020-9-19T11:20:42Z</time></trkpt>
<trkpt lat="46.308742649853229522705078125" lon="7.46662340126931667327880859375"><ele></ele><time>2020-9-19T11:20:45Z</time></trkpt>
<trkpt lat="46.30875061266124248504638671875" lon="7.4666011892259120941162109375"><ele></ele><time>2020-9-19T11:20:48Z</time></trkpt>
<trkpt lat="46.308759748935699462890625" lon="7.46657646261155605316162109375"><ele></ele><time>2020-9-19T11:20:51Z</time></trkpt>
<trkpt lat="46.30876670591533184051513671875" lon="7.4665488861501216888427734375"><ele></ele><time>2020-9-19T11:20:54Z</time></trkpt>
<trkpt lat="46.308769471943378448486328125" lon="7.46651795692741870880126953125"><ele></ele><time>2020-9-19T11:20:57Z</time></trkpt>
<trkpt lat="46.308774836361408233642578125" lon="7.466488368809223175048828125"><ele></ele><time>2020-9-19T11:21:0Z</time></trkpt>
<trkpt lat="46.30878346972167491912841796875" lon="7.46645987033843994140625"><ele></ele><time>2020-9-19T11:21:3Z</time></trkpt>
<trkpt lat="46.30879118107259273529052734375" lon="7.4664312042295932769775390625"><ele></ele><time>2020-9-19T11:21:6Z</time></trkpt>
<trkpt lat="46.3087998144328594207763671875" lon="7.4664040468633174896240234375"><ele></ele><time>2020-9-19T11:21:9Z</time></trkpt>
<trkpt lat="46.3088120520114898681640625" lon="7.466379068791866302490234375"><ele></ele><time>2020-9-19T11:21:12Z</time></trkpt>
<trkpt lat="46.30882403813302516937255859375" lon="7.46635635383427143096923828125"><ele></ele><time>2020-9-19T11:21:15Z</time></trkpt>
<trkpt lat="46.30883443169295787811279296875" lon="7.46633254922926425933837890625"><ele></ele><time>2020-9-19T11:21:18Z</time></trkpt>
<trkpt lat="46.30884415470063686370849609375" lon="7.4663088284432888031005859375"><ele></ele><time>2020-9-19T11:21:21Z</time></trkpt>
<trkpt lat="46.30885421298444271087646484375" lon="7.46628577820956707000732421875"><ele></ele><time>2020-9-19T11:21:24Z</time></trkpt>
<trkpt lat="46.3088651932775974273681640625" lon="7.4662655778229236602783203125"><ele></ele><time>2020-9-19T11:21:27Z</time></trkpt>
<trkpt lat="46.3088769279420375823974609375" lon="7.46624437160789966583251953125"><ele></ele><time>2020-9-19T11:21:30Z</time></trkpt>
<trkpt lat="46.30888824351131916046142578125" lon="7.46622316539287567138671875"><ele></ele><time>2020-9-19T11:21:33Z</time></trkpt>
<trkpt lat="46.30889989435672760009765625" lon="7.466202713549137115478515625"><ele></ele><time>2020-9-19T11:21:36Z</time></trkpt>
<trkpt lat="46.30891221575438976287841796875" lon="7.46618385426700115203857421875"><ele></ele><time>2020-9-19T11:21:39Z</time></trkpt>
<trkpt lat="46.3089248724281787872314453125" lon="7.46616541408002376556396484375"><ele></ele><time>2020-9-19T11:21:42Z</time></trkpt>
<trkpt lat="46.30893870256841182708740234375" lon="7.4661482311785221099853515625"><ele></ele><time>2020-9-19T11:21:45Z</time></trkpt>
<trkpt lat="46.3089542090892791748046875" lon="7.46613406576216220855712890625"><ele></ele><time>2020-9-19T11:21:48Z</time></trkpt>
<trkpt lat="46.3089704699814319610595703125" lon="7.46612249873578548431396484375"><ele></ele><time>2020-9-19T11:21:51Z</time></trkpt>
<trkpt lat="46.308986730873584747314453125" lon="7.4661140330135822296142578125"><ele></ele><time>2020-9-19T11:21:54Z</time></trkpt>
<trkpt lat="46.30900341086089611053466796875" lon="7.46610724367201328277587890625"><ele></ele><time>2020-9-19T11:21:57Z</time></trkpt>
<trkpt lat="46.30902101285755634307861328125" lon="7.46610204689204692840576171875"><ele></ele><time>2020-9-19T11:22:0Z</time></trkpt>
<trkpt lat="46.30903878249228000640869140625" lon="7.46609869413077831268310546875"><ele></ele><time>2020-9-19T11:22:3Z</time></trkpt>
<trkpt lat="46.3090563006699085235595703125" lon="7.46609819121658802032470703125"><ele></ele><time>2020-9-19T11:22:6Z</time></trkpt>
<trkpt lat="46.309072561562061309814453125" lon="7.46610187925398349761962890625"><ele></ele><time>2020-9-19T11:22:9Z</time></trkpt>
<trkpt lat="46.30908773280680179595947265625" lon="7.46611193753778934478759765625"><ele></ele><time>2020-9-19T11:22:12Z</time></trkpt>
<trkpt lat="46.3091005571186542510986328125" lon="7.46612668968737125396728515625"><ele></ele><time>2020-9-19T11:22:15Z</time></trkpt>
<trkpt lat="46.30911153741180896759033203125" lon="7.46614596806466579437255859375"><ele></ele><time>2020-9-19T11:22:18Z</time></trkpt>
<trkpt lat="46.30912159569561481475830078125" lon="7.46616826392710208892822265625"><ele></ele><time>2020-9-19T11:22:21Z</time></trkpt>
<trkpt lat="46.30913115106523036956787109375" lon="7.46619005687534809112548828125"><ele></ele><time>2020-9-19T11:22:24Z</time></trkpt>
<trkpt lat="46.3091387785971164703369140625" lon="7.466212771832942962646484375"><ele></ele><time>2020-9-19T11:22:27Z</time></trkpt>
<trkpt lat="46.30914607085287570953369140625" lon="7.46623565442860126495361328125"><ele></ele><time>2020-9-19T11:22:30Z</time></trkpt>
<trkpt lat="46.30915445275604724884033203125" lon="7.46625945903360843658447265625"><ele></ele><time>2020-9-19T11:22:33Z</time></trkpt>
<trkpt lat="46.3091619126498699188232421875" lon="7.4662826769053936004638671875"><ele></ele><time>2020-9-19T11:22:36Z</time></trkpt>
<trkpt lat="46.3091679476201534271240234375" lon="7.46630656532943248748779296875"><ele></ele><time>2020-9-19T11:22:39Z</time></trkpt>
<trkpt lat="46.309173814952373504638671875" lon="7.46633137576282024383544921875"><ele></ele><time>2020-9-19T11:22:42Z</time></trkpt>
<trkpt lat="46.30918077193200588226318359375" lon="7.4663557671010494232177734375"><ele></ele><time>2020-9-19T11:22:45Z</time></trkpt>
<trkpt lat="46.30918848328292369842529296875" lon="7.46637848205864429473876953125"><ele></ele><time>2020-9-19T11:22:48Z</time></trkpt>
<trkpt lat="46.30919736810028553009033203125" lon="7.4664006941020488739013671875"><ele></ele><time>2020-9-19T11:22:51Z</time></trkpt>
<trkpt lat="46.30920608527958393096923828125" lon="7.46642257086932659149169921875"><ele></ele><time>2020-9-19T11:22:54Z</time></trkpt>
<trkpt lat="46.30921379663050174713134765625" lon="7.4664451181888580322265625"><ele></ele><time>2020-9-19T11:22:57Z</time></trkpt>
<trkpt lat="46.30922150798141956329345703125" lon="7.46646917425096035003662109375"><ele></ele><time>2020-9-19T11:23:0Z</time></trkpt>
<trkpt lat="46.309231482446193695068359375" lon="7.466492392122745513916015625"><ele></ele><time>2020-9-19T11:23:3Z</time></trkpt>
<trkpt lat="46.30924212746322154998779296875" lon="7.466515190899372100830078125"><ele></ele><time>2020-9-19T11:23:6Z</time></trkpt>
<trkpt lat="46.309252940118312835693359375" lon="7.46653740294277667999267578125"><ele></ele><time>2020-9-19T11:23:9Z</time></trkpt>
<trkpt lat="46.30926341749727725982666015625" lon="7.4665596149861812591552734375"><ele></ele><time>2020-9-19T11:23:12Z</time></trkpt>
<trkpt lat="46.3092728890478610992431640625" lon="7.466582916676998138427734375"><ele></ele><time>2020-9-19T11:23:15Z</time></trkpt>
<trkpt lat="46.3092822767794132232666015625" lon="7.46660814620554447174072265625"><ele></ele><time>2020-9-19T11:23:18Z</time></trkpt>
<trkpt lat="46.30929124541580677032470703125" lon="7.46663245372474193572998046875"><ele></ele><time>2020-9-19T11:23:21Z</time></trkpt>
<trkpt lat="46.309301555156707763671875" lon="7.46665676124393939971923828125"><ele></ele><time>2020-9-19T11:23:24Z</time></trkpt>
<trkpt lat="46.309312283992767333984375" lon="7.46668048202991485595703125"><ele></ele><time>2020-9-19T11:23:27Z</time></trkpt>
<trkpt lat="46.30932234227657318115234375" lon="7.46670336462557315826416015625"><ele></ele><time>2020-9-19T11:23:30Z</time></trkpt>
<trkpt lat="46.3093332387506961822509765625" lon="7.4667249061167240142822265625"><ele></ele><time>2020-9-19T11:23:33Z</time></trkpt>
<trkpt lat="46.3093446381390094757080078125" lon="7.46674560941755771636962890625"><ele></ele><time>2020-9-19T11:23:36Z</time></trkpt>
<trkpt lat="46.30935679189860820770263671875" lon="7.46676488779485225677490234375"><ele></ele><time>2020-9-19T11:23:39Z</time></trkpt>
<trkpt lat="46.3093687780201435089111328125" lon="7.46678332798182964324951171875"><ele></ele><time>2020-9-19T11:23:42Z</time></trkpt>
<trkpt lat="46.30938042886555194854736328125" lon="7.46680361218750476837158203125"><ele></ele><time>2020-9-19T11:23:45Z</time></trkpt>
<trkpt lat="46.30939166061580181121826171875" lon="7.46682339347898960113525390625"><ele></ele><time>2020-9-19T11:23:48Z</time></trkpt>
<trkpt lat="46.30940322764217853546142578125" lon="7.46684401296079158782958984375"><ele></ele><time>2020-9-19T11:23:51Z</time></trkpt>
<trkpt lat="46.30941160954535007476806640625" lon="7.46686681173741817474365234375"><ele></ele><time>2020-9-19T11:23:54Z</time></trkpt>
<trkpt lat="46.3094177283346652984619140625" lon="7.4668912030756473541259765625"><ele></ele><time>2020-9-19T11:23:57Z</time></trkpt>
<trkpt lat="46.3094289600849151611328125" lon="7.46694593690335750579833984375"><ele></ele><time>2020-9-19T11:24:0Z</time></trkpt>
<trkpt lat="46.30943239666521549224853515625" lon="7.46696990914642810821533203125"><ele></ele><time>2020-9-19T11:24:3Z</time></trkpt>
<trkpt lat="46.30943273194134235382080078125" lon="7.46699186973273754119873046875"><ele></ele><time>2020-9-19T11:24:6Z</time></trkpt>
<trkpt lat="46.3094324804842472076416015625" lon="7.4670112319290637969970703125"><ele></ele><time>2020-9-19T11:24:9Z</time></trkpt>
<trkpt lat="46.30943792872130870819091796875" lon="7.467025481164455413818359375"><ele></ele><time>2020-9-19T11:24:12Z</time></trkpt>
<trkpt lat="46.30944748409092426300048828125" lon="7.4670380540192127227783203125"><ele></ele><time>2020-9-19T11:24:15Z</time></trkpt>
<trkpt lat="46.30945703946053981781005859375" lon="7.46705171652138233184814453125"><ele></ele><time>2020-9-19T11:24:18Z</time></trkpt>
<trkpt lat="46.30947682075202465057373046875" lon="7.46709178201854228973388671875"><ele></ele><time>2020-9-19T11:24:21Z</time></trkpt>
<trkpt lat="46.30948972888290882110595703125" lon="7.4671181850135326385498046875"><ele></ele><time>2020-9-19T11:24:24Z</time></trkpt>
<trkpt lat="46.309500038623809814453125" lon="7.4671490304172039031982421875"><ele></ele><time>2020-9-19T11:24:27Z</time></trkpt>
<trkpt lat="46.3095085881650447845458984375" lon="7.46718130074441432952880859375"><ele></ele><time>2020-9-19T11:24:30Z</time></trkpt>
<trkpt lat="46.30951755680143833160400390625" lon="7.46721063740551471710205078125"><ele></ele><time>2020-9-19T11:24:33Z</time></trkpt>
<trkpt lat="46.30953046493232250213623046875" lon="7.46723427437245845794677734375"><ele></ele><time>2020-9-19T11:24:36Z</time></trkpt>
<trkpt lat="46.30954236723482608795166015625" lon="7.467250786721706390380859375"><ele></ele><time>2020-9-19T11:24:39Z</time></trkpt>
<trkpt lat="46.30955561064183712005615234375" lon="7.46726327575743198394775390625"><ele></ele><time>2020-9-19T11:24:42Z</time></trkpt>
<trkpt lat="46.309568770229816436767578125" lon="7.4672698974609375"><ele></ele><time>2020-9-19T11:24:45Z</time></trkpt>
<trkpt lat="46.30958092398941516876220703125" lon="7.467276938259601593017578125"><ele></ele><time>2020-9-19T11:24:48Z</time></trkpt>
<trkpt lat="46.30959324538707733154296875" lon="7.46728054247796535491943359375"><ele></ele><time>2020-9-19T11:24:51Z</time></trkpt>
<trkpt lat="46.309602968394756317138671875" lon="7.46727970428764820098876953125"><ele></ele><time>2020-9-19T11:24:54Z</time></trkpt>
<trkpt lat="46.30961277522146701812744140625" lon="7.46727953664958477020263671875"><ele></ele><time>2020-9-19T11:24:57Z</time></trkpt>
<trkpt lat="46.30962140858173370361328125" lon="7.467279620468616485595703125"><ele></ele><time>2020-9-19T11:25:0Z</time></trkpt>
<trkpt lat="46.309634484350681304931640625" lon="7.4672804586589336395263671875"><ele></ele><time>2020-9-19T11:25:3Z</time></trkpt>
<trkpt lat="46.30964512936770915985107421875" lon="7.46728104539215564727783203125"><ele></ele><time>2020-9-19T11:25:6Z</time></trkpt>
<trkpt lat="46.3096594624221324920654296875" lon="7.46728305704891681671142578125"><ele></ele><time>2020-9-19T11:25:9Z</time></trkpt>
<trkpt lat="46.30967010743916034698486328125" lon="7.46729336678981781005859375"><ele></ele><time>2020-9-19T11:25:12Z</time></trkpt>
<trkpt lat="46.3096832670271396636962890625" lon="7.4673045985400676727294921875"><ele></ele><time>2020-9-19T11:25:15Z</time></trkpt>
<trkpt lat="46.30969877354800701141357421875" lon="7.46732278726994991302490234375"><ele></ele><time>2020-9-19T11:25:18Z</time></trkpt>
<trkpt lat="46.3097134418785572052001953125" lon="7.46733938343822956085205078125"><ele></ele><time>2020-9-19T11:25:21Z</time></trkpt>
<trkpt lat="46.30972526036202907562255859375" lon="7.46736176311969757080078125"><ele></ele><time>2020-9-19T11:25:24Z</time></trkpt>
<trkpt lat="46.30973808467388153076171875" lon="7.46738648973405361175537109375"><ele></ele><time>2020-9-19T11:25:27Z</time></trkpt>
<trkpt lat="46.30975392647087574005126953125" lon="7.46740979142487049102783203125"><ele></ele><time>2020-9-19T11:25:30Z</time></trkpt>
<trkpt lat="46.3097669184207916259765625" lon="7.4674259684979915618896484375"><ele></ele><time>2020-9-19T11:25:33Z</time></trkpt>
<trkpt lat="46.30978234112262725830078125" lon="7.4674434028565883636474609375"><ele></ele><time>2020-9-19T11:25:36Z</time></trkpt>
<trkpt lat="46.3097996078431606292724609375" lon="7.46746326796710491180419921875"><ele></ele><time>2020-9-19T11:25:39Z</time></trkpt>
<trkpt lat="46.30981679074466228485107421875" lon="7.46748405508697032928466796875"><ele></ele><time>2020-9-19T11:25:42Z</time></trkpt>
<trkpt lat="46.30983355455100536346435546875" lon="7.4675074405968189239501953125"><ele></ele><time>2020-9-19T11:25:45Z</time></trkpt>
<trkpt lat="46.30985048599541187286376953125" lon="7.46753099374473094940185546875"><ele></ele><time>2020-9-19T11:25:48Z</time></trkpt>
<trkpt lat="46.309865154325962066650390625" lon="7.467556893825531005859375"><ele></ele><time>2020-9-19T11:25:51Z</time></trkpt>
<trkpt lat="46.3098817504942417144775390625" lon="7.4675838835537433624267578125"><ele></ele><time>2020-9-19T11:25:54Z</time></trkpt>
<trkpt lat="46.3098965026438236236572265625" lon="7.46760995127260684967041015625"><ele></ele><time>2020-9-19T11:25:57Z</time></trkpt>
<trkpt lat="46.3099119253456592559814453125" lon="7.46763803064823150634765625"><ele></ele><time>2020-9-19T11:26:0Z</time></trkpt>
<trkpt lat="46.30992927588522434234619140625" lon="7.4676630087196826934814453125"><ele></ele><time>2020-9-19T11:26:3Z</time></trkpt>
<trkpt lat="46.309946291148662567138671875" lon="7.46768941171467304229736328125"><ele></ele><time>2020-9-19T11:26:6Z</time></trkpt>
<trkpt lat="46.3099598698318004608154296875" lon="7.46771405450999736785888671875"><ele></ele><time>2020-9-19T11:26:9Z</time></trkpt>
<trkpt lat="46.309972107410430908203125" lon="7.467737607657909393310546875"><ele></ele><time>2020-9-19T11:26:12Z</time></trkpt>
<trkpt lat="46.3099860213696956634521484375" lon="7.467756383121013641357421875"><ele></ele><time>2020-9-19T11:26:15Z</time></trkpt>
<trkpt lat="46.30999834276735782623291015625" lon="7.46777943335473537445068359375"><ele></ele><time>2020-9-19T11:26:18Z</time></trkpt>
<trkpt lat="46.3100071437656879425048828125" lon="7.46780709363520145416259765625"><ele></ele><time>2020-9-19T11:26:21Z</time></trkpt>
<trkpt lat="46.31001644767820835113525390625" lon="7.46783441863954067230224609375"><ele></ele><time>2020-9-19T11:26:24Z</time></trkpt>
<trkpt lat="46.31002767942845821380615234375" lon="7.46786199510097503662109375"><ele></ele><time>2020-9-19T11:26:27Z</time></trkpt>
<trkpt lat="46.31003849208354949951171875" lon="7.4678886495530605316162109375"><ele></ele><time>2020-9-19T11:26:30Z</time></trkpt>
<trkpt lat="46.3100483827292919158935546875" lon="7.46791404671967029571533203125"><ele></ele><time>2020-9-19T11:26:33Z</time></trkpt>
<trkpt lat="46.310056261718273162841796875" lon="7.467937432229518890380859375"><ele></ele><time>2020-9-19T11:26:36Z</time></trkpt>
<trkpt lat="46.310064978897571563720703125" lon="7.4679550342261791229248046875"><ele></ele><time>2020-9-19T11:26:39Z</time></trkpt>
<trkpt lat="46.31007210351526737213134765625" lon="7.46797590516507625579833984375"><ele></ele><time>2020-9-19T11:26:42Z</time></trkpt>
<trkpt lat="46.31008015014231204986572265625" lon="7.46799409389495849609375"><ele></ele><time>2020-9-19T11:26:45Z</time></trkpt>
<trkpt lat="46.3100892864167690277099609375" lon="7.4680137075483798980712890625"><ele></ele><time>2020-9-19T11:26:48Z</time></trkpt>
<trkpt lat="46.31010076962411403656005859375" lon="7.46803642250597476959228515625"><ele></ele><time>2020-9-19T11:26:51Z</time></trkpt>
<trkpt lat="46.31011426448822021484375" lon="7.468056790530681610107421875"><ele></ele><time>2020-9-19T11:26:54Z</time></trkpt>
<trkpt lat="46.31012373603880405426025390625" lon="7.4680727161467075347900390625"><ele></ele><time>2020-9-19T11:26:57Z</time></trkpt>
<trkpt lat="46.31013144738972187042236328125" lon="7.46809358708560466766357421875"><ele></ele><time>2020-9-19T11:27:0Z</time></trkpt>
<trkpt lat="46.310138739645481109619140625" lon="7.4681107699871063232421875"><ele></ele><time>2020-9-19T11:27:3Z</time></trkpt>
<trkpt lat="46.3101479597389698028564453125" lon="7.46813289821147918701171875"><ele></ele><time>2020-9-19T11:27:6Z</time></trkpt>
<trkpt lat="46.31015650928020477294921875" lon="7.46815494261682033538818359375"><ele></ele><time>2020-9-19T11:27:9Z</time></trkpt>
<trkpt lat="46.310168243944644927978515625" lon="7.468176148831844329833984375"><ele></ele><time>2020-9-19T11:27:12Z</time></trkpt>
<trkpt lat="46.31017972715198993682861328125" lon="7.46819215826690196990966796875"><ele></ele><time>2020-9-19T11:27:15Z</time></trkpt>
<trkpt lat="46.31018844433128833770751953125" lon="7.46820590458810329437255859375"><ele></ele><time>2020-9-19T11:27:18Z</time></trkpt>
<trkpt lat="46.31019732914865016937255859375" lon="7.468221746385097503662109375"><ele></ele><time>2020-9-19T11:27:21Z</time></trkpt>
<trkpt lat="46.31020520813763141632080078125" lon="7.46823356486856937408447265625"><ele></ele><time>2020-9-19T11:27:24Z</time></trkpt>
<trkpt lat="46.3102146796882152557373046875" lon="7.4682440422475337982177734375"><ele></ele><time>2020-9-19T11:27:27Z</time></trkpt>
<trkpt lat="46.310224235057830810546875" lon="7.468257956206798553466796875"><ele></ele><time>2020-9-19T11:27:30Z</time></trkpt>
<trkpt lat="46.31023370660841464996337890625" lon="7.46827530674636363983154296875"><ele></ele><time>2020-9-19T11:27:33Z</time></trkpt>
<trkpt lat="46.31024426780641078948974609375" lon="7.4682966805994510650634765625"><ele></ele><time>2020-9-19T11:27:36Z</time></trkpt>
<trkpt lat="46.3102565892040729522705078125" lon="7.4683178029954433441162109375"><ele></ele><time>2020-9-19T11:27:39Z</time></trkpt>
<trkpt lat="46.31026647984981536865234375" lon="7.46833808720111846923828125"><ele></ele><time>2020-9-19T11:27:42Z</time></trkpt>
<trkpt lat="46.31027645431458950042724609375" lon="7.468357868492603302001953125"><ele></ele><time>2020-9-19T11:27:45Z</time></trkpt>
<trkpt lat="46.310282908380031585693359375" lon="7.46837052516639232635498046875"><ele></ele><time>2020-9-19T11:27:48Z</time></trkpt>
<trkpt lat="46.31029003299772739410400390625" lon="7.46839365921914577484130859375"><ele></ele><time>2020-9-19T11:27:51Z</time></trkpt>
<trkpt lat="46.3102944754064083099365234375" lon="7.468417547643184661865234375"><ele></ele><time>2020-9-19T11:27:54Z</time></trkpt>
<trkpt lat="46.31029908545315265655517578125" lon="7.4684406816959381103515625"><ele></ele><time>2020-9-19T11:27:57Z</time></trkpt>
<trkpt lat="46.31030411459505558013916015625" lon="7.46846289373934268951416015625"><ele></ele><time>2020-9-19T11:28:0Z</time></trkpt>
<trkpt lat="46.3103087246417999267578125" lon="7.46848426759243011474609375"><ele></ele><time>2020-9-19T11:28:3Z</time></trkpt>
<trkpt lat="46.31031073629856109619140625" lon="7.4685072340071201324462890625"><ele></ele><time>2020-9-19T11:28:6Z</time></trkpt>
<trkpt lat="46.31031333468854427337646484375" lon="7.4685283564031124114990234375"><ele></ele><time>2020-9-19T11:28:9Z</time></trkpt>
<trkpt lat="46.3103182800114154815673828125" lon="7.4685466289520263671875"><ele></ele><time>2020-9-19T11:28:12Z</time></trkpt>
<trkpt lat="46.3103276677429676055908203125" lon="7.46855794452130794525146484375"><ele></ele><time>2020-9-19T11:28:15Z</time></trkpt>
<trkpt lat="46.3103380613029003143310546875" lon="7.46855610050261020660400390625"><ele></ele><time>2020-9-19T11:28:18Z</time></trkpt>
<trkpt lat="46.3103437609970569610595703125" lon="7.46854704804718494415283203125"><ele></ele><time>2020-9-19T11:28:21Z</time></trkpt>
<trkpt lat="46.31034694612026214599609375" lon="7.46853112243115901947021484375"><ele></ele><time>2020-9-19T11:28:24Z</time></trkpt>
<trkpt lat="46.31035071797668933868408203125" lon="7.46851435862481594085693359375"><ele></ele><time>2020-9-19T11:28:27Z</time></trkpt>
<trkpt lat="46.31035289727151393890380859375" lon="7.46849910356104373931884765625"><ele></ele><time>2020-9-19T11:28:30Z</time></trkpt>
<trkpt lat="46.31035524420440196990966796875" lon="7.468479909002780914306640625"><ele></ele><time>2020-9-19T11:28:33Z</time></trkpt>
<trkpt lat="46.310361362993717193603515625" lon="7.4684616364538669586181640625"><ele></ele><time>2020-9-19T11:28:36Z</time></trkpt>
<trkpt lat="46.31036446429789066314697265625" lon="7.46844328008592128753662109375"><ele></ele><time>2020-9-19T11:28:39Z</time></trkpt>
<trkpt lat="46.31036597304046154022216796875" lon="7.46842123568058013916015625"><ele></ele><time>2020-9-19T11:28:42Z</time></trkpt>
<trkpt lat="46.3103663921356201171875" lon="7.468393743038177490234375"><ele></ele><time>2020-9-19T11:28:45Z</time></trkpt>
<trkpt lat="46.310366056859493255615234375" lon="7.46836348436772823333740234375"><ele></ele><time>2020-9-19T11:28:48Z</time></trkpt>
<trkpt lat="46.31036496721208095550537109375" lon="7.468334399163722991943359375"><ele></ele><time>2020-9-19T11:28:51Z</time></trkpt>
<trkpt lat="46.31036245264112949371337890625" lon="7.4683064036071300506591796875"><ele></ele><time>2020-9-19T11:28:54Z</time></trkpt>
<trkpt lat="46.31036194972693920135498046875" lon="7.4682785756886005401611328125"><ele></ele><time>2020-9-19T11:28:57Z</time></trkpt>
<trkpt lat="46.310362033545970916748046875" lon="7.46825099922716617584228515625"><ele></ele><time>2020-9-19T11:29:0Z</time></trkpt>
<trkpt lat="46.31036295555531978607177734375" lon="7.46822400949895381927490234375"><ele></ele><time>2020-9-19T11:29:3Z</time></trkpt>
<trkpt lat="46.31036580540239810943603515625" lon="7.46819685213267803192138671875"><ele></ele><time>2020-9-19T11:29:6Z</time></trkpt>
<trkpt lat="46.3103689067065715789794921875" lon="7.4681692756712436676025390625"><ele></ele><time>2020-9-19T11:29:9Z</time></trkpt>
<trkpt lat="46.31036815233528614044189453125" lon="7.46814153157174587249755859375"><ele></ele><time>2020-9-19T11:29:12Z</time></trkpt>
<trkpt lat="46.31036681123077869415283203125" lon="7.46811353601515293121337890625"><ele></ele><time>2020-9-19T11:29:15Z</time></trkpt>
<trkpt lat="46.310365386307239532470703125" lon="7.46808688156306743621826171875"><ele></ele><time>2020-9-19T11:29:18Z</time></trkpt>
<trkpt lat="46.31036396138370037078857421875" lon="7.46805720962584018707275390625"><ele></ele><time>2020-9-19T11:29:21Z</time></trkpt>
<trkpt lat="46.3103682361543178558349609375" lon="7.4680294655263423919677734375"><ele></ele><time>2020-9-19T11:29:24Z</time></trkpt>
<trkpt lat="46.31036982871592044830322265625" lon="7.46799970977008342742919921875"><ele></ele><time>2020-9-19T11:29:27Z</time></trkpt>
<trkpt lat="46.31037267856299877166748046875" lon="7.4679712951183319091796875"><ele></ele><time>2020-9-19T11:29:30Z</time></trkpt>
<trkpt lat="46.3103762827813625335693359375" lon="7.4679443053901195526123046875"><ele></ele><time>2020-9-19T11:29:33Z</time></trkpt>
<trkpt lat="46.31038089282810688018798828125" lon="7.4679174832999706268310546875"><ele></ele><time>2020-9-19T11:29:36Z</time></trkpt>
<trkpt lat="46.3103853352367877960205078125" lon="7.46788990683853626251220703125"><ele></ele><time>2020-9-19T11:29:39Z</time></trkpt>
<trkpt lat="46.31038986146450042724609375" lon="7.46786124072968959808349609375"><ele></ele><time>2020-9-19T11:29:42Z</time></trkpt>
<trkpt lat="46.3103947229683399200439453125" lon="7.46783391572535037994384765625"><ele></ele><time>2020-9-19T11:29:45Z</time></trkpt>
<trkpt lat="46.310400925576686859130859375" lon="7.46780826710164546966552734375"><ele></ele><time>2020-9-19T11:29:48Z</time></trkpt>
<trkpt lat="46.3104071281850337982177734375" lon="7.46778362430632114410400390625"><ele></ele><time>2020-9-19T11:29:51Z</time></trkpt>
<trkpt lat="46.31041307933628559112548828125" lon="7.46776007115840911865234375"><ele></ele><time>2020-9-19T11:29:54Z</time></trkpt>
<trkpt lat="46.31041861139237880706787109375" lon="7.467736266553401947021484375"><ele></ele><time>2020-9-19T11:29:57Z</time></trkpt>
<trkpt lat="46.31042632274329662322998046875" lon="7.467712126672267913818359375"><ele></ele><time>2020-9-19T11:30:0Z</time></trkpt>
<trkpt lat="46.31043688394129276275634765625" lon="7.46768689714372158050537109375"><ele></ele><time>2020-9-19T11:30:3Z</time></trkpt>
<trkpt lat="46.3104483671486377716064453125" lon="7.4676606617867946624755859375"><ele></ele><time>2020-9-19T11:30:6Z</time></trkpt>
<trkpt lat="46.31046169437468051910400390625" lon="7.46763543225824832916259765625"><ele></ele><time>2020-9-19T11:30:9Z</time></trkpt>
<trkpt lat="46.310474015772342681884765625" lon="7.46761196292936801910400390625"><ele></ele><time>2020-9-19T11:30:12Z</time></trkpt>
<trkpt lat="46.31048667244613170623779296875" lon="7.46759109199047088623046875"><ele></ele><time>2020-9-19T11:30:15Z</time></trkpt>
<trkpt lat="46.31049790419638156890869140625" lon="7.4675687961280345916748046875"><ele></ele><time>2020-9-19T11:30:18Z</time></trkpt>
<trkpt lat="46.310509555041790008544921875" lon="7.467545829713344573974609375"><ele></ele><time>2020-9-19T11:30:21Z</time></trkpt>
<trkpt lat="46.31052154116332530975341796875" lon="7.46752244420349597930908203125"><ele></ele><time>2020-9-19T11:30:24Z</time></trkpt>
<trkpt lat="46.310534365475177764892578125" lon="7.46749780140817165374755859375"><ele></ele><time>2020-9-19T11:30:27Z</time></trkpt>
<trkpt lat="46.31054677069187164306640625" lon="7.46747232042253017425537109375"><ele></ele><time>2020-9-19T11:30:30Z</time></trkpt>
<trkpt lat="46.310556493699550628662109375" lon="7.467445917427539825439453125"><ele></ele><time>2020-9-19T11:30:33Z</time></trkpt>
<trkpt lat="46.31056562997400760650634765625" lon="7.46742152608931064605712890625"><ele></ele><time>2020-9-19T11:30:36Z</time></trkpt>
<trkpt lat="46.310574598610401153564453125" lon="7.46739855967462062835693359375"><ele></ele><time>2020-9-19T11:30:39Z</time></trkpt>
<trkpt lat="46.31058029830455780029296875" lon="7.46737374924123287200927734375"><ele></ele><time>2020-9-19T11:30:42Z</time></trkpt>
<trkpt lat="46.31058624945580959320068359375" lon="7.4673485197126865386962890625"><ele></ele><time>2020-9-19T11:30:45Z</time></trkpt>
<trkpt lat="46.31059169769287109375" lon="7.46732094325125217437744140625"><ele></ele><time>2020-9-19T11:30:48Z</time></trkpt>
<trkpt lat="46.310595385730266571044921875" lon="7.46729060076177120208740234375"><ele></ele><time>2020-9-19T11:30:51Z</time></trkpt>
<trkpt lat="46.31059949286282062530517578125" lon="7.46726193465292453765869140625"><ele></ele><time>2020-9-19T11:30:54Z</time></trkpt>
<trkpt lat="46.31060284562408924102783203125" lon="7.46723226271569728851318359375"><ele></ele><time>2020-9-19T11:30:57Z</time></trkpt>
<trkpt lat="46.31060653366148471832275390625" lon="7.4672026745975017547607421875"><ele></ele><time>2020-9-19T11:31:0Z</time></trkpt>
<trkpt lat="46.31060871295630931854248046875" lon="7.4671701528131961822509765625"><ele></ele><time>2020-9-19T11:31:3Z</time></trkpt>
<trkpt lat="46.31060980260372161865234375" lon="7.46713520027697086334228515625"><ele></ele><time>2020-9-19T11:31:6Z</time></trkpt>
<trkpt lat="46.310610137879848480224609375" lon="7.46710133738815784454345703125"><ele></ele><time>2020-9-19T11:31:9Z</time></trkpt>
<trkpt lat="46.31061189807951450347900390625" lon="7.46706848032772541046142578125"><ele></ele><time>2020-9-19T11:31:12Z</time></trkpt>
<trkpt lat="46.310612820088863372802734375" lon="7.46703411452472209930419921875"><ele></ele><time>2020-9-19T11:31:15Z</time></trkpt>
<trkpt lat="46.31061273626983165740966796875" lon="7.467000670731067657470703125"><ele></ele><time>2020-9-19T11:31:18Z</time></trkpt>
<trkpt lat="46.31061240099370479583740234375" lon="7.4669669754803180694580078125"><ele></ele><time>2020-9-19T11:31:21Z</time></trkpt>
<trkpt lat="46.31061005406081676483154296875" lon="7.46693353168666362762451171875"><ele></ele><time>2020-9-19T11:31:24Z</time></trkpt>
<trkpt lat="46.3106086291372776031494140625" lon="7.46690168045461177825927734375"><ele></ele><time>2020-9-19T11:31:27Z</time></trkpt>
<trkpt lat="46.31060703657567501068115234375" lon="7.46686966158449649810791015625"><ele></ele><time>2020-9-19T11:31:30Z</time></trkpt>
<trkpt lat="46.31060603074729442596435546875" lon="7.4668382294476032257080078125"><ele></ele><time>2020-9-19T11:31:33Z</time></trkpt>
<trkpt lat="46.31060385145246982574462890625" lon="7.4668045341968536376953125"><ele></ele><time>2020-9-19T11:31:36Z</time></trkpt>
<trkpt lat="46.3106029294431209564208984375" lon="7.46677058748900890350341796875"><ele></ele><time>2020-9-19T11:31:39Z</time></trkpt>
<trkpt lat="46.3106012530624866485595703125" lon="7.46673689223825931549072265625"><ele></ele><time>2020-9-19T11:31:42Z</time></trkpt>
<trkpt lat="46.31059932522475719451904296875" lon="7.4667047895491123199462890625"><ele></ele><time>2020-9-19T11:31:45Z</time></trkpt>
<trkpt lat="46.31059815175831317901611328125" lon="7.466672100126743316650390625"><ele></ele><time>2020-9-19T11:31:48Z</time></trkpt>
<trkpt lat="46.3105930387973785400390625" lon="7.46657319366931915283203125"><ele></ele><time>2020-9-19T11:31:51Z</time></trkpt>
<trkpt lat="46.310590021312236785888671875" lon="7.4665411747992038726806640625"><ele></ele><time>2020-9-19T11:31:54Z</time></trkpt>
<trkpt lat="46.31058566272258758544921875" lon="7.4665096588432788848876953125"><ele></ele><time>2020-9-19T11:31:57Z</time></trkpt>
<trkpt lat="46.31058289669454097747802734375" lon="7.4664754606783390045166015625"><ele></ele><time>2020-9-19T11:32:0Z</time></trkpt>
<trkpt lat="46.31058054976165294647216796875" lon="7.46644319035112857818603515625"><ele></ele><time>2020-9-19T11:32:3Z</time></trkpt>
<trkpt lat="46.3105787895619869232177734375" lon="7.4664110876619815826416015625"><ele></ele><time>2020-9-19T11:32:6Z</time></trkpt>
<trkpt lat="46.310577280819416046142578125" lon="7.466376386582851409912109375"><ele></ele><time>2020-9-19T11:32:9Z</time></trkpt>
<trkpt lat="46.31057887338101863861083984375" lon="7.4663433618843555450439453125"><ele></ele><time>2020-9-19T11:32:12Z</time></trkpt>
<trkpt lat="46.3105784542858600616455078125" lon="7.4662726186215877532958984375"><ele></ele><time>2020-9-19T11:32:15Z</time></trkpt>
<trkpt lat="46.31058088503777980804443359375" lon="7.46623733080923557281494140625"><ele></ele><time>2020-9-19T11:32:18Z</time></trkpt>
<trkpt lat="46.31058323197066783905029296875" lon="7.46620162390172481536865234375"><ele></ele><time>2020-9-19T11:32:21Z</time></trkpt>
<trkpt lat="46.3105871714651584625244140625" lon="7.46616658754646778106689453125"><ele></ele><time>2020-9-19T11:32:24Z</time></trkpt>
<trkpt lat="46.310592703521251678466796875" lon="7.46613222174346446990966796875"><ele></ele><time>2020-9-19T11:32:27Z</time></trkpt>
<trkpt lat="46.31060217507183551788330078125" lon="7.4660972692072391510009765625"><ele></ele><time>2020-9-19T11:32:30Z</time></trkpt>
<trkpt lat="46.31061055697500705718994140625" lon="7.46606089174747467041015625"><ele></ele><time>2020-9-19T11:32:33Z</time></trkpt>
<trkpt lat="46.3106198608875274658203125" lon="7.46602602303028106689453125"><ele></ele><time>2020-9-19T11:32:36Z</time></trkpt>
<trkpt lat="46.31063302047550678253173828125" lon="7.46599241159856319427490234375"><ele></ele><time>2020-9-19T11:32:39Z</time></trkpt>
<trkpt lat="46.3106491975486278533935546875" lon="7.4659611470997333526611328125"><ele></ele><time>2020-9-19T11:32:42Z</time></trkpt>
<trkpt lat="46.310667805373668670654296875" lon="7.46592954732477664947509765625"><ele></ele><time>2020-9-19T11:32:45Z</time></trkpt>
<trkpt lat="46.3106857426464557647705078125" lon="7.46589870192110538482666015625"><ele></ele><time>2020-9-19T11:32:48Z</time></trkpt>
<trkpt lat="46.31070527248084545135498046875" lon="7.4658689461648464202880859375"><ele></ele><time>2020-9-19T11:32:51Z</time></trkpt>
<trkpt lat="46.3107271492481231689453125" lon="7.46584103442728519439697265625"><ele></ele><time>2020-9-19T11:32:54Z</time></trkpt>
<trkpt lat="46.31075087003409862518310546875" lon="7.46581337414681911468505859375"><ele></ele><time>2020-9-19T11:32:57Z</time></trkpt>
<trkpt lat="46.31080702878534793853759765625" lon="7.4657589755952358245849609375"><ele></ele><time>2020-9-19T11:33:0Z</time></trkpt>
<trkpt lat="46.3108384609222412109375" lon="7.46573441661894321441650390625"><ele></ele><time>2020-9-19T11:33:3Z</time></trkpt>
<trkpt lat="46.3108704797923564910888671875" lon="7.46571195311844348907470703125"><ele></ele><time>2020-9-19T11:33:6Z</time></trkpt>
<trkpt lat="46.3109700568020343780517578125" lon="7.46564221568405628204345703125"><ele></ele><time>2020-9-19T11:33:9Z</time></trkpt>
<trkpt lat="46.3110025785863399505615234375" lon="7.46562008745968341827392578125"><ele></ele><time>2020-9-19T11:33:12Z</time></trkpt>
<trkpt lat="46.311071477830410003662109375" lon="7.46557516045868396759033203125"><ele></ele><time>2020-9-19T11:33:15Z</time></trkpt>
<trkpt lat="46.31114582531154155731201171875" lon="7.4655403755605220794677734375"><ele></ele><time>2020-9-19T11:33:18Z</time></trkpt>
<trkpt lat="46.31118522025644779205322265625" lon="7.46552352793514728546142578125"><ele></ele><time>2020-9-19T11:33:21Z</time></trkpt>
<trkpt lat="46.3112228550016880035400390625" lon="7.4655078537762165069580078125"><ele></ele><time>2020-9-19T11:33:24Z</time></trkpt>
<trkpt lat="46.31125763989984989166259765625" lon="7.46549754403531551361083984375"><ele></ele><time>2020-9-19T11:33:27Z</time></trkpt>
<trkpt lat="46.311288736760616302490234375" lon="7.46549402363598346710205078125"><ele></ele><time>2020-9-19T11:33:30Z</time></trkpt>
<trkpt lat="46.31132058799266815185546875" lon="7.46549360454082489013671875"><ele></ele><time>2020-9-19T11:33:33Z</time></trkpt>
<trkpt lat="46.3113516010344028472900390625" lon="7.46549016796052455902099609375"><ele></ele><time>2020-9-19T11:33:36Z</time></trkpt>
<trkpt lat="46.3114461489021778106689453125" lon="7.4654840491712093353271484375"><ele></ele><time>2020-9-19T11:33:39Z</time></trkpt>
<trkpt lat="46.3114766590297222137451171875" lon="7.46548228897154331207275390625"><ele></ele><time>2020-9-19T11:33:42Z</time></trkpt>
<trkpt lat="46.3115085102617740631103515625" lon="7.4654833786189556121826171875"><ele></ele><time>2020-9-19T11:33:45Z</time></trkpt>
<trkpt lat="46.31153960712254047393798828125" lon="7.4654853902757167816162109375"><ele></ele><time>2020-9-19T11:33:48Z</time></trkpt>
<trkpt lat="46.31157045252621173858642578125" lon="7.46548899449408054351806640625"><ele></ele><time>2020-9-19T11:33:51Z</time></trkpt>
<trkpt lat="46.31160180084407329559326171875" lon="7.4654967896640300750732421875"><ele></ele><time>2020-9-19T11:33:54Z</time></trkpt>
<trkpt lat="46.31166516803205013275146484375" lon="7.46552101336419582366943359375"><ele></ele><time>2020-9-19T11:33:57Z</time></trkpt>
<trkpt lat="46.31169333122670650482177734375" lon="7.465538866817951202392578125"><ele></ele><time>2020-9-19T11:34:0Z</time></trkpt>
<trkpt lat="46.31172358989715576171875" lon="7.465556971728801727294921875"><ele></ele><time>2020-9-19T11:34:3Z</time></trkpt>
<trkpt lat="46.31175552494823932647705078125" lon="7.46557247824966907501220703125"><ele></ele><time>2020-9-19T11:34:6Z</time></trkpt>
<trkpt lat="46.311820484697818756103515625" lon="7.46559510938823223114013671875"><ele></ele><time>2020-9-19T11:34:9Z</time></trkpt>
<trkpt lat="46.31185292266309261322021484375" lon="7.46560449711978435516357421875"><ele></ele><time>2020-9-19T11:34:12Z</time></trkpt>
<trkpt lat="46.31188343279063701629638671875" lon="7.4656163156032562255859375"><ele></ele><time>2020-9-19T11:34:15Z</time></trkpt>
<trkpt lat="46.3119175471365451812744140625" lon="7.46562629006803035736083984375"><ele></ele><time>2020-9-19T11:34:18Z</time></trkpt>
<trkpt lat="46.31194545887410640716552734375" lon="7.46563844382762908935546875"><ele></ele><time>2020-9-19T11:34:21Z</time></trkpt>
<trkpt lat="46.31196876056492328643798828125" lon="7.46564514935016632080078125"><ele></ele><time>2020-9-19T11:34:24Z</time></trkpt>
<trkpt lat="46.31198619492352008819580078125" lon="7.46563844382762908935546875"><ele></ele><time>2020-9-19T11:34:27Z</time></trkpt>
<trkpt lat="46.3119960017502307891845703125" lon="7.4656184948980808258056640625"><ele></ele><time>2020-9-19T11:34:30Z</time></trkpt>
<trkpt lat="46.311994157731533050537109375" lon="7.46559661813080310821533203125"><ele></ele><time>2020-9-19T11:34:33Z</time></trkpt>
<trkpt lat="46.311967335641384124755859375" lon="7.4656047485768795013427734375"><ele></ele><time>2020-9-19T11:34:36Z</time></trkpt>
<trkpt lat="46.31196121685206890106201171875" lon="7.46562637388706207275390625"><ele></ele><time>2020-9-19T11:34:39Z</time></trkpt>
<trkpt lat="46.31195627152919769287109375" lon="7.46565562672913074493408203125"><ele></ele><time>2020-9-19T11:34:42Z</time></trkpt>
<trkpt lat="46.31195669062435626983642578125" lon="7.465690076351165771484375"><ele></ele><time>2020-9-19T11:34:45Z</time></trkpt>
<trkpt lat="46.3119574449956417083740234375" lon="7.465721257030963897705078125"><ele></ele><time>2020-9-19T11:34:48Z</time></trkpt>
<trkpt lat="46.31195669062435626983642578125" lon="7.4657539464533329010009765625"><ele></ele><time>2020-9-19T11:34:51Z</time></trkpt>
<trkpt lat="46.31195493042469024658203125" lon="7.46578596532344818115234375"><ele></ele><time>2020-9-19T11:34:54Z</time></trkpt>
<trkpt lat="46.3119530864059925079345703125" lon="7.46581689454615116119384765625"><ele></ele><time>2020-9-19T11:34:57Z</time></trkpt>
<trkpt lat="46.311954595148563385009765625" lon="7.4658515118062496185302734375"><ele></ele><time>2020-9-19T11:35:0Z</time></trkpt>
<trkpt lat="46.31195719353854656219482421875" lon="7.4658810161054134368896484375"><ele></ele><time>2020-9-19T11:35:3Z</time></trkpt>
<trkpt lat="46.3119591213762760162353515625" lon="7.4659125320613384246826171875"><ele></ele><time>2020-9-19T11:35:6Z</time></trkpt>
<trkpt lat="46.31195895373821258544921875" lon="7.46594932861626148223876953125"><ele></ele><time>2020-9-19T11:35:9Z</time></trkpt>
<trkpt lat="46.31195627152919769287109375" lon="7.465984113514423370361328125"><ele></ele><time>2020-9-19T11:35:12Z</time></trkpt>
<trkpt lat="46.3119483925402164459228515625" lon="7.46602526865899562835693359375"><ele></ele><time>2020-9-19T11:35:15Z</time></trkpt>
<trkpt lat="46.3119396753609180450439453125" lon="7.46606265194714069366455078125"><ele></ele><time>2020-9-19T11:35:18Z</time></trkpt>
<trkpt lat="46.3119356520473957061767578125" lon="7.46609031222760677337646484375"><ele></ele><time>2020-9-19T11:35:21Z</time></trkpt>
<trkpt lat="46.311929784715175628662109375" lon="7.4661126919090747833251953125"><ele></ele><time>2020-9-19T11:35:24Z</time></trkpt>
<trkpt lat="46.31192031316459178924560546875" lon="7.466136328876018524169921875"><ele></ele><time>2020-9-19T11:35:27Z</time></trkpt>
<trkpt lat="46.3119101710617542266845703125" lon="7.46616289950907230377197265625"><ele></ele><time>2020-9-19T11:35:30Z</time></trkpt>
<trkpt lat="46.31189986132085323333740234375" lon="7.46619005687534809112548828125"><ele></ele><time>2020-9-19T11:35:33Z</time></trkpt>
<trkpt lat="46.31188661791384220123291015625" lon="7.46622023172676563262939453125"><ele></ele><time>2020-9-19T11:35:36Z</time></trkpt>
<trkpt lat="46.3118756376206874847412109375" lon="7.46624873019754886627197265625"><ele></ele><time>2020-9-19T11:35:39Z</time></trkpt>
<trkpt lat="46.311866752803325653076171875" lon="7.46627387590706348419189453125"><ele></ele><time>2020-9-19T11:35:42Z</time></trkpt>
<trkpt lat="46.31185728125274181365966796875" lon="7.46629885397851467132568359375"><ele></ele><time>2020-9-19T11:35:45Z</time></trkpt>
<trkpt lat="46.31184739060699939727783203125" lon="7.46632299385964870452880859375"><ele></ele><time>2020-9-19T11:35:48Z</time></trkpt>
<trkpt lat="46.31183548830449581146240234375" lon="7.4663477204740047454833984375"><ele></ele><time>2020-9-19T11:35:51Z</time></trkpt>
<trkpt lat="46.3118260167539119720458984375" lon="7.46637077070772647857666015625"><ele></ele><time>2020-9-19T11:35:54Z</time></trkpt>
<trkpt lat="46.311814449727535247802734375" lon="7.4663862772285938262939453125"><ele></ele><time>2020-9-19T11:35:57Z</time></trkpt>
<trkpt lat="46.31180330179631710052490234375" lon="7.46639289893209934234619140625"><ele></ele><time>2020-9-19T11:36:0Z</time></trkpt>
<trkpt lat="46.31178737618029117584228515625" lon="7.466401867568492889404296875"><ele></ele><time>2020-9-19T11:36:3Z</time></trkpt>
<trkpt lat="46.31177119910717010498046875" lon="7.4664063937962055206298828125"><ele></ele><time>2020-9-19T11:36:6Z</time></trkpt>
<trkpt lat="46.3117582909762859344482421875" lon="7.46640287339687347412109375"><ele></ele><time>2020-9-19T11:36:9Z</time></trkpt>
<trkpt lat="46.31174529902637004852294921875" lon="7.4663941562175750732421875"><ele></ele><time>2020-9-19T11:36:12Z</time></trkpt>
<trkpt lat="46.3117334805428981781005859375" lon="7.46638217009603977203369140625"><ele></ele><time>2020-9-19T11:36:15Z</time></trkpt>
<trkpt lat="46.3117227517068386077880859375" lon="7.46636909432709217071533203125"><ele></ele><time>2020-9-19T11:36:18Z</time></trkpt>
<trkpt lat="46.31171445362269878387451171875" lon="7.46635333634912967681884765625"><ele></ele><time>2020-9-19T11:36:21Z</time></trkpt>
<trkpt lat="46.31170707754790782928466796875" lon="7.4663396738469600677490234375"><ele></ele><time>2020-9-19T11:36:24Z</time></trkpt>
<trkpt lat="46.31169802509248256683349609375" lon="7.46632684953510761260986328125"><ele></ele><time>2020-9-19T11:36:27Z</time></trkpt>
<trkpt lat="46.31168813444674015045166015625" lon="7.4663168750703334808349609375"><ele></ele><time>2020-9-19T11:36:30Z</time></trkpt>
<trkpt lat="46.311672963201999664306640625" lon="7.46631310321390628814697265625"><ele></ele><time>2020-9-19T11:36:33Z</time></trkpt>
<trkpt lat="46.31165930069983005523681640625" lon="7.4663151986896991729736328125"><ele></ele><time>2020-9-19T11:36:36Z</time></trkpt>
<trkpt lat="46.3116525113582611083984375" lon="7.46632299385964870452880859375"><ele></ele><time>2020-9-19T11:36:39Z</time></trkpt>
<trkpt lat="46.3116471469402313232421875" lon="7.4663329683244228363037109375"><ele></ele><time>2020-9-19T11:36:42Z</time></trkpt>
<trkpt lat="46.3116442970931529998779296875" lon="7.4663517437875270843505859375"><ele></ele><time>2020-9-19T11:36:45Z</time></trkpt>
<trkpt lat="46.31164270453155040740966796875" lon="7.4663768894970417022705078125"><ele></ele><time>2020-9-19T11:36:48Z</time></trkpt>
<trkpt lat="46.3116409443318843841552734375" lon="7.46640144847333431243896484375"><ele></ele><time>2020-9-19T11:36:51Z</time></trkpt>
<trkpt lat="46.31164069287478923797607421875" lon="7.46642340905964374542236328125"><ele></ele><time>2020-9-19T11:36:54Z</time></trkpt>
<trkpt lat="46.31164379417896270751953125" lon="7.46644570492208003997802734375"><ele></ele><time>2020-9-19T11:36:57Z</time></trkpt>
<trkpt lat="46.31164890713989734649658203125" lon="7.46647168882191181182861328125"><ele></ele><time>2020-9-19T11:37:0Z</time></trkpt>
<trkpt lat="46.3116570375859737396240234375" lon="7.46649867855012416839599609375"><ele></ele><time>2020-9-19T11:37:3Z</time></trkpt>
<trkpt lat="46.31166080944240093231201171875" lon="7.46651963330805301666259765625"><ele></ele><time>2020-9-19T11:37:6Z</time></trkpt>
<trkpt lat="46.31166256964206695556640625" lon="7.46653966605663299560546875"><ele></ele><time>2020-9-19T11:37:9Z</time></trkpt>
<trkpt lat="46.3116634078323841094970703125" lon="7.4665609560906887054443359375"><ele></ele><time>2020-9-19T11:37:12Z</time></trkpt>
<trkpt lat="46.3116647489368915557861328125" lon="7.46658249758183956146240234375"><ele></ele><time>2020-9-19T11:37:15Z</time></trkpt>
<trkpt lat="46.31166500039398670196533203125" lon="7.46660563163459300994873046875"><ele></ele><time>2020-9-19T11:37:18Z</time></trkpt>
<trkpt lat="46.31166483275592327117919921875" lon="7.46662725694477558135986328125"><ele></ele><time>2020-9-19T11:37:21Z</time></trkpt>
<trkpt lat="46.31166667677462100982666015625" lon="7.46664972044527530670166015625"><ele></ele><time>2020-9-19T11:37:24Z</time></trkpt>
<trkpt lat="46.31167002953588962554931640625" lon="7.466669417917728424072265625"><ele></ele><time>2020-9-19T11:37:27Z</time></trkpt>
<trkpt lat="46.31167120300233364105224609375" lon="7.4666866846382617950439453125"><ele></ele><time>2020-9-19T11:37:30Z</time></trkpt>
<trkpt lat="46.311667598783969879150390625" lon="7.4667044542729854583740234375"><ele></ele><time>2020-9-19T11:37:33Z</time></trkpt>
<trkpt lat="46.311660893261432647705078125" lon="7.46672113426029682159423828125"><ele></ele><time>2020-9-19T11:37:36Z</time></trkpt>
<trkpt lat="46.311652176082134246826171875" lon="7.46673278510570526123046875"><ele></ele><time>2020-9-19T11:37:39Z</time></trkpt>
<trkpt lat="46.3116426207125186920166015625" lon="7.4667441844940185546875"><ele></ele><time>2020-9-19T11:37:42Z</time></trkpt>
<trkpt lat="46.31163449026644229888916015625" lon="7.4667574279010295867919921875"><ele></ele><time>2020-9-19T11:37:45Z</time></trkpt>
<trkpt lat="46.31162770092487335205078125" lon="7.46676974929869174957275390625"><ele></ele><time>2020-9-19T11:37:48Z</time></trkpt>
<trkpt lat="46.3116275332868099212646484375" lon="7.46678181923925876617431640625"><ele></ele><time>2020-9-19T11:37:51Z</time></trkpt>
<trkpt lat="46.31163734011352062225341796875" lon="7.46677947230637073516845703125"><ele></ele><time>2020-9-19T11:37:54Z</time></trkpt>
<trkpt lat="46.311648823320865631103515625" lon="7.46676639653742313385009765625"><ele></ele><time>2020-9-19T11:37:57Z</time></trkpt>
<trkpt lat="46.3116838596761226654052734375" lon="7.4667342938482761383056640625"><ele></ele><time>2020-9-19T11:38:0Z</time></trkpt>
<trkpt lat="46.311713196337223052978515625" lon="7.46672247536480426788330078125"><ele></ele><time>2020-9-19T11:38:3Z</time></trkpt>
<trkpt lat="46.31175016053020954132080078125" lon="7.46670738793909549713134765625"><ele></ele><time>2020-9-19T11:38:6Z</time></trkpt>
<trkpt lat="46.31179022602736949920654296875" lon="7.46669397689402103424072265625"><ele></ele><time>2020-9-19T11:38:9Z</time></trkpt>
<trkpt lat="46.31182861514389514923095703125" lon="7.46668257750570774078369140625"><ele></ele><time>2020-9-19T11:38:12Z</time></trkpt>
<trkpt lat="46.31186247803270816802978515625" lon="7.46666765771806240081787109375"><ele></ele><time>2020-9-19T11:38:15Z</time></trkpt>
<trkpt lat="46.31189499981701374053955078125" lon="7.46665156446397304534912109375"><ele></ele><time>2020-9-19T11:38:18Z</time></trkpt>
<trkpt lat="46.31192651577293872833251953125" lon="7.46663429774343967437744140625"><ele></ele><time>2020-9-19T11:38:21Z</time></trkpt>
<trkpt lat="46.31199122406542301177978515625" lon="7.46659657917916774749755859375"><ele></ele><time>2020-9-19T11:38:24Z</time></trkpt>
<trkpt lat="46.3121867738664150238037109375" lon="7.4664892069995403289794921875"><ele></ele><time>2020-9-19T11:38:27Z</time></trkpt>
<trkpt lat="46.31231174804270267486572265625" lon="7.466418631374835968017578125"><ele></ele><time>2020-9-19T11:38:30Z</time></trkpt>
<trkpt lat="46.31260670721530914306640625" lon="7.46622961945831775665283203125"><ele></ele><time>2020-9-19T11:38:33Z</time></trkpt>
<trkpt lat="46.31264937110245227813720703125" lon="7.46620279736816883087158203125"><ele></ele><time>2020-9-19T11:38:36Z</time></trkpt>
<trkpt lat="46.312734447419643402099609375" lon="7.466151081025600433349609375"><ele></ele><time>2020-9-19T11:38:39Z</time></trkpt>
<trkpt lat="46.3127765245735645294189453125" lon="7.46612585149705410003662109375"><ele></ele><time>2020-9-19T11:38:42Z</time></trkpt>
<trkpt lat="46.312817595899105072021484375" lon="7.46609978377819061279296875"><ele></ele><time>2020-9-19T11:38:45Z</time></trkpt>
<trkpt lat="46.31285975687205791473388671875" lon="7.466073967516422271728515625"><ele></ele><time>2020-9-19T11:38:48Z</time></trkpt>
<trkpt lat="46.3129015825688838958740234375" lon="7.466048486530780792236328125"><ele></ele><time>2020-9-19T11:38:51Z</time></trkpt>
<trkpt lat="46.31303041242063045501708984375" lon="7.46597531251609325408935546875"><ele></ele><time>2020-9-19T11:38:54Z</time></trkpt>
<trkpt lat="46.31307198666036128997802734375" lon="7.46595134027302265167236328125"><ele></ele><time>2020-9-19T11:38:57Z</time></trkpt>
<trkpt lat="46.31311188451945781707763671875" lon="7.46592468582093715667724609375"><ele></ele><time>2020-9-19T11:39:0Z</time></trkpt>
<trkpt lat="46.31315044127404689788818359375" lon="7.46589652262628078460693359375"><ele></ele><time>2020-9-19T11:39:3Z</time></trkpt>
<trkpt lat="46.31318916566669940948486328125" lon="7.46587456203997135162353515625"><ele></ele><time>2020-9-19T11:39:6Z</time></trkpt>
<trkpt lat="46.31322956643998622894287109375" lon="7.46587204746901988983154296875"><ele></ele><time>2020-9-19T11:39:9Z</time></trkpt>
<trkpt lat="46.31326527334749698638916015625" lon="7.4658977799117565155029296875"><ele></ele><time>2020-9-19T11:39:12Z</time></trkpt>
<trkpt lat="46.31329201161861419677734375" lon="7.4659443832933902740478515625"><ele></ele><time>2020-9-19T11:39:15Z</time></trkpt>
<trkpt lat="46.31331212818622589111328125" lon="7.465998195111751556396484375"><ele></ele><time>2020-9-19T11:39:18Z</time></trkpt>
<trkpt lat="46.313325203955173492431640625" lon="7.466054856777191162109375"><ele></ele><time>2020-9-19T11:39:21Z</time></trkpt>
<trkpt lat="46.31333081983029842376708984375" lon="7.46611696667969226837158203125"><ele></ele><time>2020-9-19T11:39:24Z</time></trkpt>
<trkpt lat="46.31333249621093273162841796875" lon="7.4663879536092281341552734375"><ele></ele><time>2020-9-19T11:39:27Z</time></trkpt>
<trkpt lat="46.3133297301828861236572265625" lon="7.4664583615958690643310546875"><ele></ele><time>2020-9-19T11:39:30Z</time></trkpt>
<trkpt lat="46.31332662887871265411376953125" lon="7.46652516536414623260498046875"><ele></ele><time>2020-9-19T11:39:33Z</time></trkpt>
<trkpt lat="46.31332151591777801513671875" lon="7.466588951647281646728515625"><ele></ele><time>2020-9-19T11:39:36Z</time></trkpt>
<trkpt lat="46.3133183307945728302001953125" lon="7.46665089391171932220458984375"><ele></ele><time>2020-9-19T11:39:39Z</time></trkpt>
<trkpt lat="46.31331690587103366851806640625" lon="7.466713674366474151611328125"><ele></ele><time>2020-9-19T11:39:42Z</time></trkpt>
<trkpt lat="46.313314139842987060546875" lon="7.46677947230637073516845703125"><ele></ele><time>2020-9-19T11:39:45Z</time></trkpt>
<trkpt lat="46.31330651231110095977783203125" lon="7.46685004793107509613037109375"><ele></ele><time>2020-9-19T11:39:48Z</time></trkpt>
<trkpt lat="46.313302405178546905517578125" lon="7.4669237248599529266357421875"><ele></ele><time>2020-9-19T11:39:51Z</time></trkpt>
<trkpt lat="46.3133029080927371978759765625" lon="7.46700108982622623443603515625"><ele></ele><time>2020-9-19T11:39:54Z</time></trkpt>
<trkpt lat="46.3133029080927371978759765625" lon="7.46715749613940715789794921875"><ele></ele><time>2020-9-19T11:39:57Z</time></trkpt>
<trkpt lat="46.31330114789307117462158203125" lon="7.46724382974207401275634765625"><ele></ele><time>2020-9-19T11:40:0Z</time></trkpt>
<trkpt lat="46.31329201161861419677734375" lon="7.467505931854248046875"><ele></ele><time>2020-9-19T11:40:3Z</time></trkpt>
<trkpt lat="46.31328086368739604949951171875" lon="7.46759100817143917083740234375"><ele></ele><time>2020-9-19T11:40:6Z</time></trkpt>
<trkpt lat="46.31327055394649505615234375" lon="7.46767382137477397918701171875"><ele></ele><time>2020-9-19T11:40:9Z</time></trkpt>
<trkpt lat="46.3132599927484989166259765625" lon="7.46775445528328418731689453125"><ele></ele><time>2020-9-19T11:40:12Z</time></trkpt>
<trkpt lat="46.31325052119791507720947265625" lon="7.46783517301082611083984375"><ele></ele><time>2020-9-19T11:40:15Z</time></trkpt>
<trkpt lat="46.313241384923458099365234375" lon="7.4679154716432094573974609375"><ele></ele><time>2020-9-19T11:40:18Z</time></trkpt>
<trkpt lat="46.31323409266769886016845703125" lon="7.46799518354237079620361328125"><ele></ele><time>2020-9-19T11:40:21Z</time></trkpt>
<trkpt lat="46.31322872824966907501220703125" lon="7.46807414107024669647216796875"><ele></ele><time>2020-9-19T11:40:24Z</time></trkpt>
<trkpt lat="46.31321732886135578155517578125" lon="7.46815167367458343505859375"><ele></ele><time>2020-9-19T11:40:27Z</time></trkpt>
<trkpt lat="46.31320224143564701080322265625" lon="7.46822585351765155792236328125"><ele></ele><time>2020-9-19T11:40:30Z</time></trkpt>
<trkpt lat="46.31318195722997188568115234375" lon="7.468297518789768218994140625"><ele></ele><time>2020-9-19T11:40:33Z</time></trkpt>
<trkpt lat="46.3131607510149478912353515625" lon="7.46836616657674312591552734375"><ele></ele><time>2020-9-19T11:40:36Z</time></trkpt>
<trkpt lat="46.3131379522383213043212890625" lon="7.46842668391764163970947265625"><ele></ele><time>2020-9-19T11:40:39Z</time></trkpt>
<trkpt lat="46.313115656375885009765625" lon="7.4684807471930980682373046875"><ele></ele><time>2020-9-19T11:40:42Z</time></trkpt>
<trkpt lat="46.3130916841328144073486328125" lon="7.4685307033360004425048828125"><ele></ele><time>2020-9-19T11:40:45Z</time></trkpt>
<trkpt lat="46.3130715675652027130126953125" lon="7.4685769714415073394775390625"><ele></ele><time>2020-9-19T11:40:48Z</time></trkpt>
<trkpt lat="46.3130501098930835723876953125" lon="7.46861628256738185882568359375"><ele></ele><time>2020-9-19T11:40:51Z</time></trkpt>
<trkpt lat="46.3130269758403301239013671875" lon="7.46864545159041881561279296875"><ele></ele><time>2020-9-19T11:40:54Z</time></trkpt>
<trkpt lat="46.31300241686403751373291015625" lon="7.46866556815803050994873046875"><ele></ele><time>2020-9-19T11:40:57Z</time></trkpt>
<trkpt lat="46.31297660060226917266845703125" lon="7.46868140995502471923828125"><ele></ele><time>2020-9-19T11:41:0Z</time></trkpt>
<trkpt lat="46.31295313127338886260986328125" lon="7.46869406662881374359130859375"><ele></ele><time>2020-9-19T11:41:3Z</time></trkpt>
<trkpt lat="46.312928907573223114013671875" lon="7.46870412491261959075927734375"><ele></ele><time>2020-9-19T11:41:6Z</time></trkpt>
<trkpt lat="46.31290451623499393463134765625" lon="7.46871233917772769927978515625"><ele></ele><time>2020-9-19T11:41:9Z</time></trkpt>
<trkpt lat="46.31287786178290843963623046875" lon="7.468713931739330291748046875"><ele></ele><time>2020-9-19T11:41:12Z</time></trkpt>
<trkpt lat="46.3128506205976009368896484375" lon="7.4687115848064422607421875"><ele></ele><time>2020-9-19T11:41:15Z</time></trkpt>
<trkpt lat="46.31282388232648372650146484375" lon="7.46870898641645908355712890625"><ele></ele><time>2020-9-19T11:41:18Z</time></trkpt>
<trkpt lat="46.31280007772147655487060546875" lon="7.46870462782680988311767578125"><ele></ele><time>2020-9-19T11:41:21Z</time></trkpt>
<trkpt lat="46.31277702748775482177734375" lon="7.46869842521846294403076171875"><ele></ele><time>2020-9-19T11:41:24Z</time></trkpt>
<trkpt lat="46.31275397725403308868408203125" lon="7.46869079768657684326171875"><ele></ele><time>2020-9-19T11:41:27Z</time></trkpt>
<trkpt lat="46.31273168139159679412841796875" lon="7.46868166141211986541748046875"><ele></ele><time>2020-9-19T11:41:30Z</time></trkpt>
<trkpt lat="46.312710307538509368896484375" lon="7.46867177076637744903564453125"><ele></ele><time>2020-9-19T11:41:33Z</time></trkpt>
<trkpt lat="46.31268960423767566680908203125" lon="7.46865861117839813232421875"><ele></ele><time>2020-9-19T11:41:36Z</time></trkpt>
<trkpt lat="46.312668733298778533935546875" lon="7.46864595450460910797119140625"><ele></ele><time>2020-9-19T11:41:39Z</time></trkpt>
<trkpt lat="46.31264534778892993927001953125" lon="7.468637488782405853271484375"><ele></ele><time>2020-9-19T11:41:42Z</time></trkpt>
<trkpt lat="46.312621794641017913818359375" lon="7.468630783259868621826171875"><ele></ele><time>2020-9-19T11:41:45Z</time></trkpt>
<trkpt lat="46.312598325312137603759765625" lon="7.4686249159276485443115234375"><ele></ele><time>2020-9-19T11:41:48Z</time></trkpt>
<trkpt lat="46.31257443688809871673583984375" lon="7.46861971914768218994140625"><ele></ele><time>2020-9-19T11:41:51Z</time></trkpt>
<trkpt lat="46.3125515542924404144287109375" lon="7.4686123430728912353515625"><ele></ele><time>2020-9-19T11:41:54Z</time></trkpt>
<trkpt lat="46.3125277496874332427978515625" lon="7.4686007760465145111083984375"><ele></ele><time>2020-9-19T11:41:57Z</time></trkpt>
<trkpt lat="46.3125036098062992095947265625" lon="7.46859289705753326416015625"><ele></ele><time>2020-9-19T11:42:0Z</time></trkpt>
<trkpt lat="46.3124794699251651763916015625" lon="7.468585185706615447998046875"><ele></ele><time>2020-9-19T11:42:3Z</time></trkpt>
<trkpt lat="46.312456168234348297119140625" lon="7.468575127422809600830078125"><ele></ele><time>2020-9-19T11:42:6Z</time></trkpt>
<trkpt lat="46.31243546493351459503173828125" lon="7.4685632251203060150146484375"><ele></ele><time>2020-9-19T11:42:9Z</time></trkpt>
<trkpt lat="46.31241786293685436248779296875" lon="7.46854838915169239044189453125"><ele></ele><time>2020-9-19T11:42:12Z</time></trkpt>
<trkpt lat="46.312401182949542999267578125" lon="7.468524165451526641845703125"><ele></ele><time>2020-9-19T11:42:15Z</time></trkpt>
<trkpt lat="46.3123822398483753204345703125" lon="7.46849767863750457763671875"><ele></ele><time>2020-9-19T11:42:18Z</time></trkpt>
<trkpt lat="46.31235860288143157958984375" lon="7.46847026981413364410400390625"><ele></ele><time>2020-9-19T11:42:21Z</time></trkpt>
<trkpt lat="46.3123322837054729461669921875" lon="7.4684398435056209564208984375"><ele></ele><time>2020-9-19T11:42:24Z</time></trkpt>
<trkpt lat="46.3122726045548915863037109375" lon="7.46837035752832889556884765625"><ele></ele><time>2020-9-19T11:42:27Z</time></trkpt>
<trkpt lat="46.31224385462701320648193359375" lon="7.46833247132599353790283203125"><ele></ele><time>2020-9-19T11:42:30Z</time></trkpt>
<trkpt lat="46.3122125901281833648681640625" lon="7.46829383075237274169921875"><ele></ele><time>2020-9-19T11:42:33Z</time></trkpt>
<trkpt lat="46.3121753744781017303466796875" lon="7.468258626759052276611328125"><ele></ele><time>2020-9-19T11:42:36Z</time></trkpt>
<trkpt lat="46.31213740445673465728759765625" lon="7.46822468005120754241943359375"><ele></ele><time>2020-9-19T11:42:39Z</time></trkpt>
<trkpt lat="46.3121006079018115997314453125" lon="7.46819484047591686248779296875"><ele></ele><time>2020-9-19T11:42:42Z</time></trkpt>
<trkpt lat="46.31206758320331573486328125" lon="7.46816785074770450592041015625"><ele></ele><time>2020-9-19T11:42:45Z</time></trkpt>
<trkpt lat="46.31203581579029560089111328125" lon="7.4681444652378559112548828125"><ele></ele><time>2020-9-19T11:42:48Z</time></trkpt>
<trkpt lat="46.31200614385306835174560546875" lon="7.4681297130882740020751953125"><ele></ele><time>2020-9-19T11:42:51Z</time></trkpt>
<trkpt lat="46.31197546608746051788330078125" lon="7.46811504475772380828857421875"><ele></ele><time>2020-9-19T11:42:54Z</time></trkpt>
<trkpt lat="46.3119410164654254913330078125" lon="7.46809107251465320587158203125"><ele></ele><time>2020-9-19T11:42:57Z</time></trkpt>
<trkpt lat="46.31190505810081958770751953125" lon="7.468072883784770965576171875"><ele></ele><time>2020-9-19T11:43:0Z</time></trkpt>
<trkpt lat="46.31186784245073795318603515625" lon="7.46807648800313472747802734375"><ele></ele><time>2020-9-19T11:43:3Z</time></trkpt>
<trkpt lat="46.31183263845741748809814453125" lon="7.46809668838977813720703125"><ele></ele><time>2020-9-19T11:43:6Z</time></trkpt>
<trkpt lat="46.3118059001863002777099609375" lon="7.468125186860561370849609375"><ele></ele><time>2020-9-19T11:43:9Z</time></trkpt>
<trkpt lat="46.3117839395999908447265625" lon="7.4681632407009601593017578125"><ele></ele><time>2020-9-19T11:43:12Z</time></trkpt>
<trkpt lat="46.31177362985908985137939453125" lon="7.46821059845387935638427734375"><ele></ele><time>2020-9-19T11:43:15Z</time></trkpt>
<trkpt lat="46.31176675669848918914794921875" lon="7.46826005168259143829345703125"><ele></ele><time>2020-9-19T11:43:18Z</time></trkpt>
<trkpt lat="46.31176826544106006622314453125" lon="7.46830833144485950469970703125"><ele></ele><time>2020-9-19T11:43:21Z</time></trkpt>
<trkpt lat="46.311773546040058135986328125" lon="7.46835242025554180145263671875"><ele></ele><time>2020-9-19T11:43:24Z</time></trkpt>
<trkpt lat="46.31178234703838825225830078125" lon="7.46839173138141632080078125"><ele></ele><time>2020-9-19T11:43:27Z</time></trkpt>
<trkpt lat="46.31179374642670154571533203125" lon="7.4684274382889270782470703125"><ele></ele><time>2020-9-19T11:43:30Z</time></trkpt>
<trkpt lat="46.3118052296340465545654296875" lon="7.46845602057874202728271484375"><ele></ele><time>2020-9-19T11:43:33Z</time></trkpt>
<trkpt lat="46.31181436590850353240966796875" lon="7.46848636306822299957275390625"><ele></ele><time>2020-9-19T11:43:36Z</time></trkpt>
<trkpt lat="46.31182392127811908721923828125" lon="7.468511424958705902099609375"><ele></ele><time>2020-9-19T11:43:39Z</time></trkpt>
<trkpt lat="46.3118370808660984039306640625" lon="7.46853254735469818115234375"><ele></ele><time>2020-9-19T11:43:42Z</time></trkpt>
<trkpt lat="46.31184906698763370513916015625" lon="7.46855224482715129852294921875"><ele></ele><time>2020-9-19T11:43:45Z</time></trkpt>
<trkpt lat="46.311855018138885498046875" lon="7.46857143938541412353515625"><ele></ele><time>2020-9-19T11:43:48Z</time></trkpt>
<trkpt lat="46.31185342557728290557861328125" lon="7.468586526811122894287109375"><ele></ele><time>2020-9-19T11:43:51Z</time></trkpt>
<trkpt lat="46.311855018138885498046875" lon="7.468601278960704803466796875"><ele></ele><time>2020-9-19T11:43:54Z</time></trkpt>
<trkpt lat="46.311860717833042144775390625" lon="7.46861460618674755096435546875"><ele></ele><time>2020-9-19T11:43:57Z</time></trkpt>
<trkpt lat="46.31186549551784992218017578125" lon="7.468630112707614898681640625"><ele></ele><time>2020-9-19T11:44:0Z</time></trkpt>
<trkpt lat="46.31186918355524539947509765625" lon="7.46864746324717998504638671875"><ele></ele><time>2020-9-19T11:44:3Z</time></trkpt>
<trkpt lat="46.31187303923070430755615234375" lon="7.46866355650126934051513671875"><ele></ele><time>2020-9-19T11:44:6Z</time></trkpt>
<trkpt lat="46.31187521852552890777587890625" lon="7.4686792306602001190185546875"><ele></ele><time>2020-9-19T11:44:9Z</time></trkpt>
<trkpt lat="46.31187806837260723114013671875" lon="7.46870043687522411346435546875"><ele></ele><time>2020-9-19T11:44:12Z</time></trkpt>
<trkpt lat="46.31187806837260723114013671875" lon="7.4687171168625354766845703125"><ele></ele><time>2020-9-19T11:44:15Z</time></trkpt>
<trkpt lat="46.31187873892486095428466796875" lon="7.46872834861278533935546875"><ele></ele><time>2020-9-19T11:44:18Z</time></trkpt>
<trkpt lat="46.31187848746776580810546875" lon="7.46874854899942874908447265625"><ele></ele><time>2020-9-19T11:44:21Z</time></trkpt>
<trkpt lat="46.3118796609342098236083984375" lon="7.46877260506153106689453125"><ele></ele><time>2020-9-19T11:44:24Z</time></trkpt>
<trkpt lat="46.31188142113387584686279296875" lon="7.46879674494266510009765625"><ele></ele><time>2020-9-19T11:44:27Z</time></trkpt>
<trkpt lat="46.31188494153320789337158203125" lon="7.4688187055289745330810546875"><ele></ele><time>2020-9-19T11:44:30Z</time></trkpt>
<trkpt lat="46.31188812665641307830810546875" lon="7.4688428454101085662841796875"><ele></ele><time>2020-9-19T11:44:33Z</time></trkpt>
<trkpt lat="46.311891563236713409423828125" lon="7.4688706733286380767822265625"><ele></ele><time>2020-9-19T11:44:36Z</time></trkpt>
<trkpt lat="46.3118940778076648712158203125" lon="7.4688974954187870025634765625"><ele></ele><time>2020-9-19T11:44:39Z</time></trkpt>
<trkpt lat="46.311896257102489471435546875" lon="7.46891987510025501251220703125"><ele></ele><time>2020-9-19T11:44:42Z</time></trkpt>
<trkpt lat="46.311900950968265533447265625" lon="7.46894451789557933807373046875"><ele></ele><time>2020-9-19T11:44:45Z</time></trkpt>
<trkpt lat="46.311908662319183349609375" lon="7.46896279044449329376220703125"><ele></ele><time>2020-9-19T11:44:48Z</time></trkpt>
<trkpt lat="46.31191930733621120452880859375" lon="7.46897972188889980316162109375"><ele></ele><time>2020-9-19T11:44:51Z</time></trkpt>
<trkpt lat="46.31192936562001705169677734375" lon="7.46899656951427459716796875"><ele></ele><time>2020-9-19T11:44:54Z</time></trkpt>
<trkpt lat="46.31193825043737888336181640625" lon="7.46900721453130245208740234375"><ele></ele><time>2020-9-19T11:44:57Z</time></trkpt>
<trkpt lat="46.31194554269313812255859375" lon="7.4690255708992481231689453125"><ele></ele><time>2020-9-19T11:45:0Z</time></trkpt>
<trkpt lat="46.31195249967277050018310546875" lon="7.469045855104923248291015625"><ele></ele><time>2020-9-19T11:45:3Z</time></trkpt>
<trkpt lat="46.31195970810949802398681640625" lon="7.46907301247119903564453125"><ele></ele><time>2020-9-19T11:45:6Z</time></trkpt>
<trkpt lat="46.3119685091078281402587890625" lon="7.46910075657069683074951171875"><ele></ele><time>2020-9-19T11:45:9Z</time></trkpt>
<trkpt lat="46.3119772262871265411376953125" lon="7.4691300094127655029296875"><ele></ele><time>2020-9-19T11:45:12Z</time></trkpt>
<trkpt lat="46.31198904477059841156005859375" lon="7.46916479431092739105224609375"><ele></ele><time>2020-9-19T11:45:15Z</time></trkpt>
<trkpt lat="46.31199910305440425872802734375" lon="7.4691989086568355560302734375"><ele></ele><time>2020-9-19T11:45:18Z</time></trkpt>
<trkpt lat="46.3120100833475589752197265625" lon="7.469232268631458282470703125"><ele></ele><time>2020-9-19T11:45:21Z</time></trkpt>
<trkpt lat="46.31202198565006256103515625" lon="7.46926504187285900115966796875"><ele></ele><time>2020-9-19T11:45:24Z</time></trkpt>
<trkpt lat="46.3120335526764392852783203125" lon="7.469293288886547088623046875"><ele></ele><time>2020-9-19T11:45:27Z</time></trkpt>
<trkpt lat="46.3120469637215137481689453125" lon="7.46932069770991802215576171875"><ele></ele><time>2020-9-19T11:45:30Z</time></trkpt>
<trkpt lat="46.31206087768077850341796875" lon="7.46934751980006694793701171875"><ele></ele><time>2020-9-19T11:45:33Z</time></trkpt>
<trkpt lat="46.31207772530615329742431640625" lon="7.46937274932861328125"><ele></ele><time>2020-9-19T11:45:36Z</time></trkpt>
<trkpt lat="46.31209306418895721435546875" lon="7.46939864940941333770751953125"><ele></ele><time>2020-9-19T11:45:39Z</time></trkpt>
<trkpt lat="46.3121076487004756927490234375" lon="7.46942329220473766326904296875"><ele></ele><time>2020-9-19T11:45:42Z</time></trkpt>
<trkpt lat="46.31211946718394756317138671875" lon="7.4694426544010639190673828125"><ele></ele><time>2020-9-19T11:45:45Z</time></trkpt>
<trkpt lat="46.31212818436324596405029296875" lon="7.46946587227284908294677734375"><ele></ele><time>2020-9-19T11:45:48Z</time></trkpt>
<trkpt lat="46.3121381588280200958251953125" lon="7.46949034743010997772216796875"><ele></ele><time>2020-9-19T11:45:51Z</time></trkpt>
<trkpt lat="46.3121460378170013427734375" lon="7.46951163746416568756103515625"><ele></ele><time>2020-9-19T11:45:54Z</time></trkpt>
<trkpt lat="46.31215467117726802825927734375" lon="7.46953745372593402862548828125"><ele></ele><time>2020-9-19T11:45:57Z</time></trkpt>
<trkpt lat="46.31216204725205898284912109375" lon="7.4695643596351146697998046875"><ele></ele><time>2020-9-19T11:46:0Z</time></trkpt>
<trkpt lat="46.31216892041265964508056640625" lon="7.46959310956299304962158203125"><ele></ele><time>2020-9-19T11:46:3Z</time></trkpt>
<trkpt lat="46.3121743686497211456298828125" lon="7.46961750090122222900390625"><ele></ele><time>2020-9-19T11:46:6Z</time></trkpt>
<trkpt lat="46.31218031980097293853759765625" lon="7.4696364440023899078369140625"><ele></ele><time>2020-9-19T11:46:9Z</time></trkpt>
<trkpt lat="46.312185935676097869873046875" lon="7.4696538783609867095947265625"><ele></ele><time>2020-9-19T11:46:12Z</time></trkpt>
<trkpt lat="46.3121941499412059783935546875" lon="7.46967558749020099639892578125"><ele></ele><time>2020-9-19T11:46:15Z</time></trkpt>
<trkpt lat="46.31220362149178981781005859375" lon="7.4696974642574787139892578125"><ele></ele><time>2020-9-19T11:46:18Z</time></trkpt>
<trkpt lat="46.31220982410013675689697265625" lon="7.46971674263477325439453125"><ele></ele><time>2020-9-19T11:46:21Z</time></trkpt>
<trkpt lat="46.31221703253686428070068359375" lon="7.46973392553627490997314453125"><ele></ele><time>2020-9-19T11:46:24Z</time></trkpt>
<trkpt lat="46.312224827706813812255859375" lon="7.4697524495422840118408203125"><ele></ele><time>2020-9-19T11:46:27Z</time></trkpt>
<trkpt lat="46.31223413161933422088623046875" lon="7.46977332048118114471435546875"><ele></ele><time>2020-9-19T11:46:30Z</time></trkpt>
<trkpt lat="46.31224938668310642242431640625" lon="7.46979628689587116241455078125"><ele></ele><time>2020-9-19T11:46:33Z</time></trkpt>
<trkpt lat="46.3122658990323543548583984375" lon="7.4698174931108951568603515625"><ele></ele><time>2020-9-19T11:46:36Z</time></trkpt>
<trkpt lat="46.312277801334857940673828125" lon="7.46983735822141170501708984375"><ele></ele><time>2020-9-19T11:46:39Z</time></trkpt>
<trkpt lat="46.3122893683612346649169921875" lon="7.46985931880772113800048828125"><ele></ele><time>2020-9-19T11:46:42Z</time></trkpt>
<trkpt lat="46.3123054616153240203857421875" lon="7.46988530270755290985107421875"><ele></ele><time>2020-9-19T11:46:45Z</time></trkpt>
<trkpt lat="46.3123225606977939605712890625" lon="7.4699106998741626739501953125"><ele></ele><time>2020-9-19T11:46:48Z</time></trkpt>
<trkpt lat="46.31234125234186649322509765625" lon="7.4699361808598041534423828125"><ele></ele><time>2020-9-19T11:46:51Z</time></trkpt>
<trkpt lat="46.312360949814319610595703125" lon="7.46995923109352588653564453125"><ele></ele><time>2020-9-19T11:46:54Z</time></trkpt>
<trkpt lat="46.31237595342099666595458984375" lon="7.46997783891856670379638671875"><ele></ele><time>2020-9-19T11:46:57Z</time></trkpt>
<trkpt lat="46.31238969974219799041748046875" lon="7.46999812312424182891845703125"><ele></ele><time>2020-9-19T11:47:0Z</time></trkpt>
<trkpt lat="46.3124035298824310302734375" lon="7.4700216762721538543701171875"><ele></ele><time>2020-9-19T11:47:3Z</time></trkpt>
<trkpt lat="46.31241761147975921630859375" lon="7.470045983791351318359375"><ele></ele><time>2020-9-19T11:47:6Z</time></trkpt>
<trkpt lat="46.3124308548867702484130859375" lon="7.4700702913105487823486328125"><ele></ele><time>2020-9-19T11:47:9Z</time></trkpt>
<trkpt lat="46.31244652904570102691650390625" lon="7.47009384445846080780029296875"><ele></ele><time>2020-9-19T11:47:12Z</time></trkpt>
<trkpt lat="46.312463544309139251708984375" lon="7.47011840343475341796875"><ele></ele><time>2020-9-19T11:47:15Z</time></trkpt>
<trkpt lat="46.31247854791581630706787109375" lon="7.47014313004910945892333984375"><ele></ele><time>2020-9-19T11:47:18Z</time></trkpt>
<trkpt lat="46.3124965690076351165771484375" lon="7.47017146088182926177978515625"><ele></ele><time>2020-9-19T11:47:21Z</time></trkpt>
<trkpt lat="46.31253671832382678985595703125" lon="7.47022460214793682098388671875"><ele></ele><time>2020-9-19T11:47:24Z</time></trkpt>
<trkpt lat="46.31255884654819965362548828125" lon="7.47026299126446247100830078125"><ele></ele><time>2020-9-19T11:47:27Z</time></trkpt>
<trkpt lat="46.31258365698158740997314453125" lon="7.47029970400035381317138671875"><ele></ele><time>2020-9-19T11:47:30Z</time></trkpt>
<trkpt lat="46.3126343674957752227783203125" lon="7.4703723751008510589599609375"><ele></ele><time>2020-9-19T11:47:33Z</time></trkpt>
<trkpt lat="46.31265557371079921722412109375" lon="7.47041420079767704010009765625"><ele></ele><time>2020-9-19T11:47:36Z</time></trkpt>
<trkpt lat="46.31270033307373523712158203125" lon="7.470509670674800872802734375"><ele></ele><time>2020-9-19T11:47:39Z</time></trkpt>
<trkpt lat="46.3127238862216472625732421875" lon="7.47056440450251102447509765625"><ele></ele><time>2020-9-19T11:47:42Z</time></trkpt>
<trkpt lat="46.31274542771279811859130859375" lon="7.47061662375926971435546875"><ele></ele><time>2020-9-19T11:47:45Z</time></trkpt>
<trkpt lat="46.3127671368420124053955078125" lon="7.470659874379634857177734375"><ele></ele><time>2020-9-19T11:47:48Z</time></trkpt>
<trkpt lat="46.31279052235186100006103515625" lon="7.4706992693245410919189453125"><ele></ele><time>2020-9-19T11:47:51Z</time></trkpt>
<trkpt lat="46.3128125667572021484375" lon="7.470734305679798126220703125"><ele></ele><time>2020-9-19T11:47:54Z</time></trkpt>
<trkpt lat="46.31283544935286045074462890625" lon="7.47075584717094898223876953125"><ele></ele><time>2020-9-19T11:47:57Z</time></trkpt>
<trkpt lat="46.31286243908107280731201171875" lon="7.47077445499598979949951171875"><ele></ele><time>2020-9-19T11:48:0Z</time></trkpt>
<trkpt lat="46.3128891773521900177001953125" lon="7.470788620412349700927734375"><ele></ele><time>2020-9-19T11:48:3Z</time></trkpt>
<trkpt lat="46.31291289813816547393798828125" lon="7.470807395875453948974609375"><ele></ele><time>2020-9-19T11:48:6Z</time></trkpt>
<trkpt lat="46.3129346072673797607421875" lon="7.47082390822470188140869140625"><ele></ele><time>2020-9-19T11:48:9Z</time></trkpt>
<trkpt lat="46.312955059111118316650390625" lon="7.47084620408713817596435546875"><ele></ele><time>2020-9-19T11:48:12Z</time></trkpt>
<trkpt lat="46.31297886371612548828125" lon="7.47088040225207805633544921875"><ele></ele><time>2020-9-19T11:48:15Z</time></trkpt>
<trkpt lat="46.3129991479218006134033203125" lon="7.47092063538730144500732421875"><ele></ele><time>2020-9-19T11:48:18Z</time></trkpt>
<trkpt lat="46.313022114336490631103515625" lon="7.47096472419798374176025390625"><ele></ele><time>2020-9-19T11:48:21Z</time></trkpt>
<trkpt lat="46.313043572008609771728515625" lon="7.4710129201412200927734375"><ele></ele><time>2020-9-19T11:48:24Z</time></trkpt>
<trkpt lat="46.3130645267665386199951171875" lon="7.47106547467410564422607421875"><ele></ele><time>2020-9-19T11:48:27Z</time></trkpt>
<trkpt lat="46.3130809552967548370361328125" lon="7.47112079523503780364990234375"><ele></ele><time>2020-9-19T11:48:30Z</time></trkpt>
<trkpt lat="46.31309880875051021575927734375" lon="7.4711723439395427703857421875"><ele></ele><time>2020-9-19T11:48:33Z</time></trkpt>
<trkpt lat="46.31312395446002483367919921875" lon="7.4712176062166690826416015625"><ele></ele><time>2020-9-19T11:48:36Z</time></trkpt>
<trkpt lat="46.3131493516266345977783203125" lon="7.4712605215609073638916015625"><ele></ele><time>2020-9-19T11:48:39Z</time></trkpt>
<trkpt lat="46.3131721504032611846923828125" lon="7.4713057838380336761474609375"><ele></ele><time>2020-9-19T11:48:42Z</time></trkpt>
<trkpt lat="46.3131974637508392333984375" lon="7.47135029174387454986572265625"><ele></ele><time>2020-9-19T11:48:45Z</time></trkpt>
<trkpt lat="46.3132184185087680816650390625" lon="7.471392117440700531005859375"><ele></ele><time>2020-9-19T11:48:48Z</time></trkpt>
<trkpt lat="46.31323811598122119903564453125" lon="7.47143327258527278900146484375"><ele></ele><time>2020-9-19T11:48:51Z</time></trkpt>
<trkpt lat="46.31325705908238887786865234375" lon="7.4714710749685764312744140625"><ele></ele><time>2020-9-19T11:48:54Z</time></trkpt>
<trkpt lat="46.31327818147838115692138671875" lon="7.47150669805705547332763671875"><ele></ele><time>2020-9-19T11:48:57Z</time></trkpt>
<trkpt lat="46.313295029103755950927734375" lon="7.4715434946119785308837890625"><ele></ele><time>2020-9-19T11:49:0Z</time></trkpt>
<trkpt lat="46.31331288255751132965087890625" lon="7.47157945297658443450927734375"><ele></ele><time>2020-9-19T11:49:3Z</time></trkpt>
<trkpt lat="46.3133357651531696319580078125" lon="7.4716162495315074920654296875"><ele></ele><time>2020-9-19T11:49:6Z</time></trkpt>
<trkpt lat="46.31335797719657421112060546875" lon="7.4716581590473651885986328125"><ele></ele><time>2020-9-19T11:49:9Z</time></trkpt>
<trkpt lat="46.3133823685348033905029296875" lon="7.47170367278158664703369140625"><ele></ele><time>2020-9-19T11:49:12Z</time></trkpt>
<trkpt lat="46.31340826861560344696044921875" lon="7.47175128199160099029541015625"><ele></ele><time>2020-9-19T11:49:15Z</time></trkpt>
<trkpt lat="46.31343492306768894195556640625" lon="7.471792437136173248291015625"><ele></ele><time>2020-9-19T11:49:18Z</time></trkpt>
<trkpt lat="46.3134631700813770294189453125" lon="7.47182068414986133575439453125"><ele></ele><time>2020-9-19T11:49:21Z</time></trkpt>
<trkpt lat="46.3134920038282871246337890625" lon="7.4718408845365047454833984375"><ele></ele><time>2020-9-19T11:49:24Z</time></trkpt>
<trkpt lat="46.313521005213260650634765625" lon="7.4718559719622135162353515625"><ele></ele><time>2020-9-19T11:49:27Z</time></trkpt>
<trkpt lat="46.31355084478855133056640625" lon="7.471864856779575347900390625"><ele></ele><time>2020-9-19T11:49:30Z</time></trkpt>
<trkpt lat="46.31358412094414234161376953125" lon="7.47186653316020965576171875"><ele></ele><time>2020-9-19T11:49:33Z</time></trkpt>
<trkpt lat="46.3136190734803676605224609375" lon="7.4718656949698925018310546875"><ele></ele><time>2020-9-19T11:49:36Z</time></trkpt>
<trkpt lat="46.31365771405398845672607421875" lon="7.47186108492314815521240234375"><ele></ele><time>2020-9-19T11:49:39Z</time></trkpt>
<trkpt lat="46.3136918283998966217041015625" lon="7.47186561115086078643798828125"><ele></ele><time>2020-9-19T11:49:42Z</time></trkpt>
<trkpt lat="46.31372678093612194061279296875" lon="7.47187189757823944091796875"><ele></ele><time>2020-9-19T11:49:45Z</time></trkpt>
<trkpt lat="46.31375829689204692840576171875" lon="7.4718792736530303955078125"><ele></ele><time>2020-9-19T11:49:48Z</time></trkpt>
<trkpt lat="46.31378763355314731597900390625" lon="7.471883296966552734375"><ele></ele><time>2020-9-19T11:49:51Z</time></trkpt>
<trkpt lat="46.313812695443630218505859375" lon="7.4718844704329967498779296875"><ele></ele><time>2020-9-19T11:49:54Z</time></trkpt>
<trkpt lat="46.31383608095347881317138671875" lon="7.471885643899440765380859375"><ele></ele><time>2020-9-19T11:49:57Z</time></trkpt>
<trkpt lat="46.3138577900826930999755859375" lon="7.47188203968107700347900390625"><ele></ele><time>2020-9-19T11:50:0Z</time></trkpt>
<trkpt lat="46.31387941539287567138671875" lon="7.4718797765672206878662109375"><ele></ele><time>2020-9-19T11:50:3Z</time></trkpt>
<trkpt lat="46.31389726884663105010986328125" lon="7.471878938376903533935546875"><ele></ele><time>2020-9-19T11:50:6Z</time></trkpt>
<trkpt lat="46.313912607729434967041015625" lon="7.47187986038625240325927734375"><ele></ele><time>2020-9-19T11:50:9Z</time></trkpt>
<trkpt lat="46.31392442621290683746337890625" lon="7.47188656590878963470458984375"><ele></ele><time>2020-9-19T11:50:12Z</time></trkpt>
<trkpt lat="46.313937418162822723388671875" lon="7.471900396049022674560546875"><ele></ele><time>2020-9-19T11:50:15Z</time></trkpt>
<trkpt lat="46.313942112028598785400390625" lon="7.47191573493182659149169921875"><ele></ele><time>2020-9-19T11:50:18Z</time></trkpt>
<trkpt lat="46.31394512951374053955078125" lon="7.4719356000423431396484375"><ele></ele><time>2020-9-19T11:50:21Z</time></trkpt>
<trkpt lat="46.3139530085027217864990234375" lon="7.47196334414184093475341796875"><ele></ele><time>2020-9-19T11:50:24Z</time></trkpt>
<trkpt lat="46.31396667100489139556884765625" lon="7.471992932260036468505859375"><ele></ele><time>2020-9-19T11:50:27Z</time></trkpt>
<trkpt lat="46.31397790275514125823974609375" lon="7.47202134691178798675537109375"><ele></ele><time>2020-9-19T11:50:30Z</time></trkpt>
<trkpt lat="46.31398762576282024383544921875" lon="7.4720514379441738128662109375"><ele></ele><time>2020-9-19T11:50:33Z</time></trkpt>
<trkpt lat="46.31399986334145069122314453125" lon="7.47207867912948131561279296875"><ele></ele><time>2020-9-19T11:50:36Z</time></trkpt>
<trkpt lat="46.31400874815881252288818359375" lon="7.47209183871746063232421875"><ele></ele><time>2020-9-19T11:50:39Z</time></trkpt>
<trkpt lat="46.3140193931758403778076171875" lon="7.47210734523832798004150390625"><ele></ele><time>2020-9-19T11:50:42Z</time></trkpt>
<trkpt lat="46.314027942717075347900390625" lon="7.4721262045204639434814453125"><ele></ele><time>2020-9-19T11:50:45Z</time></trkpt>
<trkpt lat="46.31403892301023006439208984375" lon="7.47214271686971187591552734375"><ele></ele><time>2020-9-19T11:50:48Z</time></trkpt>
<trkpt lat="46.31404546089470386505126953125" lon="7.47215830720961093902587890625"><ele></ele><time>2020-9-19T11:50:51Z</time></trkpt>
<trkpt lat="46.31405107676982879638671875" lon="7.47217725031077861785888671875"><ele></ele><time>2020-9-19T11:50:54Z</time></trkpt>
<trkpt lat="46.3140584528446197509765625" lon="7.47219803743064403533935546875"><ele></ele><time>2020-9-19T11:50:57Z</time></trkpt>
<trkpt lat="46.31406524218618869781494140625" lon="7.47221597470343112945556640625"><ele></ele><time>2020-9-19T11:51:0Z</time></trkpt>
<trkpt lat="46.31407412700355052947998046875" lon="7.472233660519123077392578125"><ele></ele><time>2020-9-19T11:51:3Z</time></trkpt>
<trkpt lat="46.3140861131250858306884765625" lon="7.472253106534481048583984375"><ele></ele><time>2020-9-19T11:51:6Z</time></trkpt>
<trkpt lat="46.31409692578017711639404296875" lon="7.47227665968239307403564453125"><ele></ele><time>2020-9-19T11:51:9Z</time></trkpt>
<trkpt lat="46.3141042180359363555908203125" lon="7.4723003804683685302734375"><ele></ele><time>2020-9-19T11:51:12Z</time></trkpt>
<trkpt lat="46.3141089119017124176025390625" lon="7.4723231792449951171875"><ele></ele><time>2020-9-19T11:51:15Z</time></trkpt>
<trkpt lat="46.314114443957805633544921875" lon="7.47235025279223918914794921875"><ele></ele><time>2020-9-19T11:51:18Z</time></trkpt>
<trkpt lat="46.31412022747099399566650390625" lon="7.4723793379962444305419921875"><ele></ele><time>2020-9-19T11:51:21Z</time></trkpt>
<trkpt lat="46.31412911228835582733154296875" lon="7.47240833938121795654296875"><ele></ele><time>2020-9-19T11:51:24Z</time></trkpt>
<trkpt lat="46.31413850001990795135498046875" lon="7.47243247926235198974609375"><ele></ele><time>2020-9-19T11:51:27Z</time></trkpt>
<trkpt lat="46.31414973177015781402587890625" lon="7.472459971904754638671875"><ele></ele><time>2020-9-19T11:51:30Z</time></trkpt>
<trkpt lat="46.31415895186364650726318359375" lon="7.47248503379523754119873046875"><ele></ele><time>2020-9-19T11:51:33Z</time></trkpt>
<trkpt lat="46.31416632793843746185302734375" lon="7.47250984422862529754638671875"><ele></ele><time>2020-9-19T11:51:36Z</time></trkpt>
<trkpt lat="46.3141746260225772857666015625" lon="7.47253381647169589996337890625"><ele></ele><time>2020-9-19T11:51:39Z</time></trkpt>
<trkpt lat="46.3141833432018756866455078125" lon="7.47255929745733737945556640625"><ele></ele><time>2020-9-19T11:51:42Z</time></trkpt>
<trkpt lat="46.3141937367618083953857421875" lon="7.47258268296718597412109375"><ele></ele><time>2020-9-19T11:51:45Z</time></trkpt>
<trkpt lat="46.31420488469302654266357421875" lon="7.472604475915431976318359375"><ele></ele><time>2020-9-19T11:51:48Z</time></trkpt>
<trkpt lat="46.31421561352908611297607421875" lon="7.47262568213045597076416015625"><ele></ele><time>2020-9-19T11:51:51Z</time></trkpt>
<trkpt lat="46.3142247498035430908203125" lon="7.4726499058306217193603515625"><ele></ele><time>2020-9-19T11:51:54Z</time></trkpt>
<trkpt lat="46.314235143363475799560546875" lon="7.472672872245311737060546875"><ele></ele><time>2020-9-19T11:51:57Z</time></trkpt>
<trkpt lat="46.3142446987330913543701171875" lon="7.47269793413579463958740234375"><ele></ele><time>2020-9-19T11:52:0Z</time></trkpt>
<trkpt lat="46.31425316445529460906982421875" lon="7.47272056527435779571533203125"><ele></ele><time>2020-9-19T11:52:3Z</time></trkpt>
<trkpt lat="46.3142611272633075714111328125" lon="7.4727431125938892364501953125"><ele></ele><time>2020-9-19T11:52:6Z</time></trkpt>
<trkpt lat="46.314267329871654510498046875" lon="7.47276549227535724639892578125"><ele></ele><time>2020-9-19T11:52:9Z</time></trkpt>
<trkpt lat="46.3142755441367626190185546875" lon="7.4727853573858737945556640625"><ele></ele><time>2020-9-19T11:52:12Z</time></trkpt>
<trkpt lat="46.31428468041121959686279296875" lon="7.4728064797818660736083984375"><ele></ele><time>2020-9-19T11:52:15Z</time></trkpt>
<trkpt lat="46.314294822514057159423828125" lon="7.47283053584396839141845703125"><ele></ele><time>2020-9-19T11:52:18Z</time></trkpt>
<trkpt lat="46.31430379115045070648193359375" lon="7.4728540889918804168701171875"><ele></ele><time>2020-9-19T11:52:21Z</time></trkpt>
<trkpt lat="46.31431393325328826904296875" lon="7.47287571430206298828125"><ele></ele><time>2020-9-19T11:52:24Z</time></trkpt>
<trkpt lat="46.314322315156459808349609375" lon="7.47289675287902355194091796875"><ele></ele><time>2020-9-19T11:52:27Z</time></trkpt>
<trkpt lat="46.3143288530409336090087890625" lon="7.47291787527501583099365234375"><ele></ele><time>2020-9-19T11:52:30Z</time></trkpt>
<trkpt lat="46.3143345527350902557373046875" lon="7.4729375727474689483642578125"><ele></ele><time>2020-9-19T11:52:33Z</time></trkpt>
<trkpt lat="46.3143436051905155181884765625" lon="7.472957186400890350341796875"><ele></ele><time>2020-9-19T11:52:36Z</time></trkpt>
<trkpt lat="46.314348466694355010986328125" lon="7.47297470457851886749267578125"><ele></ele><time>2020-9-19T11:52:39Z</time></trkpt>
<trkpt lat="46.3143523223698139190673828125" lon="7.47299146838486194610595703125"><ele></ele><time>2020-9-19T11:52:42Z</time></trkpt>
<trkpt lat="46.314358524978160858154296875" lon="7.4730084836483001708984375"><ele></ele><time>2020-9-19T11:52:45Z</time></trkpt>
<trkpt lat="46.31436581723392009735107421875" lon="7.47302499599754810333251953125"><ele></ele><time>2020-9-19T11:52:48Z</time></trkpt>
<trkpt lat="46.31437134929001331329345703125" lon="7.47303991578519344329833984375"><ele></ele><time>2020-9-19T11:52:51Z</time></trkpt>
<trkpt lat="46.3143791444599628448486328125" lon="7.4730542488396167755126953125"><ele></ele><time>2020-9-19T11:52:54Z</time></trkpt>
<trkpt lat="46.31438434123992919921875" lon="7.4730720184743404388427734375"><ele></ele><time>2020-9-19T11:52:57Z</time></trkpt>
<trkpt lat="46.3143915496766567230224609375" lon="7.47309205122292041778564453125"><ele></ele><time>2020-9-19T11:53:0Z</time></trkpt>
<trkpt lat="46.31439733318984508514404296875" lon="7.47311401180922985076904296875"><ele></ele><time>2020-9-19T11:53:3Z</time></trkpt>
<trkpt lat="46.31440185941755771636962890625" lon="7.473134882748126983642578125"><ele></ele><time>2020-9-19T11:53:6Z</time></trkpt>
<trkpt lat="46.31441158242523670196533203125" lon="7.47315256856381893157958984375"><ele></ele><time>2020-9-19T11:53:9Z</time></trkpt>
<trkpt lat="46.31441677920520305633544921875" lon="7.47317117638885974884033203125"><ele></ele><time>2020-9-19T11:53:12Z</time></trkpt>
<trkpt lat="46.31442164070904254913330078125" lon="7.47319062240421772003173828125"><ele></ele><time>2020-9-19T11:53:15Z</time></trkpt>
<trkpt lat="46.31442926824092864990234375" lon="7.47320906259119510650634765625"><ele></ele><time>2020-9-19T11:53:18Z</time></trkpt>
<trkpt lat="46.31443622522056102752685546875" lon="7.47322641313076019287109375"><ele></ele><time>2020-9-19T11:53:21Z</time></trkpt>
<trkpt lat="46.31444267928600311279296875" lon="7.47324518859386444091796875"><ele></ele><time>2020-9-19T11:53:24Z</time></trkpt>
<trkpt lat="46.31445072591304779052734375" lon="7.47326337732374668121337890625"><ele></ele><time>2020-9-19T11:53:27Z</time></trkpt>
<trkpt lat="46.31445567123591899871826171875" lon="7.473286427557468414306640625"><ele></ele><time>2020-9-19T11:53:30Z</time></trkpt>
<trkpt lat="46.314464472234249114990234375" lon="7.47330629266798496246337890625"><ele></ele><time>2020-9-19T11:53:33Z</time></trkpt>
<trkpt lat="46.31446975283324718475341796875" lon="7.47333060018718242645263671875"><ele></ele><time>2020-9-19T11:53:36Z</time></trkpt>
<trkpt lat="46.314475201070308685302734375" lon="7.4733573384582996368408203125"><ele></ele><time>2020-9-19T11:53:39Z</time></trkpt>
<trkpt lat="46.31447863765060901641845703125" lon="7.473383657634258270263671875"><ele></ele><time>2020-9-19T11:53:42Z</time></trkpt>
<trkpt lat="46.3144857622683048248291015625" lon="7.47341022826731204986572265625"><ele></ele><time>2020-9-19T11:53:45Z</time></trkpt>
<trkpt lat="46.31449288688600063323974609375" lon="7.4734381400048732757568359375"><ele></ele><time>2020-9-19T11:53:48Z</time></trkpt>
<trkpt lat="46.3145015202462673187255859375" lon="7.473463118076324462890625"><ele></ele><time>2020-9-19T11:53:51Z</time></trkpt>
<trkpt lat="46.314509399235248565673828125" lon="7.4734914489090442657470703125"><ele></ele><time>2020-9-19T11:53:54Z</time></trkpt>
<trkpt lat="46.31451752968132495880126953125" lon="7.47352053411304950714111328125"><ele></ele><time>2020-9-19T11:53:57Z</time></trkpt>
<trkpt lat="46.3145223073661327362060546875" lon="7.47354668565094470977783203125"><ele></ele><time>2020-9-19T11:54:0Z</time></trkpt>
<trkpt lat="46.31452716886997222900390625" lon="7.47357501648366451263427734375"><ele></ele><time>2020-9-19T11:54:3Z</time></trkpt>
<trkpt lat="46.31452959962189197540283203125" lon="7.473604269325733184814453125"><ele></ele><time>2020-9-19T11:54:6Z</time></trkpt>
<trkpt lat="46.31453144364058971405029296875" lon="7.4736372940242290496826171875"><ele></ele><time>2020-9-19T11:54:9Z</time></trkpt>
<trkpt lat="46.314531527459621429443359375" lon="7.473672665655612945556640625"><ele></ele><time>2020-9-19T11:54:12Z</time></trkpt>
<trkpt lat="46.3145313598215579986572265625" lon="7.473704852163791656494140625"><ele></ele><time>2020-9-19T11:54:15Z</time></trkpt>
<trkpt lat="46.3145340420305728912353515625" lon="7.47373745776712894439697265625"><ele></ele><time>2020-9-19T11:54:18Z</time></trkpt>
<trkpt lat="46.3145363889634609222412109375" lon="7.4737683869898319244384765625"><ele></ele><time>2020-9-19T11:54:21Z</time></trkpt>
<trkpt lat="46.31453881971538066864013671875" lon="7.4737985618412494659423828125"><ele></ele><time>2020-9-19T11:54:24Z</time></trkpt>
<trkpt lat="46.314541585743427276611328125" lon="7.47383099980652332305908203125"><ele></ele><time>2020-9-19T11:54:27Z</time></trkpt>
<trkpt lat="46.31454451940953731536865234375" lon="7.47386268340051174163818359375"><ele></ele><time>2020-9-19T11:54:30Z</time></trkpt>
<trkpt lat="46.31454854272305965423583984375" lon="7.47389604337513446807861328125"><ele></ele><time>2020-9-19T11:54:33Z</time></trkpt>
<trkpt lat="46.31455156020820140838623046875" lon="7.473930157721042633056640625"><ele></ele><time>2020-9-19T11:54:36Z</time></trkpt>
<trkpt lat="46.31455541588366031646728515625" lon="7.4739648588001728057861328125"><ele></ele><time>2020-9-19T11:54:39Z</time></trkpt>
<trkpt lat="46.3145573437213897705078125" lon="7.4739987216889858245849609375"><ele></ele><time>2020-9-19T11:54:42Z</time></trkpt>
<trkpt lat="46.3145618699491024017333984375" lon="7.47403400950133800506591796875"><ele></ele><time>2020-9-19T11:54:45Z</time></trkpt>
<trkpt lat="46.3145668990910053253173828125" lon="7.4740651063621044158935546875"><ele></ele><time>2020-9-19T11:54:48Z</time></trkpt>
<trkpt lat="46.314570419490337371826171875" lon="7.47409754432737827301025390625"><ele></ele><time>2020-9-19T11:54:51Z</time></trkpt>
<trkpt lat="46.314577125012874603271484375" lon="7.47413191013038158416748046875"><ele></ele><time>2020-9-19T11:54:54Z</time></trkpt>
<trkpt lat="46.314584501087665557861328125" lon="7.4741643480956554412841796875"><ele></ele><time>2020-9-19T11:54:57Z</time></trkpt>
<trkpt lat="46.3145913742482662200927734375" lon="7.47419376857578754425048828125"><ele></ele><time>2020-9-19T11:55:0Z</time></trkpt>
<trkpt lat="46.3145997561514377593994140625" lon="7.47421841137111186981201171875"><ele></ele><time>2020-9-19T11:55:3Z</time></trkpt>
<trkpt lat="46.314609311521053314208984375" lon="7.47424372471868991851806640625"><ele></ele><time>2020-9-19T11:55:6Z</time></trkpt>
<trkpt lat="46.3146185316145420074462890625" lon="7.47427289374172687530517578125"><ele></ele><time>2020-9-19T11:55:9Z</time></trkpt>
<trkpt lat="46.314631439745426177978515625" lon="7.4743011407554149627685546875"><ele></ele><time>2020-9-19T11:55:12Z</time></trkpt>
<trkpt lat="46.3146463595330715179443359375" lon="7.474328465759754180908203125"><ele></ele><time>2020-9-19T11:55:15Z</time></trkpt>
<trkpt lat="46.31465725600719451904296875" lon="7.4743541143834590911865234375"><ele></ele><time>2020-9-19T11:55:18Z</time></trkpt>
<trkpt lat="46.31467158906161785125732421875" lon="7.4743782542645931243896484375"><ele></ele><time>2020-9-19T11:55:21Z</time></trkpt>
<trkpt lat="46.31468784995377063751220703125" lon="7.4744030646979808807373046875"><ele></ele><time>2020-9-19T11:55:24Z</time></trkpt>
<trkpt lat="46.31470411084592342376708984375" lon="7.47442510910332202911376953125"><ele></ele><time>2020-9-19T11:55:27Z</time></trkpt>
<trkpt lat="46.31471819244325160980224609375" lon="7.4744515120983123779296875"><ele></ele><time>2020-9-19T11:55:30Z</time></trkpt>
<trkpt lat="46.3147352077066898345947265625" lon="7.4744774959981441497802734375"><ele></ele><time>2020-9-19T11:55:33Z</time></trkpt>
<trkpt lat="46.31475356407463550567626953125" lon="7.4745051562786102294921875"><ele></ele><time>2020-9-19T11:55:36Z</time></trkpt>
<trkpt lat="46.3147700764238834381103515625" lon="7.47453575022518634796142578125"><ele></ele><time>2020-9-19T11:55:39Z</time></trkpt>
<trkpt lat="46.31478734314441680908203125" lon="7.474561147391796112060546875"><ele></ele><time>2020-9-19T11:55:42Z</time></trkpt>
<trkpt lat="46.31480611860752105712890625" lon="7.47458226978778839111328125"><ele></ele><time>2020-9-19T11:55:45Z</time></trkpt>
<trkpt lat="46.31482145749032497406005859375" lon="7.47460498474538326263427734375"><ele></ele><time>2020-9-19T11:55:48Z</time></trkpt>
<trkpt lat="46.314838640391826629638671875" lon="7.474623508751392364501953125"><ele></ele><time>2020-9-19T11:55:51Z</time></trkpt>
<trkpt lat="46.3148550689220428466796875" lon="7.4746392667293548583984375"><ele></ele><time>2020-9-19T11:55:54Z</time></trkpt>
<trkpt lat="46.31487007252871990203857421875" lon="7.47465443797409534454345703125"><ele></ele><time>2020-9-19T11:55:57Z</time></trkpt>
<trkpt lat="46.31488583050668239593505859375" lon="7.474672794342041015625"><ele></ele><time>2020-9-19T11:56:0Z</time></trkpt>
<trkpt lat="46.3149035163223743438720703125" lon="7.4746914021670818328857421875"><ele></ele><time>2020-9-19T11:56:3Z</time></trkpt>
<trkpt lat="46.314919777214527130126953125" lon="7.47471864335238933563232421875"><ele></ele><time>2020-9-19T11:56:6Z</time></trkpt>
<trkpt lat="46.31493595428764820098876953125" lon="7.47474320232868194580078125"><ele></ele><time>2020-9-19T11:56:9Z</time></trkpt>
<trkpt lat="46.314950287342071533203125" lon="7.47476323507726192474365234375"><ele></ele><time>2020-9-19T11:56:12Z</time></trkpt>
<trkpt lat="46.3149635307490825653076171875" lon="7.4747822619974613189697265625"><ele></ele><time>2020-9-19T11:56:15Z</time></trkpt>
<trkpt lat="46.31497769616544246673583984375" lon="7.47479684650897979736328125"><ele></ele><time>2020-9-19T11:56:18Z</time></trkpt>
<trkpt lat="46.314990185201168060302734375" lon="7.474811263382434844970703125"><ele></ele><time>2020-9-19T11:56:21Z</time></trkpt>
<trkpt lat="46.31500267423689365386962890625" lon="7.4748243391513824462890625"><ele></ele><time>2020-9-19T11:56:24Z</time></trkpt>
<trkpt lat="46.31501424126327037811279296875" lon="7.474837414920330047607421875"><ele></ele><time>2020-9-19T11:56:27Z</time></trkpt>
<trkpt lat="46.315025724470615386962890625" lon="7.47485174797475337982177734375"><ele></ele><time>2020-9-19T11:56:30Z</time></trkpt>
<trkpt lat="46.3150382973253726959228515625" lon="7.47486566193401813507080078125"><ele></ele><time>2020-9-19T11:56:33Z</time></trkpt>
<trkpt lat="46.3150508701801300048828125" lon="7.47487924061715602874755859375"><ele></ele><time>2020-9-19T11:56:36Z</time></trkpt>
<trkpt lat="46.3150627724826335906982421875" lon="7.47489633969962596893310546875"><ele></ele><time>2020-9-19T11:56:39Z</time></trkpt>
<trkpt lat="46.31507475860416889190673828125" lon="7.47491394169628620147705078125"><ele></ele><time>2020-9-19T11:56:42Z</time></trkpt>
<trkpt lat="46.31508749909698963165283203125" lon="7.4749311245977878570556640625"><ele></ele><time>2020-9-19T11:56:45Z</time></trkpt>
<trkpt lat="46.3151013292372226715087890625" lon="7.4749477207660675048828125"><ele></ele><time>2020-9-19T11:56:48Z</time></trkpt>
<trkpt lat="46.3151150755584239959716796875" lon="7.4749626405537128448486328125"><ele></ele><time>2020-9-19T11:56:51Z</time></trkpt>
<trkpt lat="46.31512756459414958953857421875" lon="7.47498099692165851593017578125"><ele></ele><time>2020-9-19T11:56:54Z</time></trkpt>
<trkpt lat="46.31514072418212890625" lon="7.4749934859573841094970703125"><ele></ele><time>2020-9-19T11:56:57Z</time></trkpt>
<trkpt lat="46.31515338085591793060302734375" lon="7.47500597499310970306396484375"><ele></ele><time>2020-9-19T11:57:0Z</time></trkpt>
<trkpt lat="46.315165869891643524169921875" lon="7.47501888312399387359619140625"><ele></ele><time>2020-9-19T11:57:3Z</time></trkpt>
<trkpt lat="46.31517894566059112548828125" lon="7.47502885758876800537109375"><ele></ele><time>2020-9-19T11:57:6Z</time></trkpt>
<trkpt lat="46.31519327871501445770263671875" lon="7.47503732331097126007080078125"><ele></ele><time>2020-9-19T11:57:9Z</time></trkpt>
<trkpt lat="46.3152064383029937744140625" lon="7.47504905797541141510009765625"><ele></ele><time>2020-9-19T11:57:12Z</time></trkpt>
<trkpt lat="46.31522051990032196044921875" lon="7.4750578589737415313720703125"><ele></ele><time>2020-9-19T11:57:15Z</time></trkpt>
<trkpt lat="46.3152344338595867156982421875" lon="7.4750675819814205169677734375"><ele></ele><time>2020-9-19T11:57:18Z</time></trkpt>
<trkpt lat="46.3152461685240268707275390625" lon="7.4750783108174800872802734375"><ele></ele><time>2020-9-19T11:57:21Z</time></trkpt>
<trkpt lat="46.31525949575006961822509765625" lon="7.47508476488292217254638671875"><ele></ele><time>2020-9-19T11:57:24Z</time></trkpt>
<trkpt lat="46.3152726553380489349365234375" lon="7.47508795000612735748291015625"><ele></ele><time>2020-9-19T11:57:27Z</time></trkpt>
<trkpt lat="46.31528581492602825164794921875" lon="7.4750900454819202423095703125"><ele></ele><time>2020-9-19T11:57:30Z</time></trkpt>
<trkpt lat="46.3152974657714366912841796875" lon="7.47509398497641086578369140625"><ele></ele><time>2020-9-19T11:57:33Z</time></trkpt>
<trkpt lat="46.315311379730701446533203125" lon="7.47509398497641086578369140625"><ele></ele><time>2020-9-19T11:57:36Z</time></trkpt>
<trkpt lat="46.31532638333737850189208984375" lon="7.475093901157379150390625"><ele></ele><time>2020-9-19T11:57:39Z</time></trkpt>
<trkpt lat="46.3153397105634212493896484375" lon="7.4750933982431888580322265625"><ele></ele><time>2020-9-19T11:57:42Z</time></trkpt>
<trkpt lat="46.31535588763654232025146484375" lon="7.4750920571386814117431640625"><ele></ele><time>2020-9-19T11:57:45Z</time></trkpt>
<trkpt lat="46.31537063978612422943115234375" lon="7.475092895328998565673828125"><ele></ele><time>2020-9-19T11:57:48Z</time></trkpt>
<trkpt lat="46.3153849728405475616455078125" lon="7.47509180568158626556396484375"><ele></ele><time>2020-9-19T11:57:51Z</time></trkpt>
<trkpt lat="46.3154000602662563323974609375" lon="7.47509188950061798095703125"><ele></ele><time>2020-9-19T11:57:54Z</time></trkpt>
<trkpt lat="46.3154161535203456878662109375" lon="7.47509582899510860443115234375"><ele></ele><time>2020-9-19T11:57:57Z</time></trkpt>
<trkpt lat="46.31543199531733989715576171875" lon="7.4750997684895992279052734375"><ele></ele><time>2020-9-19T11:58:0Z</time></trkpt>
<trkpt lat="46.31544624455273151397705078125" lon="7.4751017801463603973388671875"><ele></ele><time>2020-9-19T11:58:3Z</time></trkpt>
<trkpt lat="46.31545747630298137664794921875" lon="7.4751064740121364593505859375"><ele></ele><time>2020-9-19T11:58:6Z</time></trkpt>
<trkpt lat="46.3154714740812778472900390625" lon="7.47510521672666072845458984375"><ele></ele><time>2020-9-19T11:58:9Z</time></trkpt>
<trkpt lat="46.31548731587827205657958984375" lon="7.475101947784423828125"><ele></ele><time>2020-9-19T11:58:12Z</time></trkpt>
<trkpt lat="46.31550156511366367340087890625" lon="7.4751001037657260894775390625"><ele></ele><time>2020-9-19T11:58:15Z</time></trkpt>
<trkpt lat="46.3155148923397064208984375" lon="7.47510018758475780487060546875"><ele></ele><time>2020-9-19T11:58:18Z</time></trkpt>
<trkpt lat="46.31552905775606632232666015625" lon="7.47510152868926525115966796875"><ele></ele><time>2020-9-19T11:58:21Z</time></trkpt>
<trkpt lat="46.3155443966388702392578125" lon="7.47510186396539211273193359375"><ele></ele><time>2020-9-19T11:58:24Z</time></trkpt>
<trkpt lat="46.3155599869787693023681640625" lon="7.47510136105120182037353515625"><ele></ele><time>2020-9-19T11:58:27Z</time></trkpt>
<trkpt lat="46.31557499058544635772705078125" lon="7.47510169632732868194580078125"><ele></ele><time>2020-9-19T11:58:30Z</time></trkpt>
<trkpt lat="46.3155901618301868438720703125" lon="7.47510203160345554351806640625"><ele></ele><time>2020-9-19T11:58:33Z</time></trkpt>
<trkpt lat="46.31560566835105419158935546875" lon="7.4751001037657260894775390625"><ele></ele><time>2020-9-19T11:58:36Z</time></trkpt>
<trkpt lat="46.31562151014804840087890625" lon="7.47510102577507495880126953125"><ele></ele><time>2020-9-19T11:58:39Z</time></trkpt>
<trkpt lat="46.31563894450664520263671875" lon="7.47509985230863094329833984375"><ele></ele><time>2020-9-19T11:58:42Z</time></trkpt>
<trkpt lat="46.31565637886524200439453125" lon="7.4751007743179798126220703125"><ele></ele><time>2020-9-19T11:58:45Z</time></trkpt>
<trkpt lat="46.3156758248805999755859375" lon="7.47510270215570926666259765625"><ele></ele><time>2020-9-19T11:58:48Z</time></trkpt>
<trkpt lat="46.3156964443624019622802734375" lon="7.47509658336639404296875"><ele></ele><time>2020-9-19T11:58:51Z</time></trkpt>
<trkpt lat="46.31571672856807708740234375" lon="7.47508786618709564208984375"><ele></ele><time>2020-9-19T11:58:54Z</time></trkpt>
<trkpt lat="46.3157363422214984893798828125" lon="7.4750776402652263641357421875"><ele></ele><time>2020-9-19T11:58:57Z</time></trkpt>
<trkpt lat="46.31575553677976131439208984375" lon="7.47506548650562763214111328125"><ele></ele><time>2020-9-19T11:59:0Z</time></trkpt>
<trkpt lat="46.315774060785770416259765625" lon="7.47505123727023601531982421875"><ele></ele><time>2020-9-19T11:59:3Z</time></trkpt>
<trkpt lat="46.3157926686108112335205078125" lon="7.475034557282924652099609375"><ele></ele><time>2020-9-19T11:59:6Z</time></trkpt>
<trkpt lat="46.315810270607471466064453125" lon="7.475017793476581573486328125"><ele></ele><time>2020-9-19T11:59:9Z</time></trkpt>
<trkpt lat="46.31582678295671939849853515625" lon="7.47499910183250904083251953125"><ele></ele><time>2020-9-19T11:59:12Z</time></trkpt>
<trkpt lat="46.31584270857274532318115234375" lon="7.4749804101884365081787109375"><ele></ele><time>2020-9-19T11:59:15Z</time></trkpt>
<trkpt lat="46.31585829891264438629150390625" lon="7.474961467087268829345703125"><ele></ele><time>2020-9-19T11:59:18Z</time></trkpt>
<trkpt lat="46.31587254814803600311279296875" lon="7.47494034469127655029296875"><ele></ele><time>2020-9-19T11:59:21Z</time></trkpt>
<trkpt lat="46.315887384116649627685546875" lon="7.4749177135527133941650390625"><ele></ele><time>2020-9-19T11:59:24Z</time></trkpt>
<trkpt lat="46.315902136266231536865234375" lon="7.47489768080413341522216796875"><ele></ele><time>2020-9-19T11:59:27Z</time></trkpt>
<trkpt lat="46.315916888415813446044921875" lon="7.474877648055553436279296875"><ele></ele><time>2020-9-19T11:59:30Z</time></trkpt>
<trkpt lat="46.3159311376512050628662109375" lon="7.4748573638498783111572265625"><ele></ele><time>2020-9-19T11:59:33Z</time></trkpt>
<trkpt lat="46.315945051610469818115234375" lon="7.4748369120061397552490234375"><ele></ele><time>2020-9-19T11:59:36Z</time></trkpt>
<trkpt lat="46.3159582950174808502197265625" lon="7.4748167954385280609130859375"><ele></ele><time>2020-9-19T11:59:39Z</time></trkpt>
<trkpt lat="46.31597111932933330535888671875" lon="7.47479558922350406646728515625"><ele></ele><time>2020-9-19T11:59:42Z</time></trkpt>
<trkpt lat="46.315984614193439483642578125" lon="7.47477681376039981842041015625"><ele></ele><time>2020-9-19T11:59:45Z</time></trkpt>
<trkpt lat="46.3159965164959430694580078125" lon="7.474760301411151885986328125"><ele></ele><time>2020-9-19T11:59:48Z</time></trkpt>
<trkpt lat="46.3160069100558757781982421875" lon="7.47474320232868194580078125"><ele></ele><time>2020-9-19T11:59:51Z</time></trkpt>
<trkpt lat="46.316018141806125640869140625" lon="7.4747259356081485748291015625"><ele></ele><time>2020-9-19T11:59:54Z</time></trkpt>
<trkpt lat="46.31602895446121692657470703125" lon="7.4747074954211711883544921875"><ele></ele><time>2020-9-19T11:59:57Z</time></trkpt>
<trkpt lat="46.31603968329727649688720703125" lon="7.4746873788535594940185546875"><ele></ele><time>2020-9-19T12:0:0Z</time></trkpt>
<trkpt lat="46.31605108268558979034423828125" lon="7.47466751374304294586181640625"><ele></ele><time>2020-9-19T12:0:3Z</time></trkpt>
<trkpt lat="46.31606273353099822998046875" lon="7.47464907355606555938720703125"><ele></ele><time>2020-9-19T12:0:6Z</time></trkpt>
<trkpt lat="46.3160722889006137847900390625" lon="7.474630214273929595947265625"><ele></ele><time>2020-9-19T12:0:9Z</time></trkpt>
<trkpt lat="46.31607882678508758544921875" lon="7.47460909187793731689453125"><ele></ele><time>2020-9-19T12:0:12Z</time></trkpt>
<trkpt lat="46.31608419120311737060546875" lon="7.47458838857710361480712890625"><ele></ele><time>2020-9-19T12:0:15Z</time></trkpt>
<trkpt lat="46.3160888850688934326171875" lon="7.47456843964755535125732421875"><ele></ele><time>2020-9-19T12:0:18Z</time></trkpt>
<trkpt lat="46.316094584763050079345703125" lon="7.474549077451229095458984375"><ele></ele><time>2020-9-19T12:0:21Z</time></trkpt>
<trkpt lat="46.31610170938074588775634765625" lon="7.47453021816909313201904296875"><ele></ele><time>2020-9-19T12:0:24Z</time></trkpt>
<trkpt lat="46.31610925309360027313232421875" lon="7.47451060451567173004150390625"><ele></ele><time>2020-9-19T12:0:27Z</time></trkpt>
<trkpt lat="46.31611880846321582794189453125" lon="7.4744935892522335052490234375"><ele></ele><time>2020-9-19T12:0:30Z</time></trkpt>
<trkpt lat="46.3161282800137996673583984375" lon="7.47447573579847812652587890625"><ele></ele><time>2020-9-19T12:0:33Z</time></trkpt>
<trkpt lat="46.3161376677453517913818359375" lon="7.4744580499827861785888671875"><ele></ele><time>2020-9-19T12:0:36Z</time></trkpt>
<trkpt lat="46.3161463849246501922607421875" lon="7.47444103471934795379638671875"><ele></ele><time>2020-9-19T12:0:39Z</time></trkpt>
<trkpt lat="46.3161561079323291778564453125" lon="7.47442267835140228271484375"><ele></ele><time>2020-9-19T12:0:42Z</time></trkpt>
<trkpt lat="46.31616591475903987884521484375" lon="7.47440348379313945770263671875"><ele></ele><time>2020-9-19T12:0:45Z</time></trkpt>
<trkpt lat="46.3161742128431797027587890625" lon="7.47438303194940090179443359375"><ele></ele><time>2020-9-19T12:0:48Z</time></trkpt>
<trkpt lat="46.31618200801312923431396484375" lon="7.47436140663921833038330078125"><ele></ele><time>2020-9-19T12:0:51Z</time></trkpt>
<trkpt lat="46.31619005464017391204833984375" lon="7.4743402004241943359375"><ele></ele><time>2020-9-19T12:0:54Z</time></trkpt>
<trkpt lat="46.3161976821720600128173828125" lon="7.4743202514946460723876953125"><ele></ele><time>2020-9-19T12:0:57Z</time></trkpt>
<trkpt lat="46.31620497442781925201416015625" lon="7.474298961460590362548828125"><ele></ele><time>2020-9-19T12:1:0Z</time></trkpt>
<trkpt lat="46.31621134467422962188720703125" lon="7.47427758760750293731689453125"><ele></ele><time>2020-9-19T12:1:3Z</time></trkpt>
<trkpt lat="46.3162171281874179840087890625" lon="7.474256046116352081298828125"><ele></ele><time>2020-9-19T12:1:6Z</time></trkpt>
<trkpt lat="46.316224001348018646240234375" lon="7.47423467226326465606689453125"><ele></ele><time>2020-9-19T12:1:9Z</time></trkpt>
<trkpt lat="46.31622894667088985443115234375" lon="7.47421137057244777679443359375"><ele></ele><time>2020-9-19T12:1:12Z</time></trkpt>
<trkpt lat="46.316232047975063323974609375" lon="7.47418706305325031280517578125"><ele></ele><time>2020-9-19T12:1:15Z</time></trkpt>
<trkpt lat="46.3162352330982685089111328125" lon="7.474160827696323394775390625"><ele></ele><time>2020-9-19T12:1:18Z</time></trkpt>
<trkpt lat="46.31624001078307628631591796875" lon="7.4741378612816333770751953125"><ele></ele><time>2020-9-19T12:1:21Z</time></trkpt>
<trkpt lat="46.316243112087249755859375" lon="7.47411397285759449005126953125"><ele></ele><time>2020-9-19T12:1:24Z</time></trkpt>
<trkpt lat="46.31624503992497920989990234375" lon="7.4740862287580966949462890625"><ele></ele><time>2020-9-19T12:1:27Z</time></trkpt>
<trkpt lat="46.31624604575335979461669921875" lon="7.4740597419440746307373046875"><ele></ele><time>2020-9-19T12:1:30Z</time></trkpt>
<trkpt lat="46.31624235771596431732177734375" lon="7.47403065674006938934326171875"><ele></ele><time>2020-9-19T12:1:33Z</time></trkpt>
<trkpt lat="46.3162379153072834014892578125" lon="7.474007941782474517822265625"><ele></ele><time>2020-9-19T12:1:36Z</time></trkpt>
<trkpt lat="46.3162355683743953704833984375" lon="7.4739843048155307769775390625"><ele></ele><time>2020-9-19T12:1:39Z</time></trkpt>
<trkpt lat="46.3162335567176342010498046875" lon="7.47395790182054042816162109375"><ele></ele><time>2020-9-19T12:1:42Z</time></trkpt>
<trkpt lat="46.316230036318302154541015625" lon="7.47393183410167694091796875"><ele></ele><time>2020-9-19T12:1:45Z</time></trkpt>
<trkpt lat="46.3162261806428432464599609375" lon="7.4739071913063526153564453125"><ele></ele><time>2020-9-19T12:1:48Z</time></trkpt>
<trkpt lat="46.3162243366241455078125" lon="7.473881542682647705078125"><ele></ele><time>2020-9-19T12:1:51Z</time></trkpt>
<trkpt lat="46.31622224114835262298583984375" lon="7.4738562293350696563720703125"><ele></ele><time>2020-9-19T12:1:54Z</time></trkpt>
<trkpt lat="46.3162181340157985687255859375" lon="7.47383653186261653900146484375"><ele></ele><time>2020-9-19T12:1:57Z</time></trkpt>
<trkpt lat="46.31621385924518108367919921875" lon="7.47381792403757572174072265625"><ele></ele><time>2020-9-19T12:2:0Z</time></trkpt>
<trkpt lat="46.316211260855197906494140625" lon="7.47379814274609088897705078125"><ele></ele><time>2020-9-19T12:2:3Z</time></trkpt>
<trkpt lat="46.316210925579071044921875" lon="7.473775930702686309814453125"><ele></ele><time>2020-9-19T12:2:6Z</time></trkpt>
<trkpt lat="46.31621033884584903717041015625" lon="7.4737563170492649078369140625"><ele></ele><time>2020-9-19T12:2:9Z</time></trkpt>
<trkpt lat="46.31620413623750209808349609375" lon="7.473734356462955474853515625"><ele></ele><time>2020-9-19T12:2:12Z</time></trkpt>
<trkpt lat="46.3161990232765674591064453125" lon="7.47371264733374118804931640625"><ele></ele><time>2020-9-19T12:2:15Z</time></trkpt>
<trkpt lat="46.3161966763436794281005859375" lon="7.47369102202355861663818359375"><ele></ele><time>2020-9-19T12:2:18Z</time></trkpt>
<trkpt lat="46.31619508378207683563232421875" lon="7.4736683070659637451171875"><ele></ele><time>2020-9-19T12:2:21Z</time></trkpt>
<trkpt lat="46.316191814839839935302734375" lon="7.4736439995467662811279296875"><ele></ele><time>2020-9-19T12:2:24Z</time></trkpt>
<trkpt lat="46.316188462078571319580078125" lon="7.47361860238015651702880859375"><ele></ele><time>2020-9-19T12:2:27Z</time></trkpt>
<trkpt lat="46.31618469022214412689208984375" lon="7.4735933728516101837158203125"><ele></ele><time>2020-9-19T12:2:30Z</time></trkpt>
<trkpt lat="46.3161809183657169342041015625" lon="7.473568730056285858154296875"><ele></ele><time>2020-9-19T12:2:33Z</time></trkpt>
<trkpt lat="46.31617547012865543365478515625" lon="7.47354484163224697113037109375"><ele></ele><time>2020-9-19T12:2:36Z</time></trkpt>
<trkpt lat="46.3161752186715602874755859375" lon="7.4735199473798274993896484375"><ele></ele><time>2020-9-19T12:2:39Z</time></trkpt>
<trkpt lat="46.3161762244999408721923828125" lon="7.4734924547374248504638671875"><ele></ele><time>2020-9-19T12:2:42Z</time></trkpt>
<trkpt lat="46.31617672741413116455078125" lon="7.47346705757081508636474609375"><ele></ele><time>2020-9-19T12:2:45Z</time></trkpt>
<trkpt lat="46.316175721585750579833984375" lon="7.4734414927661418914794921875"><ele></ele><time>2020-9-19T12:2:48Z</time></trkpt>
<trkpt lat="46.316175721585750579833984375" lon="7.47341659851372241973876953125"><ele></ele><time>2020-9-19T12:2:51Z</time></trkpt>
<trkpt lat="46.316174380481243133544921875" lon="7.4733888544142246246337890625"><ele></ele><time>2020-9-19T12:2:54Z</time></trkpt>
<trkpt lat="46.3161708600819110870361328125" lon="7.47336328960955142974853515625"><ele></ele><time>2020-9-19T12:2:57Z</time></trkpt>
<trkpt lat="46.31617002189159393310546875" lon="7.473337389528751373291015625"><ele></ele><time>2020-9-19T12:3:0Z</time></trkpt>
<trkpt lat="46.316169016063213348388671875" lon="7.47331014834344387054443359375"><ele></ele><time>2020-9-19T12:3:3Z</time></trkpt>
<trkpt lat="46.31616859696805477142333984375" lon="7.4732842482626438140869140625"><ele></ele><time>2020-9-19T12:3:6Z</time></trkpt>
<trkpt lat="46.31616993807256221771240234375" lon="7.47325994074344635009765625"><ele></ele><time>2020-9-19T12:3:9Z</time></trkpt>
<trkpt lat="46.316169686615467071533203125" lon="7.47323169372975826263427734375"><ele></ele><time>2020-9-19T12:3:12Z</time></trkpt>
<trkpt lat="46.31617002189159393310546875" lon="7.47320202179253101348876953125"><ele></ele><time>2020-9-19T12:3:15Z</time></trkpt>
<trkpt lat="46.31617136299610137939453125" lon="7.4731729365885257720947265625"><ele></ele><time>2020-9-19T12:3:18Z</time></trkpt>
<trkpt lat="46.31617278791964054107666015625" lon="7.473144270479679107666015625"><ele></ele><time>2020-9-19T12:3:21Z</time></trkpt>
<trkpt lat="46.31617547012865543365478515625" lon="7.47311434708535671234130859375"><ele></ele><time>2020-9-19T12:3:24Z</time></trkpt>
<trkpt lat="46.31618334911763668060302734375" lon="7.47309154830873012542724609375"><ele></ele><time>2020-9-19T12:3:27Z</time></trkpt>
<trkpt lat="46.31619416177272796630859375" lon="7.47307159937918186187744140625"><ele></ele><time>2020-9-19T12:3:30Z</time></trkpt>
<trkpt lat="46.31620363332331180572509765625" lon="7.4730512313544750213623046875"><ele></ele><time>2020-9-19T12:3:33Z</time></trkpt>
<trkpt lat="46.31621218286454677581787109375" lon="7.473032958805561065673828125"><ele></ele><time>2020-9-19T12:3:36Z</time></trkpt>
<trkpt lat="46.31622232496738433837890625" lon="7.47301862575113773345947265625"><ele></ele><time>2020-9-19T12:3:39Z</time></trkpt>
<trkpt lat="46.3162308745086193084716796875" lon="7.47300873510539531707763671875"><ele></ele><time>2020-9-19T12:3:42Z</time></trkpt>
<trkpt lat="46.31624202243983745574951171875" lon="7.47299649752676486968994140625"><ele></ele><time>2020-9-19T12:3:45Z</time></trkpt>
<trkpt lat="46.31625308655202388763427734375" lon="7.47298509813845157623291015625"><ele></ele><time>2020-9-19T12:3:48Z</time></trkpt>
<trkpt lat="46.3162664137780666351318359375" lon="7.47298157773911952972412109375"><ele></ele><time>2020-9-19T12:3:51Z</time></trkpt>
<trkpt lat="46.316278986632823944091796875" lon="7.47299029491841793060302734375"><ele></ele><time>2020-9-19T12:3:54Z</time></trkpt>
<trkpt lat="46.316291727125644683837890625" lon="7.47300538234412670135498046875"><ele></ele><time>2020-9-19T12:3:57Z</time></trkpt>
<trkpt lat="46.31630253978073596954345703125" lon="7.4730237387120723724365234375"><ele></ele><time>2020-9-19T12:4:0Z</time></trkpt>
<trkpt lat="46.31631310097873210906982421875" lon="7.47304243035614490509033203125"><ele></ele><time>2020-9-19T12:4:3Z</time></trkpt>
<trkpt lat="46.31632399745285511016845703125" lon="7.4730612896382808685302734375"><ele></ele><time>2020-9-19T12:4:6Z</time></trkpt>
<trkpt lat="46.3163334690034389495849609375" lon="7.473079226911067962646484375"><ele></ele><time>2020-9-19T12:4:9Z</time></trkpt>
<trkpt lat="46.31634361110627651214599609375" lon="7.47309573926031589508056640625"><ele></ele><time>2020-9-19T12:4:12Z</time></trkpt>
<trkpt lat="46.3163532502949237823486328125" lon="7.47311250306665897369384765625"><ele></ele><time>2020-9-19T12:4:15Z</time></trkpt>
<trkpt lat="46.3163612969219684600830078125" lon="7.47312759049236774444580078125"><ele></ele><time>2020-9-19T12:4:18Z</time></trkpt>
<trkpt lat="46.31636909209191799163818359375" lon="7.473144941031932830810546875"><ele></ele><time>2020-9-19T12:4:21Z</time></trkpt>
<trkpt lat="46.31637579761445522308349609375" lon="7.47316665016114711761474609375"><ele></ele><time>2020-9-19T12:4:24Z</time></trkpt>
<trkpt lat="46.3163834251463413238525390625" lon="7.47318777255713939666748046875"><ele></ele><time>2020-9-19T12:4:27Z</time></trkpt>
<trkpt lat="46.31639071740210056304931640625" lon="7.473209314048290252685546875"><ele></ele><time>2020-9-19T12:4:30Z</time></trkpt>
<trkpt lat="46.3163973391056060791015625" lon="7.47323043644428253173828125"><ele></ele><time>2020-9-19T12:4:33Z</time></trkpt>
<trkpt lat="46.31640605628490447998046875" lon="7.47324946336448192596435546875"><ele></ele><time>2020-9-19T12:4:36Z</time></trkpt>
<trkpt lat="46.3164156116545200347900390625" lon="7.4732681550085544586181640625"><ele></ele><time>2020-9-19T12:4:39Z</time></trkpt>
<trkpt lat="46.31642558611929416656494140625" lon="7.473286427557468414306640625"><ele></ele><time>2020-9-19T12:4:42Z</time></trkpt>
<trkpt lat="46.31643530912697315216064453125" lon="7.473304532468318939208984375"><ele></ele><time>2020-9-19T12:4:45Z</time></trkpt>
<trkpt lat="46.31644419394433498382568359375" lon="7.47332322411239147186279296875"><ele></ele><time>2020-9-19T12:4:48Z</time></trkpt>
<trkpt lat="46.31645240820944309234619140625" lon="7.47334308922290802001953125"><ele></ele><time>2020-9-19T12:4:51Z</time></trkpt>
<trkpt lat="46.31645911373198032379150390625" lon="7.47336513362824916839599609375"><ele></ele><time>2020-9-19T12:4:54Z</time></trkpt>
<trkpt lat="46.31646682508289813995361328125" lon="7.4733848311007022857666015625"><ele></ele><time>2020-9-19T12:4:57Z</time></trkpt>
<trkpt lat="46.31647805683314800262451171875" lon="7.4733999185264110565185546875"><ele></ele><time>2020-9-19T12:5:0Z</time></trkpt>
<trkpt lat="46.31648920476436614990234375" lon="7.47341374866664409637451171875"><ele></ele><time>2020-9-19T12:5:3Z</time></trkpt>
<trkpt lat="46.31649725139141082763671875" lon="7.4734322726726531982421875"><ele></ele><time>2020-9-19T12:5:6Z</time></trkpt>
<trkpt lat="46.316503621637821197509765625" lon="7.4734505452215671539306640625"><ele></ele><time>2020-9-19T12:5:9Z</time></trkpt>
<trkpt lat="46.31650873459875583648681640625" lon="7.47346873395144939422607421875"><ele></ele><time>2020-9-19T12:5:12Z</time></trkpt>
<trkpt lat="46.316515021026134490966796875" lon="7.47348683886229991912841796875"><ele></ele><time>2020-9-19T12:5:15Z</time></trkpt>
<trkpt lat="46.31652113981544971466064453125" lon="7.47350326739251613616943359375"><ele></ele><time>2020-9-19T12:5:18Z</time></trkpt>
<trkpt lat="46.31652700714766979217529296875" lon="7.47352237813174724578857421875"><ele></ele><time>2020-9-19T12:5:21Z</time></trkpt>
<trkpt lat="46.3165341317653656005859375" lon="7.47354551218450069427490234375"><ele></ele><time>2020-9-19T12:5:24Z</time></trkpt>
<trkpt lat="46.31654226221144199371337890625" lon="7.4735675565898418426513671875"><ele></ele><time>2020-9-19T12:5:27Z</time></trkpt>
<trkpt lat="46.31654812954366207122802734375" lon="7.473587505519390106201171875"><ele></ele><time>2020-9-19T12:5:30Z</time></trkpt>
<trkpt lat="46.31655366159975528717041015625" lon="7.473608292639255523681640625"><ele></ele><time>2020-9-19T12:5:33Z</time></trkpt>
<trkpt lat="46.316560618579387664794921875" lon="7.47362740337848663330078125"><ele></ele><time>2020-9-19T12:5:36Z</time></trkpt>
<trkpt lat="46.31656506098806858062744140625" lon="7.47364911250770092010498046875"><ele></ele><time>2020-9-19T12:5:39Z</time></trkpt>
<trkpt lat="46.31657092832028865814208984375" lon="7.473669983446598052978515625"><ele></ele><time>2020-9-19T12:5:42Z</time></trkpt>
<trkpt lat="46.31657780148088932037353515625" lon="7.47369202785193920135498046875"><ele></ele><time>2020-9-19T12:5:45Z</time></trkpt>
<trkpt lat="46.31658366881310939788818359375" lon="7.47371432371437549591064453125"><ele></ele><time>2020-9-19T12:5:48Z</time></trkpt>
<trkpt lat="46.3165872730314731597900390625" lon="7.47373812831938266754150390625"><ele></ele><time>2020-9-19T12:5:51Z</time></trkpt>
<trkpt lat="46.31659372709691524505615234375" lon="7.47376310639083385467529296875"><ele></ele><time>2020-9-19T12:5:54Z</time></trkpt>
<trkpt lat="46.316600851714611053466796875" lon="7.473783977329730987548828125"><ele></ele><time>2020-9-19T12:5:57Z</time></trkpt>
<trkpt lat="46.31660562939941883087158203125" lon="7.4738056026399135589599609375"><ele></ele><time>2020-9-19T12:6:0Z</time></trkpt>
<trkpt lat="46.31660881452262401580810546875" lon="7.4738290719687938690185546875"><ele></ele><time>2020-9-19T12:6:3Z</time></trkpt>
<trkpt lat="46.31661082617938518524169921875" lon="7.47385296039283275604248046875"><ele></ele><time>2020-9-19T12:6:6Z</time></trkpt>
<trkpt lat="46.316616944968700408935546875" lon="7.473876178264617919921875"><ele></ele><time>2020-9-19T12:6:9Z</time></trkpt>
<trkpt lat="46.3166251592338085174560546875" lon="7.47389956377446651458740234375"><ele></ele><time>2020-9-19T12:6:12Z</time></trkpt>
<trkpt lat="46.3166338764131069183349609375" lon="7.47392286546528339385986328125"><ele></ele><time>2020-9-19T12:6:15Z</time></trkpt>
<trkpt lat="46.3166414201259613037109375" lon="7.47394549660384654998779296875"><ele></ele><time>2020-9-19T12:6:18Z</time></trkpt>
<trkpt lat="46.3166479580104351043701171875" lon="7.47396712191402912139892578125"><ele></ele><time>2020-9-19T12:6:21Z</time></trkpt>
<trkpt lat="46.3166548311710357666015625" lon="7.47398740611970424652099609375"><ele></ele><time>2020-9-19T12:6:24Z</time></trkpt>
<trkpt lat="46.316661871969699859619140625" lon="7.4740034155547618865966796875"><ele></ele><time>2020-9-19T12:6:27Z</time></trkpt>
<trkpt lat="46.316669918596744537353515625" lon="7.47401992790400981903076171875"><ele></ele><time>2020-9-19T12:6:30Z</time></trkpt>
<trkpt lat="46.31667964160442352294921875" lon="7.474035434424877166748046875"><ele></ele><time>2020-9-19T12:6:33Z</time></trkpt>
<trkpt lat="46.31668978370726108551025390625" lon="7.474052868783473968505859375"><ele></ele><time>2020-9-19T12:6:36Z</time></trkpt>
<trkpt lat="46.316698752343654632568359375" lon="7.47407206334173679351806640625"><ele></ele><time>2020-9-19T12:6:39Z</time></trkpt>
<trkpt lat="46.31670646369457244873046875" lon="7.4740905873477458953857421875"><ele></ele><time>2020-9-19T12:6:42Z</time></trkpt>
<trkpt lat="46.31671593524515628814697265625" lon="7.47410709969699382781982421875"><ele></ele><time>2020-9-19T12:6:45Z</time></trkpt>
<trkpt lat="46.31672750227153301239013671875" lon="7.4741237796843051910400390625"><ele></ele><time>2020-9-19T12:6:48Z</time></trkpt>
<trkpt lat="46.31674007512629032135009765625" lon="7.47413576580584049224853515625"><ele></ele><time>2020-9-19T12:6:51Z</time></trkpt>
<trkpt lat="46.3167502172291278839111328125" lon="7.47415311634540557861328125"><ele></ele><time>2020-9-19T12:6:54Z</time></trkpt>
<trkpt lat="46.3167592696845531463623046875" lon="7.47416979633271694183349609375"><ele></ele><time>2020-9-19T12:6:57Z</time></trkpt>
<trkpt lat="46.31676815450191497802734375" lon="7.4741878174245357513427734375"><ele></ele><time>2020-9-19T12:7:0Z</time></trkpt>
<trkpt lat="46.316780559718608856201171875" lon="7.47420608997344970703125"><ele></ele><time>2020-9-19T12:7:3Z</time></trkpt>
<trkpt lat="46.316791959106922149658203125" lon="7.47422494925558567047119140625"><ele></ele><time>2020-9-19T12:7:6Z</time></trkpt>
<trkpt lat="46.3168068788945674896240234375" lon="7.47424422763288021087646484375"><ele></ele><time>2020-9-19T12:7:9Z</time></trkpt>
<trkpt lat="46.31682188250124454498291015625" lon="7.47426568530499935150146484375"><ele></ele><time>2020-9-19T12:7:12Z</time></trkpt>
<trkpt lat="46.31683680228888988494873046875" lon="7.47428613714873790740966796875"><ele></ele><time>2020-9-19T12:7:15Z</time></trkpt>
<trkpt lat="46.3168514706194400787353515625" lon="7.47430273331701755523681640625"><ele></ele><time>2020-9-19T12:7:18Z</time></trkpt>
<trkpt lat="46.3168638758361339569091796875" lon="7.47432083822786808013916015625"><ele></ele><time>2020-9-19T12:7:21Z</time></trkpt>
<trkpt lat="46.3168742693960666656494140625" lon="7.4743400327861309051513671875"><ele></ele><time>2020-9-19T12:7:24Z</time></trkpt>
<trkpt lat="46.316886842250823974609375" lon="7.47435721568763256072998046875"><ele></ele><time>2020-9-19T12:7:27Z</time></trkpt>
<trkpt lat="46.31689731962978839874267578125" lon="7.474372051656246185302734375"><ele></ele><time>2020-9-19T12:7:30Z</time></trkpt>
<trkpt lat="46.31690653972327709197998046875" lon="7.47438588179647922515869140625"><ele></ele><time>2020-9-19T12:7:33Z</time></trkpt>
<trkpt lat="46.3169171847403049468994140625" lon="7.47439744882285594940185546875"><ele></ele><time>2020-9-19T12:7:36Z</time></trkpt>
<trkpt lat="46.3169269077479839324951171875" lon="7.47441018931567668914794921875"><ele></ele><time>2020-9-19T12:7:39Z</time></trkpt>
<trkpt lat="46.31693721748888492584228515625" lon="7.47442427091300487518310546875"><ele></ele><time>2020-9-19T12:7:42Z</time></trkpt>
<trkpt lat="46.31694844923913478851318359375" lon="7.4744412861764430999755859375"><ele></ele><time>2020-9-19T12:7:45Z</time></trkpt>
<trkpt lat="46.3169601000845432281494140625" lon="7.474459894001483917236328125"><ele></ele><time>2020-9-19T12:7:48Z</time></trkpt>
<trkpt lat="46.31697158329188823699951171875" lon="7.4744748137891292572021484375"><ele></ele><time>2020-9-19T12:7:51Z</time></trkpt>
<trkpt lat="46.31698465906083583831787109375" lon="7.4744899012148380279541015625"><ele></ele><time>2020-9-19T12:7:54Z</time></trkpt>
<trkpt lat="46.31699706427752971649169921875" lon="7.4745023064315319061279296875"><ele></ele><time>2020-9-19T12:7:57Z</time></trkpt>
<trkpt lat="46.3170117326080799102783203125" lon="7.474516890943050384521484375"><ele></ele><time>2020-9-19T12:8:0Z</time></trkpt>
<trkpt lat="46.31702422164380550384521484375" lon="7.47453122399747371673583984375"><ele></ele><time>2020-9-19T12:8:3Z</time></trkpt>
<trkpt lat="46.3170383870601654052734375" lon="7.474545054137706756591796875"><ele></ele><time>2020-9-19T12:8:6Z</time></trkpt>
<trkpt lat="46.317052133381366729736328125" lon="7.47455955483019351959228515625"><ele></ele><time>2020-9-19T12:8:9Z</time></trkpt>
<trkpt lat="46.31706428714096546173095703125" lon="7.4745753966271877288818359375"><ele></ele><time>2020-9-19T12:8:12Z</time></trkpt>
<trkpt lat="46.3170767761766910552978515625" lon="7.4745931662619113922119140625"><ele></ele><time>2020-9-19T12:8:15Z</time></trkpt>
<trkpt lat="46.3170888461172580718994140625" lon="7.47461169026792049407958984375"><ele></ele><time>2020-9-19T12:8:18Z</time></trkpt>
<trkpt lat="46.31709999404847621917724609375" lon="7.4746285378932952880859375"><ele></ele><time>2020-9-19T12:8:21Z</time></trkpt>
<trkpt lat="46.3171099685132503509521484375" lon="7.47464119456708431243896484375"><ele></ele><time>2020-9-19T12:8:24Z</time></trkpt>
<trkpt lat="46.31712111644446849822998046875" lon="7.4746511690318584442138671875"><ele></ele><time>2020-9-19T12:8:27Z</time></trkpt>
<trkpt lat="46.31713586859405040740966796875" lon="7.47466097585856914520263671875"><ele></ele><time>2020-9-19T12:8:30Z</time></trkpt>
<trkpt lat="46.3171518780291080474853515625" lon="7.47466944158077239990234375"><ele></ele><time>2020-9-19T12:8:33Z</time></trkpt>
<trkpt lat="46.31716671399772167205810546875" lon="7.47467807494103908538818359375"><ele></ele><time>2020-9-19T12:8:36Z</time></trkpt>
<trkpt lat="46.317180208861827850341796875" lon="7.47469048015773296356201171875"><ele></ele><time>2020-9-19T12:8:39Z</time></trkpt>
<trkpt lat="46.3171939551830291748046875" lon="7.47470070607960224151611328125"><ele></ele><time>2020-9-19T12:8:42Z</time></trkpt>
<trkpt lat="46.31720828823745250701904296875" lon="7.47471369802951812744140625"><ele></ele><time>2020-9-19T12:8:45Z</time></trkpt>
<trkpt lat="46.31722270511090755462646484375" lon="7.4747272767126560211181640625"><ele></ele><time>2020-9-19T12:8:48Z</time></trkpt>
<trkpt lat="46.31723695434629917144775390625" lon="7.47474320232868194580078125"><ele></ele><time>2020-9-19T12:8:51Z</time></trkpt>
<trkpt lat="46.31725304760038852691650390625" lon="7.4747604690492153167724609375"><ele></ele><time>2020-9-19T12:8:54Z</time></trkpt>
<trkpt lat="46.31726746447384357452392578125" lon="7.474779076874256134033203125"><ele></ele><time>2020-9-19T12:8:57Z</time></trkpt>
<trkpt lat="46.317282132804393768310546875" lon="7.4747976846992969512939453125"><ele></ele><time>2020-9-19T12:9:0Z</time></trkpt>
<trkpt lat="46.31729629822075366973876953125" lon="7.47481754980981349945068359375"><ele></ele><time>2020-9-19T12:9:3Z</time></trkpt>
<trkpt lat="46.3173107989132404327392578125" lon="7.4748372472822666168212890625"><ele></ele><time>2020-9-19T12:9:6Z</time></trkpt>
<trkpt lat="46.317324377596378326416015625" lon="7.47485560365021228790283203125"><ele></ele><time>2020-9-19T12:9:9Z</time></trkpt>
<trkpt lat="46.31733804009854793548583984375" lon="7.47487186454236507415771484375"><ele></ele><time>2020-9-19T12:9:12Z</time></trkpt>
<trkpt lat="46.31735019385814666748046875" lon="7.4748888798058032989501953125"><ele></ele><time>2020-9-19T12:9:15Z</time></trkpt>
<trkpt lat="46.3173620961606502532958984375" lon="7.4749036319553852081298828125"><ele></ele><time>2020-9-19T12:9:18Z</time></trkpt>
<trkpt lat="46.317373327910900115966796875" lon="7.474921904504299163818359375"><ele></ele><time>2020-9-19T12:9:21Z</time></trkpt>
<trkpt lat="46.3173838891088962554931640625" lon="7.474941350519657135009765625"><ele></ele><time>2020-9-19T12:9:24Z</time></trkpt>
<trkpt lat="46.3173959590494632720947265625" lon="7.47495710849761962890625"><ele></ele><time>2020-9-19T12:9:27Z</time></trkpt>
<trkpt lat="46.317406855523586273193359375" lon="7.47497479431331157684326171875"><ele></ele><time>2020-9-19T12:9:30Z</time></trkpt>
<trkpt lat="46.3174187578260898590087890625" lon="7.47499055229127407073974609375"><ele></ele><time>2020-9-19T12:9:33Z</time></trkpt>
<trkpt lat="46.31743024103343486785888671875" lon="7.47500815428793430328369140625"><ele></ele><time>2020-9-19T12:9:36Z</time></trkpt>
<trkpt lat="46.31744281388819217681884765625" lon="7.47502273879945278167724609375"><ele></ele><time>2020-9-19T12:9:39Z</time></trkpt>
<trkpt lat="46.31745480000972747802734375" lon="7.47503614984452724456787109375"><ele></ele><time>2020-9-19T12:9:42Z</time></trkpt>
<trkpt lat="46.31746745668351650238037109375" lon="7.475049309432506561279296875"><ele></ele><time>2020-9-19T12:9:45Z</time></trkpt>
<trkpt lat="46.317481286823749542236328125" lon="7.47506129555404186248779296875"><ele></ele><time>2020-9-19T12:9:48Z</time></trkpt>
<trkpt lat="46.3174962066113948822021484375" lon="7.475070096552371978759765625"><ele></ele><time>2020-9-19T12:9:51Z</time></trkpt>
<trkpt lat="46.317512132227420806884765625" lon="7.4750737845897674560546875"><ele></ele><time>2020-9-19T12:9:54Z</time></trkpt>
<trkpt lat="46.31752763874828815460205078125" lon="7.4750791490077972412109375"><ele></ele><time>2020-9-19T12:9:57Z</time></trkpt>
<trkpt lat="46.31754322908818721771240234375" lon="7.47508409433066844940185546875"><ele></ele><time>2020-9-19T12:10:0Z</time></trkpt>
<trkpt lat="46.3175602443516254425048828125" lon="7.47508778236806392669677734375"><ele></ele><time>2020-9-19T12:10:3Z</time></trkpt>
<trkpt lat="46.31757692433893680572509765625" lon="7.47509079985320568084716796875"><ele></ele><time>2020-9-19T12:10:6Z</time></trkpt>
<trkpt lat="46.31759368814527988433837890625" lon="7.47509364970028400421142578125"><ele></ele><time>2020-9-19T12:10:9Z</time></trkpt>
<trkpt lat="46.317610032856464385986328125" lon="7.47509348206222057342529296875"><ele></ele><time>2020-9-19T12:10:12Z</time></trkpt>
<trkpt lat="46.31762822158634662628173828125" lon="7.4750940687954425811767578125"><ele></ele><time>2020-9-19T12:10:15Z</time></trkpt>
<trkpt lat="46.3176454044878482818603515625" lon="7.47509859502315521240234375"><ele></ele><time>2020-9-19T12:10:18Z</time></trkpt>
<trkpt lat="46.31766107864677906036376953125" lon="7.4751068092882633209228515625"><ele></ele><time>2020-9-19T12:10:21Z</time></trkpt>
<trkpt lat="46.31767784245312213897705078125" lon="7.4751145206391811370849609375"><ele></ele><time>2020-9-19T12:10:24Z</time></trkpt>
<trkpt lat="46.31769259460270404815673828125" lon="7.475120387971401214599609375"><ele></ele><time>2020-9-19T12:10:27Z</time></trkpt>
<trkpt lat="46.31770315580070018768310546875" lon="7.475119717419147491455078125"><ele></ele><time>2020-9-19T12:10:30Z</time></trkpt>
<trkpt lat="46.3177516870200634002685546875" lon="7.4750964157283306121826171875"><ele></ele><time>2020-9-19T12:10:33Z</time></trkpt>
<trkpt lat="46.3177657686173915863037109375" lon="7.47506774961948394775390625"><ele></ele><time>2020-9-19T12:10:36Z</time></trkpt>
<trkpt lat="46.3177754916250705718994140625" lon="7.4750308692455291748046875"><ele></ele><time>2020-9-19T12:10:39Z</time></trkpt>
<trkpt lat="46.3177815265953540802001953125" lon="7.474985606968402862548828125"><ele></ele><time>2020-9-19T12:10:42Z</time></trkpt>
<trkpt lat="46.31778429262340068817138671875" lon="7.47493422590196132659912109375"><ele></ele><time>2020-9-19T12:10:45Z</time></trkpt>
<trkpt lat="46.3177845440804958343505859375" lon="7.4748779833316802978515625"><ele></ele><time>2020-9-19T12:10:48Z</time></trkpt>
<trkpt lat="46.31778479553759098052978515625" lon="7.4748174659907817840576171875"><ele></ele><time>2020-9-19T12:10:51Z</time></trkpt>
<trkpt lat="46.31780541501939296722412109375" lon="7.47462250292301177978515625"><ele></ele><time>2020-9-19T12:10:54Z</time></trkpt>
<trkpt lat="46.3178163953125476837158203125" lon="7.47455410659313201904296875"><ele></ele><time>2020-9-19T12:10:57Z</time></trkpt>
<trkpt lat="46.31788185797631740570068359375" lon="7.474281527101993560791015625"><ele></ele><time>2020-9-19T12:11:0Z</time></trkpt>
<trkpt lat="46.317925192415714263916015625" lon="7.4741512723267078399658203125"><ele></ele><time>2020-9-19T12:11:3Z</time></trkpt>
<trkpt lat="46.3179749809205532073974609375" lon="7.47402126900851726531982421875"><ele></ele><time>2020-9-19T12:11:6Z</time></trkpt>
<trkpt lat="46.31799585185945034027099609375" lon="7.47394935227930545806884765625"><ele></ele><time>2020-9-19T12:11:9Z</time></trkpt>
<trkpt lat="46.3180095143616199493408203125" lon="7.47386880218982696533203125"><ele></ele><time>2020-9-19T12:11:12Z</time></trkpt>
<trkpt lat="46.3180178962647914886474609375" lon="7.47378171421587467193603515625"><ele></ele><time>2020-9-19T12:11:15Z</time></trkpt>
<trkpt lat="46.31801965646445751190185546875" lon="7.47368984855711460113525390625"><ele></ele><time>2020-9-19T12:11:18Z</time></trkpt>
<trkpt lat="46.31800591014325618743896484375" lon="7.4734993278980255126953125"><ele></ele><time>2020-9-19T12:11:21Z</time></trkpt>
<trkpt lat="46.317975483834743499755859375" lon="7.47329455800354480743408203125"><ele></ele><time>2020-9-19T12:11:24Z</time></trkpt>
<trkpt lat="46.31793223321437835693359375" lon="7.47309288941323757171630859375"><ele></ele><time>2020-9-19T12:11:27Z</time></trkpt>
<trkpt lat="46.317875571548938751220703125" lon="7.47288954444229602813720703125"><ele></ele><time>2020-9-19T12:11:30Z</time></trkpt>
<trkpt lat="46.31784078665077686309814453125" lon="7.47279147617518901824951171875"><ele></ele><time>2020-9-19T12:11:33Z</time></trkpt>
<trkpt lat="46.31780642084777355194091796875" lon="7.472686283290386199951171875"><ele></ele><time>2020-9-19T12:11:36Z</time></trkpt>
<trkpt lat="46.31773953326046466827392578125" lon="7.47247581370174884796142578125"><ele></ele><time>2020-9-19T12:11:39Z</time></trkpt>
<trkpt lat="46.31770969368517398834228515625" lon="7.472373135387897491455078125"><ele></ele><time>2020-9-19T12:11:42Z</time></trkpt>
<trkpt lat="46.31768069230020046234130859375" lon="7.47227531857788562774658203125"><ele></ele><time>2020-9-19T12:11:45Z</time></trkpt>
<trkpt lat="46.31765504367649555206298828125" lon="7.4721781723201274871826171875"><ele></ele><time>2020-9-19T12:11:48Z</time></trkpt>
<trkpt lat="46.31763643585145473480224609375" lon="7.47208421118557453155517578125"><ele></ele><time>2020-9-19T12:11:51Z</time></trkpt>
<trkpt lat="46.31762688048183917999267578125" lon="7.4719880707561969757080078125"><ele></ele><time>2020-9-19T12:11:54Z</time></trkpt>
<trkpt lat="46.31762235425412654876708984375" lon="7.471889667212963104248046875"><ele></ele><time>2020-9-19T12:11:57Z</time></trkpt>
<trkpt lat="46.3176179118454456329345703125" lon="7.47179084457457065582275390625"><ele></ele><time>2020-9-19T12:12:0Z</time></trkpt>
<trkpt lat="46.31760659627616405487060546875" lon="7.47169462032616138458251953125"><ele></ele><time>2020-9-19T12:12:3Z</time></trkpt>
<trkpt lat="46.31758966483175754547119140625" lon="7.47159671969711780548095703125"><ele></ele><time>2020-9-19T12:12:6Z</time></trkpt>
<trkpt lat="46.3175719790160655975341796875" lon="7.471498735249042510986328125"><ele></ele><time>2020-9-19T12:12:9Z</time></trkpt>
<trkpt lat="46.3175545446574687957763671875" lon="7.4714003317058086395263671875"><ele></ele><time>2020-9-19T12:12:12Z</time></trkpt>
<trkpt lat="46.31753870286047458648681640625" lon="7.47130326926708221435546875"><ele></ele><time>2020-9-19T12:12:15Z</time></trkpt>
<trkpt lat="46.3175238668918609619140625" lon="7.47122171334922313690185546875"><ele></ele><time>2020-9-19T12:12:18Z</time></trkpt>
<trkpt lat="46.3175131380558013916015625" lon="7.47115650214254856109619140625"><ele></ele><time>2020-9-19T12:12:21Z</time></trkpt>
<trkpt lat="46.31750383414328098297119140625" lon="7.471108473837375640869140625"><ele></ele><time>2020-9-19T12:12:24Z</time></trkpt>
<trkpt lat="46.31749578751623630523681640625" lon="7.47107000090181827545166015625"><ele></ele><time>2020-9-19T12:12:27Z</time></trkpt>
<trkpt lat="46.31749243475496768951416015625" lon="7.471043430268764495849609375"><ele></ele><time>2020-9-19T12:12:30Z</time></trkpt>
<trkpt lat="46.31749100983142852783203125" lon="7.47102373279631137847900390625"><ele></ele><time>2020-9-19T12:12:33Z</time></trkpt>
<trkpt lat="46.31748832762241363525390625" lon="7.47100554406642913818359375"><ele></ele><time>2020-9-19T12:12:36Z</time></trkpt>
<trkpt lat="46.31748388521373271942138671875" lon="7.4709906242787837982177734375"><ele></ele><time>2020-9-19T12:12:39Z</time></trkpt>
<trkpt lat="46.31748086772859096527099609375" lon="7.4709738604724407196044921875"><ele></ele><time>2020-9-19T12:12:42Z</time></trkpt>
<trkpt lat="46.31747919134795665740966796875" lon="7.4709567613899707794189453125"><ele></ele><time>2020-9-19T12:12:45Z</time></trkpt>
<trkpt lat="46.31747533567249774932861328125" lon="7.4709403328597545623779296875"><ele></ele><time>2020-9-19T12:12:48Z</time></trkpt>
<trkpt lat="46.31747215054929256439208984375" lon="7.47092499397695064544677734375"><ele></ele><time>2020-9-19T12:12:51Z</time></trkpt>
<trkpt lat="46.31747114472091197967529296875" lon="7.47090957127511501312255859375"><ele></ele><time>2020-9-19T12:12:54Z</time></trkpt>
<trkpt lat="46.31746628321707248687744140625" lon="7.470886521041393280029296875"><ele></ele><time>2020-9-19T12:12:57Z</time></trkpt>
<trkpt lat="46.3174606673419475555419921875" lon="7.47086296789348125457763671875"><ele></ele><time>2020-9-19T12:13:0Z</time></trkpt>
<trkpt lat="46.3174556382000446319580078125" lon="7.470836900174617767333984375"><ele></ele><time>2020-9-19T12:13:3Z</time></trkpt>
<trkpt lat="46.31744951941072940826416015625" lon="7.47080504894256591796875"><ele></ele><time>2020-9-19T12:13:6Z</time></trkpt>
<trkpt lat="46.3174418918788433074951171875" lon="7.47074159793555736541748046875"><ele></ele><time>2020-9-19T12:13:9Z</time></trkpt>
<trkpt lat="46.3174353539943695068359375" lon="7.4707073159515857696533203125"><ele></ele><time>2020-9-19T12:13:12Z</time></trkpt>
<trkpt lat="46.3174301572144031524658203125" lon="7.4706768058240413665771484375"><ele></ele><time>2020-9-19T12:13:15Z</time></trkpt>
<trkpt lat="46.3174247927963733673095703125" lon="7.47064344584941864013671875"><ele></ele><time>2020-9-19T12:13:18Z</time></trkpt>
<trkpt lat="46.31742353551089763641357421875" lon="7.47061528265476226806640625"><ele></ele><time>2020-9-19T12:13:21Z</time></trkpt>
<trkpt lat="46.31742102093994617462158203125" lon="7.4705889634788036346435546875"><ele></ele><time>2020-9-19T12:13:24Z</time></trkpt>
<trkpt lat="46.31741096265614032745361328125" lon="7.4705209024250507354736328125"><ele></ele><time>2020-9-19T12:13:27Z</time></trkpt>
<trkpt lat="46.31740643642842769622802734375" lon="7.47047924436628818511962890625"><ele></ele><time>2020-9-19T12:13:30Z</time></trkpt>
<trkpt lat="46.31737969815731048583984375" lon="7.47031110338866710662841796875"><ele></ele><time>2020-9-19T12:13:33Z</time></trkpt>
<trkpt lat="46.3173677958548069000244140625" lon="7.47024270705878734588623046875"><ele></ele><time>2020-9-19T12:13:36Z</time></trkpt>
<trkpt lat="46.3173553906381130218505859375" lon="7.47017598710954189300537109375"><ele></ele><time>2020-9-19T12:13:39Z</time></trkpt>
<trkpt lat="46.31734189577400684356689453125" lon="7.4701148830354213714599609375"><ele></ele><time>2020-9-19T12:13:42Z</time></trkpt>
<trkpt lat="46.317329071462154388427734375" lon="7.4700639210641384124755859375"><ele></ele><time>2020-9-19T12:13:45Z</time></trkpt>
<trkpt lat="46.31731993518769741058349609375" lon="7.47002662159502506256103515625"><ele></ele><time>2020-9-19T12:13:48Z</time></trkpt>
<trkpt lat="46.31731088273227214813232421875" lon="7.47000105679035186767578125"><ele></ele><time>2020-9-19T12:13:51Z</time></trkpt>
<trkpt lat="46.31730602122843265533447265625" lon="7.46998135931789875030517578125"><ele></ele><time>2020-9-19T12:13:54Z</time></trkpt>
<trkpt lat="46.3173047639429569244384765625" lon="7.4699566327035427093505859375"><ele></ele><time>2020-9-19T12:13:57Z</time></trkpt>
<trkpt lat="46.3173061050474643707275390625" lon="7.46989619918167591094970703125"><ele></ele><time>2020-9-19T12:14:0Z</time></trkpt>
<trkpt lat="46.3173024170100688934326171875" lon="7.4698594026267528533935546875"><ele></ele><time>2020-9-19T12:14:3Z</time></trkpt>
<trkpt lat="46.31729118525981903076171875" lon="7.469767034053802490234375"><ele></ele><time>2020-9-19T12:14:6Z</time></trkpt>
<trkpt lat="46.31728087551891803741455078125" lon="7.46971062384545803070068359375"><ele></ele><time>2020-9-19T12:14:9Z</time></trkpt>
<trkpt lat="46.31727014668285846710205078125" lon="7.46965010650455951690673828125"><ele></ele><time>2020-9-19T12:14:12Z</time></trkpt>
<trkpt lat="46.3172610104084014892578125" lon="7.4695905111730098724365234375"><ele></ele><time>2020-9-19T12:14:15Z</time></trkpt>
<trkpt lat="46.31725321523845195770263671875" lon="7.46953259222209453582763671875"><ele></ele><time>2020-9-19T12:14:18Z</time></trkpt>
<trkpt lat="46.31724215112626552581787109375" lon="7.4694745056331157684326171875"><ele></ele><time>2020-9-19T12:14:21Z</time></trkpt>
<trkpt lat="46.31721968762576580047607421875" lon="7.46941071934998035430908203125"><ele></ele><time>2020-9-19T12:14:24Z</time></trkpt>
<trkpt lat="46.31719118915498256683349609375" lon="7.46933343820273876190185546875"><ele></ele><time>2020-9-19T12:14:27Z</time></trkpt>
<trkpt lat="46.3171274028718471527099609375" lon="7.46916730888187885284423828125"><ele></ele><time>2020-9-19T12:14:30Z</time></trkpt>
<trkpt lat="46.317093037068843841552734375" lon="7.469093799591064453125"><ele></ele><time>2020-9-19T12:14:33Z</time></trkpt>
<trkpt lat="46.31705917418003082275390625" lon="7.46902397833764553070068359375"><ele></ele><time>2020-9-19T12:14:36Z</time></trkpt>
<trkpt lat="46.31703059189021587371826171875" lon="7.46895499527454376220703125"><ele></ele><time>2020-9-19T12:14:39Z</time></trkpt>
<trkpt lat="46.31700376980006694793701171875" lon="7.4688820727169513702392578125"><ele></ele><time>2020-9-19T12:14:42Z</time></trkpt>
<trkpt lat="46.3169788755476474761962890625" lon="7.46880437247455120086669921875"><ele></ele><time>2020-9-19T12:14:45Z</time></trkpt>
<trkpt lat="46.3168947212398052215576171875" lon="7.46855610050261020660400390625"><ele></ele><time>2020-9-19T12:14:48Z</time></trkpt>
<trkpt lat="46.3168628700077533721923828125" lon="7.468474544584751129150390625"><ele></ele><time>2020-9-19T12:14:51Z</time></trkpt>
<trkpt lat="46.3168021850287914276123046875" lon="7.4682889692485332489013671875"><ele></ele><time>2020-9-19T12:14:54Z</time></trkpt>
<trkpt lat="46.31677494384348392486572265625" lon="7.46818427927792072296142578125"><ele></ele><time>2020-9-19T12:14:57Z</time></trkpt>
<trkpt lat="46.31675214506685733795166015625" lon="7.46807212941348552703857421875"><ele></ele><time>2020-9-19T12:15:0Z</time></trkpt>
<trkpt lat="46.31673001684248447418212890625" lon="7.46796215884387493133544921875"><ele></ele><time>2020-9-19T12:15:3Z</time></trkpt>
<trkpt lat="46.31671392358839511871337890625" lon="7.4678601510822772979736328125"><ele></ele><time>2020-9-19T12:15:6Z</time></trkpt>
<trkpt lat="46.316704116761684417724609375" lon="7.46776300482451915740966796875"><ele></ele><time>2020-9-19T12:15:9Z</time></trkpt>
<trkpt lat="46.316695399582386016845703125" lon="7.46767365373671054840087890625"><ele></ele><time>2020-9-19T12:15:12Z</time></trkpt>
<trkpt lat="46.31668441928923130035400390625" lon="7.467595450580120086669921875"><ele></ele><time>2020-9-19T12:15:15Z</time></trkpt>
<trkpt lat="46.31666983477771282196044921875" lon="7.46752261184155941009521484375"><ele></ele><time>2020-9-19T12:15:18Z</time></trkpt>
<trkpt lat="46.31664603017270565032958984375" lon="7.4674588255584239959716796875"><ele></ele><time>2020-9-19T12:15:21Z</time></trkpt>
<trkpt lat="46.31661552004516124725341796875" lon="7.46740627102553844451904296875"><ele></ele><time>2020-9-19T12:15:24Z</time></trkpt>
<trkpt lat="46.316579394042491912841796875" lon="7.46735748834908008575439453125"><ele></ele><time>2020-9-19T12:15:27Z</time></trkpt>
<trkpt lat="46.316540502011775970458984375" lon="7.4673099629580974578857421875"><ele></ele><time>2020-9-19T12:15:30Z</time></trkpt>
<trkpt lat="46.31650320254266262054443359375" lon="7.46726847253739833831787109375"><ele></ele><time>2020-9-19T12:15:33Z</time></trkpt>
<trkpt lat="46.31646816618740558624267578125" lon="7.46722740121185779571533203125"><ele></ele><time>2020-9-19T12:15:36Z</time></trkpt>
<trkpt lat="46.316435225307941436767578125" lon="7.4671805463731288909912109375"><ele></ele><time>2020-9-19T12:15:39Z</time></trkpt>
<trkpt lat="46.31640245206654071807861328125" lon="7.46712681837379932403564453125"><ele></ele><time>2020-9-19T12:15:42Z</time></trkpt>
<trkpt lat="46.31633673794567584991455078125" lon="7.466997988522052764892578125"><ele></ele><time>2020-9-19T12:15:45Z</time></trkpt>
<trkpt lat="46.31630656309425830841064453125" lon="7.4669300951063632965087890625"><ele></ele><time>2020-9-19T12:15:48Z</time></trkpt>
<trkpt lat="46.31627823226153850555419921875" lon="7.46686957776546478271484375"><ele></ele><time>2020-9-19T12:15:51Z</time></trkpt>
<trkpt lat="46.3162506558001041412353515625" lon="7.46681517921388149261474609375"><ele></ele><time>2020-9-19T12:15:54Z</time></trkpt>
<trkpt lat="46.31622576154768466949462890625" lon="7.4667661450803279876708984375"><ele></ele><time>2020-9-19T12:15:57Z</time></trkpt>
<trkpt lat="46.31620354950428009033203125" lon="7.46672205626964569091796875"><ele></ele><time>2020-9-19T12:16:0Z</time></trkpt>
<trkpt lat="46.3161852769553661346435546875" lon="7.4666789732873439788818359375"><ele></ele><time>2020-9-19T12:16:3Z</time></trkpt>
<trkpt lat="46.31617127917706966400146484375" lon="7.4666276760399341583251953125"><ele></ele><time>2020-9-19T12:16:6Z</time></trkpt>
<trkpt lat="46.316161639988422393798828125" lon="7.46656606905162334442138671875"><ele></ele><time>2020-9-19T12:16:9Z</time></trkpt>
<trkpt lat="46.3161581195890903472900390625" lon="7.46648543514311313629150390625"><ele></ele><time>2020-9-19T12:16:12Z</time></trkpt>
<trkpt lat="46.3161532580852508544921875" lon="7.46639424003660678863525390625"><ele></ele><time>2020-9-19T12:16:15Z</time></trkpt>
<trkpt lat="46.3161403499543666839599609375" lon="7.46621109545230865478515625"><ele></ele><time>2020-9-19T12:16:18Z</time></trkpt>
<trkpt lat="46.31613942794501781463623046875" lon="7.46612417511641979217529296875"><ele></ele><time>2020-9-19T12:16:21Z</time></trkpt>
<trkpt lat="46.3161383382976055145263671875" lon="7.46604119427502155303955078125"><ele></ele><time>2020-9-19T12:16:24Z</time></trkpt>
<trkpt lat="46.316130794584751129150390625" lon="7.465966008603572845458984375"><ele></ele><time>2020-9-19T12:16:27Z</time></trkpt>
<trkpt lat="46.31611746735870838165283203125" lon="7.4658991210162639617919921875"><ele></ele><time>2020-9-19T12:16:30Z</time></trkpt>
<trkpt lat="46.3161044754087924957275390625" lon="7.4658394418656826019287109375"><ele></ele><time>2020-9-19T12:16:33Z</time></trkpt>
<trkpt lat="46.31609567441046237945556640625" lon="7.46578386984765529632568359375"><ele></ele><time>2020-9-19T12:16:36Z</time></trkpt>
<trkpt lat="46.31608687341213226318359375" lon="7.4657368473708629608154296875"><ele></ele><time>2020-9-19T12:16:39Z</time></trkpt>
<trkpt lat="46.31607212126255035400390625" lon="7.46569803915917873382568359375"><ele></ele><time>2020-9-19T12:16:42Z</time></trkpt>
<trkpt lat="46.3160538487136363983154296875" lon="7.4656587280333042144775390625"><ele></ele><time>2020-9-19T12:16:45Z</time></trkpt>
<trkpt lat="46.31603532470762729644775390625" lon="7.46560768224298954010009765625"><ele></ele><time>2020-9-19T12:16:48Z</time></trkpt>
<trkpt lat="46.316017806529998779296875" lon="7.46554682962596416473388671875"><ele></ele><time>2020-9-19T12:16:51Z</time></trkpt>
<trkpt lat="46.3159844465553760528564453125" lon="7.46541691012680530548095703125"><ele></ele><time>2020-9-19T12:16:54Z</time></trkpt>
<trkpt lat="46.31596609018743038177490234375" lon="7.4653502739965915679931640625"><ele></ele><time>2020-9-19T12:16:57Z</time></trkpt>
<trkpt lat="46.315926611423492431640625" lon="7.46521624736487865447998046875"><ele></ele><time>2020-9-19T12:17:0Z</time></trkpt>
<trkpt lat="46.3159069977700710296630859375" lon="7.465153969824314117431640625"><ele></ele><time>2020-9-19T12:17:3Z</time></trkpt>
<trkpt lat="46.31588947959244251251220703125" lon="7.46509018354117870330810546875"><ele></ele><time>2020-9-19T12:17:6Z</time></trkpt>
<trkpt lat="46.3158667646348476409912109375" lon="7.4650237150490283966064453125"><ele></ele><time>2020-9-19T12:17:9Z</time></trkpt>
<trkpt lat="46.315841786563396453857421875" lon="7.46495121158659458160400390625"><ele></ele><time>2020-9-19T12:17:12Z</time></trkpt>
<trkpt lat="46.3158174790441989898681640625" lon="7.46487426571547985076904296875"><ele></ele><time>2020-9-19T12:17:15Z</time></trkpt>
<trkpt lat="46.31579593755304813385009765625" lon="7.4647957272827625274658203125"><ele></ele><time>2020-9-19T12:17:18Z</time></trkpt>
<trkpt lat="46.315771378576755523681640625" lon="7.46472288854420185089111328125"><ele></ele><time>2020-9-19T12:17:21Z</time></trkpt>
<trkpt lat="46.315747909247875213623046875" lon="7.464661784470081329345703125"><ele></ele><time>2020-9-19T12:17:24Z</time></trkpt>
<trkpt lat="46.31573072634637355804443359375" lon="7.4646190367639064788818359375"><ele></ele><time>2020-9-19T12:17:27Z</time></trkpt>
<trkpt lat="46.31571480073034763336181640625" lon="7.4645891971886157989501953125"><ele></ele><time>2020-9-19T12:17:30Z</time></trkpt>
<trkpt lat="46.315700300037860870361328125" lon="7.4645702540874481201171875"><ele></ele><time>2020-9-19T12:17:33Z</time></trkpt>
<trkpt lat="46.315689571201801300048828125" lon="7.4645523168146610260009765625"><ele></ele><time>2020-9-19T12:17:36Z</time></trkpt>
<trkpt lat="46.3156811892986297607421875" lon="7.46453312225639820098876953125"><ele></ele><time>2020-9-19T12:17:39Z</time></trkpt>
<trkpt lat="46.315674483776092529296875" lon="7.4645090661942958831787109375"><ele></ele><time>2020-9-19T12:17:42Z</time></trkpt>
<trkpt lat="46.31564254872500896453857421875" lon="7.46433966793119907379150390625"><ele></ele><time>2020-9-19T12:17:45Z</time></trkpt>
<trkpt lat="46.31563450209796428680419921875" lon="7.46427143923938274383544921875"><ele></ele><time>2020-9-19T12:17:48Z</time></trkpt>
<trkpt lat="46.31562310270965099334716796875" lon="7.464203797280788421630859375"><ele></ele><time>2020-9-19T12:17:51Z</time></trkpt>
<trkpt lat="46.31561388261616230010986328125" lon="7.46413548476994037628173828125"><ele></ele><time>2020-9-19T12:17:54Z</time></trkpt>
<trkpt lat="46.3156005553901195526123046875" lon="7.46405669488012790679931640625"><ele></ele><time>2020-9-19T12:17:57Z</time></trkpt>
<trkpt lat="46.31557817570865154266357421875" lon="7.46397220529615879058837890625"><ele></ele><time>2020-9-19T12:18:0Z</time></trkpt>
<trkpt lat="46.31555177271366119384765625" lon="7.46387966908514499664306640625"><ele></ele><time>2020-9-19T12:18:3Z</time></trkpt>
<trkpt lat="46.31552159786224365234375" lon="7.4637768231332302093505859375"><ele></ele><time>2020-9-19T12:18:6Z</time></trkpt>
<trkpt lat="46.31546317599713802337646484375" lon="7.4635863862931728363037109375"><ele></ele><time>2020-9-19T12:18:9Z</time></trkpt>
<trkpt lat="46.31542411632835865020751953125" lon="7.46350969187915325164794921875"><ele></ele><time>2020-9-19T12:18:12Z</time></trkpt>
<trkpt lat="46.31537181325256824493408203125" lon="7.4634388647973537445068359375"><ele></ele><time>2020-9-19T12:18:15Z</time></trkpt>
<trkpt lat="46.3153155706822872161865234375" lon="7.46336527168750762939453125"><ele></ele><time>2020-9-19T12:18:18Z</time></trkpt>
<trkpt lat="46.31526435725390911102294921875" lon="7.46327432803809642791748046875"><ele></ele><time>2020-9-19T12:18:21Z</time></trkpt>
<trkpt lat="46.3152180053293704986572265625" lon="7.4631753377616405487060546875"><ele></ele><time>2020-9-19T12:18:24Z</time></trkpt>
<trkpt lat="46.31517282687127590179443359375" lon="7.4630682170391082763671875"><ele></ele><time>2020-9-19T12:18:27Z</time></trkpt>
<trkpt lat="46.31512932479381561279296875" lon="7.46295648626983165740966796875"><ele></ele><time>2020-9-19T12:18:30Z</time></trkpt>
<trkpt lat="46.31508951075375080108642578125" lon="7.462833859026432037353515625"><ele></ele><time>2020-9-19T12:18:33Z</time></trkpt>
<trkpt lat="46.31505564786493778228759765625" lon="7.4627022631466388702392578125"><ele></ele><time>2020-9-19T12:18:36Z</time></trkpt>
<trkpt lat="46.31502865813672542572021484375" lon="7.4625674821436405181884765625"><ele></ele><time>2020-9-19T12:18:39Z</time></trkpt>
<trkpt lat="46.3150025904178619384765625" lon="7.46242574416100978851318359375"><ele></ele><time>2020-9-19T12:18:42Z</time></trkpt>
<trkpt lat="46.3149786181747913360595703125" lon="7.46227906085550785064697265625"><ele></ele><time>2020-9-19T12:18:45Z</time></trkpt>
<trkpt lat="46.314952634274959564208984375" lon="7.4621232412755489349365234375"><ele></ele><time>2020-9-19T12:18:48Z</time></trkpt>
<trkpt lat="46.3148981519043445587158203125" lon="7.4617993645370006561279296875"><ele></ele><time>2020-9-19T12:18:51Z</time></trkpt>
<trkpt lat="46.31486470811069011688232421875" lon="7.46164421550929546356201171875"><ele></ele><time>2020-9-19T12:18:54Z</time></trkpt>
<trkpt lat="46.31482422351837158203125" lon="7.4614962749183177947998046875"><ele></ele><time>2020-9-19T12:18:57Z</time></trkpt>
<trkpt lat="46.3147734291851520538330078125" lon="7.46135537512600421905517578125"><ele></ele><time>2020-9-19T12:19:0Z</time></trkpt>
<trkpt lat="46.31470729596912860870361328125" lon="7.46122545562684535980224609375"><ele></ele><time>2020-9-19T12:19:3Z</time></trkpt>
<trkpt lat="46.31462515331804752349853515625" lon="7.4611157365143299102783203125"><ele></ele><time>2020-9-19T12:19:6Z</time></trkpt>
<trkpt lat="46.31452490575611591339111328125" lon="7.46102931909263134002685546875"><ele></ele><time>2020-9-19T12:19:9Z</time></trkpt>
<trkpt lat="46.31441225297749042510986328125" lon="7.46096662245690822601318359375"><ele></ele><time>2020-9-19T12:19:12Z</time></trkpt>
<trkpt lat="46.31429272703826427459716796875" lon="7.46091146953403949737548828125"><ele></ele><time>2020-9-19T12:19:15Z</time></trkpt>
<trkpt lat="46.3141776435077190399169921875" lon="7.46084810234606266021728515625"><ele></ele><time>2020-9-19T12:19:18Z</time></trkpt>
<trkpt lat="46.314067505300045013427734375" lon="7.46076864190399646759033203125"><ele></ele><time>2020-9-19T12:19:21Z</time></trkpt>
<trkpt lat="46.31395778618752956390380859375" lon="7.460678033530712127685546875"><ele></ele><time>2020-9-19T12:19:24Z</time></trkpt>
<trkpt lat="46.31373859941959381103515625" lon="7.46049539186060428619384765625"><ele></ele><time>2020-9-19T12:19:27Z</time></trkpt>
<trkpt lat="46.3136373460292816162109375" lon="7.4604155123233795166015625"><ele></ele><time>2020-9-19T12:19:30Z</time></trkpt>
<trkpt lat="46.31354522891342639923095703125" lon="7.4603422544896602630615234375"><ele></ele><time>2020-9-19T12:19:33Z</time></trkpt>
<trkpt lat="46.313463337719440460205078125" lon="7.460273690521717071533203125"><ele></ele><time>2020-9-19T12:19:36Z</time></trkpt>
<trkpt lat="46.31339066661894321441650390625" lon="7.460201270878314971923828125"><ele></ele><time>2020-9-19T12:19:39Z</time></trkpt>
<trkpt lat="46.31332428194582462310791015625" lon="7.46011552400887012481689453125"><ele></ele><time>2020-9-19T12:19:42Z</time></trkpt>
<trkpt lat="46.31326661445200443267822265625" lon="7.46000848710536956787109375"><ele></ele><time>2020-9-19T12:19:45Z</time></trkpt>
<trkpt lat="46.31316804327070713043212890625" lon="7.4597753025591373443603515625"><ele></ele><time>2020-9-19T12:19:48Z</time></trkpt>
<trkpt lat="46.3131228648126125335693359375" lon="7.45967262424528598785400390625"><ele></ele><time>2020-9-19T12:19:51Z</time></trkpt>
<trkpt lat="46.31307114847004413604736328125" lon="7.45959299616515636444091796875"><ele></ele><time>2020-9-19T12:19:54Z</time></trkpt>
<trkpt lat="46.313008703291416168212890625" lon="7.45954505167901515960693359375"><ele></ele><time>2020-9-19T12:19:57Z</time></trkpt>
<trkpt lat="46.31293988786637783050537109375" lon="7.45953432284295558929443359375"><ele></ele><time>2020-9-19T12:20:0Z</time></trkpt>
<trkpt lat="46.31289278157055377960205078125" lon="7.45959014631807804107666015625"><ele></ele><time>2020-9-19T12:20:3Z</time></trkpt>
<trkpt lat="46.31285724230110645294189453125" lon="7.45966407470405101776123046875"><ele></ele><time>2020-9-19T12:20:6Z</time></trkpt>
<trkpt lat="46.3128311745822429656982421875" lon="7.45973800309002399444580078125"><ele></ele><time>2020-9-19T12:20:9Z</time></trkpt>
<trkpt lat="46.31280443631112575531005859375" lon="7.45980271138250827789306640625"><ele></ele><time>2020-9-19T12:20:12Z</time></trkpt>
<trkpt lat="46.3127768598496913909912109375" lon="7.459857948124408721923828125"><ele></ele><time>2020-9-19T12:20:15Z</time></trkpt>
<trkpt lat="46.31274743936955928802490234375" lon="7.4598825909197330474853515625"><ele></ele><time>2020-9-19T12:20:18Z</time></trkpt>
<trkpt lat="46.31271927617490291595458984375" lon="7.45988166891038417816162109375"><ele></ele><time>2020-9-19T12:20:21Z</time></trkpt>
<trkpt lat="46.31269211880862712860107421875" lon="7.4598634801805019378662109375"><ele></ele><time>2020-9-19T12:20:24Z</time></trkpt>
<trkpt lat="46.3126601837575435638427734375" lon="7.4598279409110546112060546875"><ele></ele><time>2020-9-19T12:20:27Z</time></trkpt>
<trkpt lat="46.31262623704969882965087890625" lon="7.4597773142158985137939453125"><ele></ele><time>2020-9-19T12:20:30Z</time></trkpt>
<trkpt lat="46.312591619789600372314453125" lon="7.4597216583788394927978515625"><ele></ele><time>2020-9-19T12:20:33Z</time></trkpt>
<trkpt lat="46.31255951710045337677001953125" lon="7.45966306887567043304443359375"><ele></ele><time>2020-9-19T12:20:36Z</time></trkpt>
<trkpt lat="46.312501095235347747802734375" lon="7.45955611579120159149169921875"><ele></ele><time>2020-9-19T12:20:39Z</time></trkpt>
<trkpt lat="46.31247033365070819854736328125" lon="7.45950758457183837890625"><ele></ele><time>2020-9-19T12:20:42Z</time></trkpt>
<trkpt lat="46.3124429248273372650146484375" lon="7.459449581801891326904296875"><ele></ele><time>2020-9-19T12:20:45Z</time></trkpt>
<trkpt lat="46.31242088042199611663818359375" lon="7.4593796767294406890869140625"><ele></ele><time>2020-9-19T12:20:48Z</time></trkpt>
<trkpt lat="46.31239389069378376007080078125" lon="7.45930080302059650421142578125"><ele></ele><time>2020-9-19T12:20:51Z</time></trkpt>
<trkpt lat="46.31236354820430278778076171875" lon="7.459218241274356842041015625"><ele></ele><time>2020-9-19T12:20:54Z</time></trkpt>
<trkpt lat="46.31232373416423797607421875" lon="7.45914347469806671142578125"><ele></ele><time>2020-9-19T12:20:57Z</time></trkpt>
<trkpt lat="46.3122756220400333404541015625" lon="7.45907868258655071258544921875"><ele></ele><time>2020-9-19T12:21:0Z</time></trkpt>
<trkpt lat="46.31222759373486042022705078125" lon="7.45902084745466709136962890625"><ele></ele><time>2020-9-19T12:21:3Z</time></trkpt>
<trkpt lat="46.31218702532351016998291015625" lon="7.458972148597240447998046875"><ele></ele><time>2020-9-19T12:21:6Z</time></trkpt>
<trkpt lat="46.3121540844440460205078125" lon="7.45892344973981380462646484375"><ele></ele><time>2020-9-19T12:21:9Z</time></trkpt>
<trkpt lat="46.31212013773620128631591796875" lon="7.4588683806359767913818359375"><ele></ele><time>2020-9-19T12:21:12Z</time></trkpt>
<trkpt lat="46.31208862178027629852294921875" lon="7.4588087014853954315185546875"><ele></ele><time>2020-9-19T12:21:15Z</time></trkpt>
<trkpt lat="46.312050484120845794677734375" lon="7.4587490223348140716552734375"><ele></ele><time>2020-9-19T12:21:18Z</time></trkpt>
<trkpt lat="46.3120060600340366363525390625" lon="7.4586873315274715423583984375"><ele></ele><time>2020-9-19T12:21:21Z</time></trkpt>
<trkpt lat="46.31196021102368831634521484375" lon="7.45862036012113094329833984375"><ele></ele><time>2020-9-19T12:21:24Z</time></trkpt>
<trkpt lat="46.3119192235171794891357421875" lon="7.4585552327334880828857421875"><ele></ele><time>2020-9-19T12:21:27Z</time></trkpt>
<trkpt lat="46.311881504952907562255859375" lon="7.45847971178591251373291015625"><ele></ele><time>2020-9-19T12:21:30Z</time></trkpt>
<trkpt lat="46.31184806115925312042236328125" lon="7.45839237235486507415771484375"><ele></ele><time>2020-9-19T12:21:33Z</time></trkpt>
<trkpt lat="46.311817467212677001953125" lon="7.4583064578473567962646484375"><ele></ele><time>2020-9-19T12:21:36Z</time></trkpt>
<trkpt lat="46.311790309846401214599609375" lon="7.45822641067206859588623046875"><ele></ele><time>2020-9-19T12:21:39Z</time></trkpt>
<trkpt lat="46.31176088936626911163330078125" lon="7.45814410038292407989501953125"><ele></ele><time>2020-9-19T12:21:42Z</time></trkpt>
<trkpt lat="46.3116969354450702667236328125" lon="7.45797210372984409332275390625"><ele></ele><time>2020-9-19T12:21:45Z</time></trkpt>
<trkpt lat="46.311670280992984771728515625" lon="7.45789348147809505462646484375"><ele></ele><time>2020-9-19T12:21:48Z</time></trkpt>
<trkpt lat="46.31164840422570705413818359375" lon="7.45782156474888324737548828125"><ele></ele><time>2020-9-19T12:21:51Z</time></trkpt>
<trkpt lat="46.3116328977048397064208984375" lon="7.4577492289245128631591796875"><ele></ele><time>2020-9-19T12:21:54Z</time></trkpt>
<trkpt lat="46.311621330678462982177734375" lon="7.45768443681299686431884765625"><ele></ele><time>2020-9-19T12:21:57Z</time></trkpt>
<trkpt lat="46.311605237424373626708984375" lon="7.4576285295188426971435546875"><ele></ele><time>2020-9-19T12:22:0Z</time></trkpt>
<trkpt lat="46.31158755160868167877197265625" lon="7.45757580734789371490478515625"><ele></ele><time>2020-9-19T12:22:3Z</time></trkpt>
<trkpt lat="46.31156542338430881500244140625" lon="7.4575245939195156097412109375"><ele></ele><time>2020-9-19T12:22:6Z</time></trkpt>
<trkpt lat="46.3114937581121921539306640625" lon="7.45740330778062343597412109375"><ele></ele><time>2020-9-19T12:22:9Z</time></trkpt>
<trkpt lat="46.31145872175693511962890625" lon="7.4573385156691074371337890625"><ele></ele><time>2020-9-19T12:22:12Z</time></trkpt>
<trkpt lat="46.3114206679165363311767578125" lon="7.4572704546153545379638671875"><ele></ele><time>2020-9-19T12:22:15Z</time></trkpt>
<trkpt lat="46.3113794289529323577880859375" lon="7.4572000466287136077880859375"><ele></ele><time>2020-9-19T12:22:18Z</time></trkpt>
<trkpt lat="46.311334669589996337890625" lon="7.4571346677839756011962890625"><ele></ele><time>2020-9-19T12:22:21Z</time></trkpt>
<trkpt lat="46.311288736760616302490234375" lon="7.45708093978464603424072265625"><ele></ele><time>2020-9-19T12:22:24Z</time></trkpt>
<trkpt lat="46.3112340867519378662109375" lon="7.45704506523907184600830078125"><ele></ele><time>2020-9-19T12:22:27Z</time></trkpt>
<trkpt lat="46.3111728988587856292724609375" lon="7.45702880434691905975341796875"><ele></ele><time>2020-9-19T12:22:30Z</time></trkpt>
<trkpt lat="46.31111137568950653076171875" lon="7.45702411048114299774169921875"><ele></ele><time>2020-9-19T12:22:33Z</time></trkpt>
<trkpt lat="46.31105412729084491729736328125" lon="7.45702059008181095123291015625"><ele></ele><time>2020-9-19T12:22:36Z</time></trkpt>
<trkpt lat="46.31100534461438655853271484375" lon="7.45701354928314685821533203125"><ele></ele><time>2020-9-19T12:22:39Z</time></trkpt>
<trkpt lat="46.31096242927014827728271484375" lon="7.45699410326778888702392578125"><ele></ele><time>2020-9-19T12:22:42Z</time></trkpt>
<trkpt lat="46.310926638543605804443359375" lon="7.4569552950561046600341796875"><ele></ele><time>2020-9-19T12:22:45Z</time></trkpt>
<trkpt lat="46.31090291775763034820556640625" lon="7.4568862281739711761474609375"><ele></ele><time>2020-9-19T12:22:48Z</time></trkpt>
<trkpt lat="46.31087944842875003814697265625" lon="7.45680634863674640655517578125"><ele></ele><time>2020-9-19T12:22:51Z</time></trkpt>
<trkpt lat="46.31085815839469432830810546875" lon="7.4567108787596225738525390625"><ele></ele><time>2020-9-19T12:22:54Z</time></trkpt>
<trkpt lat="46.31081163883209228515625" lon="7.4565056897699832916259765625"><ele></ele><time>2020-9-19T12:22:57Z</time></trkpt>
<trkpt lat="46.310787163674831390380859375" lon="7.4564057774841785430908203125"><ele></ele><time>2020-9-19T12:23:0Z</time></trkpt>
<trkpt lat="46.310755312442779541015625" lon="7.456312738358974456787109375"><ele></ele><time>2020-9-19T12:23:3Z</time></trkpt>
<trkpt lat="46.31071784533560276031494140625" lon="7.456223554909229278564453125"><ele></ele><time>2020-9-19T12:23:6Z</time></trkpt>
<trkpt lat="46.31068130023777484893798828125" lon="7.456135042011737823486328125"><ele></ele><time>2020-9-19T12:23:9Z</time></trkpt>
<trkpt lat="46.31064291112124919891357421875" lon="7.456049211323261260986328125"><ele></ele><time>2020-9-19T12:23:12Z</time></trkpt>
<trkpt lat="46.31059697829186916351318359375" lon="7.45596706867218017578125"><ele></ele><time>2020-9-19T12:23:15Z</time></trkpt>
<trkpt lat="46.31055221892893314361572265625" lon="7.45589171536266803741455078125"><ele></ele><time>2020-9-19T12:23:18Z</time></trkpt>
<trkpt lat="46.31050947122275829315185546875" lon="7.45582348667085170745849609375"><ele></ele><time>2020-9-19T12:23:21Z</time></trkpt>
<trkpt lat="46.310460269451141357421875" lon="7.45576179586350917816162109375"><ele></ele><time>2020-9-19T12:23:24Z</time></trkpt>
<trkpt lat="46.3104101456701755523681640625" lon="7.45569976978003978729248046875"><ele></ele><time>2020-9-19T12:23:27Z</time></trkpt>
<trkpt lat="46.310369074344635009765625" lon="7.45564327575266361236572265625"><ele></ele><time>2020-9-19T12:23:30Z</time></trkpt>
<trkpt lat="46.31032875739037990570068359375" lon="7.4555980972945690155029296875"><ele></ele><time>2020-9-19T12:23:33Z</time></trkpt>
<trkpt lat="46.31027989089488983154296875" lon="7.45556180365383625030517578125"><ele></ele><time>2020-9-19T12:23:36Z</time></trkpt>
<trkpt lat="46.31022264249622821807861328125" lon="7.45553280226886272430419921875"><ele></ele><time>2020-9-19T12:23:39Z</time></trkpt>
<trkpt lat="46.3101533241569995880126953125" lon="7.45551235042512416839599609375"><ele></ele><time>2020-9-19T12:23:42Z</time></trkpt>
<trkpt lat="46.31008299998939037322998046875" lon="7.45551444590091705322265625"><ele></ele><time>2020-9-19T12:23:45Z</time></trkpt>
<trkpt lat="46.3100161962211132049560546875" lon="7.45550983585417270660400390625"><ele></ele><time>2020-9-19T12:23:48Z</time></trkpt>
<trkpt lat="46.30995408631861209869384765625" lon="7.45549835264682769775390625"><ele></ele><time>2020-9-19T12:23:51Z</time></trkpt>
<trkpt lat="46.30982684902846813201904296875" lon="7.4554468877613544464111328125"><ele></ele><time>2020-9-19T12:23:54Z</time></trkpt>
<trkpt lat="46.30977253429591655731201171875" lon="7.4554079957306385040283203125"><ele></ele><time>2020-9-19T12:23:57Z</time></trkpt>
<trkpt lat="46.30972945131361484527587890625" lon="7.4553684331476688385009765625"><ele></ele><time>2020-9-19T12:24:0Z</time></trkpt>
<trkpt lat="46.30969558842480182647705078125" lon="7.45532493107020854949951171875"><ele></ele><time>2020-9-19T12:24:3Z</time></trkpt>
<trkpt lat="46.30966558121144771575927734375" lon="7.45527715422213077545166015625"><ele></ele><time>2020-9-19T12:24:6Z</time></trkpt>
<trkpt lat="46.309635154902935028076171875" lon="7.45522786863148212432861328125"><ele></ele><time>2020-9-19T12:24:9Z</time></trkpt>
<trkpt lat="46.30960187874734401702880859375" lon="7.45518210344016551971435546875"><ele></ele><time>2020-9-19T12:24:12Z</time></trkpt>
<trkpt lat="46.30956717766821384429931640625" lon="7.455141283571720123291015625"><ele></ele><time>2020-9-19T12:24:15Z</time></trkpt>
<trkpt lat="46.3095357455313205718994140625" lon="7.45508722029626369476318359375"><ele></ele><time>2020-9-19T12:24:18Z</time></trkpt>
<trkpt lat="46.309510767459869384765625" lon="7.45503743179142475128173828125"><ele></ele><time>2020-9-19T12:24:21Z</time></trkpt>
<trkpt lat="46.3094861246645450592041015625" lon="7.454989068210124969482421875"><ele></ele><time>2020-9-19T12:24:24Z</time></trkpt>
<trkpt lat="46.30946257151663303375244140625" lon="7.45493466965854167938232421875"><ele></ele><time>2020-9-19T12:24:27Z</time></trkpt>
<trkpt lat="46.309441365301609039306640625" lon="7.454879768192768096923828125"><ele></ele><time>2020-9-19T12:24:30Z</time></trkpt>
<trkpt lat="46.30941730923950672149658203125" lon="7.45482872240245342254638671875"><ele></ele><time>2020-9-19T12:24:33Z</time></trkpt>
<trkpt lat="46.309385038912296295166015625" lon="7.45478932745754718780517578125"><ele></ele><time>2020-9-19T12:24:36Z</time></trkpt>
<trkpt lat="46.30934639833867549896240234375" lon="7.45476971380412578582763671875"><ele></ele><time>2020-9-19T12:24:39Z</time></trkpt>
<trkpt lat="46.30929895676672458648681640625" lon="7.45475311763584613800048828125"><ele></ele><time>2020-9-19T12:24:42Z</time></trkpt>
<trkpt lat="46.30924363620579242706298828125" lon="7.45472587645053863525390625"><ele></ele><time>2020-9-19T12:24:45Z</time></trkpt>
<trkpt lat="46.3091820292174816131591796875" lon="7.45469427667558193206787109375"><ele></ele><time>2020-9-19T12:24:48Z</time></trkpt>
<trkpt lat="46.30904682911932468414306640625" lon="7.45460140518844127655029296875"><ele></ele><time>2020-9-19T12:24:51Z</time></trkpt>
<trkpt lat="46.30897575058043003082275390625" lon="7.45455815456807613372802734375"><ele></ele><time>2020-9-19T12:24:54Z</time></trkpt>
<trkpt lat="46.308904588222503662109375" lon="7.454525716602802276611328125"><ele></ele><time>2020-9-19T12:24:57Z</time></trkpt>
<trkpt lat="46.3088279776275157928466796875" lon="7.4544883333146572113037109375"><ele></ele><time>2020-9-19T12:25:0Z</time></trkpt>
<trkpt lat="46.3087629340589046478271484375" lon="7.45445773936808109283447265625"><ele></ele><time>2020-9-19T12:25:3Z</time></trkpt>
<trkpt lat="46.3087047636508941650390625" lon="7.4544199369847774505615234375"><ele></ele><time>2020-9-19T12:25:6Z</time></trkpt>
<trkpt lat="46.30864835344254970550537109375" lon="7.45437140576541423797607421875"><ele></ele><time>2020-9-19T12:25:9Z</time></trkpt>
<trkpt lat="46.30859655328094959259033203125" lon="7.4543260596692562103271484375"><ele></ele><time>2020-9-19T12:25:12Z</time></trkpt>
<trkpt lat="46.30854659713804721832275390625" lon="7.45429228059947490692138671875"><ele></ele><time>2020-9-19T12:25:15Z</time></trkpt>
<trkpt lat="46.30849563516676425933837890625" lon="7.4542586691677570343017578125"><ele></ele><time>2020-9-19T12:25:18Z</time></trkpt>
<trkpt lat="46.3084504567086696624755859375" lon="7.454221285879611968994140625"><ele></ele><time>2020-9-19T12:25:21Z</time></trkpt>
<trkpt lat="46.3084139116108417510986328125" lon="7.454185746610164642333984375"><ele></ele><time>2020-9-19T12:25:24Z</time></trkpt>
<trkpt lat="46.30838667042553424835205078125" lon="7.45415448211133480072021484375"><ele></ele><time>2020-9-19T12:25:27Z</time></trkpt>
<trkpt lat="46.30835783667862415313720703125" lon="7.4541195295751094818115234375"><ele></ele><time>2020-9-19T12:25:30Z</time></trkpt>
<trkpt lat="46.30832749418914318084716796875" lon="7.4540829844772815704345703125"><ele></ele><time>2020-9-19T12:25:33Z</time></trkpt>
<trkpt lat="46.30830201320350170135498046875" lon="7.45404459536075592041015625"><ele></ele><time>2020-9-19T12:25:36Z</time></trkpt>
<trkpt lat="46.308277286589145660400390625" lon="7.45400964282453060150146484375"><ele></ele><time>2020-9-19T12:25:39Z</time></trkpt>
<trkpt lat="46.308249123394489288330078125" lon="7.4539713375270366668701171875"><ele></ele><time>2020-9-19T12:25:42Z</time></trkpt>
<trkpt lat="46.308214254677295684814453125" lon="7.45393772609531879425048828125"><ele></ele><time>2020-9-19T12:25:45Z</time></trkpt>
<trkpt lat="46.30817226134240627288818359375" lon="7.453908137977123260498046875"><ele></ele><time>2020-9-19T12:25:48Z</time></trkpt>
<trkpt lat="46.308131106197834014892578125" lon="7.45388776995241641998291015625"><ele></ele><time>2020-9-19T12:25:51Z</time></trkpt>
<trkpt lat="46.3080917112529277801513671875" lon="7.45386497117578983306884765625"><ele></ele><time>2020-9-19T12:25:54Z</time></trkpt>
<trkpt lat="46.30805172957479953765869140625" lon="7.45384150184690952301025390625"><ele></ele><time>2020-9-19T12:25:57Z</time></trkpt>
<trkpt lat="46.30801434628665447235107421875" lon="7.45381987653672695159912109375"><ele></ele><time>2020-9-19T12:26:0Z</time></trkpt>
<trkpt lat="46.3079757057130336761474609375" lon="7.453797496855258941650390625"><ele></ele><time>2020-9-19T12:26:3Z</time></trkpt>
<trkpt lat="46.30794293247163295745849609375" lon="7.45378282852470874786376953125"><ele></ele><time>2020-9-19T12:26:6Z</time></trkpt>
<trkpt lat="46.30791460163891315460205078125" lon="7.45379154570400714874267578125"><ele></ele><time>2020-9-19T12:26:9Z</time></trkpt>
<trkpt lat="46.30789213813841342926025390625" lon="7.453815937042236328125"><ele></ele><time>2020-9-19T12:26:12Z</time></trkpt>
<trkpt lat="46.3078727759420871734619140625" lon="7.4538442678749561309814453125"><ele></ele><time>2020-9-19T12:26:15Z</time></trkpt>
<trkpt lat="46.30785542540252208709716796875" lon="7.4538643844425678253173828125"><ele></ele><time>2020-9-19T12:26:18Z</time></trkpt>
<trkpt lat="46.3078315369784832000732421875" lon="7.45388391427695751190185546875"><ele></ele><time>2020-9-19T12:26:21Z</time></trkpt>
<trkpt lat="46.30780898965895175933837890625" lon="7.453907467424869537353515625"><ele></ele><time>2020-9-19T12:26:24Z</time></trkpt>
<trkpt lat="46.30776288919150829315185546875" lon="7.45396320708096027374267578125"><ele></ele><time>2020-9-19T12:26:27Z</time></trkpt>
<trkpt lat="46.30773422308266162872314453125" lon="7.45398919098079204559326171875"><ele></ele><time>2020-9-19T12:26:30Z</time></trkpt>
<trkpt lat="46.3076763041317462921142578125" lon="7.45403713546693325042724609375"><ele></ele><time>2020-9-19T12:26:33Z</time></trkpt>
<trkpt lat="46.30764084868133068084716796875" lon="7.4540511332452297210693359375"><ele></ele><time>2020-9-19T12:26:36Z</time></trkpt>
<trkpt lat="46.3076050579547882080078125" lon="7.45405825786292552947998046875"><ele></ele><time>2020-9-19T12:26:39Z</time></trkpt>
<trkpt lat="46.3075663335621356964111328125" lon="7.45404534973204135894775390625"><ele></ele><time>2020-9-19T12:26:42Z</time></trkpt>
<trkpt lat="46.30754613317549228668212890625" lon="7.45401567779481410980224609375"><ele></ele><time>2020-9-19T12:26:45Z</time></trkpt>
<trkpt lat="46.30754261277616024017333984375" lon="7.45397980324923992156982421875"><ele></ele><time>2020-9-19T12:26:48Z</time></trkpt>
<trkpt lat="46.30753842182457447052001953125" lon="7.45393085293471813201904296875"><ele></ele><time>2020-9-19T12:26:51Z</time></trkpt>
<trkpt lat="46.30753523670136928558349609375" lon="7.45386413298547267913818359375"><ele></ele><time>2020-9-19T12:26:54Z</time></trkpt>
<trkpt lat="46.3075304590165615081787109375" lon="7.45378450490534305572509765625"><ele></ele><time>2020-9-19T12:26:57Z</time></trkpt>
<trkpt lat="46.30750204436480998992919921875" lon="7.4535331316292285919189453125"><ele></ele><time>2020-9-19T12:27:0Z</time></trkpt>
<trkpt lat="46.3074808381497859954833984375" lon="7.4534486420452594757080078125"><ele></ele><time>2020-9-19T12:27:3Z</time></trkpt>
<trkpt lat="46.30743951536715030670166015625" lon="7.4532823450863361358642578125"><ele></ele><time>2020-9-19T12:27:6Z</time></trkpt>
<trkpt lat="46.30742157809436321258544921875" lon="7.45320213027298450469970703125"><ele></ele><time>2020-9-19T12:27:9Z</time></trkpt>
<trkpt lat="46.30740146152675151824951171875" lon="7.45312702842056751251220703125"><ele></ele><time>2020-9-19T12:27:12Z</time></trkpt>
<trkpt lat="46.30737916566431522369384765625" lon="7.45305142365396022796630859375"><ele></ele><time>2020-9-19T12:27:15Z</time></trkpt>
<trkpt lat="46.30735401995480060577392578125" lon="7.45297179557383060455322265625"><ele></ele><time>2020-9-19T12:27:18Z</time></trkpt>
<trkpt lat="46.307327114045619964599609375" lon="7.4528924189507961273193359375"><ele></ele><time>2020-9-19T12:27:21Z</time></trkpt>
<trkpt lat="46.3073018006980419158935546875" lon="7.4528216756880283355712890625"><ele></ele><time>2020-9-19T12:27:24Z</time></trkpt>
<trkpt lat="46.3072743080556392669677734375" lon="7.4527599848806858062744140625"><ele></ele><time>2020-9-19T12:27:27Z</time></trkpt>
<trkpt lat="46.30724019370973110198974609375" lon="7.452695108950138092041015625"><ele></ele><time>2020-9-19T12:27:30Z</time></trkpt>
<trkpt lat="46.3072055764496326446533203125" lon="7.4526225216686725616455078125"><ele></ele><time>2020-9-19T12:27:33Z</time></trkpt>
<trkpt lat="46.307170204818248748779296875" lon="7.452545575797557830810546875"><ele></ele><time>2020-9-19T12:27:36Z</time></trkpt>
<trkpt lat="46.3071334920823574066162109375" lon="7.45246988721191883087158203125"><ele></ele><time>2020-9-19T12:27:39Z</time></trkpt>
<trkpt lat="46.30710021592676639556884765625" lon="7.45239059440791606903076171875"><ele></ele><time>2020-9-19T12:27:42Z</time></trkpt>
<trkpt lat="46.30707004107534885406494140625" lon="7.45231213979423046112060546875"><ele></ele><time>2020-9-19T12:27:45Z</time></trkpt>
<trkpt lat="46.30703978240489959716796875" lon="7.45224022306501865386962890625"><ele></ele><time>2020-9-19T12:27:48Z</time></trkpt>
<trkpt lat="46.30701069720089435577392578125" lon="7.4521735869348049163818359375"><ele></ele><time>2020-9-19T12:27:51Z</time></trkpt>
<trkpt lat="46.306909024715423583984375" lon="7.45194216258823871612548828125"><ele></ele><time>2020-9-19T12:27:54Z</time></trkpt>
<trkpt lat="46.30686820484697818756103515625" lon="7.45184526778757572174072265625"><ele></ele><time>2020-9-19T12:27:57Z</time></trkpt>
<trkpt lat="46.30683233030140399932861328125" lon="7.451756000518798828125"><ele></ele><time>2020-9-19T12:28:0Z</time></trkpt>
<trkpt lat="46.30679947324097156524658203125" lon="7.4516639672219753265380859375"><ele></ele><time>2020-9-19T12:28:3Z</time></trkpt>
<trkpt lat="46.30676628090441226959228515625" lon="7.45157235302031040191650390625"><ele></ele><time>2020-9-19T12:28:6Z</time></trkpt>
<trkpt lat="46.306734345853328704833984375" lon="7.45147948153316974639892578125"><ele></ele><time>2020-9-19T12:28:9Z</time></trkpt>
<trkpt lat="46.30666167475283145904541015625" lon="7.4512772262096405029296875"><ele></ele><time>2020-9-19T12:28:12Z</time></trkpt>
<trkpt lat="46.30662429146468639373779296875" lon="7.45117907412350177764892578125"><ele></ele><time>2020-9-19T12:28:15Z</time></trkpt>
<trkpt lat="46.30659897811710834503173828125" lon="7.451093159615993499755859375"><ele></ele><time>2020-9-19T12:28:18Z</time></trkpt>
<trkpt lat="46.30657684989273548126220703125" lon="7.4510225839912891387939453125"><ele></ele><time>2020-9-19T12:28:21Z</time></trkpt>
<trkpt lat="46.3065645284950733184814453125" lon="7.4509615637362003326416015625"><ele></ele><time>2020-9-19T12:28:24Z</time></trkpt>
<trkpt lat="46.3065594993531703948974609375" lon="7.45089660398662090301513671875"><ele></ele><time>2020-9-19T12:28:27Z</time></trkpt>
<trkpt lat="46.30655405111610889434814453125" lon="7.4508480727672576904296875"><ele></ele><time>2020-9-19T12:28:30Z</time></trkpt>
<trkpt lat="46.3065380416810512542724609375" lon="7.45081094093620777130126953125"><ele></ele><time>2020-9-19T12:28:33Z</time></trkpt>
<trkpt lat="46.30651985295116901397705078125" lon="7.45077204890549182891845703125"><ele></ele><time>2020-9-19T12:28:36Z</time></trkpt>
<trkpt lat="46.3065080344676971435546875" lon="7.450737766921520233154296875"><ele></ele><time>2020-9-19T12:28:39Z</time></trkpt>
<trkpt lat="46.30649856291711330413818359375" lon="7.45071371085941791534423828125"><ele></ele><time>2020-9-19T12:28:42Z</time></trkpt>
<trkpt lat="46.3064931146800518035888671875" lon="7.45068672113120555877685546875"><ele></ele><time>2020-9-19T12:28:45Z</time></trkpt>
<trkpt lat="46.30649101920425891876220703125" lon="7.450648248195648193359375"><ele></ele><time>2020-9-19T12:28:48Z</time></trkpt>
<trkpt lat="46.30649655126035213470458984375" lon="7.4505961127579212188720703125"><ele></ele><time>2020-9-19T12:28:51Z</time></trkpt>
<trkpt lat="46.306510381400585174560546875" lon="7.450549341738224029541015625"><ele></ele><time>2020-9-19T12:28:54Z</time></trkpt>
<trkpt lat="46.30652873776853084564208984375" lon="7.4505116231739521026611328125"><ele></ele><time>2020-9-19T12:28:57Z</time></trkpt>
<trkpt lat="46.30654499866068363189697265625" lon="7.45047063566744327545166015625"><ele></ele><time>2020-9-19T12:29:0Z</time></trkpt>
<trkpt lat="46.30655237473547458648681640625" lon="7.45041531510651111602783203125"><ele></ele><time>2020-9-19T12:29:3Z</time></trkpt>
<trkpt lat="46.30655572749674320220947265625" lon="7.4503624252974987030029296875"><ele></ele><time>2020-9-19T12:29:6Z</time></trkpt>
<trkpt lat="46.30655656568706035614013671875" lon="7.45031825266778469085693359375"><ele></ele><time>2020-9-19T12:29:9Z</time></trkpt>
<trkpt lat="46.30655086599290370941162109375" lon="7.45028145611286163330078125"><ele></ele><time>2020-9-19T12:29:12Z</time></trkpt>
<trkpt lat="46.306537203490734100341796875" lon="7.45024248026311397552490234375"><ele></ele><time>2020-9-19T12:29:15Z</time></trkpt>
<trkpt lat="46.306522451341152191162109375" lon="7.45019017718732357025146484375"><ele></ele><time>2020-9-19T12:29:18Z</time></trkpt>
<trkpt lat="46.3065082021057605743408203125" lon="7.45013150386512279510498046875"><ele></ele><time>2020-9-19T12:29:21Z</time></trkpt>
<trkpt lat="46.306490600109100341796875" lon="7.450068555772304534912109375"><ele></ele><time>2020-9-19T12:29:24Z</time></trkpt>
<trkpt lat="46.306468807160854339599609375" lon="7.45000627823173999786376953125"><ele></ele><time>2020-9-19T12:29:27Z</time></trkpt>
<trkpt lat="46.30644558928906917572021484375" lon="7.449943162500858306884765625"><ele></ele><time>2020-9-19T12:29:30Z</time></trkpt>
<trkpt lat="46.3064222037792205810546875" lon="7.4498745985329151153564453125"><ele></ele><time>2020-9-19T12:29:33Z</time></trkpt>
<trkpt lat="46.306400410830974578857421875" lon="7.4497998319566249847412109375"><ele></ele><time>2020-9-19T12:29:36Z</time></trkpt>
<trkpt lat="46.30638088099658489227294921875" lon="7.44973369874060153961181640625"><ele></ele><time>2020-9-19T12:29:39Z</time></trkpt>
<trkpt lat="46.30636512301862239837646484375" lon="7.44967821054160594940185546875"><ele></ele><time>2020-9-19T12:29:42Z</time></trkpt>
<trkpt lat="46.306351460516452789306640625" lon="7.44962439872324466705322265625"><ele></ele><time>2020-9-19T12:29:45Z</time></trkpt>
<trkpt lat="46.30633897148072719573974609375" lon="7.44957226328551769256591796875"><ele></ele><time>2020-9-19T12:29:48Z</time></trkpt>
<trkpt lat="46.306330002844333648681640625" lon="7.44952834211289882659912109375"><ele></ele><time>2020-9-19T12:29:51Z</time></trkpt>
<trkpt lat="46.30631281994283199310302734375" lon="7.4494635500013828277587890625"><ele></ele><time>2020-9-19T12:29:54Z</time></trkpt>
<trkpt lat="46.30628876388072967529296875" lon="7.4493857659399509429931640625"><ele></ele><time>2020-9-19T12:29:57Z</time></trkpt>
<trkpt lat="46.3062681443989276885986328125" lon="7.4493099935352802276611328125"><ele></ele><time>2020-9-19T12:30:0Z</time></trkpt>
<trkpt lat="46.30624987185001373291015625" lon="7.44923681952059268951416015625"><ele></ele><time>2020-9-19T12:30:3Z</time></trkpt>
<trkpt lat="46.306192539632320404052734375" lon="7.44901704601943492889404296875"><ele></ele><time>2020-9-19T12:30:6Z</time></trkpt>
<trkpt lat="46.30618155933916568756103515625" lon="7.448969520628452301025390625"><ele></ele><time>2020-9-19T12:30:9Z</time></trkpt>
<trkpt lat="46.3061756081879138946533203125" lon="7.448925934731960296630859375"><ele></ele><time>2020-9-19T12:30:12Z</time></trkpt>
<trkpt lat="46.3061735965311527252197265625" lon="7.44887606240808963775634765625"><ele></ele><time>2020-9-19T12:30:15Z</time></trkpt>
<trkpt lat="46.30616697482764720916748046875" lon="7.44881437160074710845947265625"><ele></ele><time>2020-9-19T12:30:18Z</time></trkpt>
<trkpt lat="46.30615658126771450042724609375" lon="7.44876089505851268768310546875"><ele></ele><time>2020-9-19T12:30:21Z</time></trkpt>
<trkpt lat="46.306144259870052337646484375" lon="7.44871512986719608306884765625"><ele></ele><time>2020-9-19T12:30:24Z</time></trkpt>
<trkpt lat="46.306108050048351287841796875" lon="7.4486191570758819580078125"><ele></ele><time>2020-9-19T12:30:27Z</time></trkpt>
<trkpt lat="46.30608701147139072418212890625" lon="7.4485804326832294464111328125"><ele></ele><time>2020-9-19T12:30:30Z</time></trkpt>
<trkpt lat="46.30606421269476413726806640625" lon="7.4485519342124462127685546875"><ele></ele><time>2020-9-19T12:30:33Z</time></trkpt>
<trkpt lat="46.30604258738458156585693359375" lon="7.44852351956069469451904296875"><ele></ele><time>2020-9-19T12:30:36Z</time></trkpt>
<trkpt lat="46.306013502180576324462890625" lon="7.448471970856189727783203125"><ele></ele><time>2020-9-19T12:30:39Z</time></trkpt>
<trkpt lat="46.30598475225269794464111328125" lon="7.4484077654778957366943359375"><ele></ele><time>2020-9-19T12:30:42Z</time></trkpt>
<trkpt lat="46.3059523142874240875244140625" lon="7.4483232758939266204833984375"><ele></ele><time>2020-9-19T12:30:45Z</time></trkpt>
<trkpt lat="46.30589875392615795135498046875" lon="7.4481445737183094024658203125"><ele></ele><time>2020-9-19T12:30:48Z</time></trkpt>
<trkpt lat="46.30587394349277019500732421875" lon="7.44805966503918170928955078125"><ele></ele><time>2020-9-19T12:30:51Z</time></trkpt>
<trkpt lat="46.3058544136583805084228515625" lon="7.44798657484352588653564453125"><ele></ele><time>2020-9-19T12:30:54Z</time></trkpt>
<trkpt lat="46.3058356381952762603759765625" lon="7.44792488403618335723876953125"><ele></ele><time>2020-9-19T12:30:57Z</time></trkpt>
<trkpt lat="46.3058212213218212127685546875" lon="7.44787442497909069061279296875"><ele></ele><time>2020-9-19T12:31:0Z</time></trkpt>
<trkpt lat="46.30580068565905094146728515625" lon="7.4478250555694103240966796875"><ele></ele><time>2020-9-19T12:31:3Z</time></trkpt>
<trkpt lat="46.305784173309803009033203125" lon="7.44778566062450408935546875"><ele></ele><time>2020-9-19T12:31:6Z</time></trkpt>
<trkpt lat="46.30576296709477901458740234375" lon="7.44774349965155124664306640625"><ele></ele><time>2020-9-19T12:31:9Z</time></trkpt>
<trkpt lat="46.30574922077357769012451171875" lon="7.4476916156709194183349609375"><ele></ele><time>2020-9-19T12:31:12Z</time></trkpt>
<trkpt lat="46.30573228932917118072509765625" lon="7.447647191584110260009765625"><ele></ele><time>2020-9-19T12:31:15Z</time></trkpt>
<trkpt lat="46.3057033717632293701171875" lon="7.44761492125689983367919921875"><ele></ele><time>2020-9-19T12:31:18Z</time></trkpt>
<trkpt lat="46.30567126907408237457275390625" lon="7.447595559060573577880859375"><ele></ele><time>2020-9-19T12:31:21Z</time></trkpt>
<trkpt lat="46.305646710097789764404296875" lon="7.44759530760347843170166015625"><ele></ele><time>2020-9-19T12:31:24Z</time></trkpt>
<trkpt lat="46.30563187412917613983154296875" lon="7.44761642999947071075439453125"><ele></ele><time>2020-9-19T12:31:27Z</time></trkpt>
<trkpt lat="46.3056202232837677001953125" lon="7.447660267353057861328125"><ele></ele><time>2020-9-19T12:31:30Z</time></trkpt>
<trkpt lat="46.305605135858058929443359375" lon="7.447719611227512359619140625"><ele></ele><time>2020-9-19T12:31:33Z</time></trkpt>
<trkpt lat="46.30558476783335208892822265625" lon="7.44779161177575588226318359375"><ele></ele><time>2020-9-19T12:31:36Z</time></trkpt>
<trkpt lat="46.30555140785872936248779296875" lon="7.44794516824185848236083984375"><ele></ele><time>2020-9-19T12:31:39Z</time></trkpt>
<trkpt lat="46.30554554052650928497314453125" lon="7.44803912937641143798828125"><ele></ele><time>2020-9-19T12:31:42Z</time></trkpt>
<trkpt lat="46.30553908646106719970703125" lon="7.44812093675136566162109375"><ele></ele><time>2020-9-19T12:31:45Z</time></trkpt>
<trkpt lat="46.305530704557895660400390625" lon="7.44818455539643764495849609375"><ele></ele><time>2020-9-19T12:31:48Z</time></trkpt>
<trkpt lat="46.30551771260797977447509765625" lon="7.44823266752064228057861328125"><ele></ele><time>2020-9-19T12:31:51Z</time></trkpt>
<trkpt lat="46.30548435263335704803466796875" lon="7.44825127534568309783935546875"><ele></ele><time>2020-9-19T12:31:54Z</time></trkpt>
<trkpt lat="46.305446885526180267333984375" lon="7.44824272580444812774658203125"><ele></ele><time>2020-9-19T12:31:57Z</time></trkpt>
<trkpt lat="46.30540489219129085540771484375" lon="7.4482065998017787933349609375"><ele></ele><time>2020-9-19T12:32:0Z</time></trkpt>
<trkpt lat="46.305357702076435089111328125" lon="7.448172233998775482177734375"><ele></ele><time>2020-9-19T12:32:3Z</time></trkpt>
<trkpt lat="46.3053146190941333770751953125" lon="7.44813409633934497833251953125"><ele></ele><time>2020-9-19T12:32:6Z</time></trkpt>
<trkpt lat="46.3052777387201786041259765625" lon="7.44810241274535655975341796875"><ele></ele><time>2020-9-19T12:32:9Z</time></trkpt>
<trkpt lat="46.3052458874881267547607421875" lon="7.44808380492031574249267578125"><ele></ele><time>2020-9-19T12:32:12Z</time></trkpt>
<trkpt lat="46.3052177242934703826904296875" lon="7.44807894341647624969482421875"><ele></ele><time>2020-9-19T12:32:15Z</time></trkpt>
<trkpt lat="46.30519039928913116455078125" lon="7.44809688068926334381103515625"><ele></ele><time>2020-9-19T12:32:18Z</time></trkpt>
<trkpt lat="46.30515695549547672271728515625" lon="7.44812353514134883880615234375"><ele></ele><time>2020-9-19T12:32:21Z</time></trkpt>
<trkpt lat="46.30506374873220920562744140625" lon="7.4481901712715625762939453125"><ele></ele><time>2020-9-19T12:32:24Z</time></trkpt>
<trkpt lat="46.30501161329448223114013671875" lon="7.4482297338545322418212890625"><ele></ele><time>2020-9-19T12:32:27Z</time></trkpt>
<trkpt lat="46.30496500991284847259521484375" lon="7.448268793523311614990234375"><ele></ele><time>2020-9-19T12:32:30Z</time></trkpt>
<trkpt lat="46.30492025054991245269775390625" lon="7.4482924304902553558349609375"><ele></ele><time>2020-9-19T12:32:33Z</time></trkpt>
<trkpt lat="46.30488269962370395660400390625" lon="7.44830123148858547210693359375"><ele></ele><time>2020-9-19T12:32:36Z</time></trkpt>
<trkpt lat="46.30485378205776214599609375" lon="7.44829352013766765594482421875"><ele></ele><time>2020-9-19T12:32:39Z</time></trkpt>
<trkpt lat="46.30483374930918216705322265625" lon="7.4482691287994384765625"><ele></ele><time>2020-9-19T12:32:42Z</time></trkpt>
<trkpt lat="46.3048177398741245269775390625" lon="7.4482267163693904876708984375"><ele></ele><time>2020-9-19T12:32:45Z</time></trkpt>
<trkpt lat="46.30480223335325717926025390625" lon="7.44817282073199748992919921875"><ele></ele><time>2020-9-19T12:32:48Z</time></trkpt>
<trkpt lat="46.3047860562801361083984375" lon="7.44810995645821094512939453125"><ele></ele><time>2020-9-19T12:32:51Z</time></trkpt>
<trkpt lat="46.30475093610584735870361328125" lon="7.4479584954679012298583984375"><ele></ele><time>2020-9-19T12:32:54Z</time></trkpt>
<trkpt lat="46.304732747375965118408203125" lon="7.44786822237074375152587890625"><ele></ele><time>2020-9-19T12:32:57Z</time></trkpt>
<trkpt lat="46.304716654121875762939453125" lon="7.4477683939039707183837890625"><ele></ele><time>2020-9-19T12:33:0Z</time></trkpt>
<trkpt lat="46.304699219763278961181640625" lon="7.44766403920948505401611328125"><ele></ele><time>2020-9-19T12:33:3Z</time></trkpt>
<trkpt lat="46.30465370602905750274658203125" lon="7.4474468640983104705810546875"><ele></ele><time>2020-9-19T12:33:6Z</time></trkpt>
<trkpt lat="46.30463023670017719268798828125" lon="7.44734066538512706756591796875"><ele></ele><time>2020-9-19T12:33:9Z</time></trkpt>
<trkpt lat="46.304609365761280059814453125" lon="7.4472356401383876800537109375"><ele></ele><time>2020-9-19T12:33:12Z</time></trkpt>
<trkpt lat="46.30458983592689037322998046875" lon="7.44713463820517063140869140625"><ele></ele><time>2020-9-19T12:33:15Z</time></trkpt>
<trkpt lat="46.304567120969295501708984375" lon="7.4470339715480804443359375"><ele></ele><time>2020-9-19T12:33:18Z</time></trkpt>
<trkpt lat="46.30454557947814464569091796875" lon="7.44694353081285953521728515625"><ele></ele><time>2020-9-19T12:33:21Z</time></trkpt>
<trkpt lat="46.3045270554721355438232421875" lon="7.44686700403690338134765625"><ele></ele><time>2020-9-19T12:33:24Z</time></trkpt>
<trkpt lat="46.30451339296996593475341796875" lon="7.44680657051503658294677734375"><ele></ele><time>2020-9-19T12:33:27Z</time></trkpt>
<trkpt lat="46.30449277348816394805908203125" lon="7.44676264934241771697998046875"><ele></ele><time>2020-9-19T12:33:30Z</time></trkpt>
<trkpt lat="46.30446796305477619171142578125" lon="7.44674630463123321533203125"><ele></ele><time>2020-9-19T12:33:33Z</time></trkpt>
<trkpt lat="46.30442823283374309539794921875" lon="7.44675007648766040802001953125"><ele></ele><time>2020-9-19T12:33:36Z</time></trkpt>
<trkpt lat="46.30433343350887298583984375" lon="7.44680120609700679779052734375"><ele></ele><time>2020-9-19T12:33:39Z</time></trkpt>
<trkpt lat="46.304277442395687103271484375" lon="7.44684554636478424072265625"><ele></ele><time>2020-9-19T12:33:42Z</time></trkpt>
<trkpt lat="46.3042189367115497589111328125" lon="7.44690145365893840789794921875"><ele></ele><time>2020-9-19T12:33:45Z</time></trkpt>
<trkpt lat="46.30410787649452686309814453125" lon="7.44703992269933223724365234375"><ele></ele><time>2020-9-19T12:33:48Z</time></trkpt>
<trkpt lat="46.3040590099990367889404296875" lon="7.44713111780583858489990234375"><ele></ele><time>2020-9-19T12:33:51Z</time></trkpt>
<trkpt lat="46.303965635597705841064453125" lon="7.44732876308262348175048828125"><ele></ele><time>2020-9-19T12:33:54Z</time></trkpt>
<trkpt lat="46.30392833612859249114990234375" lon="7.447429932653903961181640625"><ele></ele><time>2020-9-19T12:33:57Z</time></trkpt>
<trkpt lat="46.3039041124284267425537109375" lon="7.4475273303687572479248046875"><ele></ele><time>2020-9-19T12:34:0Z</time></trkpt>
<trkpt lat="46.30389078520238399505615234375" lon="7.447601258754730224609375"><ele></ele><time>2020-9-19T12:34:3Z</time></trkpt>
<trkpt lat="46.3038752786815166473388671875" lon="7.44765079580247402191162109375"><ele></ele><time>2020-9-19T12:34:6Z</time></trkpt>
<trkpt lat="46.30384334363043308258056640625" lon="7.44769253768026828765869140625"><ele></ele><time>2020-9-19T12:34:9Z</time></trkpt>
<trkpt lat="46.303804032504558563232421875" lon="7.44773411191999912261962890625"><ele></ele><time>2020-9-19T12:34:12Z</time></trkpt>
<trkpt lat="46.3037579320371150970458984375" lon="7.44776478968560695648193359375"><ele></ele><time>2020-9-19T12:34:15Z</time></trkpt>
<trkpt lat="46.30369682796299457550048828125" lon="7.44779496453702449798583984375"><ele></ele><time>2020-9-19T12:34:18Z</time></trkpt>
<trkpt lat="46.30363731645047664642333984375" lon="7.4478305876255035400390625"><ele></ele><time>2020-9-19T12:34:21Z</time></trkpt>
<trkpt lat="46.30351309664547443389892578125" lon="7.4479212798178195953369140625"><ele></ele><time>2020-9-19T12:34:24Z</time></trkpt>
<trkpt lat="46.30345090292394161224365234375" lon="7.44797115214169025421142578125"><ele></ele><time>2020-9-19T12:34:27Z</time></trkpt>
<trkpt lat="46.30338703282177448272705078125" lon="7.44801674969494342803955078125"><ele></ele><time>2020-9-19T12:34:30Z</time></trkpt>
<trkpt lat="46.30332886241376399993896484375" lon="7.4480574019253253936767578125"><ele></ele><time>2020-9-19T12:34:33Z</time></trkpt>
<trkpt lat="46.30327664315700531005859375" lon="7.4481043405830860137939453125"><ele></ele><time>2020-9-19T12:34:36Z</time></trkpt>
<trkpt lat="46.30323431454598903656005859375" lon="7.44815044105052947998046875"><ele></ele><time>2020-9-19T12:34:39Z</time></trkpt>
<trkpt lat="46.3031970150768756866455078125" lon="7.4481982178986072540283203125"><ele></ele><time>2020-9-19T12:34:42Z</time></trkpt>
<trkpt lat="46.303155608475208282470703125" lon="7.44823115877807140350341796875"><ele></ele><time>2020-9-19T12:34:45Z</time></trkpt>
<trkpt lat="46.30311973392963409423828125" lon="7.448235936462879180908203125"><ele></ele><time>2020-9-19T12:34:48Z</time></trkpt>
<trkpt lat="46.30307086743414402008056640625" lon="7.448237948119640350341796875"><ele></ele><time>2020-9-19T12:34:51Z</time></trkpt>
<trkpt lat="46.30301286466419696807861328125" lon="7.4482625909149646759033203125"><ele></ele><time>2020-9-19T12:34:54Z</time></trkpt>
<trkpt lat="46.30295989103615283966064453125" lon="7.44829435832798480987548828125"><ele></ele><time>2020-9-19T12:34:57Z</time></trkpt>
<trkpt lat="46.30291052162647247314453125" lon="7.44831967167556285858154296875"><ele></ele><time>2020-9-19T12:35:0Z</time></trkpt>
<trkpt lat="46.30278806202113628387451171875" lon="7.44835504330694675445556640625"><ele></ele><time>2020-9-19T12:35:3Z</time></trkpt>
<trkpt lat="46.30272067151963710784912109375" lon="7.44837440550327301025390625"><ele></ele><time>2020-9-19T12:35:6Z</time></trkpt>
<trkpt lat="46.3025948591530323028564453125" lon="7.4484104476869106292724609375"><ele></ele><time>2020-9-19T12:35:9Z</time></trkpt>
<trkpt lat="46.302533335983753204345703125" lon="7.44842763058841228485107421875"><ele></ele><time>2020-9-19T12:35:12Z</time></trkpt>
<trkpt lat="46.3024724833667278289794921875" lon="7.448442466557025909423828125"><ele></ele><time>2020-9-19T12:35:15Z</time></trkpt>
<trkpt lat="46.3024104572832584381103515625" lon="7.44844892062246799468994140625"><ele></ele><time>2020-9-19T12:35:18Z</time></trkpt>
<trkpt lat="46.30235086195170879364013671875" lon="7.4484516866505146026611328125"><ele></ele><time>2020-9-19T12:35:21Z</time></trkpt>
<trkpt lat="46.30222563631832599639892578125" lon="7.4484528601169586181640625"><ele></ele><time>2020-9-19T12:35:24Z</time></trkpt>
<trkpt lat="46.30215656943619251251220703125" lon="7.44844690896570682525634765625"><ele></ele><time>2020-9-19T12:35:27Z</time></trkpt>
<trkpt lat="46.3020114786922931671142578125" lon="7.4484231881797313690185546875"><ele></ele><time>2020-9-19T12:35:30Z</time></trkpt>
<trkpt lat="46.30193377844989299774169921875" lon="7.44840634055435657501220703125"><ele></ele><time>2020-9-19T12:35:33Z</time></trkpt>
<trkpt lat="46.30185146816074848175048828125" lon="7.4483963660895824432373046875"><ele></ele><time>2020-9-19T12:35:36Z</time></trkpt>
<trkpt lat="46.30176723003387451171875" lon="7.4483866430819034576416015625"><ele></ele><time>2020-9-19T12:35:39Z</time></trkpt>
<trkpt lat="46.3015930540859699249267578125" lon="7.44835956953465938568115234375"><ele></ele><time>2020-9-19T12:35:42Z</time></trkpt>
<trkpt lat="46.30149993114173412322998046875" lon="7.44834196753799915313720703125"><ele></ele><time>2020-9-19T12:35:45Z</time></trkpt>
<trkpt lat="46.30140370689332485198974609375" lon="7.44832000695168972015380859375"><ele></ele><time>2020-9-19T12:35:48Z</time></trkpt>
<trkpt lat="46.30130731500685214996337890625" lon="7.4482927657663822174072265625"><ele></ele><time>2020-9-19T12:35:51Z</time></trkpt>
<trkpt lat="46.3011132739484310150146484375" lon="7.44822596199810504913330078125"><ele></ele><time>2020-9-19T12:35:54Z</time></trkpt>
<trkpt lat="46.301018558442592620849609375" lon="7.4481754191219806671142578125"><ele></ele><time>2020-9-19T12:35:57Z</time></trkpt>
<trkpt lat="46.300836168229579925537109375" lon="7.448054216802120208740234375"><ele></ele><time>2020-9-19T12:36:0Z</time></trkpt>
<trkpt lat="46.30075209774076938629150390625" lon="7.44798372499644756317138671875"><ele></ele><time>2020-9-19T12:36:3Z</time></trkpt>
<trkpt lat="46.3006666861474514007568359375" lon="7.44790610857307910919189453125"><ele></ele><time>2020-9-19T12:36:6Z</time></trkpt>
<trkpt lat="46.30058513022959232330322265625" lon="7.44783134199678897857666015625"><ele></ele><time>2020-9-19T12:36:9Z</time></trkpt>
<trkpt lat="46.300509274005889892578125" lon="7.44775288738310337066650390625"><ele></ele><time>2020-9-19T12:36:12Z</time></trkpt>
<trkpt lat="46.300442554056644439697265625" lon="7.447682730853557586669921875"><ele></ele><time>2020-9-19T12:36:15Z</time></trkpt>
<trkpt lat="46.30037675611674785614013671875" lon="7.447614334523677825927734375"><ele></ele><time>2020-9-19T12:36:18Z</time></trkpt>
<trkpt lat="46.30031305365264415740966796875" lon="7.4475611932575702667236328125"><ele></ele><time>2020-9-19T12:36:21Z</time></trkpt>
<trkpt lat="46.30025153048336505889892578125" lon="7.44752322323620319366455078125"><ele></ele><time>2020-9-19T12:36:24Z</time></trkpt>
<trkpt lat="46.30020149052143096923828125" lon="7.44749288074672222137451171875"><ele></ele><time>2020-9-19T12:36:27Z</time></trkpt>
<trkpt lat="46.3001688010990619659423828125" lon="7.447458095848560333251953125"><ele></ele><time>2020-9-19T12:36:30Z</time></trkpt>
<trkpt lat="46.30015145055949687957763671875" lon="7.447417192161083221435546875"><ele></ele><time>2020-9-19T12:36:33Z</time></trkpt>
<trkpt lat="46.30013887770473957061767578125" lon="7.4473808147013187408447265625"><ele></ele><time>2020-9-19T12:36:36Z</time></trkpt>
<trkpt lat="46.3001185096800327301025390625" lon="7.44735374115407466888427734375"><ele></ele><time>2020-9-19T12:36:39Z</time></trkpt>
<trkpt lat="46.30009344778954982757568359375" lon="7.44733245112001895904541015625"><ele></ele><time>2020-9-19T12:36:42Z</time></trkpt>
<trkpt lat="46.30006930790841579437255859375" lon="7.44730529375374317169189453125"><ele></ele><time>2020-9-19T12:36:45Z</time></trkpt>
<trkpt lat="46.30004801787436008453369140625" lon="7.4472684971988201141357421875"><ele></ele><time>2020-9-19T12:36:48Z</time></trkpt>
<trkpt lat="46.30002848803997039794921875" lon="7.44722130708396434783935546875"><ele></ele><time>2020-9-19T12:36:51Z</time></trkpt>
<trkpt lat="46.300015412271022796630859375" lon="7.44717051275074481964111328125"><ele></ele><time>2020-9-19T12:36:54Z</time></trkpt>
<trkpt lat="46.30001465789973735809326171875" lon="7.44711242616176605224609375"><ele></ele><time>2020-9-19T12:36:57Z</time></trkpt>
<trkpt lat="46.300023458898067474365234375" lon="7.447052411735057830810546875"><ele></ele><time>2020-9-19T12:37:0Z</time></trkpt>
<trkpt lat="46.30003008060157299041748046875" lon="7.4469754658639430999755859375"><ele></ele><time>2020-9-19T12:37:3Z</time></trkpt>
<trkpt lat="46.30004600621759891510009765625" lon="7.4468339793384075164794921875"><ele></ele><time>2020-9-19T12:37:6Z</time></trkpt>
<trkpt lat="46.30005371756851673126220703125" lon="7.4467820115387439727783203125"><ele></ele><time>2020-9-19T12:37:9Z</time></trkpt>
<trkpt lat="46.300057657063007354736328125" lon="7.4467317201197147369384765625"><ele></ele><time>2020-9-19T12:37:12Z</time></trkpt>
<trkpt lat="46.30004600621759891510009765625" lon="7.446684949100017547607421875"><ele></ele><time>2020-9-19T12:37:15Z</time></trkpt>
<trkpt lat="46.30001968704164028167724609375" lon="7.44664412923157215118408203125"><ele></ele><time>2020-9-19T12:37:18Z</time></trkpt>
<trkpt lat="46.29997828043997287750244140625" lon="7.4466023035347461700439453125"><ele></ele><time>2020-9-19T12:37:21Z</time></trkpt>
<trkpt lat="46.29982740618288516998291015625" lon="7.4464839510619640350341796875"><ele></ele><time>2020-9-19T12:37:24Z</time></trkpt>
<trkpt lat="46.29977661184966564178466796875" lon="7.4464358389377593994140625"><ele></ele><time>2020-9-19T12:37:27Z</time></trkpt>
<trkpt lat="46.2997326068580150604248046875" lon="7.4463848769664764404296875"><ele></ele><time>2020-9-19T12:37:30Z</time></trkpt>
<trkpt lat="46.2996987439692020416259765625" lon="7.446326203644275665283203125"><ele></ele><time>2020-9-19T12:37:33Z</time></trkpt>
<trkpt lat="46.29966664128005504608154296875" lon="7.44625755585730075836181640625"><ele></ele><time>2020-9-19T12:37:36Z</time></trkpt>
<trkpt lat="46.29964082501828670501708984375" lon="7.44618438184261322021484375"><ele></ele><time>2020-9-19T12:37:39Z</time></trkpt>
<trkpt lat="46.29961676895618438720703125" lon="7.4461193382740020751953125"><ele></ele><time>2020-9-19T12:37:42Z</time></trkpt>
<trkpt lat="46.299595646560192108154296875" lon="7.44605102576315402984619140625"><ele></ele><time>2020-9-19T12:37:45Z</time></trkpt>
<trkpt lat="46.29957863129675388336181640625" lon="7.4459827132523059844970703125"><ele></ele><time>2020-9-19T12:37:48Z</time></trkpt>
<trkpt lat="46.2995726801455020904541015625" lon="7.44590543210506439208984375"><ele></ele><time>2020-9-19T12:37:51Z</time></trkpt>
<trkpt lat="46.29957058466970920562744140625" lon="7.44581264443695545196533203125"><ele></ele><time>2020-9-19T12:37:54Z</time></trkpt>
<trkpt lat="46.299565136432647705078125" lon="7.44572279043495655059814453125"><ele></ele><time>2020-9-19T12:37:57Z</time></trkpt>
<trkpt lat="46.2995557487010955810546875" lon="7.44564249180257320404052734375"><ele></ele><time>2020-9-19T12:38:0Z</time></trkpt>
<trkpt lat="46.29953630268573760986328125" lon="7.44556210935115814208984375"><ele></ele><time>2020-9-19T12:38:3Z</time></trkpt>
<trkpt lat="46.29950654692947864532470703125" lon="7.44548457674682140350341796875"><ele></ele><time>2020-9-19T12:38:6Z</time></trkpt>
<trkpt lat="46.29946983419358730316162109375" lon="7.44540276937186717987060546875"><ele></ele><time>2020-9-19T12:38:9Z</time></trkpt>
<trkpt lat="46.29943446256220340728759765625" lon="7.44531643576920032501220703125"><ele></ele><time>2020-9-19T12:38:12Z</time></trkpt>
<trkpt lat="46.29940026439726352691650390625" lon="7.4452226422727108001708984375"><ele></ele><time>2020-9-19T12:38:15Z</time></trkpt>
<trkpt lat="46.299371682107448577880859375" lon="7.4451391585171222686767578125"><ele></ele><time>2020-9-19T12:38:18Z</time></trkpt>
<trkpt lat="46.29934192635118961334228515625" lon="7.44505827315151691436767578125"><ele></ele><time>2020-9-19T12:38:21Z</time></trkpt>
<trkpt lat="46.29926749505102634429931640625" lon="7.4448721110820770263671875"><ele></ele><time>2020-9-19T12:38:24Z</time></trkpt>
<trkpt lat="46.2992258369922637939453125" lon="7.4447867833077907562255859375"><ele></ele><time>2020-9-19T12:38:27Z</time></trkpt>
<trkpt lat="46.29918518476188182830810546875" lon="7.44471277110278606414794921875"><ele></ele><time>2020-9-19T12:38:30Z</time></trkpt>
<trkpt lat="46.29915098659694194793701171875" lon="7.4446385912597179412841796875"><ele></ele><time>2020-9-19T12:38:33Z</time></trkpt>
<trkpt lat="46.299118883907794952392578125" lon="7.44456172920763492584228515625"><ele></ele><time>2020-9-19T12:38:36Z</time></trkpt>
<trkpt lat="46.299081332981586456298828125" lon="7.4444887228310108184814453125"><ele></ele><time>2020-9-19T12:38:39Z</time></trkpt>
<trkpt lat="46.29903414286673069000244140625" lon="7.44441739283502101898193359375"><ele></ele><time>2020-9-19T12:38:42Z</time></trkpt>
<trkpt lat="46.29898334853351116180419921875" lon="7.444362156093120574951171875"><ele></ele><time>2020-9-19T12:38:45Z</time></trkpt>
<trkpt lat="46.2989307940006256103515625" lon="7.44431362487375736236572265625"><ele></ele><time>2020-9-19T12:38:48Z</time></trkpt>
<trkpt lat="46.29887974821031093597412109375" lon="7.44426534511148929595947265625"><ele></ele><time>2020-9-19T12:38:51Z</time></trkpt>
<trkpt lat="46.29883088171482086181640625" lon="7.4442117847502231597900390625"><ele></ele><time>2020-9-19T12:38:54Z</time></trkpt>
<trkpt lat="46.29879006184637546539306640625" lon="7.44414933957159519195556640625"><ele></ele><time>2020-9-19T12:38:57Z</time></trkpt>
<trkpt lat="46.29875284619629383087158203125" lon="7.44408060796558856964111328125"><ele></ele><time>2020-9-19T12:39:0Z</time></trkpt>
<trkpt lat="46.29871420562267303466796875" lon="7.4440240301191806793212890625"><ele></ele><time>2020-9-19T12:39:3Z</time></trkpt>
<trkpt lat="46.2986711226403713226318359375" lon="7.4439841322600841522216796875"><ele></ele><time>2020-9-19T12:39:6Z</time></trkpt>
<trkpt lat="46.29862292669713497161865234375" lon="7.44397097267210483551025390625"><ele></ele><time>2020-9-19T12:39:9Z</time></trkpt>
<trkpt lat="46.29857565276324748992919921875" lon="7.443953789770603179931640625"><ele></ele><time>2020-9-19T12:39:12Z</time></trkpt>
<trkpt lat="46.29853458143770694732666015625" lon="7.44392923079431056976318359375"><ele></ele><time>2020-9-19T12:39:15Z</time></trkpt>
<trkpt lat="46.2985048256814479827880859375" lon="7.44389503262937068939208984375"><ele></ele><time>2020-9-19T12:39:18Z</time></trkpt>
<trkpt lat="46.29849032498896121978759765625" lon="7.44384105317294597625732421875"><ele></ele><time>2020-9-19T12:39:21Z</time></trkpt>
<trkpt lat="46.2984962761402130126953125" lon="7.443787492811679840087890625"><ele></ele><time>2020-9-19T12:39:24Z</time></trkpt>
<trkpt lat="46.2985152192413806915283203125" lon="7.4437413923442363739013671875"><ele></ele><time>2020-9-19T12:39:27Z</time></trkpt>
<trkpt lat="46.29853525198996067047119140625" lon="7.4436973035335540771484375"><ele></ele><time>2020-9-19T12:39:30Z</time></trkpt>
<trkpt lat="46.29855033941566944122314453125" lon="7.44364441372454166412353515625"><ele></ele><time>2020-9-19T12:39:33Z</time></trkpt>
<trkpt lat="46.29855285398662090301513671875" lon="7.4435908533632755279541015625"><ele></ele><time>2020-9-19T12:39:36Z</time></trkpt>
<trkpt lat="46.298538856208324432373046875" lon="7.4435362033545970916748046875"><ele></ele><time>2020-9-19T12:39:39Z</time></trkpt>
<trkpt lat="46.29850306548178195953369140625" lon="7.4434852413833141326904296875"><ele></ele><time>2020-9-19T12:39:42Z</time></trkpt>
<trkpt lat="46.2984585575759410858154296875" lon="7.44345112703740596771240234375"><ele></ele><time>2020-9-19T12:39:45Z</time></trkpt>
<trkpt lat="46.298414804041385650634765625" lon="7.443430759012699127197265625"><ele></ele><time>2020-9-19T12:39:48Z</time></trkpt>
<trkpt lat="46.29837247543036937713623046875" lon="7.443438135087490081787109375"><ele></ele><time>2020-9-19T12:39:51Z</time></trkpt>
<trkpt lat="46.2983368523418903350830078125" lon="7.44346872903406620025634765625"><ele></ele><time>2020-9-19T12:39:54Z</time></trkpt>
<trkpt lat="46.29829921759665012359619140625" lon="7.443493790924549102783203125"><ele></ele><time>2020-9-19T12:39:57Z</time></trkpt>
<trkpt lat="46.2982587330043315887451171875" lon="7.44349739514291286468505859375"><ele></ele><time>2020-9-19T12:40:0Z</time></trkpt>
<trkpt lat="46.2982215173542499542236328125" lon="7.44347157888114452362060546875"><ele></ele><time>2020-9-19T12:40:3Z</time></trkpt>
<trkpt lat="46.29819142632186412811279296875" lon="7.443427741527557373046875"><ele></ele><time>2020-9-19T12:40:6Z</time></trkpt>
<trkpt lat="46.2981631793081760406494140625" lon="7.4433615244925022125244140625"><ele></ele><time>2020-9-19T12:40:9Z</time></trkpt>
<trkpt lat="46.2981252931058406829833984375" lon="7.44327175430953502655029296875"><ele></ele><time>2020-9-19T12:40:12Z</time></trkpt>
<trkpt lat="46.29808313213288784027099609375" lon="7.44318173266947269439697265625"><ele></ele><time>2020-9-19T12:40:15Z</time></trkpt>
<trkpt lat="46.2980391271412372589111328125" lon="7.4430969916284084320068359375"><ele></ele><time>2020-9-19T12:40:18Z</time></trkpt>
<trkpt lat="46.29799629561603069305419921875" lon="7.44301174767315387725830078125"><ele></ele><time>2020-9-19T12:40:21Z</time></trkpt>
<trkpt lat="46.2979209423065185546875" lon="7.442831285297870635986328125"><ele></ele><time>2020-9-19T12:40:24Z</time></trkpt>
<trkpt lat="46.29788917489349842071533203125" lon="7.44273916818201541900634765625"><ele></ele><time>2020-9-19T12:40:27Z</time></trkpt>
<trkpt lat="46.297860927879810333251953125" lon="7.442642860114574432373046875"><ele></ele><time>2020-9-19T12:40:30Z</time></trkpt>
<trkpt lat="46.29783787764608860015869140625" lon="7.44255577214062213897705078125"><ele></ele><time>2020-9-19T12:40:33Z</time></trkpt>
<trkpt lat="46.29781641997396945953369140625" lon="7.44247832335531711578369140625"><ele></ele><time>2020-9-19T12:40:36Z</time></trkpt>
<trkpt lat="46.29778213798999786376953125" lon="7.442400120198726654052734375"><ele></ele><time>2020-9-19T12:40:39Z</time></trkpt>
<trkpt lat="46.2977350316941738128662109375" lon="7.4423416145145893096923828125"><ele></ele><time>2020-9-19T12:40:42Z</time></trkpt>
<trkpt lat="46.29767610691487789154052734375" lon="7.4422903172671794891357421875"><ele></ele><time>2020-9-19T12:40:45Z</time></trkpt>
<trkpt lat="46.29761508665978908538818359375" lon="7.4422349967062473297119140625"><ele></ele><time>2020-9-19T12:40:48Z</time></trkpt>
<trkpt lat="46.29755658097565174102783203125" lon="7.44216777384281158447265625"><ele></ele><time>2020-9-19T12:40:51Z</time></trkpt>
<trkpt lat="46.29750729538500308990478515625" lon="7.44210197590291500091552734375"><ele></ele><time>2020-9-19T12:40:54Z</time></trkpt>
<trkpt lat="46.29746831953525543212890625" lon="7.44203961454331874847412109375"><ele></ele><time>2020-9-19T12:40:57Z</time></trkpt>
<trkpt lat="46.297440826892852783203125" lon="7.44198278523981571197509765625"><ele></ele><time>2020-9-19T12:41:0Z</time></trkpt>
<trkpt lat="46.2974222190678119659423828125" lon="7.44193366728723049163818359375"><ele></ele><time>2020-9-19T12:41:3Z</time></trkpt>
<trkpt lat="46.29741040058434009552001953125" lon="7.4418936856091022491455078125"><ele></ele><time>2020-9-19T12:41:6Z</time></trkpt>
<trkpt lat="46.29740168340504169464111328125" lon="7.4418581463396549224853515625"><ele></ele><time>2020-9-19T12:41:9Z</time></trkpt>
<trkpt lat="46.297394223511219024658203125" lon="7.44182503782212734222412109375"><ele></ele><time>2020-9-19T12:41:12Z</time></trkpt>
<trkpt lat="46.29739187657833099365234375" lon="7.44180190376937389373779296875"><ele></ele><time>2020-9-19T12:41:15Z</time></trkpt>
<trkpt lat="46.29738223738968372344970703125" lon="7.441779188811779022216796875"><ele></ele><time>2020-9-19T12:41:18Z</time></trkpt>
<trkpt lat="46.29737670533359050750732421875" lon="7.44175597093999385833740234375"><ele></ele><time>2020-9-19T12:41:21Z</time></trkpt>
<trkpt lat="46.297289617359638214111328125" lon="7.44172655045986175537109375"><ele></ele><time>2020-9-19T12:41:24Z</time></trkpt>
<trkpt lat="46.297289617359638214111328125" lon="7.44172655045986175537109375"><ele></ele><time>2020-9-19T12:41:27Z</time></trkpt>
<trkpt lat="46.29708987660706043243408203125" lon="7.44169159792363643646240234375"><ele></ele><time>2020-9-19T12:41:30Z</time></trkpt>
<trkpt lat="46.29704847000539302825927734375" lon="7.4416829645633697509765625"><ele></ele><time>2020-9-19T12:41:33Z</time></trkpt>
<trkpt lat="46.29700672812759876251220703125" lon="7.44167558848857879638671875"><ele></ele><time>2020-9-19T12:41:36Z</time></trkpt>
<trkpt lat="46.29700672812759876251220703125" lon="7.44167558848857879638671875"><ele></ele><time>2020-9-19T12:41:39Z</time></trkpt>
<trkpt lat="46.2969159521162509918212890625" lon="7.44166829623281955718994140625"><ele></ele><time>2020-9-19T12:41:42Z</time></trkpt>
<trkpt lat="46.2969159521162509918212890625" lon="7.44166829623281955718994140625"><ele></ele><time>2020-9-19T12:41:45Z</time></trkpt>
<trkpt lat="46.29682215861976146697998046875" lon="7.44167692959308624267578125"><ele></ele><time>2020-9-19T12:41:48Z</time></trkpt>
<trkpt lat="46.29677589051425457000732421875" lon="7.44168941862881183624267578125"><ele></ele><time>2020-9-19T12:41:51Z</time></trkpt>
<trkpt lat="46.2966866232454776763916015625" lon="7.4417226947844028472900390625"><ele></ele><time>2020-9-19T12:41:54Z</time></trkpt>
<trkpt lat="46.29659433849155902862548828125" lon="7.44174809195101261138916015625"><ele></ele><time>2020-9-19T12:41:57Z</time></trkpt>
<trkpt lat="46.2965474836528301239013671875" lon="7.44175211526453495025634765625"><ele></ele><time>2020-9-19T12:42:0Z</time></trkpt>
<trkpt lat="46.2964618206024169921875" lon="7.4417438171803951263427734375"><ele></ele><time>2020-9-19T12:42:3Z</time></trkpt>
<trkpt lat="46.2964618206024169921875" lon="7.4417438171803951263427734375"><ele></ele><time>2020-9-19T12:42:6Z</time></trkpt>
<trkpt lat="46.2964224256575107574462890625" lon="7.44172562845051288604736328125"><ele></ele><time>2020-9-19T12:42:9Z</time></trkpt>
<trkpt lat="46.29638093523681163787841796875" lon="7.44169880636036396026611328125"><ele></ele><time>2020-9-19T12:42:12Z</time></trkpt>
<trkpt lat="46.29634313285350799560546875" lon="7.44167022407054901123046875"><ele></ele><time>2020-9-19T12:42:15Z</time></trkpt>
<trkpt lat="46.296309940516948699951171875" lon="7.441630661487579345703125"><ele></ele><time>2020-9-19T12:42:18Z</time></trkpt>
<trkpt lat="46.29628236405551433563232421875" lon="7.4415875785052776336669921875"><ele></ele><time>2020-9-19T12:42:21Z</time></trkpt>
<trkpt lat="46.29625688306987285614013671875" lon="7.44154809974133968353271484375"><ele></ele><time>2020-9-19T12:42:24Z</time></trkpt>
<trkpt lat="46.29622670821845531463623046875" lon="7.441515661776065826416015625"><ele></ele><time>2020-9-19T12:42:27Z</time></trkpt>
<trkpt lat="46.2961930967867374420166015625" lon="7.44149227626621723175048828125"><ele></ele><time>2020-9-19T12:42:30Z</time></trkpt>
<trkpt lat="46.29615604877471923828125" lon="7.4414796195924282073974609375"><ele></ele><time>2020-9-19T12:42:33Z</time></trkpt>
<trkpt lat="46.29607893526554107666015625" lon="7.44146101176738739013671875"><ele></ele><time>2020-9-19T12:42:36Z</time></trkpt>
<trkpt lat="46.29607893526554107666015625" lon="7.44146101176738739013671875"><ele></ele><time>2020-9-19T12:42:39Z</time></trkpt>
<trkpt lat="46.296038366854190826416015625" lon="7.44145589880645275115966796875"><ele></ele><time>2020-9-19T12:42:42Z</time></trkpt>
<trkpt lat="46.29600257612764835357666015625" lon="7.44145698845386505126953125"><ele></ele><time>2020-9-19T12:42:45Z</time></trkpt>
<trkpt lat="46.29597173072397708892822265625" lon="7.4414581619203090667724609375"><ele></ele><time>2020-9-19T12:42:48Z</time></trkpt>
<trkpt lat="46.29593686200678348541259765625" lon="7.4414564855396747589111328125"><ele></ele><time>2020-9-19T12:42:51Z</time></trkpt>
<trkpt lat="46.29590056836605072021484375" lon="7.44145740754902362823486328125"><ele></ele><time>2020-9-19T12:42:54Z</time></trkpt>
<trkpt lat="46.2958635203540325164794921875" lon="7.4414603412151336669921875"><ele></ele><time>2020-9-19T12:42:57Z</time></trkpt>
<trkpt lat="46.29582546651363372802734375" lon="7.44146830402314662933349609375"><ele></ele><time>2020-9-19T12:43:0Z</time></trkpt>
<trkpt lat="46.29578598774969577789306640625" lon="7.441476099193096160888671875"><ele></ele><time>2020-9-19T12:43:3Z</time></trkpt>
<trkpt lat="46.29574826918542385101318359375" lon="7.44148959405720233917236328125"><ele></ele><time>2020-9-19T12:43:6Z</time></trkpt>
<trkpt lat="46.2957102991640567779541015625" lon="7.4415047653019428253173828125"><ele></ele><time>2020-9-19T12:43:9Z</time></trkpt>
<trkpt lat="46.29567165859043598175048828125" lon="7.441517002880573272705078125"><ele></ele><time>2020-9-19T12:43:12Z</time></trkpt>
<trkpt lat="46.29562991671264171600341796875" lon="7.44152731262147426605224609375"><ele></ele><time>2020-9-19T12:43:15Z</time></trkpt>
<trkpt lat="46.29558566026389598846435546875" lon="7.44153653271496295928955078125"><ele></ele><time>2020-9-19T12:43:18Z</time></trkpt>
<trkpt lat="46.29544568248093128204345703125" lon="7.4415664561092853546142578125"><ele></ele><time>2020-9-19T12:43:21Z</time></trkpt>
<trkpt lat="46.29539639689028263092041015625" lon="7.44157492183148860931396484375"><ele></ele><time>2020-9-19T12:43:24Z</time></trkpt>
<trkpt lat="46.29534627310931682586669921875" lon="7.44158950634300708770751953125"><ele></ele><time>2020-9-19T12:43:27Z</time></trkpt>
<trkpt lat="46.29517293535172939300537109375" lon="7.441649101674556732177734375"><ele></ele><time>2020-9-19T12:43:30Z</time></trkpt>
<trkpt lat="46.29504871554672718048095703125" lon="7.4417124688625335693359375"><ele></ele><time>2020-9-19T12:43:33Z</time></trkpt>
<trkpt lat="46.2949827499687671661376953125" lon="7.44174398481845855712890625"><ele></ele><time>2020-9-19T12:43:36Z</time></trkpt>
<trkpt lat="46.29491779021918773651123046875" lon="7.4417793564498424530029296875"><ele></ele><time>2020-9-19T12:43:39Z</time></trkpt>
<trkpt lat="46.29485626704990863800048828125" lon="7.44182487018406391143798828125"><ele></ele><time>2020-9-19T12:43:42Z</time></trkpt>
<trkpt lat="46.294746883213520050048828125" lon="7.4419439770281314849853515625"><ele></ele><time>2020-9-19T12:43:45Z</time></trkpt>
<trkpt lat="46.29469935782253742218017578125" lon="7.4420157261192798614501953125"><ele></ele><time>2020-9-19T12:43:48Z</time></trkpt>
<trkpt lat="46.29466474056243896484375" lon="7.4420988745987415313720703125"><ele></ele><time>2020-9-19T12:43:51Z</time></trkpt>
<trkpt lat="46.2946149520576000213623046875" lon="7.44229249656200408935546875"><ele></ele><time>2020-9-19T12:43:54Z</time></trkpt>
<trkpt lat="46.29460413940250873565673828125" lon="7.4424053169786930084228515625"><ele></ele><time>2020-9-19T12:43:57Z</time></trkpt>
<trkpt lat="46.294594667851924896240234375" lon="7.44264118373394012451171875"><ele></ele><time>2020-9-19T12:44:0Z</time></trkpt>
<trkpt lat="46.29458963871002197265625" lon="7.44275593198835849761962890625"><ele></ele><time>2020-9-19T12:44:3Z</time></trkpt>
<trkpt lat="46.29458963871002197265625" lon="7.44275593198835849761962890625"><ele></ele><time>2020-9-19T12:44:6Z</time></trkpt>
<trkpt lat="46.29458284936845302581787109375" lon="7.4428577721118927001953125"><ele></ele><time>2020-9-19T12:44:9Z</time></trkpt>
<trkpt lat="46.2945512495934963226318359375" lon="7.4430436827242374420166015625"><ele></ele><time>2020-9-19T12:44:12Z</time></trkpt>
<trkpt lat="46.2945512495934963226318359375" lon="7.4430436827242374420166015625"><ele></ele><time>2020-9-19T12:44:15Z</time></trkpt>
<trkpt lat="46.29447204060852527618408203125" lon="7.44319648481905460357666015625"><ele></ele><time>2020-9-19T12:44:18Z</time></trkpt>
<trkpt lat="46.29441688768565654754638671875" lon="7.44325515814125537872314453125"><ele></ele><time>2020-9-19T12:44:21Z</time></trkpt>
<trkpt lat="46.29434899426996707916259765625" lon="7.44330159388482570648193359375"><ele></ele><time>2020-9-19T12:44:24Z</time></trkpt>
<trkpt lat="46.2942883931100368499755859375" lon="7.44335406459867954254150390625"><ele></ele><time>2020-9-19T12:44:27Z</time></trkpt>
<trkpt lat="46.2942883931100368499755859375" lon="7.44335406459867954254150390625"><ele></ele><time>2020-9-19T12:44:30Z</time></trkpt>
<trkpt lat="46.29417079500854015350341796875" lon="7.44347459636628627777099609375"><ele></ele><time>2020-9-19T12:44:33Z</time></trkpt>
<trkpt lat="46.2941167317330837249755859375" lon="7.44353444315493106842041015625"><ele></ele><time>2020-9-19T12:44:36Z</time></trkpt>
<trkpt lat="46.2940681166946887969970703125" lon="7.44359211064875125885009765625"><ele></ele><time>2020-9-19T12:44:39Z</time></trkpt>
<trkpt lat="46.294019334018230438232421875" lon="7.443645335733890533447265625"><ele></ele><time>2020-9-19T12:44:42Z</time></trkpt>
<trkpt lat="46.293975077569484710693359375" lon="7.44370526634156703948974609375"><ele></ele><time>2020-9-19T12:44:45Z</time></trkpt>
<trkpt lat="46.293975077569484710693359375" lon="7.44370526634156703948974609375"><ele></ele><time>2020-9-19T12:44:48Z</time></trkpt>
<trkpt lat="46.2938917614519596099853515625" lon="7.4438396282494068145751953125"><ele></ele><time>2020-9-19T12:44:51Z</time></trkpt>
<trkpt lat="46.2938587367534637451171875" lon="7.44390576146543025970458984375"><ele></ele><time>2020-9-19T12:44:54Z</time></trkpt>
<trkpt lat="46.2938131392002105712890625" lon="7.44397684000432491302490234375"><ele></ele><time>2020-9-19T12:44:57Z</time></trkpt>
<trkpt lat="46.29375974647700786590576171875" lon="7.44404674507677555084228515625"><ele></ele><time>2020-9-19T12:45:0Z</time></trkpt>
<trkpt lat="46.29370543174445629119873046875" lon="7.4441165663301944732666015625"><ele></ele><time>2020-9-19T12:45:3Z</time></trkpt>
<trkpt lat="46.2936030887067317962646484375" lon="7.44424237869679927825927734375"><ele></ele><time>2020-9-19T12:45:6Z</time></trkpt>
<trkpt lat="46.2935517914593219757080078125" lon="7.4442858807742595672607421875"><ele></ele><time>2020-9-19T12:45:9Z</time></trkpt>
<trkpt lat="46.29348532296717166900634765625" lon="7.44426417164504528045654296875"><ele></ele><time>2020-9-19T12:45:12Z</time></trkpt>
<trkpt lat="46.2934277392923831939697265625" lon="7.44421706534922122955322265625"><ele></ele><time>2020-9-19T12:45:15Z</time></trkpt>
<trkpt lat="46.2934277392923831939697265625" lon="7.44421706534922122955322265625"><ele></ele><time>2020-9-19T12:45:18Z</time></trkpt>
<trkpt lat="46.293338052928447723388671875" lon="7.44414598681032657623291015625"><ele></ele><time>2020-9-19T12:45:21Z</time></trkpt>
<trkpt lat="46.293338052928447723388671875" lon="7.44414598681032657623291015625"><ele></ele><time>2020-9-19T12:45:24Z</time></trkpt>
<trkpt lat="46.2932919524610042572021484375" lon="7.4441293068230152130126953125"><ele></ele><time>2020-9-19T12:45:27Z</time></trkpt>
<trkpt lat="46.2932383082807064056396484375" lon="7.444118745625019073486328125"><ele></ele><time>2020-9-19T12:45:30Z</time></trkpt>
<trkpt lat="46.29317686893045902252197265625" lon="7.444117069244384765625"><ele></ele><time>2020-9-19T12:45:33Z</time></trkpt>
<trkpt lat="46.29311467520892620086669921875" lon="7.44413257576525211334228515625"><ele></ele><time>2020-9-19T12:45:36Z</time></trkpt>
<trkpt lat="46.293053738772869110107421875" lon="7.4441608227789402008056640625"><ele></ele><time>2020-9-19T12:45:39Z</time></trkpt>
<trkpt lat="46.29299313761293888092041015625" lon="7.44419074617326259613037109375"><ele></ele><time>2020-9-19T12:45:42Z</time></trkpt>
<trkpt lat="46.2928705103695392608642578125" lon="7.4442607350647449493408203125"><ele></ele><time>2020-9-19T12:45:45Z</time></trkpt>
<trkpt lat="46.2928151898086071014404296875" lon="7.44431580416858196258544921875"><ele></ele><time>2020-9-19T12:45:48Z</time></trkpt>
<trkpt lat="46.29276531748473644256591796875" lon="7.4443787522614002227783203125"><ele></ele><time>2020-9-19T12:45:51Z</time></trkpt>
<trkpt lat="46.292674206197261810302734375" lon="7.44451546110212802886962890625"><ele></ele><time>2020-9-19T12:45:54Z</time></trkpt>
<trkpt lat="46.29257856868207454681396484375" lon="7.444667257368564605712890625"><ele></ele><time>2020-9-19T12:45:57Z</time></trkpt>
<trkpt lat="46.2925157882273197174072265625" lon="7.444731295108795166015625"><ele></ele><time>2020-9-19T12:46:0Z</time></trkpt>
<trkpt lat="46.2924480624496936798095703125" lon="7.44479172863066196441650390625"><ele></ele><time>2020-9-19T12:46:3Z</time></trkpt>
<trkpt lat="46.29237958230078220367431640625" lon="7.44484688155353069305419921875"><ele></ele><time>2020-9-19T12:46:6Z</time></trkpt>
<trkpt lat="46.29231118597090244293212890625" lon="7.44489599950611591339111328125"><ele></ele><time>2020-9-19T12:46:9Z</time></trkpt>
<trkpt lat="46.2922405265271663665771484375" lon="7.444940842688083648681640625"><ele></ele><time>2020-9-19T12:46:12Z</time></trkpt>
<trkpt lat="46.2921728007495403289794921875" lon="7.44498216547071933746337890625"><ele></ele><time>2020-9-19T12:46:15Z</time></trkpt>
<trkpt lat="46.29211102612316608428955078125" lon="7.44503094814717769622802734375"><ele></ele><time>2020-9-19T12:46:18Z</time></trkpt>
<trkpt lat="46.29193517379462718963623046875" lon="7.44520545937120914459228515625"><ele></ele><time>2020-9-19T12:46:21Z</time></trkpt>
<trkpt lat="46.29187700338661670684814453125" lon="7.44525977410376071929931640625"><ele></ele><time>2020-9-19T12:46:24Z</time></trkpt>
<trkpt lat="46.29181615076959133148193359375" lon="7.44530520401895046234130859375"><ele></ele><time>2020-9-19T12:46:27Z</time></trkpt>
<trkpt lat="46.29170022904872894287109375" lon="7.44540763087570667266845703125"><ele></ele><time>2020-9-19T12:46:30Z</time></trkpt>
<trkpt lat="46.29170022904872894287109375" lon="7.44540763087570667266845703125"><ele></ele><time>2020-9-19T12:46:33Z</time></trkpt>
<trkpt lat="46.2916051782667636871337890625" lon="7.44554626755416393280029296875"><ele></ele><time>2020-9-19T12:46:36Z</time></trkpt>
<trkpt lat="46.29154943861067295074462890625" lon="7.44561131112277507781982421875"><ele></ele><time>2020-9-19T12:46:39Z</time></trkpt>
<trkpt lat="46.29154943861067295074462890625" lon="7.44561131112277507781982421875"><ele></ele><time>2020-9-19T12:46:42Z</time></trkpt>
<trkpt lat="46.291441060602664947509765625" lon="7.445744164288043975830078125"><ele></ele><time>2020-9-19T12:46:45Z</time></trkpt>
<trkpt lat="46.2913916073739528656005859375" lon="7.4458103813230991363525390625"><ele></ele><time>2020-9-19T12:46:48Z</time></trkpt>
<trkpt lat="46.2913916073739528656005859375" lon="7.4458103813230991363525390625"><ele></ele><time>2020-9-19T12:46:51Z</time></trkpt>
<trkpt lat="46.2913476862013339996337890625" lon="7.4458807893097400665283203125"><ele></ele><time>2020-9-19T12:46:54Z</time></trkpt>
<trkpt lat="46.2912994064390659332275390625" lon="7.445950694382190704345703125"><ele></ele><time>2020-9-19T12:46:57Z</time></trkpt>
<trkpt lat="46.29119320772588253021240234375" lon="7.446092180907726287841796875"><ele></ele><time>2020-9-19T12:47:0Z</time></trkpt>
<trkpt lat="46.29108139313757419586181640625" lon="7.44623844511806964874267578125"><ele></ele><time>2020-9-19T12:47:3Z</time></trkpt>
<trkpt lat="46.29108139313757419586181640625" lon="7.44623844511806964874267578125"><ele></ele><time>2020-9-19T12:47:6Z</time></trkpt>
<trkpt lat="46.29096102900803089141845703125" lon="7.44639032520353794097900390625"><ele></ele><time>2020-9-19T12:47:9Z</time></trkpt>
<trkpt lat="46.29083789885044097900390625" lon="7.44654178619384765625"><ele></ele><time>2020-9-19T12:47:12Z</time></trkpt>
<trkpt lat="46.29083789885044097900390625" lon="7.44654178619384765625"><ele></ele><time>2020-9-19T12:47:15Z</time></trkpt>
<trkpt lat="46.29071091301739215850830078125" lon="7.44667011313140392303466796875"><ele></ele><time>2020-9-19T12:47:18Z</time></trkpt>
<trkpt lat="46.2906486354768276214599609375" lon="7.44673029519617557525634765625"><ele></ele><time>2020-9-19T12:47:21Z</time></trkpt>
<trkpt lat="46.2905121780931949615478515625" lon="7.446813695132732391357421875"><ele></ele><time>2020-9-19T12:47:24Z</time></trkpt>
<trkpt lat="46.2904474698007106781005859375" lon="7.44684747420251369476318359375"><ele></ele><time>2020-9-19T12:47:27Z</time></trkpt>
<trkpt lat="46.2903861142694950103759765625" lon="7.44688603095710277557373046875"><ele></ele><time>2020-9-19T12:47:30Z</time></trkpt>
<trkpt lat="46.2903861142694950103759765625" lon="7.44688603095710277557373046875"><ele></ele><time>2020-9-19T12:47:33Z</time></trkpt>
<trkpt lat="46.2902771495282649993896484375" lon="7.44698476977646350860595703125"><ele></ele><time>2020-9-19T12:47:36Z</time></trkpt>
<trkpt lat="46.2902771495282649993896484375" lon="7.44698476977646350860595703125"><ele></ele><time>2020-9-19T12:47:39Z</time></trkpt>
<trkpt lat="46.29018318839371204376220703125" lon="7.447081916034221649169921875"><ele></ele><time>2020-9-19T12:47:42Z</time></trkpt>
<trkpt lat="46.2901400215923786163330078125" lon="7.4471293576061725616455078125"><ele></ele><time>2020-9-19T12:47:45Z</time></trkpt>
<trkpt lat="46.29009651951491832733154296875" lon="7.44717554189264774322509765625"><ele></ele><time>2020-9-19T12:47:48Z</time></trkpt>
<trkpt lat="46.2900518439710140228271484375" lon="7.4472175352275371551513671875"><ele></ele><time>2020-9-19T12:47:51Z</time></trkpt>
<trkpt lat="46.2900518439710140228271484375" lon="7.4472175352275371551513671875"><ele></ele><time>2020-9-19T12:47:54Z</time></trkpt>
<trkpt lat="46.28996827639639377593994140625" lon="7.4472939781844615936279296875"><ele></ele><time>2020-9-19T12:47:57Z</time></trkpt>
<trkpt lat="46.2899287976324558258056640625" lon="7.4473251588642597198486328125"><ele></ele><time>2020-9-19T12:48:0Z</time></trkpt>
<trkpt lat="46.2898868881165981292724609375" lon="7.44734711945056915283203125"><ele></ele><time>2020-9-19T12:48:3Z</time></trkpt>
<trkpt lat="46.2898439727723598480224609375" lon="7.44735608808696269989013671875"><ele></ele><time>2020-9-19T12:48:6Z</time></trkpt>
<trkpt lat="46.2898439727723598480224609375" lon="7.44735608808696269989013671875"><ele></ele><time>2020-9-19T12:48:9Z</time></trkpt>
<trkpt lat="46.2897993810474872589111328125" lon="7.447349131107330322265625"><ele></ele><time>2020-9-19T12:48:12Z</time></trkpt>
<trkpt lat="46.28970257006585597991943359375" lon="7.447310574352741241455078125"><ele></ele><time>2020-9-19T12:48:15Z</time></trkpt>
<trkpt lat="46.2896525301039218902587890625" lon="7.44729221798479557037353515625"><ele></ele><time>2020-9-19T12:48:18Z</time></trkpt>
<trkpt lat="46.2896525301039218902587890625" lon="7.44729221798479557037353515625"><ele></ele><time>2020-9-19T12:48:21Z</time></trkpt>
<trkpt lat="46.2895564734935760498046875" lon="7.447264976799488067626953125"><ele></ele><time>2020-9-19T12:48:24Z</time></trkpt>
<trkpt lat="46.28951045684516429901123046875" lon="7.447259612381458282470703125"><ele></ele><time>2020-9-19T12:48:27Z</time></trkpt>
<trkpt lat="46.2894652783870697021484375" lon="7.4472574330866336822509765625"><ele></ele><time>2020-9-19T12:48:30Z</time></trkpt>
<trkpt lat="46.28942244686186313629150390625" lon="7.447260282933712005615234375"><ele></ele><time>2020-9-19T12:48:33Z</time></trkpt>
<trkpt lat="46.28938087262213230133056640625" lon="7.44726874865591526031494140625"><ele></ele><time>2020-9-19T12:48:36Z</time></trkpt>
<trkpt lat="46.28934131003916263580322265625" lon="7.447279393672943115234375"><ele></ele><time>2020-9-19T12:48:39Z</time></trkpt>
<trkpt lat="46.28930325619876384735107421875" lon="7.44728920049965381622314453125"><ele></ele><time>2020-9-19T12:48:42Z</time></trkpt>
<trkpt lat="46.28930325619876384735107421875" lon="7.44728920049965381622314453125"><ele></ele><time>2020-9-19T12:48:45Z</time></trkpt>
<trkpt lat="46.2892639450728893280029296875" lon="7.44728417135775089263916015625"><ele></ele><time>2020-9-19T12:48:48Z</time></trkpt>
<trkpt lat="46.28919462673366069793701171875" lon="7.44728199206292629241943359375"><ele></ele><time>2020-9-19T12:48:51Z</time></trkpt>
<trkpt lat="46.28916311077773571014404296875" lon="7.4472798965871334075927734375"><ele></ele><time>2020-9-19T12:48:54Z</time></trkpt>
<trkpt lat="46.28913327120244503021240234375" lon="7.44727930985391139984130859375"><ele></ele><time>2020-9-19T12:48:57Z</time></trkpt>
<trkpt lat="46.28910376690328121185302734375" lon="7.4472775496542453765869140625"><ele></ele><time>2020-9-19T12:49:0Z</time></trkpt>
<trkpt lat="46.2890741787850856781005859375" lon="7.44727578945457935333251953125"><ele></ele><time>2020-9-19T12:49:3Z</time></trkpt>
<trkpt lat="46.2890443392097949981689453125" lon="7.44727629236876964569091796875"><ele></ele><time>2020-9-19T12:49:6Z</time></trkpt>
<trkpt lat="46.28901441581547260284423828125" lon="7.44728081859648227691650390625"><ele></ele><time>2020-9-19T12:49:9Z</time></trkpt>
<trkpt lat="46.288984157145023345947265625" lon="7.44728819467127323150634765625"><ele></ele><time>2020-9-19T12:49:12Z</time></trkpt>
<trkpt lat="46.2889554910361766815185546875" lon="7.44729925878345966339111328125"><ele></ele><time>2020-9-19T12:49:15Z</time></trkpt>
<trkpt lat="46.2889554910361766815185546875" lon="7.44729925878345966339111328125"><ele></ele><time>2020-9-19T12:49:18Z</time></trkpt>
<trkpt lat="46.28890394233167171478271484375" lon="7.44731887243688106536865234375"><ele></ele><time>2020-9-19T12:49:21Z</time></trkpt>
<trkpt lat="46.28887443803250789642333984375" lon="7.44732976891100406646728515625"><ele></ele><time>2020-9-19T12:49:24Z</time></trkpt>
<trkpt lat="46.28884359262883663177490234375" lon="7.44734653271734714508056640625"><ele></ele><time>2020-9-19T12:49:27Z</time></trkpt>
<trkpt lat="46.28881274722516536712646484375" lon="7.44736799038946628570556640625"><ele></ele><time>2020-9-19T12:49:30Z</time></trkpt>
<trkpt lat="46.2887794710695743560791015625" lon="7.447395063936710357666015625"><ele></ele><time>2020-9-19T12:49:33Z</time></trkpt>
<trkpt lat="46.28874602727591991424560546875" lon="7.44743068702518939971923828125"><ele></ele><time>2020-9-19T12:49:36Z</time></trkpt>
<trkpt lat="46.28871367312967777252197265625" lon="7.44747444055974483489990234375"><ele></ele><time>2020-9-19T12:49:39Z</time></trkpt>
<trkpt lat="46.2886426784098148345947265625" lon="7.44756630621850490570068359375"><ele></ele><time>2020-9-19T12:49:42Z</time></trkpt>
<trkpt lat="46.28860034979879856109619140625" lon="7.44760670699179172515869140625"><ele></ele><time>2020-9-19T12:49:45Z</time></trkpt>
<trkpt lat="46.288509070873260498046875" lon="7.447670660912990570068359375"><ele></ele><time>2020-9-19T12:49:48Z</time></trkpt>
<trkpt lat="46.2884602881968021392822265625" lon="7.44768164120614528656005859375"><ele></ele><time>2020-9-19T12:49:51Z</time></trkpt>
<trkpt lat="46.28841293044388294219970703125" lon="7.4476788751780986785888671875"><ele></ele><time>2020-9-19T12:49:54Z</time></trkpt>
<trkpt lat="46.28836615942418575286865234375" lon="7.4476708285510540008544921875"><ele></ele><time>2020-9-19T12:49:57Z</time></trkpt>
<trkpt lat="46.2883214838802814483642578125" lon="7.4476671405136585235595703125"><ele></ele><time>2020-9-19T12:50:0Z</time></trkpt>
<trkpt lat="46.2883214838802814483642578125" lon="7.4476671405136585235595703125"><ele></ele><time>2020-9-19T12:50:3Z</time></trkpt>
<trkpt lat="46.2882435321807861328125" lon="7.44765548966825008392333984375"><ele></ele><time>2020-9-19T12:50:6Z</time></trkpt>
<trkpt lat="46.2882027961313724517822265625" lon="7.447649203240871429443359375"><ele></ele><time>2020-9-19T12:50:9Z</time></trkpt>
<trkpt lat="46.288163401186466217041015625" lon="7.447647191584110260009765625"><ele></ele><time>2020-9-19T12:50:12Z</time></trkpt>
<trkpt lat="46.288163401186466217041015625" lon="7.447647191584110260009765625"><ele></ele><time>2020-9-19T12:50:15Z</time></trkpt>
<trkpt lat="46.2881270237267017364501953125" lon="7.44764727540314197540283203125"><ele></ele><time>2020-9-19T12:50:18Z</time></trkpt>
<trkpt lat="46.2880579568445682525634765625" lon="7.44765062816441059112548828125"><ele></ele><time>2020-9-19T12:50:21Z</time></trkpt>
<trkpt lat="46.288020573556423187255859375" lon="7.4476481974124908447265625"><ele></ele><time>2020-9-19T12:50:24Z</time></trkpt>
<trkpt lat="46.28798243589699268341064453125" lon="7.44764895178377628326416015625"><ele></ele><time>2020-9-19T12:50:27Z</time></trkpt>
<trkpt lat="46.2879426218569278717041015625" lon="7.447645850479602813720703125"><ele></ele><time>2020-9-19T12:50:30Z</time></trkpt>
<trkpt lat="46.28790381364524364471435546875" lon="7.44764794595539569854736328125"><ele></ele><time>2020-9-19T12:50:33Z</time></trkpt>
<trkpt lat="46.28786374814808368682861328125" lon="7.4476530589163303375244140625"><ele></ele><time>2020-9-19T12:50:36Z</time></trkpt>
<trkpt lat="46.28782418556511402130126953125" lon="7.447659261524677276611328125"><ele></ele><time>2020-9-19T12:50:39Z</time></trkpt>
<trkpt lat="46.28782418556511402130126953125" lon="7.447659261524677276611328125"><ele></ele><time>2020-9-19T12:50:42Z</time></trkpt>
<trkpt lat="46.2877458147704601287841796875" lon="7.44767158292233943939208984375"><ele></ele><time>2020-9-19T12:50:45Z</time></trkpt>
<trkpt lat="46.2877062521874904632568359375" lon="7.44767812080681324005126953125"><ele></ele><time>2020-9-19T12:50:48Z</time></trkpt>
<trkpt lat="46.2877062521874904632568359375" lon="7.44767812080681324005126953125"><ele></ele><time>2020-9-19T12:50:51Z</time></trkpt>
<trkpt lat="46.2876304797828197479248046875" lon="7.44768834672868251800537109375"><ele></ele><time>2020-9-19T12:50:54Z</time></trkpt>
<trkpt lat="46.287592761218547821044921875" lon="7.44769169948995113372802734375"><ele></ele><time>2020-9-19T12:50:57Z</time></trkpt>
<trkpt lat="46.2874772585928440093994140625" lon="7.44769714772701263427734375"><ele></ele><time>2020-9-19T12:51:0Z</time></trkpt>
<trkpt lat="46.28732093609869480133056640625" lon="7.44768113829195499420166015625"><ele></ele><time>2020-9-19T12:51:3Z</time></trkpt>
<trkpt lat="46.28728120587766170501708984375" lon="7.44767175056040287017822265625"><ele></ele><time>2020-9-19T12:51:6Z</time></trkpt>
<trkpt lat="46.2872395478188991546630859375" lon="7.4476562440395355224609375"><ele></ele><time>2020-9-19T12:51:9Z</time></trkpt>
<trkpt lat="46.2871999852359294891357421875" lon="7.4476326070725917816162109375"><ele></ele><time>2020-9-19T12:51:12Z</time></trkpt>
<trkpt lat="46.28716452978551387786865234375" lon="7.4475891888141632080078125"><ele></ele><time>2020-9-19T12:51:15Z</time></trkpt>
<trkpt lat="46.28714089281857013702392578125" lon="7.44753462262451648712158203125"><ele></ele><time>2020-9-19T12:51:18Z</time></trkpt>
<trkpt lat="46.28713083453476428985595703125" lon="7.44739749468863010406494140625"><ele></ele><time>2020-9-19T12:51:21Z</time></trkpt>
<trkpt lat="46.28713033162057399749755859375" lon="7.44732390157878398895263671875"><ele></ele><time>2020-9-19T12:51:24Z</time></trkpt>
<trkpt lat="46.2871252186596393585205078125" lon="7.44724393822252750396728515625"><ele></ele><time>2020-9-19T12:51:27Z</time></trkpt>
<trkpt lat="46.28711155615746974945068359375" lon="7.44715542532503604888916015625"><ele></ele><time>2020-9-19T12:51:30Z</time></trkpt>
<trkpt lat="46.28709076903760433197021484375" lon="7.44706272147595882415771484375"><ele></ele><time>2020-9-19T12:51:33Z</time></trkpt>
<trkpt lat="46.28702404908835887908935546875" lon="7.44689575396478176116943359375"><ele></ele><time>2020-9-19T12:51:36Z</time></trkpt>
<trkpt lat="46.28702404908835887908935546875" lon="7.44689575396478176116943359375"><ele></ele><time>2020-9-19T12:51:39Z</time></trkpt>
<trkpt lat="46.28689949400722980499267578125" lon="7.44666491635143756866455078125"><ele></ele><time>2020-9-19T12:51:42Z</time></trkpt>
<trkpt lat="46.28689949400722980499267578125" lon="7.44666491635143756866455078125"><ele></ele><time>2020-9-19T12:51:45Z</time></trkpt>
<trkpt lat="46.28685414791107177734375" lon="7.4465979449450969696044921875"><ele></ele><time>2020-9-19T12:51:48Z</time></trkpt>
<trkpt lat="46.28680519759654998779296875" lon="7.44653415866196155548095703125"><ele></ele><time>2020-9-19T12:51:51Z</time></trkpt>
<trkpt lat="46.28675364889204502105712890625" lon="7.44648587889969348907470703125"><ele></ele><time>2020-9-19T12:51:54Z</time></trkpt>
<trkpt lat="46.2866927124559879302978515625" lon="7.44644363410770893096923828125"><ele></ele><time>2020-9-19T12:51:57Z</time></trkpt>
<trkpt lat="46.286498419940471649169921875" lon="7.44630885310471057891845703125"><ele></ele><time>2020-9-19T12:52:0Z</time></trkpt>
<trkpt lat="46.286498419940471649169921875" lon="7.44630885310471057891845703125"><ele></ele><time>2020-9-19T12:52:3Z</time></trkpt>
<trkpt lat="46.28638065420091152191162109375" lon="7.44621262885630130767822265625"><ele></ele><time>2020-9-19T12:52:6Z</time></trkpt>
<trkpt lat="46.28638065420091152191162109375" lon="7.44621262885630130767822265625"><ele></ele><time>2020-9-19T12:52:9Z</time></trkpt>
<trkpt lat="46.2863346375524997711181640625" lon="7.4461583979427814483642578125"><ele></ele><time>2020-9-19T12:52:12Z</time></trkpt>
<trkpt lat="46.286293566226959228515625" lon="7.446096204221248626708984375"><ele></ele><time>2020-9-19T12:52:15Z</time></trkpt>
<trkpt lat="46.286226175725460052490234375" lon="7.44595463387668132781982421875"><ele></ele><time>2020-9-19T12:52:18Z</time></trkpt>
<trkpt lat="46.28619239665567874908447265625" lon="7.44588623754680156707763671875"><ele></ele><time>2020-9-19T12:52:21Z</time></trkpt>
<trkpt lat="46.2861559353768825531005859375" lon="7.4458247981965541839599609375"><ele></ele><time>2020-9-19T12:52:24Z</time></trkpt>
<trkpt lat="46.2861559353768825531005859375" lon="7.4458247981965541839599609375"><ele></ele><time>2020-9-19T12:52:27Z</time></trkpt>
<trkpt lat="46.28611444495618343353271484375" lon="7.445770986378192901611328125"><ele></ele><time>2020-9-19T12:52:30Z</time></trkpt>
<trkpt lat="46.2860690988600254058837890625" lon="7.4457263946533203125"><ele></ele><time>2020-9-19T12:52:33Z</time></trkpt>
<trkpt lat="46.28602693788707256317138671875" lon="7.44568641297519207000732421875"><ele></ele><time>2020-9-19T12:52:36Z</time></trkpt>
<trkpt lat="46.28599056042730808258056640625" lon="7.44564819149672985076904296875"><ele></ele><time>2020-9-19T12:52:39Z</time></trkpt>
<trkpt lat="46.28593607805669307708740234375" lon="7.44556856341660022735595703125"><ele></ele><time>2020-9-19T12:52:42Z</time></trkpt>
<trkpt lat="46.28593607805669307708740234375" lon="7.44556856341660022735595703125"><ele></ele><time>2020-9-19T12:52:45Z</time></trkpt>
<trkpt lat="46.28591730259358882904052734375" lon="7.44553436525166034698486328125"><ele></ele><time>2020-9-19T12:52:48Z</time></trkpt>
<trkpt lat="46.2858930788934230804443359375" lon="7.445470578968524932861328125"><ele></ele><time>2020-9-19T12:52:51Z</time></trkpt>
<trkpt lat="46.2858830206096172332763671875" lon="7.44544082321226596832275390625"><ele></ele><time>2020-9-19T12:52:54Z</time></trkpt>
<trkpt lat="46.2858699448406696319580078125" lon="7.4454031884670257568359375"><ele></ele><time>2020-9-19T12:52:57Z</time></trkpt>
<trkpt lat="46.2858575396239757537841796875" lon="7.44535298086702823638916015625"><ele></ele><time>2020-9-19T12:53:0Z</time></trkpt>
<trkpt lat="46.28584655933082103729248046875" lon="7.4452856741845607757568359375"><ele></ele><time>2020-9-19T12:53:3Z</time></trkpt>
<trkpt lat="46.28584035672247409820556640625" lon="7.44520537555217742919921875"><ele></ele><time>2020-9-19T12:53:6Z</time></trkpt>
<trkpt lat="46.2858293764293193817138671875" lon="7.44503966532647609710693359375"><ele></ele><time>2020-9-19T12:53:9Z</time></trkpt>
<trkpt lat="46.28582711331546306610107421875" lon="7.4449606239795684814453125"><ele></ele><time>2020-9-19T12:53:12Z</time></trkpt>
<trkpt lat="46.2858255207538604736328125" lon="7.444892562925815582275390625"><ele></ele><time>2020-9-19T12:53:15Z</time></trkpt>
<trkpt lat="46.28582158125936985015869140625" lon="7.44483900256454944610595703125"><ele></ele><time>2020-9-19T12:53:18Z</time></trkpt>
<trkpt lat="46.28581286408007144927978515625" lon="7.444798015058040618896484375"><ele></ele><time>2020-9-19T12:53:21Z</time></trkpt>
<trkpt lat="46.28581286408007144927978515625" lon="7.444798015058040618896484375"><ele></ele><time>2020-9-19T12:53:24Z</time></trkpt>
<trkpt lat="46.285770200192928314208984375" lon="7.444760799407958984375"><ele></ele><time>2020-9-19T12:53:27Z</time></trkpt>
<trkpt lat="46.285733319818973541259765625" lon="7.4447680078446865081787109375"><ele></ele><time>2020-9-19T12:53:30Z</time></trkpt>
<trkpt lat="46.2856962718069553375244140625" lon="7.44479742832481861114501953125"><ele></ele><time>2020-9-19T12:53:33Z</time></trkpt>
<trkpt lat="46.28566433675587177276611328125" lon="7.44484218768775463104248046875"><ele></ele><time>2020-9-19T12:53:36Z</time></trkpt>
<trkpt lat="46.28566433675587177276611328125" lon="7.44484218768775463104248046875"><ele></ele><time>2020-9-19T12:53:39Z</time></trkpt>
<trkpt lat="46.28563919104635715484619140625" lon="7.44490438140928745269775390625"><ele></ele><time>2020-9-19T12:53:42Z</time></trkpt>
<trkpt lat="46.28556878305971622467041015625" lon="7.44500244967639446258544921875"><ele></ele><time>2020-9-19T12:53:45Z</time></trkpt>
<trkpt lat="46.2855197489261627197265625" lon="7.44503430090844631195068359375"><ele></ele><time>2020-9-19T12:53:48Z</time></trkpt>
<trkpt lat="46.28546677529811859130859375" lon="7.4450499750673770904541015625"><ele></ele><time>2020-9-19T12:53:51Z</time></trkpt>
<trkpt lat="46.2854059226810932159423828125" lon="7.4450425989925861358642578125"><ele></ele><time>2020-9-19T12:53:54Z</time></trkpt>
<trkpt lat="46.2853445671498775482177734375" lon="7.44502927176654338836669921875"><ele></ele><time>2020-9-19T12:53:57Z</time></trkpt>
<trkpt lat="46.28527994267642498016357421875" lon="7.44503597728908061981201171875"><ele></ele><time>2020-9-19T12:54:0Z</time></trkpt>
<trkpt lat="46.28521238453686237335205078125" lon="7.4450583569705486297607421875"><ele></ele><time>2020-9-19T12:54:3Z</time></trkpt>
<trkpt lat="46.2851474247872829437255859375" lon="7.44508660398423671722412109375"><ele></ele><time>2020-9-19T12:54:6Z</time></trkpt>
<trkpt lat="46.285086236894130706787109375" lon="7.4451284296810626983642578125"><ele></ele><time>2020-9-19T12:54:9Z</time></trkpt>
<trkpt lat="46.2849714048206806182861328125" lon="7.4452511407434940338134765625"><ele></ele><time>2020-9-19T12:54:12Z</time></trkpt>
<trkpt lat="46.28491566516458988189697265625" lon="7.44532473385334014892578125"><ele></ele><time>2020-9-19T12:54:15Z</time></trkpt>
<trkpt lat="46.28486193716526031494140625" lon="7.4453983269631862640380859375"><ele></ele><time>2020-9-19T12:54:18Z</time></trkpt>
<trkpt lat="46.2848062813282012939453125" lon="7.4454667232930660247802734375"><ele></ele><time>2020-9-19T12:54:21Z</time></trkpt>
<trkpt lat="46.28474551253020763397216796875" lon="7.44552321732044219970703125"><ele></ele><time>2020-9-19T12:54:24Z</time></trkpt>
<trkpt lat="46.28467862494289875030517578125" lon="7.44556319899857044219970703125"><ele></ele><time>2020-9-19T12:54:27Z</time></trkpt>
<trkpt lat="46.28460846841335296630859375" lon="7.44559027254581451416015625"><ele></ele><time>2020-9-19T12:54:30Z</time></trkpt>
<trkpt lat="46.28453613258898258209228515625" lon="7.445608042180538177490234375"><ele></ele><time>2020-9-19T12:54:33Z</time></trkpt>
<trkpt lat="46.28431384451687335968017578125" lon="7.44565221481025218963623046875"><ele></ele><time>2020-9-19T12:54:36Z</time></trkpt>
<trkpt lat="46.28423907794058322906494140625" lon="7.445664368569850921630859375"><ele></ele><time>2020-9-19T12:54:39Z</time></trkpt>
<trkpt lat="46.28393649123609066009521484375" lon="7.44568356312811374664306640625"><ele></ele><time>2020-9-19T12:54:42Z</time></trkpt>
<trkpt lat="46.2838666699826717376708984375" lon="7.44568138383328914642333984375"><ele></ele><time>2020-9-19T12:54:45Z</time></trkpt>
<trkpt lat="46.283800117671489715576171875" lon="7.44567182846367359161376953125"><ele></ele><time>2020-9-19T12:54:48Z</time></trkpt>
<trkpt lat="46.28373649902641773223876953125" lon="7.44566763751208782196044921875"><ele></ele><time>2020-9-19T12:54:51Z</time></trkpt>
<trkpt lat="46.28367749042809009552001953125" lon="7.44567585177719593048095703125"><ele></ele><time>2020-9-19T12:54:54Z</time></trkpt>
<trkpt lat="46.28362317569553852081298828125" lon="7.44569378904998302459716796875"><ele></ele><time>2020-9-19T12:54:57Z</time></trkpt>
<trkpt lat="46.2835724651813507080078125" lon="7.4457168392837047576904296875"><ele></ele><time>2020-9-19T12:55:0Z</time></trkpt>
<trkpt lat="46.28352125175297260284423828125" lon="7.44574056006968021392822265625"><ele></ele><time>2020-9-19T12:55:3Z</time></trkpt>
<trkpt lat="46.2834690324962139129638671875" lon="7.4457657895982265472412109375"><ele></ele><time>2020-9-19T12:55:6Z</time></trkpt>
<trkpt lat="46.2834140472114086151123046875" lon="7.445788085460662841796875"><ele></ele><time>2020-9-19T12:55:9Z</time></trkpt>
<trkpt lat="46.2834140472114086151123046875" lon="7.445788085460662841796875"><ele></ele><time>2020-9-19T12:55:12Z</time></trkpt>
<trkpt lat="46.2833027355372905731201171875" lon="7.4458080343902111053466796875"><ele></ele><time>2020-9-19T12:55:15Z</time></trkpt>
<trkpt lat="46.28324816934764385223388671875" lon="7.44580845348536968231201171875"><ele></ele><time>2020-9-19T12:55:18Z</time></trkpt>
<trkpt lat="46.28319452516734600067138671875" lon="7.445809543132781982421875"><ele></ele><time>2020-9-19T12:55:21Z</time></trkpt>
<trkpt lat="46.28314188681542873382568359375" lon="7.44581281207501888275146484375"><ele></ele><time>2020-9-19T12:55:24Z</time></trkpt>
<trkpt lat="46.28308841027319431304931640625" lon="7.44581398554146289825439453125"><ele></ele><time>2020-9-19T12:55:27Z</time></trkpt>
<trkpt lat="46.28303359262645244598388671875" lon="7.4458113871514797210693359375"><ele></ele><time>2020-9-19T12:55:30Z</time></trkpt>
<trkpt lat="46.28291733562946319580078125" lon="7.44579336605966091156005859375"><ele></ele><time>2020-9-19T12:55:33Z</time></trkpt>
<trkpt lat="46.28285421989858150482177734375" lon="7.44577576406300067901611328125"><ele></ele><time>2020-9-19T12:55:36Z</time></trkpt>
<trkpt lat="46.28285421989858150482177734375" lon="7.44577576406300067901611328125"><ele></ele><time>2020-9-19T12:55:39Z</time></trkpt>
<trkpt lat="46.28278699703514575958251953125" lon="7.4457533843815326690673828125"><ele></ele><time>2020-9-19T12:55:42Z</time></trkpt>
<trkpt lat="46.2827170081436634063720703125" lon="7.4457235448062419891357421875"><ele></ele><time>2020-9-19T12:55:45Z</time></trkpt>
<trkpt lat="46.2826432473957538604736328125" lon="7.44568951427936553955078125"><ele></ele><time>2020-9-19T12:55:48Z</time></trkpt>
<trkpt lat="46.28256261348724365234375" lon="7.44566327892243862152099609375"><ele></ele><time>2020-9-19T12:55:51Z</time></trkpt>
<trkpt lat="46.28247619606554508209228515625" lon="7.4456514604389667510986328125"><ele></ele><time>2020-9-19T12:55:54Z</time></trkpt>
<trkpt lat="46.282214932143688201904296875" lon="7.4456601776182651519775390625"><ele></ele><time>2020-9-19T12:55:57Z</time></trkpt>
<trkpt lat="46.2821349687874317169189453125" lon="7.44566327892243862152099609375"><ele></ele><time>2020-9-19T12:56:0Z</time></trkpt>
<trkpt lat="46.28205894492566585540771484375" lon="7.44566881097853183746337890625"><ele></ele><time>2020-9-19T12:56:3Z</time></trkpt>
<trkpt lat="46.281986944377422332763671875" lon="7.4456714093685150146484375"><ele></ele><time>2020-9-19T12:56:6Z</time></trkpt>
<trkpt lat="46.281986944377422332763671875" lon="7.4456714093685150146484375"><ele></ele><time>2020-9-19T12:56:9Z</time></trkpt>
<trkpt lat="46.281918548047542572021484375" lon="7.44566797278821468353271484375"><ele></ele><time>2020-9-19T12:56:12Z</time></trkpt>
<trkpt lat="46.28179927356541156768798828125" lon="7.44564668275415897369384765625"><ele></ele><time>2020-9-19T12:56:15Z</time></trkpt>
<trkpt lat="46.28179927356541156768798828125" lon="7.44564668275415897369384765625"><ele></ele><time>2020-9-19T12:56:18Z</time></trkpt>
<trkpt lat="46.2817494012415409088134765625" lon="7.445635534822940826416015625"><ele></ele><time>2020-9-19T12:56:21Z</time></trkpt>
<trkpt lat="46.2817078270018100738525390625" lon="7.44562706910073757171630859375"><ele></ele><time>2020-9-19T12:56:24Z</time></trkpt>
<trkpt lat="46.28167555667459964752197265625" lon="7.445624805986881256103515625"><ele></ele><time>2020-9-19T12:56:27Z</time></trkpt>
<trkpt lat="46.28164554946124553680419921875" lon="7.44562514126300811767578125"><ele></ele><time>2020-9-19T12:56:30Z</time></trkpt>
<trkpt lat="46.28156910650432109832763671875" lon="7.44562002830207347869873046875"><ele></ele><time>2020-9-19T12:56:33Z</time></trkpt>
<trkpt lat="46.2815237604081630706787109375" lon="7.44561969302594661712646484375"><ele></ele><time>2020-9-19T12:56:36Z</time></trkpt>
<trkpt lat="46.28147673793137073516845703125" lon="7.44561885483562946319580078125"><ele></ele><time>2020-9-19T12:56:39Z</time></trkpt>
<trkpt lat="46.2814315594732761383056640625" lon="7.44561441242694854736328125"><ele></ele><time>2020-9-19T12:56:42Z</time></trkpt>
<trkpt lat="46.281387805938720703125" lon="7.44561038911342620849609375"><ele></ele><time>2020-9-19T12:56:45Z</time></trkpt>
<trkpt lat="46.281387805938720703125" lon="7.44561038911342620849609375"><ele></ele><time>2020-9-19T12:56:48Z</time></trkpt>
<trkpt lat="46.2813041545450687408447265625" lon="7.445610053837299346923828125"><ele></ele><time>2020-9-19T12:56:51Z</time></trkpt>
<trkpt lat="46.28126165829598903656005859375" lon="7.445611059665679931640625"><ele></ele><time>2020-9-19T12:56:54Z</time></trkpt>
<trkpt lat="46.281218491494655609130859375" lon="7.44560963474214076995849609375"><ele></ele><time>2020-9-19T12:56:57Z</time></trkpt>
<trkpt lat="46.28117465414106845855712890625" lon="7.445605695247650146484375"><ele></ele><time>2020-9-19T12:57:0Z</time></trkpt>
<trkpt lat="46.28112771548330783843994140625" lon="7.44560242630541324615478515625"><ele></ele><time>2020-9-19T12:57:3Z</time></trkpt>
<trkpt lat="46.28112771548330783843994140625" lon="7.44560242630541324615478515625"><ele></ele><time>2020-9-19T12:57:6Z</time></trkpt>
<trkpt lat="46.281079016625881195068359375" lon="7.4456018395721912384033203125"><ele></ele><time>2020-9-19T12:57:9Z</time></trkpt>
<trkpt lat="46.28097013570368289947509765625" lon="7.4456088803708553314208984375"><ele></ele><time>2020-9-19T12:57:12Z</time></trkpt>
<trkpt lat="46.28084801137447357177734375" lon="7.44563695974647998809814453125"><ele></ele><time>2020-9-19T12:57:15Z</time></trkpt>
<trkpt lat="46.280781291425228118896484375" lon="7.445651628077030181884765625"><ele></ele><time>2020-9-19T12:57:18Z</time></trkpt>
<trkpt lat="46.280781291425228118896484375" lon="7.445651628077030181884765625"><ele></ele><time>2020-9-19T12:57:21Z</time></trkpt>
<trkpt lat="46.2806299142539501190185546875" lon="7.4457000754773616790771484375"><ele></ele><time>2020-9-19T12:57:24Z</time></trkpt>
<trkpt lat="46.28054651431739330291748046875" lon="7.44572815485298633575439453125"><ele></ele><time>2020-9-19T12:57:27Z</time></trkpt>
<trkpt lat="46.28054651431739330291748046875" lon="7.44572815485298633575439453125"><ele></ele><time>2020-9-19T12:57:30Z</time></trkpt>
<trkpt lat="46.2803643755614757537841796875" lon="7.4457617662847042083740234375"><ele></ele><time>2020-9-19T12:57:33Z</time></trkpt>
<trkpt lat="46.28009724430739879608154296875" lon="7.445772327482700347900390625"><ele></ele><time>2020-9-19T12:57:36Z</time></trkpt>
<trkpt lat="46.28004477359354496002197265625" lon="7.445786409080028533935546875"><ele></ele><time>2020-9-19T12:57:39Z</time></trkpt>
<trkpt lat="46.2800026126205921173095703125" lon="7.44578540325164794921875"><ele></ele><time>2020-9-19T12:57:42Z</time></trkpt>
<trkpt lat="46.27996464259922504425048828125" lon="7.44576252065598964691162109375"><ele></ele><time>2020-9-19T12:57:45Z</time></trkpt>
<trkpt lat="46.27993010915815830230712890625" lon="7.4457252211868762969970703125"><ele></ele><time>2020-9-19T12:57:48Z</time></trkpt>
<trkpt lat="46.2799023650586605072021484375" lon="7.445680461823940277099609375"><ele></ele><time>2020-9-19T12:57:51Z</time></trkpt>
<trkpt lat="46.27987596206367015838623046875" lon="7.44563318789005279541015625"><ele></ele><time>2020-9-19T12:57:54Z</time></trkpt>
<trkpt lat="46.27984796650707721710205078125" lon="7.44558113627135753631591796875"><ele></ele><time>2020-9-19T12:57:57Z</time></trkpt>
<trkpt lat="46.2798173725605010986328125" lon="7.44553386233747005462646484375"><ele></ele><time>2020-9-19T12:58:0Z</time></trkpt>
<trkpt lat="46.27978711389005184173583984375" lon="7.4454995803534984588623046875"><ele></ele><time>2020-9-19T12:58:3Z</time></trkpt>
<trkpt lat="46.279761381447315216064453125" lon="7.4454648792743682861328125"><ele></ele><time>2020-9-19T12:58:6Z</time></trkpt>
<trkpt lat="46.27974453382194042205810546875" lon="7.44541550986468791961669921875"><ele></ele><time>2020-9-19T12:58:9Z</time></trkpt>
<trkpt lat="46.279731206595897674560546875" lon="7.44535583071410655975341796875"><ele></ele><time>2020-9-19T12:58:12Z</time></trkpt>
<trkpt lat="46.279729194939136505126953125" lon="7.4452974088490009307861328125"><ele></ele><time>2020-9-19T12:58:15Z</time></trkpt>
<trkpt lat="46.27972659654915332794189453125" lon="7.445242591202259063720703125"><ele></ele><time>2020-9-19T12:58:18Z</time></trkpt>
<trkpt lat="46.27972709946334362030029296875" lon="7.44519204832613468170166015625"><ele></ele><time>2020-9-19T12:58:21Z</time></trkpt>
<trkpt lat="46.279734559357166290283203125" lon="7.4451468698680400848388671875"><ele></ele><time>2020-9-19T12:58:24Z</time></trkpt>
<trkpt lat="46.2797441147267818450927734375" lon="7.4451140128076076507568359375"><ele></ele><time>2020-9-19T12:58:27Z</time></trkpt>
<trkpt lat="46.279754675924777984619140625" lon="7.4450920522212982177734375"><ele></ele><time>2020-9-19T12:58:30Z</time></trkpt>
<trkpt lat="46.2797709368169307708740234375" lon="7.44506715796887874603271484375"><ele></ele><time>2020-9-19T12:58:33Z</time></trkpt>
<trkpt lat="46.27980354242026805877685546875" lon="7.445026338100433349609375"><ele></ele><time>2020-9-19T12:58:36Z</time></trkpt>
<trkpt lat="46.2798192165791988372802734375" lon="7.44501267559826374053955078125"><ele></ele><time>2020-9-19T12:58:39Z</time></trkpt>
<trkpt lat="46.27983204089105129241943359375" lon="7.4450023658573627471923828125"><ele></ele><time>2020-9-19T12:58:42Z</time></trkpt>
<trkpt lat="46.2798423506319522857666015625" lon="7.44499146938323974609375"><ele></ele><time>2020-9-19T12:58:45Z</time></trkpt>
<trkpt lat="46.279849223792552947998046875" lon="7.44498451240360736846923828125"><ele></ele><time>2020-9-19T12:58:48Z</time></trkpt>
<trkpt lat="46.2798520736396312713623046875" lon="7.4449755437672138214111328125"><ele></ele><time>2020-9-19T12:58:51Z</time></trkpt>
<trkpt lat="46.27985425293445587158203125" lon="7.44497512467205524444580078125"><ele></ele><time>2020-9-19T12:58:54Z</time></trkpt>
<trkpt lat="46.279859952628612518310546875" lon="7.4449943192303180694580078125"><ele></ele><time>2020-9-19T12:58:57Z</time></trkpt>
<trkpt lat="46.27984796650707721710205078125" lon="7.4450110830366611480712890625"><ele></ele><time>2020-9-19T12:59:0Z</time></trkpt>
<trkpt lat="46.27983137033879756927490234375" lon="7.4450345523655414581298828125"><ele></ele><time>2020-9-19T12:59:3Z</time></trkpt>
<trkpt lat="46.27978677861392498016357421875" lon="7.4450674094259738922119140625"><ele></ele><time>2020-9-19T12:59:6Z</time></trkpt>
<trkpt lat="46.27976565621793270111083984375" lon="7.4450893700122833251953125"><ele></ele><time>2020-9-19T12:59:9Z</time></trkpt>
<trkpt lat="46.279751323163509368896484375" lon="7.4451136775314807891845703125"><ele></ele><time>2020-9-19T12:59:12Z</time></trkpt>
<trkpt lat="46.2797424383461475372314453125" lon="7.44514527730643749237060546875"><ele></ele><time>2020-9-19T12:59:15Z</time></trkpt>
<trkpt lat="46.27974520437419414520263671875" lon="7.44517989456653594970703125"><ele></ele><time>2020-9-19T12:59:18Z</time></trkpt>
<trkpt lat="46.27974520437419414520263671875" lon="7.445216439664363861083984375"><ele></ele><time>2020-9-19T12:59:21Z</time></trkpt>
<trkpt lat="46.27973833121359348297119140625" lon="7.44525390677154064178466796875"><ele></ele><time>2020-9-19T12:59:24Z</time></trkpt>
<trkpt lat="46.2797360680997371673583984375" lon="7.445293553173542022705078125"><ele></ele><time>2020-9-19T12:59:27Z</time></trkpt>
<trkpt lat="46.27973514609038829803466796875" lon="7.44533671997487545013427734375"><ele></ele><time>2020-9-19T12:59:30Z</time></trkpt>
<trkpt lat="46.2797333858907222747802734375" lon="7.44538114406168460845947265625"><ele></ele><time>2020-9-19T12:59:33Z</time></trkpt>
<trkpt lat="46.279734559357166290283203125" lon="7.4454194493591785430908203125"><ele></ele><time>2020-9-19T12:59:36Z</time></trkpt>
<trkpt lat="46.279741935431957244873046875" lon="7.445443756878376007080078125"><ele></ele><time>2020-9-19T12:59:39Z</time></trkpt>
<trkpt lat="46.2797404266893863677978515625" lon="7.445459850132465362548828125"><ele></ele><time>2020-9-19T12:59:42Z</time></trkpt>
<trkpt lat="46.2797340564429759979248046875" lon="7.44546898640692234039306640625"><ele></ele><time>2020-9-19T12:59:45Z</time></trkpt>
<trkpt lat="46.27971553243696689605712890625" lon="7.4454730935394763946533203125"><ele></ele><time>2020-9-19T12:59:48Z</time></trkpt>
<trkpt lat="46.2796914763748645782470703125" lon="7.44547091424465179443359375"><ele></ele><time>2020-9-19T12:59:51Z</time></trkpt>
<trkpt lat="46.27966255880892276763916015625" lon="7.4454697407782077789306640625"><ele></ele><time>2020-9-19T12:59:54Z</time></trkpt>
<trkpt lat="46.2796297855675220489501953125" lon="7.44547091424465179443359375"><ele></ele><time>2020-9-19T12:59:57Z</time></trkpt>
<trkpt lat="46.2795652449131011962890625" lon="7.44546295143663883209228515625"><ele></ele><time>2020-9-19T13:0:0Z</time></trkpt>
<trkpt lat="46.27953641116619110107421875" lon="7.44546957314014434814453125"><ele></ele><time>2020-9-19T13:0:3Z</time></trkpt>
<trkpt lat="46.27950648777186870574951171875" lon="7.44547753594815731048583984375"><ele></ele><time>2020-9-19T13:0:6Z</time></trkpt>
<trkpt lat="46.27947874367237091064453125" lon="7.4454593472182750701904296875"><ele></ele><time>2020-9-19T13:0:9Z</time></trkpt>
<trkpt lat="46.27945921383798122406005859375" lon="7.4453708343207836151123046875"><ele></ele><time>2020-9-19T13:0:12Z</time></trkpt>
<trkpt lat="46.279459632933139801025390625" lon="7.445308305323123931884765625"><ele></ele><time>2020-9-19T13:0:15Z</time></trkpt>
<trkpt lat="46.2794561125338077545166015625" lon="7.445240579545497894287109375"><ele></ele><time>2020-9-19T13:0:18Z</time></trkpt>
<trkpt lat="46.27945619635283946990966796875" lon="7.44516505859792232513427734375"><ele></ele><time>2020-9-19T13:0:21Z</time></trkpt>
<trkpt lat="46.27945502288639545440673828125" lon="7.44508090429008007049560546875"><ele></ele><time>2020-9-19T13:0:24Z</time></trkpt>
<trkpt lat="46.27945535816252231597900390625" lon="7.4449933134019374847412109375"><ele></ele><time>2020-9-19T13:0:27Z</time></trkpt>
<trkpt lat="46.2794552743434906005859375" lon="7.44490169920027256011962890625"><ele></ele><time>2020-9-19T13:0:30Z</time></trkpt>
<trkpt lat="46.27943775616586208343505859375" lon="7.4447086639702320098876953125"><ele></ele><time>2020-9-19T13:0:33Z</time></trkpt>
<trkpt lat="46.27942836843430995941162109375" lon="7.444602549076080322265625"><ele></ele><time>2020-9-19T13:0:36Z</time></trkpt>
<trkpt lat="46.27940640784800052642822265625" lon="7.4444957636296749114990234375"><ele></ele><time>2020-9-19T13:0:39Z</time></trkpt>
<trkpt lat="46.27937422133982181549072265625" lon="7.4443928338587284088134765625"><ele></ele><time>2020-9-19T13:0:42Z</time></trkpt>
<trkpt lat="46.27934538759291172027587890625" lon="7.44429937563836574554443359375"><ele></ele><time>2020-9-19T13:0:45Z</time></trkpt>
<trkpt lat="46.27931990660727024078369140625" lon="7.444208599627017974853515625"><ele></ele><time>2020-9-19T13:0:48Z</time></trkpt>
<trkpt lat="46.279312111437320709228515625" lon="7.44411882944405078887939453125"><ele></ele><time>2020-9-19T13:0:51Z</time></trkpt>
<trkpt lat="46.279329545795917510986328125" lon="7.4440387822687625885009765625"><ele></ele><time>2020-9-19T13:0:54Z</time></trkpt>
<trkpt lat="46.27937304787337779998779296875" lon="7.443981282413005828857421875"><ele></ele><time>2020-9-19T13:0:57Z</time></trkpt>
<trkpt lat="46.2794363312423229217529296875" lon="7.44394582696259021759033203125"><ele></ele><time>2020-9-19T13:1:0Z</time></trkpt>
<trkpt lat="46.279509924352169036865234375" lon="7.44392101652920246124267578125"><ele></ele><time>2020-9-19T13:1:3Z</time></trkpt>
<trkpt lat="46.2795892171561717987060546875" lon="7.44389955885708332061767578125"><ele></ele><time>2020-9-19T13:1:6Z</time></trkpt>
<trkpt lat="46.2797421030700206756591796875" lon="7.44386116974055767059326171875"><ele></ele><time>2020-9-19T13:1:9Z</time></trkpt>
<trkpt lat="46.27979901619255542755126953125" lon="7.4438359402120113372802734375"><ele></ele><time>2020-9-19T13:1:12Z</time></trkpt>
<trkpt lat="46.279837153851985931396484375" lon="7.44379579089581966400146484375"><ele></ele><time>2020-9-19T13:1:15Z</time></trkpt>
<trkpt lat="46.27985148690640926361083984375" lon="7.4437356926500797271728515625"><ele></ele><time>2020-9-19T13:1:18Z</time></trkpt>
<trkpt lat="46.27984260208904743194580078125" lon="7.44366109371185302734375"><ele></ele><time>2020-9-19T13:1:21Z</time></trkpt>
<trkpt lat="46.27982608973979949951171875" lon="7.44357618503272533416748046875"><ele></ele><time>2020-9-19T13:1:24Z</time></trkpt>
<trkpt lat="46.27981267869472503662109375" lon="7.443476021289825439453125"><ele></ele><time>2020-9-19T13:1:27Z</time></trkpt>
<trkpt lat="46.279796920716762542724609375" lon="7.4433673918247222900390625"><ele></ele><time>2020-9-19T13:1:30Z</time></trkpt>
<trkpt lat="46.2797752954065799713134765625" lon="7.44325398467481136322021484375"><ele></ele><time>2020-9-19T13:1:33Z</time></trkpt>
<trkpt lat="46.2797488085925579071044921875" lon="7.44313965551555156707763671875"><ele></ele><time>2020-9-19T13:1:36Z</time></trkpt>
<trkpt lat="46.27971938811242580413818359375" lon="7.44302465580403804779052734375"><ele></ele><time>2020-9-19T13:1:39Z</time></trkpt>
<trkpt lat="46.279683597385883331298828125" lon="7.44291099719703197479248046875"><ele></ele><time>2020-9-19T13:1:42Z</time></trkpt>
<trkpt lat="46.27964411862194538116455078125" lon="7.44279499165713787078857421875"><ele></ele><time>2020-9-19T13:1:45Z</time></trkpt>
<trkpt lat="46.27960874699056148529052734375" lon="7.4426822550594806671142578125"><ele></ele><time>2020-9-19T13:1:48Z</time></trkpt>
<trkpt lat="46.279576979577541351318359375" lon="7.44258125312626361846923828125"><ele></ele><time>2020-9-19T13:1:51Z</time></trkpt>
<trkpt lat="46.27954219467937946319580078125" lon="7.4425042234361171722412109375"><ele></ele><time>2020-9-19T13:1:54Z</time></trkpt>
<trkpt lat="46.27950129099190235137939453125" lon="7.44245870970189571380615234375"><ele></ele><time>2020-9-19T13:1:57Z</time></trkpt>
<trkpt lat="46.2794520892202854156494140625" lon="7.44243758730590343475341796875"><ele></ele><time>2020-9-19T13:2:0Z</time></trkpt>
<trkpt lat="46.279394589364528656005859375" lon="7.4424569495022296905517578125"><ele></ele><time>2020-9-19T13:2:3Z</time></trkpt>
<trkpt lat="46.27933256328105926513671875" lon="7.4424877949059009552001953125"><ele></ele><time>2020-9-19T13:2:6Z</time></trkpt>
<trkpt lat="46.2792675197124481201171875" lon="7.44250916875898838043212890625"><ele></ele><time>2020-9-19T13:2:9Z</time></trkpt>
<trkpt lat="46.27920540980994701385498046875" lon="7.44250774383544921875"><ele></ele><time>2020-9-19T13:2:12Z</time></trkpt>
<trkpt lat="46.27915075980126857757568359375" lon="7.44247756898403167724609375"><ele></ele><time>2020-9-19T13:2:15Z</time></trkpt>
<trkpt lat="46.279100216925144195556640625" lon="7.442429959774017333984375"><ele></ele><time>2020-9-19T13:2:18Z</time></trkpt>
<trkpt lat="46.27905487082898616790771484375" lon="7.44237539358437061309814453125"><ele></ele><time>2020-9-19T13:2:21Z</time></trkpt>
<trkpt lat="46.2790142185986042022705078125" lon="7.44230850599706172943115234375"><ele></ele><time>2020-9-19T13:2:24Z</time></trkpt>
<trkpt lat="46.27896937541663646697998046875" lon="7.442239187657833099365234375"><ele></ele><time>2020-9-19T13:2:27Z</time></trkpt>
<trkpt lat="46.2789193354547023773193359375" lon="7.442164756357669830322265625"><ele></ele><time>2020-9-19T13:2:30Z</time></trkpt>
<trkpt lat="46.27887013368308544158935546875" lon="7.44207884185016155242919921875"><ele></ele><time>2020-9-19T13:2:33Z</time></trkpt>
<trkpt lat="46.278813220560550689697265625" lon="7.44198915548622608184814453125"><ele></ele><time>2020-9-19T13:2:36Z</time></trkpt>
<trkpt lat="46.2787503562867641448974609375" lon="7.441893182694911956787109375"><ele></ele><time>2020-9-19T13:2:39Z</time></trkpt>
<trkpt lat="46.2786363624036312103271484375" lon="7.44171557016670703887939453125"><ele></ele><time>2020-9-19T13:2:42Z</time></trkpt>
<trkpt lat="46.2785797007381916046142578125" lon="7.44162454269826412200927734375"><ele></ele><time>2020-9-19T13:2:45Z</time></trkpt>
<trkpt lat="46.27845673821866512298583984375" lon="7.44143930263817310333251953125"><ele></ele><time>2020-9-19T13:2:48Z</time></trkpt>
<trkpt lat="46.278402172029018402099609375" lon="7.441340647637844085693359375"><ele></ele><time>2020-9-19T13:2:51Z</time></trkpt>
<trkpt lat="46.2783403135836124420166015625" lon="7.441234029829502105712890625"><ele></ele><time>2020-9-19T13:2:54Z</time></trkpt>
<trkpt lat="46.2782940454781055450439453125" lon="7.4411285854876041412353515625"><ele></ele><time>2020-9-19T13:2:57Z</time></trkpt>
<trkpt lat="46.2782407365739345550537109375" lon="7.44102087803184986114501953125"><ele></ele><time>2020-9-19T13:3:0Z</time></trkpt>
<trkpt lat="46.278182901442050933837890625" lon="7.440910153090953826904296875"><ele></ele><time>2020-9-19T13:3:3Z</time></trkpt>
<trkpt lat="46.27812515012919902801513671875" lon="7.44080529548227787017822265625"><ele></ele><time>2020-9-19T13:3:6Z</time></trkpt>
<trkpt lat="46.27806815318763256072998046875" lon="7.44070974178612232208251953125"><ele></ele><time>2020-9-19T13:3:9Z</time></trkpt>
<trkpt lat="46.27800897695124149322509765625" lon="7.44061209261417388916015625"><ele></ele><time>2020-9-19T13:3:12Z</time></trkpt>
<trkpt lat="46.277951560914516448974609375" lon="7.44050388224422931671142578125"><ele></ele><time>2020-9-19T13:3:15Z</time></trkpt>
<trkpt lat="46.277896575629711151123046875" lon="7.44039290584623813629150390625"><ele></ele><time>2020-9-19T13:3:18Z</time></trkpt>
<trkpt lat="46.277854330837726593017578125" lon="7.44027145206928253173828125"><ele></ele><time>2020-9-19T13:3:21Z</time></trkpt>
<trkpt lat="46.27780747599899768829345703125" lon="7.4401492439210414886474609375"><ele></ele><time>2020-9-19T13:3:24Z</time></trkpt>
<trkpt lat="46.27775986678898334503173828125" lon="7.4400325678288936614990234375"><ele></ele><time>2020-9-19T13:3:27Z</time></trkpt>
<trkpt lat="46.27771208994090557098388671875" lon="7.43991899304091930389404296875"><ele></ele><time>2020-9-19T13:3:30Z</time></trkpt>
<trkpt lat="46.277667582035064697265625" lon="7.43980466388165950775146484375"><ele></ele><time>2020-9-19T13:3:33Z</time></trkpt>
<trkpt lat="46.2776167877018451690673828125" lon="7.43968949653208255767822265625"><ele></ele><time>2020-9-19T13:3:36Z</time></trkpt>
<trkpt lat="46.27756976522505283355712890625" lon="7.4395936913788318634033203125"><ele></ele><time>2020-9-19T13:3:39Z</time></trkpt>
<trkpt lat="46.277527771890163421630859375" lon="7.43949084542691707611083984375"><ele></ele><time>2020-9-19T13:3:42Z</time></trkpt>
<trkpt lat="46.2774877063930034637451171875" lon="7.4393901787698268890380859375"><ele></ele><time>2020-9-19T13:3:45Z</time></trkpt>
<trkpt lat="46.27744554542005062103271484375" lon="7.43929185904562473297119140625"><ele></ele><time>2020-9-19T13:3:48Z</time></trkpt>
<trkpt lat="46.27740380354225635528564453125" lon="7.43918775580823421478271484375"><ele></ele><time>2020-9-19T13:3:51Z</time></trkpt>
<trkpt lat="46.27736340276896953582763671875" lon="7.4390773661434650421142578125"><ele></ele><time>2020-9-19T13:3:54Z</time></trkpt>
<trkpt lat="46.2772681005299091339111328125" lon="7.43887159042060375213623046875"><ele></ele><time>2020-9-19T13:3:57Z</time></trkpt>
<trkpt lat="46.2772204913198947906494140625" lon="7.43877402506768703460693359375"><ele></ele><time>2020-9-19T13:4:0Z</time></trkpt>
<trkpt lat="46.27717933617532253265380859375" lon="7.43867360986769199371337890625"><ele></ele><time>2020-9-19T13:4:3Z</time></trkpt>
<trkpt lat="46.27714077942073345184326171875" lon="7.438577301800251007080078125"><ele></ele><time>2020-9-19T13:4:6Z</time></trkpt>
<trkpt lat="46.27710876055061817169189453125" lon="7.4384949915111064910888671875"><ele></ele><time>2020-9-19T13:4:9Z</time></trkpt>
<trkpt lat="46.27707389183342456817626953125" lon="7.43840941227972507476806640625"><ele></ele><time>2020-9-19T13:4:12Z</time></trkpt>
<trkpt lat="46.27703525125980377197265625" lon="7.43830396793782711029052734375"><ele></ele><time>2020-9-19T13:4:15Z</time></trkpt>
<trkpt lat="46.27700574696063995361328125" lon="7.438206486403942108154296875"><ele></ele><time>2020-9-19T13:4:18Z</time></trkpt>
<trkpt lat="46.27695922739803791046142578125" lon="7.43812442757189273834228515625"><ele></ele><time>2020-9-19T13:4:21Z</time></trkpt>
<trkpt lat="46.27691295929253101348876953125" lon="7.4380336515605449676513671875"><ele></ele><time>2020-9-19T13:4:24Z</time></trkpt>
<trkpt lat="46.2768696248531341552734375" lon="7.43795108981430530548095703125"><ele></ele><time>2020-9-19T13:4:27Z</time></trkpt>
<trkpt lat="46.27683408558368682861328125" lon="7.43787380866706371307373046875"><ele></ele><time>2020-9-19T13:4:30Z</time></trkpt>
<trkpt lat="46.2767997197806835174560546875" lon="7.437792085111141204833984375"><ele></ele><time>2020-9-19T13:4:33Z</time></trkpt>
<trkpt lat="46.27677130512893199920654296875" lon="7.43770432658493518829345703125"><ele></ele><time>2020-9-19T13:4:36Z</time></trkpt>
<trkpt lat="46.27674012444913387298583984375" lon="7.4376247823238372802734375"><ele></ele><time>2020-9-19T13:4:39Z</time></trkpt>
<trkpt lat="46.2767085246741771697998046875" lon="7.4375464953482151031494140625"><ele></ele><time>2020-9-19T13:4:42Z</time></trkpt>
<trkpt lat="46.27668731845915317535400390625" lon="7.43746812455356121063232421875"><ele></ele><time>2020-9-19T13:4:45Z</time></trkpt>
<trkpt lat="46.27667223103344440460205078125" lon="7.4373946152627468109130859375"><ele></ele><time>2020-9-19T13:4:48Z</time></trkpt>
<trkpt lat="46.27666384913027286529541015625" lon="7.43732764385640621185302734375"><ele></ele><time>2020-9-19T13:4:51Z</time></trkpt>
<trkpt lat="46.2766555510461330413818359375" lon="7.43727886117994785308837890625"><ele></ele><time>2020-9-19T13:4:54Z</time></trkpt>
<trkpt lat="46.2766464985907077789306640625" lon="7.43724181316792964935302734375"><ele></ele><time>2020-9-19T13:4:57Z</time></trkpt>
<trkpt lat="46.2766394577920436859130859375" lon="7.43721348233520984649658203125"><ele></ele><time>2020-9-19T13:5:0Z</time></trkpt>
<trkpt lat="46.27664373256266117095947265625" lon="7.43718766607344150543212890625"><ele></ele><time>2020-9-19T13:5:3Z</time></trkpt>
<trkpt lat="46.27664188854396343231201171875" lon="7.43716679513454437255859375"><ele></ele><time>2020-9-19T13:5:6Z</time></trkpt>
<trkpt lat="46.27665127627551555633544921875" lon="7.43715606629848480224609375"><ele></ele><time>2020-9-19T13:5:9Z</time></trkpt>
<trkpt lat="46.27666644752025604248046875" lon="7.437152378261089324951171875"><ele></ele><time>2020-9-19T13:5:12Z</time></trkpt>
<trkpt lat="46.27668245695531368255615234375" lon="7.437159083783626556396484375"><ele></ele><time>2020-9-19T13:5:15Z</time></trkpt>
<trkpt lat="46.27669787965714931488037109375" lon="7.43716679513454437255859375"><ele></ele><time>2020-9-19T13:5:18Z</time></trkpt>
<trkpt lat="46.27672545611858367919921875" lon="7.4371795356273651123046875"><ele></ele><time>2020-9-19T13:5:21Z</time></trkpt>
<trkpt lat="46.2767578102648258209228515625" lon="7.4371884204447269439697265625"><ele></ele><time>2020-9-19T13:5:24Z</time></trkpt>
<trkpt lat="46.27680592238903045654296875" lon="7.43720107711851596832275390625"><ele></ele><time>2020-9-19T13:5:27Z</time></trkpt>
<trkpt lat="46.27684037201106548309326171875" lon="7.43721549399197101593017578125"><ele></ele><time>2020-9-19T13:5:30Z</time></trkpt>
<trkpt lat="46.27687943167984485626220703125" lon="7.437228150665760040283203125"><ele></ele><time>2020-9-19T13:5:33Z</time></trkpt>
<trkpt lat="46.27692787908017635345458984375" lon="7.437239550054073333740234375"><ele></ele><time>2020-9-19T13:5:36Z</time></trkpt>
<trkpt lat="46.27696475945413112640380859375" lon="7.43725589476525783538818359375"><ele></ele><time>2020-9-19T13:5:39Z</time></trkpt>
<trkpt lat="46.27700482495129108428955078125" lon="7.43728104047477245330810546875"><ele></ele><time>2020-9-19T13:5:42Z</time></trkpt>
<trkpt lat="46.27704271115362644195556640625" lon="7.4373208545148372650146484375"><ele></ele><time>2020-9-19T13:5:45Z</time></trkpt>
<trkpt lat="46.27707188017666339874267578125" lon="7.43736938573420047760009765625"><ele></ele><time>2020-9-19T13:5:48Z</time></trkpt>
<trkpt lat="46.2771007977426052093505859375" lon="7.437399812042713165283203125"><ele></ele><time>2020-9-19T13:5:51Z</time></trkpt>
<trkpt lat="46.27714379690587520599365234375" lon="7.43741221725940704345703125"><ele></ele><time>2020-9-19T13:5:54Z</time></trkpt>
<trkpt lat="46.2771829403936862945556640625" lon="7.4373905919492244720458984375"><ele></ele><time>2020-9-19T13:5:57Z</time></trkpt>
<trkpt lat="46.2771888077259063720703125" lon="7.4373550526797771453857421875"><ele></ele><time>2020-9-19T13:6:0Z</time></trkpt>
<trkpt lat="46.27718302421271800994873046875" lon="7.43731624446809291839599609375"><ele></ele><time>2020-9-19T13:6:3Z</time></trkpt>
<trkpt lat="46.2771601416170597076416015625" lon="7.437279783189296722412109375"><ele></ele><time>2020-9-19T13:6:6Z</time></trkpt>
<trkpt lat="46.277142204344272613525390625" lon="7.43723795749247074127197265625"><ele></ele><time>2020-9-19T13:6:9Z</time></trkpt>
<trkpt lat="46.2771297991275787353515625" lon="7.4371941201388835906982421875"><ele></ele><time>2020-9-19T13:6:12Z</time></trkpt>
<trkpt lat="46.2770897336304187774658203125" lon="7.437090687453746795654296875"><ele></ele><time>2020-9-19T13:6:15Z</time></trkpt>
<trkpt lat="46.2770642526447772979736328125" lon="7.43702924810349941253662109375"><ele></ele><time>2020-9-19T13:6:18Z</time></trkpt>
<trkpt lat="46.277034915983676910400390625" lon="7.436964623630046844482421875"><ele></ele><time>2020-9-19T13:6:21Z</time></trkpt>
<trkpt lat="46.27700482495129108428955078125" lon="7.43690125644207000732421875"><ele></ele><time>2020-9-19T13:6:24Z</time></trkpt>
<trkpt lat="46.27696861512959003448486328125" lon="7.436828501522541046142578125"><ele></ele><time>2020-9-19T13:6:27Z</time></trkpt>
<trkpt lat="46.27693944610655307769775390625" lon="7.4367592670023441314697265625"><ele></ele><time>2020-9-19T13:6:30Z</time></trkpt>
<trkpt lat="46.27691647969186305999755859375" lon="7.436682991683483123779296875"><ele></ele><time>2020-9-19T13:6:33Z</time></trkpt>
<trkpt lat="46.2768835388123989105224609375" lon="7.436604537069797515869140625"><ele></ele><time>2020-9-19T13:6:36Z</time></trkpt>
<trkpt lat="46.276835761964321136474609375" lon="7.4365252442657947540283203125"><ele></ele><time>2020-9-19T13:6:39Z</time></trkpt>
<trkpt lat="46.27678354270756244659423828125" lon="7.43645223788917064666748046875"><ele></ele><time>2020-9-19T13:6:42Z</time></trkpt>
<trkpt lat="46.27672612667083740234375" lon="7.4363874457776546478271484375"><ele></ele><time>2020-9-19T13:6:45Z</time></trkpt>
<trkpt lat="46.27667717635631561279296875" lon="7.43632793426513671875"><ele></ele><time>2020-9-19T13:6:48Z</time></trkpt>
<trkpt lat="46.27663149498403072357177734375" lon="7.43627403862774372100830078125"><ele></ele><time>2020-9-19T13:6:51Z</time></trkpt>
<trkpt lat="46.27659830264747142791748046875" lon="7.4362139403820037841796875"><ele></ele><time>2020-9-19T13:6:54Z</time></trkpt>
<trkpt lat="46.276562847197055816650390625" lon="7.43615090847015380859375"><ele></ele><time>2020-9-19T13:6:57Z</time></trkpt>
<trkpt lat="46.27651917748153209686279296875" lon="7.4360769800841808319091796875"><ele></ele><time>2020-9-19T13:7:0Z</time></trkpt>
<trkpt lat="46.27647626213729381561279296875" lon="7.43601168505847454071044921875"><ele></ele><time>2020-9-19T13:7:3Z</time></trkpt>
<trkpt lat="46.27643049694597721099853515625" lon="7.435964830219745635986328125"><ele></ele><time>2020-9-19T13:7:6Z</time></trkpt>
<trkpt lat="46.27639143727719783782958984375" lon="7.4359264411032199859619140625"><ele></ele><time>2020-9-19T13:7:9Z</time></trkpt>
<trkpt lat="46.2763653695583343505859375" lon="7.435891740024089813232421875"><ele></ele><time>2020-9-19T13:7:12Z</time></trkpt>
<trkpt lat="46.2763573229312896728515625" lon="7.435859553515911102294921875"><ele></ele><time>2020-9-19T13:7:15Z</time></trkpt>
<trkpt lat="46.27636461518704891204833984375" lon="7.43582996539771556854248046875"><ele></ele><time>2020-9-19T13:7:18Z</time></trkpt>
<trkpt lat="46.27638372592628002166748046875" lon="7.4358181469142436981201171875"><ele></ele><time>2020-9-19T13:7:21Z</time></trkpt>
<trkpt lat="46.2764091230928897857666015625" lon="7.4358131177723407745361328125"><ele></ele><time>2020-9-19T13:7:24Z</time></trkpt>
<trkpt lat="46.27642647363245487213134765625" lon="7.4358154647052288055419921875"><ele></ele><time>2020-9-19T13:7:27Z</time></trkpt>
<trkpt lat="46.276439130306243896484375" lon="7.435815297067165374755859375"><ele></ele><time>2020-9-19T13:7:30Z</time></trkpt>
<trkpt lat="46.27645262517035007476806640625" lon="7.43581789545714855194091796875"><ele></ele><time>2020-9-19T13:7:33Z</time></trkpt>
<trkpt lat="46.27646922133862972259521484375" lon="7.43578168563544750213623046875"><ele></ele><time>2020-9-19T13:7:36Z</time></trkpt>
<trkpt lat="46.276468969881534576416015625" lon="7.4357504211366176605224609375"><ele></ele><time>2020-9-19T13:7:39Z</time></trkpt>
<trkpt lat="46.276465617120265960693359375" lon="7.43572711944580078125"><ele></ele><time>2020-9-19T13:7:42Z</time></trkpt>
<trkpt lat="46.2764610908925533294677734375" lon="7.43570608086884021759033203125"><ele></ele><time>2020-9-19T13:7:45Z</time></trkpt>
<trkpt lat="46.27646125853061676025390625" lon="7.43568713776767253875732421875"><ele></ele><time>2020-9-19T13:7:48Z</time></trkpt>
<trkpt lat="46.27645991742610931396484375" lon="7.43566517718136310577392578125"><ele></ele><time>2020-9-19T13:7:51Z</time></trkpt>
<trkpt lat="46.27645698375999927520751953125" lon="7.435644976794719696044921875"><ele></ele><time>2020-9-19T13:7:54Z</time></trkpt>
<trkpt lat="46.27644994296133518218994140625" lon="7.4356270395219326019287109375"><ele></ele><time>2020-9-19T13:7:57Z</time></trkpt>
<trkpt lat="46.2764483503997325897216796875" lon="7.43561086244881153106689453125"><ele></ele><time>2020-9-19T13:8:0Z</time></trkpt>
<trkpt lat="46.2764426507055759429931640625" lon="7.43559594266116619110107421875"><ele></ele><time>2020-9-19T13:8:3Z</time></trkpt>
<trkpt lat="46.276433430612087249755859375" lon="7.43558504618704319000244140625"><ele></ele><time>2020-9-19T13:8:6Z</time></trkpt>
<trkpt lat="46.2764377892017364501953125" lon="7.4355640076100826263427734375"><ele></ele><time>2020-9-19T13:8:9Z</time></trkpt>
<trkpt lat="46.27642882056534290313720703125" lon="7.43551346473395824432373046875"><ele></ele><time>2020-9-19T13:8:12Z</time></trkpt>
<trkpt lat="46.27641792409121990203857421875" lon="7.43549250997602939605712890625"><ele></ele><time>2020-9-19T13:8:15Z</time></trkpt>
<trkpt lat="46.2764087878167629241943359375" lon="7.4354682862758636474609375"><ele></ele><time>2020-9-19T13:8:18Z</time></trkpt>
<trkpt lat="46.27640753053128719329833984375" lon="7.43543718941509723663330078125"><ele></ele><time>2020-9-19T13:8:21Z</time></trkpt>
<trkpt lat="46.27640518359839916229248046875" lon="7.43540969677269458770751953125"><ele></ele><time>2020-9-19T13:8:24Z</time></trkpt>
<trkpt lat="46.27640803344547748565673828125" lon="7.4353876523673534393310546875"><ele></ele><time>2020-9-19T13:8:27Z</time></trkpt>
<trkpt lat="46.276401244103908538818359375" lon="7.4353636801242828369140625"><ele></ele><time>2020-9-19T13:8:30Z</time></trkpt>
<trkpt lat="46.27639395184814929962158203125" lon="7.43533216416835784912109375"><ele></ele><time>2020-9-19T13:8:33Z</time></trkpt>
<trkpt lat="46.2763812951743602752685546875" lon="7.4352897517383098602294921875"><ele></ele><time>2020-9-19T13:8:36Z</time></trkpt>
<trkpt lat="46.276375092566013336181640625" lon="7.435256056487560272216796875"><ele></ele><time>2020-9-19T13:8:39Z</time></trkpt>
<trkpt lat="46.27636712975800037384033203125" lon="7.43522412143647670745849609375"><ele></ele><time>2020-9-19T13:8:42Z</time></trkpt>
<trkpt lat="46.27636210061609745025634765625" lon="7.43518958799540996551513671875"><ele></ele><time>2020-9-19T13:8:45Z</time></trkpt>
<trkpt lat="46.27635707147419452667236328125" lon="7.43515086360275745391845703125"><ele></ele><time>2020-9-19T13:8:48Z</time></trkpt>
<trkpt lat="46.276346929371356964111328125" lon="7.43512655608355998992919921875"><ele></ele><time>2020-9-19T13:8:51Z</time></trkpt>
<trkpt lat="46.2763340212404727935791015625" lon="7.4351087026298046112060546875"><ele></ele><time>2020-9-19T13:8:54Z</time></trkpt>
<trkpt lat="46.276316083967685699462890625" lon="7.4350882507860660552978515625"><ele></ele><time>2020-9-19T13:8:57Z</time></trkpt>
<trkpt lat="46.2762988172471523284912109375" lon="7.43506302125751972198486328125"><ele></ele><time>2020-9-19T13:9:0Z</time></trkpt>
<trkpt lat="46.27629093825817108154296875" lon="7.4350423179566860198974609375"><ele></ele><time>2020-9-19T13:9:3Z</time></trkpt>
<trkpt lat="46.27628515474498271942138671875" lon="7.435019351541996002197265625"><ele></ele><time>2020-9-19T13:9:6Z</time></trkpt>
<trkpt lat="46.27628431655466556549072265625" lon="7.43500736542046070098876953125"><ele></ele><time>2020-9-19T13:9:9Z</time></trkpt>
<trkpt lat="46.27628565765917301177978515625" lon="7.43499982170760631561279296875"><ele></ele><time>2020-9-19T13:9:12Z</time></trkpt>
<trkpt lat="46.27628800459206104278564453125" lon="7.4349752627313137054443359375"><ele></ele><time>2020-9-19T13:9:15Z</time></trkpt>
<trkpt lat="46.2761315144598484039306640625" lon="7.43442113511264324188232421875"><ele></ele><time>2020-9-19T13:9:18Z</time></trkpt>
<trkpt lat="46.27612573094666004180908203125" lon="7.43439347483217716217041015625"><ele></ele><time>2020-9-19T13:9:21Z</time></trkpt>
<trkpt lat="46.27611416392028331756591796875" lon="7.4343731068074703216552734375"><ele></ele><time>2020-9-19T13:9:24Z</time></trkpt>
<trkpt lat="46.2760998308658599853515625" lon="7.4343529902398586273193359375"><ele></ele><time>2020-9-19T13:9:27Z</time></trkpt>
<trkpt lat="46.2760607711970806121826171875" lon="7.4343053810298442840576171875"><ele></ele><time>2020-9-19T13:9:30Z</time></trkpt>
<trkpt lat="46.27603956498205661773681640625" lon="7.43428803049027919769287109375"><ele></ele><time>2020-9-19T13:9:33Z</time></trkpt>
<trkpt lat="46.276036798954010009765625" lon="7.4342661537230014801025390625"><ele></ele><time>2020-9-19T13:9:36Z</time></trkpt>
<trkpt lat="46.27602766267955303192138671875" lon="7.4342514015734195709228515625"><ele></ele><time>2020-9-19T13:9:39Z</time></trkpt>
<trkpt lat="46.2760272435843944549560546875" lon="7.43423354811966419219970703125"><ele></ele><time>2020-9-19T13:9:42Z</time></trkpt>
<trkpt lat="46.27602539956569671630859375" lon="7.4342138506472110748291015625"><ele></ele><time>2020-9-19T13:9:45Z</time></trkpt>
<trkpt lat="46.27601341344416141510009765625" lon="7.4341937340795993804931640625"><ele></ele><time>2020-9-19T13:9:48Z</time></trkpt>
<trkpt lat="46.2760067917406558990478515625" lon="7.434166409075260162353515625"><ele></ele><time>2020-9-19T13:9:51Z</time></trkpt>
<trkpt lat="46.275985501706600189208984375" lon="7.43414126336574554443359375"><ele></ele><time>2020-9-19T13:9:54Z</time></trkpt>
<trkpt lat="46.27595725469291210174560546875" lon="7.43410966359078884124755859375"><ele></ele><time>2020-9-19T13:9:57Z</time></trkpt>
<trkpt lat="46.27591677010059356689453125" lon="7.434065826237201690673828125"><ele></ele><time>2020-9-19T13:10:0Z</time></trkpt>
<trkpt lat="46.2758941389620304107666015625" lon="7.43404202163219451904296875"><ele></ele><time>2020-9-19T13:10:3Z</time></trkpt>
<trkpt lat="46.27587921917438507080078125" lon="7.43402249179780483245849609375"><ele></ele><time>2020-9-19T13:10:6Z</time></trkpt>
<trkpt lat="46.2758691608905792236328125" lon="7.43399952538311481475830078125"><ele></ele><time>2020-9-19T13:10:9Z</time></trkpt>
<trkpt lat="46.275854408740997314453125" lon="7.43396851234138011932373046875"><ele></ele><time>2020-9-19T13:10:12Z</time></trkpt>
<trkpt lat="46.27584435045719146728515625" lon="7.4339412711560726165771484375"><ele></ele><time>2020-9-19T13:10:15Z</time></trkpt>
<trkpt lat="46.275832951068878173828125" lon="7.433910928666591644287109375"><ele></ele><time>2020-9-19T13:10:18Z</time></trkpt>
<trkpt lat="46.2758208811283111572265625" lon="7.4338805861771106719970703125"><ele></ele><time>2020-9-19T13:10:21Z</time></trkpt>
<trkpt lat="46.27581006847321987152099609375" lon="7.4338118545711040496826171875"><ele></ele><time>2020-9-19T13:10:24Z</time></trkpt>
<trkpt lat="46.2758079729974269866943359375" lon="7.43377606384456157684326171875"><ele></ele><time>2020-9-19T13:10:27Z</time></trkpt>
<trkpt lat="46.275807805359363555908203125" lon="7.43373935110867023468017578125"><ele></ele><time>2020-9-19T13:10:30Z</time></trkpt>
<trkpt lat="46.2758109904825687408447265625" lon="7.433707080781459808349609375"><ele></ele><time>2020-9-19T13:10:33Z</time></trkpt>
<trkpt lat="46.27581258304417133331298828125" lon="7.4336765706539154052734375"><ele></ele><time>2020-9-19T13:10:36Z</time></trkpt>
<trkpt lat="46.27581358887255191802978515625" lon="7.43364379741251468658447265625"><ele></ele><time>2020-9-19T13:10:39Z</time></trkpt>
<trkpt lat="46.2758130021393299102783203125" lon="7.433607839047908782958984375"><ele></ele><time>2020-9-19T13:10:42Z</time></trkpt>
<trkpt lat="46.2758093141019344329833984375" lon="7.4335758201777935028076171875"><ele></ele><time>2020-9-19T13:10:45Z</time></trkpt>
<trkpt lat="46.27580009400844573974609375" lon="7.4335493333637714385986328125"><ele></ele><time>2020-9-19T13:10:48Z</time></trkpt>
<trkpt lat="46.2757975794374942779541015625" lon="7.43352276273071765899658203125"><ele></ele><time>2020-9-19T13:10:51Z</time></trkpt>
<trkpt lat="46.275797747075557708740234375" lon="7.43349694646894931793212890625"><ele></ele><time>2020-9-19T13:10:54Z</time></trkpt>
<trkpt lat="46.27578400075435638427734375" lon="7.43346937000751495361328125"><ele></ele><time>2020-9-19T13:10:57Z</time></trkpt>
<trkpt lat="46.2757325358688831329345703125" lon="7.4333974532783031463623046875"><ele></ele><time>2020-9-19T13:11:0Z</time></trkpt>
<trkpt lat="46.27569439820945262908935546875" lon="7.43333249352872371673583984375"><ele></ele><time>2020-9-19T13:11:3Z</time></trkpt>
<trkpt lat="46.275671012699604034423828125" lon="7.43329997174441814422607421875"><ele></ele><time>2020-9-19T13:11:6Z</time></trkpt>
<trkpt lat="46.27564628608524799346923828125" lon="7.43326946161687374114990234375"><ele></ele><time>2020-9-19T13:11:9Z</time></trkpt>
<trkpt lat="46.27562315203249454498291015625" lon="7.43324733339250087738037109375"><ele></ele><time>2020-9-19T13:11:12Z</time></trkpt>
<trkpt lat="46.27560487948358058929443359375" lon="7.433222942054271697998046875"><ele></ele><time>2020-9-19T13:11:15Z</time></trkpt>
<trkpt lat="46.27558819949626922607421875" lon="7.43319871835410594940185546875"><ele></ele><time>2020-9-19T13:11:18Z</time></trkpt>
<trkpt lat="46.275564394891262054443359375" lon="7.433167956769466400146484375"><ele></ele><time>2020-9-19T13:11:21Z</time></trkpt>
<trkpt lat="46.27554469741880893707275390625" lon="7.43314004503190517425537109375"><ele></ele><time>2020-9-19T13:11:24Z</time></trkpt>
<trkpt lat="46.2755236588418483734130859375" lon="7.4331087805330753326416015625"><ele></ele><time>2020-9-19T13:11:27Z</time></trkpt>
<trkpt lat="46.27550505101680755615234375" lon="7.43308237753808498382568359375"><ele></ele><time>2020-9-19T13:11:30Z</time></trkpt>
<trkpt lat="46.2754871137440204620361328125" lon="7.43306511081755161285400390625"><ele></ele><time>2020-9-19T13:11:33Z</time></trkpt>
<trkpt lat="46.27546171657741069793701171875" lon="7.43303510360419750213623046875"><ele></ele><time>2020-9-19T13:11:36Z</time></trkpt>
<trkpt lat="46.2754364870488643646240234375" lon="7.43300962261855602264404296875"><ele></ele><time>2020-9-19T13:11:39Z</time></trkpt>
<trkpt lat="46.2754140235483646392822265625" lon="7.432984225451946258544921875"><ele></ele><time>2020-9-19T13:11:42Z</time></trkpt>
<trkpt lat="46.2753905542194843292236328125" lon="7.43295815773308277130126953125"><ele></ele><time>2020-9-19T13:11:45Z</time></trkpt>
<trkpt lat="46.27537186257541179656982421875" lon="7.432940639555454254150390625"><ele></ele><time>2020-9-19T13:11:48Z</time></trkpt>
<trkpt lat="46.275360882282257080078125" lon="7.43292831815779209136962890625"><ele></ele><time>2020-9-19T13:11:51Z</time></trkpt>
<trkpt lat="46.2753509916365146636962890625" lon="7.43291541002690792083740234375"><ele></ele><time>2020-9-19T13:11:54Z</time></trkpt>
<trkpt lat="46.2753486447036266326904296875" lon="7.4329014122486114501953125"><ele></ele><time>2020-9-19T13:11:57Z</time></trkpt>
<trkpt lat="46.275350153446197509765625" lon="7.4328895099461078643798828125"><ele></ele><time>2020-9-19T13:12:0Z</time></trkpt>
<trkpt lat="46.27524797804653644561767578125" lon="7.4326162599027156829833984375"><ele></ele><time>2020-9-19T13:12:3Z</time></trkpt>
<trkpt lat="46.27522719092667102813720703125" lon="7.43261399678885936737060546875"><ele></ele><time>2020-9-19T13:12:6Z</time></trkpt>
<trkpt lat="46.2752078287303447723388671875" lon="7.43261248804628849029541015625"><ele></ele><time>2020-9-19T13:12:9Z</time></trkpt>
<trkpt lat="46.2751857005059719085693359375" lon="7.43260301649570465087890625"><ele></ele><time>2020-9-19T13:12:12Z</time></trkpt>
<trkpt lat="46.2751662544906139373779296875" lon="7.43259555660188198089599609375"><ele></ele><time>2020-9-19T13:12:15Z</time></trkpt>
<trkpt lat="46.27514697611331939697265625" lon="7.432589940726757049560546875"><ele></ele><time>2020-9-19T13:12:18Z</time></trkpt>
<trkpt lat="46.2751288712024688720703125" lon="7.43258482776582241058349609375"><ele></ele><time>2020-9-19T13:12:21Z</time></trkpt>
<trkpt lat="46.27511478960514068603515625" lon="7.4325830675661563873291015625"><ele></ele><time>2020-9-19T13:12:24Z</time></trkpt>
<trkpt lat="46.275102384388446807861328125" lon="7.4325777031481266021728515625"><ele></ele><time>2020-9-19T13:12:27Z</time></trkpt>
<trkpt lat="46.27509475685656070709228515625" lon="7.43257485330104827880859375"><ele></ele><time>2020-9-19T13:12:30Z</time></trkpt>
<trkpt lat="46.27508989535272121429443359375" lon="7.43256839923560619354248046875"><ele></ele><time>2020-9-19T13:12:33Z</time></trkpt>
<trkpt lat="46.2750958465039730072021484375" lon="7.43253998458385467529296875"><ele></ele><time>2020-9-19T13:12:36Z</time></trkpt>
<trkpt lat="46.27509827725589275360107421875" lon="7.432525567710399627685546875"><ele></ele><time>2020-9-19T13:12:39Z</time></trkpt>
<trkpt lat="46.27509760670363903045654296875" lon="7.43251156993210315704345703125"><ele></ele><time>2020-9-19T13:12:42Z</time></trkpt>
<trkpt lat="46.2751008756458759307861328125" lon="7.43250972591340541839599609375"><ele></ele><time>2020-9-19T13:12:45Z</time></trkpt>
<trkpt lat="46.27510900609195232391357421875" lon="7.43250335566699504852294921875"><ele></ele><time>2020-9-19T13:12:48Z</time></trkpt>
<trkpt lat="46.27510917373001575469970703125" lon="7.43248659186065196990966796875"><ele></ele><time>2020-9-19T13:12:51Z</time></trkpt>
<trkpt lat="46.2750646658241748809814453125" lon="7.43247385136783123016357421875"><ele></ele><time>2020-9-19T13:12:54Z</time></trkpt>
<trkpt lat="46.27504932694137096405029296875" lon="7.4324710853397846221923828125"><ele></ele><time>2020-9-19T13:12:57Z</time></trkpt>
<trkpt lat="46.27503440715372562408447265625" lon="7.43246211670339107513427734375"><ele></ele><time>2020-9-19T13:13:0Z</time></trkpt>
<trkpt lat="46.27501546405255794525146484375" lon="7.43244669400155544281005859375"><ele></ele><time>2020-9-19T13:13:3Z</time></trkpt>
<trkpt lat="46.27499501220881938934326171875" lon="7.4324331991374492645263671875"><ele></ele><time>2020-9-19T13:13:6Z</time></trkpt>
<trkpt lat="46.2749711237847805023193359375" lon="7.43241232819855213165283203125"><ele></ele><time>2020-9-19T13:13:9Z</time></trkpt>
<trkpt lat="46.27495042048394680023193359375" lon="7.43239757604897022247314453125"><ele></ele><time>2020-9-19T13:13:12Z</time></trkpt>
<trkpt lat="46.2749250233173370361328125" lon="7.4323886074125766754150390625"><ele></ele><time>2020-9-19T13:13:15Z</time></trkpt>
<trkpt lat="46.27489577047526836395263671875" lon="7.43237829767167568206787109375"><ele></ele><time>2020-9-19T13:13:18Z</time></trkpt>
<trkpt lat="46.27486861310899257659912109375" lon="7.4323715083301067352294921875"><ele></ele><time>2020-9-19T13:13:21Z</time></trkpt>
<trkpt lat="46.27484296448528766632080078125" lon="7.4323580972850322723388671875"><ele></ele><time>2020-9-19T13:13:24Z</time></trkpt>
<trkpt lat="46.27481915988028049468994140625" lon="7.4323416687548160552978515625"><ele></ele><time>2020-9-19T13:13:27Z</time></trkpt>
<trkpt lat="46.2747930921614170074462890625" lon="7.4323309399187564849853515625"><ele></ele><time>2020-9-19T13:13:30Z</time></trkpt>
<trkpt lat="46.2747659347951412200927734375" lon="7.4323354661464691162109375"><ele></ele><time>2020-9-19T13:13:33Z</time></trkpt>
<trkpt lat="46.2747360952198505401611328125" lon="7.43234217166900634765625"><ele></ele><time>2020-9-19T13:13:36Z</time></trkpt>
<trkpt lat="46.27470768056809902191162109375" lon="7.4323379807174205780029296875"><ele></ele><time>2020-9-19T13:13:39Z</time></trkpt>
<trkpt lat="46.27468203194439411163330078125" lon="7.43233337067067623138427734375"><ele></ele><time>2020-9-19T13:13:42Z</time></trkpt>
<trkpt lat="46.27465604804456233978271484375" lon="7.43233270011842250823974609375"><ele></ele><time>2020-9-19T13:13:45Z</time></trkpt>
<trkpt lat="46.274626962840557098388671875" lon="7.432325743138790130615234375"><ele></ele><time>2020-9-19T13:13:48Z</time></trkpt>
<trkpt lat="46.27460424788296222686767578125" lon="7.43231995962560176849365234375"><ele></ele><time>2020-9-19T13:13:51Z</time></trkpt>
<trkpt lat="46.27459117211401462554931640625" lon="7.43232071399688720703125"><ele></ele><time>2020-9-19T13:13:54Z</time></trkpt>
<trkpt lat="46.27458262257277965545654296875" lon="7.432323396205902099609375"><ele></ele><time>2020-9-19T13:13:57Z</time></trkpt>
<trkpt lat="46.2745768390595912933349609375" lon="7.43232565931975841522216796875"><ele></ele><time>2020-9-19T13:14:0Z</time></trkpt>
<trkpt lat="46.27456686459481716156005859375" lon="7.4323084764182567596435546875"><ele></ele><time>2020-9-19T13:14:3Z</time></trkpt>
<trkpt lat="46.27451875247061252593994140625" lon="7.43196305818855762481689453125"><ele></ele><time>2020-9-19T13:14:6Z</time></trkpt>
<trkpt lat="46.2745014019310474395751953125" lon="7.431946210563182830810546875"><ele></ele><time>2020-9-19T13:14:9Z</time></trkpt>
<trkpt lat="46.27448983490467071533203125" lon="7.43193187750875949859619140625"><ele></ele><time>2020-9-19T13:14:12Z</time></trkpt>
<trkpt lat="46.2744775973260402679443359375" lon="7.43191041983664035797119140625"><ele></ele><time>2020-9-19T13:14:15Z</time></trkpt>
<trkpt lat="46.2744655273854732513427734375" lon="7.431889884173870086669921875"><ele></ele><time>2020-9-19T13:14:18Z</time></trkpt>
<trkpt lat="46.2744556367397308349609375" lon="7.43187186308205127716064453125"><ele></ele><time>2020-9-19T13:14:21Z</time></trkpt>
<trkpt lat="46.27444423735141754150390625" lon="7.43185711093246936798095703125"><ele></ele><time>2020-9-19T13:14:24Z</time></trkpt>
<trkpt lat="46.27442873083055019378662109375" lon="7.43184453807771205902099609375"><ele></ele><time>2020-9-19T13:14:27Z</time></trkpt>
<trkpt lat="46.274396963417530059814453125" lon="7.4318099208176136016845703125"><ele></ele><time>2020-9-19T13:14:30Z</time></trkpt>
<trkpt lat="46.2743776850402355194091796875" lon="7.4317894689738750457763671875"><ele></ele><time>2020-9-19T13:14:33Z</time></trkpt>
<trkpt lat="46.27435765229165554046630859375" lon="7.43176172487437725067138671875"><ele></ele><time>2020-9-19T13:14:36Z</time></trkpt>
<trkpt lat="46.27434574998915195465087890625" lon="7.43173456750810146331787109375"><ele></ele><time>2020-9-19T13:14:39Z</time></trkpt>
<trkpt lat="46.27433468587696552276611328125" lon="7.43169869296252727508544921875"><ele></ele><time>2020-9-19T13:14:42Z</time></trkpt>
<trkpt lat="46.2743233703076839447021484375" lon="7.4316412769258022308349609375"><ele></ele><time>2020-9-19T13:14:45Z</time></trkpt>
<trkpt lat="46.2743193469941616058349609375" lon="7.43162333965301513671875"><ele></ele><time>2020-9-19T13:14:48Z</time></trkpt>
<trkpt lat="46.27431523986160755157470703125" lon="7.43160699494183063507080078125"><ele></ele><time>2020-9-19T13:14:51Z</time></trkpt>
<trkpt lat="46.27431708388030529022216796875" lon="7.4315903149545192718505859375"><ele></ele><time>2020-9-19T13:14:54Z</time></trkpt>
<trkpt lat="46.27431926317512989044189453125" lon="7.4315710365772247314453125"><ele></ele><time>2020-9-19T13:14:57Z</time></trkpt>
<trkpt lat="46.2743220292031764984130859375" lon="7.431550584733486175537109375"><ele></ele><time>2020-9-19T13:15:0Z</time></trkpt>
<trkpt lat="46.2743190117180347442626953125" lon="7.43153641931712627410888671875"><ele></ele><time>2020-9-19T13:15:3Z</time></trkpt>
<trkpt lat="46.27430886961519718170166015625" lon="7.43152284063398838043212890625"><ele></ele><time>2020-9-19T13:15:6Z</time></trkpt>
<trkpt lat="46.27429512329399585723876953125" lon="7.43151177652180194854736328125"><ele></ele><time>2020-9-19T13:15:9Z</time></trkpt>
<trkpt lat="46.27428087405860424041748046875" lon="7.43148864246904850006103515625"><ele></ele><time>2020-9-19T13:15:12Z</time></trkpt>
<trkpt lat="46.27426662482321262359619140625" lon="7.431454025208950042724609375"><ele></ele><time>2020-9-19T13:15:15Z</time></trkpt>
<trkpt lat="46.27425472252070903778076171875" lon="7.4314173124730587005615234375"><ele></ele><time>2020-9-19T13:15:18Z</time></trkpt>
<trkpt lat="46.27424483187496662139892578125" lon="7.43137431330978870391845703125"><ele></ele><time>2020-9-19T13:15:21Z</time></trkpt>
<trkpt lat="46.2742356956005096435546875" lon="7.43129719980061054229736328125"><ele></ele><time>2020-9-19T13:15:24Z</time></trkpt>
<trkpt lat="46.27423695288598537445068359375" lon="7.43126903660595417022705078125"><ele></ele><time>2020-9-19T13:15:27Z</time></trkpt>
<trkpt lat="46.27423192374408245086669921875" lon="7.4312303960323333740234375"><ele></ele><time>2020-9-19T13:15:30Z</time></trkpt>
<trkpt lat="46.27422605641186237335205078125" lon="7.43118605576455593109130859375"><ele></ele><time>2020-9-19T13:15:33Z</time></trkpt>
<trkpt lat="46.274217925965785980224609375" lon="7.43115034885704517364501953125"><ele></ele><time>2020-9-19T13:15:36Z</time></trkpt>
<trkpt lat="46.2742077000439167022705078125" lon="7.4311222694814205169677734375"><ele></ele><time>2020-9-19T13:15:39Z</time></trkpt>
<trkpt lat="46.2741983123123645782470703125" lon="7.431091926991939544677734375"><ele></ele><time>2020-9-19T13:15:42Z</time></trkpt>
<trkpt lat="46.27418867312371730804443359375" lon="7.4310555495321750640869140625"><ele></ele><time>2020-9-19T13:15:45Z</time></trkpt>
<trkpt lat="46.2741828896105289459228515625" lon="7.43102185428142547607421875"><ele></ele><time>2020-9-19T13:15:48Z</time></trkpt>
<trkpt lat="46.27417895011603832244873046875" lon="7.430992685258388519287109375"><ele></ele><time>2020-9-19T13:15:51Z</time></trkpt>
<trkpt lat="46.2741711549460887908935546875" lon="7.4309556372463703155517578125"><ele></ele><time>2020-9-19T13:15:54Z</time></trkpt>
<trkpt lat="46.274164617061614990234375" lon="7.43091548793017864227294921875"><ele></ele><time>2020-9-19T13:15:57Z</time></trkpt>
<trkpt lat="46.2741647846996784210205078125" lon="7.43088833056390285491943359375"><ele></ele><time>2020-9-19T13:16:0Z</time></trkpt>
<trkpt lat="46.274160929024219512939453125" lon="7.43086083792150020599365234375"><ele></ele><time>2020-9-19T13:16:3Z</time></trkpt>
<trkpt lat="46.2741600908339023590087890625" lon="7.430850528180599212646484375"><ele></ele><time>2020-9-19T13:16:6Z</time></trkpt>
<trkpt lat="46.27415766008198261260986328125" lon="7.43084256537258625030517578125"><ele></ele><time>2020-9-19T13:16:9Z</time></trkpt>
<trkpt lat="46.27415900118649005889892578125" lon="7.43070803582668304443359375"><ele></ele><time>2020-9-19T13:16:12Z</time></trkpt>
<trkpt lat="46.27416201867163181304931640625" lon="7.4306770227849483489990234375"><ele></ele><time>2020-9-19T13:16:15Z</time></trkpt>
<trkpt lat="46.2741621024906635284423828125" lon="7.43063871748745441436767578125"><ele></ele><time>2020-9-19T13:16:18Z</time></trkpt>
<trkpt lat="46.27416587434709072113037109375" lon="7.43060745298862457275390625"><ele></ele><time>2020-9-19T13:16:21Z</time></trkpt>
<trkpt lat="46.27416486851871013641357421875" lon="7.4305807985365390777587890625"><ele></ele><time>2020-9-19T13:16:24Z</time></trkpt>
<trkpt lat="46.274164952337741851806640625" lon="7.43055288679897785186767578125"><ele></ele><time>2020-9-19T13:16:27Z</time></trkpt>
<trkpt lat="46.2741621024906635284423828125" lon="7.43052673526108264923095703125"><ele></ele><time>2020-9-19T13:16:30Z</time></trkpt>
<trkpt lat="46.27416235394775867462158203125" lon="7.43050041608512401580810546875"><ele></ele><time>2020-9-19T13:16:33Z</time></trkpt>
<trkpt lat="46.27416654489934444427490234375" lon="7.43047493509948253631591796875"><ele></ele><time>2020-9-19T13:16:36Z</time></trkpt>
<trkpt lat="46.2741698138415813446044921875" lon="7.4304423294961452484130859375"><ele></ele><time>2020-9-19T13:16:39Z</time></trkpt>
<trkpt lat="46.27418012358248233795166015625" lon="7.43040494620800018310546875"><ele></ele><time>2020-9-19T13:16:42Z</time></trkpt>
<trkpt lat="46.2741989828646183013916015625" lon="7.43035960011184215545654296875"><ele></ele><time>2020-9-19T13:16:45Z</time></trkpt>
<trkpt lat="46.274210549890995025634765625" lon="7.4303048662841320037841796875"><ele></ele><time>2020-9-19T13:16:48Z</time></trkpt>
<trkpt lat="46.27421901561319828033447265625" lon="7.43026538752019405364990234375"><ele></ele><time>2020-9-19T13:16:51Z</time></trkpt>
<trkpt lat="46.27422270365059375762939453125" lon="7.4302250705659389495849609375"><ele></ele><time>2020-9-19T13:16:54Z</time></trkpt>
<trkpt lat="46.2742254696786403656005859375" lon="7.430182658135890960693359375"><ele></ele><time>2020-9-19T13:16:57Z</time></trkpt>
<trkpt lat="46.27422639168798923492431640625" lon="7.430135048925876617431640625"><ele></ele><time>2020-9-19T13:17:0Z</time></trkpt>
<trkpt lat="46.274228990077972412109375" lon="7.43008710443973541259765625"><ele></ele><time>2020-9-19T13:17:3Z</time></trkpt>
<trkpt lat="46.27423728816211223602294921875" lon="7.4300359748303890228271484375"><ele></ele><time>2020-9-19T13:17:6Z</time></trkpt>
<trkpt lat="46.27423980273306369781494140625" lon="7.42998677305877208709716796875"><ele></ele><time>2020-9-19T13:17:9Z</time></trkpt>
<trkpt lat="46.2742382101714611053466796875" lon="7.42993555963039398193359375"><ele></ele><time>2020-9-19T13:17:12Z</time></trkpt>
<trkpt lat="46.27423929981887340545654296875" lon="7.42988535203039646148681640625"><ele></ele><time>2020-9-19T13:17:15Z</time></trkpt>
<trkpt lat="46.27424214966595172882080078125" lon="7.42983338423073291778564453125"><ele></ele><time>2020-9-19T13:17:18Z</time></trkpt>
<trkpt lat="46.27424885518848896026611328125" lon="7.4297821708023548126220703125"><ele></ele><time>2020-9-19T13:17:21Z</time></trkpt>
<trkpt lat="46.27425623126327991485595703125" lon="7.42966733872890472412109375"><ele></ele><time>2020-9-19T13:17:24Z</time></trkpt>
<trkpt lat="46.2742589972913265228271484375" lon="7.4295913986861705780029296875"><ele></ele><time>2020-9-19T13:17:27Z</time></trkpt>
<trkpt lat="46.2742670439183712005615234375" lon="7.42951981723308563232421875"><ele></ele><time>2020-9-19T13:17:30Z</time></trkpt>
<trkpt lat="46.27427333034574985504150390625" lon="7.4294666759669780731201171875"><ele></ele><time>2020-9-19T13:17:33Z</time></trkpt>
<trkpt lat="46.274278946220874786376953125" lon="7.429413534700870513916015625"><ele></ele><time>2020-9-19T13:17:36Z</time></trkpt>
<trkpt lat="46.2742801196873188018798828125" lon="7.42934756912291049957275390625"><ele></ele><time>2020-9-19T13:17:39Z</time></trkpt>
<trkpt lat="46.27428037114441394805908203125" lon="7.429286129772663116455078125"><ele></ele><time>2020-9-19T13:17:42Z</time></trkpt>
<trkpt lat="46.27428841777145862579345703125" lon="7.4292256124317646026611328125"><ele></ele><time>2020-9-19T13:17:45Z</time></trkpt>
<trkpt lat="46.27428791485726833343505859375" lon="7.42915478534996509552001953125"><ele></ele><time>2020-9-19T13:17:48Z</time></trkpt>
<trkpt lat="46.2742925249040126800537109375" lon="7.4290918372571468353271484375"><ele></ele><time>2020-9-19T13:17:51Z</time></trkpt>
<trkpt lat="46.27430149354040622711181640625" lon="7.4290309846401214599609375"><ele></ele><time>2020-9-19T13:17:54Z</time></trkpt>
<trkpt lat="46.2743268907070159912109375" lon="7.42890886031091213226318359375"><ele></ele><time>2020-9-19T13:17:57Z</time></trkpt>
<trkpt lat="46.27433904446661472320556640625" lon="7.42884063161909580230712890625"><ele></ele><time>2020-9-19T13:18:0Z</time></trkpt>
<trkpt lat="46.27435396425426006317138671875" lon="7.428771816194057464599609375"><ele></ele><time>2020-9-19T13:18:3Z</time></trkpt>
<trkpt lat="46.27436184324324131011962890625" lon="7.4286382086575031280517578125"><ele></ele><time>2020-9-19T13:18:6Z</time></trkpt>
<trkpt lat="46.27436787821352481842041015625" lon="7.428598813712596893310546875"><ele></ele><time>2020-9-19T13:18:9Z</time></trkpt>
<trkpt lat="46.274378187954425811767578125" lon="7.428559921681880950927734375"><ele></ele><time>2020-9-19T13:18:12Z</time></trkpt>
<trkpt lat="46.27438388764858245849609375" lon="7.4285222031176090240478515625"><ele></ele><time>2020-9-19T13:18:15Z</time></trkpt>
<trkpt lat="46.27439402975142002105712890625" lon="7.42848004214465618133544921875"><ele></ele><time>2020-9-19T13:18:18Z</time></trkpt>
<trkpt lat="46.27440257929265499114990234375" lon="7.42843863554298877716064453125"><ele></ele><time>2020-9-19T13:18:21Z</time></trkpt>
<trkpt lat="46.27441263757646083831787109375" lon="7.4283991567790508270263671875"><ele></ele><time>2020-9-19T13:18:24Z</time></trkpt>
<trkpt lat="46.274429149925708770751953125" lon="7.42836738936603069305419921875"><ele></ele><time>2020-9-19T13:18:27Z</time></trkpt>
<trkpt lat="46.27444717101752758026123046875" lon="7.428335957229137420654296875"><ele></ele><time>2020-9-19T13:18:30Z</time></trkpt>
<trkpt lat="46.27446301281452178955078125" lon="7.428303100168704986572265625"><ele></ele><time>2020-9-19T13:18:33Z</time></trkpt>
<trkpt lat="46.27447642385959625244140625" lon="7.42827150039374828338623046875"><ele></ele><time>2020-9-19T13:18:36Z</time></trkpt>
<trkpt lat="46.274495534598827362060546875" lon="7.42823797278106212615966796875"><ele></ele><time>2020-9-19T13:18:39Z</time></trkpt>
<trkpt lat="46.27450953237712383270263671875" lon="7.428195476531982421875"><ele></ele><time>2020-9-19T13:18:42Z</time></trkpt>
<trkpt lat="46.274521015584468841552734375" lon="7.42814862169325351715087890625"><ele></ele><time>2020-9-19T13:18:45Z</time></trkpt>
<trkpt lat="46.274533085525035858154296875" lon="7.42809765972197055816650390625"><ele></ele><time>2020-9-19T13:18:48Z</time></trkpt>
<trkpt lat="46.27454540692269802093505859375" lon="7.428051643073558807373046875"><ele></ele><time>2020-9-19T13:18:51Z</time></trkpt>
<trkpt lat="46.2745580635964870452880859375" lon="7.42801509797573089599609375"><ele></ele><time>2020-9-19T13:18:54Z</time></trkpt>
<trkpt lat="46.27457373775541782379150390625" lon="7.42798316292464733123779296875"><ele></ele><time>2020-9-19T13:18:57Z</time></trkpt>
<trkpt lat="46.27459720708429813385009765625" lon="7.4279545806348323822021484375"><ele></ele><time>2020-9-19T13:19:0Z</time></trkpt>
<trkpt lat="46.2746214307844638824462890625" lon="7.42793136276304721832275390625"><ele></ele><time>2020-9-19T13:19:3Z</time></trkpt>
<trkpt lat="46.2746442295610904693603515625" lon="7.42791091091930866241455078125"><ele></ele><time>2020-9-19T13:19:6Z</time></trkpt>
<trkpt lat="46.27467080019414424896240234375" lon="7.42789062671363353729248046875"><ele></ele><time>2020-9-19T13:19:9Z</time></trkpt>
<trkpt lat="46.2746995501220226287841796875" lon="7.4278776347637176513671875"><ele></ele><time>2020-9-19T13:19:12Z</time></trkpt>
<trkpt lat="46.2747334130108356475830078125" lon="7.427861206233501434326171875"><ele></ele><time>2020-9-19T13:19:15Z</time></trkpt>
<trkpt lat="46.2747619114816188812255859375" lon="7.4278432689607143402099609375"><ele></ele><time>2020-9-19T13:19:18Z</time></trkpt>
<trkpt lat="46.2747887335717678070068359375" lon="7.4278181232511997222900390625"><ele></ele><time>2020-9-19T13:19:21Z</time></trkpt>
<trkpt lat="46.27481530420482158660888671875" lon="7.427798174321651458740234375"><ele></ele><time>2020-9-19T13:19:24Z</time></trkpt>
<trkpt lat="46.27484128810465335845947265625" lon="7.427780069410800933837890625"><ele></ele><time>2020-9-19T13:19:27Z</time></trkpt>
<trkpt lat="46.27486811019480228424072265625" lon="7.42776297032833099365234375"><ele></ele><time>2020-9-19T13:19:30Z</time></trkpt>
<trkpt lat="46.274894513189792633056640625" lon="7.42774427868425846099853515625"><ele></ele><time>2020-9-19T13:19:33Z</time></trkpt>
<trkpt lat="46.27492041327059268951416015625" lon="7.42772315628826618194580078125"><ele></ele><time>2020-9-19T13:19:36Z</time></trkpt>
<trkpt lat="46.27494488842785358428955078125" lon="7.42769935168325901031494140625"><ele></ele><time>2020-9-19T13:19:39Z</time></trkpt>
<trkpt lat="46.27497187815606594085693359375" lon="7.42768292315304279327392578125"><ele></ele><time>2020-9-19T13:19:42Z</time></trkpt>
<trkpt lat="46.2749969400465488433837890625" lon="7.42766884155571460723876953125"><ele></ele><time>2020-9-19T13:19:45Z</time></trkpt>
<trkpt lat="46.2750197388231754302978515625" lon="7.427658699452877044677734375"><ele></ele><time>2020-9-19T13:19:48Z</time></trkpt>
<trkpt lat="46.27504228614270687103271484375" lon="7.42765408940613269805908203125"><ele></ele><time>2020-9-19T13:19:51Z</time></trkpt>
<trkpt lat="46.27506357617676258087158203125" lon="7.42765241302549839019775390625"><ele></ele><time>2020-9-19T13:19:54Z</time></trkpt>
<trkpt lat="46.2750857882201671600341796875" lon="7.42765031754970550537109375"><ele></ele><time>2020-9-19T13:19:57Z</time></trkpt>
<trkpt lat="46.27510900609195232391357421875" lon="7.42764822207391262054443359375"><ele></ele><time>2020-9-19T13:20:0Z</time></trkpt>
<trkpt lat="46.2751303799450397491455078125" lon="7.4276496469974517822265625"><ele></ele><time>2020-9-19T13:20:3Z</time></trkpt>
<trkpt lat="46.27514756284654140472412109375" lon="7.4276496469974517822265625"><ele></ele><time>2020-9-19T13:20:6Z</time></trkpt>
<trkpt lat="46.27516700886189937591552734375" lon="7.42765157483518123626708984375"><ele></ele><time>2020-9-19T13:20:9Z</time></trkpt>
<trkpt lat="46.275190226733684539794921875" lon="7.42765308357775211334228515625"><ele></ele><time>2020-9-19T13:20:12Z</time></trkpt>
<trkpt lat="46.27521210350096225738525390625" lon="7.42765702307224273681640625"><ele></ele><time>2020-9-19T13:20:15Z</time></trkpt>
<trkpt lat="46.27523171715438365936279296875" lon="7.42765593342483043670654296875"><ele></ele><time>2020-9-19T13:20:18Z</time></trkpt>
<trkpt lat="46.27525602467358112335205078125" lon="7.42765861563384532928466796875"><ele></ele><time>2020-9-19T13:20:21Z</time></trkpt>
<trkpt lat="46.27527974545955657958984375" lon="7.427661381661891937255859375"><ele></ele><time>2020-9-19T13:20:24Z</time></trkpt>
<trkpt lat="46.27530095167458057403564453125" lon="7.42767152376472949981689453125"><ele></ele><time>2020-9-19T13:20:27Z</time></trkpt>
<trkpt lat="46.2753260135650634765625" lon="7.42768258787691593170166015625"><ele></ele><time>2020-9-19T13:20:30Z</time></trkpt>
<trkpt lat="46.27534587867558002471923828125" lon="7.42769113741815090179443359375"><ele></ele><time>2020-9-19T13:20:33Z</time></trkpt>
<trkpt lat="46.2753667496144771575927734375" lon="7.42770220153033733367919921875"><ele></ele><time>2020-9-19T13:20:36Z</time></trkpt>
<trkpt lat="46.2753917276859283447265625" lon="7.427718378603458404541015625"><ele></ele><time>2020-9-19T13:20:39Z</time></trkpt>
<trkpt lat="46.275440342724323272705078125" lon="7.42774687707424163818359375"><ele></ele><time>2020-9-19T13:20:42Z</time></trkpt>
<trkpt lat="46.27546305768191814422607421875" lon="7.42776070721447467803955078125"><ele></ele><time>2020-9-19T13:20:45Z</time></trkpt>
<trkpt lat="46.27548552118241786956787109375" lon="7.42777663283050060272216796875"><ele></ele><time>2020-9-19T13:20:48Z</time></trkpt>
<trkpt lat="46.275507397949695587158203125" lon="7.42779524065554141998291015625"><ele></ele><time>2020-9-19T13:20:51Z</time></trkpt>
<trkpt lat="46.27552877180278301239013671875" lon="7.4278110824525356292724609375"><ele></ele><time>2020-9-19T13:20:54Z</time></trkpt>
<trkpt lat="46.2755521573126316070556640625" lon="7.42782709188759326934814453125"><ele></ele><time>2020-9-19T13:20:57Z</time></trkpt>
<trkpt lat="46.27557747066020965576171875" lon="7.42784150876104831695556640625"><ele></ele><time>2020-9-19T13:21:0Z</time></trkpt>
<trkpt lat="46.2755928933620452880859375" lon="7.42785274051129817962646484375"><ele></ele><time>2020-9-19T13:21:3Z</time></trkpt>
<trkpt lat="46.27561611123383045196533203125" lon="7.4278731085360050201416015625"><ele></ele><time>2020-9-19T13:21:6Z</time></trkpt>
<trkpt lat="46.27565634436905384063720703125" lon="7.42793421261012554168701171875"><ele></ele><time>2020-9-19T13:21:9Z</time></trkpt>
<trkpt lat="46.2756705097854137420654296875" lon="7.4279679916799068450927734375"><ele></ele><time>2020-9-19T13:21:12Z</time></trkpt>
<trkpt lat="46.27568283118307590484619140625" lon="7.42800294421613216400146484375"><ele></ele><time>2020-9-19T13:21:15Z</time></trkpt>
<trkpt lat="46.27570026554167270660400390625" lon="7.4280337058007717132568359375"><ele></ele><time>2020-9-19T13:21:18Z</time></trkpt>
<trkpt lat="46.27571585588157176971435546875" lon="7.428066730499267578125"><ele></ele><time>2020-9-19T13:21:21Z</time></trkpt>
<trkpt lat="46.2757325358688831329345703125" lon="7.42809833027422428131103515625"><ele></ele><time>2020-9-19T13:21:24Z</time></trkpt>
<trkpt lat="46.275760196149349212646484375" lon="7.4281232245266437530517578125"><ele></ele><time>2020-9-19T13:21:27Z</time></trkpt>
<trkpt lat="46.27578643150627613067626953125" lon="7.42814610712230205535888671875"><ele></ele><time>2020-9-19T13:21:30Z</time></trkpt>
<trkpt lat="46.27581895329058170318603515625" lon="7.42816798388957977294921875"><ele></ele><time>2020-9-19T13:21:33Z</time></trkpt>
<trkpt lat="46.27584745176136493682861328125" lon="7.428194470703601837158203125"><ele></ele><time>2020-9-19T13:21:36Z</time></trkpt>
<trkpt lat="46.27587854862213134765625" lon="7.4282214604318141937255859375"><ele></ele><time>2020-9-19T13:21:39Z</time></trkpt>
<trkpt lat="46.2759109027683734893798828125" lon="7.42824333719909191131591796875"><ele></ele><time>2020-9-19T13:21:42Z</time></trkpt>
<trkpt lat="46.2759388983249664306640625" lon="7.42826722562313079833984375"><ele></ele><time>2020-9-19T13:21:45Z</time></trkpt>
<trkpt lat="46.275967061519622802734375" lon="7.42829144932329654693603515625"><ele></ele><time>2020-9-19T13:21:48Z</time></trkpt>
<trkpt lat="46.27599732019007205963134765625" lon="7.42831542156636714935302734375"><ele></ele><time>2020-9-19T13:21:51Z</time></trkpt>
<trkpt lat="46.27603000961244106292724609375" lon="7.4283418245613574981689453125"><ele></ele><time>2020-9-19T13:21:54Z</time></trkpt>
<trkpt lat="46.27606152556836605072021484375" lon="7.42837250232696533203125"><ele></ele><time>2020-9-19T13:21:57Z</time></trkpt>
<trkpt lat="46.27609312534332275390625" lon="7.42840711958706378936767578125"><ele></ele><time>2020-9-19T13:22:0Z</time></trkpt>
<trkpt lat="46.27615657635033130645751953125" lon="7.42848775349557399749755859375"><ele></ele><time>2020-9-19T13:22:3Z</time></trkpt>
<trkpt lat="46.27618473954498767852783203125" lon="7.42853184230625629425048828125"><ele></ele><time>2020-9-19T13:22:6Z</time></trkpt>
<trkpt lat="46.27620586194097995758056640625" lon="7.42857777513563632965087890625"><ele></ele><time>2020-9-19T13:22:9Z</time></trkpt>
<trkpt lat="46.2762297503650188446044921875" lon="7.42862421087920665740966796875"><ele></ele><time>2020-9-19T13:22:12Z</time></trkpt>
<trkpt lat="46.27625229768455028533935546875" lon="7.42866980843245983123779296875"><ele></ele><time>2020-9-19T13:22:15Z</time></trkpt>
<trkpt lat="46.27628247253596782684326171875" lon="7.42871322669088840484619140625"><ele></ele><time>2020-9-19T13:22:18Z</time></trkpt>
<trkpt lat="46.27631910145282745361328125" lon="7.4287508614361286163330078125"><ele></ele><time>2020-9-19T13:22:21Z</time></trkpt>
<trkpt lat="46.27635304816067218780517578125" lon="7.4287820421159267425537109375"><ele></ele><time>2020-9-19T13:22:24Z</time></trkpt>
<trkpt lat="46.27638707868754863739013671875" lon="7.42880626581609249114990234375"><ele></ele><time>2020-9-19T13:22:27Z</time></trkpt>
<trkpt lat="46.27641524188220500946044921875" lon="7.4288298189640045166015625"><ele></ele><time>2020-9-19T13:22:30Z</time></trkpt>
<trkpt lat="46.276444830000400543212890625" lon="7.42885521613061428070068359375"><ele></ele><time>2020-9-19T13:22:33Z</time></trkpt>
<trkpt lat="46.27647324465215206146240234375" lon="7.4288886599242687225341796875"><ele></ele><time>2020-9-19T13:22:36Z</time></trkpt>
<trkpt lat="46.27650006674230098724365234375" lon="7.42892176844179630279541015625"><ele></ele><time>2020-9-19T13:22:39Z</time></trkpt>
<trkpt lat="46.27653795294463634490966796875" lon="7.42895194329321384429931640625"><ele></ele><time>2020-9-19T13:22:42Z</time></trkpt>
<trkpt lat="46.27657525241374969482421875" lon="7.42897943593561649322509765625"><ele></ele><time>2020-9-19T13:22:45Z</time></trkpt>
<trkpt lat="46.27660785801708698272705078125" lon="7.42899888195097446441650390625"><ele></ele><time>2020-9-19T13:22:48Z</time></trkpt>
<trkpt lat="46.27664138562977313995361328125" lon="7.4290202558040618896484375"><ele></ele><time>2020-9-19T13:22:51Z</time></trkpt>
<trkpt lat="46.276673488318920135498046875" lon="7.42904246784746646881103515625"><ele></ele><time>2020-9-19T13:22:54Z</time></trkpt>
<trkpt lat="46.27671246416866779327392578125" lon="7.4290631711483001708984375"><ele></ele><time>2020-9-19T13:22:57Z</time></trkpt>
<trkpt lat="46.2767534516751766204833984375" lon="7.42907281033694744110107421875"><ele></ele><time>2020-9-19T13:23:0Z</time></trkpt>
<trkpt lat="46.27679393626749515533447265625" lon="7.4290603213012218475341796875"><ele></ele><time>2020-9-19T13:23:3Z</time></trkpt>
<trkpt lat="46.2768262065947055816650390625" lon="7.4290164001286029815673828125"><ele></ele><time>2020-9-19T13:23:6Z</time></trkpt>
<trkpt lat="46.27685210667550563812255859375" lon="7.428976334631443023681640625"><ele></ele><time>2020-9-19T13:23:9Z</time></trkpt>
<trkpt lat="46.27687423489987850189208984375" lon="7.42894641123712062835693359375"><ele></ele><time>2020-9-19T13:23:12Z</time></trkpt>
<trkpt lat="46.276898793876171112060546875" lon="7.428915314376354217529296875"><ele></ele><time>2020-9-19T13:23:15Z</time></trkpt>
<trkpt lat="46.27692469395697116851806640625" lon="7.428890503942966461181640625"><ele></ele><time>2020-9-19T13:23:18Z</time></trkpt>
<trkpt lat="46.27695419825613498687744140625" lon="7.42886963300406932830810546875"><ele></ele><time>2020-9-19T13:23:21Z</time></trkpt>
<trkpt lat="46.27697951160371303558349609375" lon="7.42885286919772624969482421875"><ele></ele><time>2020-9-19T13:23:24Z</time></trkpt>
<trkpt lat="46.27700583077967166900634765625" lon="7.4288410507142543792724609375"><ele></ele><time>2020-9-19T13:23:27Z</time></trkpt>
<trkpt lat="46.2770367600023746490478515625" lon="7.428829483687877655029296875"><ele></ele><time>2020-9-19T13:23:30Z</time></trkpt>
<trkpt lat="46.2770712934434413909912109375" lon="7.42882805876433849334716796875"><ele></ele><time>2020-9-19T13:23:33Z</time></trkpt>
<trkpt lat="46.277109682559967041015625" lon="7.42883459664881229400634765625"><ele></ele><time>2020-9-19T13:23:36Z</time></trkpt>
<trkpt lat="46.27718000672757625579833984375" lon="7.4288735724985599517822265625"><ele></ele><time>2020-9-19T13:23:39Z</time></trkpt>
<trkpt lat="46.27721420489251613616943359375" lon="7.42890533991158008575439453125"><ele></ele><time>2020-9-19T13:23:42Z</time></trkpt>
<trkpt lat="46.27724387682974338531494140625" lon="7.4289371073246002197265625"><ele></ele><time>2020-9-19T13:23:45Z</time></trkpt>
<trkpt lat="46.277275644242763519287109375" lon="7.42897608317434787750244140625"><ele></ele><time>2020-9-19T13:23:48Z</time></trkpt>
<trkpt lat="46.27731227315962314605712890625" lon="7.42901648394763469696044921875"><ele></ele><time>2020-9-19T13:23:51Z</time></trkpt>
<trkpt lat="46.277348734438419342041015625" lon="7.42905520834028720855712890625"><ele></ele><time>2020-9-19T13:23:54Z</time></trkpt>
<trkpt lat="46.27738251350820064544677734375" lon="7.4290925078094005584716796875"><ele></ele><time>2020-9-19T13:23:57Z</time></trkpt>
<trkpt lat="46.27741989679634571075439453125" lon="7.4291287176311016082763671875"><ele></ele><time>2020-9-19T13:24:0Z</time></trkpt>
<trkpt lat="46.277458369731903076171875" lon="7.42916467599570751190185546875"><ele></ele><time>2020-9-19T13:24:3Z</time></trkpt>
<trkpt lat="46.27749969251453876495361328125" lon="7.429203651845455169677734375"><ele></ele><time>2020-9-19T13:24:6Z</time></trkpt>
<trkpt lat="46.27756976522505283355712890625" lon="7.42928587831556797027587890625"><ele></ele><time>2020-9-19T13:24:9Z</time></trkpt>
<trkpt lat="46.27760211937129497528076171875" lon="7.4293359182775020599365234375"><ele></ele><time>2020-9-19T13:24:12Z</time></trkpt>
<trkpt lat="46.27763740718364715576171875" lon="7.429387383162975311279296875"><ele></ele><time>2020-9-19T13:24:15Z</time></trkpt>
<trkpt lat="46.2776751257479190826416015625" lon="7.42943708784878253936767578125"><ele></ele><time>2020-9-19T13:24:18Z</time></trkpt>
<trkpt lat="46.27771192230284214019775390625" lon="7.429482936859130859375"><ele></ele><time>2020-9-19T13:24:21Z</time></trkpt>
<trkpt lat="46.27774871885776519775390625" lon="7.429524846374988555908203125"><ele></ele><time>2020-9-19T13:24:24Z</time></trkpt>
<trkpt lat="46.27778165973722934722900390625" lon="7.42956650443375110626220703125"><ele></ele><time>2020-9-19T13:24:27Z</time></trkpt>
<trkpt lat="46.27781602554023265838623046875" lon="7.4296084977686405181884765625"><ele></ele><time>2020-9-19T13:24:30Z</time></trkpt>
<trkpt lat="46.2778487987816333770751953125" lon="7.42964076809585094451904296875"><ele></ele><time>2020-9-19T13:24:33Z</time></trkpt>
<trkpt lat="46.27788291312754154205322265625" lon="7.42967178113758563995361328125"><ele></ele><time>2020-9-19T13:24:36Z</time></trkpt>
<trkpt lat="46.2779171951115131378173828125" lon="7.429707236588001251220703125"><ele></ele><time>2020-9-19T13:24:39Z</time></trkpt>
<trkpt lat="46.2779510580003261566162109375" lon="7.42975107394158840179443359375"><ele></ele><time>2020-9-19T13:24:42Z</time></trkpt>
<trkpt lat="46.27798198722302913665771484375" lon="7.42979650385677814483642578125"><ele></ele><time>2020-9-19T13:24:45Z</time></trkpt>
<trkpt lat="46.27801568247377872467041015625" lon="7.42984327487647533416748046875"><ele></ele><time>2020-9-19T13:24:48Z</time></trkpt>
<trkpt lat="46.278052143752574920654296875" lon="7.42989725433290004730224609375"><ele></ele><time>2020-9-19T13:24:51Z</time></trkpt>
<trkpt lat="46.27808910794556140899658203125" lon="7.4299518205225467681884765625"><ele></ele><time>2020-9-19T13:24:54Z</time></trkpt>
<trkpt lat="46.27812867052853107452392578125" lon="7.430004291236400604248046875"><ele></ele><time>2020-9-19T13:24:57Z</time></trkpt>
<trkpt lat="46.27820662222802639007568359375" lon="7.43014032952487468719482421875"><ele></ele><time>2020-9-19T13:25:0Z</time></trkpt>
<trkpt lat="46.2782524712383747100830078125" lon="7.430215515196323394775390625"><ele></ele><time>2020-9-19T13:25:3Z</time></trkpt>
<trkpt lat="46.27829379402101039886474609375" lon="7.43028600700199604034423828125"><ele></ele><time>2020-9-19T13:25:6Z</time></trkpt>
<trkpt lat="46.27837895415723323822021484375" lon="7.43042363785207271575927734375"><ele></ele><time>2020-9-19T13:25:9Z</time></trkpt>
<trkpt lat="46.27842421643435955047607421875" lon="7.43048683740198612213134765625"><ele></ele><time>2020-9-19T13:25:12Z</time></trkpt>
<trkpt lat="46.27846964634954929351806640625" lon="7.43054634891450405120849609375"><ele></ele><time>2020-9-19T13:25:15Z</time></trkpt>
<trkpt lat="46.27851306460797786712646484375" lon="7.430602423846721649169921875"><ele></ele><time>2020-9-19T13:25:18Z</time></trkpt>
<trkpt lat="46.27856075763702392578125" lon="7.43064877577126026153564453125"><ele></ele><time>2020-9-19T13:25:21Z</time></trkpt>
<trkpt lat="46.2786159105598926544189453125" lon="7.43068666197359561920166015625"><ele></ele><time>2020-9-19T13:25:24Z</time></trkpt>
<trkpt lat="46.278675086796283721923828125" lon="7.430715747177600860595703125"><ele></ele><time>2020-9-19T13:25:27Z</time></trkpt>
<trkpt lat="46.27873468212783336639404296875" lon="7.430738545954227447509765625"><ele></ele><time>2020-9-19T13:25:30Z</time></trkpt>
<trkpt lat="46.27880140207707881927490234375" lon="7.430745922029018402099609375"><ele></ele><time>2020-9-19T13:25:33Z</time></trkpt>
<trkpt lat="46.27887658774852752685546875" lon="7.43073896504938602447509765625"><ele></ele><time>2020-9-19T13:25:36Z</time></trkpt>
<trkpt lat="46.2789456546306610107421875" lon="7.43072974495589733123779296875"><ele></ele><time>2020-9-19T13:25:39Z</time></trkpt>
<trkpt lat="46.27902536652982234954833984375" lon="7.43072169832885265350341796875"><ele></ele><time>2020-9-19T13:25:42Z</time></trkpt>
<trkpt lat="46.27910046838223934173583984375" lon="7.4307142384350299835205078125"><ele></ele><time>2020-9-19T13:25:45Z</time></trkpt>
<trkpt lat="46.27916148863732814788818359375" lon="7.43071918375790119171142578125"><ele></ele><time>2020-9-19T13:25:48Z</time></trkpt>
<trkpt lat="46.27921965904533863067626953125" lon="7.43073108606040477752685546875"><ele></ele><time>2020-9-19T13:25:51Z</time></trkpt>
<trkpt lat="46.27928688190877437591552734375" lon="7.43075170554220676422119140625"><ele></ele><time>2020-9-19T13:25:54Z</time></trkpt>
<trkpt lat="46.2793461419641971588134765625" lon="7.43078271858394145965576171875"><ele></ele><time>2020-9-19T13:25:57Z</time></trkpt>
<trkpt lat="46.279408670961856842041015625" lon="7.4308161623775959014892578125"><ele></ele><time>2020-9-19T13:26:0Z</time></trkpt>
<trkpt lat="46.27946935594081878662109375" lon="7.43085061199963092803955078125"><ele></ele><time>2020-9-19T13:26:3Z</time></trkpt>
<trkpt lat="46.279574967920780181884765625" lon="7.430928982794284820556640625"><ele></ele><time>2020-9-19T13:26:6Z</time></trkpt>
<trkpt lat="46.2796187214553356170654296875" lon="7.43098036386072635650634765625"><ele></ele><time>2020-9-19T13:26:9Z</time></trkpt>
<trkpt lat="46.2796556018292903900146484375" lon="7.43104088120162487030029296875"><ele></ele><time>2020-9-19T13:26:12Z</time></trkpt>
<trkpt lat="46.27970413304865360260009765625" lon="7.43110634386539459228515625"><ele></ele><time>2020-9-19T13:26:15Z</time></trkpt>
<trkpt lat="46.27974453382194042205810546875" lon="7.43116409517824649810791015625"><ele></ele><time>2020-9-19T13:26:18Z</time></trkpt>
<trkpt lat="46.279782168567180633544921875" lon="7.43120432831346988677978515625"><ele></ele><time>2020-9-19T13:26:21Z</time></trkpt>
<trkpt lat="46.279814355075359344482421875" lon="7.43123852647840976715087890625"><ele></ele><time>2020-9-19T13:26:24Z</time></trkpt>
<trkpt lat="46.279846541583538055419921875" lon="7.43126400746405124664306640625"><ele></ele><time>2020-9-19T13:26:27Z</time></trkpt>
<trkpt lat="46.27987571060657501220703125" lon="7.4312925897538661956787109375"><ele></ele><time>2020-9-19T13:26:30Z</time></trkpt>
<trkpt lat="46.279906891286373138427734375" lon="7.4313242733478546142578125"><ele></ele><time>2020-9-19T13:26:33Z</time></trkpt>
<trkpt lat="46.27993874251842498779296875" lon="7.4313522689044475555419921875"><ele></ele><time>2020-9-19T13:26:36Z</time></trkpt>
<trkpt lat="46.2799670733511447906494140625" lon="7.4313780851662158966064453125"><ele></ele><time>2020-9-19T13:26:39Z</time></trkpt>
<trkpt lat="46.2799922190606594085693359375" lon="7.431406415998935699462890625"><ele></ele><time>2020-9-19T13:26:42Z</time></trkpt>
<trkpt lat="46.28001476638019084930419921875" lon="7.4314377643167972564697265625"><ele></ele><time>2020-9-19T13:26:45Z</time></trkpt>
<trkpt lat="46.28003438003361225128173828125" lon="7.431459724903106689453125"><ele></ele><time>2020-9-19T13:26:48Z</time></trkpt>
<trkpt lat="46.28004896454513072967529296875" lon="7.43148864246904850006103515625"><ele></ele><time>2020-9-19T13:26:51Z</time></trkpt>
<trkpt lat="46.28005567006766796112060546875" lon="7.43152116425335407257080078125"><ele></ele><time>2020-9-19T13:26:54Z</time></trkpt>
<trkpt lat="46.28006489016115665435791015625" lon="7.43155553005635738372802734375"><ele></ele><time>2020-9-19T13:26:57Z</time></trkpt>
<trkpt lat="46.28007327206432819366455078125" lon="7.43159593082964420318603515625"><ele></ele><time>2020-9-19T13:27:0Z</time></trkpt>
<trkpt lat="46.28008316271007061004638671875" lon="7.4316335655748844146728515625"><ele></ele><time>2020-9-19T13:27:3Z</time></trkpt>
<trkpt lat="46.28009431064128875732421875" lon="7.4316741339862346649169921875"><ele></ele><time>2020-9-19T13:27:6Z</time></trkpt>
<trkpt lat="46.28010042943060398101806640625" lon="7.4317083321511745452880859375"><ele></ele><time>2020-9-19T13:27:9Z</time></trkpt>
<trkpt lat="46.28011316992342472076416015625" lon="7.43174278177320957183837890625"><ele></ele><time>2020-9-19T13:27:12Z</time></trkpt>
<trkpt lat="46.2801189534366130828857421875" lon="7.4317804165184497833251953125"><ele></ele><time>2020-9-19T13:27:15Z</time></trkpt>
<trkpt lat="46.280125491321086883544921875" lon="7.43181671015918254852294921875"><ele></ele><time>2020-9-19T13:27:18Z</time></trkpt>
<trkpt lat="46.28013311885297298431396484375" lon="7.4318508245050907135009765625"><ele></ele><time>2020-9-19T13:27:21Z</time></trkpt>
<trkpt lat="46.28014652989804744720458984375" lon="7.43188896216452121734619140625"><ele></ele><time>2020-9-19T13:27:24Z</time></trkpt>
<trkpt lat="46.28015675581991672515869140625" lon="7.43192701600492000579833984375"><ele></ele><time>2020-9-19T13:27:27Z</time></trkpt>
<trkpt lat="46.28016765229403972625732421875" lon="7.431964315474033355712890625"><ele></ele><time>2020-9-19T13:27:30Z</time></trkpt>
<trkpt lat="46.2801786325871944427490234375" lon="7.4320027045905590057373046875"><ele></ele><time>2020-9-19T13:27:33Z</time></trkpt>
<trkpt lat="46.2801886908710002899169921875" lon="7.4320399202406406402587890625"><ele></ele><time>2020-9-19T13:27:36Z</time></trkpt>
<trkpt lat="46.280202604830265045166015625" lon="7.4320747889578342437744140625"><ele></ele><time>2020-9-19T13:27:39Z</time></trkpt>
<trkpt lat="46.28021609969437122344970703125" lon="7.43211192078888416290283203125"><ele></ele><time>2020-9-19T13:27:42Z</time></trkpt>
<trkpt lat="46.28023370169103145599365234375" lon="7.432147376239299774169921875"><ele></ele><time>2020-9-19T13:27:45Z</time></trkpt>
<trkpt lat="46.2802520580589771270751953125" lon="7.43217813782393932342529296875"><ele></ele><time>2020-9-19T13:27:48Z</time></trkpt>
<trkpt lat="46.28027007915079593658447265625" lon="7.4322147667407989501953125"><ele></ele><time>2020-9-19T13:27:51Z</time></trkpt>
<trkpt lat="46.28028550185263156890869140625" lon="7.432260029017925262451171875"><ele></ele><time>2020-9-19T13:27:54Z</time></trkpt>
<trkpt lat="46.28029908053576946258544921875" lon="7.43230537511408329010009765625"><ele></ele><time>2020-9-19T13:27:57Z</time></trkpt>
<trkpt lat="46.28031886182725429534912109375" lon="7.4323470331728458404541015625"><ele></ele><time>2020-9-19T13:28:0Z</time></trkpt>
<trkpt lat="46.28033570945262908935546875" lon="7.43238508701324462890625"><ele></ele><time>2020-9-19T13:28:3Z</time></trkpt>
<trkpt lat="46.280354149639606475830078125" lon="7.4324194528162479400634765625"><ele></ele><time>2020-9-19T13:28:6Z</time></trkpt>
<trkpt lat="46.28037393093109130859375" lon="7.4324526451528072357177734375"><ele></ele><time>2020-9-19T13:28:9Z</time></trkpt>
<trkpt lat="46.28039337694644927978515625" lon="7.4324861727654933929443359375"><ele></ele><time>2020-9-19T13:28:12Z</time></trkpt>
<trkpt lat="46.2804200313985347747802734375" lon="7.43251794017851352691650390625"><ele></ele><time>2020-9-19T13:28:15Z</time></trkpt>
<trkpt lat="46.28044207580387592315673828125" lon="7.4325421638786792755126953125"><ele></ele><time>2020-9-19T13:28:18Z</time></trkpt>
<trkpt lat="46.28047225065529346466064453125" lon="7.43256487883627414703369140625"><ele></ele><time>2020-9-19T13:28:21Z</time></trkpt>
<trkpt lat="46.28050209023058414459228515625" lon="7.43258826434612274169921875"><ele></ele><time>2020-9-19T13:28:24Z</time></trkpt>
<trkpt lat="46.280529834330081939697265625" lon="7.43261366151273250579833984375"><ele></ele><time>2020-9-19T13:28:27Z</time></trkpt>
<trkpt lat="46.2805564887821674346923828125" lon="7.43263729847967624664306640625"><ele></ele><time>2020-9-19T13:28:30Z</time></trkpt>
<trkpt lat="46.280572079122066497802734375" lon="7.43265724740922451019287109375"><ele></ele><time>2020-9-19T13:28:33Z</time></trkpt>
<trkpt lat="46.28058758564293384552001953125" lon="7.4326762743294239044189453125"><ele></ele><time>2020-9-19T13:28:36Z</time></trkpt>
<trkpt lat="46.2806064449250698089599609375" lon="7.4326948821544647216796875"><ele></ele><time>2020-9-19T13:28:39Z</time></trkpt>
<trkpt lat="46.280619688332080841064453125" lon="7.4327185191214084625244140625"><ele></ele><time>2020-9-19T13:28:42Z</time></trkpt>
<trkpt lat="46.28063938580453395843505859375" lon="7.43274475447833538055419921875"><ele></ele><time>2020-9-19T13:28:45Z</time></trkpt>
<trkpt lat="46.2806637771427631378173828125" lon="7.43276956491172313690185546875"><ele></ele><time>2020-9-19T13:28:48Z</time></trkpt>
<trkpt lat="46.280688084661960601806640625" lon="7.4327899329364299774169921875"><ele></ele><time>2020-9-19T13:28:51Z</time></trkpt>
<trkpt lat="46.28071331419050693511962890625" lon="7.4328103847801685333251953125"><ele></ele><time>2020-9-19T13:28:54Z</time></trkpt>
<trkpt lat="46.28074340522289276123046875" lon="7.43282966315746307373046875"><ele></ele><time>2020-9-19T13:28:57Z</time></trkpt>
<trkpt lat="46.2807744182646274566650390625" lon="7.43284986354410648345947265625"><ele></ele><time>2020-9-19T13:29:0Z</time></trkpt>
<trkpt lat="46.28080300055444240570068359375" lon="7.4328692257404327392578125"><ele></ele><time>2020-9-19T13:29:3Z</time></trkpt>
<trkpt lat="46.2808300741016864776611328125" lon="7.43288238532841205596923828125"><ele></ele><time>2020-9-19T13:29:6Z</time></trkpt>
<trkpt lat="46.28085698001086711883544921875" lon="7.4328925274312496185302734375"><ele></ele><time>2020-9-19T13:29:9Z</time></trkpt>
<trkpt lat="46.28088464029133319854736328125" lon="7.43290476500988006591796875"><ele></ele><time>2020-9-19T13:29:12Z</time></trkpt>
<trkpt lat="46.280911378562450408935546875" lon="7.43291876278817653656005859375"><ele></ele><time>2020-9-19T13:29:15Z</time></trkpt>
<trkpt lat="46.2809380330145359039306640625" lon="7.4329284019768238067626953125"><ele></ele><time>2020-9-19T13:29:18Z</time></trkpt>
<trkpt lat="46.28095387481153011322021484375" lon="7.43294038809835910797119140625"><ele></ele><time>2020-9-19T13:29:21Z</time></trkpt>
<trkpt lat="46.2809672020375728607177734375" lon="7.43295681662857532501220703125"><ele></ele><time>2020-9-19T13:29:24Z</time></trkpt>
<trkpt lat="46.28098304383456707000732421875" lon="7.4329726584255695343017578125"><ele></ele><time>2020-9-19T13:29:27Z</time></trkpt>
<trkpt lat="46.2810014002025127410888671875" lon="7.43298933841288089752197265625"><ele></ele><time>2020-9-19T13:29:30Z</time></trkpt>
<trkpt lat="46.28101640380918979644775390625" lon="7.43300928734242916107177734375"><ele></ele><time>2020-9-19T13:29:33Z</time></trkpt>
<trkpt lat="46.2810389511287212371826171875" lon="7.4330336786806583404541015625"><ele></ele><time>2020-9-19T13:29:36Z</time></trkpt>
<trkpt lat="46.28105915151536464691162109375" lon="7.43305823765695095062255859375"><ele></ele><time>2020-9-19T13:29:39Z</time></trkpt>
<trkpt lat="46.2810806930065155029296875" lon="7.43308120407164096832275390625"><ele></ele><time>2020-9-19T13:29:42Z</time></trkpt>
<trkpt lat="46.281102485954761505126953125" lon="7.433101572096347808837890625"><ele></ele><time>2020-9-19T13:29:45Z</time></trkpt>
<trkpt lat="46.28112469799816608428955078125" lon="7.43312068283557891845703125"><ele></ele><time>2020-9-19T13:29:48Z</time></trkpt>
<trkpt lat="46.2811423838138580322265625" lon="7.43313870392739772796630859375"><ele></ele><time>2020-9-19T13:29:51Z</time></trkpt>
<trkpt lat="46.2811556272208690643310546875" lon="7.43315261788666248321533203125"><ele></ele><time>2020-9-19T13:29:54Z</time></trkpt>
<trkpt lat="46.28117431886494159698486328125" lon="7.43316762149333953857421875"><ele></ele><time>2020-9-19T13:29:57Z</time></trkpt>
<trkpt lat="46.2811995483934879302978515625" lon="7.43318379856646060943603515625"><ele></ele><time>2020-9-19T13:30:0Z</time></trkpt>
<trkpt lat="46.2812206707894802093505859375" lon="7.43320123292505741119384765625"><ele></ele><time>2020-9-19T13:30:3Z</time></trkpt>
<trkpt lat="46.28124673850834369659423828125" lon="7.43321699090301990509033203125"><ele></ele><time>2020-9-19T13:30:6Z</time></trkpt>
<trkpt lat="46.28127305768430233001708984375" lon="7.43323559872806072235107421875"><ele></ele><time>2020-9-19T13:30:9Z</time></trkpt>
<trkpt lat="46.28129350952804088592529296875" lon="7.43325387127697467803955078125"><ele></ele><time>2020-9-19T13:30:12Z</time></trkpt>
<trkpt lat="46.28130993805825710296630859375" lon="7.4332734011113643646240234375"><ele></ele><time>2020-9-19T13:30:15Z</time></trkpt>
<trkpt lat="46.2813328206539154052734375" lon="7.43329309858381748199462890625"><ele></ele><time>2020-9-19T13:30:18Z</time></trkpt>
<trkpt lat="46.28136123530566692352294921875" lon="7.4333132989704608917236328125"><ele></ele><time>2020-9-19T13:30:21Z</time></trkpt>
<trkpt lat="46.28138135187327861785888671875" lon="7.433338277041912078857421875"><ele></ele><time>2020-9-19T13:30:24Z</time></trkpt>
<trkpt lat="46.28139643929898738861083984375" lon="7.43336183018982410430908203125"><ele></ele><time>2020-9-19T13:30:27Z</time></trkpt>
<trkpt lat="46.28141127526760101318359375" lon="7.43338622152805328369140625"><ele></ele><time>2020-9-19T13:30:30Z</time></trkpt>
<trkpt lat="46.28142074681818485260009765625" lon="7.4334122054278850555419921875"><ele></ele><time>2020-9-19T13:30:33Z</time></trkpt>
<trkpt lat="46.2814325653016567230224609375" lon="7.433440200984477996826171875"><ele></ele><time>2020-9-19T13:30:36Z</time></trkpt>
<trkpt lat="46.281441114842891693115234375" lon="7.43347146548330783843994140625"><ele></ele><time>2020-9-19T13:30:39Z</time></trkpt>
<trkpt lat="46.281448490917682647705078125" lon="7.43350314907729625701904296875"><ele></ele><time>2020-9-19T13:30:42Z</time></trkpt>
<trkpt lat="46.2814627401530742645263671875" lon="7.43353282101452350616455078125"><ele></ele><time>2020-9-19T13:30:45Z</time></trkpt>
<trkpt lat="46.28147338517010211944580078125" lon="7.433564923703670501708984375"><ele></ele><time>2020-9-19T13:30:48Z</time></trkpt>
<trkpt lat="46.2814895622432231903076171875" lon="7.43359434418380260467529296875"><ele></ele><time>2020-9-19T13:30:51Z</time></trkpt>
<trkpt lat="46.2815090082585811614990234375" lon="7.433623932301998138427734375"><ele></ele><time>2020-9-19T13:30:54Z</time></trkpt>
<trkpt lat="46.2815287895500659942626953125" lon="7.43364631198346614837646484375"><ele></ele><time>2020-9-19T13:30:57Z</time></trkpt>
<trkpt lat="46.28155075013637542724609375" lon="7.4336712062358856201171875"><ele></ele><time>2020-9-19T13:31:0Z</time></trkpt>
<trkpt lat="46.2815727107226848602294921875" lon="7.4336931668221950531005859375"><ele></ele><time>2020-9-19T13:31:3Z</time></trkpt>
<trkpt lat="46.28159509040415287017822265625" lon="7.43371068499982357025146484375"><ele></ele><time>2020-9-19T13:31:6Z</time></trkpt>
<trkpt lat="46.28161839209496974945068359375" lon="7.4337273649871349334716796875"><ele></ele><time>2020-9-19T13:31:9Z</time></trkpt>
<trkpt lat="46.281638927757740020751953125" lon="7.43374723009765148162841796875"><ele></ele><time>2020-9-19T13:31:12Z</time></trkpt>
<trkpt lat="46.28166264854371547698974609375" lon="7.433769442141056060791015625"><ele></ele><time>2020-9-19T13:31:15Z</time></trkpt>
<trkpt lat="46.28168578259646892547607421875" lon="7.43379257619380950927734375"><ele></ele><time>2020-9-19T13:31:18Z</time></trkpt>
<trkpt lat="46.28170321695506572723388671875" lon="7.43381881155073642730712890625"><ele></ele><time>2020-9-19T13:31:21Z</time></trkpt>
<trkpt lat="46.28171838819980621337890625" lon="7.4338470585644245147705078125"><ele></ele><time>2020-9-19T13:31:24Z</time></trkpt>
<trkpt lat="46.281730122864246368408203125" lon="7.4338671751320362091064453125"><ele></ele><time>2020-9-19T13:31:27Z</time></trkpt>
<trkpt lat="46.28174521028995513916015625" lon="7.43389089591801166534423828125"><ele></ele><time>2020-9-19T13:31:30Z</time></trkpt>
<trkpt lat="46.281760968267917633056640625" lon="7.43391436524689197540283203125"><ele></ele><time>2020-9-19T13:31:33Z</time></trkpt>
<trkpt lat="46.28178167156875133514404296875" lon="7.43393666110932826995849609375"><ele></ele><time>2020-9-19T13:31:36Z</time></trkpt>
<trkpt lat="46.28179742954671382904052734375" lon="7.433952502906322479248046875"><ele></ele><time>2020-9-19T13:31:39Z</time></trkpt>
<trkpt lat="46.28181570209562778472900390625" lon="7.43396532721817493438720703125"><ele></ele><time>2020-9-19T13:31:42Z</time></trkpt>
<trkpt lat="46.2818399257957935333251953125" lon="7.433975972235202789306640625"><ele></ele><time>2020-9-19T13:31:45Z</time></trkpt>
<trkpt lat="46.2818647362291812896728515625" lon="7.43398561142385005950927734375"><ele></ele><time>2020-9-19T13:31:48Z</time></trkpt>
<trkpt lat="46.2818885408341884613037109375" lon="7.43399432860314846038818359375"><ele></ele><time>2020-9-19T13:31:51Z</time></trkpt>
<trkpt lat="46.2819068133831024169921875" lon="7.4340043030679225921630859375"><ele></ele><time>2020-9-19T13:31:54Z</time></trkpt>
<trkpt lat="46.28192760050296783447265625" lon="7.43401813320815563201904296875"><ele></ele><time>2020-9-19T13:31:57Z</time></trkpt>
<trkpt lat="46.28195576369762420654296875" lon="7.43404042907059192657470703125"><ele></ele><time>2020-9-19T13:32:0Z</time></trkpt>
<trkpt lat="46.28198334015905857086181640625" lon="7.4340628087520599365234375"><ele></ele><time>2020-9-19T13:32:3Z</time></trkpt>
<trkpt lat="46.28200949169695377349853515625" lon="7.4340840987861156463623046875"><ele></ele><time>2020-9-19T13:32:6Z</time></trkpt>
<trkpt lat="46.2820310331881046295166015625" lon="7.4341038800776004791259765625"><ele></ele><time>2020-9-19T13:32:9Z</time></trkpt>
<trkpt lat="46.2820588611066341400146484375" lon="7.4341206438839435577392578125"><ele></ele><time>2020-9-19T13:32:12Z</time></trkpt>
<trkpt lat="46.282088197767734527587890625" lon="7.4341367371380329132080078125"><ele></ele><time>2020-9-19T13:32:15Z</time></trkpt>
<trkpt lat="46.2821128405630588531494140625" lon="7.43415257893502712249755859375"><ele></ele><time>2020-9-19T13:32:18Z</time></trkpt>
<trkpt lat="46.28213815391063690185546875" lon="7.43416800163686275482177734375"><ele></ele><time>2020-9-19T13:32:21Z</time></trkpt>
<trkpt lat="46.28215969540178775787353515625" lon="7.43418124504387378692626953125"><ele></ele><time>2020-9-19T13:32:24Z</time></trkpt>
<trkpt lat="46.2821788899600505828857421875" lon="7.43419482372701168060302734375"><ele></ele><time>2020-9-19T13:32:27Z</time></trkpt>
<trkpt lat="46.28219976089894771575927734375" lon="7.43420940823853015899658203125"><ele></ele><time>2020-9-19T13:32:30Z</time></trkpt>
<trkpt lat="46.28221727907657623291015625" lon="7.434228099882602691650390625"><ele></ele><time>2020-9-19T13:32:33Z</time></trkpt>
<trkpt lat="46.28224074840545654296875" lon="7.4342483840882778167724609375"><ele></ele><time>2020-9-19T13:32:36Z</time></trkpt>
<trkpt lat="46.28225575201213359832763671875" lon="7.43426539935171604156494140625"><ele></ele><time>2020-9-19T13:32:39Z</time></trkpt>
<trkpt lat="46.2822744436562061309814453125" lon="7.43428937159478664398193359375"><ele></ele><time>2020-9-19T13:32:42Z</time></trkpt>
<trkpt lat="46.28228810615837574005126953125" lon="7.43431535549461841583251953125"><ele></ele><time>2020-9-19T13:32:45Z</time></trkpt>
<trkpt lat="46.28230310976505279541015625" lon="7.43434050120413303375244140625"><ele></ele><time>2020-9-19T13:32:48Z</time></trkpt>
<trkpt lat="46.28231559880077838897705078125" lon="7.43436388671398162841796875"><ele></ele><time>2020-9-19T13:32:51Z</time></trkpt>
<trkpt lat="46.282324902713298797607421875" lon="7.43438534438610076904296875"><ele></ele><time>2020-9-19T13:32:54Z</time></trkpt>
<trkpt lat="46.2823378108441829681396484375" lon="7.43440973572432994842529296875"><ele></ele><time>2020-9-19T13:32:57Z</time></trkpt>
<trkpt lat="46.28234225325286388397216796875" lon="7.43442817591130733489990234375"><ele></ele><time>2020-9-19T13:33:0Z</time></trkpt>
<trkpt lat="46.28235667012631893157958984375" lon="7.434449382126331329345703125"><ele></ele><time>2020-9-19T13:33:3Z</time></trkpt>
<trkpt lat="46.28238097764551639556884765625" lon="7.43447251617908477783203125"><ele></ele><time>2020-9-19T13:33:6Z</time></trkpt>
<trkpt lat="46.28240712918341159820556640625" lon="7.4344933032989501953125"><ele></ele><time>2020-9-19T13:33:9Z</time></trkpt>
<trkpt lat="46.28243378363549709320068359375" lon="7.43451752699911594390869140625"><ele></ele><time>2020-9-19T13:33:12Z</time></trkpt>
<trkpt lat="46.28246001899242401123046875" lon="7.43454116396605968475341796875"><ele></ele><time>2020-9-19T13:33:15Z</time></trkpt>
<trkpt lat="46.28248541615903377532958984375" lon="7.43456630967557430267333984375"><ele></ele><time>2020-9-19T13:33:18Z</time></trkpt>
<trkpt lat="46.28250922076404094696044921875" lon="7.43459011428058147430419921875"><ele></ele><time>2020-9-19T13:33:21Z</time></trkpt>
<trkpt lat="46.28252933733165264129638671875" lon="7.43461601436138153076171875"><ele></ele><time>2020-9-19T13:33:24Z</time></trkpt>
<trkpt lat="46.2825507111847400665283203125" lon="7.43463856168091297149658203125"><ele></ele><time>2020-9-19T13:33:27Z</time></trkpt>
<trkpt lat="46.2825714983046054840087890625" lon="7.4346582591533660888671875"><ele></ele><time>2020-9-19T13:33:30Z</time></trkpt>
<trkpt lat="46.2825909443199634552001953125" lon="7.4346797168254852294921875"><ele></ele><time>2020-9-19T13:33:33Z</time></trkpt>
<trkpt lat="46.2826124019920825958251953125" lon="7.43470720946788787841796875"><ele></ele><time>2020-9-19T13:33:36Z</time></trkpt>
<trkpt lat="46.282632350921630859375" lon="7.43472690694034099578857421875"><ele></ele><time>2020-9-19T13:33:39Z</time></trkpt>
<trkpt lat="46.2826524674892425537109375" lon="7.43474886752665042877197265625"><ele></ele><time>2020-9-19T13:33:42Z</time></trkpt>
<trkpt lat="46.28267417661845684051513671875" lon="7.4347694031894207000732421875"><ele></ele><time>2020-9-19T13:33:45Z</time></trkpt>
<trkpt lat="46.2826938740909099578857421875" lon="7.43478901684284210205078125"><ele></ele><time>2020-9-19T13:33:48Z</time></trkpt>
<trkpt lat="46.2827092967927455902099609375" lon="7.43480569683015346527099609375"><ele></ele><time>2020-9-19T13:33:51Z</time></trkpt>
<trkpt lat="46.2827227078378200531005859375" lon="7.4348274059593677520751953125"><ele></ele><time>2020-9-19T13:33:54Z</time></trkpt>
<trkpt lat="46.28273771144449710845947265625" lon="7.4348513782024383544921875"><ele></ele><time>2020-9-19T13:33:57Z</time></trkpt>
<trkpt lat="46.28275497816503047943115234375" lon="7.43487610481679439544677734375"><ele></ele><time>2020-9-19T13:34:0Z</time></trkpt>
<trkpt lat="46.282772161066532135009765625" lon="7.434903346002101898193359375"><ele></ele><time>2020-9-19T13:34:3Z</time></trkpt>
<trkpt lat="46.28278951160609722137451171875" lon="7.43492840789258480072021484375"><ele></ele><time>2020-9-19T13:34:6Z</time></trkpt>
<trkpt lat="46.28280074335634708404541015625" lon="7.43495170958340167999267578125"><ele></ele><time>2020-9-19T13:34:9Z</time></trkpt>
<trkpt lat="46.2828160822391510009765625" lon="7.43497383780777454376220703125"><ele></ele><time>2020-9-19T13:34:12Z</time></trkpt>
<trkpt lat="46.28283477388322353363037109375" lon="7.43499420583248138427734375"><ele></ele><time>2020-9-19T13:34:15Z</time></trkpt>
<trkpt lat="46.28284952603280544281005859375" lon="7.4350131489336490631103515625"><ele></ele><time>2020-9-19T13:34:18Z</time></trkpt>
<trkpt lat="46.2828638590872287750244140625" lon="7.43503821082413196563720703125"><ele></ele><time>2020-9-19T13:34:21Z</time></trkpt>
<trkpt lat="46.282880119979381561279296875" lon="7.43506453000009059906005859375"><ele></ele><time>2020-9-19T13:34:24Z</time></trkpt>
<trkpt lat="46.282892525196075439453125" lon="7.43509017862379550933837890625"><ele></ele><time>2020-9-19T13:34:27Z</time></trkpt>
<trkpt lat="46.2829027511179447174072265625" lon="7.43511767126619815826416015625"><ele></ele><time>2020-9-19T13:34:30Z</time></trkpt>
<trkpt lat="46.2829131446778774261474609375" lon="7.43514172732830047607421875"><ele></ele><time>2020-9-19T13:34:33Z</time></trkpt>
<trkpt lat="46.28292127512395381927490234375" lon="7.43516528047621250152587890625"><ele></ele><time>2020-9-19T13:34:36Z</time></trkpt>
<trkpt lat="46.28293284215033054351806640625" lon="7.43519025854766368865966796875"><ele></ele><time>2020-9-19T13:34:39Z</time></trkpt>
<trkpt lat="46.2829448282718658447265625" lon="7.43521674536168575286865234375"><ele></ele><time>2020-9-19T13:34:42Z</time></trkpt>
<trkpt lat="46.28296427428722381591796875" lon="7.43524231016635894775390625"><ele></ele><time>2020-9-19T13:34:45Z</time></trkpt>
<trkpt lat="46.28298179246485233306884765625" lon="7.4352696351706981658935546875"><ele></ele><time>2020-9-19T13:34:48Z</time></trkpt>
<trkpt lat="46.28299520350992679595947265625" lon="7.43530190549790859222412109375"><ele></ele><time>2020-9-19T13:34:51Z</time></trkpt>
<trkpt lat="46.28300559706985950469970703125" lon="7.43533191271126270294189453125"><ele></ele><time>2020-9-19T13:34:54Z</time></trkpt>
<trkpt lat="46.28301364369690418243408203125" lon="7.43536409921944141387939453125"><ele></ele><time>2020-9-19T13:34:57Z</time></trkpt>
<trkpt lat="46.28302269615232944488525390625" lon="7.43539092130959033966064453125"><ele></ele><time>2020-9-19T13:35:0Z</time></trkpt>
<trkpt lat="46.2830341793596744537353515625" lon="7.4354228563606739044189453125"><ele></ele><time>2020-9-19T13:35:3Z</time></trkpt>
<trkpt lat="46.283051781356334686279296875" lon="7.4354577250778675079345703125"><ele></ele><time>2020-9-19T13:35:6Z</time></trkpt>
<trkpt lat="46.283067874610424041748046875" lon="7.43549468927085399627685546875"><ele></ele><time>2020-9-19T13:35:9Z</time></trkpt>
<trkpt lat="46.28308690153062343597412109375" lon="7.4355299770832061767578125"><ele></ele><time>2020-9-19T13:35:12Z</time></trkpt>
<trkpt lat="46.28310601226985454559326171875" lon="7.43555906228721141815185546875"><ele></ele><time>2020-9-19T13:35:15Z</time></trkpt>
<trkpt lat="46.28313283436000347137451171875" lon="7.43557901121675968170166015625"><ele></ele><time>2020-9-19T13:35:18Z</time></trkpt>
<trkpt lat="46.28315982408821582794189453125" lon="7.4355874769389629364013671875"><ele></ele><time>2020-9-19T13:35:21Z</time></trkpt>
<trkpt lat="46.283192597329616546630859375" lon="7.43558697402477264404296875"><ele></ele><time>2020-9-19T13:35:24Z</time></trkpt>
<trkpt lat="46.28321330063045024871826171875" lon="7.43557666428387165069580078125"><ele></ele><time>2020-9-19T13:35:27Z</time></trkpt>
<trkpt lat="46.28323115408420562744140625" lon="7.43555353023111820220947265625"><ele></ele><time>2020-9-19T13:35:30Z</time></trkpt>
<trkpt lat="46.28324548713862895965576171875" lon="7.43551991879940032958984375"><ele></ele><time>2020-9-19T13:35:33Z</time></trkpt>
<trkpt lat="46.2832561321556568145751953125" lon="7.4354801885783672332763671875"><ele></ele><time>2020-9-19T13:35:36Z</time></trkpt>
<trkpt lat="46.28326795063912868499755859375" lon="7.43544272147119045257568359375"><ele></ele><time>2020-9-19T13:35:39Z</time></trkpt>
<trkpt lat="46.28328169696033000946044921875" lon="7.43540567345917224884033203125"><ele></ele><time>2020-9-19T13:35:42Z</time></trkpt>
<trkpt lat="46.28329242579638957977294921875" lon="7.43537130765616893768310546875"><ele></ele><time>2020-9-19T13:35:45Z</time></trkpt>
<trkpt lat="46.283305920660495758056640625" lon="7.4353363551199436187744140625"><ele></ele><time>2020-9-19T13:35:48Z</time></trkpt>
<trkpt lat="46.28331488929688930511474609375" lon="7.435296960175037384033203125"><ele></ele><time>2020-9-19T13:35:51Z</time></trkpt>
<trkpt lat="46.283326037228107452392578125" lon="7.435258068144321441650390625"><ele></ele><time>2020-9-19T13:35:54Z</time></trkpt>
<trkpt lat="46.28333500586450099945068359375" lon="7.43521121330559253692626953125"><ele></ele><time>2020-9-19T13:35:57Z</time></trkpt>
<trkpt lat="46.28334992565214633941650390625" lon="7.43516226299107074737548828125"><ele></ele><time>2020-9-19T13:36:0Z</time></trkpt>
<trkpt lat="46.28337155096232891082763671875" lon="7.43511758744716644287109375"><ele></ele><time>2020-9-19T13:36:3Z</time></trkpt>
<trkpt lat="46.28339049406349658966064453125" lon="7.435077689588069915771484375"><ele></ele><time>2020-9-19T13:36:6Z</time></trkpt>
<trkpt lat="46.2834076769649982452392578125" lon="7.43503846228122711181640625"><ele></ele><time>2020-9-19T13:36:9Z</time></trkpt>
<trkpt lat="46.2834271229803562164306640625" lon="7.4350004084408283233642578125"><ele></ele><time>2020-9-19T13:36:12Z</time></trkpt>
<trkpt lat="46.28344732336699962615966796875" lon="7.4349675513803958892822265625"><ele></ele><time>2020-9-19T13:36:15Z</time></trkpt>
<trkpt lat="46.28346861340105533599853515625" lon="7.43493360467255115509033203125"><ele></ele><time>2020-9-19T13:36:18Z</time></trkpt>
<trkpt lat="46.28348956815898418426513671875" lon="7.43490125052630901336669921875"><ele></ele><time>2020-9-19T13:36:21Z</time></trkpt>
<trkpt lat="46.283512450754642486572265625" lon="7.43487040512263774871826171875"><ele></ele><time>2020-9-19T13:36:24Z</time></trkpt>
<trkpt lat="46.283537261188030242919921875" lon="7.43484039790928363800048828125"><ele></ele><time>2020-9-19T13:36:27Z</time></trkpt>
<trkpt lat="46.28356567583978176116943359375" lon="7.4348126538097858428955078125"><ele></ele><time>2020-9-19T13:36:30Z</time></trkpt>
<trkpt lat="46.283594928681850433349609375" lon="7.4347881786525249481201171875"><ele></ele><time>2020-9-19T13:36:33Z</time></trkpt>
<trkpt lat="46.2836261093616485595703125" lon="7.43476680479943752288818359375"><ele></ele><time>2020-9-19T13:36:36Z</time></trkpt>
<trkpt lat="46.28365804441273212432861328125" lon="7.4347455985844135284423828125"><ele></ele><time>2020-9-19T13:36:39Z</time></trkpt>
<trkpt lat="46.28368914127349853515625" lon="7.43472606875002384185791015625"><ele></ele><time>2020-9-19T13:36:42Z</time></trkpt>
<trkpt lat="46.28372065722942352294921875" lon="7.43470964021980762481689453125"><ele></ele><time>2020-9-19T13:36:45Z</time></trkpt>
<trkpt lat="46.2837526760995388031005859375" lon="7.43469488807022571563720703125"><ele></ele><time>2020-9-19T13:36:48Z</time></trkpt>
<trkpt lat="46.283786036074161529541015625" lon="7.4346845783293247222900390625"><ele></ele><time>2020-9-19T13:36:51Z</time></trkpt>
<trkpt lat="46.28381880931556224822998046875" lon="7.43467426858842372894287109375"><ele></ele><time>2020-9-19T13:36:54Z</time></trkpt>
<trkpt lat="46.28384948708117008209228515625" lon="7.434663958847522735595703125"><ele></ele><time>2020-9-19T13:36:57Z</time></trkpt>
<trkpt lat="46.2838797457516193389892578125" lon="7.43465750478208065032958984375"><ele></ele><time>2020-9-19T13:37:0Z</time></trkpt>
<trkpt lat="46.2839102558791637420654296875" lon="7.4346544034779071807861328125"><ele></ele><time>2020-9-19T13:37:3Z</time></trkpt>
<trkpt lat="46.2839672528207302093505859375" lon="7.43464644066989421844482421875"><ele></ele><time>2020-9-19T13:37:6Z</time></trkpt>
<trkpt lat="46.28399692475795745849609375" lon="7.4346470274031162261962890625"><ele></ele><time>2020-9-19T13:37:9Z</time></trkpt>
<trkpt lat="46.28402852453291416168212890625" lon="7.4346523918211460113525390625"><ele></ele><time>2020-9-19T13:37:12Z</time></trkpt>
<trkpt lat="46.2840591184794902801513671875" lon="7.43465934880077838897705078125"><ele></ele><time>2020-9-19T13:37:15Z</time></trkpt>
<trkpt lat="46.28408887423574924468994140625" lon="7.43467032909393310546875"><ele></ele><time>2020-9-19T13:37:18Z</time></trkpt>
<trkpt lat="46.2841187976300716400146484375" lon="7.43468818254768848419189453125"><ele></ele><time>2020-9-19T13:37:21Z</time></trkpt>
<trkpt lat="46.28414922393858432769775390625" lon="7.43470913730561733245849609375"><ele></ele><time>2020-9-19T13:37:24Z</time></trkpt>
<trkpt lat="46.28417688421905040740966796875" lon="7.43473361246287822723388671875"><ele></ele><time>2020-9-19T13:37:27Z</time></trkpt>
<trkpt lat="46.28420186229050159454345703125" lon="7.4347613565623760223388671875"><ele></ele><time>2020-9-19T13:37:30Z</time></trkpt>
<trkpt lat="46.28422566689550876617431640625" lon="7.4347898550331592559814453125"><ele></ele><time>2020-9-19T13:37:33Z</time></trkpt>
<trkpt lat="46.28424947150051593780517578125" lon="7.4348207004368305206298828125"><ele></ele><time>2020-9-19T13:37:36Z</time></trkpt>
<trkpt lat="46.2842740304768085479736328125" lon="7.43485112674534320831298828125"><ele></ele><time>2020-9-19T13:37:39Z</time></trkpt>
<trkpt lat="46.28429825417697429656982421875" lon="7.43488063104450702667236328125"><ele></ele><time>2020-9-19T13:37:42Z</time></trkpt>
<trkpt lat="46.2843219749629497528076171875" lon="7.43490946479141712188720703125"><ele></ele><time>2020-9-19T13:37:45Z</time></trkpt>
<trkpt lat="46.284345947206020355224609375" lon="7.4349380470812320709228515625"><ele></ele><time>2020-9-19T13:37:48Z</time></trkpt>
<trkpt lat="46.2843689136207103729248046875" lon="7.43496394716203212738037109375"><ele></ele><time>2020-9-19T13:37:51Z</time></trkpt>
<trkpt lat="46.28439179621636867523193359375" lon="7.4349886737763881683349609375"><ele></ele><time>2020-9-19T13:37:54Z</time></trkpt>
<trkpt lat="46.28441677428781986236572265625" lon="7.4350121431052684783935546875"><ele></ele><time>2020-9-19T13:37:57Z</time></trkpt>
<trkpt lat="46.28444242291152477264404296875" lon="7.43503309786319732666015625"><ele></ele><time>2020-9-19T13:38:0Z</time></trkpt>
<trkpt lat="46.28446840681135654449462890625" lon="7.43505313061177730560302734375"><ele></ele><time>2020-9-19T13:38:3Z</time></trkpt>
<trkpt lat="46.2844953127205371856689453125" lon="7.43507190607488155364990234375"><ele></ele><time>2020-9-19T13:38:6Z</time></trkpt>
<trkpt lat="46.28452087752521038055419921875" lon="7.4350909329950809478759765625"><ele></ele><time>2020-9-19T13:38:9Z</time></trkpt>
<trkpt lat="46.28454552032053470611572265625" lon="7.4351115524768829345703125"><ele></ele><time>2020-9-19T13:38:12Z</time></trkpt>
<trkpt lat="46.28457100130617618560791015625" lon="7.435133345425128936767578125"><ele></ele><time>2020-9-19T13:38:15Z</time></trkpt>
<trkpt lat="46.284596733748912811279296875" lon="7.43515253998339176177978515625"><ele></ele><time>2020-9-19T13:38:18Z</time></trkpt>
<trkpt lat="46.284621544182300567626953125" lon="7.43517198599874973297119140625"><ele></ele><time>2020-9-19T13:38:21Z</time></trkpt>
<trkpt lat="46.28464601933956146240234375" lon="7.43518958799540996551513671875"><ele></ele><time>2020-9-19T13:38:24Z</time></trkpt>
<trkpt lat="46.284671165049076080322265625" lon="7.4352054297924041748046875"><ele></ele><time>2020-9-19T13:38:27Z</time></trkpt>
<trkpt lat="46.28469572402536869049072265625" lon="7.4352223612368106842041015625"><ele></ele><time>2020-9-19T13:38:30Z</time></trkpt>
<trkpt lat="46.28471902571618556976318359375" lon="7.4352404661476612091064453125"><ele></ele><time>2020-9-19T13:38:33Z</time></trkpt>
<trkpt lat="46.28474257886409759521484375" lon="7.43526049889624118804931640625"><ele></ele><time>2020-9-19T13:38:36Z</time></trkpt>
<trkpt lat="46.2847660481929779052734375" lon="7.43528162129223346710205078125"><ele></ele><time>2020-9-19T13:38:39Z</time></trkpt>
<trkpt lat="46.28478943370282649993896484375" lon="7.43530240841209888458251953125"><ele></ele><time>2020-9-19T13:38:42Z</time></trkpt>
<trkpt lat="46.28481323830783367156982421875" lon="7.4353226087987422943115234375"><ele></ele><time>2020-9-19T13:38:45Z</time></trkpt>
<trkpt lat="46.284837462007999420166015625" lon="7.43534088134765625"><ele></ele><time>2020-9-19T13:38:48Z</time></trkpt>
<trkpt lat="46.28486151807010173797607421875" lon="7.43535940535366535186767578125"><ele></ele><time>2020-9-19T13:38:51Z</time></trkpt>
<trkpt lat="46.284886412322521209716796875" lon="7.43537885136902332305908203125"><ele></ele><time>2020-9-19T13:38:54Z</time></trkpt>
<trkpt lat="46.28491097129881381988525390625" lon="7.43539611808955669403076171875"><ele></ele><time>2020-9-19T13:38:57Z</time></trkpt>
<trkpt lat="46.284936033189296722412109375" lon="7.4354148097336292266845703125"><ele></ele><time>2020-9-19T13:39:0Z</time></trkpt>
<trkpt lat="46.2849606759846210479736328125" lon="7.43543333373963832855224609375"><ele></ele><time>2020-9-19T13:39:3Z</time></trkpt>
<trkpt lat="46.28498397767543792724609375" lon="7.43545060046017169952392578125"><ele></ele><time>2020-9-19T13:39:6Z</time></trkpt>
<trkpt lat="46.28500803373754024505615234375" lon="7.43546962738037109375"><ele></ele><time>2020-9-19T13:39:9Z</time></trkpt>
<trkpt lat="46.2850314192473888397216796875" lon="7.43548697791993618011474609375"><ele></ele><time>2020-9-19T13:39:12Z</time></trkpt>
<trkpt lat="46.28505664877593517303466796875" lon="7.43550382554531097412109375"><ele></ele><time>2020-9-19T13:39:15Z</time></trkpt>
<trkpt lat="46.28508129157125949859619140625" lon="7.43551933206617832183837890625"><ele></ele><time>2020-9-19T13:39:18Z</time></trkpt>
<trkpt lat="46.28510526381433010101318359375" lon="7.43553601205348968505859375"><ele></ele><time>2020-9-19T13:39:21Z</time></trkpt>
<trkpt lat="46.2851279787719249725341796875" lon="7.43554715998470783233642578125"><ele></ele><time>2020-9-19T13:39:24Z</time></trkpt>
<trkpt lat="46.28515136428177356719970703125" lon="7.4355594813823699951171875"><ele></ele><time>2020-9-19T13:39:27Z</time></trkpt>
<trkpt lat="46.28517416305840015411376953125" lon="7.4355747364461421966552734375"><ele></ele><time>2020-9-19T13:39:30Z</time></trkpt>
<trkpt lat="46.28519712947309017181396484375" lon="7.435589320957660675048828125"><ele></ele><time>2020-9-19T13:39:33Z</time></trkpt>
<trkpt lat="46.2852188386023044586181640625" lon="7.4356028996407985687255859375"><ele></ele><time>2020-9-19T13:39:36Z</time></trkpt>
<trkpt lat="46.28524054773151874542236328125" lon="7.435615472495555877685546875"><ele></ele><time>2020-9-19T13:39:39Z</time></trkpt>
<trkpt lat="46.2852620892226696014404296875" lon="7.43562678806483745574951171875"><ele></ele><time>2020-9-19T13:39:42Z</time></trkpt>
<trkpt lat="46.28528363071382045745849609375" lon="7.435638606548309326171875"><ele></ele><time>2020-9-19T13:39:45Z</time></trkpt>
<trkpt lat="46.28529913723468780517578125" lon="7.435646317899227142333984375"><ele></ele><time>2020-9-19T13:39:48Z</time></trkpt>
<trkpt lat="46.28531263209879398345947265625" lon="7.4356588907539844512939453125"><ele></ele><time>2020-9-19T13:39:51Z</time></trkpt>
<trkpt lat="46.2853291444480419158935546875" lon="7.43567255325615406036376953125"><ele></ele><time>2020-9-19T13:39:54Z</time></trkpt>
<trkpt lat="46.285346411168575286865234375" lon="7.43568194098770618438720703125"><ele></ele><time>2020-9-19T13:39:57Z</time></trkpt>
<trkpt lat="46.28536744974553585052490234375" lon="7.43569049052894115447998046875"><ele></ele><time>2020-9-19T13:40:0Z</time></trkpt>
<trkpt lat="46.28539326600730419158935546875" lon="7.43569216690957546234130859375"><ele></ele><time>2020-9-19T13:40:3Z</time></trkpt>
<trkpt lat="46.28541656769812107086181640625" lon="7.4356850422918796539306640625"><ele></ele><time>2020-9-19T13:40:6Z</time></trkpt>
<trkpt lat="46.2854334153234958648681640625" lon="7.4356689490377902984619140625"><ele></ele><time>2020-9-19T13:40:9Z</time></trkpt>
<trkpt lat="46.285441629588603973388671875" lon="7.43564464151859283447265625"><ele></ele><time>2020-9-19T13:40:12Z</time></trkpt>
<trkpt lat="46.28544665873050689697265625" lon="7.43561371229588985443115234375"><ele></ele><time>2020-9-19T13:40:15Z</time></trkpt>
<trkpt lat="46.28544934093952178955078125" lon="7.43558186106383800506591796875"><ele></ele><time>2020-9-19T13:40:18Z</time></trkpt>
<trkpt lat="46.285446994006633758544921875" lon="7.43554632179439067840576171875"><ele></ele><time>2020-9-19T13:40:21Z</time></trkpt>
<trkpt lat="46.2854454852640628814697265625" lon="7.4355110339820384979248046875"><ele></ele><time>2020-9-19T13:40:24Z</time></trkpt>
<trkpt lat="46.28544489853084087371826171875" lon="7.4354761652648448944091796875"><ele></ele><time>2020-9-19T13:40:27Z</time></trkpt>
<trkpt lat="46.285444311797618865966796875" lon="7.435445822775363922119140625"><ele></ele><time>2020-9-19T13:40:30Z</time></trkpt>
<trkpt lat="46.285440288484096527099609375" lon="7.43541372008621692657470703125"><ele></ele><time>2020-9-19T13:40:33Z</time></trkpt>
<trkpt lat="46.2854384444653987884521484375" lon="7.4353819526731967926025390625"><ele></ele><time>2020-9-19T13:40:36Z</time></trkpt>
<trkpt lat="46.285437606275081634521484375" lon="7.435348592698574066162109375"><ele></ele><time>2020-9-19T13:40:39Z</time></trkpt>
<trkpt lat="46.28543718717992305755615234375" lon="7.43531405925750732421875"><ele></ele><time>2020-9-19T13:40:42Z</time></trkpt>
<trkpt lat="46.28544020466506481170654296875" lon="7.43528413586318492889404296875"><ele></ele><time>2020-9-19T13:40:45Z</time></trkpt>
<trkpt lat="46.28544171340763568878173828125" lon="7.43525546975433826446533203125"><ele></ele><time>2020-9-19T13:40:48Z</time></trkpt>
<trkpt lat="46.28544154576957225799560546875" lon="7.435227222740650177001953125"><ele></ele><time>2020-9-19T13:40:51Z</time></trkpt>
<trkpt lat="46.2854421325027942657470703125" lon="7.435195706784725189208984375"><ele></ele><time>2020-9-19T13:40:54Z</time></trkpt>
<trkpt lat="46.28544406034052371978759765625" lon="7.43516276590526103973388671875"><ele></ele><time>2020-9-19T13:40:57Z</time></trkpt>
<trkpt lat="46.285445988178253173828125" lon="7.43513175286352634429931640625"><ele></ele><time>2020-9-19T13:41:0Z</time></trkpt>
<trkpt lat="46.28544665873050689697265625" lon="7.435098476707935333251953125"><ele></ele><time>2020-9-19T13:41:3Z</time></trkpt>
<trkpt lat="46.28544590435922145843505859375" lon="7.4350631050765514373779296875"><ele></ele><time>2020-9-19T13:41:6Z</time></trkpt>
<trkpt lat="46.2854446470737457275390625" lon="7.43502647615969181060791015625"><ele></ele><time>2020-9-19T13:41:9Z</time></trkpt>
<trkpt lat="46.2854498438537120819091796875" lon="7.43499378673732280731201171875"><ele></ele><time>2020-9-19T13:41:12Z</time></trkpt>
<trkpt lat="46.28545939922332763671875" lon="7.43496042676270008087158203125"><ele></ele><time>2020-9-19T13:41:15Z</time></trkpt>
<trkpt lat="46.2854733131825923919677734375" lon="7.4349291622638702392578125"><ele></ele><time>2020-9-19T13:41:18Z</time></trkpt>
<trkpt lat="46.2854904122650623321533203125" lon="7.43490175344049930572509765625"><ele></ele><time>2020-9-19T13:41:21Z</time></trkpt>
<trkpt lat="46.28551044501364231109619140625" lon="7.4348709918558597564697265625"><ele></ele><time>2020-9-19T13:41:24Z</time></trkpt>
<trkpt lat="46.28553190268576145172119140625" lon="7.4348433315753936767578125"><ele></ele><time>2020-9-19T13:41:27Z</time></trkpt>
<trkpt lat="46.28555553965270519256591796875" lon="7.4348163418471813201904296875"><ele></ele><time>2020-9-19T13:41:30Z</time></trkpt>
<trkpt lat="46.285580433905124664306640625" lon="7.434791028499603271484375"><ele></ele><time>2020-9-19T13:41:33Z</time></trkpt>
<trkpt lat="46.28560432232916355133056640625" lon="7.43477166630327701568603515625"><ele></ele><time>2020-9-19T13:41:36Z</time></trkpt>
<trkpt lat="46.2856302224099636077880859375" lon="7.43475993163883686065673828125"><ele></ele><time>2020-9-19T13:41:39Z</time></trkpt>
<trkpt lat="46.2856553681194782257080078125" lon="7.43474853225052356719970703125"><ele></ele><time>2020-9-19T13:41:42Z</time></trkpt>
<trkpt lat="46.28567908890545368194580078125" lon="7.4347335286438465118408203125"><ele></ele><time>2020-9-19T13:41:45Z</time></trkpt>
<trkpt lat="46.28570222295820713043212890625" lon="7.43471751920878887176513671875"><ele></ele><time>2020-9-19T13:41:48Z</time></trkpt>
<trkpt lat="46.28572560846805572509765625" lon="7.43470360524952411651611328125"><ele></ele><time>2020-9-19T13:41:51Z</time></trkpt>
<trkpt lat="46.28574916161596775054931640625" lon="7.434690780937671661376953125"><ele></ele><time>2020-9-19T13:41:54Z</time></trkpt>
<trkpt lat="46.285773552954196929931640625" lon="7.43467913009226322174072265625"><ele></ele><time>2020-9-19T13:41:57Z</time></trkpt>
<trkpt lat="46.28579827956855297088623046875" lon="7.434666641056537628173828125"><ele></ele><time>2020-9-19T13:42:0Z</time></trkpt>
<trkpt lat="46.28582342527806758880615234375" lon="7.43465532548725605010986328125"><ele></ele><time>2020-9-19T13:42:3Z</time></trkpt>
<trkpt lat="46.28584773279726505279541015625" lon="7.43464543484151363372802734375"><ele></ele><time>2020-9-19T13:42:6Z</time></trkpt>
<trkpt lat="46.28587120212614536285400390625" lon="7.4346373043954372406005859375"><ele></ele><time>2020-9-19T13:42:9Z</time></trkpt>
<trkpt lat="46.28589433617889881134033203125" lon="7.43463001213967800140380859375"><ele></ele><time>2020-9-19T13:42:12Z</time></trkpt>
<trkpt lat="46.2859158776700496673583984375" lon="7.4346218816936016082763671875"><ele></ele><time>2020-9-19T13:42:15Z</time></trkpt>
<trkpt lat="46.2859381735324859619140625" lon="7.43461324833333492279052734375"><ele></ele><time>2020-9-19T13:42:18Z</time></trkpt>
<trkpt lat="46.28596139140427112579345703125" lon="7.4346051178872585296630859375"><ele></ele><time>2020-9-19T13:42:21Z</time></trkpt>
<trkpt lat="46.28598511219024658203125" lon="7.4345965683460235595703125"><ele></ele><time>2020-9-19T13:42:24Z</time></trkpt>
<trkpt lat="46.28600858151912689208984375" lon="7.4345860071480274200439453125"><ele></ele><time>2020-9-19T13:42:27Z</time></trkpt>
<trkpt lat="46.286031715571880340576171875" lon="7.43457469157874584197998046875"><ele></ele><time>2020-9-19T13:42:30Z</time></trkpt>
<trkpt lat="46.28605359233915805816650390625" lon="7.43456413038074970245361328125"><ele></ele><time>2020-9-19T13:42:33Z</time></trkpt>
<trkpt lat="46.28607555292546749114990234375" lon="7.43455491028726100921630859375"><ele></ele><time>2020-9-19T13:42:36Z</time></trkpt>
<trkpt lat="46.28609709441661834716796875" lon="7.43454770185053348541259765625"><ele></ele><time>2020-9-19T13:42:39Z</time></trkpt>
<trkpt lat="46.2861187197268009185791015625" lon="7.434537224471569061279296875"><ele></ele><time>2020-9-19T13:42:42Z</time></trkpt>
<trkpt lat="46.28613866865634918212890625" lon="7.43452356196939945220947265625"><ele></ele><time>2020-9-19T13:42:45Z</time></trkpt>
<trkpt lat="46.28615886904299259185791015625" lon="7.4345098994672298431396484375"><ele></ele><time>2020-9-19T13:42:48Z</time></trkpt>
<trkpt lat="46.28617890179157257080078125" lon="7.43449623696506023406982421875"><ele></ele><time>2020-9-19T13:42:51Z</time></trkpt>
<trkpt lat="46.2861998565495014190673828125" lon="7.43448324501514434814453125"><ele></ele><time>2020-9-19T13:42:54Z</time></trkpt>
<trkpt lat="46.2862219847738742828369140625" lon="7.4344700016081333160400390625"><ele></ele><time>2020-9-19T13:42:57Z</time></trkpt>
<trkpt lat="46.28624461591243743896484375" lon="7.43445700965821743011474609375"><ele></ele><time>2020-9-19T13:43:0Z</time></trkpt>
<trkpt lat="46.2862665764987468719482421875" lon="7.4344418384134769439697265625"><ele></ele><time>2020-9-19T13:43:3Z</time></trkpt>
<trkpt lat="46.28628727979958057403564453125" lon="7.43442448787391185760498046875"><ele></ele><time>2020-9-19T13:43:6Z</time></trkpt>
<trkpt lat="46.28630789928138256072998046875" lon="7.4344062991440296173095703125"><ele></ele><time>2020-9-19T13:43:9Z</time></trkpt>
<trkpt lat="46.28632851876318454742431640625" lon="7.43438760749995708465576171875"><ele></ele><time>2020-9-19T13:43:12Z</time></trkpt>
<trkpt lat="46.28634947352111339569091796875" lon="7.43437067605555057525634765625"><ele></ele><time>2020-9-19T13:43:15Z</time></trkpt>
<trkpt lat="46.2863708473742008209228515625" lon="7.43435307405889034271240234375"><ele></ele><time>2020-9-19T13:43:18Z</time></trkpt>
<trkpt lat="46.2863916344940662384033203125" lon="7.43433262221515178680419921875"><ele></ele><time>2020-9-19T13:43:21Z</time></trkpt>
<trkpt lat="46.2864124216139316558837890625" lon="7.434311918914318084716796875"><ele></ele><time>2020-9-19T13:43:24Z</time></trkpt>
<trkpt lat="46.286433376371860504150390625" lon="7.434292137622833251953125"><ele></ele><time>2020-9-19T13:43:27Z</time></trkpt>
<trkpt lat="46.28645407967269420623779296875" lon="7.434273697435855865478515625"><ele></ele><time>2020-9-19T13:43:30Z</time></trkpt>
<trkpt lat="46.28647503443062305450439453125" lon="7.43425634689629077911376953125"><ele></ele><time>2020-9-19T13:43:33Z</time></trkpt>
<trkpt lat="46.2864959053695201873779296875" lon="7.4342398345470428466796875"><ele></ele><time>2020-9-19T13:43:36Z</time></trkpt>
<trkpt lat="46.2865161895751953125" lon="7.434223406016826629638671875"><ele></ele><time>2020-9-19T13:43:39Z</time></trkpt>
<trkpt lat="46.2865368090569972991943359375" lon="7.43420689366757869720458984375"><ele></ele><time>2020-9-19T13:43:42Z</time></trkpt>
<trkpt lat="46.28655851818621158599853515625" lon="7.43419096805155277252197265625"><ele></ele><time>2020-9-19T13:43:45Z</time></trkpt>
<trkpt lat="46.2865800596773624420166015625" lon="7.4341766349971294403076171875"><ele></ele><time>2020-9-19T13:43:48Z</time></trkpt>
<trkpt lat="46.2866015173494815826416015625" lon="7.43416431359946727752685546875"><ele></ele><time>2020-9-19T13:43:51Z</time></trkpt>
<trkpt lat="46.286624483764171600341796875" lon="7.4341548420488834381103515625"><ele></ele><time>2020-9-19T13:43:54Z</time></trkpt>
<trkpt lat="46.2866484560072422027587890625" lon="7.43414654396474361419677734375"><ele></ele><time>2020-9-19T13:43:57Z</time></trkpt>
<trkpt lat="46.28667200915515422821044921875" lon="7.43413950316607952117919921875"><ele></ele><time>2020-9-19T13:44:0Z</time></trkpt>
<trkpt lat="46.2866953946650028228759765625" lon="7.43413330055773258209228515625"><ele></ele><time>2020-9-19T13:44:3Z</time></trkpt>
<trkpt lat="46.28671743907034397125244140625" lon="7.43412843905389308929443359375"><ele></ele><time>2020-9-19T13:44:6Z</time></trkpt>
<trkpt lat="46.28673889674246311187744140625" lon="7.434122152626514434814453125"><ele></ele><time>2020-9-19T13:44:9Z</time></trkpt>
<trkpt lat="46.28676035441458225250244140625" lon="7.43411620147526264190673828125"><ele></ele><time>2020-9-19T13:44:12Z</time></trkpt>
<trkpt lat="46.28678239881992340087890625" lon="7.434113435447216033935546875"><ele></ele><time>2020-9-19T13:44:15Z</time></trkpt>
<trkpt lat="46.286804191768169403076171875" lon="7.4341119267046451568603515625"><ele></ele><time>2020-9-19T13:44:18Z</time></trkpt>
<trkpt lat="46.28682573325932025909423828125" lon="7.43411217816174030303955078125"><ele></ele><time>2020-9-19T13:44:21Z</time></trkpt>
<trkpt lat="46.2868472747504711151123046875" lon="7.43411402218043804168701171875"><ele></ele><time>2020-9-19T13:44:24Z</time></trkpt>
<trkpt lat="46.2868689000606536865234375" lon="7.4341149441897869110107421875"><ele></ele><time>2020-9-19T13:44:27Z</time></trkpt>
<trkpt lat="46.28688977099955081939697265625" lon="7.43411452509462833404541015625"><ele></ele><time>2020-9-19T13:44:30Z</time></trkpt>
<trkpt lat="46.2869113124907016754150390625" lon="7.4341132678091526031494140625"><ele></ele><time>2020-9-19T13:44:33Z</time></trkpt>
<trkpt lat="46.28693302161991596221923828125" lon="7.43411217816174030303955078125"><ele></ele><time>2020-9-19T13:44:36Z</time></trkpt>
<trkpt lat="46.2869542278349399566650390625" lon="7.434110753238201141357421875"><ele></ele><time>2020-9-19T13:44:39Z</time></trkpt>
<trkpt lat="46.28697543404996395111083984375" lon="7.43410999886691570281982421875"><ele></ele><time>2020-9-19T13:44:42Z</time></trkpt>
<trkpt lat="46.2869961373507976531982421875" lon="7.4341105856001377105712890625"><ele></ele><time>2020-9-19T13:44:45Z</time></trkpt>
<trkpt lat="46.28701650537550449371337890625" lon="7.4341109208762645721435546875"><ele></ele><time>2020-9-19T13:44:48Z</time></trkpt>
<trkpt lat="46.28703712485730648040771484375" lon="7.434109747409820556640625"><ele></ele><time>2020-9-19T13:44:51Z</time></trkpt>
<trkpt lat="46.2870566546916961669921875" lon="7.4341102503240108489990234375"><ele></ele><time>2020-9-19T13:44:54Z</time></trkpt>
<trkpt lat="46.28707635216414928436279296875" lon="7.434109747409820556640625"><ele></ele><time>2020-9-19T13:44:57Z</time></trkpt>
<trkpt lat="46.2870947085320949554443359375" lon="7.4341075681149959564208984375"><ele></ele><time>2020-9-19T13:45:0Z</time></trkpt>
<trkpt lat="46.28711205907166004180908203125" lon="7.4341072328388690948486328125"><ele></ele><time>2020-9-19T13:45:3Z</time></trkpt>
<trkpt lat="46.287130415439605712890625" lon="7.43410312570631504058837890625"><ele></ele><time>2020-9-19T13:45:6Z</time></trkpt>
<trkpt lat="46.28715078346431255340576171875" lon="7.43409566581249237060546875"><ele></ele><time>2020-9-19T13:45:9Z</time></trkpt>
<trkpt lat="46.2871706485748291015625" lon="7.43408686481416225433349609375"><ele></ele><time>2020-9-19T13:45:12Z</time></trkpt>
<trkpt lat="46.287189424037933349609375" lon="7.4340762197971343994140625"><ele></ele><time>2020-9-19T13:45:15Z</time></trkpt>
<trkpt lat="46.2872068583965301513671875" lon="7.43406456895172595977783203125"><ele></ele><time>2020-9-19T13:45:18Z</time></trkpt>
<trkpt lat="46.287223957479000091552734375" lon="7.43405384011566638946533203125"><ele></ele><time>2020-9-19T13:45:21Z</time></trkpt>
<trkpt lat="46.28724248148500919342041015625" lon="7.43404344655573368072509765625"><ele></ele><time>2020-9-19T13:45:24Z</time></trkpt>
<trkpt lat="46.287261508405208587646484375" lon="7.43403221480548381805419921875"><ele></ele><time>2020-9-19T13:45:27Z</time></trkpt>
<trkpt lat="46.28727994859218597412109375" lon="7.4340212345123291015625"><ele></ele><time>2020-9-19T13:45:30Z</time></trkpt>
<trkpt lat="46.2872995622456073760986328125" lon="7.43400706909596920013427734375"><ele></ele><time>2020-9-19T13:45:33Z</time></trkpt>
<trkpt lat="46.28731976263225078582763671875" lon="7.43399164639413356781005859375"><ele></ele><time>2020-9-19T13:45:36Z</time></trkpt>
<trkpt lat="46.28733987919986248016357421875" lon="7.433976642787456512451171875"><ele></ele><time>2020-9-19T13:45:39Z</time></trkpt>
<trkpt lat="46.2873609177768230438232421875" lon="7.4339627288281917572021484375"><ele></ele><time>2020-9-19T13:45:42Z</time></trkpt>
<trkpt lat="46.28738245926797389984130859375" lon="7.43395225144922733306884765625"><ele></ele><time>2020-9-19T13:45:45Z</time></trkpt>
<trkpt lat="46.28740333020687103271484375" lon="7.4339402653276920318603515625"><ele></ele><time>2020-9-19T13:45:48Z</time></trkpt>
<trkpt lat="46.28742369823157787322998046875" lon="7.43393012322485446929931640625"><ele></ele><time>2020-9-19T13:45:51Z</time></trkpt>
<trkpt lat="46.28744431771337985992431640625" lon="7.43392107076942920684814453125"><ele></ele><time>2020-9-19T13:45:54Z</time></trkpt>
<trkpt lat="46.28746560774743556976318359375" lon="7.43391134776175022125244140625"><ele></ele><time>2020-9-19T13:45:57Z</time></trkpt>
<trkpt lat="46.28748790360987186431884765625" lon="7.433907575905323028564453125"><ele></ele><time>2020-9-19T13:46:0Z</time></trkpt>
<trkpt lat="46.2875104509294033050537109375" lon="7.4339000321924686431884765625"><ele></ele><time>2020-9-19T13:46:3Z</time></trkpt>
<trkpt lat="46.28753316588699817657470703125" lon="7.43389575742185115814208984375"><ele></ele><time>2020-9-19T13:46:6Z</time></trkpt>
<trkpt lat="46.2875555455684661865234375" lon="7.433895170688629150390625"><ele></ele><time>2020-9-19T13:46:9Z</time></trkpt>
<trkpt lat="46.2875770032405853271484375" lon="7.43389693088829517364501953125"><ele></ele><time>2020-9-19T13:46:12Z</time></trkpt>
<trkpt lat="46.28759787417948246002197265625" lon="7.433896847069263458251953125"><ele></ele><time>2020-9-19T13:46:15Z</time></trkpt>
<trkpt lat="46.2876180745661258697509765625" lon="7.433896176517009735107421875"><ele></ele><time>2020-9-19T13:46:18Z</time></trkpt>
<trkpt lat="46.28763735294342041015625" lon="7.4338966794312000274658203125"><ele></ele><time>2020-9-19T13:46:21Z</time></trkpt>
<trkpt lat="46.2876569665968418121337890625" lon="7.433898858726024627685546875"><ele></ele><time>2020-9-19T13:46:24Z</time></trkpt>
<trkpt lat="46.28767716698348522186279296875" lon="7.43390179239213466644287109375"><ele></ele><time>2020-9-19T13:46:27Z</time></trkpt>
<trkpt lat="46.2876978702843189239501953125" lon="7.43390564806759357452392578125"><ele></ele><time>2020-9-19T13:46:30Z</time></trkpt>
<trkpt lat="46.287718154489994049072265625" lon="7.4339090846478939056396484375"><ele></ele><time>2020-9-19T13:46:33Z</time></trkpt>
<trkpt lat="46.28773801960051059722900390625" lon="7.43391252122819423675537109375"><ele></ele><time>2020-9-19T13:46:36Z</time></trkpt>
<trkpt lat="46.28775897435843944549560546875" lon="7.433920316398143768310546875"><ele></ele><time>2020-9-19T13:46:39Z</time></trkpt>
<trkpt lat="46.28777875564992427825927734375" lon="7.433927357196807861328125"><ele></ele><time>2020-9-19T13:46:42Z</time></trkpt>
<trkpt lat="46.2877974472939968109130859375" lon="7.4339354038238525390625"><ele></ele><time>2020-9-19T13:46:45Z</time></trkpt>
<trkpt lat="46.28781630657613277435302734375" lon="7.43394437246024608612060546875"><ele></ele><time>2020-9-19T13:46:48Z</time></trkpt>
<trkpt lat="46.2878358364105224609375" lon="7.43395158089697360992431640625"><ele></ele><time>2020-9-19T13:46:51Z</time></trkpt>
<trkpt lat="46.28785469569265842437744140625" lon="7.4339553527534008026123046875"><ele></ele><time>2020-9-19T13:46:54Z</time></trkpt>
<trkpt lat="46.28787430934607982635498046875" lon="7.433960549533367156982421875"><ele></ele><time>2020-9-19T13:46:57Z</time></trkpt>
<trkpt lat="46.28789425827562808990478515625" lon="7.4339662492275238037109375"><ele></ele><time>2020-9-19T13:47:0Z</time></trkpt>
<trkpt lat="46.28791353665292263031005859375" lon="7.433972619473934173583984375"><ele></ele><time>2020-9-19T13:47:3Z</time></trkpt>
<trkpt lat="46.2879332341253757476806640625" lon="7.43397873826324939727783203125"><ele></ele><time>2020-9-19T13:47:6Z</time></trkpt>
<trkpt lat="46.2879533506929874420166015625" lon="7.43398410268127918243408203125"><ele></ele><time>2020-9-19T13:47:9Z</time></trkpt>
<trkpt lat="46.287972629070281982421875" lon="7.43398963473737239837646484375"><ele></ele><time>2020-9-19T13:47:12Z</time></trkpt>
<trkpt lat="46.2879932485520839691162109375" lon="7.4339929036796092987060546875"><ele></ele><time>2020-9-19T13:47:15Z</time></trkpt>
<trkpt lat="46.28801445476710796356201171875" lon="7.43399617262184619903564453125"><ele></ele><time>2020-9-19T13:47:18Z</time></trkpt>
<trkpt lat="46.28803608007729053497314453125" lon="7.4339992739260196685791015625"><ele></ele><time>2020-9-19T13:47:21Z</time></trkpt>
<trkpt lat="46.288057453930377960205078125" lon="7.43400237523019313812255859375"><ele></ele><time>2020-9-19T13:47:24Z</time></trkpt>
<trkpt lat="46.2880784086883068084716796875" lon="7.43400723673403263092041015625"><ele></ele><time>2020-9-19T13:47:27Z</time></trkpt>
<trkpt lat="46.28809726797044277191162109375" lon="7.4340143613517284393310546875"><ele></ele><time>2020-9-19T13:47:30Z</time></trkpt>
<trkpt lat="46.2881159596145153045654296875" lon="7.434022910892963409423828125"><ele></ele><time>2020-9-19T13:47:33Z</time></trkpt>
<trkpt lat="46.2881343998014926910400390625" lon="7.434030957520008087158203125"><ele></ele><time>2020-9-19T13:47:36Z</time></trkpt>
<trkpt lat="46.28815409727394580841064453125" lon="7.4340388365089893341064453125"><ele></ele><time>2020-9-19T13:47:39Z</time></trkpt>
<trkpt lat="46.28817312419414520263671875" lon="7.434046380221843719482421875"><ele></ele><time>2020-9-19T13:47:42Z</time></trkpt>
<trkpt lat="46.28819131292402744293212890625" lon="7.4340539239346981048583984375"><ele></ele><time>2020-9-19T13:47:45Z</time></trkpt>
<trkpt lat="46.28821109421551227569580078125" lon="7.43406238965690135955810546875"><ele></ele><time>2020-9-19T13:47:48Z</time></trkpt>
<trkpt lat="46.28823020495474338531494140625" lon="7.4340706877410411834716796875"><ele></ele><time>2020-9-19T13:47:51Z</time></trkpt>
<trkpt lat="46.288247220218181610107421875" lon="7.43407915346324443817138671875"><ele></ele><time>2020-9-19T13:47:54Z</time></trkpt>
<trkpt lat="46.28826406784355640411376953125" lon="7.43409021757543087005615234375"><ele></ele><time>2020-9-19T13:47:57Z</time></trkpt>
<trkpt lat="46.28828066401183605194091796875" lon="7.43410362862050533294677734375"><ele></ele><time>2020-9-19T13:48:0Z</time></trkpt>
<trkpt lat="46.288297511637210845947265625" lon="7.43411955423653125762939453125"><ele></ele><time>2020-9-19T13:48:3Z</time></trkpt>
<trkpt lat="46.2883131019771099090576171875" lon="7.43413992226123809814453125"><ele></ele><time>2020-9-19T13:48:6Z</time></trkpt>
<trkpt lat="46.28832676447927951812744140625" lon="7.434162385761737823486328125"><ele></ele><time>2020-9-19T13:48:9Z</time></trkpt>
<trkpt lat="46.28833799622952938079833984375" lon="7.43418753147125244140625"><ele></ele><time>2020-9-19T13:48:12Z</time></trkpt>
<trkpt lat="46.28834688104689121246337890625" lon="7.434214018285274505615234375"><ele></ele><time>2020-9-19T13:48:15Z</time></trkpt>
<trkpt lat="46.28835610114037990570068359375" lon="7.43424050509929656982421875"><ele></ele><time>2020-9-19T13:48:18Z</time></trkpt>
<trkpt lat="46.288364231586456298828125" lon="7.43426757864654064178466796875"><ele></ele><time>2020-9-19T13:48:21Z</time></trkpt>
<trkpt lat="46.28836766816675662994384765625" lon="7.43429373018443584442138671875"><ele></ele><time>2020-9-19T13:48:24Z</time></trkpt>
<trkpt lat="46.28837051801383495330810546875" lon="7.43432222865521907806396484375"><ele></ele><time>2020-9-19T13:48:27Z</time></trkpt>
<trkpt lat="46.2883711047470569610595703125" lon="7.4343509785830974578857421875"><ele></ele><time>2020-9-19T13:48:30Z</time></trkpt>
<trkpt lat="46.28837051801383495330810546875" lon="7.43437889032065868377685546875"><ele></ele><time>2020-9-19T13:48:33Z</time></trkpt>
<trkpt lat="46.28836800344288349151611328125" lon="7.43440671823918819427490234375"><ele></ele><time>2020-9-19T13:48:36Z</time></trkpt>
<trkpt lat="46.28836314193904399871826171875" lon="7.43443488143384456634521484375"><ele></ele><time>2020-9-19T13:48:39Z</time></trkpt>
<trkpt lat="46.2883543409407138824462890625" lon="7.4344616197049617767333984375"><ele></ele><time>2020-9-19T13:48:42Z</time></trkpt>
<trkpt lat="46.28834084607660770416259765625" lon="7.43448634631931781768798828125"><ele></ele><time>2020-9-19T13:48:45Z</time></trkpt>
<trkpt lat="46.288325674831867218017578125" lon="7.43450939655303955078125"><ele></ele><time>2020-9-19T13:48:48Z</time></trkpt>
<trkpt lat="46.2883100844919681549072265625" lon="7.43453278206288814544677734375"><ele></ele><time>2020-9-19T13:48:51Z</time></trkpt>
<trkpt lat="46.28829491324722766876220703125" lon="7.43455658666789531707763671875"><ele></ele><time>2020-9-19T13:48:54Z</time></trkpt>
<trkpt lat="46.28827965818345546722412109375" lon="7.43458022363483905792236328125"><ele></ele><time>2020-9-19T13:48:57Z</time></trkpt>
<trkpt lat="46.28826490603387355804443359375" lon="7.43460319004952907562255859375"><ele></ele><time>2020-9-19T13:49:0Z</time></trkpt>
<trkpt lat="46.28825065679848194122314453125" lon="7.4346262402832508087158203125"><ele></ele><time>2020-9-19T13:49:3Z</time></trkpt>
<trkpt lat="46.28823615610599517822265625" lon="7.43464778177440166473388671875"><ele></ele><time>2020-9-19T13:49:6Z</time></trkpt>
<trkpt lat="46.2882207334041595458984375" lon="7.43466806598007678985595703125"><ele></ele><time>2020-9-19T13:49:9Z</time></trkpt>
<trkpt lat="46.28820438869297504425048828125" lon="7.4346879310905933380126953125"><ele></ele><time>2020-9-19T13:49:12Z</time></trkpt>
<trkpt lat="46.2881883792579174041748046875" lon="7.43470729328691959381103515625"><ele></ele><time>2020-9-19T13:49:15Z</time></trkpt>
<trkpt lat="46.28817220218479633331298828125" lon="7.43472757749259471893310546875"><ele></ele><time>2020-9-19T13:49:18Z</time></trkpt>
<trkpt lat="46.28815644420683383941650390625" lon="7.4347489513456821441650390625"><ele></ele><time>2020-9-19T13:49:21Z</time></trkpt>
<trkpt lat="46.2881414406001567840576171875" lon="7.43477116338908672332763671875"><ele></ele><time>2020-9-19T13:49:24Z</time></trkpt>
<trkpt lat="46.28812660463154315948486328125" lon="7.43479345925152301788330078125"><ele></ele><time>2020-9-19T13:49:27Z</time></trkpt>
<trkpt lat="46.288112103939056396484375" lon="7.43481659330427646636962890625"><ele></ele><time>2020-9-19T13:49:30Z</time></trkpt>
<trkpt lat="46.28809743560850620269775390625" lon="7.434839643537998199462890625"><ele></ele><time>2020-9-19T13:49:33Z</time></trkpt>
<trkpt lat="46.2880820967257022857666015625" lon="7.43486336432397365570068359375"><ele></ele><time>2020-9-19T13:49:36Z</time></trkpt>
<trkpt lat="46.28806759603321552276611328125" lon="7.43488834239542484283447265625"><ele></ele><time>2020-9-19T13:49:39Z</time></trkpt>
<trkpt lat="46.28805167041718959808349609375" lon="7.43491164408624172210693359375"><ele></ele><time>2020-9-19T13:49:42Z</time></trkpt>
<trkpt lat="46.288035325706005096435546875" lon="7.43493494577705860137939453125"><ele></ele><time>2020-9-19T13:49:45Z</time></trkpt>
<trkpt lat="46.2880237586796283721923828125" lon="7.43496025912463665008544921875"><ele></ele><time>2020-9-19T13:49:48Z</time></trkpt>
<trkpt lat="46.28801646642386913299560546875" lon="7.434985153377056121826171875"><ele></ele><time>2020-9-19T13:49:51Z</time></trkpt>
<trkpt lat="46.2880103476345539093017578125" lon="7.43501029908657073974609375"><ele></ele><time>2020-9-19T13:49:54Z</time></trkpt>
<trkpt lat="46.28800607286393642425537109375" lon="7.4350391328334808349609375"><ele></ele><time>2020-9-19T13:49:57Z</time></trkpt>
<trkpt lat="46.2880039773881435394287109375" lon="7.435069978237152099609375"><ele></ele><time>2020-9-19T13:50:0Z</time></trkpt>
<trkpt lat="46.28800355829298496246337890625" lon="7.4351043440401554107666015625"><ele></ele><time>2020-9-19T13:50:3Z</time></trkpt>
<trkpt lat="46.28799987025558948516845703125" lon="7.43513778783380985260009765625"><ele></ele><time>2020-9-19T13:50:6Z</time></trkpt>
<trkpt lat="46.28799651749432086944580078125" lon="7.435171902179718017578125"><ele></ele><time>2020-9-19T13:50:9Z</time></trkpt>
<trkpt lat="46.28799534402787685394287109375" lon="7.43520668707787990570068359375"><ele></ele><time>2020-9-19T13:50:12Z</time></trkpt>
<trkpt lat="46.287995092570781707763671875" lon="7.435241639614105224609375"><ele></ele><time>2020-9-19T13:50:15Z</time></trkpt>
<trkpt lat="46.287997104227542877197265625" lon="7.43527743034064769744873046875"><ele></ele><time>2020-9-19T13:50:18Z</time></trkpt>
<trkpt lat="46.2879996187984943389892578125" lon="7.43531464599072933197021484375"><ele></ele><time>2020-9-19T13:50:21Z</time></trkpt>
<trkpt lat="46.28800146281719207763671875" lon="7.4353527836501598358154296875"><ele></ele><time>2020-9-19T13:50:24Z</time></trkpt>
<trkpt lat="46.28800188191235065460205078125" lon="7.43539041839540004730224609375"><ele></ele><time>2020-9-19T13:50:27Z</time></trkpt>
<trkpt lat="46.2880033068358898162841796875" lon="7.4354278855025768280029296875"><ele></ele><time>2020-9-19T13:50:30Z</time></trkpt>
<trkpt lat="46.288006491959095001220703125" lon="7.43546417914330959320068359375"><ele></ele><time>2020-9-19T13:50:33Z</time></trkpt>
<trkpt lat="46.28800925798714160919189453125" lon="7.43550156243145465850830078125"><ele></ele><time>2020-9-19T13:50:36Z</time></trkpt>
<trkpt lat="46.28800976090133190155029296875" lon="7.43553995154798030853271484375"><ele></ele><time>2020-9-19T13:50:39Z</time></trkpt>
<trkpt lat="46.28800992853939533233642578125" lon="7.43557767011225223541259765625"><ele></ele><time>2020-9-19T13:50:42Z</time></trkpt>
<trkpt lat="46.2880096770823001861572265625" lon="7.43561446666717529296875"><ele></ele><time>2020-9-19T13:50:45Z</time></trkpt>
<trkpt lat="46.28800942562520503997802734375" lon="7.4356511794030666351318359375"><ele></ele><time>2020-9-19T13:50:48Z</time></trkpt>
<trkpt lat="46.28800791688263416290283203125" lon="7.43568864651024341583251953125"><ele></ele><time>2020-9-19T13:50:51Z</time></trkpt>
<trkpt lat="46.28800590522587299346923828125" lon="7.43572586216032505035400390625"><ele></ele><time>2020-9-19T13:50:54Z</time></trkpt>
<trkpt lat="46.28800255246460437774658203125" lon="7.43576207198202610015869140625"><ele></ele><time>2020-9-19T13:50:57Z</time></trkpt>
<trkpt lat="46.28799752332270145416259765625" lon="7.4357987008988857269287109375"><ele></ele><time>2020-9-19T13:51:0Z</time></trkpt>
<trkpt lat="46.28799098543822765350341796875" lon="7.43583532981574535369873046875"><ele></ele><time>2020-9-19T13:51:3Z</time></trkpt>
<trkpt lat="46.28798260353505611419677734375" lon="7.43587103672325611114501953125"><ele></ele><time>2020-9-19T13:51:6Z</time></trkpt>
<trkpt lat="46.287971623241901397705078125" lon="7.4359063245356082916259765625"><ele></ele><time>2020-9-19T13:51:9Z</time></trkpt>
<trkpt lat="46.287958882749080657958984375" lon="7.43593968451023101806640625"><ele></ele><time>2020-9-19T13:51:12Z</time></trkpt>
<trkpt lat="46.287944801151752471923828125" lon="7.43597187101840972900390625"><ele></ele><time>2020-9-19T13:51:15Z</time></trkpt>
<trkpt lat="46.287929713726043701171875" lon="7.4360002018511295318603515625"><ele></ele><time>2020-9-19T13:51:18Z</time></trkpt>
<trkpt lat="46.2879137881100177764892578125" lon="7.4360263533890247344970703125"><ele></ele><time>2020-9-19T13:51:21Z</time></trkpt>
<trkpt lat="46.28789660520851612091064453125" lon="7.436052002012729644775390625"><ele></ele><time>2020-9-19T13:51:24Z</time></trkpt>
<trkpt lat="46.2878774106502532958984375" lon="7.43607639335095882415771484375"><ele></ele><time>2020-9-19T13:51:27Z</time></trkpt>
<trkpt lat="46.2878584675490856170654296875" lon="7.43609852157533168792724609375"><ele></ele><time>2020-9-19T13:51:30Z</time></trkpt>
<trkpt lat="46.28783893771469593048095703125" lon="7.43611897341907024383544921875"><ele></ele><time>2020-9-19T13:51:33Z</time></trkpt>
<trkpt lat="46.28781865350902080535888671875" lon="7.43613791652023792266845703125"><ele></ele><time>2020-9-19T13:51:36Z</time></trkpt>
<trkpt lat="46.287797950208187103271484375" lon="7.43615568615496158599853515625"><ele></ele><time>2020-9-19T13:51:39Z</time></trkpt>
<trkpt lat="46.28777707926928997039794921875" lon="7.43617312051355838775634765625"><ele></ele><time>2020-9-19T13:51:42Z</time></trkpt>
<trkpt lat="46.28775645978748798370361328125" lon="7.43619005195796489715576171875"><ele></ele><time>2020-9-19T13:51:45Z</time></trkpt>
<trkpt lat="46.2877357564866542816162109375" lon="7.4362067319452762603759765625"><ele></ele><time>2020-9-19T13:51:48Z</time></trkpt>
<trkpt lat="46.28771455027163028717041015625" lon="7.4362219870090484619140625"><ele></ele><time>2020-9-19T13:51:51Z</time></trkpt>
<trkpt lat="46.2876925058662891387939453125" lon="7.43623598478734493255615234375"><ele></ele><time>2020-9-19T13:51:54Z</time></trkpt>
<trkpt lat="46.28767021000385284423828125" lon="7.43624788708984851837158203125"><ele></ele><time>2020-9-19T13:51:57Z</time></trkpt>
<trkpt lat="46.28764749504625797271728515625" lon="7.43625828064978122711181640625"><ele></ele><time>2020-9-19T13:52:0Z</time></trkpt>
<trkpt lat="46.2876247800886631011962890625" lon="7.43626867420971393585205078125"><ele></ele><time>2020-9-19T13:52:3Z</time></trkpt>
<trkpt lat="46.287602484226226806640625" lon="7.43628091178834438323974609375"><ele></ele><time>2020-9-19T13:52:6Z</time></trkpt>
<trkpt lat="46.28758027218282222747802734375" lon="7.4362918920814990997314453125"><ele></ele><time>2020-9-19T13:52:9Z</time></trkpt>
<trkpt lat="46.28755697049200534820556640625" lon="7.4362997710704803466796875"><ele></ele><time>2020-9-19T13:52:12Z</time></trkpt>
<trkpt lat="46.28753400407731533050537109375" lon="7.4363083206117153167724609375"><ele></ele><time>2020-9-19T13:52:15Z</time></trkpt>
<trkpt lat="46.28751170821487903594970703125" lon="7.43631980381906032562255859375"><ele></ele><time>2020-9-19T13:52:18Z</time></trkpt>
<trkpt lat="46.28749041818082332611083984375" lon="7.43633639998733997344970703125"><ele></ele><time>2020-9-19T13:52:21Z</time></trkpt>
<trkpt lat="46.2874729000031948089599609375" lon="7.436359785497188568115234375"><ele></ele><time>2020-9-19T13:52:24Z</time></trkpt>
<trkpt lat="46.28746158443391323089599609375" lon="7.436389625072479248046875"><ele></ele><time>2020-9-19T13:52:27Z</time></trkpt>
<trkpt lat="46.28746057860553264617919921875" lon="7.43642273359000682830810546875"><ele></ele><time>2020-9-19T13:52:30Z</time></trkpt>
<trkpt lat="46.2874708883464336395263671875" lon="7.43645240552723407745361328125"><ele></ele><time>2020-9-19T13:52:33Z</time></trkpt>
<trkpt lat="46.287489831447601318359375" lon="7.43647319264709949493408203125"><ele></ele><time>2020-9-19T13:52:36Z</time></trkpt>
<trkpt lat="46.28751355223357677459716796875" lon="7.43648174218833446502685546875"><ele></ele><time>2020-9-19T13:52:39Z</time></trkpt>
<trkpt lat="46.28753802739083766937255859375" lon="7.43648073635995388031005859375"><ele></ele><time>2020-9-19T13:52:42Z</time></trkpt>
<trkpt lat="46.28756300546228885650634765625" lon="7.43647067807614803314208984375"><ele></ele><time>2020-9-19T13:52:45Z</time></trkpt>
<trkpt lat="46.287588067352771759033203125" lon="7.4364608712494373321533203125"><ele></ele><time>2020-9-19T13:52:48Z</time></trkpt>
<trkpt lat="46.2876130454242229461669921875" lon="7.4364514835178852081298828125"><ele></ele><time>2020-9-19T13:52:51Z</time></trkpt>
<trkpt lat="46.28763743676245212554931640625" lon="7.4364420957863330841064453125"><ele></ele><time>2020-9-19T13:52:54Z</time></trkpt>
<trkpt lat="46.287662498652935028076171875" lon="7.43643161840736865997314453125"><ele></ele><time>2020-9-19T13:52:57Z</time></trkpt>
<trkpt lat="46.28768823109567165374755859375" lon="7.4364231526851654052734375"><ele></ele><time>2020-9-19T13:53:0Z</time></trkpt>
<trkpt lat="46.28771354444324970245361328125" lon="7.43641569279134273529052734375"><ele></ele><time>2020-9-19T13:53:3Z</time></trkpt>
<trkpt lat="46.28773860633373260498046875" lon="7.43641250766813755035400390625"><ele></ele><time>2020-9-19T13:53:6Z</time></trkpt>
<trkpt lat="46.287763081490993499755859375" lon="7.4364115856587886810302734375"><ele></ele><time>2020-9-19T13:53:9Z</time></trkpt>
<trkpt lat="46.287786550819873809814453125" lon="7.43640814907848834991455078125"><ele></ele><time>2020-9-19T13:53:12Z</time></trkpt>
<trkpt lat="46.2878088466823101043701171875" lon="7.4364097416400909423828125"><ele></ele><time>2020-9-19T13:53:15Z</time></trkpt>
<trkpt lat="46.2878299690783023834228515625" lon="7.43641803972423076629638671875"><ele></ele><time>2020-9-19T13:53:18Z</time></trkpt>
<trkpt lat="46.287852935492992401123046875" lon="7.43642876856029033660888671875"><ele></ele><time>2020-9-19T13:53:21Z</time></trkpt>
<trkpt lat="46.28787539899349212646484375" lon="7.436438240110874176025390625"><ele></ele><time>2020-9-19T13:53:24Z</time></trkpt>
<trkpt lat="46.28789777867496013641357421875" lon="7.43644771166145801544189453125"><ele></ele><time>2020-9-19T13:53:27Z</time></trkpt>
<trkpt lat="46.2879194878041744232177734375" lon="7.43645827285945415496826171875"><ele></ele><time>2020-9-19T13:53:30Z</time></trkpt>
<trkpt lat="46.2879412807524204254150390625" lon="7.4364692531526088714599609375"><ele></ele><time>2020-9-19T13:53:33Z</time></trkpt>
<trkpt lat="46.2879637442529201507568359375" lon="7.4364789761602878570556640625"><ele></ele><time>2020-9-19T13:53:36Z</time></trkpt>
<trkpt lat="46.2879865430295467376708984375" lon="7.43648551404476165771484375"><ele></ele><time>2020-9-19T13:53:39Z</time></trkpt>
<trkpt lat="46.28800959326326847076416015625" lon="7.43649163283407688140869140625"><ele></ele><time>2020-9-19T13:53:42Z</time></trkpt>
<trkpt lat="46.2880321405827999114990234375" lon="7.43649959564208984375"><ele></ele><time>2020-9-19T13:53:45Z</time></trkpt>
<trkpt lat="46.2880539335310459136962890625" lon="7.43650697171688079833984375"><ele></ele><time>2020-9-19T13:53:48Z</time></trkpt>
<trkpt lat="46.2880758941173553466796875" lon="7.436514012515544891357421875"><ele></ele><time>2020-9-19T13:53:51Z</time></trkpt>
<trkpt lat="46.28809802234172821044921875" lon="7.43652147240936756134033203125"><ele></ele><time>2020-9-19T13:53:54Z</time></trkpt>
<trkpt lat="46.2881203182041645050048828125" lon="7.43653018958866596221923828125"><ele></ele><time>2020-9-19T13:53:57Z</time></trkpt>
<trkpt lat="46.2881427817046642303466796875" lon="7.4365376494824886322021484375"><ele></ele><time>2020-9-19T13:54:0Z</time></trkpt>
<trkpt lat="46.28816633485257625579833984375" lon="7.436542846262454986572265625"><ele></ele><time>2020-9-19T13:54:3Z</time></trkpt>
<trkpt lat="46.28818980418145656585693359375" lon="7.43654695339500904083251953125"><ele></ele><time>2020-9-19T13:54:6Z</time></trkpt>
<trkpt lat="46.28821335732936859130859375" lon="7.4365490488708019256591796875"><ele></ele><time>2020-9-19T13:54:9Z</time></trkpt>
<trkpt lat="46.28823674283921718597412109375" lon="7.43655080907046794891357421875"><ele></ele><time>2020-9-19T13:54:12Z</time></trkpt>
<trkpt lat="46.2882601283490657806396484375" lon="7.43655432946979999542236328125"><ele></ele><time>2020-9-19T13:54:15Z</time></trkpt>
<trkpt lat="46.2882835976779460906982421875" lon="7.43655684404075145721435546875"><ele></ele><time>2020-9-19T13:54:18Z</time></trkpt>
<trkpt lat="46.2883074022829532623291015625" lon="7.43655969388782978057861328125"><ele></ele><time>2020-9-19T13:54:21Z</time></trkpt>
<trkpt lat="46.28833179362118244171142578125" lon="7.436558268964290618896484375"><ele></ele><time>2020-9-19T13:54:24Z</time></trkpt>
<trkpt lat="46.288354508578777313232421875" lon="7.43655516766011714935302734375"><ele></ele><time>2020-9-19T13:54:27Z</time></trkpt>
<trkpt lat="46.28837873227894306182861328125" lon="7.436552233994007110595703125"><ele></ele><time>2020-9-19T13:54:30Z</time></trkpt>
<trkpt lat="46.28840253688395023345947265625" lon="7.4365513958036899566650390625"><ele></ele><time>2020-9-19T13:54:33Z</time></trkpt>
<trkpt lat="46.28842667676508426666259765625" lon="7.436549551784992218017578125"><ele></ele><time>2020-9-19T13:54:36Z</time></trkpt>
<trkpt lat="46.28845115192234516143798828125" lon="7.4365480430424213409423828125"><ele></ele><time>2020-9-19T13:54:39Z</time></trkpt>
<trkpt lat="46.2884736992418766021728515625" lon="7.4365443550050258636474609375"><ele></ele><time>2020-9-19T13:54:42Z</time></trkpt>
<trkpt lat="46.288494653999805450439453125" lon="7.43653991259634494781494140625"><ele></ele><time>2020-9-19T13:54:45Z</time></trkpt>
<trkpt lat="46.2885162793099880218505859375" lon="7.43653739802539348602294921875"><ele></ele><time>2020-9-19T13:54:48Z</time></trkpt>
<trkpt lat="46.2885384075343608856201171875" lon="7.4365366436541080474853515625"><ele></ele><time>2020-9-19T13:54:51Z</time></trkpt>
<trkpt lat="46.288561038672924041748046875" lon="7.43653488345444202423095703125"><ele></ele><time>2020-9-19T13:54:54Z</time></trkpt>
<trkpt lat="46.28858308307826519012451171875" lon="7.4365329556167125701904296875"><ele></ele><time>2020-9-19T13:54:57Z</time></trkpt>
<trkpt lat="46.28860403783619403839111328125" lon="7.436536140739917755126953125"><ele></ele><time>2020-9-19T13:55:0Z</time></trkpt>
<trkpt lat="46.28862432204186916351318359375" lon="7.4365384876728057861328125"><ele></ele><time>2020-9-19T13:55:3Z</time></trkpt>
<trkpt lat="46.28864326514303684234619140625" lon="7.4365389905869960784912109375"><ele></ele><time>2020-9-19T13:55:6Z</time></trkpt>
<trkpt lat="46.2886621244251728057861328125" lon="7.43654242716729640960693359375"><ele></ele><time>2020-9-19T13:55:9Z</time></trkpt>
<trkpt lat="46.2886839173734188079833984375" lon="7.43654460646212100982666015625"><ele></ele><time>2020-9-19T13:55:12Z</time></trkpt>
<trkpt lat="46.2887070514261722564697265625" lon="7.43654343299567699432373046875"><ele></ele><time>2020-9-19T13:55:15Z</time></trkpt>
<trkpt lat="46.28873110748827457427978515625" lon="7.436545528471469879150390625"><ele></ele><time>2020-9-19T13:55:18Z</time></trkpt>
<trkpt lat="46.2887549959123134613037109375" lon="7.43655064143240451812744140625"><ele></ele><time>2020-9-19T13:55:21Z</time></trkpt>
<trkpt lat="46.28877754323184490203857421875" lon="7.436556927859783172607421875"><ele></ele><time>2020-9-19T13:55:24Z</time></trkpt>
<trkpt lat="46.2887999229133129119873046875" lon="7.4365678243339061737060546875"><ele></ele><time>2020-9-19T13:55:27Z</time></trkpt>
<trkpt lat="46.28882230259478092193603515625" lon="7.43657327257096767425537109375"><ele></ele><time>2020-9-19T13:55:30Z</time></trkpt>
<trkpt lat="46.28884627483785152435302734375" lon="7.4365805648267269134521484375"><ele></ele><time>2020-9-19T13:55:33Z</time></trkpt>
<trkpt lat="46.2888699956238269805908203125" lon="7.43658835999667644500732421875"><ele></ele><time>2020-9-19T13:55:36Z</time></trkpt>
<trkpt lat="46.2888914532959461212158203125" lon="7.43659808300435543060302734375"><ele></ele><time>2020-9-19T13:55:39Z</time></trkpt>
<trkpt lat="46.28891483880579471588134765625" lon="7.43660596199333667755126953125"><ele></ele><time>2020-9-19T13:55:42Z</time></trkpt>
<trkpt lat="46.2889383919537067413330078125" lon="7.4366134218871593475341796875"><ele></ele><time>2020-9-19T13:55:45Z</time></trkpt>
<trkpt lat="46.28896110691130161285400390625" lon="7.4366207979619503021240234375"><ele></ele><time>2020-9-19T13:55:48Z</time></trkpt>
<trkpt lat="46.2889839895069599151611328125" lon="7.43662607856094837188720703125"><ele></ele><time>2020-9-19T13:55:51Z</time></trkpt>
<trkpt lat="46.2890077941119670867919921875" lon="7.436629347503185272216796875"><ele></ele><time>2020-9-19T13:55:54Z</time></trkpt>
<trkpt lat="46.2890326045453548431396484375" lon="7.4366328679025173187255859375"><ele></ele><time>2020-9-19T13:55:57Z</time></trkpt>
<trkpt lat="46.289056241512298583984375" lon="7.43662909604609012603759765625"><ele></ele><time>2020-9-19T13:56:0Z</time></trkpt>
<trkpt lat="46.28907878883183002471923828125" lon="7.43662767112255096435546875"><ele></ele><time>2020-9-19T13:56:3Z</time></trkpt>
<trkpt lat="46.28910242579877376556396484375" lon="7.436626665294170379638671875"><ele></ele><time>2020-9-19T13:56:6Z</time></trkpt>
<trkpt lat="46.28912555985152721405029296875" lon="7.4366258271038532257080078125"><ele></ele><time>2020-9-19T13:56:9Z</time></trkpt>
<trkpt lat="46.2891482748091220855712890625" lon="7.43662473745644092559814453125"><ele></ele><time>2020-9-19T13:56:12Z</time></trkpt>
<trkpt lat="46.2891714088618755340576171875" lon="7.43661887012422084808349609375"><ele></ele><time>2020-9-19T13:56:15Z</time></trkpt>
<trkpt lat="46.28919295035302639007568359375" lon="7.436609901487827301025390625"><ele></ele><time>2020-9-19T13:56:18Z</time></trkpt>
<trkpt lat="46.28921524621546268463134765625" lon="7.4365961551666259765625"><ele></ele><time>2020-9-19T13:56:21Z</time></trkpt>
<trkpt lat="46.289236284792423248291015625" lon="7.43658073246479034423828125"><ele></ele><time>2020-9-19T13:56:24Z</time></trkpt>
<trkpt lat="46.289256401360034942626953125" lon="7.436562292277812957763671875"><ele></ele><time>2020-9-19T13:56:27Z</time></trkpt>
<trkpt lat="46.2892760150134563446044921875" lon="7.43654209189116954803466796875"><ele></ele><time>2020-9-19T13:56:30Z</time></trkpt>
<trkpt lat="46.28929470665752887725830078125" lon="7.43651946075260639190673828125"><ele></ele><time>2020-9-19T13:56:33Z</time></trkpt>
<trkpt lat="46.289312727749347686767578125" lon="7.43649532087147235870361328125"><ele></ele><time>2020-9-19T13:56:36Z</time></trkpt>
<trkpt lat="46.28933058120310306549072265625" lon="7.436473108828067779541015625"><ele></ele><time>2020-9-19T13:56:39Z</time></trkpt>
<trkpt lat="46.28934768028557300567626953125" lon="7.43645198643207550048828125"><ele></ele><time>2020-9-19T13:56:42Z</time></trkpt>
<trkpt lat="46.28936276771128177642822265625" lon="7.43642591871321201324462890625"><ele></ele><time>2020-9-19T13:56:45Z</time></trkpt>
<trkpt lat="46.28937634639441967010498046875" lon="7.4363985098898410797119140625"><ele></ele><time>2020-9-19T13:56:48Z</time></trkpt>
<trkpt lat="46.2893906794488430023193359375" lon="7.4363726936280727386474609375"><ele></ele><time>2020-9-19T13:56:51Z</time></trkpt>
<trkpt lat="46.28940601833164691925048828125" lon="7.43634796701371669769287109375"><ele></ele><time>2020-9-19T13:56:54Z</time></trkpt>
<trkpt lat="46.2894196808338165283203125" lon="7.4363220669329166412353515625"><ele></ele><time>2020-9-19T13:56:57Z</time></trkpt>
<trkpt lat="46.2894332595169544219970703125" lon="7.4362939037382602691650390625"><ele></ele><time>2020-9-19T13:57:0Z</time></trkpt>
<trkpt lat="46.28944851458072662353515625" lon="7.43626766838133335113525390625"><ele></ele><time>2020-9-19T13:57:3Z</time></trkpt>
<trkpt lat="46.2894627638161182403564453125" lon="7.4362422712147235870361328125"><ele></ele><time>2020-9-19T13:57:6Z</time></trkpt>
<trkpt lat="46.28947625868022441864013671875" lon="7.43621595203876495361328125"><ele></ele><time>2020-9-19T13:57:9Z</time></trkpt>
<trkpt lat="46.28949034027755260467529296875" lon="7.4361909739673137664794921875"><ele></ele><time>2020-9-19T13:57:12Z</time></trkpt>
<trkpt lat="46.28950349986553192138671875" lon="7.43616540916264057159423828125"><ele></ele><time>2020-9-19T13:57:15Z</time></trkpt>
<trkpt lat="46.2895154021680355072021484375" lon="7.43613825179636478424072265625"><ele></ele><time>2020-9-19T13:57:18Z</time></trkpt>
<trkpt lat="46.28952889703214168548583984375" lon="7.4361131899058818817138671875"><ele></ele><time>2020-9-19T13:57:21Z</time></trkpt>
<trkpt lat="46.2895439006388187408447265625" lon="7.436090223491191864013671875"><ele></ele><time>2020-9-19T13:57:24Z</time></trkpt>
<trkpt lat="46.28955974243581295013427734375" lon="7.43606843054294586181640625"><ele></ele><time>2020-9-19T13:57:27Z</time></trkpt>
<trkpt lat="46.28957591950893402099609375" lon="7.4360457994043827056884765625"><ele></ele><time>2020-9-19T13:57:30Z</time></trkpt>
<trkpt lat="46.2895898334681987762451171875" lon="7.4360236711800098419189453125"><ele></ele><time>2020-9-19T13:57:33Z</time></trkpt>
<trkpt lat="46.289601735770702362060546875" lon="7.43599844165146350860595703125"><ele></ele><time>2020-9-19T13:57:36Z</time></trkpt>
<trkpt lat="46.2896156497299671173095703125" lon="7.43597329594194889068603515625"><ele></ele><time>2020-9-19T13:57:39Z</time></trkpt>
<trkpt lat="46.28962998278439044952392578125" lon="7.43594773113727569580078125"><ele></ele><time>2020-9-19T13:57:42Z</time></trkpt>
<trkpt lat="46.289644651114940643310546875" lon="7.43592233397066593170166015625"><ele></ele><time>2020-9-19T13:57:45Z</time></trkpt>
<trkpt lat="46.2896595709025859832763671875" lon="7.4358966015279293060302734375"><ele></ele><time>2020-9-19T13:57:48Z</time></trkpt>
<trkpt lat="46.28967474214732646942138671875" lon="7.435872294008731842041015625"><ele></ele><time>2020-9-19T13:57:51Z</time></trkpt>
<trkpt lat="46.2896905839443206787109375" lon="7.435846813023090362548828125"><ele></ele><time>2020-9-19T13:57:54Z</time></trkpt>
<trkpt lat="46.28970609046518802642822265625" lon="7.43582208640873432159423828125"><ele></ele><time>2020-9-19T13:57:57Z</time></trkpt>
<trkpt lat="46.28972117789089679718017578125" lon="7.4357976950705051422119140625"><ele></ele><time>2020-9-19T13:58:0Z</time></trkpt>
<trkpt lat="46.28973660059273242950439453125" lon="7.43577296845614910125732421875"><ele></ele><time>2020-9-19T13:58:3Z</time></trkpt>
<trkpt lat="46.28975202329456806182861328125" lon="7.43574832566082477569580078125"><ele></ele><time>2020-9-19T13:58:6Z</time></trkpt>
<trkpt lat="46.2897682003676891326904296875" lon="7.435724101960659027099609375"><ele></ele><time>2020-9-19T13:58:9Z</time></trkpt>
<trkpt lat="46.2897849641740322113037109375" lon="7.43570105172693729400634765625"><ele></ele><time>2020-9-19T13:58:12Z</time></trkpt>
<trkpt lat="46.2898020632565021514892578125" lon="7.43567875586450099945068359375"><ele></ele><time>2020-9-19T13:58:15Z</time></trkpt>
<trkpt lat="46.2898194976150989532470703125" lon="7.435657046735286712646484375"><ele></ele><time>2020-9-19T13:58:18Z</time></trkpt>
<trkpt lat="46.28983701579272747039794921875" lon="7.4356340803205966949462890625"><ele></ele><time>2020-9-19T13:58:21Z</time></trkpt>
<trkpt lat="46.28985352814197540283203125" lon="7.43561052717268466949462890625"><ele></ele><time>2020-9-19T13:58:24Z</time></trkpt>
<trkpt lat="46.2898702919483184814453125" lon="7.43558621965348720550537109375"><ele></ele><time>2020-9-19T13:58:27Z</time></trkpt>
<trkpt lat="46.2898875586688518524169921875" lon="7.43556258268654346466064453125"><ele></ele><time>2020-9-19T13:58:30Z</time></trkpt>
<trkpt lat="46.28990583121776580810546875" lon="7.43554003536701202392578125"><ele></ele><time>2020-9-19T13:58:33Z</time></trkpt>
<trkpt lat="46.28992368467152118682861328125" lon="7.43551849387586116790771484375"><ele></ele><time>2020-9-19T13:58:36Z</time></trkpt>
<trkpt lat="46.28994178958237171173095703125" lon="7.43549703620374202728271484375"><ele></ele><time>2020-9-19T13:58:39Z</time></trkpt>
<trkpt lat="46.28995947539806365966796875" lon="7.43547406978905200958251953125"><ele></ele><time>2020-9-19T13:58:42Z</time></trkpt>
<trkpt lat="46.2899777479469776153564453125" lon="7.43545194156467914581298828125"><ele></ele><time>2020-9-19T13:58:45Z</time></trkpt>
<trkpt lat="46.289996691048145294189453125" lon="7.4354302324354648590087890625"><ele></ele><time>2020-9-19T13:58:48Z</time></trkpt>
<trkpt lat="46.29001555033028125762939453125" lon="7.4354094453155994415283203125"><ele></ele><time>2020-9-19T13:58:51Z</time></trkpt>
<trkpt lat="46.2900350801646709442138671875" lon="7.43539159186184406280517578125"><ele></ele><time>2020-9-19T13:58:54Z</time></trkpt>
<trkpt lat="46.2900551967322826385498046875" lon="7.43537432514131069183349609375"><ele></ele><time>2020-9-19T13:58:57Z</time></trkpt>
<trkpt lat="46.29007673822343349456787109375" lon="7.43535856716334819793701171875"><ele></ele><time>2020-9-19T13:59:0Z</time></trkpt>
<trkpt lat="46.29010003991425037384033203125" lon="7.4353464134037494659423828125"><ele></ele><time>2020-9-19T13:59:3Z</time></trkpt>
<trkpt lat="46.290122084319591522216796875" lon="7.4353326670825481414794921875"><ele></ele><time>2020-9-19T13:59:6Z</time></trkpt>
<trkpt lat="46.29014379344880580902099609375" lon="7.43531783111393451690673828125"><ele></ele><time>2020-9-19T13:59:9Z</time></trkpt>
<trkpt lat="46.2901648320257663726806640625" lon="7.435302995145320892333984375"><ele></ele><time>2020-9-19T13:59:12Z</time></trkpt>
<trkpt lat="46.2901862896978855133056640625" lon="7.43528924882411956787109375"><ele></ele><time>2020-9-19T13:59:15Z</time></trkpt>
<trkpt lat="46.2902082502841949462890625" lon="7.435276508331298828125"><ele></ele><time>2020-9-19T13:59:18Z</time></trkpt>
<trkpt lat="46.2902308814227581024169921875" lon="7.43526385165750980377197265625"><ele></ele><time>2020-9-19T13:59:21Z</time></trkpt>
<trkpt lat="46.29025259055197238922119140625" lon="7.43524977006018161773681640625"><ele></ele><time>2020-9-19T13:59:24Z</time></trkpt>
<trkpt lat="46.29027329385280609130859375" lon="7.435235269367694854736328125"><ele></ele><time>2020-9-19T13:59:27Z</time></trkpt>
<trkpt lat="46.290294416248798370361328125" lon="7.4352210201323032379150390625"><ele></ele><time>2020-9-19T13:59:30Z</time></trkpt>
<trkpt lat="46.29031612537801265716552734375" lon="7.43520836345851421356201171875"><ele></ele><time>2020-9-19T13:59:33Z</time></trkpt>
<trkpt lat="46.290338672697544097900390625" lon="7.435198388993740081787109375"><ele></ele><time>2020-9-19T13:59:36Z</time></trkpt>
<trkpt lat="46.29036172293126583099365234375" lon="7.43518992327153682708740234375"><ele></ele><time>2020-9-19T13:59:39Z</time></trkpt>
<trkpt lat="46.29038485698401927947998046875" lon="7.43518330156803131103515625"><ele></ele><time>2020-9-19T13:59:42Z</time></trkpt>
<trkpt lat="46.29040748812258243560791015625" lon="7.43517852388322353363037109375"><ele></ele><time>2020-9-19T13:59:45Z</time></trkpt>
<trkpt lat="46.29042978398501873016357421875" lon="7.43517584167420864105224609375"><ele></ele><time>2020-9-19T13:59:48Z</time></trkpt>
<trkpt lat="46.29045191220939159393310546875" lon="7.43517257273197174072265625"><ele></ele><time>2020-9-19T13:59:51Z</time></trkpt>
<trkpt lat="46.29047387279570102691650390625" lon="7.4351690523326396942138671875"><ele></ele><time>2020-9-19T13:59:54Z</time></trkpt>
<trkpt lat="46.29049616865813732147216796875" lon="7.435166873037815093994140625"><ele></ele><time>2020-9-19T13:59:57Z</time></trkpt>
<trkpt lat="46.29051796160638332366943359375" lon="7.43516662158071994781494140625"><ele></ele><time>2020-9-19T14:0:0Z</time></trkpt>
<trkpt lat="46.29053975455462932586669921875" lon="7.43516645394265651702880859375"><ele></ele><time>2020-9-19T14:0:3Z</time></trkpt>
<trkpt lat="46.2905609607696533203125" lon="7.4351667053997516632080078125"><ele></ele><time>2020-9-19T14:0:6Z</time></trkpt>
<trkpt lat="46.2905822508037090301513671875" lon="7.4351680465042591094970703125"><ele></ele><time>2020-9-19T14:0:9Z</time></trkpt>
<trkpt lat="46.29060328938066959381103515625" lon="7.43517064489424228668212890625"><ele></ele><time>2020-9-19T14:0:12Z</time></trkpt>
<trkpt lat="46.29062457941472530364990234375" lon="7.4351760931313037872314453125"><ele></ele><time>2020-9-19T14:0:15Z</time></trkpt>
<trkpt lat="46.2906459532678127288818359375" lon="7.43518305011093616485595703125"><ele></ele><time>2020-9-19T14:0:18Z</time></trkpt>
<trkpt lat="46.290667243301868438720703125" lon="7.43519059382379055023193359375"><ele></ele><time>2020-9-19T14:0:21Z</time></trkpt>
<trkpt lat="46.2906885333359241485595703125" lon="7.4351985566318035125732421875"><ele></ele><time>2020-9-19T14:0:24Z</time></trkpt>
<trkpt lat="46.29070940427482128143310546875" lon="7.4352062679827213287353515625"><ele></ele><time>2020-9-19T14:0:27Z</time></trkpt>
<trkpt lat="46.29072817973792552947998046875" lon="7.43521506898105144500732421875"><ele></ele><time>2020-9-19T14:0:30Z</time></trkpt>
<trkpt lat="46.290745697915554046630859375" lon="7.43522881530225276947021484375"><ele></ele><time>2020-9-19T14:0:33Z</time></trkpt>
<trkpt lat="46.2907606177031993865966796875" lon="7.43524809367954730987548828125"><ele></ele><time>2020-9-19T14:0:36Z</time></trkpt>
<trkpt lat="46.29077612422406673431396484375" lon="7.43527223356068134307861328125"><ele></ele><time>2020-9-19T14:0:39Z</time></trkpt>
<trkpt lat="46.29079255275428295135498046875" lon="7.43529729545116424560546875"><ele></ele><time>2020-9-19T14:0:42Z</time></trkpt>
<trkpt lat="46.29081116057932376861572265625" lon="7.43532453663647174835205078125"><ele></ele><time>2020-9-19T14:0:45Z</time></trkpt>
<trkpt lat="46.29083278588950634002685546875" lon="7.43535504676401615142822265625"><ele></ele><time>2020-9-19T14:0:48Z</time></trkpt>
<trkpt lat="46.29088810645043849945068359375" lon="7.4354070983827114105224609375"><ele></ele><time>2020-9-19T14:0:51Z</time></trkpt>
<trkpt lat="46.29091911949217319488525390625" lon="7.43541589938104152679443359375"><ele></ele><time>2020-9-19T14:0:54Z</time></trkpt>
<trkpt lat="46.29094812087714672088623046875" lon="7.4354144744575023651123046875"><ele></ele><time>2020-9-19T14:0:57Z</time></trkpt>
<trkpt lat="46.2909751944243907928466796875" lon="7.4354047514498233795166015625"><ele></ele><time>2020-9-19T14:1:0Z</time></trkpt>
<trkpt lat="46.2910010106861591339111328125" lon="7.43539980612695217132568359375"><ele></ele><time>2020-9-19T14:1:3Z</time></trkpt>
<trkpt lat="46.291025988757610321044921875" lon="7.43540047667920589447021484375"><ele></ele><time>2020-9-19T14:1:6Z</time></trkpt>
<trkpt lat="46.291048787534236907958984375" lon="7.43540634401142597198486328125"><ele></ele><time>2020-9-19T14:1:9Z</time></trkpt>
<trkpt lat="46.29106990993022918701171875" lon="7.4354154802858829498291015625"><ele></ele><time>2020-9-19T14:1:12Z</time></trkpt>
<trkpt lat="46.29108910448849201202392578125" lon="7.4354295618832111358642578125"><ele></ele><time>2020-9-19T14:1:15Z</time></trkpt>
<trkpt lat="46.29110570065677165985107421875" lon="7.43544892407953739166259765625"><ele></ele><time>2020-9-19T14:1:18Z</time></trkpt>
<trkpt lat="46.29112045280635356903076171875" lon="7.435472644865512847900390625"><ele></ele><time>2020-9-19T14:1:21Z</time></trkpt>
<trkpt lat="46.2911334447562694549560546875" lon="7.4354962818324565887451171875"><ele></ele><time>2020-9-19T14:1:24Z</time></trkpt>
<trkpt lat="46.29114023409783840179443359375" lon="7.4355247803032398223876953125"><ele></ele><time>2020-9-19T14:1:27Z</time></trkpt>
<trkpt lat="46.2911401502788066864013671875" lon="7.43555554188787937164306640625"><ele></ele><time>2020-9-19T14:1:30Z</time></trkpt>
<trkpt lat="46.29113034345209598541259765625" lon="7.43558521382510662078857421875"><ele></ele><time>2020-9-19T14:1:33Z</time></trkpt>
<trkpt lat="46.2911146692931652069091796875" lon="7.43561287410557270050048828125"><ele></ele><time>2020-9-19T14:1:36Z</time></trkpt>
<trkpt lat="46.29109673202037811279296875" lon="7.4356367625296115875244140625"><ele></ele><time>2020-9-19T14:1:39Z</time></trkpt>
<trkpt lat="46.29107720218598842620849609375" lon="7.43566048331558704376220703125"><ele></ele><time>2020-9-19T14:1:42Z</time></trkpt>
<trkpt lat="46.2910573370754718780517578125" lon="7.43568445555865764617919921875"><ele></ele><time>2020-9-19T14:1:45Z</time></trkpt>
<trkpt lat="46.29103763960301876068115234375" lon="7.435705997049808502197265625"><ele></ele><time>2020-9-19T14:1:48Z</time></trkpt>
<trkpt lat="46.29101752303540706634521484375" lon="7.43572586216032505035400390625"><ele></ele><time>2020-9-19T14:1:51Z</time></trkpt>
<trkpt lat="46.29099656827747821807861328125" lon="7.435744889080524444580078125"><ele></ele><time>2020-9-19T14:1:54Z</time></trkpt>
<trkpt lat="46.29097477532923221588134765625" lon="7.4357634969055652618408203125"><ele></ele><time>2020-9-19T14:1:57Z</time></trkpt>
<trkpt lat="46.2909530662000179290771484375" lon="7.43578218854963779449462890625"><ele></ele><time>2020-9-19T14:2:0Z</time></trkpt>
<trkpt lat="46.29093177616596221923828125" lon="7.435801215469837188720703125"><ele></ele><time>2020-9-19T14:2:3Z</time></trkpt>
<trkpt lat="46.2909114919602870941162109375" lon="7.43582175113260746002197265625"><ele></ele><time>2020-9-19T14:2:6Z</time></trkpt>
<trkpt lat="46.2908913753926753997802734375" lon="7.43584337644279003143310546875"><ele></ele><time>2020-9-19T14:2:9Z</time></trkpt>
<trkpt lat="46.2908719293773174285888671875" lon="7.435863912105560302734375"><ele></ele><time>2020-9-19T14:2:12Z</time></trkpt>
<trkpt lat="46.29085105843842029571533203125" lon="7.4358831904828548431396484375"><ele></ele><time>2020-9-19T14:2:15Z</time></trkpt>
<trkpt lat="46.29082926549017429351806640625" lon="7.43590087629854679107666015625"><ele></ele><time>2020-9-19T14:2:18Z</time></trkpt>
<trkpt lat="46.2908068858087062835693359375" lon="7.4359190650284290313720703125"><ele></ele><time>2020-9-19T14:2:21Z</time></trkpt>
<trkpt lat="46.29078517667949199676513671875" lon="7.435938678681850433349609375"><ele></ele><time>2020-9-19T14:2:24Z</time></trkpt>
<trkpt lat="46.2907646410167217254638671875" lon="7.435960806906223297119140625"><ele></ele><time>2020-9-19T14:2:27Z</time></trkpt>
<trkpt lat="46.290745027363300323486328125" lon="7.43598402477800846099853515625"><ele></ele><time>2020-9-19T14:2:30Z</time></trkpt>
<trkpt lat="46.29072532989084720611572265625" lon="7.43600648827850818634033203125"><ele></ele><time>2020-9-19T14:2:33Z</time></trkpt>
<trkpt lat="46.2907046265900135040283203125" lon="7.436027862131595611572265625"><ele></ele><time>2020-9-19T14:2:36Z</time></trkpt>
<trkpt lat="46.2906838394701480865478515625" lon="7.4360488168895244598388671875"><ele></ele><time>2020-9-19T14:2:39Z</time></trkpt>
<trkpt lat="46.290663219988346099853515625" lon="7.43606952019035816192626953125"><ele></ele><time>2020-9-19T14:2:42Z</time></trkpt>
<trkpt lat="46.2906429357826709747314453125" lon="7.436094246804714202880859375"><ele></ele><time>2020-9-19T14:2:45Z</time></trkpt>
<trkpt lat="46.29062466323375701904296875" lon="7.436121068894863128662109375"><ele></ele><time>2020-9-19T14:2:48Z</time></trkpt>
<trkpt lat="46.2906084023416042327880859375" lon="7.4361500702798366546630859375"><ele></ele><time>2020-9-19T14:2:51Z</time></trkpt>
<trkpt lat="46.29059323109686374664306640625" lon="7.436179406940937042236328125"><ele></ele><time>2020-9-19T14:2:54Z</time></trkpt>
<trkpt lat="46.29057814367115497589111328125" lon="7.436209581792354583740234375"><ele></ele><time>2020-9-19T14:2:57Z</time></trkpt>
<trkpt lat="46.29056473262608051300048828125" lon="7.43623967282474040985107421875"><ele></ele><time>2020-9-19T14:3:0Z</time></trkpt>
<trkpt lat="46.29055249504745006561279296875" lon="7.43627001531422138214111328125"><ele></ele><time>2020-9-19T14:3:3Z</time></trkpt>
<trkpt lat="46.29054243676364421844482421875" lon="7.43630069307982921600341796875"><ele></ele><time>2020-9-19T14:3:6Z</time></trkpt>
<trkpt lat="46.29053321667015552520751953125" lon="7.43633262813091278076171875"><ele></ele><time>2020-9-19T14:3:9Z</time></trkpt>
<trkpt lat="46.29052399657666683197021484375" lon="7.43636556901037693023681640625"><ele></ele><time>2020-9-19T14:3:12Z</time></trkpt>
<trkpt lat="46.29051444120705127716064453125" lon="7.4363981746137142181396484375"><ele></ele><time>2020-9-19T14:3:15Z</time></trkpt>
<trkpt lat="46.29050522111356258392333984375" lon="7.43643094785511493682861328125"><ele></ele><time>2020-9-19T14:3:18Z</time></trkpt>
<trkpt lat="46.29049499519169330596923828125" lon="7.436463050544261932373046875"><ele></ele><time>2020-9-19T14:3:21Z</time></trkpt>
<trkpt lat="46.29048384726047515869140625" lon="7.436495237052440643310546875"><ele></ele><time>2020-9-19T14:3:24Z</time></trkpt>
<trkpt lat="46.2904732860624790191650390625" lon="7.43652641773223876953125"><ele></ele><time>2020-9-19T14:3:27Z</time></trkpt>
<trkpt lat="46.2904628925025463104248046875" lon="7.4365581013262271881103515625"><ele></ele><time>2020-9-19T14:3:30Z</time></trkpt>
<trkpt lat="46.29045300185680389404296875" lon="7.4365894496440887451171875"><ele></ele><time>2020-9-19T14:3:33Z</time></trkpt>
<trkpt lat="46.29044227302074432373046875" lon="7.4366216361522674560546875"><ele></ele><time>2020-9-19T14:3:36Z</time></trkpt>
<trkpt lat="46.29043280147016048431396484375" lon="7.4366523139178752899169921875"><ele></ele><time>2020-9-19T14:3:39Z</time></trkpt>
<trkpt lat="46.290423832833766937255859375" lon="7.4366860091686248779296875"><ele></ele><time>2020-9-19T14:3:42Z</time></trkpt>
<trkpt lat="46.290414445102214813232421875" lon="7.436722218990325927734375"><ele></ele><time>2020-9-19T14:3:45Z</time></trkpt>
<trkpt lat="46.29040547646582126617431640625" lon="7.43675515986979007720947265625"><ele></ele><time>2020-9-19T14:3:48Z</time></trkpt>
<trkpt lat="46.29039692692458629608154296875" lon="7.43678550235927104949951171875"><ele></ele><time>2020-9-19T14:3:51Z</time></trkpt>
<trkpt lat="46.290388964116573333740234375" lon="7.4368176050484180450439453125"><ele></ele><time>2020-9-19T14:3:54Z</time></trkpt>
<trkpt lat="46.29037982784211635589599609375" lon="7.4368501268327236175537109375"><ele></ele><time>2020-9-19T14:3:57Z</time></trkpt>
<trkpt lat="46.29036909900605678558349609375" lon="7.4368813075125217437744140625"><ele></ele><time>2020-9-19T14:4:0Z</time></trkpt>
<trkpt lat="46.2903579510748386383056640625" lon="7.436911650002002716064453125"><ele></ele><time>2020-9-19T14:4:3Z</time></trkpt>
<trkpt lat="46.29034646786749362945556640625" lon="7.436943165957927703857421875"><ele></ele><time>2020-9-19T14:4:6Z</time></trkpt>
<trkpt lat="46.29033640958368778228759765625" lon="7.43697560392320156097412109375"><ele></ele><time>2020-9-19T14:4:9Z</time></trkpt>
<trkpt lat="46.29032651893794536590576171875" lon="7.4370080418884754180908203125"><ele></ele><time>2020-9-19T14:4:12Z</time></trkpt>
<trkpt lat="46.2903160415589809417724609375" lon="7.43703980930149555206298828125"><ele></ele><time>2020-9-19T14:4:15Z</time></trkpt>
<trkpt lat="46.29030506126582622528076171875" lon="7.4370707385241985321044921875"><ele></ele><time>2020-9-19T14:4:18Z</time></trkpt>
<trkpt lat="46.290294416248798370361328125" lon="7.437103092670440673828125"><ele></ele><time>2020-9-19T14:4:21Z</time></trkpt>
<trkpt lat="46.2902855314314365386962890625" lon="7.4371357820928096771240234375"><ele></ele><time>2020-9-19T14:4:24Z</time></trkpt>
<trkpt lat="46.29027790389955043792724609375" lon="7.43716855533421039581298828125"><ele></ele><time>2020-9-19T14:4:27Z</time></trkpt>
<trkpt lat="46.290269605815410614013671875" lon="7.43719990365207195281982421875"><ele></ele><time>2020-9-19T14:4:30Z</time></trkpt>
<trkpt lat="46.29026114009320735931396484375" lon="7.43723141960799694061279296875"><ele></ele><time>2020-9-19T14:4:33Z</time></trkpt>
<trkpt lat="46.290252842009067535400390625" lon="7.4372615106403827667236328125"><ele></ele><time>2020-9-19T14:4:36Z</time></trkpt>
<trkpt lat="46.29024303518235683441162109375" lon="7.4372923560440540313720703125"><ele></ele><time>2020-9-19T14:4:39Z</time></trkpt>
<trkpt lat="46.2902328930795192718505859375" lon="7.4373243749141693115234375"><ele></ele><time>2020-9-19T14:4:42Z</time></trkpt>
<trkpt lat="46.2902255170047283172607421875" lon="7.4373557232320308685302734375"><ele></ele><time>2020-9-19T14:4:45Z</time></trkpt>
<trkpt lat="46.29021939821541309356689453125" lon="7.43738849647343158721923828125"><ele></ele><time>2020-9-19T14:4:48Z</time></trkpt>
<trkpt lat="46.2902124412357807159423828125" lon="7.43742018006742000579833984375"><ele></ele><time>2020-9-19T14:4:51Z</time></trkpt>
<trkpt lat="46.290204562246799468994140625" lon="7.43745102547109127044677734375"><ele></ele><time>2020-9-19T14:4:54Z</time></trkpt>
<trkpt lat="46.29019626416265964508056640625" lon="7.4374801106750965118408203125"><ele></ele><time>2020-9-19T14:4:57Z</time></trkpt>
<trkpt lat="46.29018771462142467498779296875" lon="7.43750785477459430694580078125"><ele></ele><time>2020-9-19T14:5:0Z</time></trkpt>
<trkpt lat="46.29017966799437999725341796875" lon="7.4375354312360286712646484375"><ele></ele><time>2020-9-19T14:5:3Z</time></trkpt>
<trkpt lat="46.290171705186367034912109375" lon="7.43756501935422420501708984375"><ele></ele><time>2020-9-19T14:5:6Z</time></trkpt>
<trkpt lat="46.29016399383544921875" lon="7.43759267963469028472900390625"><ele></ele><time>2020-9-19T14:5:9Z</time></trkpt>
<trkpt lat="46.29015552811324596405029296875" lon="7.43761883117258548736572265625"><ele></ele><time>2020-9-19T14:5:12Z</time></trkpt>
<trkpt lat="46.290146224200725555419921875" lon="7.4376440607011318206787109375"><ele></ele><time>2020-9-19T14:5:15Z</time></trkpt>
<trkpt lat="46.290136165916919708251953125" lon="7.43767012841999530792236328125"><ele></ele><time>2020-9-19T14:5:18Z</time></trkpt>
<trkpt lat="46.29012635909020900726318359375" lon="7.437692843377590179443359375"><ele></ele><time>2020-9-19T14:5:21Z</time></trkpt>
<trkpt lat="46.290116049349308013916015625" lon="7.43771404959261417388916015625"><ele></ele><time>2020-9-19T14:5:24Z</time></trkpt>
<trkpt lat="46.29010607488453388214111328125" lon="7.43773332796990871429443359375"><ele></ele><time>2020-9-19T14:5:27Z</time></trkpt>
<trkpt lat="46.29009534604847431182861328125" lon="7.43775310926139354705810546875"><ele></ele><time>2020-9-19T14:5:30Z</time></trkpt>
<trkpt lat="46.29008260555565357208251953125" lon="7.43777163326740264892578125"><ele></ele><time>2020-9-19T14:5:33Z</time></trkpt>
<trkpt lat="46.2900662608444690704345703125" lon="7.4377875588834285736083984375"><ele></ele><time>2020-9-19T14:5:36Z</time></trkpt>
<trkpt lat="46.29004932940006256103515625" lon="7.43780038319528102874755859375"><ele></ele><time>2020-9-19T14:5:39Z</time></trkpt>
<trkpt lat="46.2900320626795291900634765625" lon="7.4378123693168163299560546875"><ele></ele><time>2020-9-19T14:5:42Z</time></trkpt>
<trkpt lat="46.29001521505415439605712890625" lon="7.43782385252416133880615234375"><ele></ele><time>2020-9-19T14:5:45Z</time></trkpt>
<trkpt lat="46.28999945707619190216064453125" lon="7.43783424608409404754638671875"><ele></ele><time>2020-9-19T14:5:48Z</time></trkpt>
<trkpt lat="46.289981938898563385009765625" lon="7.437844388186931610107421875"><ele></ele><time>2020-9-19T14:5:51Z</time></trkpt>
<trkpt lat="46.289963163435459136962890625" lon="7.43785335682332515716552734375"><ele></ele><time>2020-9-19T14:5:54Z</time></trkpt>
<trkpt lat="46.28994497470557689666748046875" lon="7.4378656782209873199462890625"><ele></ele><time>2020-9-19T14:5:57Z</time></trkpt>
<trkpt lat="46.28992770798504352569580078125" lon="7.43787682615220546722412109375"><ele></ele><time>2020-9-19T14:6:0Z</time></trkpt>
<trkpt lat="46.28991060890257358551025390625" lon="7.437885291874408721923828125"><ele></ele><time>2020-9-19T14:6:3Z</time></trkpt>
<trkpt lat="46.2898945994675159454345703125" lon="7.43789426051080226898193359375"><ele></ele><time>2020-9-19T14:6:6Z</time></trkpt>
<trkpt lat="46.28987892530858516693115234375" lon="7.43790817447006702423095703125"><ele></ele><time>2020-9-19T14:6:9Z</time></trkpt>
<trkpt lat="46.28986199386417865753173828125" lon="7.437925525009632110595703125"><ele></ele><time>2020-9-19T14:6:12Z</time></trkpt>
<trkpt lat="46.2898459844291210174560546875" lon="7.43794597685337066650390625"><ele></ele><time>2020-9-19T14:6:15Z</time></trkpt>
<trkpt lat="46.28983148373663425445556640625" lon="7.43796517141163349151611328125"><ele></ele><time>2020-9-19T14:6:18Z</time></trkpt>
<trkpt lat="46.28981807269155979156494140625" lon="7.437987215816974639892578125"><ele></ele><time>2020-9-19T14:6:21Z</time></trkpt>
<trkpt lat="46.289806924760341644287109375" lon="7.43801378645002841949462890625"><ele></ele><time>2020-9-19T14:6:24Z</time></trkpt>
<trkpt lat="46.289798207581043243408203125" lon="7.4380437098443508148193359375"><ele></ele><time>2020-9-19T14:6:27Z</time></trkpt>
<trkpt lat="46.28979384899139404296875" lon="7.438073046505451202392578125"><ele></ele><time>2020-9-19T14:6:30Z</time></trkpt>
<trkpt lat="46.28979259170591831207275390625" lon="7.43810347281396389007568359375"><ele></ele><time>2020-9-19T14:6:33Z</time></trkpt>
<trkpt lat="46.28979158587753772735595703125" lon="7.43813582696020603179931640625"><ele></ele><time>2020-9-19T14:6:36Z</time></trkpt>
<trkpt lat="46.2897909991443157196044921875" lon="7.4381684325635433197021484375"><ele></ele><time>2020-9-19T14:6:39Z</time></trkpt>
<trkpt lat="46.28979141823947429656982421875" lon="7.43819718249142169952392578125"><ele></ele><time>2020-9-19T14:6:42Z</time></trkpt>
<trkpt lat="46.28979477100074291229248046875" lon="7.43822651915252208709716796875"><ele></ele><time>2020-9-19T14:6:45Z</time></trkpt>
<trkpt lat="46.28979728557169437408447265625" lon="7.43825535289943218231201171875"><ele></ele><time>2020-9-19T14:6:48Z</time></trkpt>
<trkpt lat="46.28979577682912349700927734375" lon="7.4382864497601985931396484375"><ele></ele><time>2020-9-19T14:6:51Z</time></trkpt>
<trkpt lat="46.2897951900959014892578125" lon="7.4383152835071086883544921875"><ele></ele><time>2020-9-19T14:6:54Z</time></trkpt>
<trkpt lat="46.2897943519055843353271484375" lon="7.43834151886403560638427734375"><ele></ele><time>2020-9-19T14:6:57Z</time></trkpt>
<trkpt lat="46.28979259170591831207275390625" lon="7.43836867623031139373779296875"><ele></ele><time>2020-9-19T14:7:0Z</time></trkpt>
<trkpt lat="46.28979007713496685028076171875" lon="7.43839818052947521209716796875"><ele></ele><time>2020-9-19T14:7:3Z</time></trkpt>
<trkpt lat="46.2897879816591739654541015625" lon="7.438428439199924468994140625"><ele></ele><time>2020-9-19T14:7:6Z</time></trkpt>
<trkpt lat="46.289784796535968780517578125" lon="7.4384589493274688720703125"><ele></ele><time>2020-9-19T14:7:9Z</time></trkpt>
<trkpt lat="46.2897790968418121337890625" lon="7.438490130007266998291015625"><ele></ele><time>2020-9-19T14:7:12Z</time></trkpt>
<trkpt lat="46.289769373834133148193359375" lon="7.4385187961161136627197265625"><ele></ele><time>2020-9-19T14:7:15Z</time></trkpt>
<trkpt lat="46.28975319676101207733154296875" lon="7.4385420978069305419921875"><ele></ele><time>2020-9-19T14:7:18Z</time></trkpt>
<trkpt lat="46.2897323258221149444580078125" lon="7.438557185232639312744140625"><ele></ele><time>2020-9-19T14:7:21Z</time></trkpt>
<trkpt lat="46.28971078433096408843994140625" lon="7.43857420049607753753662109375"><ele></ele><time>2020-9-19T14:7:24Z</time></trkpt>
<trkpt lat="46.28968463279306888580322265625" lon="7.43859649635851383209228515625"><ele></ele><time>2020-9-19T14:7:27Z</time></trkpt>
<trkpt lat="46.289621181786060333251953125" lon="7.4386569298803806304931640625"><ele></ele><time>2020-9-19T14:7:30Z</time></trkpt>
<trkpt lat="46.289581954479217529296875" lon="7.43869272060692310333251953125"><ele></ele><time>2020-9-19T14:7:33Z</time></trkpt>
<trkpt lat="46.2894926033914089202880859375" lon="7.43878173641860485076904296875"><ele></ele><time>2020-9-19T14:7:36Z</time></trkpt>
<trkpt lat="46.2894476763904094696044921875" lon="7.43884393014013767242431640625"><ele></ele><time>2020-9-19T14:7:39Z</time></trkpt>
<trkpt lat="46.289403252303600311279296875" lon="7.4389134161174297332763671875"><ele></ele><time>2020-9-19T14:7:42Z</time></trkpt>
<trkpt lat="46.28925883211195468902587890625" lon="7.4391289986670017242431640625"><ele></ele><time>2020-9-19T14:7:45Z</time></trkpt>
<trkpt lat="46.28920820541679859161376953125" lon="7.4391906894743442535400390625"><ele></ele><time>2020-9-19T14:7:48Z</time></trkpt>
<trkpt lat="46.289152801036834716796875" lon="7.43924106471240520477294921875"><ele></ele><time>2020-9-19T14:7:51Z</time></trkpt>
<trkpt lat="46.2890979833900928497314453125" lon="7.4392651207745075225830078125"><ele></ele><time>2020-9-19T14:7:54Z</time></trkpt>
<trkpt lat="46.2890433333814144134521484375" lon="7.4392681382596492767333984375"><ele></ele><time>2020-9-19T14:7:57Z</time></trkpt>
<trkpt lat="46.2889876775443553924560546875" lon="7.43926453404128551483154296875"><ele></ele><time>2020-9-19T14:8:0Z</time></trkpt>
<trkpt lat="46.28893361426889896392822265625" lon="7.4392678029835224151611328125"><ele></ele><time>2020-9-19T14:8:3Z</time></trkpt>
<trkpt lat="46.288883574306964874267578125" lon="7.43927425704896450042724609375"><ele></ele><time>2020-9-19T14:8:6Z</time></trkpt>
<trkpt lat="46.288839317858219146728515625" lon="7.4392781965434551239013671875"><ele></ele><time>2020-9-19T14:8:9Z</time></trkpt>
<trkpt lat="46.288799084722995758056640625" lon="7.43927878327667713165283203125"><ele></ele><time>2020-9-19T14:8:12Z</time></trkpt>
<trkpt lat="46.2887625396251678466796875" lon="7.4392802082002162933349609375"><ele></ele><time>2020-9-19T14:8:15Z</time></trkpt>
<trkpt lat="46.2887288443744182586669921875" lon="7.43928439915180206298828125"><ele></ele><time>2020-9-19T14:8:18Z</time></trkpt>
<trkpt lat="46.2886969931423664093017578125" lon="7.43929051794111728668212890625"><ele></ele><time>2020-9-19T14:8:21Z</time></trkpt>
<trkpt lat="46.28866665065288543701171875" lon="7.439298145473003387451171875"><ele></ele><time>2020-9-19T14:8:24Z</time></trkpt>
<trkpt lat="46.288636140525341033935546875" lon="7.4393117241561412811279296875"><ele></ele><time>2020-9-19T14:8:27Z</time></trkpt>
<trkpt lat="46.28860789351165294647216796875" lon="7.43932597339153289794921875"><ele></ele><time>2020-9-19T14:8:30Z</time></trkpt>
<trkpt lat="46.2885801494121551513671875" lon="7.43934315629303455352783203125"><ele></ele><time>2020-9-19T14:8:33Z</time></trkpt>
<trkpt lat="46.2885528244078159332275390625" lon="7.439363189041614532470703125"><ele></ele><time>2020-9-19T14:8:36Z</time></trkpt>
<trkpt lat="46.2885266728699207305908203125" lon="7.4393864907324314117431640625"><ele></ele><time>2020-9-19T14:8:39Z</time></trkpt>
<trkpt lat="46.288501359522342681884765625" lon="7.43941104970872402191162109375"><ele></ele><time>2020-9-19T14:8:42Z</time></trkpt>
<trkpt lat="46.288479231297969818115234375" lon="7.4394397996366024017333984375"><ele></ele><time>2020-9-19T14:8:45Z</time></trkpt>
<trkpt lat="46.2884612940251827239990234375" lon="7.43947357870638370513916015625"><ele></ele><time>2020-9-19T14:8:48Z</time></trkpt>
<trkpt lat="46.28844914026558399200439453125" lon="7.43951163254678249359130859375"><ele></ele><time>2020-9-19T14:8:51Z</time></trkpt>
<trkpt lat="46.28843908198177814483642578125" lon="7.439552284777164459228515625"><ele></ele><time>2020-9-19T14:8:54Z</time></trkpt>
<trkpt lat="46.28843053244054317474365234375" lon="7.439592182636260986328125"><ele></ele><time>2020-9-19T14:8:57Z</time></trkpt>
<trkpt lat="46.28842097707092761993408203125" lon="7.43963216431438922882080078125"><ele></ele><time>2020-9-19T14:9:0Z</time></trkpt>
<trkpt lat="46.288410834968090057373046875" lon="7.43967172689735889434814453125"><ele></ele><time>2020-9-19T14:9:3Z</time></trkpt>
<trkpt lat="46.28839910030364990234375" lon="7.43970793671905994415283203125"><ele></ele><time>2020-9-19T14:9:6Z</time></trkpt>
<trkpt lat="46.28838728182017803192138671875" lon="7.439740709960460662841796875"><ele></ele><time>2020-9-19T14:9:9Z</time></trkpt>
<trkpt lat="46.28837219439446926116943359375" lon="7.43977298028767108917236328125"><ele></ele><time>2020-9-19T14:9:12Z</time></trkpt>
<trkpt lat="46.288355179131031036376953125" lon="7.4398054182529449462890625"><ele></ele><time>2020-9-19T14:9:15Z</time></trkpt>
<trkpt lat="46.28833631984889507293701171875" lon="7.4398330785334110260009765625"><ele></ele><time>2020-9-19T14:9:18Z</time></trkpt>
<trkpt lat="46.28831469453871250152587890625" lon="7.43985378183424472808837890625"><ele></ele><time>2020-9-19T14:9:21Z</time></trkpt>
<trkpt lat="46.28829038701951503753662109375" lon="7.439864091575145721435546875"><ele></ele><time>2020-9-19T14:9:24Z</time></trkpt>
<trkpt lat="46.2882649898529052734375" lon="7.4398699589073657989501953125"><ele></ele><time>2020-9-19T14:9:27Z</time></trkpt>
<trkpt lat="46.28823774866759777069091796875" lon="7.4398733116686344146728515625"><ele></ele><time>2020-9-19T14:9:30Z</time></trkpt>
<trkpt lat="46.28820774145424365997314453125" lon="7.43987238965928554534912109375"><ele></ele><time>2020-9-19T14:9:33Z</time></trkpt>
<trkpt lat="46.28817706368863582611083984375" lon="7.43987238965928554534912109375"><ele></ele><time>2020-9-19T14:9:36Z</time></trkpt>
<trkpt lat="46.28814630210399627685546875" lon="7.43987004272639751434326171875"><ele></ele><time>2020-9-19T14:9:39Z</time></trkpt>
<trkpt lat="46.28811554051935672760009765625" lon="7.43986912071704864501953125"><ele></ele><time>2020-9-19T14:9:42Z</time></trkpt>
<trkpt lat="46.288084276020526885986328125" lon="7.43987021036446094512939453125"><ele></ele><time>2020-9-19T14:9:45Z</time></trkpt>
<trkpt lat="46.288052760064601898193359375" lon="7.43987104855477809906005859375"><ele></ele><time>2020-9-19T14:9:48Z</time></trkpt>
<trkpt lat="46.28784514032304286956787109375" lon="7.439884878695011138916015625"><ele></ele><time>2020-9-19T14:9:51Z</time></trkpt>
<trkpt lat="46.28776886500418186187744140625" lon="7.439903654158115386962890625"><ele></ele><time>2020-9-19T14:9:54Z</time></trkpt>
<trkpt lat="46.28765990026295185089111328125" lon="7.439950592815876007080078125"><ele></ele><time>2020-9-19T14:9:57Z</time></trkpt>
<trkpt lat="46.28762586973607540130615234375" lon="7.4399681948125362396240234375"><ele></ele><time>2020-9-19T14:10:0Z</time></trkpt>
<trkpt lat="46.2875935994088649749755859375" lon="7.43998906575143337249755859375"><ele></ele><time>2020-9-19T14:10:3Z</time></trkpt>
<trkpt lat="46.28756225109100341796875" lon="7.44001169688999652862548828125"><ele></ele><time>2020-9-19T14:10:6Z</time></trkpt>
<trkpt lat="46.2875322438776493072509765625" lon="7.44003483094274997711181640625"><ele></ele><time>2020-9-19T14:10:9Z</time></trkpt>
<trkpt lat="46.287504918873310089111328125" lon="7.440059222280979156494140625"><ele></ele><time>2020-9-19T14:10:12Z</time></trkpt>
<trkpt lat="46.2874777615070343017578125" lon="7.4400818534195423126220703125"><ele></ele><time>2020-9-19T14:10:15Z</time></trkpt>
<trkpt lat="46.28745320253074169158935546875" lon="7.44010792113840579986572265625"><ele></ele><time>2020-9-19T14:10:18Z</time></trkpt>
<trkpt lat="46.287432499229907989501953125" lon="7.4401341564953327178955078125"><ele></ele><time>2020-9-19T14:10:21Z</time></trkpt>
<trkpt lat="46.28741263411939144134521484375" lon="7.44015838019549846649169921875"><ele></ele><time>2020-9-19T14:10:24Z</time></trkpt>
<trkpt lat="46.28739503212273120880126953125" lon="7.4401867948472499847412109375"><ele></ele><time>2020-9-19T14:10:27Z</time></trkpt>
<trkpt lat="46.28737826831638813018798828125" lon="7.44021604768931865692138671875"><ele></ele><time>2020-9-19T14:10:30Z</time></trkpt>
<trkpt lat="46.2873619236052036285400390625" lon="7.4402434565126895904541015625"><ele></ele><time>2020-9-19T14:10:33Z</time></trkpt>
<trkpt lat="46.28734407015144824981689453125" lon="7.4402692727744579315185546875"><ele></ele><time>2020-9-19T14:10:36Z</time></trkpt>
<trkpt lat="46.28732697106897830963134765625" lon="7.4402964301407337188720703125"><ele></ele><time>2020-9-19T14:10:39Z</time></trkpt>
<trkpt lat="46.2873123027384281158447265625" lon="7.4403235875070095062255859375"><ele></ele><time>2020-9-19T14:10:42Z</time></trkpt>
<trkpt lat="46.2872985564172267913818359375" lon="7.44035116396844387054443359375"><ele></ele><time>2020-9-19T14:10:45Z</time></trkpt>
<trkpt lat="46.2872854806482791900634765625" lon="7.44037966243922710418701171875"><ele></ele><time>2020-9-19T14:10:48Z</time></trkpt>
<trkpt lat="46.28727232106029987335205078125" lon="7.44040816091001033782958984375"><ele></ele><time>2020-9-19T14:10:51Z</time></trkpt>
<trkpt lat="46.2872576527297496795654296875" lon="7.4404355697333812713623046875"><ele></ele><time>2020-9-19T14:10:54Z</time></trkpt>
<trkpt lat="46.287242062389850616455078125" lon="7.4404650740325450897216796875"><ele></ele><time>2020-9-19T14:10:57Z</time></trkpt>
<trkpt lat="46.28722672350704669952392578125" lon="7.44049600325524806976318359375"><ele></ele><time>2020-9-19T14:11:0Z</time></trkpt>
<trkpt lat="46.2872087024152278900146484375" lon="7.440527938306331634521484375"><ele></ele><time>2020-9-19T14:11:3Z</time></trkpt>
<trkpt lat="46.2871872447431087493896484375" lon="7.44056372903287410736083984375"><ele></ele><time>2020-9-19T14:11:6Z</time></trkpt>
<trkpt lat="46.2871641106903553009033203125" lon="7.4406042136251926422119140625"><ele></ele><time>2020-9-19T14:11:9Z</time></trkpt>
<trkpt lat="46.28713519312441349029541015625" lon="7.44064670987427234649658203125"><ele></ele><time>2020-9-19T14:11:12Z</time></trkpt>
<trkpt lat="46.28709780983626842498779296875" lon="7.44069113396108150482177734375"><ele></ele><time>2020-9-19T14:11:15Z</time></trkpt>
<trkpt lat="46.2870541401207447052001953125" lon="7.440735809504985809326171875"><ele></ele><time>2020-9-19T14:11:18Z</time></trkpt>
<trkpt lat="46.2870110571384429931640625" lon="7.440771348774433135986328125"><ele></ele><time>2020-9-19T14:11:21Z</time></trkpt>
<trkpt lat="46.286966800689697265625" lon="7.44078299961984157562255859375"><ele></ele><time>2020-9-19T14:11:24Z</time></trkpt>
<trkpt lat="46.2869213707745075225830078125" lon="7.4407752044498920440673828125"><ele></ele><time>2020-9-19T14:11:27Z</time></trkpt>
<trkpt lat="46.2868848256766796112060546875" lon="7.44075651280581951141357421875"><ele></ele><time>2020-9-19T14:11:30Z</time></trkpt>
<trkpt lat="46.28686127252876758575439453125" lon="7.4407332949340343475341796875"><ele></ele><time>2020-9-19T14:11:33Z</time></trkpt>
<trkpt lat="46.28684333525598049163818359375" lon="7.4407115019857883453369140625"><ele></ele><time>2020-9-19T14:11:36Z</time></trkpt>
<trkpt lat="46.28682422451674938201904296875" lon="7.44069448672235012054443359375"><ele></ele><time>2020-9-19T14:11:39Z</time></trkpt>
<trkpt lat="46.28680192865431308746337890625" lon="7.44067839346826076507568359375"><ele></ele><time>2020-9-19T14:11:42Z</time></trkpt>
<trkpt lat="46.28677912987768650054931640625" lon="7.44066984392702579498291015625"><ele></ele><time>2020-9-19T14:11:45Z</time></trkpt>
<trkpt lat="46.286754570901393890380859375" lon="7.44066280312836170196533203125"><ele></ele><time>2020-9-19T14:11:48Z</time></trkpt>
<trkpt lat="46.2867294251918792724609375" lon="7.440658025443553924560546875"><ele></ele><time>2020-9-19T14:11:51Z</time></trkpt>
<trkpt lat="46.28670771606266498565673828125" lon="7.44065877981483936309814453125"><ele></ele><time>2020-9-19T14:11:54Z</time></trkpt>
<trkpt lat="46.28668458200991153717041015625" lon="7.4406598694622516632080078125"><ele></ele><time>2020-9-19T14:11:57Z</time></trkpt>
<trkpt lat="46.2866622023284435272216796875" lon="7.44066112674772739410400390625"><ele></ele><time>2020-9-19T14:12:0Z</time></trkpt>
<trkpt lat="46.286639235913753509521484375" lon="7.440657354891300201416015625"><ele></ele><time>2020-9-19T14:12:3Z</time></trkpt>
<trkpt lat="46.2866179458796977996826171875" lon="7.440658695995807647705078125"><ele></ele><time>2020-9-19T14:12:6Z</time></trkpt>
<trkpt lat="46.2865964882075786590576171875" lon="7.44065978564321994781494140625"><ele></ele><time>2020-9-19T14:12:9Z</time></trkpt>
<trkpt lat="46.28657377324998378753662109375" lon="7.44065827690064907073974609375"><ele></ele><time>2020-9-19T14:12:12Z</time></trkpt>
<trkpt lat="46.2865505553781986236572265625" lon="7.440654672682285308837890625"><ele></ele><time>2020-9-19T14:12:15Z</time></trkpt>
<trkpt lat="46.28652666695415973663330078125" lon="7.4406528286635875701904296875"><ele></ele><time>2020-9-19T14:12:18Z</time></trkpt>
<trkpt lat="46.28650252707302570343017578125" lon="7.4406521581113338470458984375"><ele></ele><time>2020-9-19T14:12:21Z</time></trkpt>
<trkpt lat="46.286481320858001708984375" lon="7.4406511522829532623291015625"><ele></ele><time>2020-9-19T14:12:24Z</time></trkpt>
<trkpt lat="46.2864607013761997222900390625" lon="7.44064704515039920806884765625"><ele></ele><time>2020-9-19T14:12:27Z</time></trkpt>
<trkpt lat="46.28643983043730258941650390625" lon="7.4406474642455577850341796875"><ele></ele><time>2020-9-19T14:12:30Z</time></trkpt>
<trkpt lat="46.2864164449274539947509765625" lon="7.440643273293972015380859375"><ele></ele><time>2020-9-19T14:12:33Z</time></trkpt>
<trkpt lat="46.28639356233179569244384765625" lon="7.44064251892268657684326171875"><ele></ele><time>2020-9-19T14:12:36Z</time></trkpt>
<trkpt lat="46.28637243993580341339111328125" lon="7.44064562022686004638671875"><ele></ele><time>2020-9-19T14:12:39Z</time></trkpt>
<trkpt lat="46.28635198809206485748291015625" lon="7.44064788334071636199951171875"><ele></ele><time>2020-9-19T14:12:42Z</time></trkpt>
<trkpt lat="46.2863289378583431243896484375" lon="7.44064771570265293121337890625"><ele></ele><time>2020-9-19T14:12:45Z</time></trkpt>
<trkpt lat="46.28630655817687511444091796875" lon="7.44064855389297008514404296875"><ele></ele><time>2020-9-19T14:12:48Z</time></trkpt>
<trkpt lat="46.286286525428295135498046875" lon="7.4406488053500652313232421875"><ele></ele><time>2020-9-19T14:12:51Z</time></trkpt>
<trkpt lat="46.2862654030323028564453125" lon="7.4406444467604160308837890625"><ele></ele><time>2020-9-19T14:12:54Z</time></trkpt>
<trkpt lat="46.2862431071698665618896484375" lon="7.44064025580883026123046875"><ele></ele><time>2020-9-19T14:12:57Z</time></trkpt>
<trkpt lat="46.2862213142216205596923828125" lon="7.44063681922852993011474609375"><ele></ele><time>2020-9-19T14:13:0Z</time></trkpt>
<trkpt lat="46.286198683083057403564453125" lon="7.44063296355307102203369140625"><ele></ele><time>2020-9-19T14:13:3Z</time></trkpt>
<trkpt lat="46.28617621958255767822265625" lon="7.44063028134405612945556640625"><ele></ele><time>2020-9-19T14:13:6Z</time></trkpt>
<trkpt lat="46.28615534864366054534912109375" lon="7.44063078425824642181396484375"><ele></ele><time>2020-9-19T14:13:9Z</time></trkpt>
<trkpt lat="46.28613355569541454315185546875" lon="7.44063145481050014495849609375"><ele></ele><time>2020-9-19T14:13:12Z</time></trkpt>
<trkpt lat="46.28611293621361255645751953125" lon="7.44063111953437328338623046875"><ele></ele><time>2020-9-19T14:13:15Z</time></trkpt>
<trkpt lat="46.28609214909374713897705078125" lon="7.44062676094472408294677734375"><ele></ele><time>2020-9-19T14:13:18Z</time></trkpt>
<trkpt lat="46.2860701046884059906005859375" lon="7.4406261742115020751953125"><ele></ele><time>2020-9-19T14:13:21Z</time></trkpt>
<trkpt lat="46.286047138273715972900390625" lon="7.4406260065734386444091796875"><ele></ele><time>2020-9-19T14:13:24Z</time></trkpt>
<trkpt lat="46.2860238365828990936279296875" lon="7.44062592275440692901611328125"><ele></ele><time>2020-9-19T14:13:27Z</time></trkpt>
<trkpt lat="46.2860012054443359375" lon="7.44062424637377262115478515625"><ele></ele><time>2020-9-19T14:13:30Z</time></trkpt>
<trkpt lat="46.28597681410610675811767578125" lon="7.44062324054539203643798828125"><ele></ele><time>2020-9-19T14:13:33Z</time></trkpt>
<trkpt lat="46.28595133312046527862548828125" lon="7.44062550365924835205078125"><ele></ele><time>2020-9-19T14:13:36Z</time></trkpt>
<trkpt lat="46.28592702560126781463623046875" lon="7.4406323768198490142822265625"><ele></ele><time>2020-9-19T14:13:39Z</time></trkpt>
<trkpt lat="46.28590271808207035064697265625" lon="7.4406390823423862457275390625"><ele></ele><time>2020-9-19T14:13:42Z</time></trkpt>
<trkpt lat="46.28587941639125347137451171875" lon="7.4406451173126697540283203125"><ele></ele><time>2020-9-19T14:13:45Z</time></trkpt>
<trkpt lat="46.2858572043478488922119140625" lon="7.44064453057944774627685546875"><ele></ele><time>2020-9-19T14:13:48Z</time></trkpt>
<trkpt lat="46.28583465702831745147705078125" lon="7.4406454525887966156005859375"><ele></ele><time>2020-9-19T14:13:51Z</time></trkpt>
<trkpt lat="46.28581236116588115692138671875" lon="7.44064805097877979278564453125"><ele></ele><time>2020-9-19T14:13:54Z</time></trkpt>
<trkpt lat="46.28578989766538143157958984375" lon="7.44065995328128337860107421875"><ele></ele><time>2020-9-19T14:13:57Z</time></trkpt>
<trkpt lat="46.2857670150697231292724609375" lon="7.4406664073467254638671875"><ele></ele><time>2020-9-19T14:14:0Z</time></trkpt>
<trkpt lat="46.2857442162930965423583984375" lon="7.44067286141216754913330078125"><ele></ele><time>2020-9-19T14:14:3Z</time></trkpt>
<trkpt lat="46.28572200424969196319580078125" lon="7.440683506429195404052734375"><ele></ele><time>2020-9-19T14:14:6Z</time></trkpt>
<trkpt lat="46.28570012748241424560546875" lon="7.440694905817508697509765625"><ele></ele><time>2020-9-19T14:14:9Z</time></trkpt>
<trkpt lat="46.28567791543900966644287109375" lon="7.44070186279714107513427734375"><ele></ele><time>2020-9-19T14:14:12Z</time></trkpt>
<trkpt lat="46.285656206309795379638671875" lon="7.44070840068161487579345703125"><ele></ele><time>2020-9-19T14:14:15Z</time></trkpt>
<trkpt lat="46.2856345809996128082275390625" lon="7.44071133434772491455078125"><ele></ele><time>2020-9-19T14:14:18Z</time></trkpt>
<trkpt lat="46.28561320714652538299560546875" lon="7.4407178722321987152099609375"><ele></ele><time>2020-9-19T14:14:21Z</time></trkpt>
<trkpt lat="46.28558881580829620361328125" lon="7.4407232366502285003662109375"><ele></ele><time>2020-9-19T14:14:24Z</time></trkpt>
<trkpt lat="46.28556593321263790130615234375" lon="7.44073052890598773956298828125"><ele></ele><time>2020-9-19T14:14:27Z</time></trkpt>
<trkpt lat="46.28554590046405792236328125" lon="7.4407379887998104095458984375"><ele></ele><time>2020-9-19T14:14:30Z</time></trkpt>
<trkpt lat="46.28552704118192195892333984375" lon="7.440744526684284210205078125"><ele></ele><time>2020-9-19T14:14:33Z</time></trkpt>
<trkpt lat="46.28550927154719829559326171875" lon="7.4407500587403774261474609375"><ele></ele><time>2020-9-19T14:14:36Z</time></trkpt>
<trkpt lat="46.2854941003024578094482421875" lon="7.44075751863420009613037109375"><ele></ele><time>2020-9-19T14:14:39Z</time></trkpt>
<trkpt lat="46.28547884523868560791015625" lon="7.44076724164187908172607421875"><ele></ele><time>2020-9-19T14:14:42Z</time></trkpt>
<trkpt lat="46.28546275198459625244140625" lon="7.44077780283987522125244140625"><ele></ele><time>2020-9-19T14:14:45Z</time></trkpt>
<trkpt lat="46.2854451499879360198974609375" lon="7.44078517891466617584228515625"><ele></ele><time>2020-9-19T14:14:48Z</time></trkpt>
<trkpt lat="46.28542629070580005645751953125" lon="7.44078417308628559112548828125"><ele></ele><time>2020-9-19T14:14:51Z</time></trkpt>
<trkpt lat="46.285407431423664093017578125" lon="7.44078484363853931427001953125"><ele></ele><time>2020-9-19T14:14:54Z</time></trkpt>
<trkpt lat="46.28538924269378185272216796875" lon="7.4407882802188396453857421875"><ele></ele><time>2020-9-19T14:14:57Z</time></trkpt>
<trkpt lat="46.28537097014486789703369140625" lon="7.4407951533794403076171875"><ele></ele><time>2020-9-19T14:15:0Z</time></trkpt>
<trkpt lat="46.285351775586605072021484375" lon="7.4407986737787723541259765625"><ele></ele><time>2020-9-19T14:15:3Z</time></trkpt>
<trkpt lat="46.28533375449478626251220703125" lon="7.4408040381968021392822265625"><ele></ele><time>2020-9-19T14:15:6Z</time></trkpt>
<trkpt lat="46.285314895212650299072265625" lon="7.440806217491626739501953125"><ele></ele><time>2020-9-19T14:15:9Z</time></trkpt>
<trkpt lat="46.2852949462831020355224609375" lon="7.44081267155706882476806640625"><ele></ele><time>2020-9-19T14:15:12Z</time></trkpt>
<trkpt lat="46.28527558408677577972412109375" lon="7.44081325829029083251953125"><ele></ele><time>2020-9-19T14:15:15Z</time></trkpt>
<trkpt lat="46.28525764681398868560791015625" lon="7.4408192932605743408203125"><ele></ele><time>2020-9-19T14:15:18Z</time></trkpt>
<trkpt lat="46.2852409668266773223876953125" lon="7.4408208020031452178955078125"><ele></ele><time>2020-9-19T14:15:21Z</time></trkpt>
<trkpt lat="46.28522378392517566680908203125" lon="7.44082340039312839508056640625"><ele></ele><time>2020-9-19T14:15:24Z</time></trkpt>
<trkpt lat="46.28520525991916656494140625" lon="7.4408251605927944183349609375"><ele></ele><time>2020-9-19T14:15:27Z</time></trkpt>
<trkpt lat="46.2851873226463794708251953125" lon="7.440829686820507049560546875"><ele></ele><time>2020-9-19T14:15:30Z</time></trkpt>
<trkpt lat="46.2851718999445438385009765625" lon="7.44083479978144168853759765625"><ele></ele><time>2020-9-19T14:15:33Z</time></trkpt>
<trkpt lat="46.2851549685001373291015625" lon="7.44083580560982227325439453125"><ele></ele><time>2020-9-19T14:15:36Z</time></trkpt>
<trkpt lat="46.28513644449412822723388671875" lon="7.44084234349429607391357421875"><ele></ele><time>2020-9-19T14:15:39Z</time></trkpt>
<trkpt lat="46.285119093954563140869140625" lon="7.44084670208394527435302734375"><ele></ele><time>2020-9-19T14:15:42Z</time></trkpt>
<trkpt lat="46.28510325215756893157958984375" lon="7.440849132835865020751953125"><ele></ele><time>2020-9-19T14:15:45Z</time></trkpt>
<trkpt lat="46.28508766181766986846923828125" lon="7.44085357524454593658447265625"><ele></ele><time>2020-9-19T14:15:48Z</time></trkpt>
<trkpt lat="46.285070143640041351318359375" lon="7.4408541619777679443359375"><ele></ele><time>2020-9-19T14:15:51Z</time></trkpt>
<trkpt lat="46.28505245782434940338134765625" lon="7.44085541926324367523193359375"><ele></ele><time>2020-9-19T14:15:54Z</time></trkpt>
<trkpt lat="46.28503569401800632476806640625" lon="7.4408622086048126220703125"><ele></ele><time>2020-9-19T14:15:57Z</time></trkpt>
<trkpt lat="46.28501876257359981536865234375" lon="7.4408653937280178070068359375"><ele></ele><time>2020-9-19T14:16:0Z</time></trkpt>
<trkpt lat="46.28499931655824184417724609375" lon="7.44086463935673236846923828125"><ele></ele><time>2020-9-19T14:16:3Z</time></trkpt>
<trkpt lat="46.28498263657093048095703125" lon="7.4408694170415401458740234375"><ele></ele><time>2020-9-19T14:16:6Z</time></trkpt>
<trkpt lat="46.28496729768812656402587890625" lon="7.44087251834571361541748046875"><ele></ele><time>2020-9-19T14:16:9Z</time></trkpt>
<trkpt lat="46.28494952805340290069580078125" lon="7.4408687464892864227294921875"><ele></ele><time>2020-9-19T14:16:12Z</time></trkpt>
<trkpt lat="46.28493326716125011444091796875" lon="7.440870590507984161376953125"><ele></ele><time>2020-9-19T14:16:15Z</time></trkpt>
<trkpt lat="46.2849201075732707977294921875" lon="7.44087352417409420013427734375"><ele></ele><time>2020-9-19T14:16:18Z</time></trkpt>
<trkpt lat="46.28490485250949859619140625" lon="7.44087184779345989227294921875"><ele></ele><time>2020-9-19T14:16:21Z</time></trkpt>
<trkpt lat="46.28488716669380664825439453125" lon="7.440869919955730438232421875"><ele></ele><time>2020-9-19T14:16:24Z</time></trkpt>
<trkpt lat="46.2848704867064952850341796875" lon="7.44086648337543010711669921875"><ele></ele><time>2020-9-19T14:16:27Z</time></trkpt>
<trkpt lat="46.28485430963337421417236328125" lon="7.44086631573736667633056640625"><ele></ele><time>2020-9-19T14:16:30Z</time></trkpt>
<trkpt lat="46.28483712673187255859375" lon="7.44086530990898609161376953125"><ele></ele><time>2020-9-19T14:16:33Z</time></trkpt>
<trkpt lat="46.28482312895357608795166015625" lon="7.4408674053847789764404296875"><ele></ele><time>2020-9-19T14:16:36Z</time></trkpt>
<trkpt lat="46.284809298813343048095703125" lon="7.4408704228699207305908203125"><ele></ele><time>2020-9-19T14:16:39Z</time></trkpt>
<trkpt lat="46.28479664213955402374267578125" lon="7.44087385945022106170654296875"><ele></ele><time>2020-9-19T14:16:42Z</time></trkpt>
<trkpt lat="46.28478574566543102264404296875" lon="7.4408774636685848236083984375"><ele></ele><time>2020-9-19T14:16:45Z</time></trkpt>
<trkpt lat="46.2847719155251979827880859375" lon="7.4408764578402042388916015625"><ele></ele><time>2020-9-19T14:16:48Z</time></trkpt>
<trkpt lat="46.284754984080791473388671875" lon="7.4408784694969654083251953125"><ele></ele><time>2020-9-19T14:16:51Z</time></trkpt>
<trkpt lat="46.2847383879125118255615234375" lon="7.44087905623018741607666015625"><ele></ele><time>2020-9-19T14:16:54Z</time></trkpt>
<trkpt lat="46.28472204320132732391357421875" lon="7.440889365971088409423828125"><ele></ele><time>2020-9-19T14:16:57Z</time></trkpt>
<trkpt lat="46.28470628522336483001708984375" lon="7.44089297018945217132568359375"><ele></ele><time>2020-9-19T14:17:0Z</time></trkpt>
<trkpt lat="46.284688599407672882080078125" lon="7.44090034626424312591552734375"><ele></ele><time>2020-9-19T14:17:3Z</time></trkpt>
<trkpt lat="46.28467082977294921875" lon="7.44090872816741466522216796875"><ele></ele><time>2020-9-19T14:17:6Z</time></trkpt>
<trkpt lat="46.28464979119598865509033203125" lon="7.440922893583774566650390625"><ele></ele><time>2020-9-19T14:17:9Z</time></trkpt>
<trkpt lat="46.284628249704837799072265625" lon="7.44093672372400760650634765625"><ele></ele><time>2020-9-19T14:17:12Z</time></trkpt>
<trkpt lat="46.28460939042270183563232421875" lon="7.4409502185881137847900390625"><ele></ele><time>2020-9-19T14:17:15Z</time></trkpt>
<trkpt lat="46.28458877094089984893798828125" lon="7.4409559182822704315185546875"><ele></ele><time>2020-9-19T14:17:18Z</time></trkpt>
<trkpt lat="46.28456848673522472381591796875" lon="7.440963797271251678466796875"><ele></ele><time>2020-9-19T14:17:21Z</time></trkpt>
<trkpt lat="46.28455423749983310699462890625" lon="7.4409770406782627105712890625"><ele></ele><time>2020-9-19T14:17:24Z</time></trkpt>
<trkpt lat="46.28454015590250492095947265625" lon="7.44099472649395465850830078125"><ele></ele><time>2020-9-19T14:17:27Z</time></trkpt>
<trkpt lat="46.28452490083873271942138671875" lon="7.4410052038729190826416015625"><ele></ele><time>2020-9-19T14:17:30Z</time></trkpt>
<trkpt lat="46.284510903060436248779296875" lon="7.441014759242534637451171875"><ele></ele><time>2020-9-19T14:17:33Z</time></trkpt>
<trkpt lat="46.28449724055826663970947265625" lon="7.441028840839862823486328125"><ele></ele><time>2020-9-19T14:17:36Z</time></trkpt>
<trkpt lat="46.28448131494224071502685546875" lon="7.44104200042784214019775390625"><ele></ele><time>2020-9-19T14:17:39Z</time></trkpt>
<trkpt lat="46.28446488641202449798583984375" lon="7.44105004705488681793212890625"><ele></ele><time>2020-9-19T14:17:42Z</time></trkpt>
<trkpt lat="46.28444862551987171173095703125" lon="7.44105809368193149566650390625"><ele></ele><time>2020-9-19T14:17:45Z</time></trkpt>
<trkpt lat="46.28443420864641666412353515625" lon="7.44106815196573734283447265625"><ele></ele><time>2020-9-19T14:17:48Z</time></trkpt>
<trkpt lat="46.2844218872487545013427734375" lon="7.44108223356306552886962890625"><ele></ele><time>2020-9-19T14:17:51Z</time></trkpt>
<trkpt lat="46.28441124223172664642333984375" lon="7.44109690189361572265625"><ele></ele><time>2020-9-19T14:17:54Z</time></trkpt>
<trkpt lat="46.28440202213823795318603515625" lon="7.44111173786222934722900390625"><ele></ele><time>2020-9-19T14:17:57Z</time></trkpt>
<trkpt lat="46.284390203654766082763671875" lon="7.44112649001181125640869140625"><ele></ele><time>2020-9-19T14:18:0Z</time></trkpt>
<trkpt lat="46.284380145370960235595703125" lon="7.44113939814269542694091796875"><ele></ele><time>2020-9-19T14:18:3Z</time></trkpt>
<trkpt lat="46.2843689136207103729248046875" lon="7.441156245768070220947265625"><ele></ele><time>2020-9-19T14:18:6Z</time></trkpt>
<trkpt lat="46.2843571789562702178955078125" lon="7.44116890244185924530029296875"><ele></ele><time>2020-9-19T14:18:9Z</time></trkpt>
<trkpt lat="46.28434536047279834747314453125" lon="7.44118030183017253875732421875"><ele></ele><time>2020-9-19T14:18:12Z</time></trkpt>
<trkpt lat="46.2843315303325653076171875" lon="7.441187761723995208740234375"><ele></ele><time>2020-9-19T14:18:15Z</time></trkpt>
<trkpt lat="46.28432147204875946044921875" lon="7.44119874201714992523193359375"><ele></ele><time>2020-9-19T14:18:18Z</time></trkpt>
<trkpt lat="46.28431250341236591339111328125" lon="7.44120561517775058746337890625"><ele></ele><time>2020-9-19T14:18:21Z</time></trkpt>
<trkpt lat="46.2843021936714649200439453125" lon="7.44121919386088848114013671875"><ele></ele><time>2020-9-19T14:18:24Z</time></trkpt>
<trkpt lat="46.28429121337831020355224609375" lon="7.44123478420078754425048828125"><ele></ele><time>2020-9-19T14:18:27Z</time></trkpt>
<trkpt lat="46.28428165800869464874267578125" lon="7.4412457644939422607421875"><ele></ele><time>2020-9-19T14:18:30Z</time></trkpt>
<trkpt lat="46.28427193500101566314697265625" lon="7.441259510815143585205078125"><ele></ele><time>2020-9-19T14:18:33Z</time></trkpt>
<trkpt lat="46.2842606194317340850830078125" lon="7.44127853773534297943115234375"><ele></ele><time>2020-9-19T14:18:36Z</time></trkpt>
<trkpt lat="46.2842524051666259765625" lon="7.441297732293605804443359375"><ele></ele><time>2020-9-19T14:18:39Z</time></trkpt>
<trkpt lat="46.28424637019634246826171875" lon="7.44131206534802913665771484375"><ele></ele><time>2020-9-19T14:18:42Z</time></trkpt>
<trkpt lat="46.2842391617596149444580078125" lon="7.44133151136338710784912109375"><ele></ele><time>2020-9-19T14:18:45Z</time></trkpt>
<trkpt lat="46.284227930009365081787109375" lon="7.441351711750030517578125"><ele></ele><time>2020-9-19T14:18:48Z</time></trkpt>
<trkpt lat="46.28421795554459095001220703125" lon="7.441374845802783966064453125"><ele></ele><time>2020-9-19T14:18:51Z</time></trkpt>
<trkpt lat="46.284212507307529449462890625" lon="7.44139437563717365264892578125"><ele></ele><time>2020-9-19T14:18:54Z</time></trkpt>
<trkpt lat="46.28420605324208736419677734375" lon="7.4414155818521976470947265625"><ele></ele><time>2020-9-19T14:18:57Z</time></trkpt>
<trkpt lat="46.28420219756662845611572265625" lon="7.441437207162380218505859375"><ele></ele><time>2020-9-19T14:19:0Z</time></trkpt>
<trkpt lat="46.2841979227960109710693359375" lon="7.441458664834499359130859375"><ele></ele><time>2020-9-19T14:19:3Z</time></trkpt>
<trkpt lat="46.28419398330152034759521484375" lon="7.4414791166782379150390625"><ele></ele><time>2020-9-19T14:19:6Z</time></trkpt>
<trkpt lat="46.28419130109250545501708984375" lon="7.44150233455002307891845703125"><ele></ele><time>2020-9-19T14:19:9Z</time></trkpt>
<trkpt lat="46.28419146873056888580322265625" lon="7.4415215291082859039306640625"><ele></ele><time>2020-9-19T14:19:12Z</time></trkpt>
<trkpt lat="46.28418979234993457794189453125" lon="7.44154172949492931365966796875"><ele></ele><time>2020-9-19T14:19:15Z</time></trkpt>
<trkpt lat="46.2841848470270633697509765625" lon="7.44156234897673130035400390625"><ele></ele><time>2020-9-19T14:19:18Z</time></trkpt>
<trkpt lat="46.28418333828449249267578125" lon="7.441580705344676971435546875"><ele></ele><time>2020-9-19T14:19:21Z</time></trkpt>
<trkpt lat="46.28418023698031902313232421875" lon="7.44160157628357410430908203125"><ele></ele><time>2020-9-19T14:19:24Z</time></trkpt>
<trkpt lat="46.284174621105194091796875" lon="7.44162186048924922943115234375"><ele></ele><time>2020-9-19T14:19:27Z</time></trkpt>
<trkpt lat="46.28416615538299083709716796875" lon="7.44164013303816318511962890625"><ele></ele><time>2020-9-19T14:19:30Z</time></trkpt>
<trkpt lat="46.28415961749851703643798828125" lon="7.44166175834834575653076171875"><ele></ele><time>2020-9-19T14:19:33Z</time></trkpt>
<trkpt lat="46.2841533310711383819580078125" lon="7.4416817910969257354736328125"><ele></ele><time>2020-9-19T14:19:36Z</time></trkpt>
<trkpt lat="46.284148134291172027587890625" lon="7.44170241057872772216796875"><ele></ele><time>2020-9-19T14:19:39Z</time></trkpt>
<trkpt lat="46.28414520062506198883056640625" lon="7.44172210805118083953857421875"><ele></ele><time>2020-9-19T14:19:42Z</time></trkpt>
<trkpt lat="46.2841415964066982269287109375" lon="7.4417459964752197265625"><ele></ele><time>2020-9-19T14:19:45Z</time></trkpt>
<trkpt lat="46.28414176404476165771484375" lon="7.4417687952518463134765625"><ele></ele><time>2020-9-19T14:19:48Z</time></trkpt>
<trkpt lat="46.2841392494738101959228515625" lon="7.44179067201912403106689453125"><ele></ele><time>2020-9-19T14:19:51Z</time></trkpt>
<trkpt lat="46.28413639962673187255859375" lon="7.44181372225284576416015625"><ele></ele><time>2020-9-19T14:19:54Z</time></trkpt>
<trkpt lat="46.284132711589336395263671875" lon="7.441835515201091766357421875"><ele></ele><time>2020-9-19T14:19:57Z</time></trkpt>
<trkpt lat="46.28412910737097263336181640625" lon="7.44185470975935459136962890625"><ele></ele><time>2020-9-19T14:20:0Z</time></trkpt>
<trkpt lat="46.2841261737048625946044921875" lon="7.44187499396502971649169921875"><ele></ele><time>2020-9-19T14:20:3Z</time></trkpt>
<trkpt lat="46.2841248326003551483154296875" lon="7.4418950267136096954345703125"><ele></ele><time>2020-9-19T14:20:6Z</time></trkpt>
<trkpt lat="46.28412072546780109405517578125" lon="7.4419174902141094207763671875"><ele></ele><time>2020-9-19T14:20:9Z</time></trkpt>
<trkpt lat="46.28411871381103992462158203125" lon="7.44194037280976772308349609375"><ele></ele><time>2020-9-19T14:20:12Z</time></trkpt>
<trkpt lat="46.28411401994526386260986328125" lon="7.441962249577045440673828125"><ele></ele><time>2020-9-19T14:20:15Z</time></trkpt>
<trkpt lat="46.28410899080336093902587890625" lon="7.4419838748872280120849609375"><ele></ele><time>2020-9-19T14:20:18Z</time></trkpt>
<trkpt lat="46.28410278819501399993896484375" lon="7.4420043267309665679931640625"><ele></ele><time>2020-9-19T14:20:21Z</time></trkpt>
<trkpt lat="46.28409373573958873748779296875" lon="7.4420247785747051239013671875"><ele></ele><time>2020-9-19T14:20:24Z</time></trkpt>
<trkpt lat="46.2840835936367511749267578125" lon="7.4420412071049213409423828125"><ele></ele><time>2020-9-19T14:20:27Z</time></trkpt>
<trkpt lat="46.2840701825916767120361328125" lon="7.44205604307353496551513671875"><ele></ele><time>2020-9-19T14:20:30Z</time></trkpt>
<trkpt lat="46.28405392169952392578125" lon="7.4420710466802120208740234375"><ele></ele><time>2020-9-19T14:20:33Z</time></trkpt>
<trkpt lat="46.28403623588383197784423828125" lon="7.44208269752562046051025390625"><ele></ele><time>2020-9-19T14:20:36Z</time></trkpt>
<trkpt lat="46.28401963971555233001708984375" lon="7.44209174998104572296142578125"><ele></ele><time>2020-9-19T14:20:39Z</time></trkpt>
<trkpt lat="46.28400052897632122039794921875" lon="7.4421035684645175933837890625"><ele></ele><time>2020-9-19T14:20:42Z</time></trkpt>
<trkpt lat="46.28398342989385128021240234375" lon="7.4421220086514949798583984375"><ele></ele><time>2020-9-19T14:20:45Z</time></trkpt>
<trkpt lat="46.2839635647833347320556640625" lon="7.4421360902488231658935546875"><ele></ele><time>2020-9-19T14:20:48Z</time></trkpt>
<trkpt lat="46.28394453786313533782958984375" lon="7.44214891456067562103271484375"><ele></ele><time>2020-9-19T14:20:51Z</time></trkpt>
<trkpt lat="46.28392324782907962799072265625" lon="7.4421669356524944305419921875"><ele></ele><time>2020-9-19T14:20:54Z</time></trkpt>
<trkpt lat="46.28390061669051647186279296875" lon="7.4421845376491546630859375"><ele></ele><time>2020-9-19T14:20:57Z</time></trkpt>
<trkpt lat="46.2838542647659778594970703125" lon="7.4422225914895534515380859375"><ele></ele><time>2020-9-19T14:21:0Z</time></trkpt>
<trkpt lat="46.28380724228918552398681640625" lon="7.44225896894931793212890625"><ele></ele><time>2020-9-19T14:21:3Z</time></trkpt>
<trkpt lat="46.28378561697900295257568359375" lon="7.44227598421275615692138671875"><ele></ele><time>2020-9-19T14:21:6Z</time></trkpt>
<trkpt lat="46.28376231528818607330322265625" lon="7.4422899819910526275634765625"><ele></ele><time>2020-9-19T14:21:9Z</time></trkpt>
<trkpt lat="46.28374211490154266357421875" lon="7.44230599142611026763916015625"><ele></ele><time>2020-9-19T14:21:12Z</time></trkpt>
<trkpt lat="46.28372468054294586181640625" lon="7.44232342578470706939697265625"><ele></ele><time>2020-9-19T14:21:15Z</time></trkpt>
<trkpt lat="46.2837074138224124908447265625" lon="7.4423399381339550018310546875"><ele></ele><time>2020-9-19T14:21:18Z</time></trkpt>
<trkpt lat="46.28369341604411602020263671875" lon="7.44235544465482234954833984375"><ele></ele><time>2020-9-19T14:21:21Z</time></trkpt>
<trkpt lat="46.28368268720805644989013671875" lon="7.4423701129853725433349609375"><ele></ele><time>2020-9-19T14:21:24Z</time></trkpt>
<trkpt lat="46.28367514349520206451416015625" lon="7.44238427840173244476318359375"><ele></ele><time>2020-9-19T14:21:27Z</time></trkpt>
<trkpt lat="46.2836671806871891021728515625" lon="7.442396767437458038330078125"><ele></ele><time>2020-9-19T14:21:30Z</time></trkpt>
<trkpt lat="46.2836577929556369781494140625" lon="7.44240808300673961639404296875"><ele></ele><time>2020-9-19T14:21:33Z</time></trkpt>
<trkpt lat="46.28364555537700653076171875" lon="7.44241478852927684783935546875"><ele></ele><time>2020-9-19T14:21:36Z</time></trkpt>
<trkpt lat="46.283633150160312652587890625" lon="7.4424204044044017791748046875"><ele></ele><time>2020-9-19T14:21:39Z</time></trkpt>
<trkpt lat="46.283616721630096435546875" lon="7.4424234218895435333251953125"><ele></ele><time>2020-9-19T14:21:42Z</time></trkpt>
<trkpt lat="46.2836004607379436492919921875" lon="7.44242727756500244140625"><ele></ele><time>2020-9-19T14:21:45Z</time></trkpt>
<trkpt lat="46.2835872173309326171875" lon="7.4424385093152523040771484375"><ele></ele><time>2020-9-19T14:21:48Z</time></trkpt>
<trkpt lat="46.2835729680955410003662109375" lon="7.44244429282844066619873046875"><ele></ele><time>2020-9-19T14:21:51Z</time></trkpt>
<trkpt lat="46.2835548631846904754638671875" lon="7.44244948960840702056884765625"><ele></ele><time>2020-9-19T14:21:54Z</time></trkpt>
<trkpt lat="46.2835391052067279815673828125" lon="7.4424482323229312896728515625"><ele></ele><time>2020-9-19T14:21:57Z</time></trkpt>
<trkpt lat="46.28352217376232147216796875" lon="7.44244948960840702056884765625"><ele></ele><time>2020-9-19T14:22:0Z</time></trkpt>
<trkpt lat="46.2835049070417881011962890625" lon="7.44244714267551898956298828125"><ele></ele><time>2020-9-19T14:22:3Z</time></trkpt>
<trkpt lat="46.28348940052092075347900390625" lon="7.44244806468486785888671875"><ele></ele><time>2020-9-19T14:22:6Z</time></trkpt>
<trkpt lat="46.2834737263619899749755859375" lon="7.44244806468486785888671875"><ele></ele><time>2020-9-19T14:22:9Z</time></trkpt>
<trkpt lat="46.283458806574344635009765625" lon="7.4424482323229312896728515625"><ele></ele><time>2020-9-19T14:22:12Z</time></trkpt>
<trkpt lat="46.2834448926150798797607421875" lon="7.44244613684713840484619140625"><ele></ele><time>2020-9-19T14:22:15Z</time></trkpt>
<trkpt lat="46.28343240357935428619384765625" lon="7.4424473941326141357421875"><ele></ele><time>2020-9-19T14:22:18Z</time></trkpt>
<trkpt lat="46.2834230996668338775634765625" lon="7.44244747795164585113525390625"><ele></ele><time>2020-9-19T14:22:21Z</time></trkpt>
<trkpt lat="46.28341144882142543792724609375" lon="7.442443370819091796875"><ele></ele><time>2020-9-19T14:22:24Z</time></trkpt>
<trkpt lat="46.2834003008902072906494140625" lon="7.4424425326287746429443359375"><ele></ele><time>2020-9-19T14:22:27Z</time></trkpt>
<trkpt lat="46.28338730894029140472412109375" lon="7.44244261644780635833740234375"><ele></ele><time>2020-9-19T14:22:30Z</time></trkpt>
<trkpt lat="46.28337456844747066497802734375" lon="7.44244546629488468170166015625"><ele></ele><time>2020-9-19T14:22:33Z</time></trkpt>
<trkpt lat="46.283361911773681640625" lon="7.442446388304233551025390625"><ele></ele><time>2020-9-19T14:22:36Z</time></trkpt>
<trkpt lat="46.2833479978144168853759765625" lon="7.44244596920907497406005859375"><ele></ele><time>2020-9-19T14:22:39Z</time></trkpt>
<trkpt lat="46.2833359278738498687744140625" lon="7.44244663976132869720458984375"><ele></ele><time>2020-9-19T14:22:42Z</time></trkpt>
<trkpt lat="46.283322013914585113525390625" lon="7.44244881905615329742431640625"><ele></ele><time>2020-9-19T14:22:45Z</time></trkpt>
<trkpt lat="46.2833064235746860504150390625" lon="7.4424539320170879364013671875"><ele></ele><time>2020-9-19T14:22:48Z</time></trkpt>
<trkpt lat="46.28329091705381870269775390625" lon="7.4424512498080730438232421875"><ele></ele><time>2020-9-19T14:22:51Z</time></trkpt>
<trkpt lat="46.28327448852360248565673828125" lon="7.44245217181742191314697265625"><ele></ele><time>2020-9-19T14:22:54Z</time></trkpt>
<trkpt lat="46.28325588069856166839599609375" lon="7.442453764379024505615234375"><ele></ele><time>2020-9-19T14:22:57Z</time></trkpt>
<trkpt lat="46.28323475830256938934326171875" lon="7.44245619513094425201416015625"><ele></ele><time>2020-9-19T14:23:0Z</time></trkpt>
<trkpt lat="46.2832098640501499176025390625" lon="7.44246558286249637603759765625"><ele></ele><time>2020-9-19T14:23:3Z</time></trkpt>
<trkpt lat="46.28318664617836475372314453125" lon="7.44246759451925754547119140625"><ele></ele><time>2020-9-19T14:23:6Z</time></trkpt>
<trkpt lat="46.28316334448754787445068359375" lon="7.4424643255770206451416015625"><ele></ele><time>2020-9-19T14:23:9Z</time></trkpt>
<trkpt lat="46.2831428088247776031494140625" lon="7.4424554407596588134765625"><ele></ele><time>2020-9-19T14:23:12Z</time></trkpt>
<trkpt lat="46.28312462009489536285400390625" lon="7.44244697503745555877685546875"><ele></ele><time>2020-9-19T14:23:15Z</time></trkpt>
<trkpt lat="46.2831065990030765533447265625" lon="7.4424351565539836883544921875"><ele></ele><time>2020-9-19T14:23:18Z</time></trkpt>
<trkpt lat="46.28309008665382862091064453125" lon="7.44243289344012737274169921875"><ele></ele><time>2020-9-19T14:23:21Z</time></trkpt>
<trkpt lat="46.2830757535994052886962890625" lon="7.4424230866134166717529296875"><ele></ele><time>2020-9-19T14:23:24Z</time></trkpt>
<trkpt lat="46.28306343220174312591552734375" lon="7.4424204044044017791748046875"><ele></ele><time>2020-9-19T14:23:27Z</time></trkpt>
<trkpt lat="46.28304935060441493988037109375" lon="7.442413531243801116943359375"><ele></ele><time>2020-9-19T14:23:30Z</time></trkpt>
<trkpt lat="46.28303409554064273834228515625" lon="7.44240514934062957763671875"><ele></ele><time>2020-9-19T14:23:33Z</time></trkpt>
<trkpt lat="46.28301934339106082916259765625" lon="7.44239307940006256103515625"><ele></ele><time>2020-9-19T14:23:36Z</time></trkpt>
<trkpt lat="46.28300316631793975830078125" lon="7.4423818476498126983642578125"><ele></ele><time>2020-9-19T14:23:39Z</time></trkpt>
<trkpt lat="46.28298967145383358001708984375" lon="7.44237170554697513580322265625"><ele></ele><time>2020-9-19T14:23:42Z</time></trkpt>
<trkpt lat="46.28297768533229827880859375" lon="7.4423650838434696197509765625"><ele></ele><time>2020-9-19T14:23:45Z</time></trkpt>
<trkpt lat="46.28296293318271636962890625" lon="7.44235645048320293426513671875"><ele></ele><time>2020-9-19T14:23:48Z</time></trkpt>
<trkpt lat="46.2829483486711978912353515625" lon="7.4423499964177608489990234375"><ele></ele><time>2020-9-19T14:23:51Z</time></trkpt>
<trkpt lat="46.28293476998805999755859375" lon="7.442342452704906463623046875"><ele></ele><time>2020-9-19T14:23:54Z</time></trkpt>
<trkpt lat="46.282923035323619842529296875" lon="7.44233700446784496307373046875"><ele></ele><time>2020-9-19T14:23:57Z</time></trkpt>
<trkpt lat="46.28291071392595767974853515625" lon="7.4423305504024028778076171875"><ele></ele><time>2020-9-19T14:24:0Z</time></trkpt>
<trkpt lat="46.28289721906185150146484375" lon="7.44232141412794589996337890625"><ele></ele><time>2020-9-19T14:24:3Z</time></trkpt>
<trkpt lat="46.2828863225877285003662109375" lon="7.4423087574541568756103515625"><ele></ele><time>2020-9-19T14:24:6Z</time></trkpt>
<trkpt lat="46.28287618048489093780517578125" lon="7.44230196811258792877197265625"><ele></ele><time>2020-9-19T14:24:9Z</time></trkpt>
<trkpt lat="46.2828645296394824981689453125" lon="7.44229576550424098968505859375"><ele></ele><time>2020-9-19T14:24:12Z</time></trkpt>
<trkpt lat="46.28285137005150318145751953125" lon="7.4422913230955600738525390625"><ele></ele><time>2020-9-19T14:24:15Z</time></trkpt>
<trkpt lat="46.28283980302512645721435546875" lon="7.44228369556367397308349609375"><ele></ele><time>2020-9-19T14:24:18Z</time></trkpt>
<trkpt lat="46.28282857127487659454345703125" lon="7.44227640330791473388671875"><ele></ele><time>2020-9-19T14:24:21Z</time></trkpt>
<trkpt lat="46.2828187644481658935546875" lon="7.4422715418040752410888671875"><ele></ele><time>2020-9-19T14:24:24Z</time></trkpt>
<trkpt lat="46.2828055210411548614501953125" lon="7.4422676861286163330078125"><ele></ele><time>2020-9-19T14:24:27Z</time></trkpt>
<trkpt lat="46.282791607081890106201171875" lon="7.44226005859673023223876953125"><ele></ele><time>2020-9-19T14:24:30Z</time></trkpt>
<trkpt lat="46.282774843275547027587890625" lon="7.442252933979034423828125"><ele></ele><time>2020-9-19T14:24:33Z</time></trkpt>
<trkpt lat="46.2827605940401554107666015625" lon="7.44224597699940204620361328125"><ele></ele><time>2020-9-19T14:24:36Z</time></trkpt>
<trkpt lat="46.2827481888234615325927734375" lon="7.4422396905720233917236328125"><ele></ele><time>2020-9-19T14:24:39Z</time></trkpt>
<trkpt lat="46.28273553214967250823974609375" lon="7.44223306886851787567138671875"><ele></ele><time>2020-9-19T14:24:42Z</time></trkpt>
<trkpt lat="46.2827203609049320220947265625" lon="7.442224435508251190185546875"><ele></ele><time>2020-9-19T14:24:45Z</time></trkpt>
<trkpt lat="46.28270653076469898223876953125" lon="7.4422189034521579742431640625"><ele></ele><time>2020-9-19T14:24:48Z</time></trkpt>
<trkpt lat="46.282694041728973388671875" lon="7.44221513159573078155517578125"><ele></ele><time>2020-9-19T14:24:51Z</time></trkpt>
<trkpt lat="46.2826784513890743255615234375" lon="7.4422115273773670196533203125"><ele></ele><time>2020-9-19T14:24:54Z</time></trkpt>
<trkpt lat="46.28266948275268077850341796875" lon="7.44221068918704986572265625"><ele></ele><time>2020-9-19T14:24:57Z</time></trkpt>
<trkpt lat="46.28265313804149627685546875" lon="7.44220825843513011932373046875"><ele></ele><time>2020-9-19T14:25:0Z</time></trkpt>
<trkpt lat="46.2826395593583583831787109375" lon="7.44220591150224208831787109375"><ele></ele><time>2020-9-19T14:25:3Z</time></trkpt>
<trkpt lat="46.28262589685618877410888671875" lon="7.44219803251326084136962890625"><ele></ele><time>2020-9-19T14:25:6Z</time></trkpt>
<trkpt lat="46.28261215053498744964599609375" lon="7.44219015352427959442138671875"><ele></ele><time>2020-9-19T14:25:9Z</time></trkpt>
<trkpt lat="46.28259949386119842529296875" lon="7.44217992760241031646728515625"><ele></ele><time>2020-9-19T14:25:12Z</time></trkpt>
<trkpt lat="46.28258407115936279296875" lon="7.44216836057603359222412109375"><ele></ele><time>2020-9-19T14:25:15Z</time></trkpt>
<trkpt lat="46.28256856463849544525146484375" lon="7.44215763173997402191162109375"><ele></ele><time>2020-9-19T14:25:18Z</time></trkpt>
<trkpt lat="46.2825560756027698516845703125" lon="7.44214975275099277496337890625"><ele></ele><time>2020-9-19T14:25:21Z</time></trkpt>
<trkpt lat="46.2825416587293148040771484375" lon="7.44213952682912349700927734375"><ele></ele><time>2020-9-19T14:25:24Z</time></trkpt>
<trkpt lat="46.28252615220844745635986328125" lon="7.44212997145950794219970703125"><ele></ele><time>2020-9-19T14:25:27Z</time></trkpt>
<trkpt lat="46.28250720910727977752685546875" lon="7.44211823679506778717041015625"><ele></ele><time>2020-9-19T14:25:30Z</time></trkpt>
<trkpt lat="46.28249212168157100677490234375" lon="7.4421082623302936553955078125"><ele></ele><time>2020-9-19T14:25:33Z</time></trkpt>
<trkpt lat="46.2824762798845767974853515625" lon="7.44209845550358295440673828125"><ele></ele><time>2020-9-19T14:25:36Z</time></trkpt>
<trkpt lat="46.282461695373058319091796875" lon="7.442085631191730499267578125"><ele></ele><time>2020-9-19T14:25:39Z</time></trkpt>
<trkpt lat="46.28244836814701557159423828125" lon="7.44206878356635570526123046875"><ele></ele><time>2020-9-19T14:25:42Z</time></trkpt>
<trkpt lat="46.28243428654968738555908203125" lon="7.44205419905483722686767578125"><ele></ele><time>2020-9-19T14:25:45Z</time></trkpt>
<trkpt lat="46.28241953440010547637939453125" lon="7.44204330258071422576904296875"><ele></ele><time>2020-9-19T14:25:48Z</time></trkpt>
<trkpt lat="46.28240511752665042877197265625" lon="7.44203626178205013275146484375"><ele></ele><time>2020-9-19T14:25:51Z</time></trkpt>
<trkpt lat="46.282388269901275634765625" lon="7.44202804751694202423095703125"><ele></ele><time>2020-9-19T14:25:54Z</time></trkpt>
<trkpt lat="46.282372176647186279296875" lon="7.4420281313359737396240234375"><ele></ele><time>2020-9-19T14:25:57Z</time></trkpt>
<trkpt lat="46.28235650248825550079345703125" lon="7.44202888570725917816162109375"><ele></ele><time>2020-9-19T14:26:0Z</time></trkpt>
<trkpt lat="46.28233571536839008331298828125" lon="7.44202821515500545501708984375"><ele></ele><time>2020-9-19T14:26:3Z</time></trkpt>
<trkpt lat="46.28231476061046123504638671875" lon="7.44202855043113231658935546875"><ele></ele><time>2020-9-19T14:26:6Z</time></trkpt>
<trkpt lat="46.282298080623149871826171875" lon="7.442032657563686370849609375"><ele></ele><time>2020-9-19T14:26:9Z</time></trkpt>
<trkpt lat="46.28228441812098026275634765625" lon="7.44203927926719188690185546875"><ele></ele><time>2020-9-19T14:26:12Z</time></trkpt>
<trkpt lat="46.2822710908949375152587890625" lon="7.4420438893139362335205078125"><ele></ele><time>2020-9-19T14:26:15Z</time></trkpt>
<trkpt lat="46.282259523868560791015625" lon="7.44204707443714141845703125"><ele></ele><time>2020-9-19T14:26:18Z</time></trkpt>
<trkpt lat="46.28224787302315235137939453125" lon="7.44205034337937831878662109375"><ele></ele><time>2020-9-19T14:26:21Z</time></trkpt>
<trkpt lat="46.282236389815807342529296875" lon="7.442054450511932373046875"><ele></ele><time>2020-9-19T14:26:24Z</time></trkpt>
<trkpt lat="46.282220296561717987060546875" lon="7.44205637834966182708740234375"><ele></ele><time>2020-9-19T14:26:27Z</time></trkpt>
<trkpt lat="46.28220546059310436248779296875" lon="7.4420616589486598968505859375"><ele></ele><time>2020-9-19T14:26:30Z</time></trkpt>
<trkpt lat="46.28219422884285449981689453125" lon="7.44207213632762432098388671875"><ele></ele><time>2020-9-19T14:26:33Z</time></trkpt>
<trkpt lat="46.28217981196939945220947265625" lon="7.44208169169723987579345703125"><ele></ele><time>2020-9-19T14:26:36Z</time></trkpt>
<trkpt lat="46.28216631710529327392578125" lon="7.4420911632478237152099609375"><ele></ele><time>2020-9-19T14:26:39Z</time></trkpt>
<trkpt lat="46.282150559127330780029296875" lon="7.44209979660809040069580078125"><ele></ele><time>2020-9-19T14:26:42Z</time></trkpt>
<trkpt lat="46.28213538788259029388427734375" lon="7.44211052544414997100830078125"><ele></ele><time>2020-9-19T14:26:45Z</time></trkpt>
<trkpt lat="46.28212549723684787750244140625" lon="7.44211924262344837188720703125"><ele></ele><time>2020-9-19T14:26:48Z</time></trkpt>
<trkpt lat="46.28211275674402713775634765625" lon="7.44212695397436618804931640625"><ele></ele><time>2020-9-19T14:26:51Z</time></trkpt>
<trkpt lat="46.2820984236896038055419921875" lon="7.4421364255249500274658203125"><ele></ele><time>2020-9-19T14:26:54Z</time></trkpt>
<trkpt lat="46.2820873595774173736572265625" lon="7.44214807637035846710205078125"><ele></ele><time>2020-9-19T14:26:57Z</time></trkpt>
<trkpt lat="46.28207570873200893402099609375" lon="7.44215478189289569854736328125"><ele></ele><time>2020-9-19T14:27:0Z</time></trkpt>
<trkpt lat="46.28206263296306133270263671875" lon="7.44216383434832096099853515625"><ele></ele><time>2020-9-19T14:27:3Z</time></trkpt>
<trkpt lat="46.28204955719411373138427734375" lon="7.44217255152761936187744140625"><ele></ele><time>2020-9-19T14:27:6Z</time></trkpt>
<trkpt lat="46.2820363976061344146728515625" lon="7.44218026287853717803955078125"><ele></ele><time>2020-9-19T14:27:9Z</time></trkpt>
<trkpt lat="46.2820243276655673980712890625" lon="7.442186214029788970947265625"><ele></ele><time>2020-9-19T14:27:12Z</time></trkpt>
<trkpt lat="46.28201150335371494293212890625" lon="7.44219551794230937957763671875"><ele></ele><time>2020-9-19T14:27:15Z</time></trkpt>
<trkpt lat="46.28199792467057704925537109375" lon="7.4422048218548297882080078125"><ele></ele><time>2020-9-19T14:27:18Z</time></trkpt>
<trkpt lat="46.2819844298064708709716796875" lon="7.4422115273773670196533203125"><ele></ele><time>2020-9-19T14:27:21Z</time></trkpt>
<trkpt lat="46.2819700129330158233642578125" lon="7.4422189034521579742431640625"><ele></ele><time>2020-9-19T14:27:24Z</time></trkpt>
<trkpt lat="46.28195785917341709136962890625" lon="7.4422259442508220672607421875"><ele></ele><time>2020-9-19T14:27:27Z</time></trkpt>
<trkpt lat="46.2819468788802623748779296875" lon="7.44223172776401042938232421875"><ele></ele><time>2020-9-19T14:27:30Z</time></trkpt>
<trkpt lat="46.28193556331098079681396484375" lon="7.44223885238170623779296875"><ele></ele><time>2020-9-19T14:27:33Z</time></trkpt>
<trkpt lat="46.2819227389991283416748046875" lon="7.44224832393229007720947265625"><ele></ele><time>2020-9-19T14:27:36Z</time></trkpt>
<trkpt lat="46.28190748393535614013671875" lon="7.4422564543783664703369140625"><ele></ele><time>2020-9-19T14:27:39Z</time></trkpt>
<trkpt lat="46.28189130686223506927490234375" lon="7.44226458482444286346435546875"><ele></ele><time>2020-9-19T14:27:42Z</time></trkpt>
<trkpt lat="46.281870268285274505615234375" lon="7.4422789178788661956787109375"><ele></ele><time>2020-9-19T14:27:45Z</time></trkpt>
<trkpt lat="46.28185425885021686553955078125" lon="7.44228989817202091217041015625"><ele></ele><time>2020-9-19T14:27:48Z</time></trkpt>
<trkpt lat="46.281839422881603240966796875" lon="7.4422971904277801513671875"><ele></ele><time>2020-9-19T14:27:51Z</time></trkpt>
<trkpt lat="46.2818208150565624237060546875" lon="7.44230498559772968292236328125"><ele></ele><time>2020-9-19T14:27:54Z</time></trkpt>
<trkpt lat="46.281802542507648468017578125" lon="7.44231470860540866851806640625"><ele></ele><time>2020-9-19T14:27:57Z</time></trkpt>
<trkpt lat="46.28178787417709827423095703125" lon="7.442323006689548492431640625"><ele></ele><time>2020-9-19T14:28:0Z</time></trkpt>
<trkpt lat="46.2817715294659137725830078125" lon="7.44233197532594203948974609375"><ele></ele><time>2020-9-19T14:28:3Z</time></trkpt>
<trkpt lat="46.281751580536365509033203125" lon="7.4423427879810333251953125"><ele></ele><time>2020-9-19T14:28:6Z</time></trkpt>
<trkpt lat="46.2817390076816082000732421875" lon="7.442348487675189971923828125"><ele></ele><time>2020-9-19T14:28:9Z</time></trkpt>
<trkpt lat="46.28172316588461399078369140625" lon="7.4423546902835369110107421875"><ele></ele><time>2020-9-19T14:28:12Z</time></trkpt>
<trkpt lat="46.281707324087619781494140625" lon="7.44236315600574016571044921875"><ele></ele><time>2020-9-19T14:28:15Z</time></trkpt>
<trkpt lat="46.28169114701449871063232421875" lon="7.442371286451816558837890625"><ele></ele><time>2020-9-19T14:28:18Z</time></trkpt>
<trkpt lat="46.28167354501783847808837890625" lon="7.44237857870757579803466796875"><ele></ele><time>2020-9-19T14:28:21Z</time></trkpt>
<trkpt lat="46.28165359608829021453857421875" lon="7.442388050258159637451171875"><ele></ele><time>2020-9-19T14:28:24Z</time></trkpt>
<trkpt lat="46.2816359102725982666015625" lon="7.44239651598036289215087890625"><ele></ele><time>2020-9-19T14:28:27Z</time></trkpt>
<trkpt lat="46.28161847591400146484375" lon="7.44240724481642246246337890625"><ele></ele><time>2020-9-19T14:28:30Z</time></trkpt>
<trkpt lat="46.2815991975367069244384765625" lon="7.44241747073829174041748046875"><ele></ele><time>2020-9-19T14:28:33Z</time></trkpt>
<trkpt lat="46.2815797515213489532470703125" lon="7.4424277804791927337646484375"><ele></ele><time>2020-9-19T14:28:36Z</time></trkpt>
<trkpt lat="46.281560473144054412841796875" lon="7.44243465363979339599609375"><ele></ele><time>2020-9-19T14:28:39Z</time></trkpt>
<trkpt lat="46.28154077567160129547119140625" lon="7.44244001805782318115234375"><ele></ele><time>2020-9-19T14:28:42Z</time></trkpt>
<trkpt lat="46.281523592770099639892578125" lon="7.442445717751979827880859375"><ele></ele><time>2020-9-19T14:28:45Z</time></trkpt>
<trkpt lat="46.28150724805891513824462890625" lon="7.442456446588039398193359375"><ele></ele><time>2020-9-19T14:28:48Z</time></trkpt>
<trkpt lat="46.2814909033477306365966796875" lon="7.44246759451925754547119140625"><ele></ele><time>2020-9-19T14:28:51Z</time></trkpt>
<trkpt lat="46.28147372044622898101806640625" lon="7.44247597642242908477783203125"><ele></ele><time>2020-9-19T14:28:54Z</time></trkpt>
<trkpt lat="46.2814556993544101715087890625" lon="7.4424834363162517547607421875"><ele></ele><time>2020-9-19T14:28:57Z</time></trkpt>
<trkpt lat="46.28143901936709880828857421875" lon="7.44249500334262847900390625"><ele></ele><time>2020-9-19T14:29:0Z</time></trkpt>
<trkpt lat="46.2814228422939777374267578125" lon="7.44251084513962268829345703125"><ele></ele><time>2020-9-19T14:29:3Z</time></trkpt>
<trkpt lat="46.28140532411634922027587890625" lon="7.44252459146082401275634765625"><ele></ele><time>2020-9-19T14:29:6Z</time></trkpt>
<trkpt lat="46.2813873030245304107666015625" lon="7.44253213517367839813232421875"><ele></ele><time>2020-9-19T14:29:9Z</time></trkpt>
<trkpt lat="46.281367354094982147216796875" lon="7.44253749959170818328857421875"><ele></ele><time>2020-9-19T14:29:12Z</time></trkpt>
<trkpt lat="46.2813463993370532989501953125" lon="7.44254454039037227630615234375"><ele></ele><time>2020-9-19T14:29:15Z</time></trkpt>
<trkpt lat="46.28132544457912445068359375" lon="7.44254504330456256866455078125"><ele></ele><time>2020-9-19T14:29:18Z</time></trkpt>
<trkpt lat="46.28130541183054447174072265625" lon="7.4425434507429599761962890625"><ele></ele><time>2020-9-19T14:29:21Z</time></trkpt>
<trkpt lat="46.2812840379774570465087890625" lon="7.44254487566649913787841796875"><ele></ele><time>2020-9-19T14:29:24Z</time></trkpt>
<trkpt lat="46.2812622450292110443115234375" lon="7.4425491504371166229248046875"><ele></ele><time>2020-9-19T14:29:27Z</time></trkpt>
<trkpt lat="46.2812421284615993499755859375" lon="7.4425545148551464080810546875"><ele></ele><time>2020-9-19T14:29:30Z</time></trkpt>
<trkpt lat="46.28122092224657535552978515625" lon="7.44256113655865192413330078125"><ele></ele><time>2020-9-19T14:29:33Z</time></trkpt>
<trkpt lat="46.28119845874607563018798828125" lon="7.44256733916699886322021484375"><ele></ele><time>2020-9-19T14:29:36Z</time></trkpt>
<trkpt lat="46.28117524087429046630859375" lon="7.4425716139376163482666015625"><ele></ele><time>2020-9-19T14:29:39Z</time></trkpt>
<trkpt lat="46.2811522744596004486083984375" lon="7.44257572107017040252685546875"><ele></ele><time>2020-9-19T14:29:42Z</time></trkpt>
<trkpt lat="46.28113023005425930023193359375" lon="7.4425799958407878875732421875"><ele></ele><time>2020-9-19T14:29:45Z</time></trkpt>
<trkpt lat="46.28110759891569614410400390625" lon="7.44258753955364227294921875"><ele></ele><time>2020-9-19T14:29:48Z</time></trkpt>
<trkpt lat="46.2810362689197063446044921875" lon="7.44261838495731353759765625"><ele></ele><time>2020-9-19T14:29:51Z</time></trkpt>
<trkpt lat="46.280945576727390289306640625" lon="7.44266708381474018096923828125"><ele></ele><time>2020-9-19T14:29:54Z</time></trkpt>
<trkpt lat="46.28092336468398571014404296875" lon="7.44268275797367095947265625"><ele></ele><time>2020-9-19T14:29:57Z</time></trkpt>
<trkpt lat="46.28089989535510540008544921875" lon="7.4426986835896968841552734375"><ele></ele><time>2020-9-19T14:30:0Z</time></trkpt>
<trkpt lat="46.28087676130235195159912109375" lon="7.4427141062915325164794921875"><ele></ele><time>2020-9-19T14:30:3Z</time></trkpt>
<trkpt lat="46.2808527052402496337890625" lon="7.4427308700978755950927734375"><ele></ele><time>2020-9-19T14:30:6Z</time></trkpt>
<trkpt lat="46.2808285653591156005859375" lon="7.44274771772325038909912109375"><ele></ele><time>2020-9-19T14:30:9Z</time></trkpt>
<trkpt lat="46.28073225729167461395263671875" lon="7.4428309500217437744140625"><ele></ele><time>2020-9-19T14:30:12Z</time></trkpt>
<trkpt lat="46.2807100452482700347900390625" lon="7.44285517372190952301025390625"><ele></ele><time>2020-9-19T14:30:15Z</time></trkpt>
<trkpt lat="46.28068867139518260955810546875" lon="7.4428797326982021331787109375"><ele></ele><time>2020-9-19T14:30:18Z</time></trkpt>
<trkpt lat="46.2806416489183902740478515625" lon="7.4429300241172313690185546875"><ele></ele><time>2020-9-19T14:30:21Z</time></trkpt>
<trkpt lat="46.2805963866412639617919921875" lon="7.44298576377332210540771484375"><ele></ele><time>2020-9-19T14:30:24Z</time></trkpt>
<trkpt lat="46.2805269844830036163330078125" lon="7.44307427667081356048583984375"><ele></ele><time>2020-9-19T14:30:27Z</time></trkpt>
<trkpt lat="46.2805055268108844757080078125" lon="7.4431053735315799713134765625"><ele></ele><time>2020-9-19T14:30:30Z</time></trkpt>
<trkpt lat="46.28048398531973361968994140625" lon="7.4431375600397586822509765625"><ele></ele><time>2020-9-19T14:30:33Z</time></trkpt>
<trkpt lat="46.28046118654310703277587890625" lon="7.4431684054434299468994140625"><ele></ele><time>2020-9-19T14:30:36Z</time></trkpt>
<trkpt lat="46.28043754957616329193115234375" lon="7.44319966994225978851318359375"><ele></ele><time>2020-9-19T14:30:39Z</time></trkpt>
<trkpt lat="46.2804129905998706817626953125" lon="7.44323085062205791473388671875"><ele></ele><time>2020-9-19T14:30:42Z</time></trkpt>
<trkpt lat="46.2803888507187366485595703125" lon="7.44326253421604633331298828125"><ele></ele><time>2020-9-19T14:30:45Z</time></trkpt>
<trkpt lat="46.28036529757082462310791015625" lon="7.44329337961971759796142578125"><ele></ele><time>2020-9-19T14:30:48Z</time></trkpt>
<trkpt lat="46.2803425826132297515869140625" lon="7.44332372210919857025146484375"><ele></ele><time>2020-9-19T14:30:51Z</time></trkpt>
<trkpt lat="46.2803207896649837493896484375" lon="7.4433548189699649810791015625"><ele></ele><time>2020-9-19T14:30:54Z</time></trkpt>
<trkpt lat="46.28029924817383289337158203125" lon="7.4433853290975093841552734375"><ele></ele><time>2020-9-19T14:30:57Z</time></trkpt>
<trkpt lat="46.2802772037684917449951171875" lon="7.44341558776795864105224609375"><ele></ele><time>2020-9-19T14:31:0Z</time></trkpt>
<trkpt lat="46.28025532700121402740478515625" lon="7.443444840610027313232421875"><ele></ele><time>2020-9-19T14:31:3Z</time></trkpt>
<trkpt lat="46.28023236058652400970458984375" lon="7.4434751830995082855224609375"><ele></ele><time>2020-9-19T14:31:6Z</time></trkpt>
<trkpt lat="46.2802094779908657073974609375" lon="7.44350661523640155792236328125"><ele></ele><time>2020-9-19T14:31:9Z</time></trkpt>
<trkpt lat="46.2801886908710002899169921875" lon="7.44353511370718479156494140625"><ele></ele><time>2020-9-19T14:31:12Z</time></trkpt>
<trkpt lat="46.2801662273705005645751953125" lon="7.44356478564441204071044921875"><ele></ele><time>2020-9-19T14:31:15Z</time></trkpt>
<trkpt lat="46.2801440991461277008056640625" lon="7.4435948766767978668212890625"><ele></ele><time>2020-9-19T14:31:18Z</time></trkpt>
<trkpt lat="46.280121468007564544677734375" lon="7.443624548614025115966796875"><ele></ele><time>2020-9-19T14:31:21Z</time></trkpt>
<trkpt lat="46.280098669230937957763671875" lon="7.443651370704174041748046875"><ele></ele><time>2020-9-19T14:31:24Z</time></trkpt>
<trkpt lat="46.28007461316883563995361328125" lon="7.44367542676627635955810546875"><ele></ele><time>2020-9-19T14:31:27Z</time></trkpt>
<trkpt lat="46.280050389468669891357421875" lon="7.44369688443839550018310546875"><ele></ele><time>2020-9-19T14:31:30Z</time></trkpt>
<trkpt lat="46.28002717159688472747802734375" lon="7.443718425929546356201171875"><ele></ele><time>2020-9-19T14:31:33Z</time></trkpt>
<trkpt lat="46.280006133019924163818359375" lon="7.443745918571949005126953125"><ele></ele><time>2020-9-19T14:31:36Z</time></trkpt>
<trkpt lat="46.27998978830873966217041015625" lon="7.443778775632381439208984375"><ele></ele><time>2020-9-19T14:31:39Z</time></trkpt>
<trkpt lat="46.27997503615915775299072265625" lon="7.44381674565374851226806640625"><ele></ele><time>2020-9-19T14:31:42Z</time></trkpt>
<trkpt lat="46.27996196039021015167236328125" lon="7.44385756552219390869140625"><ele></ele><time>2020-9-19T14:31:45Z</time></trkpt>
<trkpt lat="46.27995609305799007415771484375" lon="7.4438966251909732818603515625"><ele></ele><time>2020-9-19T14:31:48Z</time></trkpt>
<trkpt lat="46.27995274029672145843505859375" lon="7.4439378641545772552490234375"><ele></ele><time>2020-9-19T14:31:51Z</time></trkpt>
<trkpt lat="46.2799550034105777740478515625" lon="7.44397482834756374359130859375"><ele></ele><time>2020-9-19T14:31:54Z</time></trkpt>
<trkpt lat="46.27996028400957584381103515625" lon="7.44400911033153533935546875"><ele></ele><time>2020-9-19T14:31:57Z</time></trkpt>
<trkpt lat="46.27996296621859073638916015625" lon="7.44404322467744350433349609375"><ele></ele><time>2020-9-19T14:32:0Z</time></trkpt>
<trkpt lat="46.27996598370373249053955078125" lon="7.44407675229012966156005859375"><ele></ele><time>2020-9-19T14:32:3Z</time></trkpt>
<trkpt lat="46.27996883355081081390380859375" lon="7.44410910643637180328369140625"><ele></ele><time>2020-9-19T14:32:6Z</time></trkpt>
<trkpt lat="46.27997151575982570648193359375" lon="7.44414263404905796051025390625"><ele></ele><time>2020-9-19T14:32:9Z</time></trkpt>
<trkpt lat="46.279972605407238006591796875" lon="7.44417867623269557952880859375"><ele></ele><time>2020-9-19T14:32:12Z</time></trkpt>
<trkpt lat="46.27997503615915775299072265625" lon="7.444213964045047760009765625"><ele></ele><time>2020-9-19T14:32:15Z</time></trkpt>
<trkpt lat="46.27997553907334804534912109375" lon="7.44425042532384395599365234375"><ele></ele><time>2020-9-19T14:32:18Z</time></trkpt>
<trkpt lat="46.27997629344463348388671875" lon="7.44428814388811588287353515625"><ele></ele><time>2020-9-19T14:32:21Z</time></trkpt>
<trkpt lat="46.27997704781591892242431640625" lon="7.444325275719165802001953125"><ele></ele><time>2020-9-19T14:32:24Z</time></trkpt>
<trkpt lat="46.27997956238687038421630859375" lon="7.44436056353151798248291015625"><ele></ele><time>2020-9-19T14:32:27Z</time></trkpt>
<trkpt lat="46.27998207695782184600830078125" lon="7.44439677335321903228759765625"><ele></ele><time>2020-9-19T14:32:30Z</time></trkpt>
<trkpt lat="46.27998375333845615386962890625" lon="7.44443281553685665130615234375"><ele></ele><time>2020-9-19T14:32:33Z</time></trkpt>
<trkpt lat="46.27998593263328075408935546875" lon="7.44447053410112857818603515625"><ele></ele><time>2020-9-19T14:32:36Z</time></trkpt>
<trkpt lat="46.27998777665197849273681640625" lon="7.44450959376990795135498046875"><ele></ele><time>2020-9-19T14:32:39Z</time></trkpt>
<trkpt lat="46.2799895368516445159912109375" lon="7.44454747997224330902099609375"><ele></ele><time>2020-9-19T14:32:42Z</time></trkpt>
<trkpt lat="46.279994733631610870361328125" lon="7.44458444416522979736328125"><ele></ele><time>2020-9-19T14:32:45Z</time></trkpt>
<trkpt lat="46.28000043332576751708984375" lon="7.44461989961564540863037109375"><ele></ele><time>2020-9-19T14:32:48Z</time></trkpt>
<trkpt lat="46.280006133019924163818359375" lon="7.4446560256183147430419921875"><ele></ele><time>2020-9-19T14:32:51Z</time></trkpt>
<trkpt lat="46.280009485781192779541015625" lon="7.44469231925904750823974609375"><ele></ele><time>2020-9-19T14:32:54Z</time></trkpt>
<trkpt lat="46.2800116650760173797607421875" lon="7.44472752325236797332763671875"><ele></ele><time>2020-9-19T14:32:57Z</time></trkpt>
<trkpt lat="46.28001241944730281829833984375" lon="7.4447621405124664306640625"><ele></ele><time>2020-9-19T14:33:0Z</time></trkpt>
<trkpt lat="46.280015520751476287841796875" lon="7.44479591958224773406982421875"><ele></ele><time>2020-9-19T14:33:3Z</time></trkpt>
<trkpt lat="46.2800217233598232269287109375" lon="7.44482877664268016815185546875"><ele></ele><time>2020-9-19T14:33:6Z</time></trkpt>
<trkpt lat="46.2800287641584873199462890625" lon="7.444860041141510009765625"><ele></ele><time>2020-9-19T14:33:9Z</time></trkpt>
<trkpt lat="46.2800344638526439666748046875" lon="7.44489021599292755126953125"><ele></ele><time>2020-9-19T14:33:12Z</time></trkpt>
<trkpt lat="46.28004007972776889801025390625" lon="7.4449222348630428314208984375"><ele></ele><time>2020-9-19T14:33:15Z</time></trkpt>
<trkpt lat="46.28004376776516437530517578125" lon="7.44495324790477752685546875"><ele></ele><time>2020-9-19T14:33:18Z</time></trkpt>
<trkpt lat="46.28004577942192554473876953125" lon="7.444983422756195068359375"><ele></ele><time>2020-9-19T14:33:21Z</time></trkpt>
<trkpt lat="46.28004728816449642181396484375" lon="7.44501301087439060211181640625"><ele></ele><time>2020-9-19T14:33:24Z</time></trkpt>
<trkpt lat="46.2800478748977184295654296875" lon="7.4450415931642055511474609375"><ele></ele><time>2020-9-19T14:33:27Z</time></trkpt>
<trkpt lat="46.28004728816449642181396484375" lon="7.44506900198757648468017578125"><ele></ele><time>2020-9-19T14:33:30Z</time></trkpt>
<trkpt lat="46.28004695288836956024169921875" lon="7.44509548880159854888916015625"><ele></ele><time>2020-9-19T14:33:33Z</time></trkpt>
<trkpt lat="46.2800461985170841217041015625" lon="7.44512063451111316680908203125"><ele></ele><time>2020-9-19T14:33:36Z</time></trkpt>
<trkpt lat="46.28004510886967182159423828125" lon="7.44514502584934234619140625"><ele></ele><time>2020-9-19T14:33:39Z</time></trkpt>
<trkpt lat="46.28004393540322780609130859375" lon="7.44516824372112751007080078125"><ele></ele><time>2020-9-19T14:33:42Z</time></trkpt>
<trkpt lat="46.2800451926887035369873046875" lon="7.44519305415451526641845703125"><ele></ele><time>2020-9-19T14:33:45Z</time></trkpt>
<trkpt lat="46.28004594705998897552490234375" lon="7.44521920569241046905517578125"><ele></ele><time>2020-9-19T14:33:48Z</time></trkpt>
<trkpt lat="46.28004913218319416046142578125" lon="7.44524334557354450225830078125"><ele></ele><time>2020-9-19T14:33:51Z</time></trkpt>
<trkpt lat="46.2800532393157482147216796875" lon="7.4452699162065982818603515625"><ele></ele><time>2020-9-19T14:33:54Z</time></trkpt>
<trkpt lat="46.2800579331815242767333984375" lon="7.4452974088490009307861328125"><ele></ele><time>2020-9-19T14:33:57Z</time></trkpt>
<trkpt lat="46.2800636328756809234619140625" lon="7.44532465003430843353271484375"><ele></ele><time>2020-9-19T14:34:0Z</time></trkpt>
<trkpt lat="46.28007025457918643951416015625" lon="7.44535231031477451324462890625"><ele></ele><time>2020-9-19T14:34:3Z</time></trkpt>
<trkpt lat="46.2800763733685016632080078125" lon="7.44537762366235256195068359375"><ele></ele><time>2020-9-19T14:34:6Z</time></trkpt>
<trkpt lat="46.2800817377865314483642578125" lon="7.4454053677618503570556640625"><ele></ele><time>2020-9-19T14:34:9Z</time></trkpt>
<trkpt lat="46.28008483909070491790771484375" lon="7.4454355426132678985595703125"><ele></ele><time>2020-9-19T14:34:12Z</time></trkpt>
<trkpt lat="46.28008634783327579498291015625" lon="7.4454650469124317169189453125"><ele></ele><time>2020-9-19T14:34:15Z</time></trkpt>
<trkpt lat="46.28009020350873470306396484375" lon="7.44549237191677093505859375"><ele></ele><time>2020-9-19T14:34:18Z</time></trkpt>
<trkpt lat="46.28009296953678131103515625" lon="7.445521540939807891845703125"><ele></ele><time>2020-9-19T14:34:21Z</time></trkpt>
<trkpt lat="46.28009255044162273406982421875" lon="7.44555397890508174896240234375"><ele></ele><time>2020-9-19T14:34:24Z</time></trkpt>
<trkpt lat="46.2800917960703372955322265625" lon="7.44558700360357761383056640625"><ele></ele><time>2020-9-19T14:34:27Z</time></trkpt>
<trkpt lat="46.28009020350873470306396484375" lon="7.4456186033785343170166015625"><ele></ele><time>2020-9-19T14:34:30Z</time></trkpt>
<trkpt lat="46.2800896167755126953125" lon="7.4456487782299518585205078125"><ele></ele><time>2020-9-19T14:34:33Z</time></trkpt>
<trkpt lat="46.280086934566497802734375" lon="7.44567953981459140777587890625"><ele></ele><time>2020-9-19T14:34:36Z</time></trkpt>
<trkpt lat="46.28008148632943630218505859375" lon="7.44571088813245296478271484375"><ele></ele><time>2020-9-19T14:34:39Z</time></trkpt>
<trkpt lat="46.28007779829204082489013671875" lon="7.445742823183536529541015625"><ele></ele><time>2020-9-19T14:34:42Z</time></trkpt>
<trkpt lat="46.28007226623594760894775390625" lon="7.44577257893979549407958984375"><ele></ele><time>2020-9-19T14:34:45Z</time></trkpt>
<trkpt lat="46.280061788856983184814453125" lon="7.44579940102994441986083984375"><ele></ele><time>2020-9-19T14:34:48Z</time></trkpt>
<trkpt lat="46.2800534069538116455078125" lon="7.4458187632262706756591796875"><ele></ele><time>2020-9-19T14:34:51Z</time></trkpt>
<trkpt lat="46.280038319528102874755859375" lon="7.44583711959421634674072265625"><ele></ele><time>2020-9-19T14:34:54Z</time></trkpt>
<trkpt lat="46.28002264536917209625244140625" lon="7.44585589505732059478759765625"><ele></ele><time>2020-9-19T14:34:57Z</time></trkpt>
<trkpt lat="46.28000319935381412506103515625" lon="7.4458784423768520355224609375"><ele></ele><time>2020-9-19T14:35:0Z</time></trkpt>
<trkpt lat="46.2799824960529804229736328125" lon="7.44591213762760162353515625"><ele></ele><time>2020-9-19T14:35:3Z</time></trkpt>
<trkpt lat="46.2799568474292755126953125" lon="7.44595815427601337432861328125"><ele></ele><time>2020-9-19T14:35:6Z</time></trkpt>
<trkpt lat="46.2799295224249362945556640625" lon="7.44601464830338954925537109375"><ele></ele><time>2020-9-19T14:35:9Z</time></trkpt>
<trkpt lat="46.27991326153278350830078125" lon="7.4460729025304317474365234375"><ele></ele><time>2020-9-19T14:35:12Z</time></trkpt>
<trkpt lat="46.2799043767154216766357421875" lon="7.4461315758526325225830078125"><ele></ele><time>2020-9-19T14:35:15Z</time></trkpt>
<trkpt lat="46.279896833002567291259765625" lon="7.44618983007967472076416015625"><ele></ele><time>2020-9-19T14:35:18Z</time></trkpt>
<trkpt lat="46.279896162450313568115234375" lon="7.4462462402880191802978515625"><ele></ele><time>2020-9-19T14:35:21Z</time></trkpt>
<trkpt lat="46.279892139136791229248046875" lon="7.446292340755462646484375"><ele></ele><time>2020-9-19T14:35:24Z</time></trkpt>
<trkpt lat="46.2798799015581607818603515625" lon="7.44632788002490997314453125"><ele></ele><time>2020-9-19T14:35:27Z</time></trkpt>
<trkpt lat="46.27986154519021511077880859375" lon="7.446359060704708099365234375"><ele></ele><time>2020-9-19T14:35:30Z</time></trkpt>
<trkpt lat="46.27983589656651020050048828125" lon="7.4463890679180622100830078125"><ele></ele><time>2020-9-19T14:35:33Z</time></trkpt>
<trkpt lat="46.27979650162160396575927734375" lon="7.4464090168476104736328125"><ele></ele><time>2020-9-19T14:35:36Z</time></trkpt>
<trkpt lat="46.279744617640972137451171875" lon="7.44643558748066425323486328125"><ele></ele><time>2020-9-19T14:35:39Z</time></trkpt>
<trkpt lat="46.2797035463154315948486328125" lon="7.44645637460052967071533203125"><ele></ele><time>2020-9-19T14:35:42Z</time></trkpt>
<trkpt lat="46.27967412583529949188232421875" lon="7.4464733898639678955078125"><ele></ele><time>2020-9-19T14:35:45Z</time></trkpt>
<trkpt lat="46.27965099178254604339599609375" lon="7.4464742280542850494384765625"><ele></ele><time>2020-9-19T14:35:48Z</time></trkpt>
<trkpt lat="46.279637329280376434326171875" lon="7.44645930826663970947265625"><ele></ele><time>2020-9-19T14:35:51Z</time></trkpt>
<trkpt lat="46.27963171340525150299072265625" lon="7.44644966907799243927001953125"><ele></ele><time>2020-9-19T14:35:54Z</time></trkpt>
<trkpt lat="46.27963556908071041107177734375" lon="7.446444220840930938720703125"><ele></ele><time>2020-9-19T14:35:57Z</time></trkpt>
<trkpt lat="46.27956583164632320404052734375" lon="7.44646090082824230194091796875"><ele></ele><time>2020-9-19T14:36:0Z</time></trkpt>
<trkpt lat="46.2795473076403141021728515625" lon="7.44645796716213226318359375"><ele></ele><time>2020-9-19T14:36:3Z</time></trkpt>
<trkpt lat="46.27952794544398784637451171875" lon="7.44645888917148113250732421875"><ele></ele><time>2020-9-19T14:36:6Z</time></trkpt>
<trkpt lat="46.2794869579374790191650390625" lon="7.44647883810102939605712890625"><ele></ele><time>2020-9-19T14:36:9Z</time></trkpt>
<trkpt lat="46.27943926490843296051025390625" lon="7.44651990942656993865966796875"><ele></ele><time>2020-9-19T14:36:12Z</time></trkpt>
<trkpt lat="46.27941437065601348876953125" lon="7.44655192829668521881103515625"><ele></ele><time>2020-9-19T14:36:15Z</time></trkpt>
<trkpt lat="46.27936164848506450653076171875" lon="7.44662418030202388763427734375"><ele></ele><time>2020-9-19T14:36:18Z</time></trkpt>
<trkpt lat="46.27933315001428127288818359375" lon="7.4466653354465961456298828125"><ele></ele><time>2020-9-19T14:36:21Z</time></trkpt>
<trkpt lat="46.279304735362529754638671875" lon="7.44671286083757877349853515625"><ele></ele><time>2020-9-19T14:36:24Z</time></trkpt>
<trkpt lat="46.2792495824396610260009765625" lon="7.44681864045560359954833984375"><ele></ele><time>2020-9-19T14:36:27Z</time></trkpt>
<trkpt lat="46.27912980504333972930908203125" lon="7.447069175541400909423828125"><ele></ele><time>2020-9-19T14:36:30Z</time></trkpt>
<trkpt lat="46.2790614925324916839599609375" lon="7.44720906950533390045166015625"><ele></ele><time>2020-9-19T14:36:33Z</time></trkpt>
<trkpt lat="46.27902142703533172607421875" lon="7.44727444835007190704345703125"><ele></ele><time>2020-9-19T14:36:36Z</time></trkpt>
<trkpt lat="46.27897473983466625213623046875" lon="7.44732725434005260467529296875"><ele></ele><time>2020-9-19T14:36:39Z</time></trkpt>
<trkpt lat="46.27891757525503635406494140625" lon="7.447363547980785369873046875"><ele></ele><time>2020-9-19T14:36:42Z</time></trkpt>
<trkpt lat="46.2788509391248226165771484375" lon="7.44738542474806308746337890625"><ele></ele><time>2020-9-19T14:36:45Z</time></trkpt>
<trkpt lat="46.27877692691981792449951171875" lon="7.44739514775574207305908203125"><ele></ele><time>2020-9-19T14:36:48Z</time></trkpt>
<trkpt lat="46.27869830466806888580322265625" lon="7.44740453548729419708251953125"><ele></ele><time>2020-9-19T14:36:51Z</time></trkpt>
<trkpt lat="46.2786185927689075469970703125" lon="7.4474227242171764373779296875"><ele></ele><time>2020-9-19T14:36:54Z</time></trkpt>
<trkpt lat="46.2784690596163272857666015625" lon="7.44747360236942768096923828125"><ele></ele><time>2020-9-19T14:36:57Z</time></trkpt>
<trkpt lat="46.27840477041900157928466796875" lon="7.44749355129897594451904296875"><ele></ele><time>2020-9-19T14:37:0Z</time></trkpt>
<trkpt lat="46.27835079096257686614990234375" lon="7.447492964565753936767578125"><ele></ele><time>2020-9-19T14:37:3Z</time></trkpt>
<trkpt lat="46.27831055782735347747802734375" lon="7.4474706687033176422119140625"><ele></ele><time>2020-9-19T14:37:6Z</time></trkpt>
<trkpt lat="46.27827468328177928924560546875" lon="7.4474461935460567474365234375"><ele></ele><time>2020-9-19T14:37:9Z</time></trkpt>
<trkpt lat="46.2782353721559047698974609375" lon="7.447442673146724700927734375"><ele></ele><time>2020-9-19T14:37:12Z</time></trkpt>
<trkpt lat="46.2781978212296962738037109375" lon="7.4474555812776088714599609375"><ele></ele><time>2020-9-19T14:37:15Z</time></trkpt>
<trkpt lat="46.27815985120832920074462890625" lon="7.44747494347393512725830078125"><ele></ele><time>2020-9-19T14:37:18Z</time></trkpt>
<trkpt lat="46.27811442129313945770263671875" lon="7.447475530207157135009765625"><ele></ele><time>2020-9-19T14:37:21Z</time></trkpt>
<trkpt lat="46.2780613638460636138916015625" lon="7.4474589340388774871826171875"><ele></ele><time>2020-9-19T14:37:24Z</time></trkpt>
<trkpt lat="46.27800428308546543121337890625" lon="7.44742934592068195343017578125"><ele></ele><time>2020-9-19T14:37:27Z</time></trkpt>
<trkpt lat="46.27795181237161159515380859375" lon="7.44739011861383914947509765625"><ele></ele><time>2020-9-19T14:37:30Z</time></trkpt>
<trkpt lat="46.27790160477161407470703125" lon="7.44735742919147014617919921875"><ele></ele><time>2020-9-19T14:37:33Z</time></trkpt>
<trkpt lat="46.27785332500934600830078125" lon="7.44735742919147014617919921875"><ele></ele><time>2020-9-19T14:37:36Z</time></trkpt>
<trkpt lat="46.27782423980534076690673828125" lon="7.44739011861383914947509765625"><ele></ele><time>2020-9-19T14:37:39Z</time></trkpt>
<trkpt lat="46.27782776020467281341552734375" lon="7.44744141586124897003173828125"><ele></ele><time>2020-9-19T14:37:42Z</time></trkpt>
<trkpt lat="46.27784670330584049224853515625" lon="7.4474974907934665679931640625"><ele></ele><time>2020-9-19T14:37:45Z</time></trkpt>
<trkpt lat="46.27785525284707546234130859375" lon="7.44755993597209453582763671875"><ele></ele><time>2020-9-19T14:37:48Z</time></trkpt>
<trkpt lat="46.27784318290650844573974609375" lon="7.44762280024588108062744140625"><ele></ele><time>2020-9-19T14:37:51Z</time></trkpt>
<trkpt lat="46.27780311740934848785400390625" lon="7.4476835690438747406005859375"><ele></ele><time>2020-9-19T14:37:54Z</time></trkpt>
<trkpt lat="46.2777495570480823516845703125" lon="7.4477405659854412078857421875"><ele></ele><time>2020-9-19T14:37:57Z</time></trkpt>
<trkpt lat="46.27764134667813777923583984375" lon="7.4478317610919475555419921875"><ele></ele><time>2020-9-19T14:38:0Z</time></trkpt>
<trkpt lat="46.2775966711342334747314453125" lon="7.44787174277007579803466796875"><ele></ele><time>2020-9-19T14:38:3Z</time></trkpt>
<trkpt lat="46.2775564379990100860595703125" lon="7.44791180826723575592041015625"><ele></ele><time>2020-9-19T14:38:6Z</time></trkpt>
<trkpt lat="46.27751980908215045928955078125" lon="7.44795287959277629852294921875"><ele></ele><time>2020-9-19T14:38:9Z</time></trkpt>
<trkpt lat="46.27748376689851284027099609375" lon="7.44799713604152202606201171875"><ele></ele><time>2020-9-19T14:38:12Z</time></trkpt>
<trkpt lat="46.27745090983808040618896484375" lon="7.44804742746055126190185546875"><ele></ele><time>2020-9-19T14:38:15Z</time></trkpt>
<trkpt lat="46.2774159573018550872802734375" lon="7.4481016583740711212158203125"><ele></ele><time>2020-9-19T14:38:18Z</time></trkpt>
<trkpt lat="46.27733842469751834869384765625" lon="7.44820148684084415435791015625"><ele></ele><time>2020-9-19T14:38:21Z</time></trkpt>
<trkpt lat="46.2773014605045318603515625" lon="7.44824574328958988189697265625"><ele></ele><time>2020-9-19T14:38:24Z</time></trkpt>
<trkpt lat="46.27726416103541851043701171875" lon="7.44828966446220874786376953125"><ele></ele><time>2020-9-19T14:38:27Z</time></trkpt>
<trkpt lat="46.2772288732230663299560546875" lon="7.44833283126354217529296875"><ele></ele><time>2020-9-19T14:38:30Z</time></trkpt>
<trkpt lat="46.27719459123909473419189453125" lon="7.4483722262084484100341796875"><ele></ele><time>2020-9-19T14:38:33Z</time></trkpt>
<trkpt lat="46.27715838141739368438720703125" lon="7.448410280048847198486328125"><ele></ele><time>2020-9-19T14:38:36Z</time></trkpt>
<trkpt lat="46.27712309360504150390625" lon="7.448445819318294525146484375"><ele></ele><time>2020-9-19T14:38:39Z</time></trkpt>
<trkpt lat="46.27708889544010162353515625" lon="7.44847834110260009765625"><ele></ele><time>2020-9-19T14:38:42Z</time></trkpt>
<trkpt lat="46.2770546972751617431640625" lon="7.4485103599727153778076171875"><ele></ele><time>2020-9-19T14:38:45Z</time></trkpt>
<trkpt lat="46.277019493281841278076171875" lon="7.44854229502379894256591796875"><ele></ele><time>2020-9-19T14:38:48Z</time></trkpt>
<trkpt lat="46.276987306773662567138671875" lon="7.4485713802278041839599609375"><ele></ele><time>2020-9-19T14:38:51Z</time></trkpt>
<trkpt lat="46.27695436589419841766357421875" lon="7.44860348291695117950439453125"><ele></ele><time>2020-9-19T14:38:54Z</time></trkpt>
<trkpt lat="46.27692259848117828369140625" lon="7.4486340768635272979736328125"><ele></ele><time>2020-9-19T14:38:57Z</time></trkpt>
<trkpt lat="46.27689451910555362701416015625" lon="7.4486647546291351318359375"><ele></ele><time>2020-9-19T14:39:0Z</time></trkpt>
<trkpt lat="46.27686769701540470123291015625" lon="7.44869518093764781951904296875"><ele></ele><time>2020-9-19T14:39:3Z</time></trkpt>
<trkpt lat="46.27684439532458782196044921875" lon="7.44872351177036762237548828125"><ele></ele><time>2020-9-19T14:39:6Z</time></trkpt>
<trkpt lat="46.27682226710021495819091796875" lon="7.4487530998885631561279296875"><ele></ele><time>2020-9-19T14:39:9Z</time></trkpt>
<trkpt lat="46.27680399455130100250244140625" lon="7.4487782455980777740478515625"><ele></ele><time>2020-9-19T14:39:12Z</time></trkpt>
<trkpt lat="46.27678890712559223175048828125" lon="7.44880548678338527679443359375"><ele></ele><time>2020-9-19T14:39:15Z</time></trkpt>
<trkpt lat="46.27677331678569316864013671875" lon="7.4488332308828830718994140625"><ele></ele><time>2020-9-19T14:39:18Z</time></trkpt>
<trkpt lat="46.27675990574061870574951171875" lon="7.4488630704581737518310546875"><ele></ele><time>2020-9-19T14:39:21Z</time></trkpt>
<trkpt lat="46.2767484225332736968994140625" lon="7.44889467023313045501708984375"><ele></ele><time>2020-9-19T14:39:24Z</time></trkpt>
<trkpt lat="46.276724450290203094482421875" lon="7.44895912706851959228515625"><ele></ele><time>2020-9-19T14:39:27Z</time></trkpt>
<trkpt lat="46.27672000788152217864990234375" lon="7.44899441488087177276611328125"><ele></ele><time>2020-9-19T14:39:30Z</time></trkpt>
<trkpt lat="46.27671849913895130157470703125" lon="7.4490357376635074615478515625"><ele></ele><time>2020-9-19T14:39:33Z</time></trkpt>
<trkpt lat="46.2767138890922069549560546875" lon="7.44908125139772891998291015625"><ele></ele><time>2020-9-19T14:39:36Z</time></trkpt>
<trkpt lat="46.2767055071890354156494140625" lon="7.449125088751316070556640625"><ele></ele><time>2020-9-19T14:39:39Z</time></trkpt>
<trkpt lat="46.27669385634362697601318359375" lon="7.44916724972426891326904296875"><ele></ele><time>2020-9-19T14:39:42Z</time></trkpt>
<trkpt lat="46.27668027766048908233642578125" lon="7.449210248887538909912109375"><ele></ele><time>2020-9-19T14:39:45Z</time></trkpt>
<trkpt lat="46.2766612507402896881103515625" lon="7.449253834784030914306640625"><ele></ele><time>2020-9-19T14:39:48Z</time></trkpt>
<trkpt lat="46.2766434811055660247802734375" lon="7.44929264299571514129638671875"><ele></ele><time>2020-9-19T14:39:51Z</time></trkpt>
<trkpt lat="46.27662696875631809234619140625" lon="7.44933254085481166839599609375"><ele></ele><time>2020-9-19T14:39:54Z</time></trkpt>
<trkpt lat="46.276614479720592498779296875" lon="7.44937595911324024200439453125"><ele></ele><time>2020-9-19T14:39:57Z</time></trkpt>
<trkpt lat="46.2766052596271038055419921875" lon="7.44942138902842998504638671875"><ele></ele><time>2020-9-19T14:40:0Z</time></trkpt>
<trkpt lat="46.27659402787685394287109375" lon="7.4494679085910320281982421875"><ele></ele><time>2020-9-19T14:40:3Z</time></trkpt>
<trkpt lat="46.27658321522176265716552734375" lon="7.4495101533830165863037109375"><ele></ele><time>2020-9-19T14:40:6Z</time></trkpt>
<trkpt lat="46.27657013945281505584716796875" lon="7.44954493828117847442626953125"><ele></ele><time>2020-9-19T14:40:9Z</time></trkpt>
<trkpt lat="46.27655505202710628509521484375" lon="7.44957025162875652313232421875"><ele></ele><time>2020-9-19T14:40:12Z</time></trkpt>
<trkpt lat="46.27653636038303375244140625" lon="7.449586428701877593994140625"><ele></ele><time>2020-9-19T14:40:15Z</time></trkpt>
<trkpt lat="46.27651280723512172698974609375" lon="7.4495943076908588409423828125"><ele></ele><time>2020-9-19T14:40:18Z</time></trkpt>
<trkpt lat="46.27648514695465564727783203125" lon="7.44959355331957340240478515625"><ele></ele><time>2020-9-19T14:40:21Z</time></trkpt>
<trkpt lat="46.27645530737936496734619140625" lon="7.44958550669252872467041015625"><ele></ele><time>2020-9-19T14:40:24Z</time></trkpt>
<trkpt lat="46.2764238752424716949462890625" lon="7.44956723414361476898193359375"><ele></ele><time>2020-9-19T14:40:27Z</time></trkpt>
<trkpt lat="46.2763427384197711944580078125" lon="7.4495203793048858642578125"><ele></ele><time>2020-9-19T14:40:30Z</time></trkpt>
<trkpt lat="46.27630124799907207489013671875" lon="7.44949900545179843902587890625"><ele></ele><time>2020-9-19T14:40:33Z</time></trkpt>
<trkpt lat="46.27626436762511730194091796875" lon="7.44947385974228382110595703125"><ele></ele><time>2020-9-19T14:40:36Z</time></trkpt>
<trkpt lat="46.27623201347887516021728515625" lon="7.449442930519580841064453125"><ele></ele><time>2020-9-19T14:40:39Z</time></trkpt>
<trkpt lat="46.27620016224682331085205078125" lon="7.44941200129687786102294921875"><ele></ele><time>2020-9-19T14:40:42Z</time></trkpt>
<trkpt lat="46.276169233024120330810546875" lon="7.44938400574028491973876953125"><ele></ele><time>2020-9-19T14:40:45Z</time></trkpt>
<trkpt lat="46.27614400349557399749755859375" lon="7.4493565969169139862060546875"><ele></ele><time>2020-9-19T14:40:48Z</time></trkpt>
<trkpt lat="46.2761271558701992034912109375" lon="7.44933723472058773040771484375"><ele></ele><time>2020-9-19T14:40:51Z</time></trkpt>
<trkpt lat="46.276120282709598541259765625" lon="7.44933069683611392974853515625"><ele></ele><time>2020-9-19T14:40:54Z</time></trkpt>
<trkpt lat="46.2761204503476619720458984375" lon="7.44933061301708221435546875"><ele></ele><time>2020-9-19T14:40:57Z</time></trkpt>
<trkpt lat="46.2760818935930728912353515625" lon="7.44928794912993907928466796875"><ele></ele><time>2020-9-19T14:41:0Z</time></trkpt>
<trkpt lat="46.27605565823614597320556640625" lon="7.44926984421908855438232421875"><ele></ele><time>2020-9-19T14:41:3Z</time></trkpt>
<trkpt lat="46.27602095715701580047607421875" lon="7.4492548406124114990234375"><ele></ele><time>2020-9-19T14:41:6Z</time></trkpt>
<trkpt lat="46.275980472564697265625" lon="7.44923983700573444366455078125"><ele></ele><time>2020-9-19T14:41:9Z</time></trkpt>
<trkpt lat="46.2759447656571865081787109375" lon="7.44922424666583538055419921875"><ele></ele><time>2020-9-19T14:41:12Z</time></trkpt>
<trkpt lat="46.27591316588222980499267578125" lon="7.44921259582042694091796875"><ele></ele><time>2020-9-19T14:41:15Z</time></trkpt>
<trkpt lat="46.2758803926408290863037109375" lon="7.44920547120273113250732421875"><ele></ele><time>2020-9-19T14:41:18Z</time></trkpt>
<trkpt lat="46.2758039496839046478271484375" lon="7.4491963349282741546630859375"><ele></ele><time>2020-9-19T14:41:21Z</time></trkpt>
<trkpt lat="46.275767572224140167236328125" lon="7.4491939879953861236572265625"><ele></ele><time>2020-9-19T14:41:24Z</time></trkpt>
<trkpt lat="46.2757311947643756866455078125" lon="7.44919071905314922332763671875"><ele></ele><time>2020-9-19T14:41:27Z</time></trkpt>
<trkpt lat="46.27569104544818401336669921875" lon="7.4491872824728488922119140625"><ele></ele><time>2020-9-19T14:41:30Z</time></trkpt>
<trkpt lat="46.27564880065619945526123046875" lon="7.44917948730289936065673828125"><ele></ele><time>2020-9-19T14:41:33Z</time></trkpt>
<trkpt lat="46.27555810846388339996337890625" lon="7.44915115647017955780029296875"><ele></ele><time>2020-9-19T14:41:36Z</time></trkpt>
<trkpt lat="46.275516450405120849609375" lon="7.44913137517869472503662109375"><ele></ele><time>2020-9-19T14:41:39Z</time></trkpt>
<trkpt lat="46.275476552546024322509765625" lon="7.449116371572017669677734375"><ele></ele><time>2020-9-19T14:41:42Z</time></trkpt>
<trkpt lat="46.2754374928772449493408203125" lon="7.44910472072660923004150390625"><ele></ele><time>2020-9-19T14:41:45Z</time></trkpt>
<trkpt lat="46.27540220506489276885986328125" lon="7.449094913899898529052734375"><ele></ele><time>2020-9-19T14:41:48Z</time></trkpt>
<trkpt lat="46.27536532469093799591064453125" lon="7.44908963330090045928955078125"><ele></ele><time>2020-9-19T14:41:51Z</time></trkpt>
<trkpt lat="46.2753312103450298309326171875" lon="7.44908343069255352020263671875"><ele></ele><time>2020-9-19T14:41:54Z</time></trkpt>
<trkpt lat="46.27529508434236049652099609375" lon="7.4490823410451412200927734375"><ele></ele><time>2020-9-19T14:41:57Z</time></trkpt>
<trkpt lat="46.27526633441448211669921875" lon="7.449076473712921142578125"><ele></ele><time>2020-9-19T14:42:0Z</time></trkpt>
<trkpt lat="46.27523406408727169036865234375" lon="7.4490763060748577117919921875"><ele></ele><time>2020-9-19T14:42:3Z</time></trkpt>
<trkpt lat="46.2751944176852703094482421875" lon="7.4490860290825366973876953125"><ele></ele><time>2020-9-19T14:42:6Z</time></trkpt>
<trkpt lat="46.27515879459679126739501953125" lon="7.44910220615565776824951171875"><ele></ele><time>2020-9-19T14:42:9Z</time></trkpt>
<trkpt lat="46.275121830403804779052734375" lon="7.44912047870457172393798828125"><ele></ele><time>2020-9-19T14:42:12Z</time></trkpt>
<trkpt lat="46.2750780768692493438720703125" lon="7.44913053698837757110595703125"><ele></ele><time>2020-9-19T14:42:15Z</time></trkpt>
<trkpt lat="46.2750334851443767547607421875" lon="7.44912944734096527099609375"><ele></ele><time>2020-9-19T14:42:18Z</time></trkpt>
<trkpt lat="46.2749858759343624114990234375" lon="7.44912651367485523223876953125"><ele></ele><time>2020-9-19T14:42:21Z</time></trkpt>
<trkpt lat="46.274942122399806976318359375" lon="7.4491165392100811004638671875"><ele></ele><time>2020-9-19T14:42:24Z</time></trkpt>
<trkpt lat="46.27484698779881000518798828125" lon="7.449086867272853851318359375"><ele></ele><time>2020-9-19T14:42:27Z</time></trkpt>
<trkpt lat="46.274757720530033111572265625" lon="7.449058704078197479248046875"><ele></ele><time>2020-9-19T14:42:30Z</time></trkpt>
<trkpt lat="46.2747257016599178314208984375" lon="7.4490501545369625091552734375"><ele></ele><time>2020-9-19T14:42:33Z</time></trkpt>
<trkpt lat="46.274694018065929412841796875" lon="7.44904537685215473175048828125"><ele></ele><time>2020-9-19T14:42:36Z</time></trkpt>
<trkpt lat="46.27466417849063873291015625" lon="7.44904001243412494659423828125"><ele></ele><time>2020-9-19T14:42:39Z</time></trkpt>
<trkpt lat="46.27463308162987232208251953125" lon="7.44903196580708026885986328125"><ele></ele><time>2020-9-19T14:42:42Z</time></trkpt>
<trkpt lat="46.274606175720691680908203125" lon="7.44901084341108798980712890625"><ele></ele><time>2020-9-19T14:42:45Z</time></trkpt>
<trkpt lat="46.274582035839557647705078125" lon="7.44896826334297657012939453125"><ele></ele><time>2020-9-19T14:42:48Z</time></trkpt>
<trkpt lat="46.2745573930442333221435546875" lon="7.44891780428588390350341796875"><ele></ele><time>2020-9-19T14:42:51Z</time></trkpt>
<trkpt lat="46.2745312415063381195068359375" lon="7.44885644875466823577880859375"><ele></ele><time>2020-9-19T14:42:54Z</time></trkpt>
<trkpt lat="46.2745060957968235015869140625" lon="7.4487872980535030364990234375"><ele></ele><time>2020-9-19T14:42:57Z</time></trkpt>
<trkpt lat="46.274447254836559295654296875" lon="7.4486441351473331451416015625"><ele></ele><time>2020-9-19T14:43:0Z</time></trkpt>
<trkpt lat="46.27440802752971649169921875" lon="7.44857347570359706878662109375"><ele></ele><time>2020-9-19T14:43:3Z</time></trkpt>
<trkpt lat="46.2743709795176982879638671875" lon="7.44850524701178073883056640625"><ele></ele><time>2020-9-19T14:43:6Z</time></trkpt>
<trkpt lat="46.27432529814541339874267578125" lon="7.4484329111874103546142578125"><ele></ele><time>2020-9-19T14:43:9Z</time></trkpt>
<trkpt lat="46.27427550964057445526123046875" lon="7.448368705809116363525390625"><ele></ele><time>2020-9-19T14:43:12Z</time></trkpt>
<trkpt lat="46.27422563731670379638671875" lon="7.44829930365085601806640625"><ele></ele><time>2020-9-19T14:43:15Z</time></trkpt>
<trkpt lat="46.2741337716579437255859375" lon="7.44815153069794178009033203125"><ele></ele><time>2020-9-19T14:43:18Z</time></trkpt>
<trkpt lat="46.274093203246593475341796875" lon="7.44808497838675975799560546875"><ele></ele><time>2020-9-19T14:43:21Z</time></trkpt>
<trkpt lat="46.274054981768131256103515625" lon="7.4480245448648929595947265625"><ele></ele><time>2020-9-19T14:43:24Z</time></trkpt>
<trkpt lat="46.274019777774810791015625" lon="7.4479662068188190460205078125"><ele></ele><time>2020-9-19T14:43:27Z</time></trkpt>
<trkpt lat="46.27398180775344371795654296875" lon="7.44791130535304546356201171875"><ele></ele><time>2020-9-19T14:43:30Z</time></trkpt>
<trkpt lat="46.27394777722656726837158203125" lon="7.44785246439278125762939453125"><ele></ele><time>2020-9-19T14:43:33Z</time></trkpt>
<trkpt lat="46.27391559071838855743408203125" lon="7.447785325348377227783203125"><ele></ele><time>2020-9-19T14:43:36Z</time></trkpt>
<trkpt lat="46.2738883495330810546875" lon="7.44770896621048450469970703125"><ele></ele><time>2020-9-19T14:43:39Z</time></trkpt>
<trkpt lat="46.273859851062297821044921875" lon="7.4476305954158306121826171875"><ele></ele><time>2020-9-19T14:43:42Z</time></trkpt>
<trkpt lat="46.27383545972406864166259765625" lon="7.44755507446825504302978515625"><ele></ele><time>2020-9-19T14:43:45Z</time></trkpt>
<trkpt lat="46.2738087214529514312744140625" lon="7.44748550467193126678466796875"><ele></ele><time>2020-9-19T14:43:48Z</time></trkpt>
<trkpt lat="46.2737782113254070281982421875" lon="7.44742632843554019927978515625"><ele></ele><time>2020-9-19T14:43:51Z</time></trkpt>
<trkpt lat="46.2737409956753253936767578125" lon="7.44737662374973297119140625"><ele></ele><time>2020-9-19T14:43:54Z</time></trkpt>
<trkpt lat="46.27369732595980167388916015625" lon="7.44734167121350765228271484375"><ele></ele><time>2020-9-19T14:43:57Z</time></trkpt>
<trkpt lat="46.27364904619753360748291015625" lon="7.44731786660850048065185546875"><ele></ele><time>2020-9-19T14:44:0Z</time></trkpt>
<trkpt lat="46.27359858714044094085693359375" lon="7.44729615747928619384765625"><ele></ele><time>2020-9-19T14:44:3Z</time></trkpt>
<trkpt lat="46.27354125492274761199951171875" lon="7.4472721852362155914306640625"><ele></ele><time>2020-9-19T14:44:6Z</time></trkpt>
<trkpt lat="46.273489706218242645263671875" lon="7.4472363106906414031982421875"><ele></ele><time>2020-9-19T14:44:9Z</time></trkpt>
<trkpt lat="46.2733907997608184814453125" lon="7.44716950692236423492431640625"><ele></ele><time>2020-9-19T14:44:12Z</time></trkpt>
<trkpt lat="46.27334327436983585357666015625" lon="7.44714184664189815521240234375"><ele></ele><time>2020-9-19T14:44:15Z</time></trkpt>
<trkpt lat="46.27329893410205841064453125" lon="7.447116114199161529541015625"><ele></ele><time>2020-9-19T14:44:18Z</time></trkpt>
<trkpt lat="46.27325442619621753692626953125" lon="7.44708669371902942657470703125"><ele></ele><time>2020-9-19T14:44:21Z</time></trkpt>
<trkpt lat="46.2732102535665035247802734375" lon="7.447050400078296661376953125"><ele></ele><time>2020-9-19T14:44:24Z</time></trkpt>
<trkpt lat="46.2731733731925487518310546875" lon="7.44701184332370758056640625"><ele></ele><time>2020-9-19T14:44:27Z</time></trkpt>
<trkpt lat="46.27314210869371891021728515625" lon="7.4469727836549282073974609375"><ele></ele><time>2020-9-19T14:44:30Z</time></trkpt>
<trkpt lat="46.2731136940419673919677734375" lon="7.446930371224880218505859375"><ele></ele><time>2020-9-19T14:44:33Z</time></trkpt>
<trkpt lat="46.27307572402060031890869140625" lon="7.44689608924090862274169921875"><ele></ele><time>2020-9-19T14:44:36Z</time></trkpt>
<trkpt lat="46.2730313837528228759765625" lon="7.4468676745891571044921875"><ele></ele><time>2020-9-19T14:44:39Z</time></trkpt>
<trkpt lat="46.27298654057085514068603515625" lon="7.44684127159416675567626953125"><ele></ele><time>2020-9-19T14:44:42Z</time></trkpt>
<trkpt lat="46.2729007937014102935791015625" lon="7.44678226299583911895751953125"><ele></ele><time>2020-9-19T14:44:45Z</time></trkpt>
<trkpt lat="46.27285477705299854278564453125" lon="7.4467474780976772308349609375"><ele></ele><time>2020-9-19T14:44:48Z</time></trkpt>
<trkpt lat="46.2728116102516651153564453125" lon="7.4467072449624538421630859375"><ele></ele><time>2020-9-19T14:44:51Z</time></trkpt>
<trkpt lat="46.2727646715939044952392578125" lon="7.44666223414242267608642578125"><ele></ele><time>2020-9-19T14:44:54Z</time></trkpt>
<trkpt lat="46.272718571126461029052734375" lon="7.446617893874645233154296875"><ele></ele><time>2020-9-19T14:44:57Z</time></trkpt>
<trkpt lat="46.2726764939725399017333984375" lon="7.44657439179718494415283203125"><ele></ele><time>2020-9-19T14:45:0Z</time></trkpt>
<trkpt lat="46.27263332717120647430419921875" lon="7.446532733738422393798828125"><ele></ele><time>2020-9-19T14:45:3Z</time></trkpt>
<trkpt lat="46.272549591958522796630859375" lon="7.44644187390804290771484375"><ele></ele><time>2020-9-19T14:45:6Z</time></trkpt>
<trkpt lat="46.2725055031478404998779296875" lon="7.4463907442986965179443359375"><ele></ele><time>2020-9-19T14:45:9Z</time></trkpt>
<trkpt lat="46.27246166579425334930419921875" lon="7.4463340826332569122314453125"><ele></ele><time>2020-9-19T14:45:12Z</time></trkpt>
<trkpt lat="46.27241556532680988311767578125" lon="7.44628068991005420684814453125"><ele></ele><time>2020-9-19T14:45:15Z</time></trkpt>
<trkpt lat="46.27237482927739620208740234375" lon="7.44622235186398029327392578125"><ele></ele><time>2020-9-19T14:45:18Z</time></trkpt>
<trkpt lat="46.27229352481663227081298828125" lon="7.44611305184662342071533203125"><ele></ele><time>2020-9-19T14:45:21Z</time></trkpt>
<trkpt lat="46.27225379459559917449951171875" lon="7.44607114233076572418212890625"><ele></ele><time>2020-9-19T14:45:24Z</time></trkpt>
<trkpt lat="46.27222311682999134063720703125" lon="7.44601833634078502655029296875"><ele></ele><time>2020-9-19T14:45:27Z</time></trkpt>
<trkpt lat="46.2721947021782398223876953125" lon="7.4459584057331085205078125"><ele></ele><time>2020-9-19T14:45:30Z</time></trkpt>
<trkpt lat="46.27215991728007793426513671875" lon="7.44589981622993946075439453125"><ele></ele><time>2020-9-19T14:45:33Z</time></trkpt>
<trkpt lat="46.27212018705904483795166015625" lon="7.44584449566900730133056640625"><ele></ele><time>2020-9-19T14:45:36Z</time></trkpt>
<trkpt lat="46.27203469164669513702392578125" lon="7.4457258917391300201416015625"><ele></ele><time>2020-9-19T14:45:39Z</time></trkpt>
<trkpt lat="46.2719985656440258026123046875" lon="7.44566478766500949859619140625"><ele></ele><time>2020-9-19T14:45:42Z</time></trkpt>
<trkpt lat="46.2719643674790859222412109375" lon="7.44560812599956989288330078125"><ele></ele><time>2020-9-19T14:45:45Z</time></trkpt>
<trkpt lat="46.27193192951381206512451171875" lon="7.44555942714214324951171875"><ele></ele><time>2020-9-19T14:45:48Z</time></trkpt>
<trkpt lat="46.27189521677792072296142578125" lon="7.44553369469940662384033203125"><ele></ele><time>2020-9-19T14:45:51Z</time></trkpt>
<trkpt lat="46.27186520956456661224365234375" lon="7.44553805328905582427978515625"><ele></ele><time>2020-9-19T14:45:54Z</time></trkpt>
<trkpt lat="46.27185263670980930328369140625" lon="7.44556521065533161163330078125"><ele></ele><time>2020-9-19T14:45:57Z</time></trkpt>
<trkpt lat="46.2718631140887737274169921875" lon="7.44559722952544689178466796875"><ele></ele><time>2020-9-19T14:46:0Z</time></trkpt>
<trkpt lat="46.27187845297157764434814453125" lon="7.445643246173858642578125"><ele></ele><time>2020-9-19T14:46:3Z</time></trkpt>
<trkpt lat="46.27189974300563335418701171875" lon="7.4457067809998989105224609375"><ele></ele><time>2020-9-19T14:46:6Z</time></trkpt>
<trkpt lat="46.27191617153584957122802734375" lon="7.44577936828136444091796875"><ele></ele><time>2020-9-19T14:46:9Z</time></trkpt>
<trkpt lat="46.27192053012549877166748046875" lon="7.44586427696049213409423828125"><ele></ele><time>2020-9-19T14:46:12Z</time></trkpt>
<trkpt lat="46.2719281576573848724365234375" lon="7.44593627750873565673828125"><ele></ele><time>2020-9-19T14:46:15Z</time></trkpt>
<trkpt lat="46.271939389407634735107421875" lon="7.44598983787000179290771484375"><ele></ele><time>2020-9-19T14:46:18Z</time></trkpt>
<trkpt lat="46.27195154316723346710205078125" lon="7.4460470862686634063720703125"><ele></ele><time>2020-9-19T14:46:21Z</time></trkpt>
<trkpt lat="46.27196344546973705291748046875" lon="7.44611606933176517486572265625"><ele></ele><time>2020-9-19T14:46:24Z</time></trkpt>
<trkpt lat="46.27198138274252414703369140625" lon="7.44618999771773815155029296875"><ele></ele><time>2020-9-19T14:46:27Z</time></trkpt>
<trkpt lat="46.2720025889575481414794921875" lon="7.4462579749524593353271484375"><ele></ele><time>2020-9-19T14:46:30Z</time></trkpt>
<trkpt lat="46.27202144823968410491943359375" lon="7.4463169835507869720458984375"><ele></ele><time>2020-9-19T14:46:33Z</time></trkpt>
<trkpt lat="46.27203636802732944488525390625" lon="7.44638194330036640167236328125"><ele></ele><time>2020-9-19T14:46:36Z</time></trkpt>
<trkpt lat="46.27204575575888156890869140625" lon="7.446448914706707000732421875"><ele></ele><time>2020-9-19T14:46:39Z</time></trkpt>
<trkpt lat="46.27205011434853076934814453125" lon="7.446521334350109100341796875"><ele></ele><time>2020-9-19T14:46:42Z</time></trkpt>
<trkpt lat="46.27205950208008289337158203125" lon="7.44658377952873706817626953125"><ele></ele><time>2020-9-19T14:46:45Z</time></trkpt>
<trkpt lat="46.272069476544857025146484375" lon="7.4466365016996860504150390625"><ele></ele><time>2020-9-19T14:46:48Z</time></trkpt>
<trkpt lat="46.272090934216976165771484375" lon="7.44668461382389068603515625"><ele></ele><time>2020-9-19T14:46:51Z</time></trkpt>
<trkpt lat="46.27211633138358592987060546875" lon="7.44672995992004871368408203125"><ele></ele><time>2020-9-19T14:46:54Z</time></trkpt>
<trkpt lat="46.27213560976088047027587890625" lon="7.44678477756679058074951171875"><ele></ele><time>2020-9-19T14:46:57Z</time></trkpt>
<trkpt lat="46.272149942815303802490234375" lon="7.4468396790325641632080078125"><ele></ele><time>2020-9-19T14:47:0Z</time></trkpt>
<trkpt lat="46.27214918844401836395263671875" lon="7.4468819238245487213134765625"><ele></ele><time>2020-9-19T14:47:3Z</time></trkpt>
<trkpt lat="46.272131502628326416015625" lon="7.44691193103790283203125"><ele></ele><time>2020-9-19T14:47:6Z</time></trkpt>
<trkpt lat="46.27209998667240142822265625" lon="7.44692944921553134918212890625"><ele></ele><time>2020-9-19T14:47:9Z</time></trkpt>
<trkpt lat="46.272059418261051177978515625" lon="7.44693414308130741119384765625"><ele></ele><time>2020-9-19T14:47:12Z</time></trkpt>
<trkpt lat="46.2720196880400180816650390625" lon="7.44692341424524784088134765625"><ele></ele><time>2020-9-19T14:47:15Z</time></trkpt>
<trkpt lat="46.27198372967541217803955078125" lon="7.4469020403921604156494140625"><ele></ele><time>2020-9-19T14:47:18Z</time></trkpt>
<trkpt lat="46.2719529680907726287841796875" lon="7.44686943478882312774658203125"><ele></ele><time>2020-9-19T14:47:21Z</time></trkpt>
<trkpt lat="46.27191550098359584808349609375" lon="7.44683154858648777008056640625"><ele></ele><time>2020-9-19T14:47:24Z</time></trkpt>
<trkpt lat="46.27186889760196208953857421875" lon="7.44679466821253299713134765625"><ele></ele><time>2020-9-19T14:47:27Z</time></trkpt>
<trkpt lat="46.27181190066039562225341796875" lon="7.446765415370464324951171875"><ele></ele><time>2020-9-19T14:47:30Z</time></trkpt>
<trkpt lat="46.2717519700527191162109375" lon="7.4467411078512668609619140625"><ele></ele><time>2020-9-19T14:47:33Z</time></trkpt>
<trkpt lat="46.27163537777960300445556640625" lon="7.44669743813574314117431640625"><ele></ele><time>2020-9-19T14:47:36Z</time></trkpt>
<trkpt lat="46.27158558927476406097412109375" lon="7.446669526398181915283203125"><ele></ele><time>2020-9-19T14:47:39Z</time></trkpt>
<trkpt lat="46.27154150046408176422119140625" lon="7.44663675315678119659423828125"><ele></ele><time>2020-9-19T14:47:42Z</time></trkpt>
<trkpt lat="46.271504871547222137451171875" lon="7.446597106754779815673828125"><ele></ele><time>2020-9-19T14:47:45Z</time></trkpt>
<trkpt lat="46.27147880382835865020751953125" lon="7.4465436302125453948974609375"><ele></ele><time>2020-9-19T14:47:48Z</time></trkpt>
<trkpt lat="46.2714517302811145782470703125" lon="7.4464816041290760040283203125"><ele></ele><time>2020-9-19T14:47:51Z</time></trkpt>
<trkpt lat="46.271419040858745574951171875" lon="7.446424774825572967529296875"><ele></ele><time>2020-9-19T14:47:54Z</time></trkpt>
<trkpt lat="46.27138207666575908660888671875" lon="7.44636945426464080810546875"><ele></ele><time>2020-9-19T14:47:57Z</time></trkpt>
<trkpt lat="46.27134402282536029815673828125" lon="7.44631203822791576385498046875"><ele></ele><time>2020-9-19T14:48:0Z</time></trkpt>
<trkpt lat="46.27130663953721523284912109375" lon="7.44625604711472988128662109375"><ele></ele><time>2020-9-19T14:48:3Z</time></trkpt>
<trkpt lat="46.271268166601657867431640625" lon="7.446203492581844329833984375"><ele></ele><time>2020-9-19T14:48:6Z</time></trkpt>
<trkpt lat="46.2712301127612590789794921875" lon="7.4461567215621471405029296875"><ele></ele><time>2020-9-19T14:48:9Z</time></trkpt>
<trkpt lat="46.27118526957929134368896484375" lon="7.44612000882625579833984375"><ele></ele><time>2020-9-19T14:48:12Z</time></trkpt>
<trkpt lat="46.2711399234831333160400390625" lon="7.44609293527901172637939453125"><ele></ele><time>2020-9-19T14:48:15Z</time></trkpt>
<trkpt lat="46.271090805530548095703125" lon="7.44606728665530681610107421875"><ele></ele><time>2020-9-19T14:48:18Z</time></trkpt>
<trkpt lat="46.2710436992347240447998046875" lon="7.4460360221564769744873046875"><ele></ele><time>2020-9-19T14:48:21Z</time></trkpt>
<trkpt lat="46.27094889990985393524169921875" lon="7.445975840091705322265625"><ele></ele><time>2020-9-19T14:48:24Z</time></trkpt>
<trkpt lat="46.270900703966617584228515625" lon="7.445945329964160919189453125"><ele></ele><time>2020-9-19T14:48:27Z</time></trkpt>
<trkpt lat="46.270850412547588348388671875" lon="7.44592060334980487823486328125"><ele></ele><time>2020-9-19T14:48:30Z</time></trkpt>
<trkpt lat="46.27079433761537075042724609375" lon="7.44589394889771938323974609375"><ele></ele><time>2020-9-19T14:48:33Z</time></trkpt>
<trkpt lat="46.27074086107313632965087890625" lon="7.44586125947535037994384765625"><ele></ele><time>2020-9-19T14:48:36Z</time></trkpt>
<trkpt lat="46.2706899829208850860595703125" lon="7.4458315037190914154052734375"><ele></ele><time>2020-9-19T14:48:39Z</time></trkpt>
<trkpt lat="46.27064949832856655120849609375" lon="7.445792444050312042236328125"><ele></ele><time>2020-9-19T14:48:42Z</time></trkpt>
<trkpt lat="46.27061345614492893218994140625" lon="7.4457517080008983612060546875"><ele></ele><time>2020-9-19T14:48:45Z</time></trkpt>
<trkpt lat="46.270579509437084197998046875" lon="7.44571038521826267242431640625"><ele></ele><time>2020-9-19T14:48:48Z</time></trkpt>
<trkpt lat="46.270547322928905487060546875" lon="7.4456714093685150146484375"><ele></ele><time>2020-9-19T14:48:51Z</time></trkpt>
<trkpt lat="46.2705102749168872833251953125" lon="7.44564659893512725830078125"><ele></ele><time>2020-9-19T14:48:54Z</time></trkpt>
<trkpt lat="46.27046425826847553253173828125" lon="7.44563662447035312652587890625"><ele></ele><time>2020-9-19T14:48:57Z</time></trkpt>
<trkpt lat="46.27041296102106571197509765625" lon="7.44563184678554534912109375"><ele></ele><time>2020-9-19T14:49:0Z</time></trkpt>
<trkpt lat="46.27036132849752902984619140625" lon="7.44563729502260684967041015625"><ele></ele><time>2020-9-19T14:49:3Z</time></trkpt>
<trkpt lat="46.2703060917556285858154296875" lon="7.445649616420269012451171875"><ele></ele><time>2020-9-19T14:49:6Z</time></trkpt>
<trkpt lat="46.27025890164077281951904296875" lon="7.44566135108470916748046875"><ele></ele><time>2020-9-19T14:49:9Z</time></trkpt>
<trkpt lat="46.270210705697536468505859375" lon="7.4456665478646755218505859375"><ele></ele><time>2020-9-19T14:49:12Z</time></trkpt>
<trkpt lat="46.27016066573560237884521484375" lon="7.44565405882894992828369140625"><ele></ele><time>2020-9-19T14:49:15Z</time></trkpt>
<trkpt lat="46.27011138014495372772216796875" lon="7.445635534822940826416015625"><ele></ele><time>2020-9-19T14:49:18Z</time></trkpt>
<trkpt lat="46.27005974762141704559326171875" lon="7.44560913182795047760009765625"><ele></ele><time>2020-9-19T14:49:21Z</time></trkpt>
<trkpt lat="46.27000090666115283966064453125" lon="7.4455740116536617279052734375"><ele></ele><time>2020-9-19T14:49:24Z</time></trkpt>
<trkpt lat="46.2699386291205883026123046875" lon="7.44553118012845516204833984375"><ele></ele><time>2020-9-19T14:49:27Z</time></trkpt>
<trkpt lat="46.2698766030371189117431640625" lon="7.44548390619456768035888671875"><ele></ele><time>2020-9-19T14:49:30Z</time></trkpt>
<trkpt lat="46.26982002519071102142333984375" lon="7.44543068110942840576171875"><ele></ele><time>2020-9-19T14:49:33Z</time></trkpt>
<trkpt lat="46.269768141210079193115234375" lon="7.4453790485858917236328125"><ele></ele><time>2020-9-19T14:49:36Z</time></trkpt>
<trkpt lat="46.2697294168174266815185546875" lon="7.44532666169106960296630859375"><ele></ele><time>2020-9-19T14:49:39Z</time></trkpt>
<trkpt lat="46.26969899050891399383544921875" lon="7.44527645409107208251953125"><ele></ele><time>2020-9-19T14:49:42Z</time></trkpt>
<trkpt lat="46.269674263894557952880859375" lon="7.445236556231975555419921875"><ele></ele><time>2020-9-19T14:49:45Z</time></trkpt>
<trkpt lat="46.26964836381375789642333984375" lon="7.4452001787722110748291015625"><ele></ele><time>2020-9-19T14:49:48Z</time></trkpt>
<trkpt lat="46.26962020061910152435302734375" lon="7.44515969417989253997802734375"><ele></ele><time>2020-9-19T14:49:51Z</time></trkpt>
<trkpt lat="46.26958348788321018218994140625" lon="7.44512247852981090545654296875"><ele></ele><time>2020-9-19T14:49:54Z</time></trkpt>
<trkpt lat="46.269536800682544708251953125" lon="7.44508945383131504058837890625"><ele></ele><time>2020-9-19T14:49:57Z</time></trkpt>
<trkpt lat="46.26949363388121128082275390625" lon="7.4450550042092800140380859375"><ele></ele><time>2020-9-19T14:50:0Z</time></trkpt>
<trkpt lat="46.26946329139173030853271484375" lon="7.445019967854022979736328125"><ele></ele><time>2020-9-19T14:50:3Z</time></trkpt>
<trkpt lat="46.26943630166351795196533203125" lon="7.44499222375452518463134765625"><ele></ele><time>2020-9-19T14:50:6Z</time></trkpt>
<trkpt lat="46.26940973103046417236328125" lon="7.44497596286237239837646484375"><ele></ele><time>2020-9-19T14:50:9Z</time></trkpt>
<trkpt lat="46.2693822383880615234375" lon="7.44497797451913356781005859375"><ele></ele><time>2020-9-19T14:50:12Z</time></trkpt>
<trkpt lat="46.26937494613230228424072265625" lon="7.44499574415385723114013671875"><ele></ele><time>2020-9-19T14:50:15Z</time></trkpt>
<trkpt lat="46.269381232559680938720703125" lon="7.44502340443432331085205078125"><ele></ele><time>2020-9-19T14:50:18Z</time></trkpt>
<trkpt lat="46.2694021873176097869873046875" lon="7.44504318572580814361572265625"><ele></ele><time>2020-9-19T14:50:21Z</time></trkpt>
<trkpt lat="46.269427500665187835693359375" lon="7.4450630508363246917724609375"><ele></ele><time>2020-9-19T14:50:24Z</time></trkpt>
<trkpt lat="46.26944652758538722991943359375" lon="7.44508442468941211700439453125"><ele></ele><time>2020-9-19T14:50:27Z</time></trkpt>
<trkpt lat="46.26945105381309986114501953125" lon="7.44510353542864322662353515625"><ele></ele><time>2020-9-19T14:50:30Z</time></trkpt>
<trkpt lat="46.26942892558872699737548828125" lon="7.44511845521628856658935546875"><ele></ele><time>2020-9-19T14:50:33Z</time></trkpt>
<trkpt lat="46.26940445043146610260009765625" lon="7.4451143480837345123291015625"><ele></ele><time>2020-9-19T14:50:36Z</time></trkpt>
<trkpt lat="46.269371844828128814697265625" lon="7.44510211050510406494140625"><ele></ele><time>2020-9-19T14:50:39Z</time></trkpt>
<trkpt lat="46.269334964454174041748046875" lon="7.44507319293916225433349609375"><ele></ele><time>2020-9-19T14:50:42Z</time></trkpt>
<trkpt lat="46.26924754120409488677978515625" lon="7.44501183740794658660888671875"><ele></ele><time>2020-9-19T14:50:45Z</time></trkpt>
<trkpt lat="46.2692011892795562744140625" lon="7.44498752988874912261962890625"><ele></ele><time>2020-9-19T14:50:48Z</time></trkpt>
<trkpt lat="46.26916036941111087799072265625" lon="7.4449584446847438812255859375"><ele></ele><time>2020-9-19T14:50:51Z</time></trkpt>
<trkpt lat="46.26911913044750690460205078125" lon="7.44492533616721630096435546875"><ele></ele><time>2020-9-19T14:50:54Z</time></trkpt>
<trkpt lat="46.269079148769378662109375" lon="7.44489013217389583587646484375"><ele></ele><time>2020-9-19T14:50:57Z</time></trkpt>
<trkpt lat="46.26897915266454219818115234375" lon="7.44480463676154613494873046875"><ele></ele><time>2020-9-19T14:51:0Z</time></trkpt>
<trkpt lat="46.268871612846851348876953125" lon="7.444692738354206085205078125"><ele></ele><time>2020-9-19T14:51:3Z</time></trkpt>
<trkpt lat="46.26880900003015995025634765625" lon="7.44463465176522731781005859375"><ele></ele><time>2020-9-19T14:51:6Z</time></trkpt>
<trkpt lat="46.2687443755567073822021484375" lon="7.44457815773785114288330078125"><ele></ele><time>2020-9-19T14:51:9Z</time></trkpt>
<trkpt lat="46.26861940138041973114013671875" lon="7.4444644153118133544921875"><ele></ele><time>2020-9-19T14:51:12Z</time></trkpt>
<trkpt lat="46.26856223680078983306884765625" lon="7.44440339505672454833984375"><ele></ele><time>2020-9-19T14:51:15Z</time></trkpt>
<trkpt lat="46.2685059942305088043212890625" lon="7.44433877058327198028564453125"><ele></ele><time>2020-9-19T14:51:18Z</time></trkpt>
<trkpt lat="46.268453188240528106689453125" lon="7.44427523575723171234130859375"><ele></ele><time>2020-9-19T14:51:21Z</time></trkpt>
<trkpt lat="46.26840365119278430938720703125" lon="7.44420667178928852081298828125"><ele></ele><time>2020-9-19T14:51:24Z</time></trkpt>
<trkpt lat="46.26831111498177051544189453125" lon="7.44406543672084808349609375"><ele></ele><time>2020-9-19T14:51:27Z</time></trkpt>
<trkpt lat="46.26826417632400989532470703125" lon="7.4440126307308673858642578125"><ele></ele><time>2020-9-19T14:51:30Z</time></trkpt>
<trkpt lat="46.2682203389704227447509765625" lon="7.44396024383604526519775390625"><ele></ele><time>2020-9-19T14:51:33Z</time></trkpt>
<trkpt lat="46.268177926540374755859375" lon="7.44390852749347686767578125"><ele></ele><time>2020-9-19T14:51:36Z</time></trkpt>
<trkpt lat="46.268141381442546844482421875" lon="7.443853877484798431396484375"><ele></ele><time>2020-9-19T14:51:39Z</time></trkpt>
<trkpt lat="46.26806032843887805938720703125" lon="7.443730495870113372802734375"><ele></ele><time>2020-9-19T14:51:42Z</time></trkpt>
<trkpt lat="46.2680198438465595245361328125" lon="7.44366100989282131195068359375"><ele></ele><time>2020-9-19T14:51:45Z</time></trkpt>
<trkpt lat="46.2679807841777801513671875" lon="7.44359479285776615142822265625"><ele></ele><time>2020-9-19T14:51:48Z</time></trkpt>
<trkpt lat="46.26793812029063701629638671875" lon="7.44353444315493106842041015625"><ele></ele><time>2020-9-19T14:51:51Z</time></trkpt>
<trkpt lat="46.267895288765430450439453125" lon="7.44347669184207916259765625"><ele></ele><time>2020-9-19T14:51:54Z</time></trkpt>
<trkpt lat="46.26785497181117534637451171875" lon="7.443424724042415618896484375"><ele></ele><time>2020-9-19T14:51:57Z</time></trkpt>
<trkpt lat="46.26781926490366458892822265625" lon="7.4433796294033527374267578125"><ele></ele><time>2020-9-19T14:52:0Z</time></trkpt>
<trkpt lat="46.26778288744390010833740234375" lon="7.4433417432010173797607421875"><ele></ele><time>2020-9-19T14:52:3Z</time></trkpt>
<trkpt lat="46.26774273812770843505859375" lon="7.44331433437764644622802734375"><ele></ele><time>2020-9-19T14:52:6Z</time></trkpt>
<trkpt lat="46.26770208589732646942138671875" lon="7.443283908069133758544921875"><ele></ele><time>2020-9-19T14:52:9Z</time></trkpt>
<trkpt lat="46.26766067929565906524658203125" lon="7.443245351314544677734375"><ele></ele><time>2020-9-19T14:52:12Z</time></trkpt>
<trkpt lat="46.267610304057598114013671875" lon="7.44322062470018863677978515625"><ele></ele><time>2020-9-19T14:52:15Z</time></trkpt>
<trkpt lat="46.26755976118147373199462890625" lon="7.4432066269218921661376953125"><ele></ele><time>2020-9-19T14:52:18Z</time></trkpt>
<trkpt lat="46.26751734875142574310302734375" lon="7.443196065723896026611328125"><ele></ele><time>2020-9-19T14:52:21Z</time></trkpt>
<trkpt lat="46.26742179505527019500732421875" lon="7.44317200966179370880126953125"><ele></ele><time>2020-9-19T14:52:24Z</time></trkpt>
<trkpt lat="46.2673690728843212127685546875" lon="7.44315541349351406097412109375"><ele></ele><time>2020-9-19T14:52:27Z</time></trkpt>
<trkpt lat="46.26732087694108486175537109375" lon="7.4431385658681392669677734375"><ele></ele><time>2020-9-19T14:52:30Z</time></trkpt>
<trkpt lat="46.2672728486359119415283203125" lon="7.443122975528240203857421875"><ele></ele><time>2020-9-19T14:52:33Z</time></trkpt>
<trkpt lat="46.2672270834445953369140625" lon="7.4431030265986919403076171875"><ele></ele><time>2020-9-19T14:52:36Z</time></trkpt>
<trkpt lat="46.267185173928737640380859375" lon="7.44307545013725757598876953125"><ele></ele><time>2020-9-19T14:52:39Z</time></trkpt>
<trkpt lat="46.26714720390737056732177734375" lon="7.44305080734193325042724609375"><ele></ele><time>2020-9-19T14:52:42Z</time></trkpt>
<trkpt lat="46.26711267046630382537841796875" lon="7.44304812513291835784912109375"><ele></ele><time>2020-9-19T14:52:45Z</time></trkpt>
<trkpt lat="46.2670914642512798309326171875" lon="7.4430751986801624298095703125"><ele></ele><time>2020-9-19T14:52:48Z</time></trkpt>
<trkpt lat="46.267088949680328369140625" lon="7.44311819784343242645263671875"><ele></ele><time>2020-9-19T14:52:51Z</time></trkpt>
<trkpt lat="46.2671038694679737091064453125" lon="7.4431670643389225006103515625"><ele></ele><time>2020-9-19T14:52:54Z</time></trkpt>
<trkpt lat="46.26713253557682037353515625" lon="7.44322179816663265228271484375"><ele></ele><time>2020-9-19T14:52:57Z</time></trkpt>
<trkpt lat="46.2671608664095401763916015625" lon="7.44328734464943408966064453125"><ele></ele><time>2020-9-19T14:53:0Z</time></trkpt>
<trkpt lat="46.26718592830002307891845703125" lon="7.44335389696061611175537109375"><ele></ele><time>2020-9-19T14:53:3Z</time></trkpt>
<trkpt lat="46.26727997325360774993896484375" lon="7.4435499496757984161376953125"><ele></ele><time>2020-9-19T14:53:6Z</time></trkpt>
<trkpt lat="46.26730478368699550628662109375" lon="7.44359781034290790557861328125"><ele></ele><time>2020-9-19T14:53:9Z</time></trkpt>
<trkpt lat="46.26731266267597675323486328125" lon="7.443642653524875640869140625"><ele></ele><time>2020-9-19T14:53:12Z</time></trkpt>
<trkpt lat="46.26730863936245441436767578125" lon="7.44367651641368865966796875"><ele></ele><time>2020-9-19T14:53:15Z</time></trkpt>
<trkpt lat="46.2672896124422550201416015625" lon="7.44369202293455600738525390625"><ele></ele><time>2020-9-19T14:53:18Z</time></trkpt>
<trkpt lat="46.26726270653307437896728515625" lon="7.44368749670684337615966796875"><ele></ele><time>2020-9-19T14:53:21Z</time></trkpt>
<trkpt lat="46.26722968183457851409912109375" lon="7.4436703138053417205810546875"><ele></ele><time>2020-9-19T14:53:24Z</time></trkpt>
<trkpt lat="46.26719246618449687957763671875" lon="7.4436481855809688568115234375"><ele></ele><time>2020-9-19T14:53:27Z</time></trkpt>
<trkpt lat="46.2671534903347492218017578125" lon="7.44362966157495975494384765625"><ele></ele><time>2020-9-19T14:53:30Z</time></trkpt>
<trkpt lat="46.26710864715278148651123046875" lon="7.443625889718532562255859375"><ele></ele><time>2020-9-19T14:53:33Z</time></trkpt>
<trkpt lat="46.26705609261989593505859375" lon="7.443640641868114471435546875"><ele></ele><time>2020-9-19T14:53:36Z</time></trkpt>
<trkpt lat="46.2670017778873443603515625" lon="7.4436642788350582122802734375"><ele></ele><time>2020-9-19T14:53:39Z</time></trkpt>
<trkpt lat="46.26695224083960056304931640625" lon="7.44369931519031524658203125"><ele></ele><time>2020-9-19T14:53:42Z</time></trkpt>
<trkpt lat="46.266901195049285888671875" lon="7.443734519183635711669921875"><ele></ele><time>2020-9-19T14:53:45Z</time></trkpt>
<trkpt lat="46.26685299910604953765869140625" lon="7.4437631852924823760986328125"><ele></ele><time>2020-9-19T14:53:48Z</time></trkpt>
<trkpt lat="46.266800947487354278564453125" lon="7.443783469498157501220703125"><ele></ele><time>2020-9-19T14:53:51Z</time></trkpt>
<trkpt lat="46.266695670783519744873046875" lon="7.443827725946903228759765625"><ele></ele><time>2020-9-19T14:53:54Z</time></trkpt>
<trkpt lat="46.266651414334774017333984375" lon="7.44384138844907283782958984375"><ele></ele><time>2020-9-19T14:53:57Z</time></trkpt>
<trkpt lat="46.26660858280956745147705078125" lon="7.4438359402120113372802734375"><ele></ele><time>2020-9-19T14:54:0Z</time></trkpt>
<trkpt lat="46.266563236713409423828125" lon="7.44381858967244625091552734375"><ele></ele><time>2020-9-19T14:54:3Z</time></trkpt>
<trkpt lat="46.26651437021791934967041015625" lon="7.44380082003772258758544921875"><ele></ele><time>2020-9-19T14:54:6Z</time></trkpt>
<trkpt lat="46.266401298344135284423828125" lon="7.4437698908150196075439453125"><ele></ele><time>2020-9-19T14:54:9Z</time></trkpt>
<trkpt lat="46.26633801497519016265869140625" lon="7.44375103153288364410400390625"><ele></ele><time>2020-9-19T14:54:12Z</time></trkpt>
<trkpt lat="46.26613919623196125030517578125" lon="7.44367995299398899078369140625"><ele></ele><time>2020-9-19T14:54:15Z</time></trkpt>
<trkpt lat="46.26607599668204784393310546875" lon="7.44366168044507503509521484375"><ele></ele><time>2020-9-19T14:54:18Z</time></trkpt>
<trkpt lat="46.26602335833013057708740234375" lon="7.44363167323172092437744140625"><ele></ele><time>2020-9-19T14:54:21Z</time></trkpt>
<trkpt lat="46.26598312519490718841552734375" lon="7.44358305819332599639892578125"><ele></ele><time>2020-9-19T14:54:24Z</time></trkpt>
<trkpt lat="46.26595504581928253173828125" lon="7.44351684115827083587646484375"><ele></ele><time>2020-9-19T14:54:27Z</time></trkpt>
<trkpt lat="46.26593652181327342987060546875" lon="7.44344106875360012054443359375"><ele></ele><time>2020-9-19T14:54:30Z</time></trkpt>
<trkpt lat="46.2659190036356449127197265625" lon="7.44336311705410480499267578125"><ele></ele><time>2020-9-19T14:54:33Z</time></trkpt>
<trkpt lat="46.2658951990306377410888671875" lon="7.44328851811587810516357421875"><ele></ele><time>2020-9-19T14:54:36Z</time></trkpt>
<trkpt lat="46.2658643536269664764404296875" lon="7.4432186968624591827392578125"><ele></ele><time>2020-9-19T14:54:39Z</time></trkpt>
<trkpt lat="46.26583057455718517303466796875" lon="7.4431449361145496368408203125"><ele></ele><time>2020-9-19T14:54:42Z</time></trkpt>
<trkpt lat="46.2657513655722141265869140625" lon="7.442983500659465789794921875"><ele></ele><time>2020-9-19T14:54:45Z</time></trkpt>
<trkpt lat="46.26570601947605609893798828125" lon="7.4428944848477840423583984375"><ele></ele><time>2020-9-19T14:54:48Z</time></trkpt>
<trkpt lat="46.26565740443766117095947265625" lon="7.4428009428083896636962890625"><ele></ele><time>2020-9-19T14:54:51Z</time></trkpt>
<trkpt lat="46.26560862176120281219482421875" lon="7.44270379655063152313232421875"><ele></ele><time>2020-9-19T14:54:54Z</time></trkpt>
<trkpt lat="46.26555782742798328399658203125" lon="7.44260103441774845123291015625"><ele></ele><time>2020-9-19T14:54:57Z</time></trkpt>
<trkpt lat="46.26545623876154422760009765625" lon="7.4423795007169246673583984375"><ele></ele><time>2020-9-19T14:55:0Z</time></trkpt>
<trkpt lat="46.2654070369899272918701171875" lon="7.4422604776918888092041015625"><ele></ele><time>2020-9-19T14:55:3Z</time></trkpt>
<trkpt lat="46.2653600983321666717529296875" lon="7.44213449768722057342529296875"><ele></ele><time>2020-9-19T14:55:6Z</time></trkpt>
<trkpt lat="46.26525071449577808380126953125" lon="7.44172663427889347076416015625"><ele></ele><time>2020-9-19T14:55:9Z</time></trkpt>
<trkpt lat="46.265223808586597442626953125" lon="7.44158397428691387176513671875"><ele></ele><time>2020-9-19T14:55:12Z</time></trkpt>
<trkpt lat="46.2651995010673999786376953125" lon="7.441440559923648834228515625"><ele></ele><time>2020-9-19T14:55:15Z</time></trkpt>
<trkpt lat="46.26513831317424774169921875" lon="7.4411463551223278045654296875"><ele></ele><time>2020-9-19T14:55:18Z</time></trkpt>
<trkpt lat="46.26509548164904117584228515625" lon="7.44100277312099933624267578125"><ele></ele><time>2020-9-19T14:55:21Z</time></trkpt>
<trkpt lat="46.264986097812652587890625" lon="7.44072281755506992340087890625"><ele></ele><time>2020-9-19T14:55:24Z</time></trkpt>
<trkpt lat="46.26492046751081943511962890625" lon="7.44059289805591106414794921875"><ele></ele><time>2020-9-19T14:55:27Z</time></trkpt>
<trkpt lat="46.26484972424805164337158203125" lon="7.440470270812511444091796875"><ele></ele><time>2020-9-19T14:55:30Z</time></trkpt>
<trkpt lat="46.2647760473191738128662109375" lon="7.440362311899662017822265625"><ele></ele><time>2020-9-19T14:55:33Z</time></trkpt>
<trkpt lat="46.2647083215415477752685546875" lon="7.440259717404842376708984375"><ele></ele><time>2020-9-19T14:55:36Z</time></trkpt>
<trkpt lat="46.26464319415390491485595703125" lon="7.44016692973673343658447265625"><ele></ele><time>2020-9-19T14:55:39Z</time></trkpt>
<trkpt lat="46.2645805813372135162353515625" lon="7.44007908739149570465087890625"><ele></ele><time>2020-9-19T14:55:42Z</time></trkpt>
<trkpt lat="46.26452048309147357940673828125" lon="7.44000331498682498931884765625"><ele></ele><time>2020-9-19T14:55:45Z</time></trkpt>
<trkpt lat="46.264468766748905181884765625" lon="7.43994430638849735260009765625"><ele></ele><time>2020-9-19T14:55:48Z</time></trkpt>
<trkpt lat="46.26443020999431610107421875" lon="7.43989954702556133270263671875"><ele></ele><time>2020-9-19T14:55:51Z</time></trkpt>
<trkpt lat="46.26440883614122867584228515625" lon="7.4398592300713062286376953125"><ele></ele><time>2020-9-19T14:55:54Z</time></trkpt>
<trkpt lat="46.2643938325345516204833984375" lon="7.4398246966302394866943359375"><ele></ele><time>2020-9-19T14:55:57Z</time></trkpt>
<trkpt lat="46.264380253851413726806640625" lon="7.439794354140758514404296875"><ele></ele><time>2020-9-19T14:56:0Z</time></trkpt>
<trkpt lat="46.26435887999832630157470703125" lon="7.43977029807865619659423828125"><ele></ele><time>2020-9-19T14:56:3Z</time></trkpt>
<trkpt lat="46.26433960162103176116943359375" lon="7.43973928503692150115966796875"><ele></ele><time>2020-9-19T14:56:6Z</time></trkpt>
<trkpt lat="46.2643157131969928741455078125" lon="7.4397096969187259674072265625"><ele></ele><time>2020-9-19T14:56:9Z</time></trkpt>
<trkpt lat="46.26426617614924907684326171875" lon="7.43963333778083324432373046875"><ele></ele><time>2020-9-19T14:56:12Z</time></trkpt>
<trkpt lat="46.26424471847712993621826171875" lon="7.43958405219018459320068359375"><ele></ele><time>2020-9-19T14:56:15Z</time></trkpt>
<trkpt lat="46.2642256915569305419921875" lon="7.4395291507244110107421875"><ele></ele><time>2020-9-19T14:56:18Z</time></trkpt>
<trkpt lat="46.2642037309706211090087890625" lon="7.43948045186698436737060546875"><ele></ele><time>2020-9-19T14:56:21Z</time></trkpt>
<trkpt lat="46.2641839496791362762451171875" lon="7.43943083100020885467529296875"><ele></ele><time>2020-9-19T14:56:24Z</time></trkpt>
<trkpt lat="46.2641641683876514434814453125" lon="7.43938053958117961883544921875"><ele></ele><time>2020-9-19T14:56:27Z</time></trkpt>
<trkpt lat="46.26411546953022480010986328125" lon="7.4392714910209178924560546875"><ele></ele><time>2020-9-19T14:56:30Z</time></trkpt>
<trkpt lat="46.264090575277805328369140625" lon="7.4392154999077320098876953125"><ele></ele><time>2020-9-19T14:56:33Z</time></trkpt>
<trkpt lat="46.26406601630151271820068359375" lon="7.4391621910035610198974609375"><ele></ele><time>2020-9-19T14:56:36Z</time></trkpt>
<trkpt lat="46.26403718255460262298583984375" lon="7.43911114521324634552001953125"><ele></ele><time>2020-9-19T14:56:39Z</time></trkpt>
<trkpt lat="46.26400784589350223541259765625" lon="7.43905180133879184722900390625"><ele></ele><time>2020-9-19T14:56:42Z</time></trkpt>
<trkpt lat="46.263977922499179840087890625" lon="7.43898876942694187164306640625"><ele></ele><time>2020-9-19T14:56:45Z</time></trkpt>
<trkpt lat="46.2639505974948406219482421875" lon="7.438927330076694488525390625"><ele></ele><time>2020-9-19T14:56:48Z</time></trkpt>
<trkpt lat="46.26392805017530918121337890625" lon="7.4388637952506542205810546875"><ele></ele><time>2020-9-19T14:56:51Z</time></trkpt>
<trkpt lat="46.2639003060758113861083984375" lon="7.4388074688613414764404296875"><ele></ele><time>2020-9-19T14:56:54Z</time></trkpt>
<trkpt lat="46.26387289725244045257568359375" lon="7.4387514777481555938720703125"><ele></ele><time>2020-9-19T14:56:57Z</time></trkpt>
<trkpt lat="46.263843812048435211181640625" lon="7.4386968277394771575927734375"><ele></ele><time>2020-9-19T14:57:0Z</time></trkpt>
<trkpt lat="46.26381472684442996978759765625" lon="7.43864192627370357513427734375"><ele></ele><time>2020-9-19T14:57:3Z</time></trkpt>
<trkpt lat="46.26378941349685192108154296875" lon="7.43858836591243743896484375"><ele></ele><time>2020-9-19T14:57:6Z</time></trkpt>
<trkpt lat="46.26376728527247905731201171875" lon="7.43853782303631305694580078125"><ele></ele><time>2020-9-19T14:57:9Z</time></trkpt>
<trkpt lat="46.26374465413391590118408203125" lon="7.43848753161728382110595703125"><ele></ele><time>2020-9-19T14:57:12Z</time></trkpt>
<trkpt lat="46.2637216039001941680908203125" lon="7.4384339712560176849365234375"><ele></ele><time>2020-9-19T14:57:15Z</time></trkpt>
<trkpt lat="46.2636947818100452423095703125" lon="7.4383809976279735565185546875"><ele></ele><time>2020-9-19T14:57:18Z</time></trkpt>
<trkpt lat="46.26366703771054744720458984375" lon="7.43833397515118122100830078125"><ele></ele><time>2020-9-19T14:57:21Z</time></trkpt>
<trkpt lat="46.2636391259729862213134765625" lon="7.438283264636993408203125"><ele></ele><time>2020-9-19T14:57:24Z</time></trkpt>
<trkpt lat="46.2636221945285797119140625" lon="7.43822316639125347137451171875"><ele></ele><time>2020-9-19T14:57:27Z</time></trkpt>
<trkpt lat="46.263607777655124664306640625" lon="7.438157536089420318603515625"><ele></ele><time>2020-9-19T14:57:30Z</time></trkpt>
<trkpt lat="46.2635925225913524627685546875" lon="7.43809525854885578155517578125"><ele></ele><time>2020-9-19T14:57:33Z</time></trkpt>
<trkpt lat="46.2635765969753265380859375" lon="7.43803985416889190673828125"><ele></ele><time>2020-9-19T14:57:36Z</time></trkpt>
<trkpt lat="46.26355790533125400543212890625" lon="7.43799283169209957122802734375"><ele></ele><time>2020-9-19T14:57:39Z</time></trkpt>
<trkpt lat="46.26354114152491092681884765625" lon="7.43794606067240238189697265625"><ele></ele><time>2020-9-19T14:57:42Z</time></trkpt>
<trkpt lat="46.26352421008050441741943359375" lon="7.43789928965270519256591796875"><ele></ele><time>2020-9-19T14:57:45Z</time></trkpt>
<trkpt lat="46.26350811682641506195068359375" lon="7.4378474056720733642578125"><ele></ele><time>2020-9-19T14:57:48Z</time></trkpt>
<trkpt lat="46.263494454324245452880859375" lon="7.437792085111141204833984375"><ele></ele><time>2020-9-19T14:57:51Z</time></trkpt>
<trkpt lat="46.263478696346282958984375" lon="7.43773785419762134552001953125"><ele></ele><time>2020-9-19T14:57:54Z</time></trkpt>
<trkpt lat="46.263443492352962493896484375" lon="7.4376212619245052337646484375"><ele></ele><time>2020-9-19T14:57:57Z</time></trkpt>
<trkpt lat="46.2634235434234142303466796875" lon="7.4375652708113193511962890625"><ele></ele><time>2020-9-19T14:58:0Z</time></trkpt>
<trkpt lat="46.26338280737400054931640625" lon="7.4374526180326938629150390625"><ele></ele><time>2020-9-19T14:58:3Z</time></trkpt>
<trkpt lat="46.26336830668151378631591796875" lon="7.43739654310047626495361328125"><ele></ele><time>2020-9-19T14:58:6Z</time></trkpt>
<trkpt lat="46.2633571587502956390380859375" lon="7.4373470060527324676513671875"><ele></ele><time>2020-9-19T14:58:9Z</time></trkpt>
<trkpt lat="46.26335221342742443084716796875" lon="7.437296546995639801025390625"><ele></ele><time>2020-9-19T14:58:12Z</time></trkpt>
<trkpt lat="46.26331868581473827362060546875" lon="7.43707216344773769378662109375"><ele></ele><time>2020-9-19T14:58:15Z</time></trkpt>
<trkpt lat="46.26330368220806121826171875" lon="7.43701332248747348785400390625"><ele></ele><time>2020-9-19T14:58:18Z</time></trkpt>
<trkpt lat="46.2632897682487964630126953125" lon="7.4369550682604312896728515625"><ele></ele><time>2020-9-19T14:58:21Z</time></trkpt>
<trkpt lat="46.26327895559370517730712890625" lon="7.4369037710130214691162109375"><ele></ele><time>2020-9-19T14:58:24Z</time></trkpt>
<trkpt lat="46.26326747238636016845703125" lon="7.43685071356594562530517578125"><ele></ele><time>2020-9-19T14:58:27Z</time></trkpt>
<trkpt lat="46.26325397752225399017333984375" lon="7.4368015117943286895751953125"><ele></ele><time>2020-9-19T14:58:30Z</time></trkpt>
<trkpt lat="46.2632280774414539337158203125" lon="7.436690367758274078369140625"><ele></ele><time>2020-9-19T14:58:33Z</time></trkpt>
<trkpt lat="46.263217516243457794189453125" lon="7.4366325326263904571533203125"><ele></ele><time>2020-9-19T14:58:36Z</time></trkpt>
<trkpt lat="46.26318155787885189056396484375" lon="7.436445616185665130615234375"><ele></ele><time>2020-9-19T14:58:39Z</time></trkpt>
<trkpt lat="46.26316714100539684295654296875" lon="7.4363847635686397552490234375"><ele></ele><time>2020-9-19T14:58:42Z</time></trkpt>
<trkpt lat="46.26314836554229259490966796875" lon="7.43632382713258266448974609375"><ele></ele><time>2020-9-19T14:58:45Z</time></trkpt>
<trkpt lat="46.26308281905949115753173828125" lon="7.4361406825482845306396484375"><ele></ele><time>2020-9-19T14:58:48Z</time></trkpt>
<trkpt lat="46.26301744021475315093994140625" lon="7.43595636449754238128662109375"><ele></ele><time>2020-9-19T14:58:51Z</time></trkpt>
<trkpt lat="46.262995898723602294921875" lon="7.4359053187072277069091796875"><ele></ele><time>2020-9-19T14:58:54Z</time></trkpt>
<trkpt lat="46.26297217793762683868408203125" lon="7.4358613975346088409423828125"><ele></ele><time>2020-9-19T14:58:57Z</time></trkpt>
<trkpt lat="46.262943260371685028076171875" lon="7.43581923656165599822998046875"><ele></ele><time>2020-9-19T14:59:0Z</time></trkpt>
<trkpt lat="46.2629162706434726715087890625" lon="7.43577782995998859405517578125"><ele></ele><time>2020-9-19T14:59:3Z</time></trkpt>
<trkpt lat="46.262891627848148345947265625" lon="7.43573659099638462066650390625"><ele></ele><time>2020-9-19T14:59:6Z</time></trkpt>
<trkpt lat="46.26286723650991916656494140625" lon="7.43569183163344860076904296875"><ele></ele><time>2020-9-19T14:59:9Z</time></trkpt>
<trkpt lat="46.26281577162444591522216796875" lon="7.435592003166675567626953125"><ele></ele><time>2020-9-19T14:59:12Z</time></trkpt>
<trkpt lat="46.26277956180274486541748046875" lon="7.435478009283542633056640625"><ele></ele><time>2020-9-19T14:59:15Z</time></trkpt>
<trkpt lat="46.2627647258341312408447265625" lon="7.43541874922811985015869140625"><ele></ele><time>2020-9-19T14:59:18Z</time></trkpt>
<trkpt lat="46.262731365859508514404296875" lon="7.43529570288956165313720703125"><ele></ele><time>2020-9-19T14:59:21Z</time></trkpt>
<trkpt lat="46.26271426677703857421875" lon="7.43523686192929744720458984375"><ele></ele><time>2020-9-19T14:59:24Z</time></trkpt>
<trkpt lat="46.2626775540411472320556640625" lon="7.43511624634265899658203125"><ele></ele><time>2020-9-19T14:59:27Z</time></trkpt>
<trkpt lat="46.26265819184482097625732421875" lon="7.435069978237152099609375"><ele></ele><time>2020-9-19T14:59:30Z</time></trkpt>
<trkpt lat="46.2626430206000804901123046875" lon="7.435036115348339080810546875"><ele></ele><time>2020-9-19T14:59:33Z</time></trkpt>
<trkpt lat="46.2626292742788791656494140625" lon="7.43500652723014354705810546875"><ele></ele><time>2020-9-19T14:59:36Z</time></trkpt>
<trkpt lat="46.2626222334802150726318359375" lon="7.43498054333031177520751953125"><ele></ele><time>2020-9-19T14:59:39Z</time></trkpt>
<trkpt lat="46.26262114383280277252197265625" lon="7.43495891802012920379638671875"><ele></ele><time>2020-9-19T14:59:42Z</time></trkpt>
<trkpt lat="46.26262131147086620330810546875" lon="7.43493611924350261688232421875"><ele></ele><time>2020-9-19T14:59:45Z</time></trkpt>
<trkpt lat="46.2626083195209503173828125" lon="7.4348904378712177276611328125"><ele></ele><time>2020-9-19T14:59:48Z</time></trkpt>
<trkpt lat="46.26259197480976581573486328125" lon="7.434867806732654571533203125"><ele></ele><time>2020-9-19T14:59:51Z</time></trkpt>
<trkpt lat="46.262579821050167083740234375" lon="7.4348398111760616302490234375"><ele></ele><time>2020-9-19T14:59:54Z</time></trkpt>
<trkpt lat="46.26257018186151981353759765625" lon="7.4348096363246440887451171875"><ele></ele><time>2020-9-19T14:59:57Z</time></trkpt>
<trkpt lat="46.26255844719707965850830078125" lon="7.434779964387416839599609375"><ele></ele><time>2020-9-19T15:0:0Z</time></trkpt>
<trkpt lat="46.26253296621143817901611328125" lon="7.43471064604818820953369140625"><ele></ele><time>2020-9-19T15:0:3Z</time></trkpt>
<trkpt lat="46.26252659596502780914306640625" lon="7.434661947190761566162109375"><ele></ele><time>2020-9-19T15:0:6Z</time></trkpt>
<trkpt lat="46.26250899396836757659912109375" lon="7.4344931356608867645263671875"><ele></ele><time>2020-9-19T15:0:9Z</time></trkpt>
<trkpt lat="46.26242517493665218353271484375" lon="7.434109412133693695068359375"><ele></ele><time>2020-9-19T15:0:12Z</time></trkpt>
<trkpt lat="46.26241411082446575164794921875" lon="7.43403858505189418792724609375"><ele></ele><time>2020-9-19T15:0:15Z</time></trkpt>
<trkpt lat="46.2624036334455013275146484375" lon="7.43397169746458530426025390625"><ele></ele><time>2020-9-19T15:0:18Z</time></trkpt>
<trkpt lat="46.26239784993231296539306640625" lon="7.4339087493717670440673828125"><ele></ele><time>2020-9-19T15:0:21Z</time></trkpt>
<trkpt lat="46.26239039003849029541015625" lon="7.4338517524302005767822265625"><ele></ele><time>2020-9-19T15:0:24Z</time></trkpt>
<trkpt lat="46.26238502562046051025390625" lon="7.433802969753742218017578125"><ele></ele><time>2020-9-19T15:0:27Z</time></trkpt>
<trkpt lat="46.2623801641166210174560546875" lon="7.4337637424468994140625"><ele></ele><time>2020-9-19T15:0:30Z</time></trkpt>
<trkpt lat="46.2623717822134494781494140625" lon="7.43372820317745208740234375"><ele></ele><time>2020-9-19T15:0:33Z</time></trkpt>
<trkpt lat="46.2623620592057704925537109375" lon="7.43369040079414844512939453125"><ele></ele><time>2020-9-19T15:0:36Z</time></trkpt>
<trkpt lat="46.2623513303697109222412109375" lon="7.43365586735308170318603515625"><ele></ele><time>2020-9-19T15:0:39Z</time></trkpt>
<trkpt lat="46.26233951188623905181884765625" lon="7.43362435139715671539306640625"><ele></ele><time>2020-9-19T15:0:42Z</time></trkpt>
<trkpt lat="46.26231017522513866424560546875" lon="7.43354673497378826141357421875"><ele></ele><time>2020-9-19T15:0:45Z</time></trkpt>
<trkpt lat="46.262295506894588470458984375" lon="7.43350968696177005767822265625"><ele></ele><time>2020-9-19T15:0:48Z</time></trkpt>
<trkpt lat="46.2622872926294803619384765625" lon="7.4334567971527576446533203125"><ele></ele><time>2020-9-19T15:0:51Z</time></trkpt>
<trkpt lat="46.26227505505084991455078125" lon="7.43333567865192890167236328125"><ele></ele><time>2020-9-19T15:0:54Z</time></trkpt>
<trkpt lat="46.26226432621479034423828125" lon="7.43327281437814235687255859375"><ele></ele><time>2020-9-19T15:0:57Z</time></trkpt>
<trkpt lat="46.2622423656284809112548828125" lon="7.433214224874973297119140625"><ele></ele><time>2020-9-19T15:1:0Z</time></trkpt>
<trkpt lat="46.26219333149492740631103515625" lon="7.4330983869731426239013671875"><ele></ele><time>2020-9-19T15:1:3Z</time></trkpt>
<trkpt lat="46.2621675990521907806396484375" lon="7.4330462515354156494140625"><ele></ele><time>2020-9-19T15:1:6Z</time></trkpt>
<trkpt lat="46.26214371062815189361572265625" lon="7.43298464454710483551025390625"><ele></ele><time>2020-9-19T15:1:9Z</time></trkpt>
<trkpt lat="46.26211990602314472198486328125" lon="7.43291608057916164398193359375"><ele></ele><time>2020-9-19T15:1:12Z</time></trkpt>
<trkpt lat="46.26207363791763782501220703125" lon="7.43276520632207393646240234375"><ele></ele><time>2020-9-19T15:1:15Z</time></trkpt>
<trkpt lat="46.26204379834234714508056640625" lon="7.43267836980521678924560546875"><ele></ele><time>2020-9-19T15:1:18Z</time></trkpt>
<trkpt lat="46.2619912438094615936279296875" lon="7.43252389132976531982421875"><ele></ele><time>2020-9-19T15:1:21Z</time></trkpt>
<trkpt lat="46.2619671039283275604248046875" lon="7.43244200013577938079833984375"><ele></ele><time>2020-9-19T15:1:24Z</time></trkpt>
<trkpt lat="46.26194246113300323486328125" lon="7.4323644675314426422119140625"><ele></ele><time>2020-9-19T15:1:27Z</time></trkpt>
<trkpt lat="46.26188470982015132904052734375" lon="7.432211078703403472900390625"><ele></ele><time>2020-9-19T15:1:30Z</time></trkpt>
<trkpt lat="46.2618427164852619171142578125" lon="7.432126589119434356689453125"><ele></ele><time>2020-9-19T15:1:33Z</time></trkpt>
<trkpt lat="46.26180642284452915191650390625" lon="7.43205718696117401123046875"><ele></ele><time>2020-9-19T15:1:36Z</time></trkpt>
<trkpt lat="46.26177054829895496368408203125" lon="7.4319886229932308197021484375"><ele></ele><time>2020-9-19T15:1:39Z</time></trkpt>
<trkpt lat="46.2617381103336811065673828125" lon="7.43193942122161388397216796875"><ele></ele><time>2020-9-19T15:1:42Z</time></trkpt>
<trkpt lat="46.26171019859611988067626953125" lon="7.43189516477286815643310546875"><ele></ele><time>2020-9-19T15:1:45Z</time></trkpt>
<trkpt lat="46.26169033348560333251953125" lon="7.43185275234282016754150390625"><ele></ele><time>2020-9-19T15:1:48Z</time></trkpt>
<trkpt lat="46.26167030073702335357666015625" lon="7.4318095855414867401123046875"><ele></ele><time>2020-9-19T15:1:51Z</time></trkpt>
<trkpt lat="46.26164649613201618194580078125" lon="7.43177153170108795166015625"><ele></ele><time>2020-9-19T15:1:54Z</time></trkpt>
<trkpt lat="46.2616293132305145263671875" lon="7.43173339404165744781494140625"><ele></ele><time>2020-9-19T15:1:57Z</time></trkpt>
<trkpt lat="46.2615949474275112152099609375" lon="7.431636750698089599609375"><ele></ele><time>2020-9-19T15:2:0Z</time></trkpt>
<trkpt lat="46.261562593281269073486328125" lon="7.43153759278357028961181640625"><ele></ele><time>2020-9-19T15:2:3Z</time></trkpt>
<trkpt lat="46.26154817640781402587890625" lon="7.4314997904002666473388671875"><ele></ele><time>2020-9-19T15:2:6Z</time></trkpt>
<trkpt lat="46.26153702847659587860107421875" lon="7.431463412940502166748046875"><ele></ele><time>2020-9-19T15:2:9Z</time></trkpt>
<trkpt lat="46.26152940094470977783203125" lon="7.43143365718424320220947265625"><ele></ele><time>2020-9-19T15:2:12Z</time></trkpt>
<trkpt lat="46.2614856474101543426513671875" lon="7.43122327141463756561279296875"><ele></ele><time>2020-9-19T15:2:15Z</time></trkpt>
<trkpt lat="46.2614611722528934478759765625" lon="7.43112386204302310943603515625"><ele></ele><time>2020-9-19T15:2:18Z</time></trkpt>
<trkpt lat="46.261447258293628692626953125" lon="7.43107591755688190460205078125"><ele></ele><time>2020-9-19T15:2:21Z</time></trkpt>
<trkpt lat="46.26143015921115875244140625" lon="7.4310317449271678924560546875"><ele></ele><time>2020-9-19T15:2:24Z</time></trkpt>
<trkpt lat="46.26141264103353023529052734375" lon="7.430982291698455810546875"><ele></ele><time>2020-9-19T15:2:27Z</time></trkpt>
<trkpt lat="46.26139570958912372589111328125" lon="7.430936358869075775146484375"><ele></ele><time>2020-9-19T15:2:30Z</time></trkpt>
<trkpt lat="46.26137726940214633941650390625" lon="7.4308895878493785858154296875"><ele></ele><time>2020-9-19T15:2:33Z</time></trkpt>
<trkpt lat="46.2613542191684246063232421875" lon="7.43084072135388851165771484375"><ele></ele><time>2020-9-19T15:2:36Z</time></trkpt>
<trkpt lat="46.26133200712502002716064453125" lon="7.43079026229679584503173828125"><ele></ele><time>2020-9-19T15:2:39Z</time></trkpt>
<trkpt lat="46.2613099627196788787841796875" lon="7.43073561228811740875244140625"><ele></ele><time>2020-9-19T15:2:42Z</time></trkpt>
<trkpt lat="46.261284984648227691650390625" lon="7.43067828007042407989501953125"><ele></ele><time>2020-9-19T15:2:45Z</time></trkpt>
<trkpt lat="46.26123997382819652557373046875" lon="7.43056512437760829925537109375"><ele></ele><time>2020-9-19T15:2:48Z</time></trkpt>
<trkpt lat="46.26122497022151947021484375" lon="7.43051894009113311767578125"><ele></ele><time>2020-9-19T15:2:51Z</time></trkpt>
<trkpt lat="46.26121155917644500732421875" lon="7.4304812215268611907958984375"><ele></ele><time>2020-9-19T15:2:54Z</time></trkpt>
<trkpt lat="46.26120275817811489105224609375" lon="7.43044576607644557952880859375"><ele></ele><time>2020-9-19T15:2:57Z</time></trkpt>
<trkpt lat="46.2611765228211879730224609375" lon="7.43035624735057353973388671875"><ele></ele><time>2020-9-19T15:3:0Z</time></trkpt>
<trkpt lat="46.2611438333988189697265625" lon="7.4302513897418975830078125"><ele></ele><time>2020-9-19T15:3:3Z</time></trkpt>
<trkpt lat="46.261132769286632537841796875" lon="7.430195398628711700439453125"><ele></ele><time>2020-9-19T15:3:6Z</time></trkpt>
<trkpt lat="46.26112178899347782135009765625" lon="7.4301305226981639862060546875"><ele></ele><time>2020-9-19T15:3:9Z</time></trkpt>
<trkpt lat="46.261096894741058349609375" lon="7.4300138466060161590576171875"><ele></ele><time>2020-9-19T15:3:12Z</time></trkpt>
<trkpt lat="46.26106060110032558441162109375" lon="7.429835982620716094970703125"><ele></ele><time>2020-9-19T15:3:15Z</time></trkpt>
<trkpt lat="46.2610437534749507904052734375" lon="7.42977353744208812713623046875"><ele></ele><time>2020-9-19T15:3:18Z</time></trkpt>
<trkpt lat="46.2610273249447345733642578125" lon="7.42971469648182392120361328125"><ele></ele><time>2020-9-19T15:3:21Z</time></trkpt>
<trkpt lat="46.26100695692002773284912109375" lon="7.4296564422547817230224609375"><ele></ele><time>2020-9-19T15:3:24Z</time></trkpt>
<trkpt lat="46.26098625361919403076171875" lon="7.429598607122898101806640625"><ele></ele><time>2020-9-19T15:3:27Z</time></trkpt>
<trkpt lat="46.26096420921385288238525390625" lon="7.42953725159168243408203125"><ele></ele><time>2020-9-19T15:3:30Z</time></trkpt>
<trkpt lat="46.26091727055609226226806640625" lon="7.42941546253859996795654296875"><ele></ele><time>2020-9-19T15:3:33Z</time></trkpt>
<trkpt lat="46.26090117730200290679931640625" lon="7.42935846559703350067138671875"><ele></ele><time>2020-9-19T15:3:36Z</time></trkpt>
<trkpt lat="46.26088676042854785919189453125" lon="7.42930012755095958709716796875"><ele></ele><time>2020-9-19T15:3:39Z</time></trkpt>
<trkpt lat="46.260870583355426788330078125" lon="7.42924296297132968902587890625"><ele></ele><time>2020-9-19T15:3:42Z</time></trkpt>
<trkpt lat="46.2608514726161956787109375" lon="7.42918713949620723724365234375"><ele></ele><time>2020-9-19T15:3:45Z</time></trkpt>
<trkpt lat="46.26082808710634708404541015625" lon="7.429130561649799346923828125"><ele></ele><time>2020-9-19T15:3:48Z</time></trkpt>
<trkpt lat="46.2607852555811405181884765625" lon="7.4290127120912075042724609375"><ele></ele><time>2020-9-19T15:3:51Z</time></trkpt>
<trkpt lat="46.260710991919040679931640625" lon="7.4288432300090789794921875"><ele></ele><time>2020-9-19T15:3:54Z</time></trkpt>
<trkpt lat="46.26068207435309886932373046875" lon="7.428788244724273681640625"><ele></ele><time>2020-9-19T15:3:57Z</time></trkpt>
<trkpt lat="46.2606588564813137054443359375" lon="7.42873937822878360748291015625"><ele></ele><time>2020-9-19T15:4:0Z</time></trkpt>
<trkpt lat="46.26063949428498744964599609375" lon="7.4286945350468158721923828125"><ele></ele><time>2020-9-19T15:4:3Z</time></trkpt>
<trkpt lat="46.26062415540218353271484375" lon="7.4286519549787044525146484375"><ele></ele><time>2020-9-19T15:4:6Z</time></trkpt>
<trkpt lat="46.26061015762388706207275390625" lon="7.42861281149089336395263671875"><ele></ele><time>2020-9-19T15:4:9Z</time></trkpt>
<trkpt lat="46.2605964951217174530029296875" lon="7.42857626639306545257568359375"><ele></ele><time>2020-9-19T15:4:12Z</time></trkpt>
<trkpt lat="46.2605805695056915283203125" lon="7.4285446666181087493896484375"><ele></ele><time>2020-9-19T15:4:15Z</time></trkpt>
<trkpt lat="46.2605713494122028350830078125" lon="7.42851273156702518463134765625"><ele></ele><time>2020-9-19T15:4:18Z</time></trkpt>
<trkpt lat="46.2605653144419193267822265625" lon="7.4284851551055908203125"><ele></ele><time>2020-9-19T15:4:21Z</time></trkpt>
<trkpt lat="46.2605602853000164031982421875" lon="7.42845472879707813262939453125"><ele></ele><time>2020-9-19T15:4:24Z</time></trkpt>
<trkpt lat="46.260556764900684356689453125" lon="7.42841566912829875946044921875"><ele></ele><time>2020-9-19T15:4:27Z</time></trkpt>
<trkpt lat="46.2605532445013523101806640625" lon="7.428321205079555511474609375"><ele></ele><time>2020-9-19T15:4:30Z</time></trkpt>
<trkpt lat="46.260552741587162017822265625" lon="7.42822288535535335540771484375"><ele></ele><time>2020-9-19T15:4:33Z</time></trkpt>
<trkpt lat="46.2605760432779788970947265625" lon="7.4278804846107959747314453125"><ele></ele><time>2020-9-19T15:4:36Z</time></trkpt>
<trkpt lat="46.26058953814208507537841796875" lon="7.4278191290795803070068359375"><ele></ele><time>2020-9-19T15:4:39Z</time></trkpt>
<trkpt lat="46.2606149353086948394775390625" lon="7.42768107913434505462646484375"><ele></ele><time>2020-9-19T15:4:42Z</time></trkpt>
<trkpt lat="46.26062809489667415618896484375" lon="7.42761075496673583984375"><ele></ele><time>2020-9-19T15:4:45Z</time></trkpt>
<trkpt lat="46.2606655620038509368896484375" lon="7.427401207387447357177734375"><ele></ele><time>2020-9-19T15:4:48Z</time></trkpt>
<trkpt lat="46.2607245706021785736083984375" lon="7.42704891599714756011962890625"><ele></ele><time>2020-9-19T15:4:51Z</time></trkpt>
<trkpt lat="46.26074661500751972198486328125" lon="7.42698110640048980712890625"><ele></ele><time>2020-9-19T15:4:54Z</time></trkpt>
<trkpt lat="46.26077259890735149383544921875" lon="7.42691916413605213165283203125"><ele></ele><time>2020-9-19T15:4:57Z</time></trkpt>
<trkpt lat="46.2607983313500881195068359375" lon="7.4268610775470733642578125"><ele></ele><time>2020-9-19T15:5:0Z</time></trkpt>
<trkpt lat="46.2608201242983341217041015625" lon="7.42680936120450496673583984375"><ele></ele><time>2020-9-19T15:5:3Z</time></trkpt>
<trkpt lat="46.26083764247596263885498046875" lon="7.426758147776126861572265625"><ele></ele><time>2020-9-19T15:5:6Z</time></trkpt>
<trkpt lat="46.26085557974874973297119140625" lon="7.42671196348965167999267578125"><ele></ele><time>2020-9-19T15:5:9Z</time></trkpt>
<trkpt lat="46.2608730979263782501220703125" lon="7.42667290382087230682373046875"><ele></ele><time>2020-9-19T15:5:12Z</time></trkpt>
<trkpt lat="46.26089178957045078277587890625" lon="7.42664390243589878082275390625"><ele></ele><time>2020-9-19T15:5:15Z</time></trkpt>
<trkpt lat="46.26091106794774532318115234375" lon="7.4266185052692890167236328125"><ele></ele><time>2020-9-19T15:5:18Z</time></trkpt>
<trkpt lat="46.2609337829053401947021484375" lon="7.42659780196845531463623046875"><ele></ele><time>2020-9-19T15:5:21Z</time></trkpt>
<trkpt lat="46.26096286810934543609619140625" lon="7.42657969705760478973388671875"><ele></ele><time>2020-9-19T15:5:24Z</time></trkpt>
<trkpt lat="46.2609984911978244781494140625" lon="7.4265645258128643035888671875"><ele></ele><time>2020-9-19T15:5:27Z</time></trkpt>
<trkpt lat="46.2611198611557483673095703125" lon="7.4265165813267230987548828125"><ele></ele><time>2020-9-19T15:5:30Z</time></trkpt>
<trkpt lat="46.261201165616512298583984375" lon="7.42647073231637477874755859375"><ele></ele><time>2020-9-19T15:5:33Z</time></trkpt>
<trkpt lat="46.26124315895140171051025390625" lon="7.42645011283457279205322265625"><ele></ele><time>2020-9-19T15:5:36Z</time></trkpt>
<trkpt lat="46.26141549088060855865478515625" lon="7.42634936235845088958740234375"><ele></ele><time>2020-9-19T15:5:39Z</time></trkpt>
<trkpt lat="46.2614558078348636627197265625" lon="7.42632128298282623291015625"><ele></ele><time>2020-9-19T15:5:42Z</time></trkpt>
<trkpt lat="46.26149377785623073577880859375" lon="7.42629236541688442230224609375"><ele></ele><time>2020-9-19T15:5:45Z</time></trkpt>
<trkpt lat="46.26153082586824893951416015625" lon="7.42625565268099308013916015625"><ele></ele><time>2020-9-19T15:5:48Z</time></trkpt>
<trkpt lat="46.26156921498477458953857421875" lon="7.42621592245995998382568359375"><ele></ele><time>2020-9-19T15:5:51Z</time></trkpt>
<trkpt lat="46.26160576008260250091552734375" lon="7.42617803625762462615966796875"><ele></ele><time>2020-9-19T15:5:54Z</time></trkpt>
<trkpt lat="46.26164196990430355072021484375" lon="7.42614023387432098388671875"><ele></ele><time>2020-9-19T15:5:57Z</time></trkpt>
<trkpt lat="46.2616780959069728851318359375" lon="7.42610528133809566497802734375"><ele></ele><time>2020-9-19T15:6:0Z</time></trkpt>
<trkpt lat="46.261719502508640289306640625" lon="7.4260783754289150238037109375"><ele></ele><time>2020-9-19T15:6:3Z</time></trkpt>
<trkpt lat="46.26176300458610057830810546875" lon="7.42605884559452533721923828125"><ele></ele><time>2020-9-19T15:6:6Z</time></trkpt>
<trkpt lat="46.2618068419396877288818359375" lon="7.42604501545429229736328125"><ele></ele><time>2020-9-19T15:6:9Z</time></trkpt>
<trkpt lat="46.2618505954742431640625" lon="7.42602984420955181121826171875"><ele></ele><time>2020-9-19T15:6:12Z</time></trkpt>
<trkpt lat="46.2618866376578807830810546875" lon="7.4260129965841770172119140625"><ele></ele><time>2020-9-19T15:6:15Z</time></trkpt>
<trkpt lat="46.26191002316772937774658203125" lon="7.425991706550121307373046875"><ele></ele><time>2020-9-19T15:6:18Z</time></trkpt>
<trkpt lat="46.2619308941066265106201171875" lon="7.425968907773494720458984375"><ele></ele><time>2020-9-19T15:6:21Z</time></trkpt>
<trkpt lat="46.26195050776004791259765625" lon="7.425945103168487548828125"><ele></ele><time>2020-9-19T15:6:24Z</time></trkpt>
<trkpt lat="46.26197171397507190704345703125" lon="7.42592808790504932403564453125"><ele></ele><time>2020-9-19T15:6:27Z</time></trkpt>
<trkpt lat="46.2619892321527004241943359375" lon="7.425909899175167083740234375"><ele></ele><time>2020-9-19T15:6:30Z</time></trkpt>
<trkpt lat="46.26200842671096324920654296875" lon="7.42589523084461688995361328125"><ele></ele><time>2020-9-19T15:6:33Z</time></trkpt>
<trkpt lat="46.26203139312565326690673828125" lon="7.42586991749703884124755859375"><ele></ele><time>2020-9-19T15:6:36Z</time></trkpt>
<trkpt lat="46.26205536536872386932373046875" lon="7.42584963329136371612548828125"><ele></ele><time>2020-9-19T15:6:39Z</time></trkpt>
<trkpt lat="46.26207632012665271759033203125" lon="7.42583035491406917572021484375"><ele></ele><time>2020-9-19T15:6:42Z</time></trkpt>
<trkpt lat="46.26209844835102558135986328125" lon="7.4258128367364406585693359375"><ele></ele><time>2020-9-19T15:6:45Z</time></trkpt>
<trkpt lat="46.2621228396892547607421875" lon="7.42578995414078235626220703125"><ele></ele><time>2020-9-19T15:6:48Z</time></trkpt>
<trkpt lat="46.26214773394167423248291015625" lon="7.42576262913644313812255859375"><ele></ele><time>2020-9-19T15:6:51Z</time></trkpt>
<trkpt lat="46.26217321492731571197509765625" lon="7.4257343821227550506591796875"><ele></ele><time>2020-9-19T15:6:54Z</time></trkpt>
<trkpt lat="46.26223373226821422576904296875" lon="7.4256693385541439056396484375"><ele></ele><time>2020-9-19T15:6:57Z</time></trkpt>
<trkpt lat="46.26239064149558544158935546875" lon="7.425475381314754486083984375"><ele></ele><time>2020-9-19T15:7:0Z</time></trkpt>
<trkpt lat="46.2624244205653667449951171875" lon="7.42542936466634273529052734375"><ele></ele><time>2020-9-19T15:7:3Z</time></trkpt>
<trkpt lat="46.262502707540988922119140625" lon="7.425351999700069427490234375"><ele></ele><time>2020-9-19T15:7:6Z</time></trkpt>
<trkpt lat="46.26254118047654628753662109375" lon="7.4253183044493198394775390625"><ele></ele><time>2020-9-19T15:7:9Z</time></trkpt>
<trkpt lat="46.26261510886251926422119140625" lon="7.42523708380758762359619140625"><ele></ele><time>2020-9-19T15:7:12Z</time></trkpt>
<trkpt lat="46.26267814077436923980712890625" lon="7.4251459725201129913330078125"><ele></ele><time>2020-9-19T15:7:15Z</time></trkpt>
<trkpt lat="46.26270378939807415008544921875" lon="7.4250923283398151397705078125"><ele></ele><time>2020-9-19T15:7:18Z</time></trkpt>
<trkpt lat="46.262725330889225006103515625" lon="7.4250390194356441497802734375"><ele></ele><time>2020-9-19T15:7:21Z</time></trkpt>
<trkpt lat="46.262746788561344146728515625" lon="7.42498512379825115203857421875"><ele></ele><time>2020-9-19T15:7:24Z</time></trkpt>
<trkpt lat="46.262762211263179779052734375" lon="7.4249352514743804931640625"><ele></ele><time>2020-9-19T15:7:27Z</time></trkpt>
<trkpt lat="46.26277386210858821868896484375" lon="7.4248923361301422119140625"><ele></ele><time>2020-9-19T15:7:30Z</time></trkpt>
<trkpt lat="46.26278408803045749664306640625" lon="7.42485889233648777008056640625"><ele></ele><time>2020-9-19T15:7:33Z</time></trkpt>
<trkpt lat="46.2627907097339630126953125" lon="7.42482938803732395172119140625"><ele></ele><time>2020-9-19T15:7:36Z</time></trkpt>
<trkpt lat="46.26280001364648342132568359375" lon="7.4248003028333187103271484375"><ele></ele><time>2020-9-19T15:7:39Z</time></trkpt>
<trkpt lat="46.26280705444514751434326171875" lon="7.42476962506771087646484375"><ele></ele><time>2020-9-19T15:7:42Z</time></trkpt>
<trkpt lat="46.26283102668821811676025390625" lon="7.42463685572147369384765625"><ele></ele><time>2020-9-19T15:7:45Z</time></trkpt>
<trkpt lat="46.262836642563343048095703125" lon="7.4245904199779033660888671875"><ele></ele><time>2020-9-19T15:7:48Z</time></trkpt>
<trkpt lat="46.2628391571342945098876953125" lon="7.4245367757976055145263671875"><ele></ele><time>2020-9-19T15:7:51Z</time></trkpt>
<trkpt lat="46.26284502446651458740234375" lon="7.42437307722866535186767578125"><ele></ele><time>2020-9-19T15:7:54Z</time></trkpt>
<trkpt lat="46.26284904778003692626953125" lon="7.424329407513141632080078125"><ele></ele><time>2020-9-19T15:7:57Z</time></trkpt>
<trkpt lat="46.2628532387316226959228515625" lon="7.424293868243694305419921875"><ele></ele><time>2020-9-19T15:8:0Z</time></trkpt>
<trkpt lat="46.26286019571125507354736328125" lon="7.42426008917391300201416015625"><ele></ele><time>2020-9-19T15:8:3Z</time></trkpt>
<trkpt lat="46.26287050545215606689453125" lon="7.424217760562896728515625"><ele></ele><time>2020-9-19T15:8:6Z</time></trkpt>
<trkpt lat="46.26288265921175479888916015625" lon="7.42418280802667140960693359375"><ele></ele><time>2020-9-19T15:8:9Z</time></trkpt>
<trkpt lat="46.26290026120841503143310546875" lon="7.42416436783969402313232421875"><ele></ele><time>2020-9-19T15:8:12Z</time></trkpt>
<trkpt lat="46.26291367225348949432373046875" lon="7.42414592765271663665771484375"><ele></ele><time>2020-9-19T15:8:15Z</time></trkpt>
<trkpt lat="46.26293261535465717315673828125" lon="7.42413721047341823577880859375"><ele></ele><time>2020-9-19T15:8:18Z</time></trkpt>
<trkpt lat="46.262951306998729705810546875" lon="7.42412329651415348052978515625"><ele></ele><time>2020-9-19T15:8:21Z</time></trkpt>
<trkpt lat="46.2629779614508152008056640625" lon="7.424110472202301025390625"><ele></ele><time>2020-9-19T15:8:24Z</time></trkpt>
<trkpt lat="46.2630106508731842041015625" lon="7.42410401813685894012451171875"><ele></ele><time>2020-9-19T15:8:27Z</time></trkpt>
<trkpt lat="46.2631127424538135528564453125" lon="7.424086667597293853759765625"><ele></ele><time>2020-9-19T15:8:30Z</time></trkpt>
<trkpt lat="46.2631791271269321441650390625" lon="7.4240657128393650054931640625"><ele></ele><time>2020-9-19T15:8:33Z</time></trkpt>
<trkpt lat="46.2632146663963794708251953125" lon="7.42406579665839672088623046875"><ele></ele><time>2020-9-19T15:8:36Z</time></trkpt>
<trkpt lat="46.26329739578068256378173828125" lon="7.424073256552219390869140625"><ele></ele><time>2020-9-19T15:8:39Z</time></trkpt>
<trkpt lat="46.26333679072558879852294921875" lon="7.42407786659896373748779296875"><ele></ele><time>2020-9-19T15:8:42Z</time></trkpt>
<trkpt lat="46.263381801545619964599609375" lon="7.42407686077058315277099609375"><ele></ele><time>2020-9-19T15:8:45Z</time></trkpt>
<trkpt lat="46.26342832110822200775146484375" lon="7.42406328208744525909423828125"><ele></ele><time>2020-9-19T15:8:48Z</time></trkpt>
<trkpt lat="46.263472326099872589111328125" lon="7.42404568009078502655029296875"><ele></ele><time>2020-9-19T15:8:51Z</time></trkpt>
<trkpt lat="46.26351297833025455474853515625" lon="7.424020282924175262451171875"><ele></ele><time>2020-9-19T15:8:54Z</time></trkpt>
<trkpt lat="46.263552121818065643310546875" lon="7.42398767732083797454833984375"><ele></ele><time>2020-9-19T15:8:57Z</time></trkpt>
<trkpt lat="46.26359160058200359344482421875" lon="7.42395448498427867889404296875"><ele></ele><time>2020-9-19T15:9:0Z</time></trkpt>
<trkpt lat="46.2636347673833370208740234375" lon="7.42393000982701778411865234375"><ele></ele><time>2020-9-19T15:9:3Z</time></trkpt>
<trkpt lat="46.263769380748271942138671875" lon="7.42387133650481700897216796875"><ele></ele><time>2020-9-19T15:9:6Z</time></trkpt>
<trkpt lat="46.26381053589284420013427734375" lon="7.42385792545974254608154296875"><ele></ele><time>2020-9-19T15:9:9Z</time></trkpt>
<trkpt lat="46.26385328359901905059814453125" lon="7.42384971119463443756103515625"><ele></ele><time>2020-9-19T15:9:12Z</time></trkpt>
<trkpt lat="46.26390223391354084014892578125" lon="7.42383311502635478973388671875"><ele></ele><time>2020-9-19T15:9:15Z</time></trkpt>
<trkpt lat="46.263989321887493133544921875" lon="7.42379623465240001678466796875"><ele></ele><time>2020-9-19T15:9:18Z</time></trkpt>
<trkpt lat="46.2640347518026828765869140625" lon="7.42378734983503818511962890625"><ele></ele><time>2020-9-19T15:9:21Z</time></trkpt>
<trkpt lat="46.2640790082514286041259765625" lon="7.4237830750644207000732421875"><ele></ele><time>2020-9-19T15:9:24Z</time></trkpt>
<trkpt lat="46.26412234269082546234130859375" lon="7.423772849142551422119140625"><ele></ele><time>2020-9-19T15:9:27Z</time></trkpt>
<trkpt lat="46.26416324637830257415771484375" lon="7.42376404814422130584716796875"><ele></ele><time>2020-9-19T15:9:30Z</time></trkpt>
<trkpt lat="46.2642010487616062164306640625" lon="7.423768825829029083251953125"><ele></ele><time>2020-9-19T15:9:33Z</time></trkpt>
<trkpt lat="46.26427891664206981658935546875" lon="7.423783577978610992431640625"><ele></ele><time>2020-9-19T15:9:36Z</time></trkpt>
<trkpt lat="46.26431646756827831268310546875" lon="7.42377913556993007659912109375"><ele></ele><time>2020-9-19T15:9:39Z</time></trkpt>
<trkpt lat="46.2643552757799625396728515625" lon="7.4237622879445552825927734375"><ele></ele><time>2020-9-19T15:9:42Z</time></trkpt>
<trkpt lat="46.26438218168914318084716796875" lon="7.42374208755791187286376953125"><ele></ele><time>2020-9-19T15:9:45Z</time></trkpt>
<trkpt lat="46.26440078951418399810791015625" lon="7.42370855994522571563720703125"><ele></ele><time>2020-9-19T15:9:48Z</time></trkpt>
<trkpt lat="46.2644223310053348541259765625" lon="7.4236638844013214111328125"><ele></ele><time>2020-9-19T15:9:51Z</time></trkpt>
<trkpt lat="46.26444739289581775665283203125" lon="7.42360512726008892059326171875"><ele></ele><time>2020-9-19T15:9:54Z</time></trkpt>
<trkpt lat="46.26446968875825405120849609375" lon="7.42352910339832305908203125"><ele></ele><time>2020-9-19T15:9:57Z</time></trkpt>
<trkpt lat="46.26449584029614925384521484375" lon="7.4234426021575927734375"><ele></ele><time>2020-9-19T15:10:0Z</time></trkpt>
<trkpt lat="46.264524422585964202880859375" lon="7.42337009869515895843505859375"><ele></ele><time>2020-9-19T15:10:3Z</time></trkpt>
<trkpt lat="46.26455233432352542877197265625" lon="7.42329566739499568939208984375"><ele></ele><time>2020-9-19T15:10:6Z</time></trkpt>
<trkpt lat="46.2645718641579151153564453125" lon="7.42321855388581752777099609375"><ele></ele><time>2020-9-19T15:10:9Z</time></trkpt>
<trkpt lat="46.264579407870769500732421875" lon="7.4231443740427494049072265625"><ele></ele><time>2020-9-19T15:10:12Z</time></trkpt>
<trkpt lat="46.26457932405173778533935546875" lon="7.42307254113256931304931640625"><ele></ele><time>2020-9-19T15:10:15Z</time></trkpt>
<trkpt lat="46.264556609094142913818359375" lon="7.4230065755546092987060546875"><ele></ele><time>2020-9-19T15:10:18Z</time></trkpt>
<trkpt lat="46.2645185552537441253662109375" lon="7.42294999770820140838623046875"><ele></ele><time>2020-9-19T15:10:21Z</time></trkpt>
<trkpt lat="46.2644679285585880279541015625" lon="7.42288579232990741729736328125"><ele></ele><time>2020-9-19T15:10:24Z</time></trkpt>
<trkpt lat="46.26434731297194957733154296875" lon="7.42275796830654144287109375"><ele></ele><time>2020-9-19T15:10:27Z</time></trkpt>
<trkpt lat="46.26428629271686077117919921875" lon="7.4226927570998668670654296875"><ele></ele><time>2020-9-19T15:10:30Z</time></trkpt>
<trkpt lat="46.264226026833057403564453125" lon="7.42262310348451137542724609375"><ele></ele><time>2020-9-19T15:10:33Z</time></trkpt>
<trkpt lat="46.26410256139934062957763671875" lon="7.42247524671256542205810546875"><ele></ele><time>2020-9-19T15:10:36Z</time></trkpt>
<trkpt lat="46.2640454806387424468994140625" lon="7.42240098305046558380126953125"><ele></ele><time>2020-9-19T15:10:39Z</time></trkpt>
<trkpt lat="46.263993345201015472412109375" lon="7.4223333410918712615966796875"><ele></ele><time>2020-9-19T15:10:42Z</time></trkpt>
<trkpt lat="46.2639438919723033905029296875" lon="7.42227609269320964813232421875"><ele></ele><time>2020-9-19T15:10:45Z</time></trkpt>
<trkpt lat="46.2638946063816547393798828125" lon="7.422223873436450958251953125"><ele></ele><time>2020-9-19T15:10:48Z</time></trkpt>
<trkpt lat="46.263840459287166595458984375" lon="7.42219193838536739349365234375"><ele></ele><time>2020-9-19T15:10:51Z</time></trkpt>
<trkpt lat="46.26378052867949008941650390625" lon="7.422171570360660552978515625"><ele></ele><time>2020-9-19T15:10:54Z</time></trkpt>
<trkpt lat="46.263715066015720367431640625" lon="7.422166205942630767822265625"><ele></ele><time>2020-9-19T15:10:57Z</time></trkpt>
<trkpt lat="46.2636501900851726531982421875" lon="7.42216930724680423736572265625"><ele></ele><time>2020-9-19T15:11:0Z</time></trkpt>
<trkpt lat="46.263586990535259246826171875" lon="7.4221794493496417999267578125"><ele></ele><time>2020-9-19T15:11:3Z</time></trkpt>
<trkpt lat="46.26352789811789989471435546875" lon="7.42217768914997577667236328125"><ele></ele><time>2020-9-19T15:11:6Z</time></trkpt>
<trkpt lat="46.2634694762527942657470703125" lon="7.42215941660106182098388671875"><ele></ele><time>2020-9-19T15:11:9Z</time></trkpt>
<trkpt lat="46.263409964740276336669921875" lon="7.422122620046138763427734375"><ele></ele><time>2020-9-19T15:11:12Z</time></trkpt>
<trkpt lat="46.26335103996098041534423828125" lon="7.4220781959593296051025390625"><ele></ele><time>2020-9-19T15:11:15Z</time></trkpt>
<trkpt lat="46.2632944621145725250244140625" lon="7.42203377187252044677734375"><ele></ele><time>2020-9-19T15:11:18Z</time></trkpt>
<trkpt lat="46.26323805190622806549072265625" lon="7.42198524065315723419189453125"><ele></ele><time>2020-9-19T15:11:21Z</time></trkpt>
<trkpt lat="46.26318390481173992156982421875" lon="7.421940229833126068115234375"><ele></ele><time>2020-9-19T15:11:24Z</time></trkpt>
<trkpt lat="46.26313269138336181640625" lon="7.42189790122210979461669921875"><ele></ele><time>2020-9-19T15:11:27Z</time></trkpt>
<trkpt lat="46.263085417449474334716796875" lon="7.421857081353664398193359375"><ele></ele><time>2020-9-19T15:11:30Z</time></trkpt>
<trkpt lat="46.26304392702877521514892578125" lon="7.4218166805803775787353515625"><ele></ele><time>2020-9-19T15:11:33Z</time></trkpt>
<trkpt lat="46.2630067951977252960205078125" lon="7.42178088985383510589599609375"><ele></ele><time>2020-9-19T15:11:36Z</time></trkpt>
<trkpt lat="46.2629705853760242462158203125" lon="7.42173470556735992431640625"><ele></ele><time>2020-9-19T15:11:39Z</time></trkpt>
<trkpt lat="46.2629328668117523193359375" lon="7.4216808937489986419677734375"><ele></ele><time>2020-9-19T15:11:42Z</time></trkpt>
<trkpt lat="46.26289330422878265380859375" lon="7.42162875831127166748046875"><ele></ele><time>2020-9-19T15:11:45Z</time></trkpt>
<trkpt lat="46.262851059436798095703125" lon="7.421559356153011322021484375"><ele></ele><time>2020-9-19T15:11:48Z</time></trkpt>
<trkpt lat="46.26272189430892467498779296875" lon="7.4213382415473461151123046875"><ele></ele><time>2020-9-19T15:11:51Z</time></trkpt>
<trkpt lat="46.26268652267754077911376953125" lon="7.42127914912998676300048828125"><ele></ele><time>2020-9-19T15:11:54Z</time></trkpt>
<trkpt lat="46.26251067034900188446044921875" lon="7.42103322409093379974365234375"><ele></ele><time>2020-9-19T15:11:57Z</time></trkpt>
<trkpt lat="46.2624686770141124725341796875" lon="7.4209771491587162017822265625"><ele></ele><time>2020-9-19T15:12:0Z</time></trkpt>
<trkpt lat="46.26243305392563343048095703125" lon="7.42092928849160671234130859375"><ele></ele><time>2020-9-19T15:12:3Z</time></trkpt>
<trkpt lat="46.26240472309291362762451171875" lon="7.42089291103184223175048828125"><ele></ele><time>2020-9-19T15:12:6Z</time></trkpt>
<trkpt lat="46.26238368451595306396484375" lon="7.4208500795066356658935546875"><ele></ele><time>2020-9-19T15:12:9Z</time></trkpt>
<trkpt lat="46.26236851327121257781982421875" lon="7.42079299874603748321533203125"><ele></ele><time>2020-9-19T15:12:12Z</time></trkpt>
<trkpt lat="46.2623516656458377838134765625" lon="7.42072761990129947662353515625"><ele></ele><time>2020-9-19T15:12:15Z</time></trkpt>
<trkpt lat="46.26232911832630634307861328125" lon="7.4206576310098171234130859375"><ele></ele><time>2020-9-19T15:12:18Z</time></trkpt>
<trkpt lat="46.262299530208110809326171875" lon="7.42057959549129009246826171875"><ele></ele><time>2020-9-19T15:12:21Z</time></trkpt>
<trkpt lat="46.2622638233006000518798828125" lon="7.420500554144382476806640625"><ele></ele><time>2020-9-19T15:12:24Z</time></trkpt>
<trkpt lat="46.2622259370982646942138671875" lon="7.42042553611099720001220703125"><ele></ele><time>2020-9-19T15:12:27Z</time></trkpt>
<trkpt lat="46.26219148747622966766357421875" lon="7.4203540384769439697265625"><ele></ele><time>2020-9-19T15:12:30Z</time></trkpt>
<trkpt lat="46.2621608935296535491943359375" lon="7.4202831275761127471923828125"><ele></ele><time>2020-9-19T15:12:33Z</time></trkpt>
<trkpt lat="46.26213147304952144622802734375" lon="7.42021565325558185577392578125"><ele></ele><time>2020-9-19T15:12:36Z</time></trkpt>
<trkpt lat="46.26210381276905536651611328125" lon="7.42014692164957523345947265625"><ele></ele><time>2020-9-19T15:12:39Z</time></trkpt>
<trkpt lat="46.2620807625353336334228515625" lon="7.4200668744742870330810546875"><ele></ele><time>2020-9-19T15:12:42Z</time></trkpt>
<trkpt lat="46.26206190325319766998291015625" lon="7.41997945122420787811279296875"><ele></ele><time>2020-9-19T15:12:45Z</time></trkpt>
<trkpt lat="46.26204111613333225250244140625" lon="7.4198989011347293853759765625"><ele></ele><time>2020-9-19T15:12:48Z</time></trkpt>
<trkpt lat="46.26202016137540340423583984375" lon="7.41983578540384769439697265625"><ele></ele><time>2020-9-19T15:12:51Z</time></trkpt>
<trkpt lat="46.26199954189360141754150390625" lon="7.419781722128391265869140625"><ele></ele><time>2020-9-19T15:12:54Z</time></trkpt>
<trkpt lat="46.26198428682982921600341796875" lon="7.41974048316478729248046875"><ele></ele><time>2020-9-19T15:12:57Z</time></trkpt>
<trkpt lat="46.2619711272418498992919921875" lon="7.41969580762088298797607421875"><ele></ele><time>2020-9-19T15:13:0Z</time></trkpt>
<trkpt lat="46.26195813529193401336669921875" lon="7.41964283399283885955810546875"><ele></ele><time>2020-9-19T15:13:3Z</time></trkpt>
<trkpt lat="46.2619151361286640167236328125" lon="7.41951048374176025390625"><ele></ele><time>2020-9-19T15:13:6Z</time></trkpt>
<trkpt lat="46.26188253052532672882080078125" lon="7.41944141685962677001953125"><ele></ele><time>2020-9-19T15:13:9Z</time></trkpt>
<trkpt lat="46.26183810643851757049560546875" lon="7.41937109269201755523681640625"><ele></ele><time>2020-9-19T15:13:12Z</time></trkpt>
<trkpt lat="46.2617840431630611419677734375" lon="7.419303618371486663818359375"><ele></ele><time>2020-9-19T15:13:15Z</time></trkpt>
<trkpt lat="46.26172981224954128265380859375" lon="7.4192409217357635498046875"><ele></ele><time>2020-9-19T15:13:18Z</time></trkpt>
<trkpt lat="46.26168270595371723175048828125" lon="7.4191894568502902984619140625"><ele></ele><time>2020-9-19T15:13:21Z</time></trkpt>
<trkpt lat="46.2616402097046375274658203125" lon="7.4191448651254177093505859375"><ele></ele><time>2020-9-19T15:13:24Z</time></trkpt>
<trkpt lat="46.261604838073253631591796875" lon="7.41910605691373348236083984375"><ele></ele><time>2020-9-19T15:13:27Z</time></trkpt>
<trkpt lat="46.2615731544792652130126953125" lon="7.41906649433076381683349609375"><ele></ele><time>2020-9-19T15:13:30Z</time></trkpt>
<trkpt lat="46.26154482364654541015625" lon="7.41901737637817859649658203125"><ele></ele><time>2020-9-19T15:13:33Z</time></trkpt>
<trkpt lat="46.26149277202785015106201171875" lon="7.41890639998018741607666015625"><ele></ele><time>2020-9-19T15:13:36Z</time></trkpt>
<trkpt lat="46.26146913506090641021728515625" lon="7.418851666152477264404296875"><ele></ele><time>2020-9-19T15:13:39Z</time></trkpt>
<trkpt lat="46.2614477612078189849853515625" lon="7.4188082478940486907958984375"><ele></ele><time>2020-9-19T15:13:42Z</time></trkpt>
<trkpt lat="46.261427141726016998291015625" lon="7.41877597756683826446533203125"><ele></ele><time>2020-9-19T15:13:45Z</time></trkpt>
<trkpt lat="46.26140694133937358856201171875" lon="7.41875200532376766204833984375"><ele></ele><time>2020-9-19T15:13:48Z</time></trkpt>
<trkpt lat="46.26138749532401561737060546875" lon="7.418723590672016143798828125"><ele></ele><time>2020-9-19T15:13:51Z</time></trkpt>
<trkpt lat="46.2613733299076557159423828125" lon="7.418681345880031585693359375"><ele></ele><time>2020-9-19T15:13:54Z</time></trkpt>
<trkpt lat="46.2613582424819469451904296875" lon="7.41863080300390720367431640625"><ele></ele><time>2020-9-19T15:13:57Z</time></trkpt>
<trkpt lat="46.26133494079113006591796875" lon="7.4185792542994022369384765625"><ele></ele><time>2020-9-19T15:14:0Z</time></trkpt>
<trkpt lat="46.261234693229198455810546875" lon="7.41840767674148082733154296875"><ele></ele><time>2020-9-19T15:14:3Z</time></trkpt>
<trkpt lat="46.2611879222095012664794921875" lon="7.4183462373912334442138671875"><ele></ele><time>2020-9-19T15:14:6Z</time></trkpt>
<trkpt lat="46.26107552088797092437744140625" lon="7.418224029242992401123046875"><ele></ele><time>2020-9-19T15:14:9Z</time></trkpt>
<trkpt lat="46.261011064052581787109375" lon="7.418164350092411041259765625"><ele></ele><time>2020-9-19T15:14:12Z</time></trkpt>
<trkpt lat="46.260947696864604949951171875" lon="7.418102659285068511962890625"><ele></ele><time>2020-9-19T15:14:15Z</time></trkpt>
<trkpt lat="46.260892711579799652099609375" lon="7.41803283803164958953857421875"><ele></ele><time>2020-9-19T15:14:18Z</time></trkpt>
<trkpt lat="46.260846443474292755126953125" lon="7.4179502762854099273681640625"><ele></ele><time>2020-9-19T15:14:21Z</time></trkpt>
<trkpt lat="46.26080813817679882049560546875" lon="7.417855225503444671630859375"><ele></ele><time>2020-9-19T15:14:24Z</time></trkpt>
<trkpt lat="46.2607768736779689788818359375" lon="7.417755313217639923095703125"><ele></ele><time>2020-9-19T15:14:27Z</time></trkpt>
<trkpt lat="46.2607530690729618072509765625" lon="7.4176584184169769287109375"><ele></ele><time>2020-9-19T15:14:30Z</time></trkpt>
<trkpt lat="46.26073001883924007415771484375" lon="7.41757350973784923553466796875"><ele></ele><time>2020-9-19T15:14:33Z</time></trkpt>
<trkpt lat="46.26070537604391574859619140625" lon="7.4175107292830944061279296875"><ele></ele><time>2020-9-19T15:14:36Z</time></trkpt>
<trkpt lat="46.26068559475243091583251953125" lon="7.4174661375582218170166015625"><ele></ele><time>2020-9-19T15:14:39Z</time></trkpt>
<trkpt lat="46.26067670993506908416748046875" lon="7.41742883808910846710205078125"><ele></ele><time>2020-9-19T15:14:42Z</time></trkpt>
<trkpt lat="46.26067067496478557586669921875" lon="7.41739849559962749481201171875"><ele></ele><time>2020-9-19T15:14:45Z</time></trkpt>
<trkpt lat="46.2606625445187091827392578125" lon="7.41737745702266693115234375"><ele></ele><time>2020-9-19T15:14:48Z</time></trkpt>
<trkpt lat="46.2606568448245525360107421875" lon="7.417367398738861083984375"><ele></ele><time>2020-9-19T15:14:51Z</time></trkpt>
<trkpt lat="46.2606571801006793975830078125" lon="7.4173645488917827606201171875"><ele></ele><time>2020-9-19T15:14:54Z</time></trkpt>
<trkpt lat="46.26065843738615512847900390625" lon="7.41736446507275104522705078125"><ele></ele><time>2020-9-19T15:14:57Z</time></trkpt>
<trkpt lat="46.260667406022548675537109375" lon="7.41733395494520664215087890625"><ele></ele><time>2020-9-19T15:15:0Z</time></trkpt>
<trkpt lat="46.26068718731403350830078125" lon="7.41726891137659549713134765625"><ele></ele><time>2020-9-19T15:15:3Z</time></trkpt>
<trkpt lat="46.2607550807297229766845703125" lon="7.41699331440031528472900390625"><ele></ele><time>2020-9-19T15:15:6Z</time></trkpt>
<trkpt lat="46.26075600273907184600830078125" lon="7.41694687865674495697021484375"><ele></ele><time>2020-9-19T15:15:9Z</time></trkpt>
<trkpt lat="46.260745525360107421875" lon="7.41690346039831638336181640625"><ele></ele><time>2020-9-19T15:15:12Z</time></trkpt>
<trkpt lat="46.26072213985025882720947265625" lon="7.416868843138217926025390625"><ele></ele><time>2020-9-19T15:15:15Z</time></trkpt>
<trkpt lat="46.26068542711436748504638671875" lon="7.4168562702834606170654296875"><ele></ele><time>2020-9-19T15:15:18Z</time></trkpt>
<trkpt lat="46.26063966192305088043212890625" lon="7.41685434244573116302490234375"><ele></ele><time>2020-9-19T15:15:21Z</time></trkpt>
<trkpt lat="46.2605938129127025604248046875" lon="7.41685685701668262481689453125"><ele></ele><time>2020-9-19T15:15:24Z</time></trkpt>
<trkpt lat="46.26044754870235919952392578125" lon="7.41685769520699977874755859375"><ele></ele><time>2020-9-19T15:15:27Z</time></trkpt>
<trkpt lat="46.2603959999978542327880859375" lon="7.416853420436382293701171875"><ele></ele><time>2020-9-19T15:15:30Z</time></trkpt>
<trkpt lat="46.26034763641655445098876953125" lon="7.41684763692319393157958984375"><ele></ele><time>2020-9-19T15:15:33Z</time></trkpt>
<trkpt lat="46.26029818318784236907958984375" lon="7.416839338839054107666015625"><ele></ele><time>2020-9-19T15:15:36Z</time></trkpt>
<trkpt lat="46.2602424435317516326904296875" lon="7.41682752035558223724365234375"><ele></ele><time>2020-9-19T15:15:39Z</time></trkpt>
<trkpt lat="46.2601862847805023193359375" lon="7.4168183840811252593994140625"><ele></ele><time>2020-9-19T15:15:42Z</time></trkpt>
<trkpt lat="46.260133646428585052490234375" lon="7.4168188869953155517578125"><ele></ele><time>2020-9-19T15:15:45Z</time></trkpt>
<trkpt lat="46.260082684457302093505859375" lon="7.41683305241167545318603515625"><ele></ele><time>2020-9-19T15:15:48Z</time></trkpt>
<trkpt lat="46.260031051933765411376953125" lon="7.41685819812119007110595703125"><ele></ele><time>2020-9-19T15:15:51Z</time></trkpt>
<trkpt lat="46.25997715629637241363525390625" lon="7.4168794043362140655517578125"><ele></ele><time>2020-9-19T15:15:54Z</time></trkpt>
<trkpt lat="46.25992753542959690093994140625" lon="7.41688971407711505889892578125"><ele></ele><time>2020-9-19T15:15:57Z</time></trkpt>
<trkpt lat="46.25988679938018321990966796875" lon="7.41690480150282382965087890625"><ele></ele><time>2020-9-19T15:16:0Z</time></trkpt>
<trkpt lat="46.25985167920589447021484375" lon="7.416935227811336517333984375"><ele></ele><time>2020-9-19T15:16:3Z</time></trkpt>
<trkpt lat="46.25981890596449375152587890625" lon="7.41697738878428936004638671875"><ele></ele><time>2020-9-19T15:16:6Z</time></trkpt>
<trkpt lat="46.2597914971411228179931640625" lon="7.4170322902500629425048828125"><ele></ele><time>2020-9-19T15:16:9Z</time></trkpt>
<trkpt lat="46.25976316630840301513671875" lon="7.41709624417126178741455078125"><ele></ele><time>2020-9-19T15:16:12Z</time></trkpt>
<trkpt lat="46.25972972251474857330322265625" lon="7.41715927608311176300048828125"><ele></ele><time>2020-9-19T15:16:15Z</time></trkpt>
<trkpt lat="46.25969602726399898529052734375" lon="7.4172203801572322845458984375"><ele></ele><time>2020-9-19T15:16:18Z</time></trkpt>
<trkpt lat="46.259664930403232574462890625" lon="7.4172797240316867828369140625"><ele></ele><time>2020-9-19T15:16:21Z</time></trkpt>
<trkpt lat="46.259638108313083648681640625" lon="7.41734468378126621246337890625"><ele></ele><time>2020-9-19T15:16:24Z</time></trkpt>
<trkpt lat="46.25962075777351856231689453125" lon="7.4174225516617298126220703125"><ele></ele><time>2020-9-19T15:16:27Z</time></trkpt>
<trkpt lat="46.2596149742603302001953125" lon="7.4175060354173183441162109375"><ele></ele><time>2020-9-19T15:16:30Z</time></trkpt>
<trkpt lat="46.25960835255682468414306640625" lon="7.4175754375755786895751953125"><ele></ele><time>2020-9-19T15:16:33Z</time></trkpt>
<trkpt lat="46.2595893256366252899169921875" lon="7.41762824356555938720703125"><ele></ele><time>2020-9-19T15:16:36Z</time></trkpt>
<trkpt lat="46.2595532834529876708984375" lon="7.4176646210253238677978515625"><ele></ele><time>2020-9-19T15:16:39Z</time></trkpt>
<trkpt lat="46.259508021175861358642578125" lon="7.4176890961825847625732421875"><ele></ele><time>2020-9-19T15:16:42Z</time></trkpt>
<trkpt lat="46.25945714302361011505126953125" lon="7.41770468652248382568359375"><ele></ele><time>2020-9-19T15:16:45Z</time></trkpt>
<trkpt lat="46.25940467230975627899169921875" lon="7.4177196063101291656494140625"><ele></ele><time>2020-9-19T15:16:48Z</time></trkpt>
<trkpt lat="46.25934951938688755035400390625" lon="7.41773595102131366729736328125"><ele></ele><time>2020-9-19T15:16:51Z</time></trkpt>
<trkpt lat="46.259226389229297637939453125" lon="7.41777283139526844024658203125"><ele></ele><time>2020-9-19T15:16:54Z</time></trkpt>
<trkpt lat="46.25908196903765201568603515625" lon="7.41780468262732028961181640625"><ele></ele><time>2020-9-19T15:16:57Z</time></trkpt>
<trkpt lat="46.2590034306049346923828125" lon="7.4178218655288219451904296875"><ele></ele><time>2020-9-19T15:17:0Z</time></trkpt>
<trkpt lat="46.25892229378223419189453125" lon="7.41783678531646728515625"><ele></ele><time>2020-9-19T15:17:3Z</time></trkpt>
<trkpt lat="46.2587561644613742828369140625" lon="7.41786335594952106475830078125"><ele></ele><time>2020-9-19T15:17:6Z</time></trkpt>
<trkpt lat="46.2586740218102931976318359375" lon="7.41787592880427837371826171875"><ele></ele><time>2020-9-19T15:17:9Z</time></trkpt>
<trkpt lat="46.25851082615554332733154296875" lon="7.417898140847682952880859375"><ele></ele><time>2020-9-19T15:17:12Z</time></trkpt>
<trkpt lat="46.258433796465396881103515625" lon="7.417907528579235076904296875"><ele></ele><time>2020-9-19T15:17:15Z</time></trkpt>
<trkpt lat="46.25836615450680255889892578125" lon="7.41791700012981891632080078125"><ele></ele><time>2020-9-19T15:17:18Z</time></trkpt>
<trkpt lat="46.258311085402965545654296875" lon="7.4179224483668804168701171875"><ele></ele><time>2020-9-19T15:17:21Z</time></trkpt>
<trkpt lat="46.258261464536190032958984375" lon="7.417906187474727630615234375"><ele></ele><time>2020-9-19T15:17:24Z</time></trkpt>
<trkpt lat="46.25821284949779510498046875" lon="7.417859248816967010498046875"><ele></ele><time>2020-9-19T15:17:27Z</time></trkpt>
<trkpt lat="46.2581660784780979156494140625" lon="7.4177925288677215576171875"><ele></ele><time>2020-9-19T15:17:30Z</time></trkpt>
<trkpt lat="46.258119978010654449462890625" lon="7.4177186004817485809326171875"><ele></ele><time>2020-9-19T15:17:33Z</time></trkpt>
<trkpt lat="46.25807412900030612945556640625" lon="7.4176434986293315887451171875"><ele></ele><time>2020-9-19T15:17:36Z</time></trkpt>
<trkpt lat="46.258032806217670440673828125" lon="7.4175751022994518280029296875"><ele></ele><time>2020-9-19T15:17:39Z</time></trkpt>
<trkpt lat="46.25799885950982570648193359375" lon="7.41752003319561481475830078125"><ele></ele><time>2020-9-19T15:17:42Z</time></trkpt>
<trkpt lat="46.25796834938228130340576171875" lon="7.41748700849711894989013671875"><ele></ele><time>2020-9-19T15:17:45Z</time></trkpt>
<trkpt lat="46.25793666578829288482666015625" lon="7.41748566739261150360107421875"><ele></ele><time>2020-9-19T15:17:48Z</time></trkpt>
<trkpt lat="46.25791554339230060577392578125" lon="7.41751768626272678375244140625"><ele></ele><time>2020-9-19T15:17:51Z</time></trkpt>
<trkpt lat="46.2579117715358734130859375" lon="7.41757233627140522003173828125"><ele></ele><time>2020-9-19T15:17:54Z</time></trkpt>
<trkpt lat="46.2579179741442203521728515625" lon="7.4176384694874286651611328125"><ele></ele><time>2020-9-19T15:17:57Z</time></trkpt>
<trkpt lat="46.2579263560473918914794921875" lon="7.4177098833024501800537109375"><ele></ele><time>2020-9-19T15:18:0Z</time></trkpt>
<trkpt lat="46.25793616287410259246826171875" lon="7.4177880026400089263916015625"><ele></ele><time>2020-9-19T15:18:3Z</time></trkpt>
<trkpt lat="46.257953345775604248046875" lon="7.417948432266712188720703125"><ele></ele><time>2020-9-19T15:18:6Z</time></trkpt>
<trkpt lat="46.2579622305929660797119140625" lon="7.4181169085204601287841796875"><ele></ele><time>2020-9-19T15:18:9Z</time></trkpt>
<trkpt lat="46.2579729594290256500244140625" lon="7.4181970395147800445556640625"><ele></ele><time>2020-9-19T15:18:12Z</time></trkpt>
<trkpt lat="46.25798620283603668212890625" lon="7.418270297348499298095703125"><ele></ele><time>2020-9-19T15:18:15Z</time></trkpt>
<trkpt lat="46.25799433328211307525634765625" lon="7.4183351732790470123291015625"><ele></ele><time>2020-9-19T15:18:18Z</time></trkpt>
<trkpt lat="46.257989220321178436279296875" lon="7.41839803755283355712890625"><ele></ele><time>2020-9-19T15:18:21Z</time></trkpt>
<trkpt lat="46.25796667300164699554443359375" lon="7.4184603989124298095703125"><ele></ele><time>2020-9-19T15:18:24Z</time></trkpt>
<trkpt lat="46.25793565995991230010986328125" lon="7.41851915605366230010986328125"><ele></ele><time>2020-9-19T15:18:27Z</time></trkpt>
<trkpt lat="46.25790179707109928131103515625" lon="7.41858051158487796783447265625"><ele></ele><time>2020-9-19T15:18:30Z</time></trkpt>
<trkpt lat="46.257874555885791778564453125" lon="7.41865125484764575958251953125"><ele></ele><time>2020-9-19T15:18:33Z</time></trkpt>
<trkpt lat="46.2578546069562435150146484375" lon="7.4187301285564899444580078125"><ele></ele><time>2020-9-19T15:18:36Z</time></trkpt>
<trkpt lat="46.2578393518924713134765625" lon="7.41880933754146099090576171875"><ele></ele><time>2020-9-19T15:18:39Z</time></trkpt>
<trkpt lat="46.25782568939030170440673828125" lon="7.4188900552690029144287109375"><ele></ele><time>2020-9-19T15:18:42Z</time></trkpt>
<trkpt lat="46.2578137032687664031982421875" lon="7.418975718319416046142578125"><ele></ele><time>2020-9-19T15:18:45Z</time></trkpt>
<trkpt lat="46.25780305825173854827880859375" lon="7.4190558493137359619140625"><ele></ele><time>2020-9-19T15:18:48Z</time></trkpt>
<trkpt lat="46.25779199413955211639404296875" lon="7.41913296282291412353515625"><ele></ele><time>2020-9-19T15:18:51Z</time></trkpt>
<trkpt lat="46.2577664293348789215087890625" lon="7.419290877878665924072265625"><ele></ele><time>2020-9-19T15:18:54Z</time></trkpt>
<trkpt lat="46.25775092281401157379150390625" lon="7.419367320835590362548828125"><ele></ele><time>2020-9-19T15:18:57Z</time></trkpt>
<trkpt lat="46.2577355839312076568603515625" lon="7.41943647153675556182861328125"><ele></ele><time>2020-9-19T15:19:0Z</time></trkpt>
<trkpt lat="46.2577186524868011474609375" lon="7.41949950344860553741455078125"><ele></ele><time>2020-9-19T15:19:3Z</time></trkpt>
<trkpt lat="46.25769660808145999908447265625" lon="7.4195555783808231353759765625"><ele></ele><time>2020-9-19T15:19:6Z</time></trkpt>
<trkpt lat="46.25766693614423274993896484375" lon="7.41959958337247371673583984375"><ele></ele><time>2020-9-19T15:19:9Z</time></trkpt>
<trkpt lat="46.2576306425034999847412109375" lon="7.419630177319049835205078125"><ele></ele><time>2020-9-19T15:19:12Z</time></trkpt>
<trkpt lat="46.25759015791118144989013671875" lon="7.41964400745928287506103515625"><ele></ele><time>2020-9-19T15:19:15Z</time></trkpt>
<trkpt lat="46.2575505115091800689697265625" lon="7.419630847871303558349609375"><ele></ele><time>2020-9-19T15:19:18Z</time></trkpt>
<trkpt lat="46.2575126253068447113037109375" lon="7.41960193030536174774169921875"><ele></ele><time>2020-9-19T15:19:21Z</time></trkpt>
<trkpt lat="46.25747901387512683868408203125" lon="7.41956613957881927490234375"><ele></ele><time>2020-9-19T15:19:24Z</time></trkpt>
<trkpt lat="46.2574505992233753204345703125" lon="7.419529259204864501953125"><ele></ele><time>2020-9-19T15:19:27Z</time></trkpt>
<trkpt lat="46.2574271298944950103759765625" lon="7.4194984138011932373046875"><ele></ele><time>2020-9-19T15:19:30Z</time></trkpt>
<trkpt lat="46.257405839860439300537109375" lon="7.41948374547064304351806640625"><ele></ele><time>2020-9-19T15:19:33Z</time></trkpt>
<trkpt lat="46.2573932670056819915771484375" lon="7.419491708278656005859375"><ele></ele><time>2020-9-19T15:19:36Z</time></trkpt>
<trkpt lat="46.2573966197669506072998046875" lon="7.4195145070552825927734375"><ele></ele><time>2020-9-19T15:19:39Z</time></trkpt>
<trkpt lat="46.2574130482971668243408203125" lon="7.41953906603157520294189453125"><ele></ele><time>2020-9-19T15:19:42Z</time></trkpt>
<trkpt lat="46.25744263641536235809326171875" lon="7.4195971526205539703369140625"><ele></ele><time>2020-9-19T15:19:45Z</time></trkpt>
<trkpt lat="46.25743475742638111114501953125" lon="7.41961869411170482635498046875"><ele></ele><time>2020-9-19T15:19:48Z</time></trkpt>
<trkpt lat="46.25741581432521343231201171875" lon="7.41960913874208927154541015625"><ele></ele><time>2020-9-19T15:19:51Z</time></trkpt>
<trkpt lat="46.25739050097763538360595703125" lon="7.419575862586498260498046875"><ele></ele><time>2020-9-19T15:19:54Z</time></trkpt>
<trkpt lat="46.25735848210752010345458984375" lon="7.41952649317681789398193359375"><ele></ele><time>2020-9-19T15:19:57Z</time></trkpt>
<trkpt lat="46.2573242001235485076904296875" lon="7.4194684065878391265869140625"><ele></ele><time>2020-9-19T15:20:0Z</time></trkpt>
<trkpt lat="46.25728924758732318878173828125" lon="7.41941417567431926727294921875"><ele></ele><time>2020-9-19T15:20:3Z</time></trkpt>
<trkpt lat="46.2572531215846538543701171875" lon="7.41936740465462207794189453125"><ele></ele><time>2020-9-19T15:20:6Z</time></trkpt>
<trkpt lat="46.25721733085811138153076171875" lon="7.419335804879665374755859375"><ele></ele><time>2020-9-19T15:20:9Z</time></trkpt>
<trkpt lat="46.257182545959949493408203125" lon="7.41931292228400707244873046875"><ele></ele><time>2020-9-19T15:20:12Z</time></trkpt>
<trkpt lat="46.25715211965143680572509765625" lon="7.41929062642157077789306640625"><ele></ele><time>2020-9-19T15:20:15Z</time></trkpt>
<trkpt lat="46.25712412409484386444091796875" lon="7.41926045157015323638916015625"><ele></ele><time>2020-9-19T15:20:18Z</time></trkpt>
<trkpt lat="46.257084645330905914306640625" lon="7.4192300252616405487060546875"><ele></ele><time>2020-9-19T15:20:21Z</time></trkpt>
<trkpt lat="46.25704047270119190216064453125" lon="7.41920161060988903045654296875"><ele></ele><time>2020-9-19T15:20:24Z</time></trkpt>
<trkpt lat="46.25699839554727077484130859375" lon="7.4191643111407756805419921875"><ele></ele><time>2020-9-19T15:20:27Z</time></trkpt>
<trkpt lat="46.25696235336363315582275390625" lon="7.419121563434600830078125"><ele></ele><time>2020-9-19T15:20:30Z</time></trkpt>
<trkpt lat="46.25693142414093017578125" lon="7.41906850598752498626708984375"><ele></ele><time>2020-9-19T15:20:33Z</time></trkpt>
<trkpt lat="46.256910972297191619873046875" lon="7.419006563723087310791015625"><ele></ele><time>2020-9-19T15:20:36Z</time></trkpt>
<trkpt lat="46.25689856708049774169921875" lon="7.41894428618252277374267578125"><ele></ele><time>2020-9-19T15:20:39Z</time></trkpt>
<trkpt lat="46.256894208490848541259765625" lon="7.418889217078685760498046875"><ele></ele><time>2020-9-19T15:20:42Z</time></trkpt>
<trkpt lat="46.25689010135829448699951171875" lon="7.4188357405364513397216796875"><ele></ele><time>2020-9-19T15:20:45Z</time></trkpt>
<trkpt lat="46.25688113272190093994140625" lon="7.41879022680222988128662109375"><ele></ele><time>2020-9-19T15:20:48Z</time></trkpt>
<trkpt lat="46.25686906278133392333984375" lon="7.41875343024730682373046875"><ele></ele><time>2020-9-19T15:20:51Z</time></trkpt>
<trkpt lat="46.25685942359268665313720703125" lon="7.418722920119762420654296875"><ele></ele><time>2020-9-19T15:20:54Z</time></trkpt>
<trkpt lat="46.256859004497528076171875" lon="7.4186972714960575103759765625"><ele></ele><time>2020-9-19T15:20:57Z</time></trkpt>
<trkpt lat="46.256854645907878875732421875" lon="7.41867254488170146942138671875"><ele></ele><time>2020-9-19T15:21:0Z</time></trkpt>
<trkpt lat="46.2568427436053752899169921875" lon="7.41864471696317195892333984375"><ele></ele><time>2020-9-19T15:21:3Z</time></trkpt>
<trkpt lat="46.25680812634527683258056640625" lon="7.41858218796551227569580078125"><ele></ele><time>2020-9-19T15:21:6Z</time></trkpt>
<trkpt lat="46.2567874230444431304931640625" lon="7.418557964265346527099609375"><ele></ele><time>2020-9-19T15:21:9Z</time></trkpt>
<trkpt lat="46.256766803562641143798828125" lon="7.418551258742809295654296875"><ele></ele><time>2020-9-19T15:21:12Z</time></trkpt>
<trkpt lat="46.25675213523209095001220703125" lon="7.41855938918888568878173828125"><ele></ele><time>2020-9-19T15:21:15Z</time></trkpt>
<trkpt lat="46.2567398138344287872314453125" lon="7.4185624904930591583251953125"><ele></ele><time>2020-9-19T15:21:18Z</time></trkpt>
<trkpt lat="46.256721206009387969970703125" lon="7.41855486296117305755615234375"><ele></ele><time>2020-9-19T15:21:21Z</time></trkpt>
<trkpt lat="46.2566886842250823974609375" lon="7.41853994317352771759033203125"><ele></ele><time>2020-9-19T15:21:24Z</time></trkpt>
<trkpt lat="46.256645433604717254638671875" lon="7.4185239337384700775146484375"><ele></ele><time>2020-9-19T15:21:27Z</time></trkpt>
<trkpt lat="46.256601177155971527099609375" lon="7.41851513274013996124267578125"><ele></ele><time>2020-9-19T15:21:30Z</time></trkpt>
<trkpt lat="46.25656371004879474639892578125" lon="7.41851597093045711517333984375"><ele></ele><time>2020-9-19T15:21:33Z</time></trkpt>
<trkpt lat="46.25653319992125034332275390625" lon="7.41851999424397945404052734375"><ele></ele><time>2020-9-19T15:21:36Z</time></trkpt>
<trkpt lat="46.25651098787784576416015625" lon="7.41852552630007266998291015625"><ele></ele><time>2020-9-19T15:21:39Z</time></trkpt>
<trkpt lat="46.2564950622618198394775390625" lon="7.41852954961359500885009765625"><ele></ele><time>2020-9-19T15:21:42Z</time></trkpt>
<trkpt lat="46.2564826570451259613037109375" lon="7.418525107204914093017578125"><ele></ele><time>2020-9-19T15:21:45Z</time></trkpt>
<trkpt lat="46.25646681524813175201416015625" lon="7.41851915605366230010986328125"><ele></ele><time>2020-9-19T15:21:48Z</time></trkpt>
<trkpt lat="46.25644125044345855712890625" lon="7.41852452047169208526611328125"><ele></ele><time>2020-9-19T15:21:51Z</time></trkpt>
<trkpt lat="46.2564099021255970001220703125" lon="7.4185363389551639556884765625"><ele></ele><time>2020-9-19T15:21:54Z</time></trkpt>
<trkpt lat="46.25638131983578205108642578125" lon="7.418547235429286956787109375"><ele></ele><time>2020-9-19T15:21:57Z</time></trkpt>
<trkpt lat="46.256353743374347686767578125" lon="7.41855016909539699554443359375"><ele></ele><time>2020-9-19T15:22:0Z</time></trkpt>
<trkpt lat="46.25632566399872303009033203125" lon="7.4185339920222759246826171875"><ele></ele><time>2020-9-19T15:22:3Z</time></trkpt>
<trkpt lat="46.2563022784888744354248046875" lon="7.41849836893379688262939453125"><ele></ele><time>2020-9-19T15:22:6Z</time></trkpt>
<trkpt lat="46.25628761015832424163818359375" lon="7.4184521846473217010498046875"><ele></ele><time>2020-9-19T15:22:9Z</time></trkpt>
<trkpt lat="46.25626615248620510101318359375" lon="7.41842058487236499786376953125"><ele></ele><time>2020-9-19T15:22:12Z</time></trkpt>
<trkpt lat="46.25623128376901149749755859375" lon="7.4184039048850536346435546875"><ele></ele><time>2020-9-19T15:22:15Z</time></trkpt>
<trkpt lat="46.256184764206409454345703125" lon="7.4184012226760387420654296875"><ele></ele><time>2020-9-19T15:22:18Z</time></trkpt>
<trkpt lat="46.2561329640448093414306640625" lon="7.4184099398553371429443359375"><ele></ele><time>2020-9-19T15:22:21Z</time></trkpt>
<trkpt lat="46.2560863606631755828857421875" lon="7.418417818844318389892578125"><ele></ele><time>2020-9-19T15:22:24Z</time></trkpt>
<trkpt lat="46.256044618785381317138671875" lon="7.41841505281627178192138671875"><ele></ele><time>2020-9-19T15:22:27Z</time></trkpt>
<trkpt lat="46.25600262545049190521240234375" lon="7.41839937865734100341796875"><ele></ele><time>2020-9-19T15:22:30Z</time></trkpt>
<trkpt lat="46.2559604644775390625" lon="7.41837817244231700897216796875"><ele></ele><time>2020-9-19T15:22:33Z</time></trkpt>
<trkpt lat="46.25591285526752471923828125" lon="7.41834933869540691375732421875"><ele></ele><time>2020-9-19T15:22:36Z</time></trkpt>
<trkpt lat="46.2558610551059246063232421875" lon="7.4183153919875621795654296875"><ele></ele><time>2020-9-19T15:22:39Z</time></trkpt>
<trkpt lat="46.25580866821110248565673828125" lon="7.41827289573848247528076171875"><ele></ele><time>2020-9-19T15:22:42Z</time></trkpt>
<trkpt lat="46.255758292973041534423828125" lon="7.4182255379855632781982421875"><ele></ele><time>2020-9-19T15:22:45Z</time></trkpt>
<trkpt lat="46.25571462325751781463623046875" lon="7.4181707203388214111328125"><ele></ele><time>2020-9-19T15:22:48Z</time></trkpt>
<trkpt lat="46.2556753121316432952880859375" lon="7.41811498068273067474365234375"><ele></ele><time>2020-9-19T15:22:51Z</time></trkpt>
<trkpt lat="46.2556426227092742919921875" lon="7.41804976947605609893798828125"><ele></ele><time>2020-9-19T15:22:54Z</time></trkpt>
<trkpt lat="46.25561186112463474273681640625" lon="7.4179905094206333160400390625"><ele></ele><time>2020-9-19T15:22:57Z</time></trkpt>
<trkpt lat="46.25558168627321720123291015625" lon="7.41793594323098659515380859375"><ele></ele><time>2020-9-19T15:23:0Z</time></trkpt>
<trkpt lat="46.25555302016437053680419921875" lon="7.4178758449852466583251953125"><ele></ele><time>2020-9-19T15:23:3Z</time></trkpt>
<trkpt lat="46.25551915727555751800537109375" lon="7.417807616293430328369140625"><ele></ele><time>2020-9-19T15:23:6Z</time></trkpt>
<trkpt lat="46.25548680312931537628173828125" lon="7.417732179164886474609375"><ele></ele><time>2020-9-19T15:23:9Z</time></trkpt>
<trkpt lat="46.25545428134500980377197265625" lon="7.41766001097857952117919921875"><ele></ele><time>2020-9-19T15:23:12Z</time></trkpt>
<trkpt lat="46.25541438348591327667236328125" lon="7.4175861664116382598876953125"><ele></ele><time>2020-9-19T15:23:15Z</time></trkpt>
<trkpt lat="46.25537314452230930328369140625" lon="7.41752154193818569183349609375"><ele></ele><time>2020-9-19T15:23:18Z</time></trkpt>
<trkpt lat="46.25532411038875579833984375" lon="7.41747342981398105621337890625"><ele></ele><time>2020-9-19T15:23:21Z</time></trkpt>
<trkpt lat="46.2552699632942676544189453125" lon="7.41743906401097774505615234375"><ele></ele><time>2020-9-19T15:23:24Z</time></trkpt>
<trkpt lat="46.255209781229496002197265625" lon="7.4174277484416961669921875"><ele></ele><time>2020-9-19T15:23:27Z</time></trkpt>
<trkpt lat="46.25515119172632694244384765625" lon="7.417431436479091644287109375"><ele></ele><time>2020-9-19T15:23:30Z</time></trkpt>
<trkpt lat="46.2550939433276653289794921875" lon="7.41744794882833957672119140625"><ele></ele><time>2020-9-19T15:23:33Z</time></trkpt>
<trkpt lat="46.255040131509304046630859375" lon="7.417464293539524078369140625"><ele></ele><time>2020-9-19T15:23:36Z</time></trkpt>
<trkpt lat="46.2547977268695831298828125" lon="7.41750980727374553680419921875"><ele></ele><time>2020-9-19T15:23:39Z</time></trkpt>
<trkpt lat="46.25474265776574611663818359375" lon="7.417507879436016082763671875"><ele></ele><time>2020-9-19T15:23:42Z</time></trkpt>
<trkpt lat="46.25469722785055637359619140625" lon="7.41751517169177532196044921875"><ele></ele><time>2020-9-19T15:23:45Z</time></trkpt>
<trkpt lat="46.25465892255306243896484375" lon="7.41754098795354366302490234375"><ele></ele><time>2020-9-19T15:23:48Z</time></trkpt>
<trkpt lat="46.2546272389590740203857421875" lon="7.41758775897324085235595703125"><ele></ele><time>2020-9-19T15:23:51Z</time></trkpt>
<trkpt lat="46.2546051107347011566162109375" lon="7.41764643229544162750244140625"><ele></ele><time>2020-9-19T15:23:54Z</time></trkpt>
<trkpt lat="46.2545930407941341400146484375" lon="7.41771449334919452667236328125"><ele></ele><time>2020-9-19T15:23:57Z</time></trkpt>
<trkpt lat="46.25450913794338703155517578125" lon="7.41808078251779079437255859375"><ele></ele><time>2020-9-19T15:24:0Z</time></trkpt>
<trkpt lat="46.2544850818812847137451171875" lon="7.4182476662099361419677734375"><ele></ele><time>2020-9-19T15:24:3Z</time></trkpt>
<trkpt lat="46.254466138780117034912109375" lon="7.41842041723430156707763671875"><ele></ele><time>2020-9-19T15:24:6Z</time></trkpt>
<trkpt lat="46.25446152873337268829345703125" lon="7.41850540973246097564697265625"><ele></ele><time>2020-9-19T15:24:9Z</time></trkpt>
<trkpt lat="46.25445314683020114898681640625" lon="7.4185891449451446533203125"><ele></ele><time>2020-9-19T15:24:12Z</time></trkpt>
<trkpt lat="46.2544059567153453826904296875" lon="7.41904352791607379913330078125"><ele></ele><time>2020-9-19T15:24:15Z</time></trkpt>
<trkpt lat="46.25440268777310848236083984375" lon="7.4191381596028804779052734375"><ele></ele><time>2020-9-19T15:24:18Z</time></trkpt>
<trkpt lat="46.25439916737377643585205078125" lon="7.41923044435679912567138671875"><ele></ele><time>2020-9-19T15:24:21Z</time></trkpt>
<trkpt lat="46.25438860617578029632568359375" lon="7.41931560449302196502685546875"><ele></ele><time>2020-9-19T15:24:24Z</time></trkpt>
<trkpt lat="46.25436614267528057098388671875" lon="7.41938349790871143341064453125"><ele></ele><time>2020-9-19T15:24:27Z</time></trkpt>
<trkpt lat="46.25432641245424747467041015625" lon="7.41943043656647205352783203125"><ele></ele><time>2020-9-19T15:24:30Z</time></trkpt>
<trkpt lat="46.25427360646426677703857421875" lon="7.41945390589535236358642578125"><ele></ele><time>2020-9-19T15:24:33Z</time></trkpt>
<trkpt lat="46.25421493314206600189208984375" lon="7.41945206187665462493896484375"><ele></ele><time>2020-9-19T15:24:36Z</time></trkpt>
<trkpt lat="46.25415558926761150360107421875" lon="7.4194419197738170623779296875"><ele></ele><time>2020-9-19T15:24:39Z</time></trkpt>
<trkpt lat="46.253974623978137969970703125" lon="7.4194047041237354278564453125"><ele></ele><time>2020-9-19T15:24:42Z</time></trkpt>
<trkpt lat="46.25379583798348903656005859375" lon="7.4193762056529521942138671875"><ele></ele><time>2020-9-19T15:24:45Z</time></trkpt>
<trkpt lat="46.2537387572228908538818359375" lon="7.41936899721622467041015625"><ele></ele><time>2020-9-19T15:24:48Z</time></trkpt>
<trkpt lat="46.25368905253708362579345703125" lon="7.41936354897916316986083984375"><ele></ele><time>2020-9-19T15:24:51Z</time></trkpt>
<trkpt lat="46.2536539323627948760986328125" lon="7.41935902275145053863525390625"><ele></ele><time>2020-9-19T15:24:54Z</time></trkpt>
<trkpt lat="46.2536336481571197509765625" lon="7.41935365833342075347900390625"><ele></ele><time>2020-9-19T15:24:57Z</time></trkpt>
<trkpt lat="46.25362250022590160369873046875" lon="7.4193490482866764068603515625"><ele></ele><time>2020-9-19T15:25:0Z</time></trkpt>
<trkpt lat="46.253607831895351409912109375" lon="7.4193510599434375762939453125"><ele></ele><time>2020-9-19T15:25:3Z</time></trkpt>
<trkpt lat="46.2535853683948516845703125" lon="7.41936472244560718536376953125"><ele></ele><time>2020-9-19T15:25:6Z</time></trkpt>
<trkpt lat="46.25356256961822509765625" lon="7.41939590312540531158447265625"><ele></ele><time>2020-9-19T15:25:9Z</time></trkpt>
<trkpt lat="46.25354312360286712646484375" lon="7.41943873465061187744140625"><ele></ele><time>2020-9-19T15:25:12Z</time></trkpt>
<trkpt lat="46.2535312213003635406494140625" lon="7.419500090181827545166015625"><ele></ele><time>2020-9-19T15:25:15Z</time></trkpt>
<trkpt lat="46.2535278685390949249267578125" lon="7.419574521481990814208984375"><ele></ele><time>2020-9-19T15:25:18Z</time></trkpt>
<trkpt lat="46.25352996401488780975341796875" lon="7.41965490393340587615966796875"><ele></ele><time>2020-9-19T15:25:21Z</time></trkpt>
<trkpt lat="46.25354957766830921173095703125" lon="7.42021162994205951690673828125"><ele></ele><time>2020-9-19T15:25:24Z</time></trkpt>
<trkpt lat="46.253552846610546112060546875" lon="7.42031204514205455780029296875"><ele></ele><time>2020-9-19T15:25:27Z</time></trkpt>
<trkpt lat="46.2535719573497772216796875" lon="7.4208249337971210479736328125"><ele></ele><time>2020-9-19T15:25:30Z</time></trkpt>
<trkpt lat="46.2535805068910121917724609375" lon="7.42113883607089519500732421875"><ele></ele><time>2020-9-19T15:25:33Z</time></trkpt>
<trkpt lat="46.25358830206096172332763671875" lon="7.421350143849849700927734375"><ele></ele><time>2020-9-19T15:25:36Z</time></trkpt>
<trkpt lat="46.25359140336513519287109375" lon="7.42145550437271595001220703125"><ele></ele><time>2020-9-19T15:25:39Z</time></trkpt>
<trkpt lat="46.253595091402530670166015625" lon="7.42156027816236019134521484375"><ele></ele><time>2020-9-19T15:25:42Z</time></trkpt>
<trkpt lat="46.25360053963959217071533203125" lon="7.42166387848556041717529296875"><ele></ele><time>2020-9-19T15:25:45Z</time></trkpt>
<trkpt lat="46.25365535728633403778076171875" lon="7.42229453288018703460693359375"><ele></ele><time>2020-9-19T15:25:48Z</time></trkpt>
<trkpt lat="46.25377102755010128021240234375" lon="7.42294429801404476165771484375"><ele></ele><time>2020-9-19T15:25:51Z</time></trkpt>
<trkpt lat="46.25379634089767932891845703125" lon="7.4230538494884967803955078125"><ele></ele><time>2020-9-19T15:25:54Z</time></trkpt>
<trkpt lat="46.2539593689143657684326171875" lon="7.42371861822903156280517578125"><ele></ele><time>2020-9-19T15:25:57Z</time></trkpt>
<trkpt lat="46.2540398351848125457763671875" lon="7.42405540309846401214599609375"><ele></ele><time>2020-9-19T15:26:0Z</time></trkpt>
<trkpt lat="46.25406623817980289459228515625" lon="7.42416738532483577728271484375"><ele></ele><time>2020-9-19T15:26:3Z</time></trkpt>
<trkpt lat="46.25409088097512722015380859375" lon="7.4242799542844295501708984375"><ele></ele><time>2020-9-19T15:26:6Z</time></trkpt>
<trkpt lat="46.2541146017611026763916015625" lon="7.42439235560595989227294921875"><ele></ele><time>2020-9-19T15:26:9Z</time></trkpt>
<trkpt lat="46.2541377358138561248779296875" lon="7.4245042540132999420166015625"><ele></ele><time>2020-9-19T15:26:12Z</time></trkpt>
<trkpt lat="46.2541605345904827117919921875" lon="7.42461665533483028411865234375"><ele></ele><time>2020-9-19T15:26:15Z</time></trkpt>
<trkpt lat="46.25418174080550670623779296875" lon="7.42472897283732891082763671875"><ele></ele><time>2020-9-19T15:26:18Z</time></trkpt>
<trkpt lat="46.25420068390667438507080078125" lon="7.42484212853014469146728515625"><ele></ele><time>2020-9-19T15:26:21Z</time></trkpt>
<trkpt lat="46.25421761535108089447021484375" lon="7.42495578713715076446533203125"><ele></ele><time>2020-9-19T15:26:24Z</time></trkpt>
<trkpt lat="46.2542326189577579498291015625" lon="7.4250691942870616912841796875"><ele></ele><time>2020-9-19T15:26:27Z</time></trkpt>
<trkpt lat="46.254246868193149566650390625" lon="7.42518176324665546417236328125"><ele></ele><time>2020-9-19T15:26:30Z</time></trkpt>
<trkpt lat="46.25426036305725574493408203125" lon="7.42529290728271007537841796875"><ele></ele><time>2020-9-19T15:26:33Z</time></trkpt>
<trkpt lat="46.25427427701652050018310546875" lon="7.42540136910974979400634765625"><ele></ele><time>2020-9-19T15:26:36Z</time></trkpt>
<trkpt lat="46.2542879395186901092529296875" lon="7.42550723254680633544921875"><ele></ele><time>2020-9-19T15:26:39Z</time></trkpt>
<trkpt lat="46.254300512373447418212890625" lon="7.42561125196516513824462890625"><ele></ele><time>2020-9-19T15:26:42Z</time></trkpt>
<trkpt lat="46.2543134205043315887451171875" lon="7.425712756812572479248046875"><ele></ele><time>2020-9-19T15:26:45Z</time></trkpt>
<trkpt lat="46.25432632863521575927734375" lon="7.425811998546123504638671875"><ele></ele><time>2020-9-19T15:26:48Z</time></trkpt>
<trkpt lat="46.2543378956615924835205078125" lon="7.42590956389904022216796875"><ele></ele><time>2020-9-19T15:26:51Z</time></trkpt>
<trkpt lat="46.25434787012636661529541015625" lon="7.4260062910616397857666015625"><ele></ele><time>2020-9-19T15:26:54Z</time></trkpt>
<trkpt lat="46.25435826368629932403564453125" lon="7.42610109038650989532470703125"><ele></ele><time>2020-9-19T15:26:57Z</time></trkpt>
<trkpt lat="46.25436983071267604827880859375" lon="7.4261947162449359893798828125"><ele></ele><time>2020-9-19T15:27:0Z</time></trkpt>
<trkpt lat="46.25437997281551361083984375" lon="7.426284067332744598388671875"><ele></ele><time>2020-9-19T15:27:3Z</time></trkpt>
<trkpt lat="46.25437972135841846466064453125" lon="7.4263670481741428375244140625"><ele></ele><time>2020-9-19T15:27:6Z</time></trkpt>
<trkpt lat="46.25436815433204174041748046875" lon="7.4264448322355747222900390625"><ele></ele><time>2020-9-19T15:27:9Z</time></trkpt>
<trkpt lat="46.254353821277618408203125" lon="7.4265209399163722991943359375"><ele></ele><time>2020-9-19T15:27:12Z</time></trkpt>
<trkpt lat="46.2543412484228610992431640625" lon="7.426595874130725860595703125"><ele></ele><time>2020-9-19T15:27:15Z</time></trkpt>
<trkpt lat="46.254333369433879852294921875" lon="7.42666737176477909088134765625"><ele></ele><time>2020-9-19T15:27:18Z</time></trkpt>
<trkpt lat="46.25433303415775299072265625" lon="7.42673174478113651275634765625"><ele></ele><time>2020-9-19T15:27:21Z</time></trkpt>
<trkpt lat="46.25433965586125850677490234375" lon="7.42678957991302013397216796875"><ele></ele><time>2020-9-19T15:27:24Z</time></trkpt>
<trkpt lat="46.25434937886893749237060546875" lon="7.4268451519310474395751953125"><ele></ele><time>2020-9-19T15:27:27Z</time></trkpt>
<trkpt lat="46.2543583475053310394287109375" lon="7.42689971812069416046142578125"><ele></ele><time>2020-9-19T15:27:30Z</time></trkpt>
<trkpt lat="46.2543632090091705322265625" lon="7.426954619586467742919921875"><ele></ele><time>2020-9-19T15:27:33Z</time></trkpt>
<trkpt lat="46.25436798669397830963134765625" lon="7.42700935341417789459228515625"><ele></ele><time>2020-9-19T15:27:36Z</time></trkpt>
<trkpt lat="46.254369579255580902099609375" lon="7.42706417106091976165771484375"><ele></ele><time>2020-9-19T15:27:39Z</time></trkpt>
<trkpt lat="46.25437066890299320220947265625" lon="7.42711697705090045928955078125"><ele></ele><time>2020-9-19T15:27:42Z</time></trkpt>
<trkpt lat="46.25437066890299320220947265625" lon="7.427161820232868194580078125"><ele></ele><time>2020-9-19T15:27:45Z</time></trkpt>
<trkpt lat="46.25436781905591487884521484375" lon="7.42719526402652263641357421875"><ele></ele><time>2020-9-19T15:27:48Z</time></trkpt>
<trkpt lat="46.25437083654105663299560546875" lon="7.427222169935703277587890625"><ele></ele><time>2020-9-19T15:27:51Z</time></trkpt>
<trkpt lat="46.25438458286225795745849609375" lon="7.4272357486188411712646484375"><ele></ele><time>2020-9-19T15:27:54Z</time></trkpt>
<trkpt lat="46.25439028255641460418701171875" lon="7.42722560651600360870361328125"><ele></ele><time>2020-9-19T15:27:57Z</time></trkpt>
<trkpt lat="46.254383660852909088134765625" lon="7.42720230482518672943115234375"><ele></ele><time>2020-9-19T15:28:0Z</time></trkpt>
<trkpt lat="46.25437184236943721771240234375" lon="7.42717958986759185791015625"><ele></ele><time>2020-9-19T15:28:3Z</time></trkpt>
<trkpt lat="46.25435851514339447021484375" lon="7.42715821601450443267822265625"><ele></ele><time>2020-9-19T15:28:6Z</time></trkpt>
<trkpt lat="46.25435071997344493865966796875" lon="7.4271319806575775146484375"><ele></ele><time>2020-9-19T15:28:9Z</time></trkpt>
<trkpt lat="46.25434669665992259979248046875" lon="7.42710289545357227325439453125"><ele></ele><time>2020-9-19T15:28:12Z</time></trkpt>
<trkpt lat="46.2543459422886371612548828125" lon="7.42706651799380779266357421875"><ele></ele><time>2020-9-19T15:28:15Z</time></trkpt>
<trkpt lat="46.2543405778706073760986328125" lon="7.42689787410199642181396484375"><ele></ele><time>2020-9-19T15:28:18Z</time></trkpt>
<trkpt lat="46.2543315254151821136474609375" lon="7.426713220775127410888671875"><ele></ele><time>2020-9-19T15:28:21Z</time></trkpt>
<trkpt lat="46.25431886874139308929443359375" lon="7.42665831930935382843017578125"><ele></ele><time>2020-9-19T15:28:24Z</time></trkpt>
<trkpt lat="46.254297159612178802490234375" lon="7.42660853080451488494873046875"><ele></ele><time>2020-9-19T15:28:27Z</time></trkpt>
<trkpt lat="46.25426036305725574493408203125" lon="7.42657349444925785064697265625"><ele></ele><time>2020-9-19T15:28:30Z</time></trkpt>
<trkpt lat="46.25421359203755855560302734375" lon="7.42656041868031024932861328125"><ele></ele><time>2020-9-19T15:28:33Z</time></trkpt>
<trkpt lat="46.2541685812175273895263671875" lon="7.42657483555376529693603515625"><ele></ele><time>2020-9-19T15:28:36Z</time></trkpt>
<trkpt lat="46.25413094647228717803955078125" lon="7.42661104537546634674072265625"><ele></ele><time>2020-9-19T15:28:39Z</time></trkpt>
<trkpt lat="46.25409431755542755126953125" lon="7.4266476742923259735107421875"><ele></ele><time>2020-9-19T15:28:42Z</time></trkpt>
<trkpt lat="46.25405735336244106292724609375" lon="7.42668648250401020050048828125"><ele></ele><time>2020-9-19T15:28:45Z</time></trkpt>
<trkpt lat="46.254037320613861083984375" lon="7.42673492990434169769287109375"><ele></ele><time>2020-9-19T15:28:48Z</time></trkpt>
<trkpt lat="46.2540381588041782379150390625" lon="7.42679460905492305755615234375"><ele></ele><time>2020-9-19T15:28:51Z</time></trkpt>
<trkpt lat="46.25404746271669864654541015625" lon="7.42685931734740734100341796875"><ele></ele><time>2020-9-19T15:28:54Z</time></trkpt>
<trkpt lat="46.25406053848564624786376953125" lon="7.426925785839557647705078125"><ele></ele><time>2020-9-19T15:28:57Z</time></trkpt>
<trkpt lat="46.25408132560551166534423828125" lon="7.42699317634105682373046875"><ele></ele><time>2020-9-19T15:29:0Z</time></trkpt>
<trkpt lat="46.25410311855375766754150390625" lon="7.42704891599714756011962890625"><ele></ele><time>2020-9-19T15:29:3Z</time></trkpt>
<trkpt lat="46.254118792712688446044921875" lon="7.4270971119403839111328125"><ele></ele><time>2020-9-19T15:29:6Z</time></trkpt>
<trkpt lat="46.25412206165492534637451171875" lon="7.4271368421614170074462890625"><ele></ele><time>2020-9-19T15:29:9Z</time></trkpt>
<trkpt lat="46.25411652959883213043212890625" lon="7.4271710403263568878173828125"><ele></ele><time>2020-9-19T15:29:12Z</time></trkpt>
<trkpt lat="46.254110746085643768310546875" lon="7.4272035621106624603271484375"><ele></ele><time>2020-9-19T15:29:15Z</time></trkpt>
<trkpt lat="46.2540733627974987030029296875" lon="7.42726382799446582794189453125"><ele></ele><time>2020-9-19T15:29:18Z</time></trkpt>
<trkpt lat="46.2540508992969989776611328125" lon="7.4272722937166690826416015625"><ele></ele><time>2020-9-19T15:29:21Z</time></trkpt>
<trkpt lat="46.25403069891035556793212890625" lon="7.427285872399806976318359375"><ele></ele><time>2020-9-19T15:29:24Z</time></trkpt>
<trkpt lat="46.2540103308856487274169921875" lon="7.4272954277694225311279296875"><ele></ele><time>2020-9-19T15:29:27Z</time></trkpt>
<trkpt lat="46.25399147160351276397705078125" lon="7.4273001216351985931396484375"><ele></ele><time>2020-9-19T15:29:30Z</time></trkpt>
<trkpt lat="46.25397604890167713165283203125" lon="7.42731261067092418670654296875"><ele></ele><time>2020-9-19T15:29:33Z</time></trkpt>
<trkpt lat="46.253971271216869354248046875" lon="7.42733507417142391204833984375"><ele></ele><time>2020-9-19T15:29:36Z</time></trkpt>
<trkpt lat="46.253971941769123077392578125" lon="7.4273732118308544158935546875"><ele></ele><time>2020-9-19T15:29:39Z</time></trkpt>
<trkpt lat="46.25398040749132633209228515625" lon="7.42747907526791095733642578125"><ele></ele><time>2020-9-19T15:29:42Z</time></trkpt>
<trkpt lat="46.25399373471736907958984375" lon="7.42753900587558746337890625"><ele></ele><time>2020-9-19T15:29:45Z</time></trkpt>
<trkpt lat="46.25401242636144161224365234375" lon="7.4276008643209934234619140625"><ele></ele><time>2020-9-19T15:29:48Z</time></trkpt>
<trkpt lat="46.254152990877628326416015625" lon="7.4280036985874176025390625"><ele></ele><time>2020-9-19T15:29:51Z</time></trkpt>
<trkpt lat="46.25424728728830814361572265625" lon="7.42829664610326290130615234375"><ele></ele><time>2020-9-19T15:29:54Z</time></trkpt>
<trkpt lat="46.2542725168168544769287109375" lon="7.42836772464215755462646484375"><ele></ele><time>2020-9-19T15:29:57Z</time></trkpt>
<trkpt lat="46.25429824925959110260009765625" lon="7.4284355342388153076171875"><ele></ele><time>2020-9-19T15:30:0Z</time></trkpt>
<trkpt lat="46.25431652180850505828857421875" lon="7.42850602604448795318603515625"><ele></ele><time>2020-9-19T15:30:3Z</time></trkpt>
<trkpt lat="46.254312582314014434814453125" lon="7.42857743985950946807861328125"><ele></ele><time>2020-9-19T15:30:6Z</time></trkpt>
<trkpt lat="46.2542865984141826629638671875" lon="7.42863929830491542816162109375"><ele></ele><time>2020-9-19T15:30:9Z</time></trkpt>
<trkpt lat="46.25424494035542011260986328125" lon="7.428691685199737548828125"><ele></ele><time>2020-9-19T15:30:12Z</time></trkpt>
<trkpt lat="46.2541943974792957305908203125" lon="7.428734600543975830078125"><ele></ele><time>2020-9-19T15:30:15Z</time></trkpt>
<trkpt lat="46.25372576527297496795654296875" lon="7.42915847338736057281494140625"><ele></ele><time>2020-9-19T15:30:18Z</time></trkpt>
<trkpt lat="46.2535654194653034210205078125" lon="7.4293077550828456878662109375"><ele></ele><time>2020-9-19T15:30:21Z</time></trkpt>
<trkpt lat="46.25345863401889801025390625" lon="7.4294053204357624053955078125"><ele></ele><time>2020-9-19T15:30:24Z</time></trkpt>
<trkpt lat="46.25340557657182216644287109375" lon="7.42945536039769649505615234375"><ele></ele><time>2020-9-19T15:30:27Z</time></trkpt>
<trkpt lat="46.2533525191247463226318359375" lon="7.42950498126447200775146484375"><ele></ele><time>2020-9-19T15:30:30Z</time></trkpt>
<trkpt lat="46.253300048410892486572265625" lon="7.42955426685512065887451171875"><ele></ele><time>2020-9-19T15:30:33Z</time></trkpt>
<trkpt lat="46.25324808061122894287109375" lon="7.429603971540927886962890625"><ele></ele><time>2020-9-19T15:30:36Z</time></trkpt>
<trkpt lat="46.25319619663059711456298828125" lon="7.42965267039835453033447265625"><ele></ele><time>2020-9-19T15:30:39Z</time></trkpt>
<trkpt lat="46.253144480288028717041015625" lon="7.42969927377998828887939453125"><ele></ele><time>2020-9-19T15:30:42Z</time></trkpt>
<trkpt lat="46.253091506659984588623046875" lon="7.42974202148616313934326171875"><ele></ele><time>2020-9-19T15:30:45Z</time></trkpt>
<trkpt lat="46.25303895212709903717041015625" lon="7.4297848530113697052001953125"><ele></ele><time>2020-9-19T15:30:48Z</time></trkpt>
<trkpt lat="46.25298899598419666290283203125" lon="7.42983204312622547149658203125"><ele></ele><time>2020-9-19T15:30:51Z</time></trkpt>
<trkpt lat="46.25294071622192859649658203125" lon="7.42988082580268383026123046875"><ele></ele><time>2020-9-19T15:30:54Z</time></trkpt>
<trkpt lat="46.25289293937385082244873046875" lon="7.42992893792688846588134765625"><ele></ele><time>2020-9-19T15:30:57Z</time></trkpt>
<trkpt lat="46.252845413982868194580078125" lon="7.4299742840230464935302734375"><ele></ele><time>2020-9-19T15:31:0Z</time></trkpt>
<trkpt lat="46.25279973261058330535888671875" lon="7.43001828901469707489013671875"><ele></ele><time>2020-9-19T15:31:3Z</time></trkpt>
<trkpt lat="46.2527597509324550628662109375" lon="7.4300555884838104248046875"><ele></ele><time>2020-9-19T15:31:6Z</time></trkpt>
<trkpt lat="46.25272907316684722900390625" lon="7.430081404745578765869140625"><ele></ele><time>2020-9-19T15:31:9Z</time></trkpt>
<trkpt lat="46.252706944942474365234375" lon="7.4300956539809703826904296875"><ele></ele><time>2020-9-19T15:31:12Z</time></trkpt>
<trkpt lat="46.25269546173512935638427734375" lon="7.43011568672955036163330078125"><ele></ele><time>2020-9-19T15:31:15Z</time></trkpt>
<trkpt lat="46.252693869173526763916015625" lon="7.43014686740934848785400390625"><ele></ele><time>2020-9-19T15:31:18Z</time></trkpt>
<trkpt lat="46.25270015560090541839599609375" lon="7.43018324486911296844482421875"><ele></ele><time>2020-9-19T15:31:21Z</time></trkpt>
<trkpt lat="46.2527131475508213043212890625" lon="7.43021853268146514892578125"><ele></ele><time>2020-9-19T15:31:24Z</time></trkpt>
<trkpt lat="46.25272781588137149810791015625" lon="7.43024937808513641357421875"><ele></ele><time>2020-9-19T15:31:27Z</time></trkpt>
<trkpt lat="46.25274390913546085357666015625" lon="7.4302783794701099395751953125"><ele></ele><time>2020-9-19T15:31:30Z</time></trkpt>
<trkpt lat="46.2527889199554920196533203125" lon="7.43036915548145771026611328125"><ele></ele><time>2020-9-19T15:31:33Z</time></trkpt>
<trkpt lat="46.25280375592410564422607421875" lon="7.43039865978062152862548828125"><ele></ele><time>2020-9-19T15:31:36Z</time></trkpt>
<trkpt lat="46.2528174184262752532958984375" lon="7.430429756641387939453125"><ele></ele><time>2020-9-19T15:31:39Z</time></trkpt>
<trkpt lat="46.252830661833286285400390625" lon="7.43046018294990062713623046875"><ele></ele><time>2020-9-19T15:31:42Z</time></trkpt>
<trkpt lat="46.25291037373244762420654296875" lon="7.430632598698139190673828125"><ele></ele><time>2020-9-19T15:31:45Z</time></trkpt>
<trkpt lat="46.25305420719087123870849609375" lon="7.4309385381639003753662109375"><ele></ele><time>2020-9-19T15:31:48Z</time></trkpt>
<trkpt lat="46.253215558826923370361328125" lon="7.43128613568842411041259765625"><ele></ele><time>2020-9-19T15:31:51Z</time></trkpt>
<trkpt lat="46.2532402016222476959228515625" lon="7.43133592419326305389404296875"><ele></ele><time>2020-9-19T15:31:54Z</time></trkpt>
<trkpt lat="46.25336609780788421630859375" lon="7.4315871298313140869140625"><ele></ele><time>2020-9-19T15:31:57Z</time></trkpt>
<trkpt lat="46.25339216552674770355224609375" lon="7.431636750698089599609375"><ele></ele><time>2020-9-19T15:32:0Z</time></trkpt>
<trkpt lat="46.25340658240020275115966796875" lon="7.43169332854449748992919921875"><ele></ele><time>2020-9-19T15:32:3Z</time></trkpt>
<trkpt lat="46.25340163707733154296875" lon="7.43175401352345943450927734375"><ele></ele><time>2020-9-19T15:32:6Z</time></trkpt>
<trkpt lat="46.2533773295581340789794921875" lon="7.43181134574115276336669921875"><ele></ele><time>2020-9-19T15:32:9Z</time></trkpt>
<trkpt lat="46.253342963755130767822265625" lon="7.4318635649979114532470703125"><ele></ele><time>2020-9-19T15:32:12Z</time></trkpt>
<trkpt lat="46.2530940212309360504150390625" lon="7.432292886078357696533203125"><ele></ele><time>2020-9-19T15:32:15Z</time></trkpt>
<trkpt lat="46.25299385748803615570068359375" lon="7.4325140006840229034423828125"><ele></ele><time>2020-9-19T15:32:18Z</time></trkpt>
<trkpt lat="46.2528760917484760284423828125" lon="7.43273117579519748687744140625"><ele></ele><time>2020-9-19T15:32:21Z</time></trkpt>
<trkpt lat="46.25262916088104248046875" lon="7.4331765063107013702392578125"><ele></ele><time>2020-9-19T15:32:24Z</time></trkpt>
<trkpt lat="46.2525894306600093841552734375" lon="7.43325185962021350860595703125"><ele></ele><time>2020-9-19T15:32:27Z</time></trkpt>
<trkpt lat="46.25255129300057888031005859375" lon="7.433327548205852508544921875"><ele></ele><time>2020-9-19T15:32:30Z</time></trkpt>
<trkpt lat="46.2525126524269580841064453125" lon="7.433402650058269500732421875"><ele></ele><time>2020-9-19T15:32:33Z</time></trkpt>
<trkpt lat="46.25247149728238582611083984375" lon="7.433475740253925323486328125"><ele></ele><time>2020-9-19T15:32:36Z</time></trkpt>
<trkpt lat="46.25237979926168918609619140625" lon="7.43360892869532108306884765625"><ele></ele><time>2020-9-19T15:32:39Z</time></trkpt>
<trkpt lat="46.25223613344132900238037109375" lon="7.4338026344776153564453125"><ele></ele><time>2020-9-19T15:32:42Z</time></trkpt>
<trkpt lat="46.25218634493649005889892578125" lon="7.4338648281991481781005859375"><ele></ele><time>2020-9-19T15:32:45Z</time></trkpt>
<trkpt lat="46.252087689936161041259765625" lon="7.433990724384784698486328125"><ele></ele><time>2020-9-19T15:32:48Z</time></trkpt>
<trkpt lat="46.25199280679225921630859375" lon="7.4341191351413726806640625"><ele></ele><time>2020-9-19T15:32:51Z</time></trkpt>
<trkpt lat="46.2519453652203083038330078125" lon="7.4341836757957935333251953125"><ele></ele><time>2020-9-19T15:32:54Z</time></trkpt>
<trkpt lat="46.2518977560102939605712890625" lon="7.434247545897960662841796875"><ele></ele><time>2020-9-19T15:32:57Z</time></trkpt>
<trkpt lat="46.25175249762833118438720703125" lon="7.434435300529003143310546875"><ele></ele><time>2020-9-19T15:33:0Z</time></trkpt>
<trkpt lat="46.2517049722373485565185546875" lon="7.43449757806956768035888671875"><ele></ele><time>2020-9-19T15:33:3Z</time></trkpt>
<trkpt lat="46.251415126025676727294921875" lon="7.4348934553563594818115234375"><ele></ele><time>2020-9-19T15:33:6Z</time></trkpt>
<trkpt lat="46.25131714157760143280029296875" lon="7.435024715960025787353515625"><ele></ele><time>2020-9-19T15:33:9Z</time></trkpt>
<trkpt lat="46.25126986764371395111083984375" lon="7.435092441737651824951171875"><ele></ele><time>2020-9-19T15:33:12Z</time></trkpt>
<trkpt lat="46.251226030290126800537109375" lon="7.43516041897237300872802734375"><ele></ele><time>2020-9-19T15:33:15Z</time></trkpt>
<trkpt lat="46.2511909939348697662353515625" lon="7.435236610472202301025390625"><ele></ele><time>2020-9-19T15:33:18Z</time></trkpt>
<trkpt lat="46.251155622303485870361328125" lon="7.43528329767286777496337890625"><ele></ele><time>2020-9-19T15:33:21Z</time></trkpt>
<trkpt lat="46.25111966393887996673583984375" lon="7.435325123369693756103515625"><ele></ele><time>2020-9-19T15:33:24Z</time></trkpt>
<trkpt lat="46.25108261592686176300048828125" lon="7.435353286564350128173828125"><ele></ele><time>2020-9-19T15:33:27Z</time></trkpt>
<trkpt lat="46.25104053877294063568115234375" lon="7.43537868373095989227294921875"><ele></ele><time>2020-9-19T15:33:30Z</time></trkpt>
<trkpt lat="46.250996701419353485107421875" lon="7.43539025075733661651611328125"><ele></ele><time>2020-9-19T15:33:33Z</time></trkpt>
<trkpt lat="46.25096241943538188934326171875" lon="7.43539963848888874053955078125"><ele></ele><time>2020-9-19T15:33:36Z</time></trkpt>
<trkpt lat="46.25094112940132617950439453125" lon="7.43541992269456386566162109375"><ele></ele><time>2020-9-19T15:33:39Z</time></trkpt>
<trkpt lat="46.2509326636791229248046875" lon="7.4354533664882183074951171875"><ele></ele><time>2020-9-19T15:33:42Z</time></trkpt>
<trkpt lat="46.250943057239055633544921875" lon="7.43548781611025333404541015625"><ele></ele><time>2020-9-19T15:33:45Z</time></trkpt>
<trkpt lat="46.25095881521701812744140625" lon="7.4355257861316204071044921875"><ele></ele><time>2020-9-19T15:33:48Z</time></trkpt>
<trkpt lat="46.25097650103271007537841796875" lon="7.4355670250952243804931640625"><ele></ele><time>2020-9-19T15:33:51Z</time></trkpt>
<trkpt lat="46.2509948574006557464599609375" lon="7.43561379611492156982421875"><ele></ele><time>2020-9-19T15:33:54Z</time></trkpt>
<trkpt lat="46.251017153263092041015625" lon="7.435660064220428466796875"><ele></ele><time>2020-9-19T15:33:57Z</time></trkpt>
<trkpt lat="46.25104405917227268218994140625" lon="7.435705326497554779052734375"><ele></ele><time>2020-9-19T15:34:0Z</time></trkpt>
<trkpt lat="46.2510669417679309844970703125" lon="7.43574899621307849884033203125"><ele></ele><time>2020-9-19T15:34:3Z</time></trkpt>
<trkpt lat="46.251091249287128448486328125" lon="7.43579107336699962615966796875"><ele></ele><time>2020-9-19T15:34:6Z</time></trkpt>
<trkpt lat="46.251119077205657958984375" lon="7.435835413634777069091796875"><ele></ele><time>2020-9-19T15:34:9Z</time></trkpt>
<trkpt lat="46.25115017406642436981201171875" lon="7.43588411249220371246337890625"><ele></ele><time>2020-9-19T15:34:12Z</time></trkpt>
<trkpt lat="46.2511836178600788116455078125" lon="7.43593641556799411773681640625"><ele></ele><time>2020-9-19T15:34:15Z</time></trkpt>
<trkpt lat="46.25125142745673656463623046875" lon="7.4360498227179050445556640625"><ele></ele><time>2020-9-19T15:34:18Z</time></trkpt>
<trkpt lat="46.25151830725371837615966796875" lon="7.43645391426980495452880859375"><ele></ele><time>2020-9-19T15:34:21Z</time></trkpt>
<trkpt lat="46.2516291998326778411865234375" lon="7.43664049543440341949462890625"><ele></ele><time>2020-9-19T15:34:24Z</time></trkpt>
<trkpt lat="46.25167219899594783782958984375" lon="7.43670335970818996429443359375"><ele></ele><time>2020-9-19T15:34:27Z</time></trkpt>
<trkpt lat="46.25175719149410724639892578125" lon="7.43682724423706531524658203125"><ele></ele><time>2020-9-19T15:34:30Z</time></trkpt>
<trkpt lat="46.25184335745871067047119140625" lon="7.436950542032718658447265625"><ele></ele><time>2020-9-19T15:34:33Z</time></trkpt>
<trkpt lat="46.2519339658319950103759765625" lon="7.4370761029422283172607421875"><ele></ele><time>2020-9-19T15:34:36Z</time></trkpt>
<trkpt lat="46.25197411514818668365478515625" lon="7.43714123032987117767333984375"><ele></ele><time>2020-9-19T15:34:39Z</time></trkpt>
<trkpt lat="46.25206011347472667694091796875" lon="7.4372732453048229217529296875"><ele></ele><time>2020-9-19T15:34:42Z</time></trkpt>
<trkpt lat="46.25214929692447185516357421875" lon="7.43740207515656948089599609375"><ele></ele><time>2020-9-19T15:34:45Z</time></trkpt>
<trkpt lat="46.2522367201745510101318359375" lon="7.43753266520798206329345703125"><ele></ele><time>2020-9-19T15:34:48Z</time></trkpt>
<trkpt lat="46.25228106044232845306396484375" lon="7.43759670294821262359619140625"><ele></ele><time>2020-9-19T15:34:51Z</time></trkpt>
<trkpt lat="46.25232330523431301116943359375" lon="7.43766208179295063018798828125"><ele></ele><time>2020-9-19T15:34:54Z</time></trkpt>
<trkpt lat="46.25236504711210727691650390625" lon="7.4377285502851009368896484375"><ele></ele><time>2020-9-19T15:34:57Z</time></trkpt>
<trkpt lat="46.2524067051708698272705078125" lon="7.43779367767274379730224609375"><ele></ele><time>2020-9-19T15:35:0Z</time></trkpt>
<trkpt lat="46.25244769267737865447998046875" lon="7.43785880506038665771484375"><ele></ele><time>2020-9-19T15:35:3Z</time></trkpt>
<trkpt lat="46.252490021288394927978515625" lon="7.43792410008609294891357421875"><ele></ele><time>2020-9-19T15:35:6Z</time></trkpt>
<trkpt lat="46.2525331042706966400146484375" lon="7.43798964656889438629150390625"><ele></ele><time>2020-9-19T15:35:9Z</time></trkpt>
<trkpt lat="46.25257484614849090576171875" lon="7.4380554445087909698486328125"><ele></ele><time>2020-9-19T15:35:12Z</time></trkpt>
<trkpt lat="46.25261650420725345611572265625" lon="7.4381209909915924072265625"><ele></ele><time>2020-9-19T15:35:15Z</time></trkpt>
<trkpt lat="46.2527476809918880462646484375" lon="7.43831419385969638824462890625"><ele></ele><time>2020-9-19T15:35:18Z</time></trkpt>
<trkpt lat="46.25279034487903118133544921875" lon="7.4383783154189586639404296875"><ele></ele><time>2020-9-19T15:35:21Z</time></trkpt>
<trkpt lat="46.25283275730907917022705078125" lon="7.4384423531591892242431640625"><ele></ele><time>2020-9-19T15:35:24Z</time></trkpt>
<trkpt lat="46.25287466682493686676025390625" lon="7.43850664235651493072509765625"><ele></ele><time>2020-9-19T15:35:27Z</time></trkpt>
<trkpt lat="46.2529169954359531402587890625" lon="7.43857034482061862945556640625"><ele></ele><time>2020-9-19T15:35:30Z</time></trkpt>
<trkpt lat="46.252959072589874267578125" lon="7.438632957637310028076171875"><ele></ele><time>2020-9-19T15:35:33Z</time></trkpt>
<trkpt lat="46.25300056301057338714599609375" lon="7.43869489990174770355224609375"><ele></ele><time>2020-9-19T15:35:36Z</time></trkpt>
<trkpt lat="46.25304046086966991424560546875" lon="7.4387578479945659637451171875"><ele></ele><time>2020-9-19T15:35:39Z</time></trkpt>
<trkpt lat="46.2530806101858615875244140625" lon="7.4388198740780353546142578125"><ele></ele><time>2020-9-19T15:35:42Z</time></trkpt>
<trkpt lat="46.25316166318953037261962890625" lon="7.438945770263671875"><ele></ele><time>2020-9-19T15:35:45Z</time></trkpt>
<trkpt lat="46.2532016448676586151123046875" lon="7.43900804780423641204833984375"><ele></ele><time>2020-9-19T15:35:48Z</time></trkpt>
<trkpt lat="46.253324188292026519775390625" lon="7.4391957186162471771240234375"><ele></ele><time>2020-9-19T15:35:51Z</time></trkpt>
<trkpt lat="46.25336433760821819305419921875" lon="7.439259253442287445068359375"><ele></ele><time>2020-9-19T15:35:54Z</time></trkpt>
<trkpt lat="46.2534450553357601165771484375" lon="7.43938825093209743499755859375"><ele></ele><time>2020-9-19T15:35:57Z</time></trkpt>
<trkpt lat="46.253485120832920074462890625" lon="7.4394535459578037261962890625"><ele></ele><time>2020-9-19T15:36:0Z</time></trkpt>
<trkpt lat="46.2535255216062068939208984375" lon="7.43951850570738315582275390625"><ele></ele><time>2020-9-19T15:36:3Z</time></trkpt>
<trkpt lat="46.2536039762198925018310546875" lon="7.43964926339685916900634765625"><ele></ele><time>2020-9-19T15:36:6Z</time></trkpt>
<trkpt lat="46.2536428682506084442138671875" lon="7.4397143907845020294189453125"><ele></ele><time>2020-9-19T15:36:9Z</time></trkpt>
<trkpt lat="46.25368201173841953277587890625" lon="7.43978002108633518218994140625"><ele></ele><time>2020-9-19T15:36:12Z</time></trkpt>
<trkpt lat="46.25372174195945262908935546875" lon="7.439845986664295196533203125"><ele></ele><time>2020-9-19T15:36:15Z</time></trkpt>
<trkpt lat="46.254008151590824127197265625" lon="7.44031973183155059814453125"><ele></ele><time>2020-9-19T15:36:18Z</time></trkpt>
<trkpt lat="46.25413128174841403961181640625" lon="7.44052483700215816497802734375"><ele></ele><time>2020-9-19T15:36:21Z</time></trkpt>
<trkpt lat="46.2542148493230342864990234375" lon="7.44066179729998111724853515625"><ele></ele><time>2020-9-19T15:36:24Z</time></trkpt>
<trkpt lat="46.25425734557211399078369140625" lon="7.44073019362986087799072265625"><ele></ele><time>2020-9-19T15:36:27Z</time></trkpt>
<trkpt lat="46.25430009327828884124755859375" lon="7.44079791940748691558837890625"><ele></ele><time>2020-9-19T15:36:30Z</time></trkpt>
<trkpt lat="46.25438525341451168060302734375" lon="7.44093395769596099853515625"><ele></ele><time>2020-9-19T15:36:33Z</time></trkpt>
<trkpt lat="46.25447058118879795074462890625" lon="7.4410709179937839508056640625"><ele></ele><time>2020-9-19T15:36:36Z</time></trkpt>
<trkpt lat="46.25451249070465564727783203125" lon="7.441139481961727142333984375"><ele></ele><time>2020-9-19T15:36:39Z</time></trkpt>
<trkpt lat="46.25455490313470363616943359375" lon="7.44120880030095577239990234375"><ele></ele><time>2020-9-19T15:36:42Z</time></trkpt>
<trkpt lat="46.25459748320281505584716796875" lon="7.4412777833640575408935546875"><ele></ele><time>2020-9-19T15:36:45Z</time></trkpt>
<trkpt lat="46.25464039854705333709716796875" lon="7.4413451738655567169189453125"><ele></ele><time>2020-9-19T15:36:48Z</time></trkpt>
<trkpt lat="46.25477031804621219635009765625" lon="7.44154860265552997589111328125"><ele></ele><time>2020-9-19T15:36:51Z</time></trkpt>
<trkpt lat="46.25481306575238704681396484375" lon="7.44161632843315601348876953125"><ele></ele><time>2020-9-19T15:36:54Z</time></trkpt>
<trkpt lat="46.25490023754537105560302734375" lon="7.4417495168745517730712890625"><ele></ele><time>2020-9-19T15:36:57Z</time></trkpt>
<trkpt lat="46.25498807989060878753662109375" lon="7.44187968783080577850341796875"><ele></ele><time>2020-9-19T15:37:0Z</time></trkpt>
<trkpt lat="46.25503200106322765350341796875" lon="7.44194506667554378509521484375"><ele></ele><time>2020-9-19T15:37:3Z</time></trkpt>
<trkpt lat="46.25507466495037078857421875" lon="7.44200994260609149932861328125"><ele></ele><time>2020-9-19T15:37:6Z</time></trkpt>
<trkpt lat="46.25511758029460906982421875" lon="7.44207498617470264434814453125"><ele></ele><time>2020-9-19T15:37:9Z</time></trkpt>
<trkpt lat="46.25516074709594249725341796875" lon="7.44213835336267948150634765625"><ele></ele><time>2020-9-19T15:37:12Z</time></trkpt>
<trkpt lat="46.255203746259212493896484375" lon="7.44220557622611522674560546875"><ele></ele><time>2020-9-19T15:37:15Z</time></trkpt>
<trkpt lat="46.25524632632732391357421875" lon="7.442272044718265533447265625"><ele></ele><time>2020-9-19T15:37:18Z</time></trkpt>
<trkpt lat="46.2552894093096256256103515625" lon="7.4423399381339550018310546875"><ele></ele><time>2020-9-19T15:37:21Z</time></trkpt>
<trkpt lat="46.25533257611095905303955078125" lon="7.44240741245448589324951171875"><ele></ele><time>2020-9-19T15:37:24Z</time></trkpt>
<trkpt lat="46.25541907735168933868408203125" lon="7.44254202581942081451416015625"><ele></ele><time>2020-9-19T15:37:27Z</time></trkpt>
<trkpt lat="46.25546216033399105072021484375" lon="7.4426081590354442596435546875"><ele></ele><time>2020-9-19T15:37:30Z</time></trkpt>
<trkpt lat="46.25550541095435619354248046875" lon="7.4426732026040554046630859375"><ele></ele><time>2020-9-19T15:37:33Z</time></trkpt>
<trkpt lat="46.255593337118625640869140625" lon="7.442803122103214263916015625"><ele></ele><time>2020-9-19T15:37:36Z</time></trkpt>
<trkpt lat="46.2556364201009273529052734375" lon="7.4428685009479522705078125"><ele></ele><time>2020-9-19T15:37:39Z</time></trkpt>
<trkpt lat="46.2557242624461650848388671875" lon="7.443000264465808868408203125"><ele></ele><time>2020-9-19T15:37:42Z</time></trkpt>
<trkpt lat="46.25576860271394252777099609375" lon="7.44306631386280059814453125"><ele></ele><time>2020-9-19T15:37:45Z</time></trkpt>
<trkpt lat="46.2558570317924022674560546875" lon="7.44319849647581577301025390625"><ele></ele><time>2020-9-19T15:37:48Z</time></trkpt>
<trkpt lat="46.25590103678405284881591796875" lon="7.4432646296918392181396484375"><ele></ele><time>2020-9-19T15:37:51Z</time></trkpt>
<trkpt lat="46.25594512559473514556884765625" lon="7.4433306790888309478759765625"><ele></ele><time>2020-9-19T15:37:54Z</time></trkpt>
<trkpt lat="46.25603347085416316986083984375" lon="7.44346369989216327667236328125"><ele></ele><time>2020-9-19T15:37:57Z</time></trkpt>
<trkpt lat="46.256121732294559478759765625" lon="7.44359579868614673614501953125"><ele></ele><time>2020-9-19T15:38:0Z</time></trkpt>
<trkpt lat="46.25616556964814662933349609375" lon="7.44366184808313846588134765625"><ele></ele><time>2020-9-19T15:38:3Z</time></trkpt>
<trkpt lat="46.2562543340027332305908203125" lon="7.4437960423529148101806640625"><ele></ele><time>2020-9-19T15:38:6Z</time></trkpt>
<trkpt lat="46.256343014538288116455078125" lon="7.44393006898462772369384765625"><ele></ele><time>2020-9-19T15:38:9Z</time></trkpt>
<trkpt lat="46.2564330361783504486083984375" lon="7.4440632574260234832763671875"><ele></ele><time>2020-9-19T15:38:12Z</time></trkpt>
<trkpt lat="46.2565232254564762115478515625" lon="7.44419694878160953521728515625"><ele></ele><time>2020-9-19T15:38:15Z</time></trkpt>
<trkpt lat="46.2565678171813488006591796875" lon="7.4442627467215061187744140625"><ele></ele><time>2020-9-19T15:38:18Z</time></trkpt>
<trkpt lat="46.2566117383539676666259765625" lon="7.4443284608423709869384765625"><ele></ele><time>2020-9-19T15:38:21Z</time></trkpt>
<trkpt lat="46.25670142471790313720703125" lon="7.4444625712931156158447265625"><ele></ele><time>2020-9-19T15:38:24Z</time></trkpt>
<trkpt lat="46.25683419406414031982421875" lon="7.4446620605885982513427734375"><ele></ele><time>2020-9-19T15:38:27Z</time></trkpt>
<trkpt lat="46.25692312605679035186767578125" lon="7.4447938241064548492431640625"><ele></ele><time>2020-9-19T15:38:30Z</time></trkpt>
<trkpt lat="46.25696755014359951019287109375" lon="7.44485945440828800201416015625"><ele></ele><time>2020-9-19T15:38:33Z</time></trkpt>
<trkpt lat="46.25710149295628070831298828125" lon="7.44506028480827808380126953125"><ele></ele><time>2020-9-19T15:38:36Z</time></trkpt>
<trkpt lat="46.2571910955011844635009765625" lon="7.4451931379735469818115234375"><ele></ele><time>2020-9-19T15:38:39Z</time></trkpt>
<trkpt lat="46.25723543576896190643310546875" lon="7.44525994174182415008544921875"><ele></ele><time>2020-9-19T15:38:42Z</time></trkpt>
<trkpt lat="46.25727985985577106475830078125" lon="7.445327080786228179931640625"><ele></ele><time>2020-9-19T15:38:45Z</time></trkpt>
<trkpt lat="46.25732428394258022308349609375" lon="7.4453939683735370635986328125"><ele></ele><time>2020-9-19T15:38:48Z</time></trkpt>
<trkpt lat="46.25741313211619853973388671875" lon="7.4455277435481548309326171875"><ele></ele><time>2020-9-19T15:38:51Z</time></trkpt>
<trkpt lat="46.2574573047459125518798828125" lon="7.4455934576690196990966796875"><ele></ele><time>2020-9-19T15:38:54Z</time></trkpt>
<trkpt lat="46.257501058280467987060546875" lon="7.4456595070660114288330078125"><ele></ele><time>2020-9-19T15:38:57Z</time></trkpt>
<trkpt lat="46.25768017955124378204345703125" lon="7.44592814706265926361083984375"><ele></ele><time>2020-9-19T15:39:0Z</time></trkpt>
<trkpt lat="46.257725693285465240478515625" lon="7.44599469937384128570556640625"><ele></ele><time>2020-9-19T15:39:3Z</time></trkpt>
<trkpt lat="46.25777103938162326812744140625" lon="7.44606141932308673858642578125"><ele></ele><time>2020-9-19T15:39:6Z</time></trkpt>
<trkpt lat="46.25818527303636074066162109375" lon="7.44666826911270618438720703125"><ele></ele><time>2020-9-19T15:39:9Z</time></trkpt>
<trkpt lat="46.2582780607044696807861328125" lon="7.44680522941052913665771484375"><ele></ele><time>2020-9-19T15:39:12Z</time></trkpt>
<trkpt lat="46.2583236582577228546142578125" lon="7.44687236845493316650390625"><ele></ele><time>2020-9-19T15:39:15Z</time></trkpt>
<trkpt lat="46.2583679147064685821533203125" lon="7.4469412676990032196044921875"><ele></ele><time>2020-9-19T15:39:18Z</time></trkpt>
<trkpt lat="46.25845466740429401397705078125" lon="7.44708116166293621063232421875"><ele></ele><time>2020-9-19T15:39:21Z</time></trkpt>
<trkpt lat="46.25849892385303974151611328125" lon="7.44714939035475254058837890625"><ele></ele><time>2020-9-19T15:39:24Z</time></trkpt>
<trkpt lat="46.25854351557791233062744140625" lon="7.44721703231334686279296875"><ele></ele><time>2020-9-19T15:39:27Z</time></trkpt>
<trkpt lat="46.25858793966472148895263671875" lon="7.44728467427194118499755859375"><ele></ele><time>2020-9-19T15:39:30Z</time></trkpt>
<trkpt lat="46.25867812894284725189208984375" lon="7.44741995818912982940673828125"><ele></ele><time>2020-9-19T15:39:33Z</time></trkpt>
<trkpt lat="46.25872238539159297943115234375" lon="7.4474867619574069976806640625"><ele></ele><time>2020-9-19T15:39:36Z</time></trkpt>
<trkpt lat="46.2587675638496875762939453125" lon="7.44755373336374759674072265625"><ele></ele><time>2020-9-19T15:39:39Z</time></trkpt>
<trkpt lat="46.258812658488750457763671875" lon="7.4476205371320247650146484375"><ele></ele><time>2020-9-19T15:39:42Z</time></trkpt>
<trkpt lat="46.25885683111846446990966796875" lon="7.44768750853836536407470703125"><ele></ele><time>2020-9-19T15:39:45Z</time></trkpt>
<trkpt lat="46.25890209339559078216552734375" lon="7.44775389321148395538330078125"><ele></ele><time>2020-9-19T15:39:48Z</time></trkpt>
<trkpt lat="46.2589482776820659637451171875" lon="7.44782111607491970062255859375"><ele></ele><time>2020-9-19T15:39:51Z</time></trkpt>
<trkpt lat="46.259086243808269500732421875" lon="7.44802328757941722869873046875"><ele></ele><time>2020-9-19T15:39:54Z</time></trkpt>
<trkpt lat="46.25917718745768070220947265625" lon="7.4481606669723987579345703125"><ele></ele><time>2020-9-19T15:39:57Z</time></trkpt>
<trkpt lat="46.2593610025942325592041015625" lon="7.44843718595802783966064453125"><ele></ele><time>2020-9-19T15:40:0Z</time></trkpt>
<trkpt lat="46.259406767785549163818359375" lon="7.44850625284016132354736328125"><ele></ele><time>2020-9-19T15:40:3Z</time></trkpt>
<trkpt lat="46.25949838198721408843994140625" lon="7.44864522479474544525146484375"><ele></ele><time>2020-9-19T15:40:6Z</time></trkpt>
<trkpt lat="46.2595437280833721160888671875" lon="7.44871496222913265228271484375"><ele></ele><time>2020-9-19T15:40:9Z</time></trkpt>
<trkpt lat="46.25958940945565700531005859375" lon="7.4487836100161075592041015625"><ele></ele><time>2020-9-19T15:40:12Z</time></trkpt>
<trkpt lat="46.25963483937084674835205078125" lon="7.4488525092601776123046875"><ele></ele><time>2020-9-19T15:40:15Z</time></trkpt>
<trkpt lat="46.2597727216780185699462890625" lon="7.44905761443078517913818359375"><ele></ele><time>2020-9-19T15:40:18Z</time></trkpt>
<trkpt lat="46.2598189897835254669189453125" lon="7.44912466965615749359130859375"><ele></ele><time>2020-9-19T15:40:21Z</time></trkpt>
<trkpt lat="46.25986517407000064849853515625" lon="7.4491918087005615234375"><ele></ele><time>2020-9-19T15:40:24Z</time></trkpt>
<trkpt lat="46.259911023080348968505859375" lon="7.449258863925933837890625"><ele></ele><time>2020-9-19T15:40:27Z</time></trkpt>
<trkpt lat="46.25995695590972900390625" lon="7.4493260867893695831298828125"><ele></ele><time>2020-9-19T15:40:30Z</time></trkpt>
<trkpt lat="46.26000230200588703155517578125" lon="7.44939406402409076690673828125"><ele></ele><time>2020-9-19T15:40:33Z</time></trkpt>
<trkpt lat="46.26018519513309001922607421875" lon="7.44966865517199039459228515625"><ele></ele><time>2020-9-19T15:40:36Z</time></trkpt>
<trkpt lat="46.2602776475250720977783203125" lon="7.44980528019368648529052734375"><ele></ele><time>2020-9-19T15:40:39Z</time></trkpt>
<trkpt lat="46.2603229098021984100341796875" lon="7.44987334124743938446044921875"><ele></ele><time>2020-9-19T15:40:42Z</time></trkpt>
<trkpt lat="46.26036800444126129150390625" lon="7.4499413184821605682373046875"><ele></ele><time>2020-9-19T15:40:45Z</time></trkpt>
<trkpt lat="46.2604130990803241729736328125" lon="7.45000963099300861358642578125"><ele></ele><time>2020-9-19T15:40:48Z</time></trkpt>
<trkpt lat="46.26054905354976654052734375" lon="7.45021616108715534210205078125"><ele></ele><time>2020-9-19T15:40:51Z</time></trkpt>
<trkpt lat="46.2605938129127025604248046875" lon="7.45028506033122539520263671875"><ele></ele><time>2020-9-19T15:40:54Z</time></trkpt>
<trkpt lat="46.26064167357981204986572265625" lon="7.4503486789762973785400390625"><ele></ele><time>2020-9-19T15:40:57Z</time></trkpt>
<trkpt lat="46.260690204799175262451171875" lon="7.45040944777429103851318359375"><ele></ele><time>2020-9-19T15:41:0Z</time></trkpt>
<trkpt lat="46.26073638908565044403076171875" lon="7.4504740722477436065673828125"><ele></ele><time>2020-9-19T15:41:3Z</time></trkpt>
<trkpt lat="46.26096001826226711273193359375" lon="7.45081412605941295623779296875"><ele></ele><time>2020-9-19T15:41:6Z</time></trkpt>
<trkpt lat="46.2610035203397274017333984375" lon="7.45088269002735614776611328125"><ele></ele><time>2020-9-19T15:41:9Z</time></trkpt>
<trkpt lat="46.26126796938478946685791015625" lon="7.45129575021564960479736328125"><ele></ele><time>2020-9-19T15:41:12Z</time></trkpt>
<trkpt lat="46.26140392385423183441162109375" lon="7.45150311850011348724365234375"><ele></ele><time>2020-9-19T15:41:15Z</time></trkpt>
<trkpt lat="46.2614487670361995697021484375" lon="7.4515734426677227020263671875"><ele></ele><time>2020-9-19T15:41:18Z</time></trkpt>
<trkpt lat="46.26149344258010387420654296875" lon="7.4516441859304904937744140625"><ele></ele><time>2020-9-19T15:41:21Z</time></trkpt>
<trkpt lat="46.26167164184153079986572265625" lon="7.45192824862897396087646484375"><ele></ele><time>2020-9-19T15:41:24Z</time></trkpt>
<trkpt lat="46.2617159821093082427978515625" lon="7.45199932716786861419677734375"><ele></ele><time>2020-9-19T15:41:27Z</time></trkpt>
<trkpt lat="46.2618036568164825439453125" lon="7.45214181952178478240966796875"><ele></ele><time>2020-9-19T15:41:30Z</time></trkpt>
<trkpt lat="46.26189124770462512969970703125" lon="7.45228414423763751983642578125"><ele></ele><time>2020-9-19T15:41:33Z</time></trkpt>
<trkpt lat="46.26193466596305370330810546875" lon="7.452355809509754180908203125"><ele></ele><time>2020-9-19T15:41:36Z</time></trkpt>
<trkpt lat="46.26202267594635486602783203125" lon="7.45250022970139980316162109375"><ele></ele><time>2020-9-19T15:41:39Z</time></trkpt>
<trkpt lat="46.2620656751096248626708984375" lon="7.45257399044930934906005859375"><ele></ele><time>2020-9-19T15:41:42Z</time></trkpt>
<trkpt lat="46.26215209253132343292236328125" lon="7.45272335596382617950439453125"><ele></ele><time>2020-9-19T15:41:45Z</time></trkpt>
<trkpt lat="46.26219551078975200653076171875" lon="7.45279745198786258697509765625"><ele></ele><time>2020-9-19T15:41:48Z</time></trkpt>
<trkpt lat="46.262325011193752288818359375" lon="7.45302133262157440185546875"><ele></ele><time>2020-9-19T15:41:51Z</time></trkpt>
<trkpt lat="46.26241176389157772064208984375" lon="7.45317019522190093994140625"><ele></ele><time>2020-9-19T15:41:54Z</time></trkpt>
<trkpt lat="46.2624554336071014404296875" lon="7.45324387215077877044677734375"><ele></ele><time>2020-9-19T15:41:57Z</time></trkpt>
<trkpt lat="46.26262910664081573486328125" lon="7.4535418488085269927978515625"><ele></ele><time>2020-9-19T15:42:0Z</time></trkpt>
<trkpt lat="46.26267202198505401611328125" lon="7.45361720211803913116455078125"><ele></ele><time>2020-9-19T15:42:3Z</time></trkpt>
<trkpt lat="46.26271485351026058197021484375" lon="7.45369247160851955413818359375"><ele></ele><time>2020-9-19T15:42:6Z</time></trkpt>
<trkpt lat="46.26275726594030857086181640625" lon="7.45376765727996826171875"><ele></ele><time>2020-9-19T15:42:9Z</time></trkpt>
<trkpt lat="46.26288257539272308349609375" lon="7.45399899780750274658203125"><ele></ele><time>2020-9-19T15:42:12Z</time></trkpt>
<trkpt lat="46.2629246525466442108154296875" lon="7.4540766142308712005615234375"><ele></ele><time>2020-9-19T15:42:15Z</time></trkpt>
<trkpt lat="46.26300822012126445770263671875" lon="7.4542335234582424163818359375"><ele></ele><time>2020-9-19T15:42:18Z</time></trkpt>
<trkpt lat="46.26304979436099529266357421875" lon="7.45431256480515003204345703125"><ele></ele><time>2020-9-19T15:42:21Z</time></trkpt>
<trkpt lat="46.26309287734329700469970703125" lon="7.4543912708759307861328125"><ele></ele><time>2020-9-19T15:42:24Z</time></trkpt>
<trkpt lat="46.263223551213741302490234375" lon="7.4546341784298419952392578125"><ele></ele><time>2020-9-19T15:42:27Z</time></trkpt>
<trkpt lat="46.26326688565313816070556640625" lon="7.454716823995113372802734375"><ele></ele><time>2020-9-19T15:42:30Z</time></trkpt>
<trkpt lat="46.263309381902217864990234375" lon="7.45479963719844818115234375"><ele></ele><time>2020-9-19T15:42:33Z</time></trkpt>
<trkpt lat="46.2633528001606464385986328125" lon="7.45488203130662441253662109375"><ele></ele><time>2020-9-19T15:42:36Z</time></trkpt>
<trkpt lat="46.263395883142948150634765625" lon="7.45496484450995922088623046875"><ele></ele><time>2020-9-19T15:42:39Z</time></trkpt>
<trkpt lat="46.26343787647783756256103515625" lon="7.45504899881780147552490234375"><ele></ele><time>2020-9-19T15:42:42Z</time></trkpt>
<trkpt lat="46.26347936689853668212890625" lon="7.4551327340304851531982421875"><ele></ele><time>2020-9-19T15:42:45Z</time></trkpt>
<trkpt lat="46.2635204382240772247314453125" lon="7.45521646924316883087158203125"><ele></ele><time>2020-9-19T15:42:48Z</time></trkpt>
<trkpt lat="46.26360476016998291015625" lon="7.45538578368723392486572265625"><ele></ele><time>2020-9-19T15:42:51Z</time></trkpt>
<trkpt lat="46.2636465020477771759033203125" lon="7.4554700218141078948974609375"><ele></ele><time>2020-9-19T15:42:54Z</time></trkpt>
<trkpt lat="46.26368782483041286468505859375" lon="7.4555548466742038726806640625"><ele></ele><time>2020-9-19T15:42:57Z</time></trkpt>
<trkpt lat="46.2637286446988582611083984375" lon="7.45564092881977558135986328125"><ele></ele><time>2020-9-19T15:43:0Z</time></trkpt>
<trkpt lat="46.26376929692924022674560546875" lon="7.4557275138795375823974609375"><ele></ele><time>2020-9-19T15:43:3Z</time></trkpt>
<trkpt lat="46.2638101167976856231689453125" lon="7.455814182758331298828125"><ele></ele><time>2020-9-19T15:43:6Z</time></trkpt>
<trkpt lat="46.2638915888965129852294921875" lon="7.45598793961107730865478515625"><ele></ele><time>2020-9-19T15:43:9Z</time></trkpt>
<trkpt lat="46.2639713846147060394287109375" lon="7.4561615288257598876953125"><ele></ele><time>2020-9-19T15:43:12Z</time></trkpt>
<trkpt lat="46.2640111148357391357421875" lon="7.45624803006649017333984375"><ele></ele><time>2020-9-19T15:43:15Z</time></trkpt>
<trkpt lat="46.26405109651386737823486328125" lon="7.45633444748818874359130859375"><ele></ele><time>2020-9-19T15:43:18Z</time></trkpt>
<trkpt lat="46.26409049145877361297607421875" lon="7.4564208649098873138427734375"><ele></ele><time>2020-9-19T15:43:21Z</time></trkpt>
<trkpt lat="46.2641289643943309783935546875" lon="7.45650744996964931488037109375"><ele></ele><time>2020-9-19T15:43:24Z</time></trkpt>
<trkpt lat="46.26428394578397274017333984375" lon="7.45685831643640995025634765625"><ele></ele><time>2020-9-19T15:43:27Z</time></trkpt>
<trkpt lat="46.26432149671018123626708984375" lon="7.45694682933390140533447265625"><ele></ele><time>2020-9-19T15:43:30Z</time></trkpt>
<trkpt lat="46.26436072401702404022216796875" lon="7.45703467167913913726806640625"><ele></ele><time>2020-9-19T15:43:33Z</time></trkpt>
<trkpt lat="46.2643995322287082672119140625" lon="7.45712268166244029998779296875"><ele></ele><time>2020-9-19T15:43:36Z</time></trkpt>
<trkpt lat="46.26447505317628383636474609375" lon="7.4572987854480743408203125"><ele></ele><time>2020-9-19T15:43:39Z</time></trkpt>
<trkpt lat="46.2645108439028263092041015625" lon="7.457386963069438934326171875"><ele></ele><time>2020-9-19T15:43:42Z</time></trkpt>
<trkpt lat="46.26454579643905162811279296875" lon="7.45747505687177181243896484375"><ele></ele><time>2020-9-19T15:43:45Z</time></trkpt>
<trkpt lat="46.26457949168980121612548828125" lon="7.45756256394088268280029296875"><ele></ele><time>2020-9-19T15:43:48Z</time></trkpt>
<trkpt lat="46.26461385749280452728271484375" lon="7.45764906518161296844482421875"><ele></ele><time>2020-9-19T15:43:51Z</time></trkpt>
<trkpt lat="46.26464872620999813079833984375" lon="7.457734644412994384765625"><ele></ele><time>2020-9-19T15:43:54Z</time></trkpt>
<trkpt lat="46.26468460075557231903076171875" lon="7.4578203074634075164794921875"><ele></ele><time>2020-9-19T15:43:57Z</time></trkpt>
<trkpt lat="46.2647187151014804840087890625" lon="7.4579041264951229095458984375"><ele></ele><time>2020-9-19T15:44:0Z</time></trkpt>
<trkpt lat="46.26475014723837375640869140625" lon="7.45798551477491855621337890625"><ele></ele><time>2020-9-19T15:44:3Z</time></trkpt>
<trkpt lat="46.26477981917560100555419921875" lon="7.4580653943121433258056640625"><ele></ele><time>2020-9-19T15:44:6Z</time></trkpt>
<trkpt lat="46.26480747945606708526611328125" lon="7.45814309455454349517822265625"><ele></ele><time>2020-9-19T15:44:9Z</time></trkpt>
<trkpt lat="46.26483430154621601104736328125" lon="7.458217442035675048828125"><ele></ele><time>2020-9-19T15:44:12Z</time></trkpt>
<trkpt lat="46.26486204564571380615234375" lon="7.45828877203166484832763671875"><ele></ele><time>2020-9-19T15:44:15Z</time></trkpt>
<trkpt lat="46.26488911919295787811279296875" lon="7.458356916904449462890625"><ele></ele><time>2020-9-19T15:44:18Z</time></trkpt>
<trkpt lat="46.26491309143602848052978515625" lon="7.45842196047306060791015625"><ele></ele><time>2020-9-19T15:44:21Z</time></trkpt>
<trkpt lat="46.2649353034794330596923828125" lon="7.45847962796688079833984375"><ele></ele><time>2020-9-19T15:44:24Z</time></trkpt>
<trkpt lat="46.26495650969445705413818359375" lon="7.4585310928523540496826171875"><ele></ele><time>2020-9-19T15:44:27Z</time></trkpt>
<trkpt lat="46.2649755366146564483642578125" lon="7.45857912115752696990966796875"><ele></ele><time>2020-9-19T15:44:30Z</time></trkpt>
<trkpt lat="46.26499255187809467315673828125" lon="7.458623461425304412841796875"><ele></ele><time>2020-9-19T15:44:33Z</time></trkpt>
<trkpt lat="46.2650070525705814361572265625" lon="7.4586638621985912322998046875"><ele></ele><time>2020-9-19T15:44:36Z</time></trkpt>
<trkpt lat="46.265018284320831298828125" lon="7.458701245486736297607421875"><ele></ele><time>2020-9-19T15:44:39Z</time></trkpt>
<trkpt lat="46.26502876169979572296142578125" lon="7.4587364494800567626953125"><ele></ele><time>2020-9-19T15:44:42Z</time></trkpt>
<trkpt lat="46.26504016108810901641845703125" lon="7.45877207256853580474853515625"><ele></ele><time>2020-9-19T15:44:45Z</time></trkpt>
<trkpt lat="46.26504904590547084808349609375" lon="7.458803839981555938720703125"><ele></ele><time>2020-9-19T15:44:48Z</time></trkpt>
<trkpt lat="46.2650560028851032257080078125" lon="7.45883963070809841156005859375"><ele></ele><time>2020-9-19T15:44:51Z</time></trkpt>
<trkpt lat="46.265061199665069580078125" lon="7.45886729098856449127197265625"><ele></ele><time>2020-9-19T15:44:54Z</time></trkpt>
<trkpt lat="46.26506564207375049591064453125" lon="7.4588868208229541778564453125"><ele></ele><time>2020-9-19T15:44:57Z</time></trkpt>
<trkpt lat="46.2650692462921142578125" lon="7.4589054286479949951171875"><ele></ele><time>2020-9-19T15:45:0Z</time></trkpt>
<trkpt lat="46.265072263777256011962890625" lon="7.45891909115016460418701171875"><ele></ele><time>2020-9-19T15:45:3Z</time></trkpt>
<trkpt lat="46.2650744430720806121826171875" lon="7.4589270539581775665283203125"><ele></ele><time>2020-9-19T15:45:6Z</time></trkpt>
<trkpt lat="46.2650761194527149200439453125" lon="7.45893199928104877471923828125"><ele></ele><time>2020-9-19T15:45:9Z</time></trkpt>
<trkpt lat="46.26507737673819065093994140625" lon="7.45893694460391998291015625"><ele></ele><time>2020-9-19T15:45:12Z</time></trkpt>
<trkpt lat="46.26507930457592010498046875" lon="7.458939962089061737060546875"><ele></ele><time>2020-9-19T15:45:15Z</time></trkpt>
<trkpt lat="46.265082657337188720703125" lon="7.45894574560225009918212890625"><ele></ele><time>2020-9-19T15:45:18Z</time></trkpt>
<trkpt lat="46.2650868482887744903564453125" lon="7.45895144529640674591064453125"><ele></ele><time>2020-9-19T15:45:21Z</time></trkpt>
<trkpt lat="46.26509430818259716033935546875" lon="7.458958737552165985107421875"><ele></ele><time>2020-9-19T15:45:24Z</time></trkpt>
<trkpt lat="46.2650999240577220916748046875" lon="7.4589656107127666473388671875"><ele></ele><time>2020-9-19T15:45:27Z</time></trkpt>
<trkpt lat="46.26510143280029296875" lon="7.45897742919623851776123046875"><ele></ele><time>2020-9-19T15:45:30Z</time></trkpt>
<trkpt lat="46.26510134898126125335693359375" lon="7.45898916386067867279052734375"><ele></ele><time>2020-9-19T15:45:33Z</time></trkpt>
<trkpt lat="46.26510185189545154571533203125" lon="7.4589974619448184967041015625"><ele></ele><time>2020-9-19T15:45:36Z</time></trkpt>
<trkpt lat="46.2651036120951175689697265625" lon="7.45900525711476802825927734375"><ele></ele><time>2020-9-19T15:45:39Z</time></trkpt>
<trkpt lat="46.2651054561138153076171875" lon="7.459013722836971282958984375"><ele></ele><time>2020-9-19T15:45:42Z</time></trkpt>
<trkpt lat="46.2651069648563861846923828125" lon="7.4590219371020793914794921875"><ele></ele><time>2020-9-19T15:45:45Z</time></trkpt>
<trkpt lat="46.26511006616055965423583984375" lon="7.45903040282428264617919921875"><ele></ele><time>2020-9-19T15:45:48Z</time></trkpt>
<trkpt lat="46.26511207781732082366943359375" lon="7.45903945527970790863037109375"><ele></ele><time>2020-9-19T15:45:51Z</time></trkpt>
<trkpt lat="46.26511459238827228546142578125" lon="7.4590474180877208709716796875"><ele></ele><time>2020-9-19T15:45:54Z</time></trkpt>
<trkpt lat="46.26511828042566776275634765625" lon="7.45905504561960697174072265625"><ele></ele><time>2020-9-19T15:45:57Z</time></trkpt>
<trkpt lat="46.2651203759014606475830078125" lon="7.45905236341059207916259765625"><ele></ele><time>2020-9-19T15:46:0Z</time></trkpt>
<trkpt lat="46.26512096263468265533447265625" lon="7.4590341746807098388671875"><ele></ele><time>2020-9-19T15:46:3Z</time></trkpt>
<trkpt lat="46.26566176302731037139892578125" lon="7.45881431736052036285400390625"><ele></ele><time>2020-9-19T15:46:6Z</time></trkpt>
<trkpt lat="46.2655748426914215087890625" lon="7.4586819671094417572021484375"><ele></ele><time>2020-9-19T15:46:9Z</time></trkpt>
<trkpt lat="46.2655780278146266937255859375" lon="7.4586452543735504150390625"><ele></ele><time>2020-9-19T15:46:12Z</time></trkpt>
<trkpt lat="46.26558397896587848663330078125" lon="7.4586353637278079986572265625"><ele></ele><time>2020-9-19T15:46:15Z</time></trkpt>
<trkpt lat="46.26558917574584484100341796875" lon="7.4586331844329833984375"><ele></ele><time>2020-9-19T15:46:18Z</time></trkpt>
<trkpt lat="46.26559219323098659515380859375" lon="7.4586286582052707672119140625"><ele></ele><time>2020-9-19T15:46:21Z</time></trkpt>
<trkpt lat="46.2655968032777309417724609375" lon="7.45861650444567203521728515625"><ele></ele><time>2020-9-19T15:46:24Z</time></trkpt>
<trkpt lat="46.26560124568641185760498046875" lon="7.4586050212383270263671875"><ele></ele><time>2020-9-19T15:46:27Z</time></trkpt>
<trkpt lat="46.26560761593282222747802734375" lon="7.45858917944133281707763671875"><ele></ele><time>2020-9-19T15:46:30Z</time></trkpt>
<trkpt lat="46.2656179256737232208251953125" lon="7.45857484638690948486328125"><ele></ele><time>2020-9-19T15:46:33Z</time></trkpt>
<trkpt lat="46.2656367011368274688720703125" lon="7.45856906287372112274169921875"><ele></ele><time>2020-9-19T15:46:36Z</time></trkpt>
<trkpt lat="46.26565824262797832489013671875" lon="7.45856990106403827667236328125"><ele></ele><time>2020-9-19T15:46:39Z</time></trkpt>
<trkpt lat="46.26568146049976348876953125" lon="7.458592616021633148193359375"><ele></ele><time>2020-9-19T15:46:42Z</time></trkpt>
<trkpt lat="46.2656997330486774444580078125" lon="7.45862404815852642059326171875"><ele></ele><time>2020-9-19T15:46:45Z</time></trkpt>
<trkpt lat="46.2657299079000949859619140625" lon="7.45868992991745471954345703125"><ele></ele><time>2020-9-19T15:46:48Z</time></trkpt>
<trkpt lat="46.26576335169374942779541015625" lon="7.45876586996018886566162109375"><ele></ele><time>2020-9-19T15:46:51Z</time></trkpt>
<trkpt lat="46.265876591205596923828125" lon="7.459062002599239349365234375"><ele></ele><time>2020-9-19T15:46:54Z</time></trkpt>
<trkpt lat="46.2658908404409885406494140625" lon="7.4591184966266155242919921875"><ele></ele><time>2020-9-19T15:46:57Z</time></trkpt>
<trkpt lat="46.26592713408172130584716796875" lon="7.45930030010640621185302734375"><ele></ele><time>2020-9-19T15:47:0Z</time></trkpt>
<trkpt lat="46.2659418024122714996337890625" lon="7.45936249382793903350830078125"><ele></ele><time>2020-9-19T15:47:3Z</time></trkpt>
<trkpt lat="46.26596041023731231689453125" lon="7.45942485518753528594970703125"><ele></ele><time>2020-9-19T15:47:6Z</time></trkpt>
<trkpt lat="46.2660125456750392913818359375" lon="7.4596130289137363433837890625"><ele></ele><time>2020-9-19T15:47:9Z</time></trkpt>
<trkpt lat="46.26607247628271579742431640625" lon="7.4598644860088825225830078125"><ele></ele><time>2020-9-19T15:47:12Z</time></trkpt>
<trkpt lat="46.26608756370842456817626953125" lon="7.45992676354944705963134765625"><ele></ele><time>2020-9-19T15:47:15Z</time></trkpt>
<trkpt lat="46.26615780405700206756591796875" lon="7.4601746164262294769287109375"><ele></ele><time>2020-9-19T15:47:18Z</time></trkpt>
<trkpt lat="46.26617305912077426910400390625" lon="7.46023639105260372161865234375"><ele></ele><time>2020-9-19T15:47:21Z</time></trkpt>
<trkpt lat="46.2661875598132610321044921875" lon="7.4602969922125339508056640625"><ele></ele><time>2020-9-19T15:47:24Z</time></trkpt>
<trkpt lat="46.2662026472389698028564453125" lon="7.46035625226795673370361328125"><ele></ele><time>2020-9-19T15:47:27Z</time></trkpt>
<trkpt lat="46.2662173993885517120361328125" lon="7.46041375212371349334716796875"><ele></ele><time>2020-9-19T15:47:30Z</time></trkpt>
<trkpt lat="46.26622997224330902099609375" lon="7.46047024615108966827392578125"><ele></ele><time>2020-9-19T15:47:33Z</time></trkpt>
<trkpt lat="46.26624204218387603759765625" lon="7.4605246447026729583740234375"><ele></ele><time>2020-9-19T15:47:36Z</time></trkpt>
<trkpt lat="46.2662556208670139312744140625" lon="7.46057577431201934814453125"><ele></ele><time>2020-9-19T15:47:39Z</time></trkpt>
<trkpt lat="46.26627012155950069427490234375" lon="7.4606228806078433990478515625"><ele></ele><time>2020-9-19T15:47:42Z</time></trkpt>
<trkpt lat="46.26628504134714603424072265625" lon="7.46066554449498653411865234375"><ele></ele><time>2020-9-19T15:47:45Z</time></trkpt>
<trkpt lat="46.26629970967769622802734375" lon="7.46070426888763904571533203125"><ele></ele><time>2020-9-19T15:47:48Z</time></trkpt>
<trkpt lat="46.26631253398954868316650390625" lon="7.46073192916810512542724609375"><ele></ele><time>2020-9-19T15:47:51Z</time></trkpt>
<trkpt lat="46.26631789840757846832275390625" lon="7.4607452563941478729248046875"><ele></ele><time>2020-9-19T15:47:54Z</time></trkpt>
<trkpt lat="46.266324855387210845947265625" lon="7.46074701659381389617919921875"><ele></ele><time>2020-9-19T15:47:57Z</time></trkpt>
<trkpt lat="46.266326867043972015380859375" lon="7.46074886061251163482666015625"><ele></ele><time>2020-9-19T15:48:0Z</time></trkpt>
</trkseg></trk></gpx>